<?xml version="1.0" encoding="UTF-8" standalone="no" ?>
<gpx xmlns="http://www.topografix.com/GPX/1/1" xmlns:xsi="http://www.w3.org/2001/XMLSchema-instance" xsi:schemaLocation="http://www.topografix.com/GPX/1/1 http://www.topografix.com/GPX/1/1/gpx.xsd" version="1.1" creator="VisuGPX - https://www.visugpx.com">
  <metadata>
    <name>13221514-Flow-vélo</name>
  </metadata>
  <trk>
    <name><![CDATA[13221514-Flow-vélo]]></name>
    <extensions>
      <line xmlns="http://www.topografix.com/GPX/gpx_style/0/2">
        <color>0000FF</color>
        <width>4</width>
      </line>
    </extensions>
    <trkseg>
      <trkpt lat="45.41884" lon="0.92137">
        <ele>252</ele>
        <time>2021-06-11T13:54:44Z</time>
      </trkpt>
      <trkpt lat="45.4187" lon="0.9212">
        <ele>253</ele>
        <time>2021-06-11T13:54:47Z</time>
      </trkpt>
      <trkpt lat="45.41865" lon="0.92129">
        <ele>253</ele>
        <time>2021-06-11T13:54:49Z</time>
      </trkpt>
      <trkpt lat="45.41865" lon="0.92139">
        <ele>253</ele>
        <time>2021-06-11T13:54:50Z</time>
      </trkpt>
      <trkpt lat="45.41858" lon="0.92144">
        <ele>253</ele>
        <time>2021-06-11T13:54:51Z</time>
      </trkpt>
      <trkpt lat="45.41789" lon="0.92051">
        <ele>255</ele>
        <time>2021-06-11T13:55:08Z</time>
      </trkpt>
      <trkpt lat="45.41749" lon="0.92004">
        <ele>256</ele>
        <time>2021-06-11T13:55:17Z</time>
      </trkpt>
      <trkpt lat="45.41713" lon="0.91973">
        <ele>260</ele>
        <time>2021-06-11T13:55:25Z</time>
      </trkpt>
      <trkpt lat="45.41628" lon="0.91935">
        <ele>269</ele>
        <time>2021-06-11T13:55:41Z</time>
      </trkpt>
      <trkpt lat="45.41614" lon="0.91925">
        <ele>270</ele>
        <time>2021-06-11T13:55:44Z</time>
      </trkpt>
      <trkpt lat="45.41601" lon="0.9191">
        <ele>270</ele>
        <time>2021-06-11T13:55:47Z</time>
      </trkpt>
      <trkpt lat="45.41568" lon="0.91845">
        <ele>272</ele>
        <time>2021-06-11T13:55:57Z</time>
      </trkpt>
      <trkpt lat="45.41522" lon="0.9177">
        <ele>273</ele>
        <time>2021-06-11T13:56:09Z</time>
      </trkpt>
      <trkpt lat="45.4155" lon="0.91645">
        <ele>273</ele>
        <time>2021-06-11T13:56:25Z</time>
      </trkpt>
      <trkpt lat="45.41611" lon="0.91446">
        <ele>271</ele>
        <time>2021-06-11T13:56:53Z</time>
      </trkpt>
      <trkpt lat="45.41614" lon="0.91427">
        <ele>271</ele>
        <time>2021-06-11T13:56:55Z</time>
      </trkpt>
      <trkpt lat="45.41614" lon="0.91411">
        <ele>270</ele>
        <time>2021-06-11T13:56:57Z</time>
      </trkpt>
      <trkpt lat="45.41609" lon="0.91397">
        <ele>270</ele>
        <time>2021-06-11T13:56:59Z</time>
      </trkpt>
      <trkpt lat="45.41601" lon="0.91383">
        <ele>269</ele>
        <time>2021-06-11T13:57:01Z</time>
      </trkpt>
      <trkpt lat="45.41584" lon="0.91361">
        <ele>268</ele>
        <time>2021-06-11T13:57:05Z</time>
      </trkpt>
      <trkpt lat="45.41576" lon="0.91336">
        <ele>266</ele>
        <time>2021-06-11T13:57:09Z</time>
      </trkpt>
      <trkpt lat="45.41579" lon="0.91291">
        <ele>265</ele>
        <time>2021-06-11T13:57:14Z</time>
      </trkpt>
      <trkpt lat="45.4159" lon="0.91184">
        <ele>262</ele>
        <time>2021-06-11T13:57:28Z</time>
      </trkpt>
      <trkpt lat="45.41598" lon="0.91152">
        <ele>260</ele>
        <time>2021-06-11T13:57:32Z</time>
      </trkpt>
      <trkpt lat="45.41622" lon="0.91103">
        <ele>259</ele>
        <time>2021-06-11T13:57:40Z</time>
      </trkpt>
      <trkpt lat="45.41641" lon="0.91078">
        <ele>258</ele>
        <time>2021-06-11T13:57:44Z</time>
      </trkpt>
      <trkpt lat="45.41656" lon="0.91065">
        <ele>257</ele>
        <time>2021-06-11T13:57:47Z</time>
      </trkpt>
      <trkpt lat="45.41695" lon="0.9104">
        <ele>252</ele>
        <time>2021-06-11T13:57:55Z</time>
      </trkpt>
      <trkpt lat="45.41715" lon="0.91023">
        <ele>249</ele>
        <time>2021-06-11T13:57:59Z</time>
      </trkpt>
      <trkpt lat="45.41727" lon="0.91009">
        <ele>247</ele>
        <time>2021-06-11T13:58:02Z</time>
      </trkpt>
      <trkpt lat="45.41958" lon="0.90601">
        <ele>222</ele>
        <time>2021-06-11T13:59:07Z</time>
      </trkpt>
      <trkpt lat="45.41975" lon="0.90554">
        <ele>221</ele>
        <time>2021-06-11T13:59:14Z</time>
      </trkpt>
      <trkpt lat="45.41996" lon="0.90472">
        <ele>219</ele>
        <time>2021-06-11T13:59:25Z</time>
      </trkpt>
      <trkpt lat="45.42016" lon="0.90404">
        <ele>217</ele>
        <time>2021-06-11T13:59:34Z</time>
      </trkpt>
      <trkpt lat="45.42055" lon="0.90306">
        <ele>212</ele>
        <time>2021-06-11T13:59:48Z</time>
      </trkpt>
      <trkpt lat="45.42059" lon="0.9029">
        <ele>212</ele>
        <time>2021-06-11T13:59:50Z</time>
      </trkpt>
      <trkpt lat="45.42062" lon="0.90266">
        <ele>211</ele>
        <time>2021-06-11T13:59:53Z</time>
      </trkpt>
      <trkpt lat="45.42061" lon="0.9022">
        <ele>210</ele>
        <time>2021-06-11T13:59:59Z</time>
      </trkpt>
      <trkpt lat="45.42048" lon="0.90121">
        <ele>209</ele>
        <time>2021-06-11T14:00:12Z</time>
      </trkpt>
      <trkpt lat="45.42046" lon="0.90096">
        <ele>209</ele>
        <time>2021-06-11T14:00:15Z</time>
      </trkpt>
      <trkpt lat="45.42052" lon="0.90072">
        <ele>209</ele>
        <time>2021-06-11T14:00:18Z</time>
      </trkpt>
      <trkpt lat="45.42061" lon="0.90053">
        <ele>208</ele>
        <time>2021-06-11T14:00:21Z</time>
      </trkpt>
      <trkpt lat="45.42078" lon="0.90033">
        <ele>208</ele>
        <time>2021-06-11T14:00:25Z</time>
      </trkpt>
      <trkpt lat="45.42092" lon="0.90013">
        <ele>208</ele>
        <time>2021-06-11T14:00:28Z</time>
      </trkpt>
      <trkpt lat="45.42102" lon="0.89993">
        <ele>208</ele>
        <time>2021-06-11T14:00:31Z</time>
      </trkpt>
      <trkpt lat="45.42108" lon="0.89971">
        <ele>209</ele>
        <time>2021-06-11T14:00:34Z</time>
      </trkpt>
      <trkpt lat="45.42177" lon="0.89646">
        <ele>209</ele>
        <time>2021-06-11T14:01:17Z</time>
      </trkpt>
      <trkpt lat="45.42184" lon="0.89629">
        <ele>208</ele>
        <time>2021-06-11T14:01:19Z</time>
      </trkpt>
      <trkpt lat="45.4219" lon="0.89608">
        <ele>208</ele>
        <time>2021-06-11T14:01:22Z</time>
      </trkpt>
      <trkpt lat="45.422" lon="0.89602">
        <ele>207</ele>
        <time>2021-06-11T14:01:24Z</time>
      </trkpt>
      <trkpt lat="45.42381" lon="0.89401">
        <ele>202</ele>
        <time>2021-06-11T14:02:05Z</time>
      </trkpt>
      <trkpt lat="45.42405" lon="0.89369">
        <ele>201</ele>
        <time>2021-06-11T14:02:11Z</time>
      </trkpt>
      <trkpt lat="45.42474" lon="0.89263">
        <ele>203</ele>
        <time>2021-06-11T14:02:29Z</time>
      </trkpt>
      <trkpt lat="45.42545" lon="0.89185">
        <ele>207</ele>
        <time>2021-06-11T14:02:45Z</time>
      </trkpt>
      <trkpt lat="45.42588" lon="0.89136">
        <ele>210</ele>
        <time>2021-06-11T14:02:54Z</time>
      </trkpt>
      <trkpt lat="45.42635" lon="0.89075">
        <ele>208</ele>
        <time>2021-06-11T14:03:06Z</time>
      </trkpt>
      <trkpt lat="45.4263" lon="0.89035">
        <ele>210</ele>
        <time>2021-06-11T14:03:11Z</time>
      </trkpt>
      <trkpt lat="45.42613" lon="0.88861">
        <ele>209</ele>
        <time>2021-06-11T14:03:33Z</time>
      </trkpt>
      <trkpt lat="45.42583" lon="0.88496">
        <ele>198</ele>
        <time>2021-06-11T14:04:19Z</time>
      </trkpt>
      <trkpt lat="45.42576" lon="0.88408">
        <ele>194</ele>
        <time>2021-06-11T14:04:30Z</time>
      </trkpt>
      <trkpt lat="45.42575" lon="0.88395">
        <ele>194</ele>
        <time>2021-06-11T14:04:31Z</time>
      </trkpt>
      <trkpt lat="45.42549" lon="0.88093">
        <ele>193</ele>
        <time>2021-06-11T14:05:09Z</time>
      </trkpt>
      <trkpt lat="45.42532" lon="0.87873">
        <ele>192</ele>
        <time>2021-06-11T14:05:37Z</time>
      </trkpt>
      <trkpt lat="45.42523" lon="0.87765">
        <ele>189</ele>
        <time>2021-06-11T14:05:50Z</time>
      </trkpt>
      <trkpt lat="45.42513" lon="0.87604">
        <ele>193</ele>
        <time>2021-06-11T14:06:11Z</time>
      </trkpt>
      <trkpt lat="45.42512" lon="0.87548">
        <ele>193</ele>
        <time>2021-06-11T14:06:18Z</time>
      </trkpt>
      <trkpt lat="45.42519" lon="0.87441">
        <ele>190</ele>
        <time>2021-06-11T14:06:31Z</time>
      </trkpt>
      <trkpt lat="45.42526" lon="0.87388">
        <ele>188</ele>
        <time>2021-06-11T14:06:38Z</time>
      </trkpt>
      <trkpt lat="45.42549" lon="0.8727">
        <ele>181</ele>
        <time>2021-06-11T14:06:53Z</time>
      </trkpt>
      <trkpt lat="45.42569" lon="0.87191">
        <ele>180</ele>
        <time>2021-06-11T14:07:04Z</time>
      </trkpt>
      <trkpt lat="45.42595" lon="0.87114">
        <ele>180</ele>
        <time>2021-06-11T14:07:14Z</time>
      </trkpt>
      <trkpt lat="45.42644" lon="0.86998">
        <ele>175</ele>
        <time>2021-06-11T14:07:31Z</time>
      </trkpt>
      <trkpt lat="45.427" lon="0.86898">
        <ele>178</ele>
        <time>2021-06-11T14:07:47Z</time>
      </trkpt>
      <trkpt lat="45.4279" lon="0.86748">
        <ele>178</ele>
        <time>2021-06-11T14:08:12Z</time>
      </trkpt>
      <trkpt lat="45.42821" lon="0.86692">
        <ele>179</ele>
        <time>2021-06-11T14:08:21Z</time>
      </trkpt>
      <trkpt lat="45.42862" lon="0.86581">
        <ele>183</ele>
        <time>2021-06-11T14:08:36Z</time>
      </trkpt>
      <trkpt lat="45.42869" lon="0.86552">
        <ele>184</ele>
        <time>2021-06-11T14:08:40Z</time>
      </trkpt>
      <trkpt lat="45.42882" lon="0.86481">
        <ele>185</ele>
        <time>2021-06-11T14:08:49Z</time>
      </trkpt>
      <trkpt lat="45.42885" lon="0.86428">
        <ele>185</ele>
        <time>2021-06-11T14:08:56Z</time>
      </trkpt>
      <trkpt lat="45.42889" lon="0.86294">
        <ele>184</ele>
        <time>2021-06-11T14:09:13Z</time>
      </trkpt>
      <trkpt lat="45.42854" lon="0.86143">
        <ele>181</ele>
        <time>2021-06-11T14:09:33Z</time>
      </trkpt>
      <trkpt lat="45.42798" lon="0.85997">
        <ele>173</ele>
        <time>2021-06-11T14:09:53Z</time>
      </trkpt>
      <trkpt lat="45.42769" lon="0.85894">
        <ele>174</ele>
        <time>2021-06-11T14:10:07Z</time>
      </trkpt>
      <trkpt lat="45.4276" lon="0.85837">
        <ele>176</ele>
        <time>2021-06-11T14:10:14Z</time>
      </trkpt>
      <trkpt lat="45.42731" lon="0.8555">
        <ele>175</ele>
        <time>2021-06-11T14:10:51Z</time>
      </trkpt>
      <trkpt lat="45.42709" lon="0.85424">
        <ele>175</ele>
        <time>2021-06-11T14:11:07Z</time>
      </trkpt>
      <trkpt lat="45.42674" lon="0.85288">
        <ele>171</ele>
        <time>2021-06-11T14:11:25Z</time>
      </trkpt>
      <trkpt lat="45.4265" lon="0.8517">
        <ele>166</ele>
        <time>2021-06-11T14:11:40Z</time>
      </trkpt>
      <trkpt lat="45.42609" lon="0.84794">
        <ele>162</ele>
        <time>2021-06-11T14:12:28Z</time>
      </trkpt>
      <trkpt lat="45.42603" lon="0.84688">
        <ele>161</ele>
        <time>2021-06-11T14:12:41Z</time>
      </trkpt>
      <trkpt lat="45.42604" lon="0.84636">
        <ele>160</ele>
        <time>2021-06-11T14:12:48Z</time>
      </trkpt>
      <trkpt lat="45.42604" lon="0.84623">
        <ele>159</ele>
        <time>2021-06-11T14:12:49Z</time>
      </trkpt>
      <trkpt lat="45.42611" lon="0.84567">
        <ele>157</ele>
        <time>2021-06-11T14:12:56Z</time>
      </trkpt>
      <trkpt lat="45.42624" lon="0.84502">
        <ele>156</ele>
        <time>2021-06-11T14:13:05Z</time>
      </trkpt>
      <trkpt lat="45.42632" lon="0.8447">
        <ele>155</ele>
        <time>2021-06-11T14:13:09Z</time>
      </trkpt>
      <trkpt lat="45.4265" lon="0.844">
        <ele>155</ele>
        <time>2021-06-11T14:13:18Z</time>
      </trkpt>
      <trkpt lat="45.42724" lon="0.84115">
        <ele>161</ele>
        <time>2021-06-11T14:13:56Z</time>
      </trkpt>
      <trkpt lat="45.4279" lon="0.83889">
        <ele>174</ele>
        <time>2021-06-11T14:14:27Z</time>
      </trkpt>
      <trkpt lat="45.42837" lon="0.83782">
        <ele>172</ele>
        <time>2021-06-11T14:14:43Z</time>
      </trkpt>
      <trkpt lat="45.42879" lon="0.83718">
        <ele>172</ele>
        <time>2021-06-11T14:14:54Z</time>
      </trkpt>
      <trkpt lat="45.43042" lon="0.83516">
        <ele>175</ele>
        <time>2021-06-11T14:15:32Z</time>
      </trkpt>
      <trkpt lat="45.43069" lon="0.83478">
        <ele>176</ele>
        <time>2021-06-11T14:15:39Z</time>
      </trkpt>
      <trkpt lat="45.43105" lon="0.8342">
        <ele>180</ele>
        <time>2021-06-11T14:15:48Z</time>
      </trkpt>
      <trkpt lat="45.43149" lon="0.83338">
        <ele>180</ele>
        <time>2021-06-11T14:16:01Z</time>
      </trkpt>
      <trkpt lat="45.43201" lon="0.83218">
        <ele>181</ele>
        <time>2021-06-11T14:16:19Z</time>
      </trkpt>
      <trkpt lat="45.43308" lon="0.82926">
        <ele>186</ele>
        <time>2021-06-11T14:17:00Z</time>
      </trkpt>
      <trkpt lat="45.4338" lon="0.8275">
        <ele>195</ele>
        <time>2021-06-11T14:17:25Z</time>
      </trkpt>
      <trkpt lat="45.43459" lon="0.8265">
        <ele>199</ele>
        <time>2021-06-11T14:17:44Z</time>
      </trkpt>
      <trkpt lat="45.43493" lon="0.82615">
        <ele>196</ele>
        <time>2021-06-11T14:17:52Z</time>
      </trkpt>
      <trkpt lat="45.43603" lon="0.82533">
        <ele>197</ele>
        <time>2021-06-11T14:18:14Z</time>
      </trkpt>
      <trkpt lat="45.43709" lon="0.82495">
        <ele>197</ele>
        <time>2021-06-11T14:18:33Z</time>
      </trkpt>
      <trkpt lat="45.43749" lon="0.82491">
        <ele>198</ele>
        <time>2021-06-11T14:18:40Z</time>
      </trkpt>
      <trkpt lat="45.44257" lon="0.82489">
        <ele>208</ele>
        <time>2021-06-11T14:20:11Z</time>
      </trkpt>
      <trkpt lat="45.44408" lon="0.82492">
        <ele>208</ele>
        <time>2021-06-11T14:20:38Z</time>
      </trkpt>
      <trkpt lat="45.44559" lon="0.82491">
        <ele>210</ele>
        <time>2021-06-11T14:21:05Z</time>
      </trkpt>
      <trkpt lat="45.4463" lon="0.82478">
        <ele>211</ele>
        <time>2021-06-11T14:21:17Z</time>
      </trkpt>
      <trkpt lat="45.44692" lon="0.82458">
        <ele>212</ele>
        <time>2021-06-11T14:21:29Z</time>
      </trkpt>
      <trkpt lat="45.44739" lon="0.82436">
        <ele>213</ele>
        <time>2021-06-11T14:21:37Z</time>
      </trkpt>
      <trkpt lat="45.44777" lon="0.82404">
        <ele>215</ele>
        <time>2021-06-11T14:21:45Z</time>
      </trkpt>
      <trkpt lat="45.44831" lon="0.82351">
        <ele>214</ele>
        <time>2021-06-11T14:21:57Z</time>
      </trkpt>
      <trkpt lat="45.44886" lon="0.82282">
        <ele>212</ele>
        <time>2021-06-11T14:22:10Z</time>
      </trkpt>
      <trkpt lat="45.44993" lon="0.82084">
        <ele>209</ele>
        <time>2021-06-11T14:22:41Z</time>
      </trkpt>
      <trkpt lat="45.45122" lon="0.81837">
        <ele>196</ele>
        <time>2021-06-11T14:23:20Z</time>
      </trkpt>
      <trkpt lat="45.45227" lon="0.81643">
        <ele>195</ele>
        <time>2021-06-11T14:23:50Z</time>
      </trkpt>
      <trkpt lat="45.45261" lon="0.81578">
        <ele>195</ele>
        <time>2021-06-11T14:24:00Z</time>
      </trkpt>
      <trkpt lat="45.45307" lon="0.81472">
        <ele>195</ele>
        <time>2021-06-11T14:24:16Z</time>
      </trkpt>
      <trkpt lat="45.45338" lon="0.81375">
        <ele>196</ele>
        <time>2021-06-11T14:24:29Z</time>
      </trkpt>
      <trkpt lat="45.45352" lon="0.81325">
        <ele>194</ele>
        <time>2021-06-11T14:24:36Z</time>
      </trkpt>
      <trkpt lat="45.45361" lon="0.81275">
        <ele>192</ele>
        <time>2021-06-11T14:24:42Z</time>
      </trkpt>
      <trkpt lat="45.45377" lon="0.81155">
        <ele>191</ele>
        <time>2021-06-11T14:24:58Z</time>
      </trkpt>
      <trkpt lat="45.45398" lon="0.80902">
        <ele>195</ele>
        <time>2021-06-11T14:25:29Z</time>
      </trkpt>
      <trkpt lat="45.45436" lon="0.80697">
        <ele>203</ele>
        <time>2021-06-11T14:25:56Z</time>
      </trkpt>
      <trkpt lat="45.45465" lon="0.80606">
        <ele>201</ele>
        <time>2021-06-11T14:26:08Z</time>
      </trkpt>
      <trkpt lat="45.45502" lon="0.80497">
        <ele>195</ele>
        <time>2021-06-11T14:26:23Z</time>
      </trkpt>
      <trkpt lat="45.45552" lon="0.80381">
        <ele>196</ele>
        <time>2021-06-11T14:26:40Z</time>
      </trkpt>
      <trkpt lat="45.45637" lon="0.80233">
        <ele>196</ele>
        <time>2021-06-11T14:27:04Z</time>
      </trkpt>
      <trkpt lat="45.45742" lon="0.80075">
        <ele>196</ele>
        <time>2021-06-11T14:27:31Z</time>
      </trkpt>
      <trkpt lat="45.459" lon="0.79824">
        <ele>203</ele>
        <time>2021-06-11T14:28:14Z</time>
      </trkpt>
      <trkpt lat="45.46133" lon="0.7946">
        <ele>201</ele>
        <time>2021-06-11T14:29:15Z</time>
      </trkpt>
      <trkpt lat="45.46321" lon="0.79159">
        <ele>201</ele>
        <time>2021-06-11T14:30:05Z</time>
      </trkpt>
      <trkpt lat="45.4641" lon="0.79025">
        <ele>206</ele>
        <time>2021-06-11T14:30:28Z</time>
      </trkpt>
      <trkpt lat="45.46446" lon="0.78975">
        <ele>204</ele>
        <time>2021-06-11T14:30:37Z</time>
      </trkpt>
      <trkpt lat="45.46516" lon="0.78918">
        <ele>200</ele>
        <time>2021-06-11T14:30:52Z</time>
      </trkpt>
      <trkpt lat="45.46588" lon="0.78873">
        <ele>200</ele>
        <time>2021-06-11T14:31:06Z</time>
      </trkpt>
      <trkpt lat="45.46626" lon="0.78859">
        <ele>203</ele>
        <time>2021-06-11T14:31:13Z</time>
      </trkpt>
      <trkpt lat="45.46727" lon="0.78795">
        <ele>203</ele>
        <time>2021-06-11T14:31:32Z</time>
      </trkpt>
      <trkpt lat="45.46748" lon="0.78769">
        <ele>200</ele>
        <time>2021-06-11T14:31:37Z</time>
      </trkpt>
      <trkpt lat="45.4696" lon="0.78636">
        <ele>196</ele>
        <time>2021-06-11T14:32:18Z</time>
      </trkpt>
      <trkpt lat="45.47253" lon="0.78439">
        <ele>201</ele>
        <time>2021-06-11T14:33:16Z</time>
      </trkpt>
      <trkpt lat="45.47417" lon="0.78332">
        <ele>198</ele>
        <time>2021-06-11T14:33:48Z</time>
      </trkpt>
      <trkpt lat="45.47446" lon="0.7831">
        <ele>199</ele>
        <time>2021-06-11T14:33:54Z</time>
      </trkpt>
      <trkpt lat="45.47495" lon="0.78264">
        <ele>199</ele>
        <time>2021-06-11T14:34:04Z</time>
      </trkpt>
      <trkpt lat="45.47577" lon="0.78178">
        <ele>203</ele>
        <time>2021-06-11T14:34:23Z</time>
      </trkpt>
      <trkpt lat="45.47649" lon="0.78098">
        <ele>207</ele>
        <time>2021-06-11T14:34:39Z</time>
      </trkpt>
      <trkpt lat="45.47684" lon="0.78068">
        <ele>208</ele>
        <time>2021-06-11T14:34:46Z</time>
      </trkpt>
      <trkpt lat="45.47754" lon="0.78023">
        <ele>210</ele>
        <time>2021-06-11T14:35:00Z</time>
      </trkpt>
      <trkpt lat="45.47815" lon="0.77993">
        <ele>210</ele>
        <time>2021-06-11T14:35:11Z</time>
      </trkpt>
      <trkpt lat="45.47868" lon="0.77978">
        <ele>209</ele>
        <time>2021-06-11T14:35:21Z</time>
      </trkpt>
      <trkpt lat="45.48444" lon="0.77846">
        <ele>201</ele>
        <time>2021-06-11T14:37:05Z</time>
      </trkpt>
      <trkpt lat="45.48552" lon="0.77817">
        <ele>198</ele>
        <time>2021-06-11T14:37:24Z</time>
      </trkpt>
      <trkpt lat="45.48611" lon="0.77791">
        <ele>196</ele>
        <time>2021-06-11T14:37:35Z</time>
      </trkpt>
      <trkpt lat="45.48631" lon="0.77779">
        <ele>195</ele>
        <time>2021-06-11T14:37:39Z</time>
      </trkpt>
      <trkpt lat="45.48672" lon="0.77747">
        <ele>194</ele>
        <time>2021-06-11T14:37:47Z</time>
      </trkpt>
      <trkpt lat="45.48706" lon="0.77714">
        <ele>194</ele>
        <time>2021-06-11T14:37:55Z</time>
      </trkpt>
      <trkpt lat="45.48737" lon="0.77676">
        <ele>194</ele>
        <time>2021-06-11T14:38:02Z</time>
      </trkpt>
      <trkpt lat="45.48772" lon="0.77626">
        <ele>194</ele>
        <time>2021-06-11T14:38:11Z</time>
      </trkpt>
      <trkpt lat="45.48796" lon="0.77586">
        <ele>193</ele>
        <time>2021-06-11T14:38:17Z</time>
      </trkpt>
      <trkpt lat="45.48823" lon="0.77526">
        <ele>188</ele>
        <time>2021-06-11T14:38:26Z</time>
      </trkpt>
      <trkpt lat="45.48836" lon="0.77493">
        <ele>186</ele>
        <time>2021-06-11T14:38:31Z</time>
      </trkpt>
      <trkpt lat="45.48862" lon="0.77416">
        <ele>187</ele>
        <time>2021-06-11T14:38:42Z</time>
      </trkpt>
      <trkpt lat="45.4892" lon="0.77151">
        <ele>188</ele>
        <time>2021-06-11T14:39:16Z</time>
      </trkpt>
      <trkpt lat="45.48931" lon="0.77078">
        <ele>190</ele>
        <time>2021-06-11T14:39:26Z</time>
      </trkpt>
      <trkpt lat="45.48934" lon="0.77013">
        <ele>190</ele>
        <time>2021-06-11T14:39:34Z</time>
      </trkpt>
      <trkpt lat="45.48938" lon="0.76562">
        <ele>173</ele>
        <time>2021-06-11T14:40:30Z</time>
      </trkpt>
      <trkpt lat="45.48939" lon="0.76531">
        <ele>174</ele>
        <time>2021-06-11T14:40:34Z</time>
      </trkpt>
      <trkpt lat="45.48944" lon="0.76444">
        <ele>178</ele>
        <time>2021-06-11T14:40:45Z</time>
      </trkpt>
      <trkpt lat="45.48952" lon="0.76366">
        <ele>180</ele>
        <time>2021-06-11T14:40:55Z</time>
      </trkpt>
      <trkpt lat="45.49005" lon="0.75994">
        <ele>175</ele>
        <time>2021-06-11T14:41:42Z</time>
      </trkpt>
      <trkpt lat="45.49019" lon="0.75875">
        <ele>174</ele>
        <time>2021-06-11T14:41:57Z</time>
      </trkpt>
      <trkpt lat="45.49055" lon="0.75632">
        <ele>167</ele>
        <time>2021-06-11T14:42:28Z</time>
      </trkpt>
      <trkpt lat="45.49058" lon="0.75569">
        <ele>167</ele>
        <time>2021-06-11T14:42:36Z</time>
      </trkpt>
      <trkpt lat="45.49057" lon="0.75522">
        <ele>168</ele>
        <time>2021-06-11T14:42:42Z</time>
      </trkpt>
      <trkpt lat="45.49037" lon="0.75305">
        <ele>167</ele>
        <time>2021-06-11T14:43:09Z</time>
      </trkpt>
      <trkpt lat="45.4903" lon="0.75191">
        <ele>161</ele>
        <time>2021-06-11T14:43:23Z</time>
      </trkpt>
      <trkpt lat="45.49032" lon="0.75128">
        <ele>158</ele>
        <time>2021-06-11T14:43:31Z</time>
      </trkpt>
      <trkpt lat="45.49033" lon="0.75095">
        <ele>157</ele>
        <time>2021-06-11T14:43:35Z</time>
      </trkpt>
      <trkpt lat="45.49047" lon="0.74962">
        <ele>161</ele>
        <time>2021-06-11T14:43:52Z</time>
      </trkpt>
      <trkpt lat="45.49051" lon="0.7494">
        <ele>162</ele>
        <time>2021-06-11T14:43:55Z</time>
      </trkpt>
      <trkpt lat="45.49085" lon="0.74827">
        <ele>155</ele>
        <time>2021-06-11T14:44:10Z</time>
      </trkpt>
      <trkpt lat="45.49102" lon="0.74787">
        <ele>148</ele>
        <time>2021-06-11T14:44:16Z</time>
      </trkpt>
      <trkpt lat="45.49148" lon="0.74669">
        <ele>145</ele>
        <time>2021-06-11T14:44:33Z</time>
      </trkpt>
      <trkpt lat="45.49172" lon="0.74597">
        <ele>147</ele>
        <time>2021-06-11T14:44:43Z</time>
      </trkpt>
      <trkpt lat="45.49188" lon="0.74539">
        <ele>146</ele>
        <time>2021-06-11T14:44:51Z</time>
      </trkpt>
      <trkpt lat="45.49198" lon="0.74486">
        <ele>145</ele>
        <time>2021-06-11T14:44:57Z</time>
      </trkpt>
      <trkpt lat="45.49207" lon="0.74411">
        <ele>145</ele>
        <time>2021-06-11T14:45:07Z</time>
      </trkpt>
      <trkpt lat="45.49207" lon="0.7435">
        <ele>146</ele>
        <time>2021-06-11T14:45:14Z</time>
      </trkpt>
      <trkpt lat="45.49204" lon="0.74291">
        <ele>147</ele>
        <time>2021-06-11T14:45:22Z</time>
      </trkpt>
      <trkpt lat="45.49197" lon="0.74253">
        <ele>147</ele>
        <time>2021-06-11T14:45:27Z</time>
      </trkpt>
      <trkpt lat="45.49193" lon="0.74232">
        <ele>149</ele>
        <time>2021-06-11T14:45:29Z</time>
      </trkpt>
      <trkpt lat="45.49191" lon="0.74224">
        <ele>149</ele>
        <time>2021-06-11T14:45:31Z</time>
      </trkpt>
      <trkpt lat="45.4918" lon="0.74184">
        <ele>152</ele>
        <time>2021-06-11T14:45:36Z</time>
      </trkpt>
      <trkpt lat="45.49177" lon="0.74177">
        <ele>153</ele>
        <time>2021-06-11T14:45:37Z</time>
      </trkpt>
      <trkpt lat="45.49188" lon="0.74183">
        <ele>152</ele>
        <time>2021-06-11T14:45:39Z</time>
      </trkpt>
      <trkpt lat="45.49191" lon="0.74182">
        <ele>153</ele>
        <time>2021-06-11T14:45:40Z</time>
      </trkpt>
      <trkpt lat="45.49186" lon="0.7415">
        <ele>154</ele>
        <time>2021-06-11T14:45:44Z</time>
      </trkpt>
      <trkpt lat="45.49188" lon="0.74133">
        <ele>155</ele>
        <time>2021-06-11T14:45:46Z</time>
      </trkpt>
      <trkpt lat="45.49232" lon="0.74055">
        <ele>157</ele>
        <time>2021-06-11T14:45:58Z</time>
      </trkpt>
      <trkpt lat="45.49246" lon="0.74059">
        <ele>158</ele>
        <time>2021-06-11T14:46:01Z</time>
      </trkpt>
      <trkpt lat="45.49264" lon="0.74042">
        <ele>158</ele>
        <time>2021-06-11T14:46:05Z</time>
      </trkpt>
      <trkpt lat="45.49303" lon="0.74095">
        <ele>156</ele>
        <time>2021-06-11T14:46:14Z</time>
      </trkpt>
      <trkpt lat="45.49343" lon="0.74014">
        <ele>159</ele>
        <time>2021-06-11T14:46:27Z</time>
      </trkpt>
      <trkpt lat="45.49352" lon="0.73989">
        <ele>160</ele>
        <time>2021-06-11T14:46:30Z</time>
      </trkpt>
      <trkpt lat="45.49356" lon="0.73965">
        <ele>161</ele>
        <time>2021-06-11T14:46:33Z</time>
      </trkpt>
      <trkpt lat="45.49355" lon="0.73938">
        <ele>162</ele>
        <time>2021-06-11T14:46:37Z</time>
      </trkpt>
      <trkpt lat="45.49341" lon="0.73825">
        <ele>164</ele>
        <time>2021-06-11T14:46:51Z</time>
      </trkpt>
      <trkpt lat="45.49339" lon="0.73798">
        <ele>164</ele>
        <time>2021-06-11T14:46:54Z</time>
      </trkpt>
      <trkpt lat="45.49344" lon="0.73752">
        <ele>165</ele>
        <time>2021-06-11T14:47:00Z</time>
      </trkpt>
      <trkpt lat="45.49378" lon="0.73566">
        <ele>167</ele>
        <time>2021-06-11T14:47:24Z</time>
      </trkpt>
      <trkpt lat="45.4938" lon="0.73541">
        <ele>167</ele>
        <time>2021-06-11T14:47:27Z</time>
      </trkpt>
      <trkpt lat="45.49376" lon="0.73474">
        <ele>167</ele>
        <time>2021-06-11T14:47:36Z</time>
      </trkpt>
      <trkpt lat="45.49374" lon="0.7339">
        <ele>170</ele>
        <time>2021-06-11T14:47:46Z</time>
      </trkpt>
      <trkpt lat="45.4939" lon="0.73286">
        <ele>175</ele>
        <time>2021-06-11T14:47:59Z</time>
      </trkpt>
      <trkpt lat="45.4939" lon="0.73243">
        <ele>177</ele>
        <time>2021-06-11T14:48:05Z</time>
      </trkpt>
      <trkpt lat="45.49386" lon="0.73189">
        <ele>178</ele>
        <time>2021-06-11T14:48:11Z</time>
      </trkpt>
      <trkpt lat="45.4938" lon="0.73142">
        <ele>178</ele>
        <time>2021-06-11T14:48:17Z</time>
      </trkpt>
      <trkpt lat="45.49381" lon="0.73129">
        <ele>178</ele>
        <time>2021-06-11T14:48:19Z</time>
      </trkpt>
      <trkpt lat="45.49385" lon="0.73118">
        <ele>178</ele>
        <time>2021-06-11T14:48:21Z</time>
      </trkpt>
      <trkpt lat="45.4939" lon="0.73109">
        <ele>178</ele>
        <time>2021-06-11T14:48:22Z</time>
      </trkpt>
      <trkpt lat="45.49402" lon="0.73099">
        <ele>177</ele>
        <time>2021-06-11T14:48:25Z</time>
      </trkpt>
      <trkpt lat="45.49466" lon="0.73107">
        <ele>176</ele>
        <time>2021-06-11T14:48:36Z</time>
      </trkpt>
      <trkpt lat="45.49565" lon="0.73093">
        <ele>171</ele>
        <time>2021-06-11T14:48:54Z</time>
      </trkpt>
      <trkpt lat="45.49581" lon="0.73089">
        <ele>171</ele>
        <time>2021-06-11T14:48:57Z</time>
      </trkpt>
      <trkpt lat="45.49589" lon="0.73083">
        <ele>170</ele>
        <time>2021-06-11T14:48:58Z</time>
      </trkpt>
      <trkpt lat="45.49595" lon="0.73074">
        <ele>169</ele>
        <time>2021-06-11T14:49:00Z</time>
      </trkpt>
      <trkpt lat="45.496" lon="0.73055">
        <ele>168</ele>
        <time>2021-06-11T14:49:02Z</time>
      </trkpt>
      <trkpt lat="45.496" lon="0.73014">
        <ele>166</ele>
        <time>2021-06-11T14:49:07Z</time>
      </trkpt>
      <trkpt lat="45.49598" lon="0.72977">
        <ele>166</ele>
        <time>2021-06-11T14:49:12Z</time>
      </trkpt>
      <trkpt lat="45.49586" lon="0.72912">
        <ele>167</ele>
        <time>2021-06-11T14:49:20Z</time>
      </trkpt>
      <trkpt lat="45.49578" lon="0.72886">
        <ele>168</ele>
        <time>2021-06-11T14:49:24Z</time>
      </trkpt>
      <trkpt lat="45.49568" lon="0.72863">
        <ele>168</ele>
        <time>2021-06-11T14:49:27Z</time>
      </trkpt>
      <trkpt lat="45.49545" lon="0.72821">
        <ele>169</ele>
        <time>2021-06-11T14:49:34Z</time>
      </trkpt>
      <trkpt lat="45.4954" lon="0.72809">
        <ele>169</ele>
        <time>2021-06-11T14:49:36Z</time>
      </trkpt>
      <trkpt lat="45.49536" lon="0.72792">
        <ele>169</ele>
        <time>2021-06-11T14:49:38Z</time>
      </trkpt>
      <trkpt lat="45.49526" lon="0.72764">
        <ele>169</ele>
        <time>2021-06-11T14:49:42Z</time>
      </trkpt>
      <trkpt lat="45.49518" lon="0.72751">
        <ele>168</ele>
        <time>2021-06-11T14:49:44Z</time>
      </trkpt>
      <trkpt lat="45.49508" lon="0.72741">
        <ele>168</ele>
        <time>2021-06-11T14:49:46Z</time>
      </trkpt>
      <trkpt lat="45.49498" lon="0.72737">
        <ele>167</ele>
        <time>2021-06-11T14:49:48Z</time>
      </trkpt>
      <trkpt lat="45.49478" lon="0.72736">
        <ele>166</ele>
        <time>2021-06-11T14:49:52Z</time>
      </trkpt>
      <trkpt lat="45.49445" lon="0.7274">
        <ele>165</ele>
        <time>2021-06-11T14:49:57Z</time>
      </trkpt>
      <trkpt lat="45.49438" lon="0.72737">
        <ele>165</ele>
        <time>2021-06-11T14:49:59Z</time>
      </trkpt>
      <trkpt lat="45.49427" lon="0.72727">
        <ele>164</ele>
        <time>2021-06-11T14:50:01Z</time>
      </trkpt>
      <trkpt lat="45.49422" lon="0.72707">
        <ele>164</ele>
        <time>2021-06-11T14:50:04Z</time>
      </trkpt>
      <trkpt lat="45.49425" lon="0.72674">
        <ele>164</ele>
        <time>2021-06-11T14:50:08Z</time>
      </trkpt>
      <trkpt lat="45.49458" lon="0.7257">
        <ele>162</ele>
        <time>2021-06-11T14:50:22Z</time>
      </trkpt>
      <trkpt lat="45.49462" lon="0.72534">
        <ele>163</ele>
        <time>2021-06-11T14:50:27Z</time>
      </trkpt>
      <trkpt lat="45.49461" lon="0.72518">
        <ele>163</ele>
        <time>2021-06-11T14:50:29Z</time>
      </trkpt>
      <trkpt lat="45.49457" lon="0.72502">
        <ele>163</ele>
        <time>2021-06-11T14:50:31Z</time>
      </trkpt>
      <trkpt lat="45.49434" lon="0.72421">
        <ele>164</ele>
        <time>2021-06-11T14:50:42Z</time>
      </trkpt>
      <trkpt lat="45.49426" lon="0.72415">
        <ele>163</ele>
        <time>2021-06-11T14:50:43Z</time>
      </trkpt>
      <trkpt lat="45.49414" lon="0.72397">
        <ele>163</ele>
        <time>2021-06-11T14:50:46Z</time>
      </trkpt>
      <trkpt lat="45.49413" lon="0.72389">
        <ele>163</ele>
        <time>2021-06-11T14:50:47Z</time>
      </trkpt>
      <trkpt lat="45.49414" lon="0.72382">
        <ele>163</ele>
        <time>2021-06-11T14:50:48Z</time>
      </trkpt>
      <trkpt lat="45.49418" lon="0.72372">
        <ele>163</ele>
        <time>2021-06-11T14:50:50Z</time>
      </trkpt>
      <trkpt lat="45.49433" lon="0.72348">
        <ele>164</ele>
        <time>2021-06-11T14:50:54Z</time>
      </trkpt>
      <trkpt lat="45.49436" lon="0.72341">
        <ele>164</ele>
        <time>2021-06-11T14:50:55Z</time>
      </trkpt>
      <trkpt lat="45.49454" lon="0.72052">
        <ele>156</ele>
        <time>2021-06-11T14:51:31Z</time>
      </trkpt>
      <trkpt lat="45.49433" lon="0.71685">
        <ele>148</ele>
        <time>2021-06-11T14:52:17Z</time>
      </trkpt>
      <trkpt lat="45.49433" lon="0.71675">
        <ele>148</ele>
        <time>2021-06-11T14:52:18Z</time>
      </trkpt>
      <trkpt lat="45.49447" lon="0.71629">
        <ele>151</ele>
        <time>2021-06-11T14:52:24Z</time>
      </trkpt>
      <trkpt lat="45.49447" lon="0.71617">
        <ele>152</ele>
        <time>2021-06-11T14:52:26Z</time>
      </trkpt>
      <trkpt lat="45.49441" lon="0.71611">
        <ele>152</ele>
        <time>2021-06-11T14:52:27Z</time>
      </trkpt>
      <trkpt lat="45.49427" lon="0.71601">
        <ele>151</ele>
        <time>2021-06-11T14:52:30Z</time>
      </trkpt>
      <trkpt lat="45.49415" lon="0.71591">
        <ele>150</ele>
        <time>2021-06-11T14:52:32Z</time>
      </trkpt>
      <trkpt lat="45.4937" lon="0.71561">
        <ele>149</ele>
        <time>2021-06-11T14:52:41Z</time>
      </trkpt>
      <trkpt lat="45.49345" lon="0.71532">
        <ele>149</ele>
        <time>2021-06-11T14:52:47Z</time>
      </trkpt>
      <trkpt lat="45.49358" lon="0.71435">
        <ele>150</ele>
        <time>2021-06-11T14:52:59Z</time>
      </trkpt>
      <trkpt lat="45.49376" lon="0.71392">
        <ele>150</ele>
        <time>2021-06-11T14:53:06Z</time>
      </trkpt>
      <trkpt lat="45.49384" lon="0.7136">
        <ele>150</ele>
        <time>2021-06-11T14:53:10Z</time>
      </trkpt>
      <trkpt lat="45.49401" lon="0.71144">
        <ele>160</ele>
        <time>2021-06-11T14:53:37Z</time>
      </trkpt>
      <trkpt lat="45.49408" lon="0.71105">
        <ele>162</ele>
        <time>2021-06-11T14:53:42Z</time>
      </trkpt>
      <trkpt lat="45.49429" lon="0.71041">
        <ele>165</ele>
        <time>2021-06-11T14:53:51Z</time>
      </trkpt>
      <trkpt lat="45.49464" lon="0.70814">
        <ele>170</ele>
        <time>2021-06-11T14:54:20Z</time>
      </trkpt>
      <trkpt lat="45.49484" lon="0.70456">
        <ele>183</ele>
        <time>2021-06-11T14:55:05Z</time>
      </trkpt>
      <trkpt lat="45.49491" lon="0.70383">
        <ele>188</ele>
        <time>2021-06-11T14:55:14Z</time>
      </trkpt>
      <trkpt lat="45.49503" lon="0.70346">
        <ele>190</ele>
        <time>2021-06-11T14:55:19Z</time>
      </trkpt>
      <trkpt lat="45.49539" lon="0.70286">
        <ele>193</ele>
        <time>2021-06-11T14:55:29Z</time>
      </trkpt>
      <trkpt lat="45.49549" lon="0.70261">
        <ele>193</ele>
        <time>2021-06-11T14:55:32Z</time>
      </trkpt>
      <trkpt lat="45.49555" lon="0.6985">
        <ele>196</ele>
        <time>2021-06-11T14:56:23Z</time>
      </trkpt>
      <trkpt lat="45.49565" lon="0.69821">
        <ele>197</ele>
        <time>2021-06-11T14:56:28Z</time>
      </trkpt>
      <trkpt lat="45.49627" lon="0.69729">
        <ele>192</ele>
        <time>2021-06-11T14:56:43Z</time>
      </trkpt>
      <trkpt lat="45.4964" lon="0.69698">
        <ele>189</ele>
        <time>2021-06-11T14:56:48Z</time>
      </trkpt>
      <trkpt lat="45.49648" lon="0.69673">
        <ele>188</ele>
        <time>2021-06-11T14:56:51Z</time>
      </trkpt>
      <trkpt lat="45.49668" lon="0.69548">
        <ele>185</ele>
        <time>2021-06-11T14:57:07Z</time>
      </trkpt>
      <trkpt lat="45.49674" lon="0.69523">
        <ele>184</ele>
        <time>2021-06-11T14:57:11Z</time>
      </trkpt>
      <trkpt lat="45.49683" lon="0.69509">
        <ele>184</ele>
        <time>2021-06-11T14:57:13Z</time>
      </trkpt>
      <trkpt lat="45.49721" lon="0.69463">
        <ele>183</ele>
        <time>2021-06-11T14:57:22Z</time>
      </trkpt>
      <trkpt lat="45.4975" lon="0.69452">
        <ele>181</ele>
        <time>2021-06-11T14:57:27Z</time>
      </trkpt>
      <trkpt lat="45.49753" lon="0.69436">
        <ele>181</ele>
        <time>2021-06-11T14:57:29Z</time>
      </trkpt>
      <trkpt lat="45.49758" lon="0.69333">
        <ele>179</ele>
        <time>2021-06-11T14:57:42Z</time>
      </trkpt>
      <trkpt lat="45.49761" lon="0.69311">
        <ele>180</ele>
        <time>2021-06-11T14:57:45Z</time>
      </trkpt>
      <trkpt lat="45.49777" lon="0.69236">
        <ele>184</ele>
        <time>2021-06-11T14:57:55Z</time>
      </trkpt>
      <trkpt lat="45.49781" lon="0.69224">
        <ele>186</ele>
        <time>2021-06-11T14:57:56Z</time>
      </trkpt>
      <trkpt lat="45.49786" lon="0.69217">
        <ele>187</ele>
        <time>2021-06-11T14:57:58Z</time>
      </trkpt>
      <trkpt lat="45.49792" lon="0.69212">
        <ele>188</ele>
        <time>2021-06-11T14:57:59Z</time>
      </trkpt>
      <trkpt lat="45.498" lon="0.69209">
        <ele>189</ele>
        <time>2021-06-11T14:58:00Z</time>
      </trkpt>
      <trkpt lat="45.4981" lon="0.69211">
        <ele>190</ele>
        <time>2021-06-11T14:58:02Z</time>
      </trkpt>
      <trkpt lat="45.49888" lon="0.69246">
        <ele>193</ele>
        <time>2021-06-11T14:58:17Z</time>
      </trkpt>
      <trkpt lat="45.49909" lon="0.69195">
        <ele>196</ele>
        <time>2021-06-11T14:58:24Z</time>
      </trkpt>
      <trkpt lat="45.49894" lon="0.69109">
        <ele>199</ele>
        <time>2021-06-11T14:58:35Z</time>
      </trkpt>
      <trkpt lat="45.4978" lon="0.6885">
        <ele>202</ele>
        <time>2021-06-11T14:59:13Z</time>
      </trkpt>
      <trkpt lat="45.49726" lon="0.68771">
        <ele>203</ele>
        <time>2021-06-11T14:59:27Z</time>
      </trkpt>
      <trkpt lat="45.49666" lon="0.68655">
        <ele>211</ele>
        <time>2021-06-11T14:59:45Z</time>
      </trkpt>
      <trkpt lat="45.49598" lon="0.68573">
        <ele>213</ele>
        <time>2021-06-11T15:00:01Z</time>
      </trkpt>
      <trkpt lat="45.49533" lon="0.68517">
        <ele>219</ele>
        <time>2021-06-11T15:00:14Z</time>
      </trkpt>
      <trkpt lat="45.49508" lon="0.68437">
        <ele>223</ele>
        <time>2021-06-11T15:00:25Z</time>
      </trkpt>
      <trkpt lat="45.49483" lon="0.68321">
        <ele>230</ele>
        <time>2021-06-11T15:00:40Z</time>
      </trkpt>
      <trkpt lat="45.49397" lon="0.68176">
        <ele>234</ele>
        <time>2021-06-11T15:01:04Z</time>
      </trkpt>
      <trkpt lat="45.49388" lon="0.68129">
        <ele>235</ele>
        <time>2021-06-11T15:01:10Z</time>
      </trkpt>
      <trkpt lat="45.49385" lon="0.68084">
        <ele>235</ele>
        <time>2021-06-11T15:01:16Z</time>
      </trkpt>
      <trkpt lat="45.49366" lon="0.68034">
        <ele>233</ele>
        <time>2021-06-11T15:01:23Z</time>
      </trkpt>
      <trkpt lat="45.49348" lon="0.67961">
        <ele>228</ele>
        <time>2021-06-11T15:01:33Z</time>
      </trkpt>
      <trkpt lat="45.49346" lon="0.67928">
        <ele>226</ele>
        <time>2021-06-11T15:01:37Z</time>
      </trkpt>
      <trkpt lat="45.49359" lon="0.67839">
        <ele>223</ele>
        <time>2021-06-11T15:01:48Z</time>
      </trkpt>
      <trkpt lat="45.49371" lon="0.67831">
        <ele>223</ele>
        <time>2021-06-11T15:01:50Z</time>
      </trkpt>
      <trkpt lat="45.49386" lon="0.6781">
        <ele>222</ele>
        <time>2021-06-11T15:01:54Z</time>
      </trkpt>
      <trkpt lat="45.49397" lon="0.67783">
        <ele>221</ele>
        <time>2021-06-11T15:01:58Z</time>
      </trkpt>
      <trkpt lat="45.49405" lon="0.67748">
        <ele>220</ele>
        <time>2021-06-11T15:02:03Z</time>
      </trkpt>
      <trkpt lat="45.49407" lon="0.67705">
        <ele>220</ele>
        <time>2021-06-11T15:02:08Z</time>
      </trkpt>
      <trkpt lat="45.49402" lon="0.67657">
        <ele>220</ele>
        <time>2021-06-11T15:02:14Z</time>
      </trkpt>
      <trkpt lat="45.49392" lon="0.67565">
        <ele>222</ele>
        <time>2021-06-11T15:02:26Z</time>
      </trkpt>
      <trkpt lat="45.49391" lon="0.67532">
        <ele>222</ele>
        <time>2021-06-11T15:02:30Z</time>
      </trkpt>
      <trkpt lat="45.49391" lon="0.67525">
        <ele>222</ele>
        <time>2021-06-11T15:02:31Z</time>
      </trkpt>
      <trkpt lat="45.49398" lon="0.67489">
        <ele>223</ele>
        <time>2021-06-11T15:02:35Z</time>
      </trkpt>
      <trkpt lat="45.49429" lon="0.67391">
        <ele>227</ele>
        <time>2021-06-11T15:02:49Z</time>
      </trkpt>
      <trkpt lat="45.49433" lon="0.67364">
        <ele>228</ele>
        <time>2021-06-11T15:02:52Z</time>
      </trkpt>
      <trkpt lat="45.49437" lon="0.67292">
        <ele>229</ele>
        <time>2021-06-11T15:03:01Z</time>
      </trkpt>
      <trkpt lat="45.49446" lon="0.67265">
        <ele>229</ele>
        <time>2021-06-11T15:03:05Z</time>
      </trkpt>
      <trkpt lat="45.49477" lon="0.67228">
        <ele>230</ele>
        <time>2021-06-11T15:03:12Z</time>
      </trkpt>
      <trkpt lat="45.49509" lon="0.67199">
        <ele>231</ele>
        <time>2021-06-11T15:03:19Z</time>
      </trkpt>
      <trkpt lat="45.49531" lon="0.67168">
        <ele>230</ele>
        <time>2021-06-11T15:03:24Z</time>
      </trkpt>
      <trkpt lat="45.4954" lon="0.6714">
        <ele>230</ele>
        <time>2021-06-11T15:03:28Z</time>
      </trkpt>
      <trkpt lat="45.49545" lon="0.67109">
        <ele>230</ele>
        <time>2021-06-11T15:03:32Z</time>
      </trkpt>
      <trkpt lat="45.49551" lon="0.67085">
        <ele>229</ele>
        <time>2021-06-11T15:03:35Z</time>
      </trkpt>
      <trkpt lat="45.49565" lon="0.67059">
        <ele>229</ele>
        <time>2021-06-11T15:03:39Z</time>
      </trkpt>
      <trkpt lat="45.49597" lon="0.67021">
        <ele>229</ele>
        <time>2021-06-11T15:03:47Z</time>
      </trkpt>
      <trkpt lat="45.49702" lon="0.66913">
        <ele>229</ele>
        <time>2021-06-11T15:04:10Z</time>
      </trkpt>
      <trkpt lat="45.49729" lon="0.66878">
        <ele>230</ele>
        <time>2021-06-11T15:04:16Z</time>
      </trkpt>
      <trkpt lat="45.49759" lon="0.66806">
        <ele>233</ele>
        <time>2021-06-11T15:04:27Z</time>
      </trkpt>
      <trkpt lat="45.498" lon="0.66701">
        <ele>235</ele>
        <time>2021-06-11T15:04:42Z</time>
      </trkpt>
      <trkpt lat="45.49829" lon="0.66656">
        <ele>237</ele>
        <time>2021-06-11T15:04:49Z</time>
      </trkpt>
      <trkpt lat="45.50008" lon="0.66473">
        <ele>239</ele>
        <time>2021-06-11T15:05:29Z</time>
      </trkpt>
      <trkpt lat="45.50026" lon="0.66462">
        <ele>240</ele>
        <time>2021-06-11T15:05:32Z</time>
      </trkpt>
      <trkpt lat="45.50043" lon="0.66451">
        <ele>242</ele>
        <time>2021-06-11T15:05:35Z</time>
      </trkpt>
      <trkpt lat="45.50063" lon="0.66437">
        <ele>244</ele>
        <time>2021-06-11T15:05:39Z</time>
      </trkpt>
      <trkpt lat="45.5007" lon="0.66447">
        <ele>244</ele>
        <time>2021-06-11T15:05:41Z</time>
      </trkpt>
      <trkpt lat="45.50083" lon="0.6646">
        <ele>244</ele>
        <time>2021-06-11T15:05:44Z</time>
      </trkpt>
      <trkpt lat="45.5009" lon="0.66479">
        <ele>243</ele>
        <time>2021-06-11T15:05:47Z</time>
      </trkpt>
      <trkpt lat="45.50156" lon="0.66539">
        <ele>242</ele>
        <time>2021-06-11T15:06:01Z</time>
      </trkpt>
      <trkpt lat="45.50179" lon="0.66565">
        <ele>242</ele>
        <time>2021-06-11T15:06:06Z</time>
      </trkpt>
      <trkpt lat="45.50207" lon="0.66614">
        <ele>243</ele>
        <time>2021-06-11T15:06:14Z</time>
      </trkpt>
      <trkpt lat="45.50226" lon="0.66639">
        <ele>244</ele>
        <time>2021-06-11T15:06:18Z</time>
      </trkpt>
      <trkpt lat="45.50283" lon="0.66694">
        <ele>248</ele>
        <time>2021-06-11T15:06:31Z</time>
      </trkpt>
      <trkpt lat="45.50333" lon="0.6674">
        <ele>250</ele>
        <time>2021-06-11T15:06:41Z</time>
      </trkpt>
      <trkpt lat="45.50351" lon="0.6675">
        <ele>250</ele>
        <time>2021-06-11T15:06:45Z</time>
      </trkpt>
      <trkpt lat="45.50368" lon="0.66755">
        <ele>250</ele>
        <time>2021-06-11T15:06:48Z</time>
      </trkpt>
      <trkpt lat="45.50384" lon="0.66753">
        <ele>250</ele>
        <time>2021-06-11T15:06:50Z</time>
      </trkpt>
      <trkpt lat="45.50401" lon="0.66744">
        <ele>252</ele>
        <time>2021-06-11T15:06:54Z</time>
      </trkpt>
      <trkpt lat="45.50425" lon="0.66727">
        <ele>253</ele>
        <time>2021-06-11T15:06:58Z</time>
      </trkpt>
      <trkpt lat="45.5051" lon="0.66655">
        <ele>250</ele>
        <time>2021-06-11T15:07:16Z</time>
      </trkpt>
      <trkpt lat="45.50537" lon="0.66641">
        <ele>250</ele>
        <time>2021-06-11T15:07:21Z</time>
      </trkpt>
      <trkpt lat="45.50559" lon="0.66639">
        <ele>250</ele>
        <time>2021-06-11T15:07:25Z</time>
      </trkpt>
      <trkpt lat="45.50571" lon="0.66641">
        <ele>249</ele>
        <time>2021-06-11T15:07:27Z</time>
      </trkpt>
      <trkpt lat="45.50591" lon="0.66657">
        <ele>248</ele>
        <time>2021-06-11T15:07:31Z</time>
      </trkpt>
      <trkpt lat="45.50794" lon="0.6687">
        <ele>242</ele>
        <time>2021-06-11T15:08:16Z</time>
      </trkpt>
      <trkpt lat="45.50818" lon="0.66888">
        <ele>242</ele>
        <time>2021-06-11T15:08:21Z</time>
      </trkpt>
      <trkpt lat="45.50852" lon="0.66911">
        <ele>242</ele>
        <time>2021-06-11T15:08:28Z</time>
      </trkpt>
      <trkpt lat="45.50998" lon="0.66989">
        <ele>242</ele>
        <time>2021-06-11T15:08:55Z</time>
      </trkpt>
      <trkpt lat="45.5107" lon="0.67023">
        <ele>239</ele>
        <time>2021-06-11T15:09:09Z</time>
      </trkpt>
      <trkpt lat="45.51112" lon="0.67017">
        <ele>235</ele>
        <time>2021-06-11T15:09:16Z</time>
      </trkpt>
      <trkpt lat="45.51133" lon="0.67029">
        <ele>233</ele>
        <time>2021-06-11T15:09:20Z</time>
      </trkpt>
      <trkpt lat="45.51135" lon="0.67033">
        <ele>233</ele>
        <time>2021-06-11T15:09:21Z</time>
      </trkpt>
      <trkpt lat="45.51138" lon="0.67036">
        <ele>233</ele>
        <time>2021-06-11T15:09:22Z</time>
      </trkpt>
      <trkpt lat="45.51142" lon="0.67037">
        <ele>233</ele>
        <time>2021-06-11T15:09:22Z</time>
      </trkpt>
      <trkpt lat="45.51145" lon="0.67037">
        <ele>232</ele>
        <time>2021-06-11T15:09:23Z</time>
      </trkpt>
      <trkpt lat="45.51148" lon="0.67035">
        <ele>232</ele>
        <time>2021-06-11T15:09:24Z</time>
      </trkpt>
      <trkpt lat="45.51151" lon="0.67031">
        <ele>232</ele>
        <time>2021-06-11T15:09:24Z</time>
      </trkpt>
      <trkpt lat="45.51152" lon="0.67027">
        <ele>231</ele>
        <time>2021-06-11T15:09:25Z</time>
      </trkpt>
      <trkpt lat="45.51153" lon="0.67022">
        <ele>231</ele>
        <time>2021-06-11T15:09:25Z</time>
      </trkpt>
      <trkpt lat="45.51162" lon="0.67004">
        <ele>230</ele>
        <time>2021-06-11T15:09:28Z</time>
      </trkpt>
      <trkpt lat="45.51191" lon="0.66985">
        <ele>228</ele>
        <time>2021-06-11T15:09:34Z</time>
      </trkpt>
      <trkpt lat="45.51258" lon="0.66977">
        <ele>225</ele>
        <time>2021-06-11T15:09:46Z</time>
      </trkpt>
      <trkpt lat="45.51314" lon="0.66981">
        <ele>222</ele>
        <time>2021-06-11T15:09:56Z</time>
      </trkpt>
      <trkpt lat="45.51456" lon="0.67013">
        <ele>218</ele>
        <time>2021-06-11T15:10:21Z</time>
      </trkpt>
      <trkpt lat="45.51484" lon="0.6701">
        <ele>216</ele>
        <time>2021-06-11T15:10:26Z</time>
      </trkpt>
      <trkpt lat="45.51511" lon="0.66998">
        <ele>215</ele>
        <time>2021-06-11T15:10:31Z</time>
      </trkpt>
      <trkpt lat="45.51533" lon="0.66984">
        <ele>213</ele>
        <time>2021-06-11T15:10:36Z</time>
      </trkpt>
      <trkpt lat="45.51554" lon="0.66963">
        <ele>212</ele>
        <time>2021-06-11T15:10:40Z</time>
      </trkpt>
      <trkpt lat="45.51593" lon="0.66907">
        <ele>209</ele>
        <time>2021-06-11T15:10:50Z</time>
      </trkpt>
      <trkpt lat="45.51607" lon="0.66895">
        <ele>208</ele>
        <time>2021-06-11T15:10:53Z</time>
      </trkpt>
      <trkpt lat="45.51678" lon="0.66858">
        <ele>205</ele>
        <time>2021-06-11T15:11:06Z</time>
      </trkpt>
      <trkpt lat="45.51698" lon="0.66844">
        <ele>204</ele>
        <time>2021-06-11T15:11:10Z</time>
      </trkpt>
      <trkpt lat="45.51718" lon="0.66822">
        <ele>203</ele>
        <time>2021-06-11T15:11:15Z</time>
      </trkpt>
      <trkpt lat="45.51732" lon="0.66792">
        <ele>202</ele>
        <time>2021-06-11T15:11:19Z</time>
      </trkpt>
      <trkpt lat="45.51754" lon="0.66671">
        <ele>198</ele>
        <time>2021-06-11T15:11:35Z</time>
      </trkpt>
      <trkpt lat="45.5176" lon="0.66646">
        <ele>198</ele>
        <time>2021-06-11T15:11:38Z</time>
      </trkpt>
      <trkpt lat="45.51768" lon="0.66627">
        <ele>197</ele>
        <time>2021-06-11T15:11:41Z</time>
      </trkpt>
      <trkpt lat="45.51771" lon="0.66622">
        <ele>197</ele>
        <time>2021-06-11T15:11:42Z</time>
      </trkpt>
      <trkpt lat="45.51782" lon="0.66605">
        <ele>196</ele>
        <time>2021-06-11T15:11:45Z</time>
      </trkpt>
      <trkpt lat="45.51798" lon="0.66586">
        <ele>195</ele>
        <time>2021-06-11T15:11:49Z</time>
      </trkpt>
      <trkpt lat="45.51825" lon="0.66564">
        <ele>194</ele>
        <time>2021-06-11T15:11:54Z</time>
      </trkpt>
      <trkpt lat="45.51856" lon="0.66557">
        <ele>192</ele>
        <time>2021-06-11T15:12:00Z</time>
      </trkpt>
      <trkpt lat="45.51915" lon="0.66553">
        <ele>190</ele>
        <time>2021-06-11T15:12:10Z</time>
      </trkpt>
      <trkpt lat="45.51939" lon="0.66551">
        <ele>189</ele>
        <time>2021-06-11T15:12:14Z</time>
      </trkpt>
      <trkpt lat="45.51961" lon="0.66546">
        <ele>188</ele>
        <time>2021-06-11T15:12:18Z</time>
      </trkpt>
      <trkpt lat="45.51987" lon="0.66536">
        <ele>187</ele>
        <time>2021-06-11T15:12:23Z</time>
      </trkpt>
      <trkpt lat="45.5203" lon="0.66515">
        <ele>187</ele>
        <time>2021-06-11T15:12:31Z</time>
      </trkpt>
      <trkpt lat="45.52067" lon="0.66497">
        <ele>188</ele>
        <time>2021-06-11T15:12:38Z</time>
      </trkpt>
      <trkpt lat="45.52103" lon="0.66485">
        <ele>189</ele>
        <time>2021-06-11T15:12:45Z</time>
      </trkpt>
      <trkpt lat="45.52137" lon="0.66478">
        <ele>190</ele>
        <time>2021-06-11T15:12:51Z</time>
      </trkpt>
      <trkpt lat="45.52173" lon="0.66476">
        <ele>191</ele>
        <time>2021-06-11T15:12:57Z</time>
      </trkpt>
      <trkpt lat="45.52206" lon="0.66483">
        <ele>189</ele>
        <time>2021-06-11T15:13:03Z</time>
      </trkpt>
      <trkpt lat="45.52231" lon="0.66471">
        <ele>188</ele>
        <time>2021-06-11T15:13:08Z</time>
      </trkpt>
      <trkpt lat="45.52233" lon="0.6647">
        <ele>188</ele>
        <time>2021-06-11T15:13:08Z</time>
      </trkpt>
      <trkpt lat="45.52311" lon="0.66418">
        <ele>182</ele>
        <time>2021-06-11T15:13:24Z</time>
      </trkpt>
      <trkpt lat="45.52332" lon="0.66406">
        <ele>180</ele>
        <time>2021-06-11T15:13:28Z</time>
      </trkpt>
      <trkpt lat="45.52344" lon="0.66397">
        <ele>181</ele>
        <time>2021-06-11T15:13:30Z</time>
      </trkpt>
      <trkpt lat="45.52365" lon="0.66363">
        <ele>180</ele>
        <time>2021-06-11T15:13:36Z</time>
      </trkpt>
      <trkpt lat="45.5239" lon="0.66311">
        <ele>174</ele>
        <time>2021-06-11T15:13:44Z</time>
      </trkpt>
      <trkpt lat="45.52407" lon="0.66287">
        <ele>172</ele>
        <time>2021-06-11T15:13:48Z</time>
      </trkpt>
      <trkpt lat="45.52453" lon="0.66244">
        <ele>168</ele>
        <time>2021-06-11T15:13:58Z</time>
      </trkpt>
      <trkpt lat="45.52458" lon="0.6623">
        <ele>167</ele>
        <time>2021-06-11T15:14:00Z</time>
      </trkpt>
      <trkpt lat="45.52461" lon="0.66217">
        <ele>166</ele>
        <time>2021-06-11T15:14:01Z</time>
      </trkpt>
      <trkpt lat="45.52461" lon="0.66197">
        <ele>164</ele>
        <time>2021-06-11T15:14:04Z</time>
      </trkpt>
      <trkpt lat="45.52461" lon="0.66122">
        <ele>168</ele>
        <time>2021-06-11T15:14:13Z</time>
      </trkpt>
      <trkpt lat="45.52461" lon="0.66091">
        <ele>172</ele>
        <time>2021-06-11T15:14:17Z</time>
      </trkpt>
      <trkpt lat="45.52461" lon="0.66083">
        <ele>173</ele>
        <time>2021-06-11T15:14:18Z</time>
      </trkpt>
      <trkpt lat="45.5246" lon="0.66038">
        <ele>177</ele>
        <time>2021-06-11T15:14:24Z</time>
      </trkpt>
      <trkpt lat="45.52472" lon="0.66015">
        <ele>179</ele>
        <time>2021-06-11T15:14:27Z</time>
      </trkpt>
      <trkpt lat="45.52493" lon="0.65972">
        <ele>181</ele>
        <time>2021-06-11T15:14:34Z</time>
      </trkpt>
      <trkpt lat="45.52512" lon="0.65939">
        <ele>184</ele>
        <time>2021-06-11T15:14:39Z</time>
      </trkpt>
      <trkpt lat="45.52532" lon="0.6592">
        <ele>186</ele>
        <time>2021-06-11T15:14:43Z</time>
      </trkpt>
      <trkpt lat="45.52536" lon="0.65917">
        <ele>186</ele>
        <time>2021-06-11T15:14:44Z</time>
      </trkpt>
      <trkpt lat="45.52541" lon="0.65916">
        <ele>187</ele>
        <time>2021-06-11T15:14:45Z</time>
      </trkpt>
      <trkpt lat="45.52562" lon="0.6592">
        <ele>187</ele>
        <time>2021-06-11T15:14:49Z</time>
      </trkpt>
      <trkpt lat="45.52583" lon="0.65927">
        <ele>187</ele>
        <time>2021-06-11T15:14:53Z</time>
      </trkpt>
      <trkpt lat="45.52608" lon="0.65943">
        <ele>190</ele>
        <time>2021-06-11T15:14:57Z</time>
      </trkpt>
      <trkpt lat="45.52611" lon="0.65946">
        <ele>190</ele>
        <time>2021-06-11T15:14:58Z</time>
      </trkpt>
      <trkpt lat="45.52619" lon="0.65957">
        <ele>190</ele>
        <time>2021-06-11T15:15:00Z</time>
      </trkpt>
      <trkpt lat="45.52623" lon="0.6597">
        <ele>190</ele>
        <time>2021-06-11T15:15:02Z</time>
      </trkpt>
      <trkpt lat="45.52628" lon="0.65981">
        <ele>190</ele>
        <time>2021-06-11T15:15:04Z</time>
      </trkpt>
      <trkpt lat="45.5265" lon="0.66012">
        <ele>190</ele>
        <time>2021-06-11T15:15:09Z</time>
      </trkpt>
      <trkpt lat="45.52653" lon="0.66015">
        <ele>190</ele>
        <time>2021-06-11T15:15:10Z</time>
      </trkpt>
      <trkpt lat="45.52662" lon="0.66017">
        <ele>190</ele>
        <time>2021-06-11T15:15:11Z</time>
      </trkpt>
      <trkpt lat="45.52678" lon="0.66018">
        <ele>192</ele>
        <time>2021-06-11T15:15:14Z</time>
      </trkpt>
      <trkpt lat="45.52693" lon="0.66016">
        <ele>194</ele>
        <time>2021-06-11T15:15:17Z</time>
      </trkpt>
      <trkpt lat="45.52717" lon="0.66017">
        <ele>196</ele>
        <time>2021-06-11T15:15:21Z</time>
      </trkpt>
      <trkpt lat="45.52719" lon="0.66017">
        <ele>197</ele>
        <time>2021-06-11T15:15:21Z</time>
      </trkpt>
      <trkpt lat="45.52771" lon="0.6602">
        <ele>201</ele>
        <time>2021-06-11T15:15:31Z</time>
      </trkpt>
      <trkpt lat="45.52777" lon="0.6602">
        <ele>201</ele>
        <time>2021-06-11T15:15:32Z</time>
      </trkpt>
      <trkpt lat="45.5279" lon="0.66026">
        <ele>202</ele>
        <time>2021-06-11T15:15:34Z</time>
      </trkpt>
      <trkpt lat="45.52799" lon="0.66038">
        <ele>202</ele>
        <time>2021-06-11T15:15:36Z</time>
      </trkpt>
      <trkpt lat="45.52805" lon="0.66044">
        <ele>203</ele>
        <time>2021-06-11T15:15:38Z</time>
      </trkpt>
      <trkpt lat="45.52823" lon="0.66049">
        <ele>204</ele>
        <time>2021-06-11T15:15:41Z</time>
      </trkpt>
      <trkpt lat="45.52825" lon="0.66048">
        <ele>204</ele>
        <time>2021-06-11T15:15:41Z</time>
      </trkpt>
      <trkpt lat="45.52835" lon="0.66044">
        <ele>204</ele>
        <time>2021-06-11T15:15:43Z</time>
      </trkpt>
      <trkpt lat="45.52834" lon="0.6602">
        <ele>204</ele>
        <time>2021-06-11T15:15:46Z</time>
      </trkpt>
      <trkpt lat="45.5283" lon="0.66013">
        <ele>203</ele>
        <time>2021-06-11T15:15:47Z</time>
      </trkpt>
      <trkpt lat="45.52819" lon="0.66002">
        <ele>203</ele>
        <time>2021-06-11T15:15:50Z</time>
      </trkpt>
      <trkpt lat="45.52775" lon="0.65965">
        <ele>204</ele>
        <time>2021-06-11T15:15:59Z</time>
      </trkpt>
      <trkpt lat="45.52738" lon="0.6595">
        <ele>204</ele>
        <time>2021-06-11T15:16:06Z</time>
      </trkpt>
      <trkpt lat="45.52712" lon="0.65935">
        <ele>202</ele>
        <time>2021-06-11T15:16:11Z</time>
      </trkpt>
      <trkpt lat="45.52703" lon="0.65919">
        <ele>203</ele>
        <time>2021-06-11T15:16:13Z</time>
      </trkpt>
      <trkpt lat="45.52698" lon="0.65905">
        <ele>203</ele>
        <time>2021-06-11T15:16:15Z</time>
      </trkpt>
      <trkpt lat="45.52695" lon="0.65885">
        <ele>205</ele>
        <time>2021-06-11T15:16:18Z</time>
      </trkpt>
      <trkpt lat="45.52703" lon="0.6588">
        <ele>206</ele>
        <time>2021-06-11T15:16:19Z</time>
      </trkpt>
      <trkpt lat="45.52725" lon="0.65848">
        <ele>211</ele>
        <time>2021-06-11T15:16:25Z</time>
      </trkpt>
      <trkpt lat="45.52732" lon="0.65843">
        <ele>212</ele>
        <time>2021-06-11T15:16:26Z</time>
      </trkpt>
      <trkpt lat="45.52751" lon="0.65841">
        <ele>213</ele>
        <time>2021-06-11T15:16:30Z</time>
      </trkpt>
      <trkpt lat="45.52759" lon="0.65844">
        <ele>213</ele>
        <time>2021-06-11T15:16:31Z</time>
      </trkpt>
      <trkpt lat="45.52768" lon="0.6585">
        <ele>213</ele>
        <time>2021-06-11T15:16:33Z</time>
      </trkpt>
      <trkpt lat="45.52831" lon="0.65912">
        <ele>209</ele>
        <time>2021-06-11T15:16:46Z</time>
      </trkpt>
      <trkpt lat="45.5284" lon="0.65915">
        <ele>209</ele>
        <time>2021-06-11T15:16:48Z</time>
      </trkpt>
      <trkpt lat="45.52878" lon="0.65912">
        <ele>212</ele>
        <time>2021-06-11T15:16:55Z</time>
      </trkpt>
      <trkpt lat="45.52888" lon="0.65913">
        <ele>212</ele>
        <time>2021-06-11T15:16:57Z</time>
      </trkpt>
      <trkpt lat="45.5299" lon="0.65967">
        <ele>215</ele>
        <time>2021-06-11T15:17:16Z</time>
      </trkpt>
      <trkpt lat="45.52995" lon="0.65958">
        <ele>216</ele>
        <time>2021-06-11T15:17:17Z</time>
      </trkpt>
      <trkpt lat="45.53004" lon="0.65953">
        <ele>217</ele>
        <time>2021-06-11T15:17:19Z</time>
      </trkpt>
      <trkpt lat="45.53039" lon="0.65948">
        <ele>219</ele>
        <time>2021-06-11T15:17:25Z</time>
      </trkpt>
      <trkpt lat="45.53106" lon="0.65924">
        <ele>224</ele>
        <time>2021-06-11T15:17:38Z</time>
      </trkpt>
      <trkpt lat="45.53163" lon="0.659">
        <ele>230</ele>
        <time>2021-06-11T15:17:48Z</time>
      </trkpt>
      <trkpt lat="45.53175" lon="0.65893">
        <ele>231</ele>
        <time>2021-06-11T15:17:51Z</time>
      </trkpt>
      <trkpt lat="45.53179" lon="0.65883">
        <ele>231</ele>
        <time>2021-06-11T15:17:52Z</time>
      </trkpt>
      <trkpt lat="45.53217" lon="0.65883">
        <ele>234</ele>
        <time>2021-06-11T15:17:59Z</time>
      </trkpt>
      <trkpt lat="45.5334" lon="0.65903">
        <ele>241</ele>
        <time>2021-06-11T15:18:21Z</time>
      </trkpt>
      <trkpt lat="45.53356" lon="0.65895">
        <ele>242</ele>
        <time>2021-06-11T15:18:24Z</time>
      </trkpt>
      <trkpt lat="45.53375" lon="0.65896">
        <ele>243</ele>
        <time>2021-06-11T15:18:27Z</time>
      </trkpt>
      <trkpt lat="45.53604" lon="0.6597">
        <ele>266</ele>
        <time>2021-06-11T15:19:09Z</time>
      </trkpt>
      <trkpt lat="45.53646" lon="0.65972">
        <ele>269</ele>
        <time>2021-06-11T15:19:16Z</time>
      </trkpt>
      <trkpt lat="45.53687" lon="0.65964">
        <ele>270</ele>
        <time>2021-06-11T15:19:24Z</time>
      </trkpt>
      <trkpt lat="45.53699" lon="0.65959">
        <ele>269</ele>
        <time>2021-06-11T15:19:26Z</time>
      </trkpt>
      <trkpt lat="45.53916" lon="0.65855">
        <ele>271</ele>
        <time>2021-06-11T15:20:07Z</time>
      </trkpt>
      <trkpt lat="45.5401" lon="0.65794">
        <ele>270</ele>
        <time>2021-06-11T15:20:25Z</time>
      </trkpt>
      <trkpt lat="45.54131" lon="0.65696">
        <ele>262</ele>
        <time>2021-06-11T15:20:50Z</time>
      </trkpt>
      <trkpt lat="45.54187" lon="0.65647">
        <ele>258</ele>
        <time>2021-06-11T15:21:02Z</time>
      </trkpt>
      <trkpt lat="45.54226" lon="0.6559">
        <ele>254</ele>
        <time>2021-06-11T15:21:12Z</time>
      </trkpt>
      <trkpt lat="45.54248" lon="0.65542">
        <ele>250</ele>
        <time>2021-06-11T15:21:19Z</time>
      </trkpt>
      <trkpt lat="45.54265" lon="0.65488">
        <ele>248</ele>
        <time>2021-06-11T15:21:26Z</time>
      </trkpt>
      <trkpt lat="45.54269" lon="0.65468">
        <ele>249</ele>
        <time>2021-06-11T15:21:29Z</time>
      </trkpt>
      <trkpt lat="45.54314" lon="0.65308">
        <ele>257</ele>
        <time>2021-06-11T15:21:50Z</time>
      </trkpt>
      <trkpt lat="45.54343" lon="0.65238">
        <ele>257</ele>
        <time>2021-06-11T15:22:00Z</time>
      </trkpt>
      <trkpt lat="45.54356" lon="0.65193">
        <ele>254</ele>
        <time>2021-06-11T15:22:06Z</time>
      </trkpt>
      <trkpt lat="45.54373" lon="0.65162">
        <ele>251</ele>
        <time>2021-06-11T15:22:11Z</time>
      </trkpt>
      <trkpt lat="45.54396" lon="0.65131">
        <ele>249</ele>
        <time>2021-06-11T15:22:17Z</time>
      </trkpt>
      <trkpt lat="45.54402" lon="0.65126">
        <ele>248</ele>
        <time>2021-06-11T15:22:18Z</time>
      </trkpt>
      <trkpt lat="45.54458" lon="0.65107">
        <ele>243</ele>
        <time>2021-06-11T15:22:28Z</time>
      </trkpt>
      <trkpt lat="45.54488" lon="0.65083">
        <ele>239</ele>
        <time>2021-06-11T15:22:34Z</time>
      </trkpt>
      <trkpt lat="45.54548" lon="0.65002">
        <ele>231</ele>
        <time>2021-06-11T15:22:49Z</time>
      </trkpt>
      <trkpt lat="45.54554" lon="0.6499">
        <ele>231</ele>
        <time>2021-06-11T15:22:51Z</time>
      </trkpt>
      <trkpt lat="45.54568" lon="0.64968">
        <ele>230</ele>
        <time>2021-06-11T15:22:55Z</time>
      </trkpt>
      <trkpt lat="45.54586" lon="0.64928">
        <ele>230</ele>
        <time>2021-06-11T15:23:01Z</time>
      </trkpt>
      <trkpt lat="45.54597" lon="0.64868">
        <ele>235</ele>
        <time>2021-06-11T15:23:08Z</time>
      </trkpt>
      <trkpt lat="45.54599" lon="0.64837">
        <ele>237</ele>
        <time>2021-06-11T15:23:12Z</time>
      </trkpt>
      <trkpt lat="45.54597" lon="0.64792">
        <ele>237</ele>
        <time>2021-06-11T15:23:18Z</time>
      </trkpt>
      <trkpt lat="45.54593" lon="0.6477">
        <ele>237</ele>
        <time>2021-06-11T15:23:21Z</time>
      </trkpt>
      <trkpt lat="45.54533" lon="0.64529">
        <ele>246</ele>
        <time>2021-06-11T15:23:53Z</time>
      </trkpt>
      <trkpt lat="45.54528" lon="0.64484">
        <ele>246</ele>
        <time>2021-06-11T15:23:58Z</time>
      </trkpt>
      <trkpt lat="45.54517" lon="0.6428">
        <ele>243</ele>
        <time>2021-06-11T15:24:24Z</time>
      </trkpt>
      <trkpt lat="45.54519" lon="0.64251">
        <ele>242</ele>
        <time>2021-06-11T15:24:27Z</time>
      </trkpt>
      <trkpt lat="45.54522" lon="0.64231">
        <ele>242</ele>
        <time>2021-06-11T15:24:30Z</time>
      </trkpt>
      <trkpt lat="45.54535" lon="0.64194">
        <ele>240</ele>
        <time>2021-06-11T15:24:35Z</time>
      </trkpt>
      <trkpt lat="45.54544" lon="0.64184">
        <ele>240</ele>
        <time>2021-06-11T15:24:37Z</time>
      </trkpt>
      <trkpt lat="45.54629" lon="0.64134">
        <ele>234</ele>
        <time>2021-06-11T15:24:53Z</time>
      </trkpt>
      <trkpt lat="45.54655" lon="0.64116">
        <ele>233</ele>
        <time>2021-06-11T15:24:59Z</time>
      </trkpt>
      <trkpt lat="45.54663" lon="0.64104">
        <ele>232</ele>
        <time>2021-06-11T15:25:01Z</time>
      </trkpt>
      <trkpt lat="45.54667" lon="0.64088">
        <ele>231</ele>
        <time>2021-06-11T15:25:03Z</time>
      </trkpt>
      <trkpt lat="45.54665" lon="0.64075">
        <ele>232</ele>
        <time>2021-06-11T15:25:04Z</time>
      </trkpt>
      <trkpt lat="45.54657" lon="0.64048">
        <ele>234</ele>
        <time>2021-06-11T15:25:08Z</time>
      </trkpt>
      <trkpt lat="45.54645" lon="0.64025">
        <ele>235</ele>
        <time>2021-06-11T15:25:12Z</time>
      </trkpt>
      <trkpt lat="45.54609" lon="0.63969">
        <ele>233</ele>
        <time>2021-06-11T15:25:21Z</time>
      </trkpt>
      <trkpt lat="45.54556" lon="0.6386">
        <ele>226</ele>
        <time>2021-06-11T15:25:38Z</time>
      </trkpt>
      <trkpt lat="45.54496" lon="0.63661">
        <ele>216</ele>
        <time>2021-06-11T15:26:05Z</time>
      </trkpt>
      <trkpt lat="45.5449" lon="0.6364">
        <ele>215</ele>
        <time>2021-06-11T15:26:08Z</time>
      </trkpt>
      <trkpt lat="45.54488" lon="0.63618">
        <ele>215</ele>
        <time>2021-06-11T15:26:10Z</time>
      </trkpt>
      <trkpt lat="45.54491" lon="0.63577">
        <ele>216</ele>
        <time>2021-06-11T15:26:15Z</time>
      </trkpt>
      <trkpt lat="45.54503" lon="0.63511">
        <ele>214</ele>
        <time>2021-06-11T15:26:24Z</time>
      </trkpt>
      <trkpt lat="45.54505" lon="0.63493">
        <ele>213</ele>
        <time>2021-06-11T15:26:26Z</time>
      </trkpt>
      <trkpt lat="45.54506" lon="0.63474">
        <ele>213</ele>
        <time>2021-06-11T15:26:29Z</time>
      </trkpt>
      <trkpt lat="45.54504" lon="0.63449">
        <ele>211</ele>
        <time>2021-06-11T15:26:32Z</time>
      </trkpt>
      <trkpt lat="45.54487" lon="0.63334">
        <ele>206</ele>
        <time>2021-06-11T15:26:46Z</time>
      </trkpt>
      <trkpt lat="45.54488" lon="0.63305">
        <ele>204</ele>
        <time>2021-06-11T15:26:50Z</time>
      </trkpt>
      <trkpt lat="45.54494" lon="0.63285">
        <ele>203</ele>
        <time>2021-06-11T15:26:53Z</time>
      </trkpt>
      <trkpt lat="45.54535" lon="0.63207">
        <ele>199</ele>
        <time>2021-06-11T15:27:05Z</time>
      </trkpt>
      <trkpt lat="45.54543" lon="0.63185">
        <ele>199</ele>
        <time>2021-06-11T15:27:08Z</time>
      </trkpt>
      <trkpt lat="45.54546" lon="0.63166">
        <ele>199</ele>
        <time>2021-06-11T15:27:10Z</time>
      </trkpt>
      <trkpt lat="45.54546" lon="0.63139">
        <ele>200</ele>
        <time>2021-06-11T15:27:14Z</time>
      </trkpt>
      <trkpt lat="45.54538" lon="0.63083">
        <ele>201</ele>
        <time>2021-06-11T15:27:21Z</time>
      </trkpt>
      <trkpt lat="45.54537" lon="0.6306">
        <ele>201</ele>
        <time>2021-06-11T15:27:24Z</time>
      </trkpt>
      <trkpt lat="45.54537" lon="0.62903">
        <ele>196</ele>
        <time>2021-06-11T15:27:43Z</time>
      </trkpt>
      <trkpt lat="45.54539" lon="0.62813">
        <ele>191</ele>
        <time>2021-06-11T15:27:54Z</time>
      </trkpt>
      <trkpt lat="45.5454" lon="0.62796">
        <ele>190</ele>
        <time>2021-06-11T15:27:57Z</time>
      </trkpt>
      <trkpt lat="45.54547" lon="0.62775">
        <ele>189</ele>
        <time>2021-06-11T15:27:59Z</time>
      </trkpt>
      <trkpt lat="45.54579" lon="0.62714">
        <ele>187</ele>
        <time>2021-06-11T15:28:09Z</time>
      </trkpt>
      <trkpt lat="45.54662" lon="0.62576">
        <ele>180</ele>
        <time>2021-06-11T15:28:32Z</time>
      </trkpt>
      <trkpt lat="45.54673" lon="0.62551">
        <ele>180</ele>
        <time>2021-06-11T15:28:35Z</time>
      </trkpt>
      <trkpt lat="45.54681" lon="0.6253">
        <ele>180</ele>
        <time>2021-06-11T15:28:38Z</time>
      </trkpt>
      <trkpt lat="45.54711" lon="0.62413">
        <ele>182</ele>
        <time>2021-06-11T15:28:54Z</time>
      </trkpt>
      <trkpt lat="45.54732" lon="0.62364">
        <ele>183</ele>
        <time>2021-06-11T15:29:01Z</time>
      </trkpt>
      <trkpt lat="45.54745" lon="0.62345">
        <ele>182</ele>
        <time>2021-06-11T15:29:04Z</time>
      </trkpt>
      <trkpt lat="45.54809" lon="0.62268">
        <ele>189</ele>
        <time>2021-06-11T15:29:19Z</time>
      </trkpt>
      <trkpt lat="45.54866" lon="0.62218">
        <ele>194</ele>
        <time>2021-06-11T15:29:31Z</time>
      </trkpt>
      <trkpt lat="45.54894" lon="0.62183">
        <ele>197</ele>
        <time>2021-06-11T15:29:38Z</time>
      </trkpt>
      <trkpt lat="45.54987" lon="0.62054">
        <ele>199</ele>
        <time>2021-06-11T15:30:01Z</time>
      </trkpt>
      <trkpt lat="45.55026" lon="0.61994">
        <ele>201</ele>
        <time>2021-06-11T15:30:11Z</time>
      </trkpt>
      <trkpt lat="45.55062" lon="0.61934">
        <ele>200</ele>
        <time>2021-06-11T15:30:21Z</time>
      </trkpt>
      <trkpt lat="45.55232" lon="0.61685">
        <ele>191</ele>
        <time>2021-06-11T15:31:04Z</time>
      </trkpt>
      <trkpt lat="45.55315" lon="0.61574">
        <ele>185</ele>
        <time>2021-06-11T15:31:24Z</time>
      </trkpt>
      <trkpt lat="45.55353" lon="0.61509">
        <ele>184</ele>
        <time>2021-06-11T15:31:35Z</time>
      </trkpt>
      <trkpt lat="45.55369" lon="0.61487">
        <ele>183</ele>
        <time>2021-06-11T15:31:39Z</time>
      </trkpt>
      <trkpt lat="45.55388" lon="0.61468">
        <ele>180</ele>
        <time>2021-06-11T15:31:43Z</time>
      </trkpt>
      <trkpt lat="45.55424" lon="0.6144">
        <ele>174</ele>
        <time>2021-06-11T15:31:50Z</time>
      </trkpt>
      <trkpt lat="45.55525" lon="0.61391">
        <ele>166</ele>
        <time>2021-06-11T15:32:09Z</time>
      </trkpt>
      <trkpt lat="45.55538" lon="0.6138">
        <ele>168</ele>
        <time>2021-06-11T15:32:12Z</time>
      </trkpt>
      <trkpt lat="45.55543" lon="0.61368">
        <ele>169</ele>
        <time>2021-06-11T15:32:14Z</time>
      </trkpt>
      <trkpt lat="45.55544" lon="0.61336">
        <ele>170</ele>
        <time>2021-06-11T15:32:18Z</time>
      </trkpt>
      <trkpt lat="45.5554" lon="0.61269">
        <ele>171</ele>
        <time>2021-06-11T15:32:26Z</time>
      </trkpt>
      <trkpt lat="45.55541" lon="0.61226">
        <ele>171</ele>
        <time>2021-06-11T15:32:31Z</time>
      </trkpt>
      <trkpt lat="45.55549" lon="0.61198">
        <ele>172</ele>
        <time>2021-06-11T15:32:35Z</time>
      </trkpt>
      <trkpt lat="45.5556" lon="0.61182">
        <ele>172</ele>
        <time>2021-06-11T15:32:38Z</time>
      </trkpt>
      <trkpt lat="45.55562" lon="0.61142">
        <ele>173</ele>
        <time>2021-06-11T15:32:43Z</time>
      </trkpt>
      <trkpt lat="45.55551" lon="0.6107">
        <ele>173</ele>
        <time>2021-06-11T15:32:52Z</time>
      </trkpt>
      <trkpt lat="45.55513" lon="0.60887">
        <ele>173</ele>
        <time>2021-06-11T15:33:16Z</time>
      </trkpt>
      <trkpt lat="45.55509" lon="0.60841">
        <ele>176</ele>
        <time>2021-06-11T15:33:22Z</time>
      </trkpt>
      <trkpt lat="45.55509" lon="0.60806">
        <ele>176</ele>
        <time>2021-06-11T15:33:26Z</time>
      </trkpt>
      <trkpt lat="45.55512" lon="0.60772">
        <ele>177</ele>
        <time>2021-06-11T15:33:30Z</time>
      </trkpt>
      <trkpt lat="45.5552" lon="0.6072">
        <ele>178</ele>
        <time>2021-06-11T15:33:37Z</time>
      </trkpt>
      <trkpt lat="45.55536" lon="0.6066">
        <ele>181</ele>
        <time>2021-06-11T15:33:45Z</time>
      </trkpt>
      <trkpt lat="45.55619" lon="0.60411">
        <ele>186</ele>
        <time>2021-06-11T15:34:19Z</time>
      </trkpt>
      <trkpt lat="45.55628" lon="0.60357">
        <ele>187</ele>
        <time>2021-06-11T15:34:26Z</time>
      </trkpt>
      <trkpt lat="45.55632" lon="0.60321">
        <ele>188</ele>
        <time>2021-06-11T15:34:31Z</time>
      </trkpt>
      <trkpt lat="45.55637" lon="0.60209">
        <ele>192</ele>
        <time>2021-06-11T15:34:45Z</time>
      </trkpt>
      <trkpt lat="45.55646" lon="0.60084">
        <ele>193</ele>
        <time>2021-06-11T15:35:00Z</time>
      </trkpt>
      <trkpt lat="45.55651" lon="0.59931">
        <ele>190</ele>
        <time>2021-06-11T15:35:20Z</time>
      </trkpt>
      <trkpt lat="45.55664" lon="0.59826">
        <ele>188</ele>
        <time>2021-06-11T15:35:33Z</time>
      </trkpt>
      <trkpt lat="45.5568" lon="0.59784">
        <ele>187</ele>
        <time>2021-06-11T15:35:39Z</time>
      </trkpt>
      <trkpt lat="45.55701" lon="0.5975">
        <ele>187</ele>
        <time>2021-06-11T15:35:44Z</time>
      </trkpt>
      <trkpt lat="45.55723" lon="0.59724">
        <ele>187</ele>
        <time>2021-06-11T15:35:50Z</time>
      </trkpt>
      <trkpt lat="45.55866" lon="0.59529">
        <ele>184</ele>
        <time>2021-06-11T15:36:25Z</time>
      </trkpt>
      <trkpt lat="45.55887" lon="0.59489">
        <ele>184</ele>
        <time>2021-06-11T15:36:31Z</time>
      </trkpt>
      <trkpt lat="45.55895" lon="0.5945">
        <ele>184</ele>
        <time>2021-06-11T15:36:36Z</time>
      </trkpt>
      <trkpt lat="45.55907" lon="0.59374">
        <ele>183</ele>
        <time>2021-06-11T15:36:46Z</time>
      </trkpt>
      <trkpt lat="45.55907" lon="0.59352">
        <ele>182</ele>
        <time>2021-06-11T15:36:48Z</time>
      </trkpt>
      <trkpt lat="45.55907" lon="0.5933">
        <ele>181</ele>
        <time>2021-06-11T15:36:51Z</time>
      </trkpt>
      <trkpt lat="45.55901" lon="0.59288">
        <ele>181</ele>
        <time>2021-06-11T15:36:57Z</time>
      </trkpt>
      <trkpt lat="45.55893" lon="0.59256">
        <ele>181</ele>
        <time>2021-06-11T15:37:01Z</time>
      </trkpt>
      <trkpt lat="45.5584" lon="0.59106">
        <ele>184</ele>
        <time>2021-06-11T15:37:22Z</time>
      </trkpt>
      <trkpt lat="45.55833" lon="0.59065">
        <ele>184</ele>
        <time>2021-06-11T15:37:27Z</time>
      </trkpt>
      <trkpt lat="45.5582" lon="0.5896">
        <ele>179</ele>
        <time>2021-06-11T15:37:40Z</time>
      </trkpt>
      <trkpt lat="45.55813" lon="0.58934">
        <ele>178</ele>
        <time>2021-06-11T15:37:44Z</time>
      </trkpt>
      <trkpt lat="45.55793" lon="0.58878">
        <ele>178</ele>
        <time>2021-06-11T15:37:52Z</time>
      </trkpt>
      <trkpt lat="45.55739" lon="0.58774">
        <ele>178</ele>
        <time>2021-06-11T15:38:08Z</time>
      </trkpt>
      <trkpt lat="45.55715" lon="0.58708">
        <ele>177</ele>
        <time>2021-06-11T15:38:17Z</time>
      </trkpt>
      <trkpt lat="45.55708" lon="0.58659">
        <ele>178</ele>
        <time>2021-06-11T15:38:23Z</time>
      </trkpt>
      <trkpt lat="45.55705" lon="0.58616">
        <ele>178</ele>
        <time>2021-06-11T15:38:29Z</time>
      </trkpt>
      <trkpt lat="45.55681" lon="0.58513">
        <ele>178</ele>
        <time>2021-06-11T15:38:42Z</time>
      </trkpt>
      <trkpt lat="45.55674" lon="0.5847">
        <ele>178</ele>
        <time>2021-06-11T15:38:48Z</time>
      </trkpt>
      <trkpt lat="45.55675" lon="0.58422">
        <ele>176</ele>
        <time>2021-06-11T15:38:54Z</time>
      </trkpt>
      <trkpt lat="45.55678" lon="0.5835">
        <ele>174</ele>
        <time>2021-06-11T15:39:03Z</time>
      </trkpt>
      <trkpt lat="45.55694" lon="0.58169">
        <ele>165</ele>
        <time>2021-06-11T15:39:25Z</time>
      </trkpt>
      <trkpt lat="45.55691" lon="0.58119">
        <ele>164</ele>
        <time>2021-06-11T15:39:32Z</time>
      </trkpt>
      <trkpt lat="45.55691" lon="0.58111">
        <ele>164</ele>
        <time>2021-06-11T15:39:33Z</time>
      </trkpt>
      <trkpt lat="45.55692" lon="0.5807">
        <ele>162</ele>
        <time>2021-06-11T15:39:38Z</time>
      </trkpt>
      <trkpt lat="45.557" lon="0.58012">
        <ele>157</ele>
        <time>2021-06-11T15:39:45Z</time>
      </trkpt>
      <trkpt lat="45.557" lon="0.57971">
        <ele>154</ele>
        <time>2021-06-11T15:39:50Z</time>
      </trkpt>
      <trkpt lat="45.55693" lon="0.57931">
        <ele>153</ele>
        <time>2021-06-11T15:39:55Z</time>
      </trkpt>
      <trkpt lat="45.55671" lon="0.57842">
        <ele>153</ele>
        <time>2021-06-11T15:40:07Z</time>
      </trkpt>
      <trkpt lat="45.5566" lon="0.57814">
        <ele>151</ele>
        <time>2021-06-11T15:40:11Z</time>
      </trkpt>
      <trkpt lat="45.55648" lon="0.57795">
        <ele>149</ele>
        <time>2021-06-11T15:40:14Z</time>
      </trkpt>
      <trkpt lat="45.5564" lon="0.57772">
        <ele>147</ele>
        <time>2021-06-11T15:40:17Z</time>
      </trkpt>
      <trkpt lat="45.55638" lon="0.57752">
        <ele>145</ele>
        <time>2021-06-11T15:40:20Z</time>
      </trkpt>
      <trkpt lat="45.55639" lon="0.57715">
        <ele>144</ele>
        <time>2021-06-11T15:40:25Z</time>
      </trkpt>
      <trkpt lat="45.5565" lon="0.57649">
        <ele>142</ele>
        <time>2021-06-11T15:40:33Z</time>
      </trkpt>
      <trkpt lat="45.55659" lon="0.57613">
        <ele>141</ele>
        <time>2021-06-11T15:40:38Z</time>
      </trkpt>
      <trkpt lat="45.55668" lon="0.57593">
        <ele>140</ele>
        <time>2021-06-11T15:40:41Z</time>
      </trkpt>
      <trkpt lat="45.55692" lon="0.5758">
        <ele>138</ele>
        <time>2021-06-11T15:40:45Z</time>
      </trkpt>
      <trkpt lat="45.55729" lon="0.57564">
        <ele>134</ele>
        <time>2021-06-11T15:40:52Z</time>
      </trkpt>
      <trkpt lat="45.55739" lon="0.57554">
        <ele>133</ele>
        <time>2021-06-11T15:40:54Z</time>
      </trkpt>
      <trkpt lat="45.55748" lon="0.57537">
        <ele>132</ele>
        <time>2021-06-11T15:40:57Z</time>
      </trkpt>
      <trkpt lat="45.55751" lon="0.57511">
        <ele>130</ele>
        <time>2021-06-11T15:41:00Z</time>
      </trkpt>
      <trkpt lat="45.55751" lon="0.57406">
        <ele>128</ele>
        <time>2021-06-11T15:41:13Z</time>
      </trkpt>
      <trkpt lat="45.55755" lon="0.57383">
        <ele>128</ele>
        <time>2021-06-11T15:41:16Z</time>
      </trkpt>
      <trkpt lat="45.55764" lon="0.57354">
        <ele>128</ele>
        <time>2021-06-11T15:41:20Z</time>
      </trkpt>
      <trkpt lat="45.55769" lon="0.57345">
        <ele>128</ele>
        <time>2021-06-11T15:41:22Z</time>
      </trkpt>
      <trkpt lat="45.55784" lon="0.57314">
        <ele>127</ele>
        <time>2021-06-11T15:41:26Z</time>
      </trkpt>
      <trkpt lat="45.55787" lon="0.57305">
        <ele>127</ele>
        <time>2021-06-11T15:41:28Z</time>
      </trkpt>
      <trkpt lat="45.55789" lon="0.573">
        <ele>127</ele>
        <time>2021-06-11T15:41:28Z</time>
      </trkpt>
      <trkpt lat="45.55803" lon="0.57312">
        <ele>126</ele>
        <time>2021-06-11T15:41:31Z</time>
      </trkpt>
      <trkpt lat="45.55819" lon="0.57324">
        <ele>126</ele>
        <time>2021-06-11T15:41:34Z</time>
      </trkpt>
      <trkpt lat="45.55823" lon="0.57327">
        <ele>125</ele>
        <time>2021-06-11T15:41:35Z</time>
      </trkpt>
      <trkpt lat="45.55829" lon="0.5733">
        <ele>125</ele>
        <time>2021-06-11T15:41:36Z</time>
      </trkpt>
      <trkpt lat="45.55844" lon="0.57334">
        <ele>125</ele>
        <time>2021-06-11T15:41:39Z</time>
      </trkpt>
      <trkpt lat="45.5586" lon="0.57335">
        <ele>125</ele>
        <time>2021-06-11T15:41:42Z</time>
      </trkpt>
      <trkpt lat="45.55865" lon="0.57335">
        <ele>125</ele>
        <time>2021-06-11T15:41:43Z</time>
      </trkpt>
      <trkpt lat="45.55871" lon="0.57335">
        <ele>125</ele>
        <time>2021-06-11T15:41:44Z</time>
      </trkpt>
      <trkpt lat="45.55889" lon="0.57334">
        <ele>124</ele>
        <time>2021-06-11T15:41:47Z</time>
      </trkpt>
      <trkpt lat="45.55924" lon="0.57329">
        <ele>124</ele>
        <time>2021-06-11T15:41:53Z</time>
      </trkpt>
      <trkpt lat="45.55945" lon="0.57321">
        <ele>126</ele>
        <time>2021-06-11T15:41:57Z</time>
      </trkpt>
      <trkpt lat="45.55956" lon="0.57315">
        <ele>126</ele>
        <time>2021-06-11T15:41:59Z</time>
      </trkpt>
      <trkpt lat="45.55998" lon="0.57284">
        <ele>127</ele>
        <time>2021-06-11T15:42:08Z</time>
      </trkpt>
      <trkpt lat="45.56033" lon="0.57264">
        <ele>129</ele>
        <time>2021-06-11T15:42:14Z</time>
      </trkpt>
      <trkpt lat="45.56116" lon="0.57238">
        <ele>131</ele>
        <time>2021-06-11T15:42:30Z</time>
      </trkpt>
      <trkpt lat="45.56152" lon="0.57225">
        <ele>131</ele>
        <time>2021-06-11T15:42:36Z</time>
      </trkpt>
      <trkpt lat="45.56242" lon="0.57174">
        <ele>131</ele>
        <time>2021-06-11T15:42:53Z</time>
      </trkpt>
      <trkpt lat="45.563" lon="0.57139">
        <ele>134</ele>
        <time>2021-06-11T15:43:05Z</time>
      </trkpt>
      <trkpt lat="45.56326" lon="0.5712">
        <ele>133</ele>
        <time>2021-06-11T15:43:10Z</time>
      </trkpt>
      <trkpt lat="45.56416" lon="0.57041">
        <ele>137</ele>
        <time>2021-06-11T15:43:29Z</time>
      </trkpt>
      <trkpt lat="45.56447" lon="0.57007">
        <ele>138</ele>
        <time>2021-06-11T15:43:36Z</time>
      </trkpt>
      <trkpt lat="45.56463" lon="0.56984">
        <ele>139</ele>
        <time>2021-06-11T15:43:40Z</time>
      </trkpt>
      <trkpt lat="45.56494" lon="0.56929">
        <ele>136</ele>
        <time>2021-06-11T15:43:48Z</time>
      </trkpt>
      <trkpt lat="45.56507" lon="0.56902">
        <ele>134</ele>
        <time>2021-06-11T15:43:52Z</time>
      </trkpt>
      <trkpt lat="45.56533" lon="0.56843">
        <ele>133</ele>
        <time>2021-06-11T15:44:01Z</time>
      </trkpt>
      <trkpt lat="45.56545" lon="0.56807">
        <ele>133</ele>
        <time>2021-06-11T15:44:06Z</time>
      </trkpt>
      <trkpt lat="45.56557" lon="0.56763">
        <ele>133</ele>
        <time>2021-06-11T15:44:12Z</time>
      </trkpt>
      <trkpt lat="45.56567" lon="0.56711">
        <ele>132</ele>
        <time>2021-06-11T15:44:19Z</time>
      </trkpt>
      <trkpt lat="45.56572" lon="0.56672">
        <ele>130</ele>
        <time>2021-06-11T15:44:24Z</time>
      </trkpt>
      <trkpt lat="45.56576" lon="0.5667">
        <ele>130</ele>
        <time>2021-06-11T15:44:24Z</time>
      </trkpt>
      <trkpt lat="45.5658" lon="0.56662">
        <ele>130</ele>
        <time>2021-06-11T15:44:26Z</time>
      </trkpt>
      <trkpt lat="45.56593" lon="0.56545">
        <ele>128</ele>
        <time>2021-06-11T15:44:40Z</time>
      </trkpt>
      <trkpt lat="45.566" lon="0.56515">
        <ele>127</ele>
        <time>2021-06-11T15:44:44Z</time>
      </trkpt>
      <trkpt lat="45.56611" lon="0.56496">
        <ele>127</ele>
        <time>2021-06-11T15:44:47Z</time>
      </trkpt>
      <trkpt lat="45.56643" lon="0.56469">
        <ele>127</ele>
        <time>2021-06-11T15:44:54Z</time>
      </trkpt>
      <trkpt lat="45.56666" lon="0.56457">
        <ele>127</ele>
        <time>2021-06-11T15:44:58Z</time>
      </trkpt>
      <trkpt lat="45.56674" lon="0.56448">
        <ele>126</ele>
        <time>2021-06-11T15:45:00Z</time>
      </trkpt>
      <trkpt lat="45.567" lon="0.5642">
        <ele>125</ele>
        <time>2021-06-11T15:45:06Z</time>
      </trkpt>
      <trkpt lat="45.56753" lon="0.56376">
        <ele>126</ele>
        <time>2021-06-11T15:45:17Z</time>
      </trkpt>
      <trkpt lat="45.56785" lon="0.56351">
        <ele>125</ele>
        <time>2021-06-11T15:45:23Z</time>
      </trkpt>
      <trkpt lat="45.56793" lon="0.56345">
        <ele>125</ele>
        <time>2021-06-11T15:45:25Z</time>
      </trkpt>
      <trkpt lat="45.56847" lon="0.56303">
        <ele>125</ele>
        <time>2021-06-11T15:45:36Z</time>
      </trkpt>
      <trkpt lat="45.56883" lon="0.56276">
        <ele>127</ele>
        <time>2021-06-11T15:45:43Z</time>
      </trkpt>
      <trkpt lat="45.56895" lon="0.56266">
        <ele>127</ele>
        <time>2021-06-11T15:45:46Z</time>
      </trkpt>
      <trkpt lat="45.56973" lon="0.56206">
        <ele>131</ele>
        <time>2021-06-11T15:46:01Z</time>
      </trkpt>
      <trkpt lat="45.5697" lon="0.56194">
        <ele>131</ele>
        <time>2021-06-11T15:46:03Z</time>
      </trkpt>
      <trkpt lat="45.57007" lon="0.56161">
        <ele>132</ele>
        <time>2021-06-11T15:46:11Z</time>
      </trkpt>
      <trkpt lat="45.57039" lon="0.56124">
        <ele>130</ele>
        <time>2021-06-11T15:46:18Z</time>
      </trkpt>
      <trkpt lat="45.57063" lon="0.5609">
        <ele>129</ele>
        <time>2021-06-11T15:46:24Z</time>
      </trkpt>
      <trkpt lat="45.57162" lon="0.55919">
        <ele>128</ele>
        <time>2021-06-11T15:46:52Z</time>
      </trkpt>
      <trkpt lat="45.57165" lon="0.55907">
        <ele>128</ele>
        <time>2021-06-11T15:46:53Z</time>
      </trkpt>
      <trkpt lat="45.57165" lon="0.55896">
        <ele>127</ele>
        <time>2021-06-11T15:46:55Z</time>
      </trkpt>
      <trkpt lat="45.57177" lon="0.55891">
        <ele>128</ele>
        <time>2021-06-11T15:46:57Z</time>
      </trkpt>
      <trkpt lat="45.57184" lon="0.55885">
        <ele>128</ele>
        <time>2021-06-11T15:46:58Z</time>
      </trkpt>
      <trkpt lat="45.57193" lon="0.55875">
        <ele>129</ele>
        <time>2021-06-11T15:47:00Z</time>
      </trkpt>
      <trkpt lat="45.57222" lon="0.55836">
        <ele>129</ele>
        <time>2021-06-11T15:47:07Z</time>
      </trkpt>
      <trkpt lat="45.57289" lon="0.55722">
        <ele>129</ele>
        <time>2021-06-11T15:47:26Z</time>
      </trkpt>
      <trkpt lat="45.57475" lon="0.55419">
        <ele>126</ele>
        <time>2021-06-11T15:48:16Z</time>
      </trkpt>
      <trkpt lat="45.5756" lon="0.55276">
        <ele>127</ele>
        <time>2021-06-11T15:48:40Z</time>
      </trkpt>
      <trkpt lat="45.5757" lon="0.55261">
        <ele>127</ele>
        <time>2021-06-11T15:48:42Z</time>
      </trkpt>
      <trkpt lat="45.5757" lon="0.55253">
        <ele>127</ele>
        <time>2021-06-11T15:48:43Z</time>
      </trkpt>
      <trkpt lat="45.57574" lon="0.55223">
        <ele>126</ele>
        <time>2021-06-11T15:48:47Z</time>
      </trkpt>
      <trkpt lat="45.57586" lon="0.55196">
        <ele>126</ele>
        <time>2021-06-11T15:48:51Z</time>
      </trkpt>
      <trkpt lat="45.57586" lon="0.5519">
        <ele>126</ele>
        <time>2021-06-11T15:48:52Z</time>
      </trkpt>
      <trkpt lat="45.57584" lon="0.55182">
        <ele>125</ele>
        <time>2021-06-11T15:48:53Z</time>
      </trkpt>
      <trkpt lat="45.57575" lon="0.55174">
        <ele>125</ele>
        <time>2021-06-11T15:48:55Z</time>
      </trkpt>
      <trkpt lat="45.5761" lon="0.55088">
        <ele>127</ele>
        <time>2021-06-11T15:49:07Z</time>
      </trkpt>
      <trkpt lat="45.57607" lon="0.55086">
        <ele>127</ele>
        <time>2021-06-11T15:49:08Z</time>
      </trkpt>
      <trkpt lat="45.57593" lon="0.55071">
        <ele>123</ele>
        <time>2021-06-11T15:49:11Z</time>
      </trkpt>
      <trkpt lat="45.57584" lon="0.55064">
        <ele>122</ele>
        <time>2021-06-11T15:49:13Z</time>
      </trkpt>
      <trkpt lat="45.5758" lon="0.55062">
        <ele>121</ele>
        <time>2021-06-11T15:49:13Z</time>
      </trkpt>
      <trkpt lat="45.57551" lon="0.55043">
        <ele>121</ele>
        <time>2021-06-11T15:49:19Z</time>
      </trkpt>
      <trkpt lat="45.57535" lon="0.55029">
        <ele>120</ele>
        <time>2021-06-11T15:49:22Z</time>
      </trkpt>
      <trkpt lat="45.5753" lon="0.55018">
        <ele>120</ele>
        <time>2021-06-11T15:49:24Z</time>
      </trkpt>
      <trkpt lat="45.57526" lon="0.55005">
        <ele>120</ele>
        <time>2021-06-11T15:49:26Z</time>
      </trkpt>
      <trkpt lat="45.57525" lon="0.54998">
        <ele>120</ele>
        <time>2021-06-11T15:49:27Z</time>
      </trkpt>
      <trkpt lat="45.57527" lon="0.54982">
        <ele>120</ele>
        <time>2021-06-11T15:49:29Z</time>
      </trkpt>
      <trkpt lat="45.57529" lon="0.54977">
        <ele>120</ele>
        <time>2021-06-11T15:49:29Z</time>
      </trkpt>
      <trkpt lat="45.57533" lon="0.54967">
        <ele>120</ele>
        <time>2021-06-11T15:49:31Z</time>
      </trkpt>
      <trkpt lat="45.57586" lon="0.54879">
        <ele>118</ele>
        <time>2021-06-11T15:49:45Z</time>
      </trkpt>
      <trkpt lat="45.57596" lon="0.54853">
        <ele>118</ele>
        <time>2021-06-11T15:49:49Z</time>
      </trkpt>
      <trkpt lat="45.57604" lon="0.54818">
        <ele>119</ele>
        <time>2021-06-11T15:49:53Z</time>
      </trkpt>
      <trkpt lat="45.57607" lon="0.54743">
        <ele>120</ele>
        <time>2021-06-11T15:50:03Z</time>
      </trkpt>
      <trkpt lat="45.57611" lon="0.54681">
        <ele>119</ele>
        <time>2021-06-11T15:50:11Z</time>
      </trkpt>
      <trkpt lat="45.57611" lon="0.5465">
        <ele>118</ele>
        <time>2021-06-11T15:50:14Z</time>
      </trkpt>
      <trkpt lat="45.57606" lon="0.54487">
        <ele>120</ele>
        <time>2021-06-11T15:50:35Z</time>
      </trkpt>
      <trkpt lat="45.5761" lon="0.54433">
        <ele>123</ele>
        <time>2021-06-11T15:50:42Z</time>
      </trkpt>
      <trkpt lat="45.57614" lon="0.54406">
        <ele>125</ele>
        <time>2021-06-11T15:50:45Z</time>
      </trkpt>
      <trkpt lat="45.57626" lon="0.54351">
        <ele>129</ele>
        <time>2021-06-11T15:50:52Z</time>
      </trkpt>
      <trkpt lat="45.57653" lon="0.54251">
        <ele>135</ele>
        <time>2021-06-11T15:51:06Z</time>
      </trkpt>
      <trkpt lat="45.57663" lon="0.54215">
        <ele>137</ele>
        <time>2021-06-11T15:51:10Z</time>
      </trkpt>
      <trkpt lat="45.57674" lon="0.54193">
        <ele>138</ele>
        <time>2021-06-11T15:51:14Z</time>
      </trkpt>
      <trkpt lat="45.57691" lon="0.54176">
        <ele>139</ele>
        <time>2021-06-11T15:51:17Z</time>
      </trkpt>
      <trkpt lat="45.57715" lon="0.54161">
        <ele>140</ele>
        <time>2021-06-11T15:51:22Z</time>
      </trkpt>
      <trkpt lat="45.57759" lon="0.54127">
        <ele>139</ele>
        <time>2021-06-11T15:51:31Z</time>
      </trkpt>
      <trkpt lat="45.57773" lon="0.54108">
        <ele>139</ele>
        <time>2021-06-11T15:51:34Z</time>
      </trkpt>
      <trkpt lat="45.57782" lon="0.54091">
        <ele>140</ele>
        <time>2021-06-11T15:51:37Z</time>
      </trkpt>
      <trkpt lat="45.57787" lon="0.54071">
        <ele>140</ele>
        <time>2021-06-11T15:51:40Z</time>
      </trkpt>
      <trkpt lat="45.57789" lon="0.54053">
        <ele>140</ele>
        <time>2021-06-11T15:51:42Z</time>
      </trkpt>
      <trkpt lat="45.57786" lon="0.54033">
        <ele>140</ele>
        <time>2021-06-11T15:51:45Z</time>
      </trkpt>
      <trkpt lat="45.57774" lon="0.54009">
        <ele>141</ele>
        <time>2021-06-11T15:51:48Z</time>
      </trkpt>
      <trkpt lat="45.57729" lon="0.53956">
        <ele>142</ele>
        <time>2021-06-11T15:51:59Z</time>
      </trkpt>
      <trkpt lat="45.57717" lon="0.53934">
        <ele>142</ele>
        <time>2021-06-11T15:52:02Z</time>
      </trkpt>
      <trkpt lat="45.57695" lon="0.53883">
        <ele>143</ele>
        <time>2021-06-11T15:52:09Z</time>
      </trkpt>
      <trkpt lat="45.57662" lon="0.538">
        <ele>146</ele>
        <time>2021-06-11T15:52:21Z</time>
      </trkpt>
      <trkpt lat="45.57652" lon="0.53779">
        <ele>146</ele>
        <time>2021-06-11T15:52:25Z</time>
      </trkpt>
      <trkpt lat="45.57645" lon="0.53764">
        <ele>147</ele>
        <time>2021-06-11T15:52:27Z</time>
      </trkpt>
      <trkpt lat="45.57642" lon="0.53759">
        <ele>147</ele>
        <time>2021-06-11T15:52:28Z</time>
      </trkpt>
      <trkpt lat="45.57629" lon="0.53744">
        <ele>147</ele>
        <time>2021-06-11T15:52:31Z</time>
      </trkpt>
      <trkpt lat="45.57617" lon="0.53733">
        <ele>148</ele>
        <time>2021-06-11T15:52:33Z</time>
      </trkpt>
      <trkpt lat="45.5761" lon="0.53725">
        <ele>148</ele>
        <time>2021-06-11T15:52:35Z</time>
      </trkpt>
      <trkpt lat="45.57442" lon="0.53573">
        <ele>155</ele>
        <time>2021-06-11T15:53:10Z</time>
      </trkpt>
      <trkpt lat="45.57364" lon="0.535">
        <ele>161</ele>
        <time>2021-06-11T15:53:27Z</time>
      </trkpt>
      <trkpt lat="45.57335" lon="0.53473">
        <ele>161</ele>
        <time>2021-06-11T15:53:33Z</time>
      </trkpt>
      <trkpt lat="45.57323" lon="0.53456">
        <ele>161</ele>
        <time>2021-06-11T15:53:36Z</time>
      </trkpt>
      <trkpt lat="45.57314" lon="0.53437">
        <ele>161</ele>
        <time>2021-06-11T15:53:39Z</time>
      </trkpt>
      <trkpt lat="45.57295" lon="0.53387">
        <ele>161</ele>
        <time>2021-06-11T15:53:46Z</time>
      </trkpt>
      <trkpt lat="45.57098" lon="0.52785">
        <ele>171</ele>
        <time>2021-06-11T15:55:09Z</time>
      </trkpt>
      <trkpt lat="45.57008" lon="0.52517">
        <ele>175</ele>
        <time>2021-06-11T15:55:46Z</time>
      </trkpt>
      <trkpt lat="45.57003" lon="0.52491">
        <ele>175</ele>
        <time>2021-06-11T15:55:49Z</time>
      </trkpt>
      <trkpt lat="45.57002" lon="0.52474">
        <ele>175</ele>
        <time>2021-06-11T15:55:51Z</time>
      </trkpt>
      <trkpt lat="45.57003" lon="0.52463">
        <ele>175</ele>
        <time>2021-06-11T15:55:52Z</time>
      </trkpt>
      <trkpt lat="45.5701" lon="0.52434">
        <ele>175</ele>
        <time>2021-06-11T15:55:56Z</time>
      </trkpt>
      <trkpt lat="45.57062" lon="0.52269">
        <ele>178</ele>
        <time>2021-06-11T15:56:19Z</time>
      </trkpt>
      <trkpt lat="45.57075" lon="0.52229">
        <ele>178</ele>
        <time>2021-06-11T15:56:24Z</time>
      </trkpt>
      <trkpt lat="45.57085" lon="0.52196">
        <ele>178</ele>
        <time>2021-06-11T15:56:29Z</time>
      </trkpt>
      <trkpt lat="45.57095" lon="0.52157">
        <ele>177</ele>
        <time>2021-06-11T15:56:34Z</time>
      </trkpt>
      <trkpt lat="45.57109" lon="0.52119">
        <ele>176</ele>
        <time>2021-06-11T15:56:39Z</time>
      </trkpt>
      <trkpt lat="45.57138" lon="0.52031">
        <ele>176</ele>
        <time>2021-06-11T15:56:51Z</time>
      </trkpt>
      <trkpt lat="45.57149" lon="0.5201">
        <ele>176</ele>
        <time>2021-06-11T15:56:55Z</time>
      </trkpt>
      <trkpt lat="45.57159" lon="0.51995">
        <ele>176</ele>
        <time>2021-06-11T15:56:57Z</time>
      </trkpt>
      <trkpt lat="45.57174" lon="0.5198">
        <ele>176</ele>
        <time>2021-06-11T15:57:01Z</time>
      </trkpt>
      <trkpt lat="45.57208" lon="0.51939">
        <ele>177</ele>
        <time>2021-06-11T15:57:08Z</time>
      </trkpt>
      <trkpt lat="45.57216" lon="0.51929">
        <ele>177</ele>
        <time>2021-06-11T15:57:10Z</time>
      </trkpt>
      <trkpt lat="45.57223" lon="0.51919">
        <ele>177</ele>
        <time>2021-06-11T15:57:12Z</time>
      </trkpt>
      <trkpt lat="45.57238" lon="0.51901">
        <ele>176</ele>
        <time>2021-06-11T15:57:16Z</time>
      </trkpt>
      <trkpt lat="45.57251" lon="0.51883">
        <ele>176</ele>
        <time>2021-06-11T15:57:19Z</time>
      </trkpt>
      <trkpt lat="45.5726" lon="0.51872">
        <ele>176</ele>
        <time>2021-06-11T15:57:21Z</time>
      </trkpt>
      <trkpt lat="45.57332" lon="0.51793">
        <ele>172</ele>
        <time>2021-06-11T15:57:37Z</time>
      </trkpt>
      <trkpt lat="45.57465" lon="0.51602">
        <ele>168</ele>
        <time>2021-06-11T15:58:11Z</time>
      </trkpt>
      <trkpt lat="45.57639" lon="0.51323">
        <ele>166</ele>
        <time>2021-06-11T15:58:57Z</time>
      </trkpt>
      <trkpt lat="45.57831" lon="0.51107">
        <ele>160</ele>
        <time>2021-06-11T15:59:41Z</time>
      </trkpt>
      <trkpt lat="45.57955" lon="0.50999">
        <ele>155</ele>
        <time>2021-06-11T16:00:06Z</time>
      </trkpt>
      <trkpt lat="45.58008" lon="0.50931">
        <ele>153</ele>
        <time>2021-06-11T16:00:19Z</time>
      </trkpt>
      <trkpt lat="45.58038" lon="0.5087">
        <ele>153</ele>
        <time>2021-06-11T16:00:28Z</time>
      </trkpt>
      <trkpt lat="45.58151" lon="0.50608">
        <ele>159</ele>
        <time>2021-06-11T16:01:07Z</time>
      </trkpt>
      <trkpt lat="45.58192" lon="0.50512">
        <ele>163</ele>
        <time>2021-06-11T16:01:21Z</time>
      </trkpt>
      <trkpt lat="45.58214" lon="0.50464">
        <ele>166</ele>
        <time>2021-06-11T16:01:28Z</time>
      </trkpt>
      <trkpt lat="45.58238" lon="0.50423">
        <ele>167</ele>
        <time>2021-06-11T16:01:35Z</time>
      </trkpt>
      <trkpt lat="45.58291" lon="0.50367">
        <ele>167</ele>
        <time>2021-06-11T16:01:46Z</time>
      </trkpt>
      <trkpt lat="45.58483" lon="0.50175">
        <ele>161</ele>
        <time>2021-06-11T16:02:28Z</time>
      </trkpt>
      <trkpt lat="45.58503" lon="0.50198">
        <ele>161</ele>
        <time>2021-06-11T16:02:33Z</time>
      </trkpt>
      <trkpt lat="45.58562" lon="0.50246">
        <ele>159</ele>
        <time>2021-06-11T16:02:45Z</time>
      </trkpt>
      <trkpt lat="45.58675" lon="0.50358">
        <ele>150</ele>
        <time>2021-06-11T16:03:09Z</time>
      </trkpt>
      <trkpt lat="45.58776" lon="0.50449">
        <ele>148</ele>
        <time>2021-06-11T16:03:30Z</time>
      </trkpt>
      <trkpt lat="45.58795" lon="0.50483">
        <ele>148</ele>
        <time>2021-06-11T16:03:36Z</time>
      </trkpt>
      <trkpt lat="45.58836" lon="0.50529">
        <ele>149</ele>
        <time>2021-06-11T16:03:45Z</time>
      </trkpt>
      <trkpt lat="45.58854" lon="0.50555">
        <ele>150</ele>
        <time>2021-06-11T16:03:50Z</time>
      </trkpt>
      <trkpt lat="45.58881" lon="0.5059">
        <ele>151</ele>
        <time>2021-06-11T16:03:56Z</time>
      </trkpt>
      <trkpt lat="45.58895" lon="0.50606">
        <ele>151</ele>
        <time>2021-06-11T16:03:59Z</time>
      </trkpt>
      <trkpt lat="45.58908" lon="0.50603">
        <ele>152</ele>
        <time>2021-06-11T16:04:02Z</time>
      </trkpt>
      <trkpt lat="45.58949" lon="0.50577">
        <ele>152</ele>
        <time>2021-06-11T16:04:10Z</time>
      </trkpt>
      <trkpt lat="45.58973" lon="0.50567">
        <ele>152</ele>
        <time>2021-06-11T16:04:14Z</time>
      </trkpt>
      <trkpt lat="45.59039" lon="0.50551">
        <ele>151</ele>
        <time>2021-06-11T16:04:26Z</time>
      </trkpt>
      <trkpt lat="45.59068" lon="0.50539">
        <ele>151</ele>
        <time>2021-06-11T16:04:31Z</time>
      </trkpt>
      <trkpt lat="45.5909" lon="0.50526">
        <ele>149</ele>
        <time>2021-06-11T16:04:36Z</time>
      </trkpt>
      <trkpt lat="45.59101" lon="0.50518">
        <ele>148</ele>
        <time>2021-06-11T16:04:38Z</time>
      </trkpt>
      <trkpt lat="45.59122" lon="0.50498">
        <ele>146</ele>
        <time>2021-06-11T16:04:42Z</time>
      </trkpt>
      <trkpt lat="45.5916" lon="0.50428">
        <ele>147</ele>
        <time>2021-06-11T16:04:53Z</time>
      </trkpt>
      <trkpt lat="45.59164" lon="0.50421">
        <ele>147</ele>
        <time>2021-06-11T16:04:54Z</time>
      </trkpt>
      <trkpt lat="45.59184" lon="0.50387">
        <ele>147</ele>
        <time>2021-06-11T16:05:00Z</time>
      </trkpt>
      <trkpt lat="45.59227" lon="0.5041">
        <ele>145</ele>
        <time>2021-06-11T16:05:08Z</time>
      </trkpt>
      <trkpt lat="45.59245" lon="0.50364">
        <ele>144</ele>
        <time>2021-06-11T16:05:15Z</time>
      </trkpt>
      <trkpt lat="45.59247" lon="0.50299">
        <ele>142</ele>
        <time>2021-06-11T16:05:23Z</time>
      </trkpt>
      <trkpt lat="45.59242" lon="0.50266">
        <ele>142</ele>
        <time>2021-06-11T16:05:27Z</time>
      </trkpt>
      <trkpt lat="45.59236" lon="0.50236">
        <ele>142</ele>
        <time>2021-06-11T16:05:31Z</time>
      </trkpt>
      <trkpt lat="45.59236" lon="0.50209">
        <ele>142</ele>
        <time>2021-06-11T16:05:34Z</time>
      </trkpt>
      <trkpt lat="45.59239" lon="0.50182">
        <ele>142</ele>
        <time>2021-06-11T16:05:38Z</time>
      </trkpt>
      <trkpt lat="45.59256" lon="0.50126">
        <ele>141</ele>
        <time>2021-06-11T16:05:45Z</time>
      </trkpt>
      <trkpt lat="45.59263" lon="0.50123">
        <ele>140</ele>
        <time>2021-06-11T16:05:47Z</time>
      </trkpt>
      <trkpt lat="45.59274" lon="0.50126">
        <ele>139</ele>
        <time>2021-06-11T16:05:49Z</time>
      </trkpt>
      <trkpt lat="45.59318" lon="0.50165">
        <ele>133</ele>
        <time>2021-06-11T16:05:58Z</time>
      </trkpt>
      <trkpt lat="45.59334" lon="0.50163">
        <ele>131</ele>
        <time>2021-06-11T16:06:01Z</time>
      </trkpt>
      <trkpt lat="45.59345" lon="0.50143">
        <ele>131</ele>
        <time>2021-06-11T16:06:04Z</time>
      </trkpt>
      <trkpt lat="45.5936" lon="0.50109">
        <ele>132</ele>
        <time>2021-06-11T16:06:09Z</time>
      </trkpt>
      <trkpt lat="45.59389" lon="0.50024">
        <ele>132</ele>
        <time>2021-06-11T16:06:21Z</time>
      </trkpt>
      <trkpt lat="45.59415" lon="0.49974">
        <ele>132</ele>
        <time>2021-06-11T16:06:28Z</time>
      </trkpt>
      <trkpt lat="45.59428" lon="0.49941">
        <ele>133</ele>
        <time>2021-06-11T16:06:33Z</time>
      </trkpt>
      <trkpt lat="45.59504" lon="0.49833">
        <ele>128</ele>
        <time>2021-06-11T16:06:52Z</time>
      </trkpt>
      <trkpt lat="45.5953" lon="0.49788">
        <ele>124</ele>
        <time>2021-06-11T16:06:59Z</time>
      </trkpt>
      <trkpt lat="45.59557" lon="0.49704">
        <ele>118</ele>
        <time>2021-06-11T16:07:11Z</time>
      </trkpt>
      <trkpt lat="45.59579" lon="0.49715">
        <ele>115</ele>
        <time>2021-06-11T16:07:15Z</time>
      </trkpt>
      <trkpt lat="45.59624" lon="0.49738">
        <ele>112</ele>
        <time>2021-06-11T16:07:24Z</time>
      </trkpt>
      <trkpt lat="45.59641" lon="0.49742">
        <ele>111</ele>
        <time>2021-06-11T16:07:27Z</time>
      </trkpt>
      <trkpt lat="45.5967" lon="0.49731">
        <ele>110</ele>
        <time>2021-06-11T16:07:32Z</time>
      </trkpt>
      <trkpt lat="45.59683" lon="0.49729">
        <ele>110</ele>
        <time>2021-06-11T16:07:34Z</time>
      </trkpt>
      <trkpt lat="45.59691" lon="0.49732">
        <ele>110</ele>
        <time>2021-06-11T16:07:36Z</time>
      </trkpt>
      <trkpt lat="45.59714" lon="0.49747">
        <ele>110</ele>
        <time>2021-06-11T16:07:40Z</time>
      </trkpt>
      <trkpt lat="45.59748" lon="0.49766">
        <ele>110</ele>
        <time>2021-06-11T16:07:47Z</time>
      </trkpt>
      <trkpt lat="45.5977" lon="0.49776">
        <ele>111</ele>
        <time>2021-06-11T16:07:51Z</time>
      </trkpt>
      <trkpt lat="45.59802" lon="0.49782">
        <ele>111</ele>
        <time>2021-06-11T16:07:57Z</time>
      </trkpt>
      <trkpt lat="45.59827" lon="0.4979">
        <ele>111</ele>
        <time>2021-06-11T16:08:01Z</time>
      </trkpt>
      <trkpt lat="45.59833" lon="0.49792">
        <ele>112</ele>
        <time>2021-06-11T16:08:02Z</time>
      </trkpt>
      <trkpt lat="45.59965" lon="0.49836">
        <ele>117</ele>
        <time>2021-06-11T16:08:26Z</time>
      </trkpt>
      <trkpt lat="45.60019" lon="0.49877">
        <ele>119</ele>
        <time>2021-06-11T16:08:37Z</time>
      </trkpt>
      <trkpt lat="45.6003" lon="0.49884">
        <ele>120</ele>
        <time>2021-06-11T16:08:39Z</time>
      </trkpt>
      <trkpt lat="45.60035" lon="0.49887">
        <ele>120</ele>
        <time>2021-06-11T16:08:40Z</time>
      </trkpt>
      <trkpt lat="45.60048" lon="0.49872">
        <ele>120</ele>
        <time>2021-06-11T16:08:43Z</time>
      </trkpt>
      <trkpt lat="45.60057" lon="0.49864">
        <ele>120</ele>
        <time>2021-06-11T16:08:45Z</time>
      </trkpt>
      <trkpt lat="45.60063" lon="0.49856">
        <ele>120</ele>
        <time>2021-06-11T16:08:47Z</time>
      </trkpt>
      <trkpt lat="45.6007" lon="0.4982">
        <ele>119</ele>
        <time>2021-06-11T16:08:51Z</time>
      </trkpt>
      <trkpt lat="45.60077" lon="0.49798">
        <ele>119</ele>
        <time>2021-06-11T16:08:54Z</time>
      </trkpt>
      <trkpt lat="45.60089" lon="0.49778">
        <ele>120</ele>
        <time>2021-06-11T16:08:58Z</time>
      </trkpt>
      <trkpt lat="45.60099" lon="0.49752">
        <ele>120</ele>
        <time>2021-06-11T16:09:01Z</time>
      </trkpt>
      <trkpt lat="45.60279" lon="0.49318">
        <ele>119</ele>
        <time>2021-06-11T16:10:04Z</time>
      </trkpt>
      <trkpt lat="45.60308" lon="0.49248">
        <ele>119</ele>
        <time>2021-06-11T16:10:14Z</time>
      </trkpt>
      <trkpt lat="45.6031" lon="0.49242">
        <ele>119</ele>
        <time>2021-06-11T16:10:15Z</time>
      </trkpt>
      <trkpt lat="45.604" lon="0.49024">
        <ele>116</ele>
        <time>2021-06-11T16:10:47Z</time>
      </trkpt>
      <trkpt lat="45.60429" lon="0.48941">
        <ele>114</ele>
        <time>2021-06-11T16:10:58Z</time>
      </trkpt>
      <trkpt lat="45.60462" lon="0.48823">
        <ele>116</ele>
        <time>2021-06-11T16:11:14Z</time>
      </trkpt>
      <trkpt lat="45.60525" lon="0.48521">
        <ele>114</ele>
        <time>2021-06-11T16:11:53Z</time>
      </trkpt>
      <trkpt lat="45.60533" lon="0.48479">
        <ele>113</ele>
        <time>2021-06-11T16:11:59Z</time>
      </trkpt>
      <trkpt lat="45.60607" lon="0.48109">
        <ele>116</ele>
        <time>2021-06-11T16:12:46Z</time>
      </trkpt>
      <trkpt lat="45.6063" lon="0.48001">
        <ele>112</ele>
        <time>2021-06-11T16:13:01Z</time>
      </trkpt>
      <trkpt lat="45.60645" lon="0.47941">
        <ele>110</ele>
        <time>2021-06-11T16:13:08Z</time>
      </trkpt>
      <trkpt lat="45.60647" lon="0.47935">
        <ele>110</ele>
        <time>2021-06-11T16:13:09Z</time>
      </trkpt>
      <trkpt lat="45.60655" lon="0.4791">
        <ele>109</ele>
        <time>2021-06-11T16:13:13Z</time>
      </trkpt>
      <trkpt lat="45.60666" lon="0.4788">
        <ele>110</ele>
        <time>2021-06-11T16:13:17Z</time>
      </trkpt>
      <trkpt lat="45.60682" lon="0.47836">
        <ele>111</ele>
        <time>2021-06-11T16:13:23Z</time>
      </trkpt>
      <trkpt lat="45.60687" lon="0.47823">
        <ele>111</ele>
        <time>2021-06-11T16:13:25Z</time>
      </trkpt>
      <trkpt lat="45.6069" lon="0.47809">
        <ele>112</ele>
        <time>2021-06-11T16:13:27Z</time>
      </trkpt>
      <trkpt lat="45.607" lon="0.47793">
        <ele>112</ele>
        <time>2021-06-11T16:13:29Z</time>
      </trkpt>
      <trkpt lat="45.60756" lon="0.47724">
        <ele>115</ele>
        <time>2021-06-11T16:13:43Z</time>
      </trkpt>
      <trkpt lat="45.6076" lon="0.47718">
        <ele>114</ele>
        <time>2021-06-11T16:13:44Z</time>
      </trkpt>
      <trkpt lat="45.60765" lon="0.4771">
        <ele>114</ele>
        <time>2021-06-11T16:13:45Z</time>
      </trkpt>
      <trkpt lat="45.60766" lon="0.47705">
        <ele>114</ele>
        <time>2021-06-11T16:13:46Z</time>
      </trkpt>
      <trkpt lat="45.60764" lon="0.47698">
        <ele>113</ele>
        <time>2021-06-11T16:13:47Z</time>
      </trkpt>
      <trkpt lat="45.60745" lon="0.47666">
        <ele>112</ele>
        <time>2021-06-11T16:13:52Z</time>
      </trkpt>
      <trkpt lat="45.60756" lon="0.4763">
        <ele>110</ele>
        <time>2021-06-11T16:13:57Z</time>
      </trkpt>
      <trkpt lat="45.60781" lon="0.4759">
        <ele>109</ele>
        <time>2021-06-11T16:14:03Z</time>
      </trkpt>
      <trkpt lat="45.60793" lon="0.47562">
        <ele>109</ele>
        <time>2021-06-11T16:14:07Z</time>
      </trkpt>
      <trkpt lat="45.60793" lon="0.47554">
        <ele>109</ele>
        <time>2021-06-11T16:14:08Z</time>
      </trkpt>
      <trkpt lat="45.60791" lon="0.47546">
        <ele>109</ele>
        <time>2021-06-11T16:14:09Z</time>
      </trkpt>
      <trkpt lat="45.60784" lon="0.47531">
        <ele>108</ele>
        <time>2021-06-11T16:14:12Z</time>
      </trkpt>
      <trkpt lat="45.60788" lon="0.47516">
        <ele>108</ele>
        <time>2021-06-11T16:14:14Z</time>
      </trkpt>
      <trkpt lat="45.60787" lon="0.4751">
        <ele>108</ele>
        <time>2021-06-11T16:14:14Z</time>
      </trkpt>
      <trkpt lat="45.60835" lon="0.47466">
        <ele>108</ele>
        <time>2021-06-11T16:14:25Z</time>
      </trkpt>
      <trkpt lat="45.6094" lon="0.47379">
        <ele>107</ele>
        <time>2021-06-11T16:14:46Z</time>
      </trkpt>
      <trkpt lat="45.60956" lon="0.47373">
        <ele>107</ele>
        <time>2021-06-11T16:14:49Z</time>
      </trkpt>
      <trkpt lat="45.60963" lon="0.47373">
        <ele>107</ele>
        <time>2021-06-11T16:14:50Z</time>
      </trkpt>
      <trkpt lat="45.60972" lon="0.47376">
        <ele>107</ele>
        <time>2021-06-11T16:14:52Z</time>
      </trkpt>
      <trkpt lat="45.60997" lon="0.47398">
        <ele>108</ele>
        <time>2021-06-11T16:14:57Z</time>
      </trkpt>
      <trkpt lat="45.61032" lon="0.47337">
        <ele>107</ele>
        <time>2021-06-11T16:15:07Z</time>
      </trkpt>
      <trkpt lat="45.61044" lon="0.47322">
        <ele>107</ele>
        <time>2021-06-11T16:15:10Z</time>
      </trkpt>
      <trkpt lat="45.61077" lon="0.47293">
        <ele>107</ele>
        <time>2021-06-11T16:15:17Z</time>
      </trkpt>
      <trkpt lat="45.61094" lon="0.47287">
        <ele>108</ele>
        <time>2021-06-11T16:15:20Z</time>
      </trkpt>
      <trkpt lat="45.61167" lon="0.47282">
        <ele>110</ele>
        <time>2021-06-11T16:15:33Z</time>
      </trkpt>
      <trkpt lat="45.61192" lon="0.47266">
        <ele>112</ele>
        <time>2021-06-11T16:15:38Z</time>
      </trkpt>
      <trkpt lat="45.61239" lon="0.47162">
        <ele>111</ele>
        <time>2021-06-11T16:15:53Z</time>
      </trkpt>
      <trkpt lat="45.61256" lon="0.4714">
        <ele>111</ele>
        <time>2021-06-11T16:15:57Z</time>
      </trkpt>
      <trkpt lat="45.6128" lon="0.47089">
        <ele>110</ele>
        <time>2021-06-11T16:16:05Z</time>
      </trkpt>
      <trkpt lat="45.61396" lon="0.46811">
        <ele>107</ele>
        <time>2021-06-11T16:16:45Z</time>
      </trkpt>
      <trkpt lat="45.6143" lon="0.46724">
        <ele>106</ele>
        <time>2021-06-11T16:16:58Z</time>
      </trkpt>
      <trkpt lat="45.61461" lon="0.46629">
        <ele>107</ele>
        <time>2021-06-11T16:17:11Z</time>
      </trkpt>
      <trkpt lat="45.61483" lon="0.46548">
        <ele>107</ele>
        <time>2021-06-11T16:17:21Z</time>
      </trkpt>
      <trkpt lat="45.6152" lon="0.46393">
        <ele>106</ele>
        <time>2021-06-11T16:17:42Z</time>
      </trkpt>
      <trkpt lat="45.61536" lon="0.46306">
        <ele>105</ele>
        <time>2021-06-11T16:17:53Z</time>
      </trkpt>
      <trkpt lat="45.61646" lon="0.4553">
        <ele>108</ele>
        <time>2021-06-11T16:19:32Z</time>
      </trkpt>
      <trkpt lat="45.61724" lon="0.4496">
        <ele>104</ele>
        <time>2021-06-11T16:20:44Z</time>
      </trkpt>
      <trkpt lat="45.61736" lon="0.44892">
        <ele>104</ele>
        <time>2021-06-11T16:20:53Z</time>
      </trkpt>
      <trkpt lat="45.61744" lon="0.44871">
        <ele>104</ele>
        <time>2021-06-11T16:20:56Z</time>
      </trkpt>
      <trkpt lat="45.61747" lon="0.44845">
        <ele>104</ele>
        <time>2021-06-11T16:20:59Z</time>
      </trkpt>
      <trkpt lat="45.61793" lon="0.44537">
        <ele>108</ele>
        <time>2021-06-11T16:21:38Z</time>
      </trkpt>
      <trkpt lat="45.61808" lon="0.44502">
        <ele>109</ele>
        <time>2021-06-11T16:21:43Z</time>
      </trkpt>
      <trkpt lat="45.61787" lon="0.44472">
        <ele>108</ele>
        <time>2021-06-11T16:21:48Z</time>
      </trkpt>
      <trkpt lat="45.61791" lon="0.44467">
        <ele>108</ele>
        <time>2021-06-11T16:21:49Z</time>
      </trkpt>
      <trkpt lat="45.61796" lon="0.44451">
        <ele>108</ele>
        <time>2021-06-11T16:21:52Z</time>
      </trkpt>
      <trkpt lat="45.61796" lon="0.44435">
        <ele>108</ele>
        <time>2021-06-11T16:21:54Z</time>
      </trkpt>
      <trkpt lat="45.61856" lon="0.44011">
        <ele>108</ele>
        <time>2021-06-11T16:22:47Z</time>
      </trkpt>
      <trkpt lat="45.6186" lon="0.43984">
        <ele>108</ele>
        <time>2021-06-11T16:22:51Z</time>
      </trkpt>
      <trkpt lat="45.61862" lon="0.4396">
        <ele>108</ele>
        <time>2021-06-11T16:22:54Z</time>
      </trkpt>
      <trkpt lat="45.61863" lon="0.43953">
        <ele>108</ele>
        <time>2021-06-11T16:22:55Z</time>
      </trkpt>
      <trkpt lat="45.61883" lon="0.43826">
        <ele>110</ele>
        <time>2021-06-11T16:23:11Z</time>
      </trkpt>
      <trkpt lat="45.61903" lon="0.43688">
        <ele>111</ele>
        <time>2021-06-11T16:23:28Z</time>
      </trkpt>
      <trkpt lat="45.61912" lon="0.43562">
        <ele>108</ele>
        <time>2021-06-11T16:23:44Z</time>
      </trkpt>
      <trkpt lat="45.61913" lon="0.43538">
        <ele>108</ele>
        <time>2021-06-11T16:23:47Z</time>
      </trkpt>
      <trkpt lat="45.61915" lon="0.43508">
        <ele>107</ele>
        <time>2021-06-11T16:23:51Z</time>
      </trkpt>
      <trkpt lat="45.61938" lon="0.43181">
        <ele>109</ele>
        <time>2021-06-11T16:24:32Z</time>
      </trkpt>
      <trkpt lat="45.61943" lon="0.43074">
        <ele>107</ele>
        <time>2021-06-11T16:24:45Z</time>
      </trkpt>
      <trkpt lat="45.61941" lon="0.42991">
        <ele>108</ele>
        <time>2021-06-11T16:24:56Z</time>
      </trkpt>
      <trkpt lat="45.61927" lon="0.42849">
        <ele>107</ele>
        <time>2021-06-11T16:25:13Z</time>
      </trkpt>
      <trkpt lat="45.61926" lon="0.42839">
        <ele>106</ele>
        <time>2021-06-11T16:25:15Z</time>
      </trkpt>
      <trkpt lat="45.61925" lon="0.42829">
        <ele>106</ele>
        <time>2021-06-11T16:25:16Z</time>
      </trkpt>
      <trkpt lat="45.61923" lon="0.42789">
        <ele>107</ele>
        <time>2021-06-11T16:25:21Z</time>
      </trkpt>
      <trkpt lat="45.61921" lon="0.42702">
        <ele>108</ele>
        <time>2021-06-11T16:25:32Z</time>
      </trkpt>
      <trkpt lat="45.61925" lon="0.42653">
        <ele>108</ele>
        <time>2021-06-11T16:25:38Z</time>
      </trkpt>
      <trkpt lat="45.61929" lon="0.42618">
        <ele>107</ele>
        <time>2021-06-11T16:25:42Z</time>
      </trkpt>
      <trkpt lat="45.61941" lon="0.42548">
        <ele>106</ele>
        <time>2021-06-11T16:25:51Z</time>
      </trkpt>
      <trkpt lat="45.62047" lon="0.42114">
        <ele>105</ele>
        <time>2021-06-11T16:26:48Z</time>
      </trkpt>
      <trkpt lat="45.62071" lon="0.4201">
        <ele>104</ele>
        <time>2021-06-11T16:27:02Z</time>
      </trkpt>
      <trkpt lat="45.62073" lon="0.42005">
        <ele>104</ele>
        <time>2021-06-11T16:27:03Z</time>
      </trkpt>
      <trkpt lat="45.62129" lon="0.41784">
        <ele>106</ele>
        <time>2021-06-11T16:27:32Z</time>
      </trkpt>
      <trkpt lat="45.62149" lon="0.41711">
        <ele>107</ele>
        <time>2021-06-11T16:27:42Z</time>
      </trkpt>
      <trkpt lat="45.6216" lon="0.4165">
        <ele>108</ele>
        <time>2021-06-11T16:27:50Z</time>
      </trkpt>
      <trkpt lat="45.62169" lon="0.41555">
        <ele>106</ele>
        <time>2021-06-11T16:28:02Z</time>
      </trkpt>
      <trkpt lat="45.6217" lon="0.41514">
        <ele>105</ele>
        <time>2021-06-11T16:28:07Z</time>
      </trkpt>
      <trkpt lat="45.6217" lon="0.41451">
        <ele>104</ele>
        <time>2021-06-11T16:28:15Z</time>
      </trkpt>
      <trkpt lat="45.62164" lon="0.41387">
        <ele>102</ele>
        <time>2021-06-11T16:28:23Z</time>
      </trkpt>
      <trkpt lat="45.62153" lon="0.41321">
        <ele>101</ele>
        <time>2021-06-11T16:28:31Z</time>
      </trkpt>
      <trkpt lat="45.62129" lon="0.41228">
        <ele>100</ele>
        <time>2021-06-11T16:28:43Z</time>
      </trkpt>
      <trkpt lat="45.62052" lon="0.40976">
        <ele>97</ele>
        <time>2021-06-11T16:29:18Z</time>
      </trkpt>
      <trkpt lat="45.62042" lon="0.40928">
        <ele>97</ele>
        <time>2021-06-11T16:29:24Z</time>
      </trkpt>
      <trkpt lat="45.62037" lon="0.40895">
        <ele>97</ele>
        <time>2021-06-11T16:29:28Z</time>
      </trkpt>
      <trkpt lat="45.6203" lon="0.40845">
        <ele>98</ele>
        <time>2021-06-11T16:29:34Z</time>
      </trkpt>
      <trkpt lat="45.62025" lon="0.40809">
        <ele>98</ele>
        <time>2021-06-11T16:29:39Z</time>
      </trkpt>
      <trkpt lat="45.62022" lon="0.40758">
        <ele>98</ele>
        <time>2021-06-11T16:29:45Z</time>
      </trkpt>
      <trkpt lat="45.62024" lon="0.40702">
        <ele>98</ele>
        <time>2021-06-11T16:29:52Z</time>
      </trkpt>
      <trkpt lat="45.62031" lon="0.40641">
        <ele>98</ele>
        <time>2021-06-11T16:30:00Z</time>
      </trkpt>
      <trkpt lat="45.62049" lon="0.40547">
        <ele>98</ele>
        <time>2021-06-11T16:30:12Z</time>
      </trkpt>
      <trkpt lat="45.62063" lon="0.40496">
        <ele>97</ele>
        <time>2021-06-11T16:30:19Z</time>
      </trkpt>
      <trkpt lat="45.62113" lon="0.40334">
        <ele>99</ele>
        <time>2021-06-11T16:30:41Z</time>
      </trkpt>
      <trkpt lat="45.62131" lon="0.40275">
        <ele>100</ele>
        <time>2021-06-11T16:30:49Z</time>
      </trkpt>
      <trkpt lat="45.62141" lon="0.40233">
        <ele>100</ele>
        <time>2021-06-11T16:30:54Z</time>
      </trkpt>
      <trkpt lat="45.62155" lon="0.4015">
        <ele>98</ele>
        <time>2021-06-11T16:31:05Z</time>
      </trkpt>
      <trkpt lat="45.62176" lon="0.39927">
        <ele>98</ele>
        <time>2021-06-11T16:31:33Z</time>
      </trkpt>
      <trkpt lat="45.62203" lon="0.39614">
        <ele>100</ele>
        <time>2021-06-11T16:32:12Z</time>
      </trkpt>
      <trkpt lat="45.62226" lon="0.39383">
        <ele>101</ele>
        <time>2021-06-11T16:32:41Z</time>
      </trkpt>
      <trkpt lat="45.62243" lon="0.39274">
        <ele>100</ele>
        <time>2021-06-11T16:32:55Z</time>
      </trkpt>
      <trkpt lat="45.62277" lon="0.39108">
        <ele>102</ele>
        <time>2021-06-11T16:33:17Z</time>
      </trkpt>
      <trkpt lat="45.62295" lon="0.39035">
        <ele>101</ele>
        <time>2021-06-11T16:33:26Z</time>
      </trkpt>
      <trkpt lat="45.62336" lon="0.389">
        <ele>96</ele>
        <time>2021-06-11T16:33:45Z</time>
      </trkpt>
      <trkpt lat="45.62379" lon="0.38782">
        <ele>95</ele>
        <time>2021-06-11T16:34:01Z</time>
      </trkpt>
      <trkpt lat="45.62422" lon="0.3868">
        <ele>95</ele>
        <time>2021-06-11T16:34:16Z</time>
      </trkpt>
      <trkpt lat="45.62472" lon="0.38573">
        <ele>96</ele>
        <time>2021-06-11T16:34:32Z</time>
      </trkpt>
      <trkpt lat="45.62517" lon="0.38491">
        <ele>99</ele>
        <time>2021-06-11T16:34:45Z</time>
      </trkpt>
      <trkpt lat="45.62667" lon="0.38235">
        <ele>101</ele>
        <time>2021-06-11T16:35:27Z</time>
      </trkpt>
      <trkpt lat="45.62757" lon="0.38091">
        <ele>95</ele>
        <time>2021-06-11T16:35:51Z</time>
      </trkpt>
      <trkpt lat="45.62883" lon="0.37876">
        <ele>98</ele>
        <time>2021-06-11T16:36:26Z</time>
      </trkpt>
      <trkpt lat="45.62972" lon="0.37733">
        <ele>94</ele>
        <time>2021-06-11T16:36:49Z</time>
      </trkpt>
      <trkpt lat="45.63237" lon="0.37283">
        <ele>99</ele>
        <time>2021-06-11T16:38:03Z</time>
      </trkpt>
      <trkpt lat="45.6329" lon="0.37214">
        <ele>99</ele>
        <time>2021-06-11T16:38:15Z</time>
      </trkpt>
      <trkpt lat="45.63345" lon="0.37161">
        <ele>99</ele>
        <time>2021-06-11T16:38:27Z</time>
      </trkpt>
      <trkpt lat="45.63377" lon="0.37139">
        <ele>100</ele>
        <time>2021-06-11T16:38:34Z</time>
      </trkpt>
      <trkpt lat="45.63442" lon="0.37101">
        <ele>102</ele>
        <time>2021-06-11T16:38:46Z</time>
      </trkpt>
      <trkpt lat="45.63522" lon="0.37051">
        <ele>102</ele>
        <time>2021-06-11T16:39:02Z</time>
      </trkpt>
      <trkpt lat="45.63562" lon="0.37021">
        <ele>100</ele>
        <time>2021-06-11T16:39:10Z</time>
      </trkpt>
      <trkpt lat="45.63607" lon="0.36978">
        <ele>99</ele>
        <time>2021-06-11T16:39:19Z</time>
      </trkpt>
      <trkpt lat="45.63677" lon="0.36889">
        <ele>95</ele>
        <time>2021-06-11T16:39:36Z</time>
      </trkpt>
      <trkpt lat="45.6379" lon="0.36724">
        <ele>95</ele>
        <time>2021-06-11T16:40:05Z</time>
      </trkpt>
      <trkpt lat="45.63842" lon="0.36643">
        <ele>93</ele>
        <time>2021-06-11T16:40:18Z</time>
      </trkpt>
      <trkpt lat="45.63908" lon="0.36552">
        <ele>96</ele>
        <time>2021-06-11T16:40:35Z</time>
      </trkpt>
      <trkpt lat="45.63951" lon="0.36498">
        <ele>96</ele>
        <time>2021-06-11T16:40:45Z</time>
      </trkpt>
      <trkpt lat="45.64057" lon="0.36381">
        <ele>91</ele>
        <time>2021-06-11T16:41:09Z</time>
      </trkpt>
      <trkpt lat="45.6413" lon="0.36305">
        <ele>91</ele>
        <time>2021-06-11T16:41:25Z</time>
      </trkpt>
      <trkpt lat="45.64311" lon="0.36111">
        <ele>92</ele>
        <time>2021-06-11T16:42:05Z</time>
      </trkpt>
      <trkpt lat="45.64367" lon="0.36049">
        <ele>93</ele>
        <time>2021-06-11T16:42:18Z</time>
      </trkpt>
      <trkpt lat="45.64431" lon="0.35985">
        <ele>95</ele>
        <time>2021-06-11T16:42:31Z</time>
      </trkpt>
      <trkpt lat="45.64454" lon="0.35957">
        <ele>94</ele>
        <time>2021-06-11T16:42:37Z</time>
      </trkpt>
      <trkpt lat="45.64692" lon="0.35694">
        <ele>95</ele>
        <time>2021-06-11T16:43:30Z</time>
      </trkpt>
      <trkpt lat="45.65284" lon="0.3506">
        <ele>100</ele>
        <time>2021-06-11T16:45:42Z</time>
      </trkpt>
      <trkpt lat="45.65293" lon="0.3505">
        <ele>100</ele>
        <time>2021-06-11T16:45:44Z</time>
      </trkpt>
      <trkpt lat="45.65331" lon="0.35009">
        <ele>101</ele>
        <time>2021-06-11T16:45:52Z</time>
      </trkpt>
      <trkpt lat="45.65353" lon="0.34986">
        <ele>101</ele>
        <time>2021-06-11T16:45:57Z</time>
      </trkpt>
      <trkpt lat="45.65465" lon="0.34866">
        <ele>105</ele>
        <time>2021-06-11T16:46:22Z</time>
      </trkpt>
      <trkpt lat="45.65602" lon="0.34731">
        <ele>104</ele>
        <time>2021-06-11T16:46:52Z</time>
      </trkpt>
      <trkpt lat="45.65605" lon="0.34727">
        <ele>104</ele>
        <time>2021-06-11T16:46:52Z</time>
      </trkpt>
      <trkpt lat="45.65714" lon="0.34619">
        <ele>104</ele>
        <time>2021-06-11T16:47:16Z</time>
      </trkpt>
      <trkpt lat="45.65953" lon="0.3438">
        <ele>105</ele>
        <time>2021-06-11T16:48:08Z</time>
      </trkpt>
      <trkpt lat="45.65976" lon="0.34354">
        <ele>107</ele>
        <time>2021-06-11T16:48:13Z</time>
      </trkpt>
      <trkpt lat="45.65987" lon="0.34338">
        <ele>108</ele>
        <time>2021-06-11T16:48:16Z</time>
      </trkpt>
      <trkpt lat="45.65991" lon="0.34332">
        <ele>109</ele>
        <time>2021-06-11T16:48:17Z</time>
      </trkpt>
      <trkpt lat="45.65995" lon="0.34326">
        <ele>109</ele>
        <time>2021-06-11T16:48:18Z</time>
      </trkpt>
      <trkpt lat="45.6602" lon="0.34296">
        <ele>109</ele>
        <time>2021-06-11T16:48:24Z</time>
      </trkpt>
      <trkpt lat="45.66046" lon="0.34256">
        <ele>110</ele>
        <time>2021-06-11T16:48:31Z</time>
      </trkpt>
      <trkpt lat="45.66072" lon="0.34214">
        <ele>111</ele>
        <time>2021-06-11T16:48:38Z</time>
      </trkpt>
      <trkpt lat="45.6612" lon="0.34109">
        <ele>112</ele>
        <time>2021-06-11T16:48:53Z</time>
      </trkpt>
      <trkpt lat="45.66138" lon="0.34061">
        <ele>112</ele>
        <time>2021-06-11T16:49:00Z</time>
      </trkpt>
      <trkpt lat="45.66146" lon="0.34025">
        <ele>112</ele>
        <time>2021-06-11T16:49:05Z</time>
      </trkpt>
      <trkpt lat="45.66158" lon="0.33969">
        <ele>111</ele>
        <time>2021-06-11T16:49:12Z</time>
      </trkpt>
      <trkpt lat="45.6617" lon="0.33894">
        <ele>111</ele>
        <time>2021-06-11T16:49:21Z</time>
      </trkpt>
      <trkpt lat="45.66175" lon="0.33829">
        <ele>112</ele>
        <time>2021-06-11T16:49:30Z</time>
      </trkpt>
      <trkpt lat="45.66176" lon="0.3375">
        <ele>114</ele>
        <time>2021-06-11T16:49:39Z</time>
      </trkpt>
      <trkpt lat="45.66169" lon="0.33426">
        <ele>116</ele>
        <time>2021-06-11T16:50:20Z</time>
      </trkpt>
      <trkpt lat="45.66168" lon="0.33253">
        <ele>114</ele>
        <time>2021-06-11T16:50:41Z</time>
      </trkpt>
      <trkpt lat="45.66171" lon="0.33198">
        <ele>114</ele>
        <time>2021-06-11T16:50:48Z</time>
      </trkpt>
      <trkpt lat="45.66177" lon="0.3315">
        <ele>114</ele>
        <time>2021-06-11T16:50:54Z</time>
      </trkpt>
      <trkpt lat="45.66193" lon="0.33068">
        <ele>114</ele>
        <time>2021-06-11T16:51:05Z</time>
      </trkpt>
      <trkpt lat="45.66203" lon="0.33026">
        <ele>113</ele>
        <time>2021-06-11T16:51:10Z</time>
      </trkpt>
      <trkpt lat="45.6622" lon="0.32976">
        <ele>112</ele>
        <time>2021-06-11T16:51:17Z</time>
      </trkpt>
      <trkpt lat="45.66245" lon="0.32914">
        <ele>110</ele>
        <time>2021-06-11T16:51:26Z</time>
      </trkpt>
      <trkpt lat="45.66248" lon="0.32908">
        <ele>110</ele>
        <time>2021-06-11T16:51:27Z</time>
      </trkpt>
      <trkpt lat="45.66251" lon="0.32903">
        <ele>110</ele>
        <time>2021-06-11T16:51:28Z</time>
      </trkpt>
      <trkpt lat="45.66285" lon="0.32846">
        <ele>108</ele>
        <time>2021-06-11T16:51:37Z</time>
      </trkpt>
      <trkpt lat="45.6631" lon="0.32811">
        <ele>107</ele>
        <time>2021-06-11T16:51:43Z</time>
      </trkpt>
      <trkpt lat="45.66341" lon="0.32771">
        <ele>108</ele>
        <time>2021-06-11T16:51:51Z</time>
      </trkpt>
      <trkpt lat="45.66404" lon="0.32713">
        <ele>106</ele>
        <time>2021-06-11T16:52:04Z</time>
      </trkpt>
      <trkpt lat="45.66439" lon="0.32689">
        <ele>106</ele>
        <time>2021-06-11T16:52:11Z</time>
      </trkpt>
      <trkpt lat="45.66474" lon="0.32669">
        <ele>106</ele>
        <time>2021-06-11T16:52:18Z</time>
      </trkpt>
      <trkpt lat="45.66513" lon="0.32653">
        <ele>106</ele>
        <time>2021-06-11T16:52:25Z</time>
      </trkpt>
      <trkpt lat="45.6656" lon="0.32639">
        <ele>105</ele>
        <time>2021-06-11T16:52:34Z</time>
      </trkpt>
      <trkpt lat="45.66651" lon="0.32618">
        <ele>106</ele>
        <time>2021-06-11T16:52:50Z</time>
      </trkpt>
      <trkpt lat="45.6666" lon="0.32617">
        <ele>106</ele>
        <time>2021-06-11T16:52:52Z</time>
      </trkpt>
      <trkpt lat="45.66667" lon="0.32615">
        <ele>107</ele>
        <time>2021-06-11T16:52:53Z</time>
      </trkpt>
      <trkpt lat="45.66713" lon="0.32604">
        <ele>108</ele>
        <time>2021-06-11T16:53:01Z</time>
      </trkpt>
      <trkpt lat="45.66796" lon="0.3258">
        <ele>110</ele>
        <time>2021-06-11T16:53:16Z</time>
      </trkpt>
      <trkpt lat="45.66834" lon="0.32561">
        <ele>111</ele>
        <time>2021-06-11T16:53:23Z</time>
      </trkpt>
      <trkpt lat="45.66884" lon="0.32527">
        <ele>109</ele>
        <time>2021-06-11T16:53:33Z</time>
      </trkpt>
      <trkpt lat="45.66913" lon="0.32501">
        <ele>108</ele>
        <time>2021-06-11T16:53:39Z</time>
      </trkpt>
      <trkpt lat="45.66943" lon="0.32469">
        <ele>107</ele>
        <time>2021-06-11T16:53:46Z</time>
      </trkpt>
      <trkpt lat="45.66971" lon="0.32436">
        <ele>107</ele>
        <time>2021-06-11T16:53:52Z</time>
      </trkpt>
      <trkpt lat="45.66989" lon="0.32411">
        <ele>106</ele>
        <time>2021-06-11T16:53:57Z</time>
      </trkpt>
      <trkpt lat="45.67018" lon="0.32357">
        <ele>107</ele>
        <time>2021-06-11T16:54:05Z</time>
      </trkpt>
      <trkpt lat="45.67041" lon="0.32299">
        <ele>107</ele>
        <time>2021-06-11T16:54:14Z</time>
      </trkpt>
      <trkpt lat="45.67046" lon="0.32288">
        <ele>107</ele>
        <time>2021-06-11T16:54:15Z</time>
      </trkpt>
      <trkpt lat="45.67059" lon="0.32269">
        <ele>107</ele>
        <time>2021-06-11T16:54:19Z</time>
      </trkpt>
      <trkpt lat="45.67066" lon="0.32251">
        <ele>107</ele>
        <time>2021-06-11T16:54:21Z</time>
      </trkpt>
      <trkpt lat="45.67077" lon="0.32217">
        <ele>106</ele>
        <time>2021-06-11T16:54:26Z</time>
      </trkpt>
      <trkpt lat="45.67089" lon="0.32171">
        <ele>104</ele>
        <time>2021-06-11T16:54:32Z</time>
      </trkpt>
      <trkpt lat="45.67095" lon="0.32132">
        <ele>104</ele>
        <time>2021-06-11T16:54:37Z</time>
      </trkpt>
      <trkpt lat="45.67099" lon="0.32112">
        <ele>104</ele>
        <time>2021-06-11T16:54:39Z</time>
      </trkpt>
      <trkpt lat="45.67104" lon="0.32079">
        <ele>104</ele>
        <time>2021-06-11T16:54:44Z</time>
      </trkpt>
      <trkpt lat="45.67111" lon="0.3201">
        <ele>105</ele>
        <time>2021-06-11T16:54:52Z</time>
      </trkpt>
      <trkpt lat="45.67113" lon="0.31978">
        <ele>106</ele>
        <time>2021-06-11T16:54:56Z</time>
      </trkpt>
      <trkpt lat="45.67112" lon="0.31949">
        <ele>107</ele>
        <time>2021-06-11T16:55:00Z</time>
      </trkpt>
      <trkpt lat="45.67112" lon="0.31945">
        <ele>107</ele>
        <time>2021-06-11T16:55:00Z</time>
      </trkpt>
      <trkpt lat="45.6711" lon="0.3192">
        <ele>108</ele>
        <time>2021-06-11T16:55:04Z</time>
      </trkpt>
      <trkpt lat="45.67104" lon="0.31858">
        <ele>109</ele>
        <time>2021-06-11T16:55:11Z</time>
      </trkpt>
      <trkpt lat="45.67111" lon="0.31836">
        <ele>109</ele>
        <time>2021-06-11T16:55:14Z</time>
      </trkpt>
      <trkpt lat="45.67115" lon="0.31831">
        <ele>109</ele>
        <time>2021-06-11T16:55:15Z</time>
      </trkpt>
      <trkpt lat="45.67116" lon="0.31809">
        <ele>109</ele>
        <time>2021-06-11T16:55:18Z</time>
      </trkpt>
      <trkpt lat="45.67123" lon="0.31788">
        <ele>109</ele>
        <time>2021-06-11T16:55:21Z</time>
      </trkpt>
      <trkpt lat="45.67127" lon="0.31769">
        <ele>109</ele>
        <time>2021-06-11T16:55:23Z</time>
      </trkpt>
      <trkpt lat="45.67132" lon="0.31711">
        <ele>109</ele>
        <time>2021-06-11T16:55:31Z</time>
      </trkpt>
      <trkpt lat="45.67139" lon="0.31686">
        <ele>109</ele>
        <time>2021-06-11T16:55:34Z</time>
      </trkpt>
      <trkpt lat="45.67141" lon="0.31655">
        <ele>109</ele>
        <time>2021-06-11T16:55:38Z</time>
      </trkpt>
      <trkpt lat="45.67141" lon="0.31652">
        <ele>109</ele>
        <time>2021-06-11T16:55:38Z</time>
      </trkpt>
      <trkpt lat="45.67142" lon="0.31619">
        <ele>110</ele>
        <time>2021-06-11T16:55:42Z</time>
      </trkpt>
      <trkpt lat="45.67139" lon="0.31574">
        <ele>110</ele>
        <time>2021-06-11T16:55:48Z</time>
      </trkpt>
      <trkpt lat="45.67137" lon="0.31565">
        <ele>110</ele>
        <time>2021-06-11T16:55:49Z</time>
      </trkpt>
      <trkpt lat="45.67135" lon="0.31553">
        <ele>110</ele>
        <time>2021-06-11T16:55:51Z</time>
      </trkpt>
      <trkpt lat="45.67132" lon="0.31542">
        <ele>110</ele>
        <time>2021-06-11T16:55:52Z</time>
      </trkpt>
      <trkpt lat="45.67115" lon="0.31493">
        <ele>110</ele>
        <time>2021-06-11T16:55:59Z</time>
      </trkpt>
      <trkpt lat="45.67109" lon="0.3148">
        <ele>110</ele>
        <time>2021-06-11T16:56:01Z</time>
      </trkpt>
      <trkpt lat="45.67106" lon="0.31475">
        <ele>110</ele>
        <time>2021-06-11T16:56:02Z</time>
      </trkpt>
      <trkpt lat="45.67084" lon="0.31437">
        <ele>109</ele>
        <time>2021-06-11T16:56:08Z</time>
      </trkpt>
      <trkpt lat="45.67079" lon="0.31424">
        <ele>109</ele>
        <time>2021-06-11T16:56:10Z</time>
      </trkpt>
      <trkpt lat="45.67076" lon="0.31413">
        <ele>109</ele>
        <time>2021-06-11T16:56:11Z</time>
      </trkpt>
      <trkpt lat="45.67062" lon="0.31362">
        <ele>110</ele>
        <time>2021-06-11T16:56:18Z</time>
      </trkpt>
      <trkpt lat="45.67054" lon="0.31321">
        <ele>111</ele>
        <time>2021-06-11T16:56:23Z</time>
      </trkpt>
      <trkpt lat="45.67027" lon="0.31173">
        <ele>110</ele>
        <time>2021-06-11T16:56:42Z</time>
      </trkpt>
      <trkpt lat="45.67025" lon="0.31131">
        <ele>111</ele>
        <time>2021-06-11T16:56:47Z</time>
      </trkpt>
      <trkpt lat="45.67029" lon="0.31014">
        <ele>112</ele>
        <time>2021-06-11T16:57:02Z</time>
      </trkpt>
      <trkpt lat="45.6702" lon="0.30949">
        <ele>114</ele>
        <time>2021-06-11T16:57:10Z</time>
      </trkpt>
      <trkpt lat="45.67018" lon="0.30942">
        <ele>114</ele>
        <time>2021-06-11T16:57:11Z</time>
      </trkpt>
      <trkpt lat="45.67013" lon="0.30936">
        <ele>114</ele>
        <time>2021-06-11T16:57:12Z</time>
      </trkpt>
      <trkpt lat="45.67009" lon="0.30932">
        <ele>114</ele>
        <time>2021-06-11T16:57:13Z</time>
      </trkpt>
      <trkpt lat="45.67" lon="0.30921">
        <ele>115</ele>
        <time>2021-06-11T16:57:15Z</time>
      </trkpt>
      <trkpt lat="45.66996" lon="0.30911">
        <ele>115</ele>
        <time>2021-06-11T16:57:17Z</time>
      </trkpt>
      <trkpt lat="45.66988" lon="0.30883">
        <ele>116</ele>
        <time>2021-06-11T16:57:21Z</time>
      </trkpt>
      <trkpt lat="45.66986" lon="0.3087">
        <ele>116</ele>
        <time>2021-06-11T16:57:22Z</time>
      </trkpt>
      <trkpt lat="45.66991" lon="0.30709">
        <ele>121</ele>
        <time>2021-06-11T16:57:42Z</time>
      </trkpt>
      <trkpt lat="45.6699" lon="0.30682">
        <ele>122</ele>
        <time>2021-06-11T16:57:46Z</time>
      </trkpt>
      <trkpt lat="45.66985" lon="0.30645">
        <ele>122</ele>
        <time>2021-06-11T16:57:50Z</time>
      </trkpt>
      <trkpt lat="45.66985" lon="0.30624">
        <ele>123</ele>
        <time>2021-06-11T16:57:53Z</time>
      </trkpt>
      <trkpt lat="45.6699" lon="0.30581">
        <ele>123</ele>
        <time>2021-06-11T16:57:58Z</time>
      </trkpt>
      <trkpt lat="45.66993" lon="0.3055">
        <ele>124</ele>
        <time>2021-06-11T16:58:02Z</time>
      </trkpt>
      <trkpt lat="45.6699" lon="0.30501">
        <ele>126</ele>
        <time>2021-06-11T16:58:08Z</time>
      </trkpt>
      <trkpt lat="45.66984" lon="0.30472">
        <ele>126</ele>
        <time>2021-06-11T16:58:12Z</time>
      </trkpt>
      <trkpt lat="45.66976" lon="0.30442">
        <ele>127</ele>
        <time>2021-06-11T16:58:16Z</time>
      </trkpt>
      <trkpt lat="45.66968" lon="0.30425">
        <ele>127</ele>
        <time>2021-06-11T16:58:19Z</time>
      </trkpt>
      <trkpt lat="45.66962" lon="0.30404">
        <ele>127</ele>
        <time>2021-06-11T16:58:21Z</time>
      </trkpt>
      <trkpt lat="45.66938" lon="0.30277">
        <ele>126</ele>
        <time>2021-06-11T16:58:38Z</time>
      </trkpt>
      <trkpt lat="45.66932" lon="0.30248">
        <ele>126</ele>
        <time>2021-06-11T16:58:42Z</time>
      </trkpt>
      <trkpt lat="45.6693" lon="0.30239">
        <ele>127</ele>
        <time>2021-06-11T16:58:43Z</time>
      </trkpt>
      <trkpt lat="45.66932" lon="0.30225">
        <ele>127</ele>
        <time>2021-06-11T16:58:45Z</time>
      </trkpt>
      <trkpt lat="45.66938" lon="0.30147">
        <ele>130</ele>
        <time>2021-06-11T16:58:54Z</time>
      </trkpt>
      <trkpt lat="45.66928" lon="0.30144">
        <ele>130</ele>
        <time>2021-06-11T16:58:56Z</time>
      </trkpt>
      <trkpt lat="45.66918" lon="0.30145">
        <ele>130</ele>
        <time>2021-06-11T16:58:58Z</time>
      </trkpt>
      <trkpt lat="45.66895" lon="0.30152">
        <ele>129</ele>
        <time>2021-06-11T16:59:02Z</time>
      </trkpt>
      <trkpt lat="45.66887" lon="0.30152">
        <ele>129</ele>
        <time>2021-06-11T16:59:03Z</time>
      </trkpt>
      <trkpt lat="45.66874" lon="0.30144">
        <ele>129</ele>
        <time>2021-06-11T16:59:06Z</time>
      </trkpt>
      <trkpt lat="45.66857" lon="0.30125">
        <ele>128</ele>
        <time>2021-06-11T16:59:10Z</time>
      </trkpt>
      <trkpt lat="45.66846" lon="0.30118">
        <ele>128</ele>
        <time>2021-06-11T16:59:12Z</time>
      </trkpt>
      <trkpt lat="45.66813" lon="0.30081">
        <ele>128</ele>
        <time>2021-06-11T16:59:19Z</time>
      </trkpt>
      <trkpt lat="45.66653" lon="0.29914">
        <ele>136</ele>
        <time>2021-06-11T16:59:55Z</time>
      </trkpt>
      <trkpt lat="45.66656" lon="0.29891">
        <ele>136</ele>
        <time>2021-06-11T16:59:58Z</time>
      </trkpt>
      <trkpt lat="45.66675" lon="0.29818">
        <ele>136</ele>
        <time>2021-06-11T17:00:07Z</time>
      </trkpt>
      <trkpt lat="45.66663" lon="0.29812">
        <ele>136</ele>
        <time>2021-06-11T17:00:10Z</time>
      </trkpt>
      <trkpt lat="45.66662" lon="0.29809">
        <ele>136</ele>
        <time>2021-06-11T17:00:10Z</time>
      </trkpt>
      <trkpt lat="45.66669" lon="0.29786">
        <ele>136</ele>
        <time>2021-06-11T17:00:13Z</time>
      </trkpt>
      <trkpt lat="45.66672" lon="0.29767">
        <ele>136</ele>
        <time>2021-06-11T17:00:15Z</time>
      </trkpt>
      <trkpt lat="45.66678" lon="0.29744">
        <ele>136</ele>
        <time>2021-06-11T17:00:19Z</time>
      </trkpt>
      <trkpt lat="45.66682" lon="0.29736">
        <ele>136</ele>
        <time>2021-06-11T17:00:20Z</time>
      </trkpt>
      <trkpt lat="45.66681" lon="0.29732">
        <ele>136</ele>
        <time>2021-06-11T17:00:20Z</time>
      </trkpt>
      <trkpt lat="45.66682" lon="0.29703">
        <ele>136</ele>
        <time>2021-06-11T17:00:24Z</time>
      </trkpt>
      <trkpt lat="45.66709" lon="0.29544">
        <ele>135</ele>
        <time>2021-06-11T17:00:44Z</time>
      </trkpt>
      <trkpt lat="45.66716" lon="0.29478">
        <ele>133</ele>
        <time>2021-06-11T17:00:53Z</time>
      </trkpt>
      <trkpt lat="45.66716" lon="0.29426">
        <ele>132</ele>
        <time>2021-06-11T17:00:59Z</time>
      </trkpt>
      <trkpt lat="45.66704" lon="0.29136">
        <ele>135</ele>
        <time>2021-06-11T17:01:35Z</time>
      </trkpt>
      <trkpt lat="45.66698" lon="0.29032">
        <ele>138</ele>
        <time>2021-06-11T17:01:48Z</time>
      </trkpt>
      <trkpt lat="45.66697" lon="0.28994">
        <ele>139</ele>
        <time>2021-06-11T17:01:53Z</time>
      </trkpt>
      <trkpt lat="45.66691" lon="0.28913">
        <ele>143</ele>
        <time>2021-06-11T17:02:03Z</time>
      </trkpt>
      <trkpt lat="45.66686" lon="0.28858">
        <ele>143</ele>
        <time>2021-06-11T17:02:10Z</time>
      </trkpt>
      <trkpt lat="45.66672" lon="0.2878">
        <ele>146</ele>
        <time>2021-06-11T17:02:20Z</time>
      </trkpt>
      <trkpt lat="45.66585" lon="0.28368">
        <ele>155</ele>
        <time>2021-06-11T17:03:13Z</time>
      </trkpt>
      <trkpt lat="45.66525" lon="0.2809">
        <ele>158</ele>
        <time>2021-06-11T17:03:50Z</time>
      </trkpt>
      <trkpt lat="45.66429" lon="0.27682">
        <ele>146</ele>
        <time>2021-06-11T17:04:43Z</time>
      </trkpt>
      <trkpt lat="45.66426" lon="0.2766">
        <ele>146</ele>
        <time>2021-06-11T17:04:46Z</time>
      </trkpt>
      <trkpt lat="45.66425" lon="0.27618">
        <ele>145</ele>
        <time>2021-06-11T17:04:51Z</time>
      </trkpt>
      <trkpt lat="45.66428" lon="0.27576">
        <ele>144</ele>
        <time>2021-06-11T17:04:56Z</time>
      </trkpt>
      <trkpt lat="45.6644" lon="0.2752">
        <ele>142</ele>
        <time>2021-06-11T17:05:04Z</time>
      </trkpt>
      <trkpt lat="45.66474" lon="0.27413">
        <ele>138</ele>
        <time>2021-06-11T17:05:18Z</time>
      </trkpt>
      <trkpt lat="45.66481" lon="0.27384">
        <ele>138</ele>
        <time>2021-06-11T17:05:22Z</time>
      </trkpt>
      <trkpt lat="45.66483" lon="0.27369">
        <ele>137</ele>
        <time>2021-06-11T17:05:24Z</time>
      </trkpt>
      <trkpt lat="45.66478" lon="0.27318">
        <ele>135</ele>
        <time>2021-06-11T17:05:30Z</time>
      </trkpt>
      <trkpt lat="45.66473" lon="0.273">
        <ele>134</ele>
        <time>2021-06-11T17:05:33Z</time>
      </trkpt>
      <trkpt lat="45.66299" lon="0.26801">
        <ele>107</ele>
        <time>2021-06-11T17:06:42Z</time>
      </trkpt>
      <trkpt lat="45.66289" lon="0.26775">
        <ele>106</ele>
        <time>2021-06-11T17:06:46Z</time>
      </trkpt>
      <trkpt lat="45.66259" lon="0.26719">
        <ele>104</ele>
        <time>2021-06-11T17:06:55Z</time>
      </trkpt>
      <trkpt lat="45.66238" lon="0.2667">
        <ele>102</ele>
        <time>2021-06-11T17:07:02Z</time>
      </trkpt>
      <trkpt lat="45.66226" lon="0.26629">
        <ele>99</ele>
        <time>2021-06-11T17:07:07Z</time>
      </trkpt>
      <trkpt lat="45.66217" lon="0.26593">
        <ele>98</ele>
        <time>2021-06-11T17:07:12Z</time>
      </trkpt>
      <trkpt lat="45.66215" lon="0.26577">
        <ele>97</ele>
        <time>2021-06-11T17:07:14Z</time>
      </trkpt>
      <trkpt lat="45.66214" lon="0.26513">
        <ele>93</ele>
        <time>2021-06-11T17:07:22Z</time>
      </trkpt>
      <trkpt lat="45.6622" lon="0.26469">
        <ele>91</ele>
        <time>2021-06-11T17:07:28Z</time>
      </trkpt>
      <trkpt lat="45.66228" lon="0.26424">
        <ele>89</ele>
        <time>2021-06-11T17:07:33Z</time>
      </trkpt>
      <trkpt lat="45.66238" lon="0.264">
        <ele>89</ele>
        <time>2021-06-11T17:07:37Z</time>
      </trkpt>
      <trkpt lat="45.66252" lon="0.26379">
        <ele>89</ele>
        <time>2021-06-11T17:07:40Z</time>
      </trkpt>
      <trkpt lat="45.66275" lon="0.26357">
        <ele>87</ele>
        <time>2021-06-11T17:07:45Z</time>
      </trkpt>
      <trkpt lat="45.66284" lon="0.26344">
        <ele>87</ele>
        <time>2021-06-11T17:07:48Z</time>
      </trkpt>
      <trkpt lat="45.66292" lon="0.26323">
        <ele>85</ele>
        <time>2021-06-11T17:07:51Z</time>
      </trkpt>
      <trkpt lat="45.66293" lon="0.26308">
        <ele>84</ele>
        <time>2021-06-11T17:07:52Z</time>
      </trkpt>
      <trkpt lat="45.66292" lon="0.26292">
        <ele>83</ele>
        <time>2021-06-11T17:07:54Z</time>
      </trkpt>
      <trkpt lat="45.66289" lon="0.26278">
        <ele>82</ele>
        <time>2021-06-11T17:07:56Z</time>
      </trkpt>
      <trkpt lat="45.66281" lon="0.26261">
        <ele>81</ele>
        <time>2021-06-11T17:07:59Z</time>
      </trkpt>
      <trkpt lat="45.66254" lon="0.26243">
        <ele>80</ele>
        <time>2021-06-11T17:08:04Z</time>
      </trkpt>
      <trkpt lat="45.66242" lon="0.26231">
        <ele>78</ele>
        <time>2021-06-11T17:08:07Z</time>
      </trkpt>
      <trkpt lat="45.66236" lon="0.26223">
        <ele>78</ele>
        <time>2021-06-11T17:08:08Z</time>
      </trkpt>
      <trkpt lat="45.66229" lon="0.26206">
        <ele>76</ele>
        <time>2021-06-11T17:08:11Z</time>
      </trkpt>
      <trkpt lat="45.66221" lon="0.26169">
        <ele>74</ele>
        <time>2021-06-11T17:08:15Z</time>
      </trkpt>
      <trkpt lat="45.66209" lon="0.2613">
        <ele>73</ele>
        <time>2021-06-11T17:08:21Z</time>
      </trkpt>
      <trkpt lat="45.66192" lon="0.2609">
        <ele>71</ele>
        <time>2021-06-11T17:08:27Z</time>
      </trkpt>
      <trkpt lat="45.66186" lon="0.26078">
        <ele>71</ele>
        <time>2021-06-11T17:08:28Z</time>
      </trkpt>
      <trkpt lat="45.66118" lon="0.25978">
        <ele>64</ele>
        <time>2021-06-11T17:08:46Z</time>
      </trkpt>
      <trkpt lat="45.66113" lon="0.25968">
        <ele>64</ele>
        <time>2021-06-11T17:08:47Z</time>
      </trkpt>
      <trkpt lat="45.66112" lon="0.25958">
        <ele>63</ele>
        <time>2021-06-11T17:08:49Z</time>
      </trkpt>
      <trkpt lat="45.66113" lon="0.25949">
        <ele>62</ele>
        <time>2021-06-11T17:08:50Z</time>
      </trkpt>
      <trkpt lat="45.66121" lon="0.25928">
        <ele>61</ele>
        <time>2021-06-11T17:08:53Z</time>
      </trkpt>
      <trkpt lat="45.6612" lon="0.25902">
        <ele>60</ele>
        <time>2021-06-11T17:08:56Z</time>
      </trkpt>
      <trkpt lat="45.66074" lon="0.259">
        <ele>58</ele>
        <time>2021-06-11T17:09:04Z</time>
      </trkpt>
      <trkpt lat="45.66074" lon="0.25896">
        <ele>57</ele>
        <time>2021-06-11T17:09:05Z</time>
      </trkpt>
      <trkpt lat="45.66071" lon="0.25882">
        <ele>57</ele>
        <time>2021-06-11T17:09:06Z</time>
      </trkpt>
      <trkpt lat="45.66069" lon="0.25873">
        <ele>56</ele>
        <time>2021-06-11T17:09:08Z</time>
      </trkpt>
      <trkpt lat="45.66069" lon="0.25863">
        <ele>55</ele>
        <time>2021-06-11T17:09:09Z</time>
      </trkpt>
      <trkpt lat="45.66071" lon="0.25853">
        <ele>55</ele>
        <time>2021-06-11T17:09:10Z</time>
      </trkpt>
      <trkpt lat="45.66076" lon="0.25834">
        <ele>54</ele>
        <time>2021-06-11T17:09:13Z</time>
      </trkpt>
      <trkpt lat="45.66076" lon="0.25821">
        <ele>54</ele>
        <time>2021-06-11T17:09:14Z</time>
      </trkpt>
      <trkpt lat="45.66057" lon="0.25759">
        <ele>52</ele>
        <time>2021-06-11T17:09:23Z</time>
      </trkpt>
      <trkpt lat="45.66054" lon="0.25748">
        <ele>52</ele>
        <time>2021-06-11T17:09:24Z</time>
      </trkpt>
      <trkpt lat="45.66053" lon="0.25746">
        <ele>52</ele>
        <time>2021-06-11T17:09:24Z</time>
      </trkpt>
      <trkpt lat="45.6605" lon="0.25734">
        <ele>51</ele>
        <time>2021-06-11T17:09:26Z</time>
      </trkpt>
      <trkpt lat="45.66019" lon="0.25635">
        <ele>49</ele>
        <time>2021-06-11T17:09:40Z</time>
      </trkpt>
      <trkpt lat="45.65995" lon="0.25554">
        <ele>49</ele>
        <time>2021-06-11T17:09:50Z</time>
      </trkpt>
      <trkpt lat="45.65984" lon="0.25557">
        <ele>49</ele>
        <time>2021-06-11T17:09:52Z</time>
      </trkpt>
      <trkpt lat="45.65933" lon="0.25593">
        <ele>50</ele>
        <time>2021-06-11T17:10:03Z</time>
      </trkpt>
      <trkpt lat="45.65896" lon="0.25471">
        <ele>48</ele>
        <time>2021-06-11T17:10:19Z</time>
      </trkpt>
      <trkpt lat="45.65897" lon="0.25458">
        <ele>48</ele>
        <time>2021-06-11T17:10:21Z</time>
      </trkpt>
      <trkpt lat="45.65907" lon="0.25455">
        <ele>48</ele>
        <time>2021-06-11T17:10:23Z</time>
      </trkpt>
      <trkpt lat="45.65923" lon="0.25443">
        <ele>48</ele>
        <time>2021-06-11T17:10:26Z</time>
      </trkpt>
      <trkpt lat="45.65934" lon="0.25419">
        <ele>48</ele>
        <time>2021-06-11T17:10:29Z</time>
      </trkpt>
      <trkpt lat="45.65943" lon="0.25411">
        <ele>48</ele>
        <time>2021-06-11T17:10:31Z</time>
      </trkpt>
      <trkpt lat="45.65948" lon="0.25414">
        <ele>48</ele>
        <time>2021-06-11T17:10:32Z</time>
      </trkpt>
      <trkpt lat="45.6595" lon="0.25411">
        <ele>48</ele>
        <time>2021-06-11T17:10:33Z</time>
      </trkpt>
      <trkpt lat="45.6595" lon="0.25405">
        <ele>49</ele>
        <time>2021-06-11T17:10:33Z</time>
      </trkpt>
      <trkpt lat="45.66006" lon="0.25359">
        <ele>49</ele>
        <time>2021-06-11T17:10:45Z</time>
      </trkpt>
      <trkpt lat="45.66019" lon="0.25346">
        <ele>49</ele>
        <time>2021-06-11T17:10:48Z</time>
      </trkpt>
      <trkpt lat="45.66021" lon="0.25334">
        <ele>49</ele>
        <time>2021-06-11T17:10:49Z</time>
      </trkpt>
      <trkpt lat="45.6602" lon="0.25328">
        <ele>49</ele>
        <time>2021-06-11T17:10:50Z</time>
      </trkpt>
      <trkpt lat="45.65995" lon="0.25287">
        <ele>50</ele>
        <time>2021-06-11T17:10:57Z</time>
      </trkpt>
      <trkpt lat="45.65961" lon="0.25209">
        <ele>48</ele>
        <time>2021-06-11T17:11:08Z</time>
      </trkpt>
      <trkpt lat="45.65951" lon="0.25173">
        <ele>48</ele>
        <time>2021-06-11T17:11:13Z</time>
      </trkpt>
      <trkpt lat="45.6593" lon="0.25052">
        <ele>49</ele>
        <time>2021-06-11T17:11:29Z</time>
      </trkpt>
      <trkpt lat="45.65925" lon="0.25015">
        <ele>49</ele>
        <time>2021-06-11T17:11:33Z</time>
      </trkpt>
      <trkpt lat="45.65922" lon="0.24954">
        <ele>49</ele>
        <time>2021-06-11T17:11:41Z</time>
      </trkpt>
      <trkpt lat="45.65921" lon="0.24892">
        <ele>49</ele>
        <time>2021-06-11T17:11:49Z</time>
      </trkpt>
      <trkpt lat="45.65926" lon="0.24829">
        <ele>50</ele>
        <time>2021-06-11T17:11:56Z</time>
      </trkpt>
      <trkpt lat="45.65933" lon="0.24768">
        <ele>50</ele>
        <time>2021-06-11T17:12:04Z</time>
      </trkpt>
      <trkpt lat="45.65945" lon="0.24708">
        <ele>50</ele>
        <time>2021-06-11T17:12:12Z</time>
      </trkpt>
      <trkpt lat="45.65987" lon="0.24571">
        <ele>49</ele>
        <time>2021-06-11T17:12:31Z</time>
      </trkpt>
      <trkpt lat="45.66003" lon="0.24531">
        <ele>50</ele>
        <time>2021-06-11T17:12:36Z</time>
      </trkpt>
      <trkpt lat="45.66031" lon="0.24476">
        <ele>52</ele>
        <time>2021-06-11T17:12:45Z</time>
      </trkpt>
      <trkpt lat="45.6604" lon="0.24459">
        <ele>52</ele>
        <time>2021-06-11T17:12:47Z</time>
      </trkpt>
      <trkpt lat="45.66064" lon="0.24427">
        <ele>54</ele>
        <time>2021-06-11T17:12:53Z</time>
      </trkpt>
      <trkpt lat="45.66067" lon="0.24416">
        <ele>54</ele>
        <time>2021-06-11T17:12:55Z</time>
      </trkpt>
      <trkpt lat="45.66066" lon="0.24403">
        <ele>55</ele>
        <time>2021-06-11T17:12:56Z</time>
      </trkpt>
      <trkpt lat="45.66054" lon="0.24407">
        <ele>55</ele>
        <time>2021-06-11T17:12:59Z</time>
      </trkpt>
      <trkpt lat="45.66043" lon="0.24407">
        <ele>55</ele>
        <time>2021-06-11T17:13:00Z</time>
      </trkpt>
      <trkpt lat="45.66037" lon="0.24378">
        <ele>57</ele>
        <time>2021-06-11T17:13:04Z</time>
      </trkpt>
      <trkpt lat="45.66078" lon="0.24323">
        <ele>57</ele>
        <time>2021-06-11T17:13:14Z</time>
      </trkpt>
      <trkpt lat="45.66137" lon="0.24212">
        <ele>55</ele>
        <time>2021-06-11T17:13:32Z</time>
      </trkpt>
      <trkpt lat="45.66165" lon="0.24135">
        <ele>55</ele>
        <time>2021-06-11T17:13:42Z</time>
      </trkpt>
      <trkpt lat="45.66251" lon="0.23957">
        <ele>60</ele>
        <time>2021-06-11T17:14:09Z</time>
      </trkpt>
      <trkpt lat="45.66312" lon="0.23828">
        <ele>60</ele>
        <time>2021-06-11T17:14:29Z</time>
      </trkpt>
      <trkpt lat="45.66326" lon="0.23807">
        <ele>59</ele>
        <time>2021-06-11T17:14:32Z</time>
      </trkpt>
      <trkpt lat="45.66373" lon="0.23728">
        <ele>58</ele>
        <time>2021-06-11T17:14:45Z</time>
      </trkpt>
      <trkpt lat="45.66379" lon="0.23713">
        <ele>58</ele>
        <time>2021-06-11T17:14:47Z</time>
      </trkpt>
      <trkpt lat="45.66396" lon="0.23684">
        <ele>58</ele>
        <time>2021-06-11T17:14:52Z</time>
      </trkpt>
      <trkpt lat="45.66412" lon="0.23661">
        <ele>57</ele>
        <time>2021-06-11T17:14:56Z</time>
      </trkpt>
      <trkpt lat="45.6642" lon="0.23654">
        <ele>57</ele>
        <time>2021-06-11T17:14:58Z</time>
      </trkpt>
      <trkpt lat="45.66454" lon="0.23648">
        <ele>56</ele>
        <time>2021-06-11T17:15:04Z</time>
      </trkpt>
      <trkpt lat="45.66465" lon="0.23644">
        <ele>56</ele>
        <time>2021-06-11T17:15:06Z</time>
      </trkpt>
      <trkpt lat="45.66516" lon="0.23607">
        <ele>55</ele>
        <time>2021-06-11T17:15:16Z</time>
      </trkpt>
      <trkpt lat="45.66557" lon="0.23587">
        <ele>55</ele>
        <time>2021-06-11T17:15:24Z</time>
      </trkpt>
      <trkpt lat="45.66565" lon="0.2364">
        <ele>55</ele>
        <time>2021-06-11T17:15:30Z</time>
      </trkpt>
      <trkpt lat="45.66567" lon="0.23674">
        <ele>54</ele>
        <time>2021-06-11T17:15:35Z</time>
      </trkpt>
      <trkpt lat="45.66611" lon="0.23659">
        <ele>55</ele>
        <time>2021-06-11T17:15:43Z</time>
      </trkpt>
      <trkpt lat="45.66644" lon="0.23656">
        <ele>56</ele>
        <time>2021-06-11T17:15:49Z</time>
      </trkpt>
      <trkpt lat="45.66655" lon="0.23651">
        <ele>56</ele>
        <time>2021-06-11T17:15:51Z</time>
      </trkpt>
      <trkpt lat="45.6673" lon="0.23629">
        <ele>58</ele>
        <time>2021-06-11T17:16:04Z</time>
      </trkpt>
      <trkpt lat="45.66844" lon="0.23605">
        <ele>57</ele>
        <time>2021-06-11T17:16:25Z</time>
      </trkpt>
      <trkpt lat="45.66856" lon="0.23616">
        <ele>56</ele>
        <time>2021-06-11T17:16:27Z</time>
      </trkpt>
      <trkpt lat="45.66871" lon="0.23617">
        <ele>56</ele>
        <time>2021-06-11T17:16:30Z</time>
      </trkpt>
      <trkpt lat="45.66892" lon="0.23609">
        <ele>55</ele>
        <time>2021-06-11T17:16:34Z</time>
      </trkpt>
      <trkpt lat="45.66917" lon="0.23595">
        <ele>54</ele>
        <time>2021-06-11T17:16:39Z</time>
      </trkpt>
      <trkpt lat="45.67036" lon="0.2355">
        <ele>52</ele>
        <time>2021-06-11T17:17:01Z</time>
      </trkpt>
      <trkpt lat="45.67074" lon="0.23528">
        <ele>52</ele>
        <time>2021-06-11T17:17:08Z</time>
      </trkpt>
      <trkpt lat="45.67146" lon="0.23471">
        <ele>49</ele>
        <time>2021-06-11T17:17:22Z</time>
      </trkpt>
      <trkpt lat="45.672" lon="0.23415">
        <ele>49</ele>
        <time>2021-06-11T17:17:34Z</time>
      </trkpt>
      <trkpt lat="45.67225" lon="0.23378">
        <ele>49</ele>
        <time>2021-06-11T17:17:41Z</time>
      </trkpt>
      <trkpt lat="45.67232" lon="0.23372">
        <ele>49</ele>
        <time>2021-06-11T17:17:42Z</time>
      </trkpt>
      <trkpt lat="45.67264" lon="0.23322">
        <ele>50</ele>
        <time>2021-06-11T17:17:51Z</time>
      </trkpt>
      <trkpt lat="45.67283" lon="0.23288">
        <ele>50</ele>
        <time>2021-06-11T17:17:56Z</time>
      </trkpt>
      <trkpt lat="45.67331" lon="0.23184">
        <ele>50</ele>
        <time>2021-06-11T17:18:12Z</time>
      </trkpt>
      <trkpt lat="45.67393" lon="0.23011">
        <ele>50</ele>
        <time>2021-06-11T17:18:36Z</time>
      </trkpt>
      <trkpt lat="45.67488" lon="0.22765">
        <ele>47</ele>
        <time>2021-06-11T17:19:11Z</time>
      </trkpt>
      <trkpt lat="45.67516" lon="0.22681">
        <ele>45</ele>
        <time>2021-06-11T17:19:22Z</time>
      </trkpt>
      <trkpt lat="45.67534" lon="0.22614">
        <ele>46</ele>
        <time>2021-06-11T17:19:31Z</time>
      </trkpt>
      <trkpt lat="45.67548" lon="0.22578">
        <ele>47</ele>
        <time>2021-06-11T17:19:36Z</time>
      </trkpt>
      <trkpt lat="45.67548" lon="0.22554">
        <ele>47</ele>
        <time>2021-06-11T17:19:39Z</time>
      </trkpt>
      <trkpt lat="45.67556" lon="0.22546">
        <ele>47</ele>
        <time>2021-06-11T17:19:41Z</time>
      </trkpt>
      <trkpt lat="45.67564" lon="0.22526">
        <ele>48</ele>
        <time>2021-06-11T17:19:44Z</time>
      </trkpt>
      <trkpt lat="45.67583" lon="0.22469">
        <ele>48</ele>
        <time>2021-06-11T17:19:52Z</time>
      </trkpt>
      <trkpt lat="45.67605" lon="0.22446">
        <ele>47</ele>
        <time>2021-06-11T17:19:57Z</time>
      </trkpt>
      <trkpt lat="45.6766" lon="0.22406">
        <ele>46</ele>
        <time>2021-06-11T17:20:08Z</time>
      </trkpt>
      <trkpt lat="45.67658" lon="0.22356">
        <ele>46</ele>
        <time>2021-06-11T17:20:14Z</time>
      </trkpt>
      <trkpt lat="45.67662" lon="0.22324">
        <ele>45</ele>
        <time>2021-06-11T17:20:18Z</time>
      </trkpt>
      <trkpt lat="45.67677" lon="0.22202">
        <ele>47</ele>
        <time>2021-06-11T17:20:33Z</time>
      </trkpt>
      <trkpt lat="45.67764" lon="0.22221">
        <ele>47</ele>
        <time>2021-06-11T17:20:49Z</time>
      </trkpt>
      <trkpt lat="45.67737" lon="0.22124">
        <ele>48</ele>
        <time>2021-06-11T17:21:02Z</time>
      </trkpt>
      <trkpt lat="45.67743" lon="0.22121">
        <ele>48</ele>
        <time>2021-06-11T17:21:03Z</time>
      </trkpt>
      <trkpt lat="45.67783" lon="0.2212">
        <ele>47</ele>
        <time>2021-06-11T17:21:10Z</time>
      </trkpt>
      <trkpt lat="45.67794" lon="0.22116">
        <ele>46</ele>
        <time>2021-06-11T17:21:12Z</time>
      </trkpt>
      <trkpt lat="45.67796" lon="0.22114">
        <ele>46</ele>
        <time>2021-06-11T17:21:13Z</time>
      </trkpt>
      <trkpt lat="45.67808" lon="0.22056">
        <ele>45</ele>
        <time>2021-06-11T17:21:20Z</time>
      </trkpt>
      <trkpt lat="45.67832" lon="0.21976">
        <ele>45</ele>
        <time>2021-06-11T17:21:31Z</time>
      </trkpt>
      <trkpt lat="45.67835" lon="0.21959">
        <ele>45</ele>
        <time>2021-06-11T17:21:33Z</time>
      </trkpt>
      <trkpt lat="45.67836" lon="0.21938">
        <ele>46</ele>
        <time>2021-06-11T17:21:36Z</time>
      </trkpt>
      <trkpt lat="45.67825" lon="0.21936">
        <ele>46</ele>
        <time>2021-06-11T17:21:38Z</time>
      </trkpt>
      <trkpt lat="45.67824" lon="0.21927">
        <ele>46</ele>
        <time>2021-06-11T17:21:39Z</time>
      </trkpt>
      <trkpt lat="45.67808" lon="0.21885">
        <ele>46</ele>
        <time>2021-06-11T17:21:45Z</time>
      </trkpt>
      <trkpt lat="45.678" lon="0.21861">
        <ele>47</ele>
        <time>2021-06-11T17:21:48Z</time>
      </trkpt>
      <trkpt lat="45.67791" lon="0.21829">
        <ele>47</ele>
        <time>2021-06-11T17:21:52Z</time>
      </trkpt>
      <trkpt lat="45.67786" lon="0.21801">
        <ele>47</ele>
        <time>2021-06-11T17:21:56Z</time>
      </trkpt>
      <trkpt lat="45.6778" lon="0.21739">
        <ele>47</ele>
        <time>2021-06-11T17:22:04Z</time>
      </trkpt>
      <trkpt lat="45.67794" lon="0.21723">
        <ele>47</ele>
        <time>2021-06-11T17:22:07Z</time>
      </trkpt>
      <trkpt lat="45.67799" lon="0.2171">
        <ele>47</ele>
        <time>2021-06-11T17:22:09Z</time>
      </trkpt>
      <trkpt lat="45.678" lon="0.21693">
        <ele>47</ele>
        <time>2021-06-11T17:22:11Z</time>
      </trkpt>
      <trkpt lat="45.67798" lon="0.21668">
        <ele>47</ele>
        <time>2021-06-11T17:22:14Z</time>
      </trkpt>
      <trkpt lat="45.678" lon="0.21651">
        <ele>47</ele>
        <time>2021-06-11T17:22:16Z</time>
      </trkpt>
      <trkpt lat="45.6782" lon="0.21583">
        <ele>48</ele>
        <time>2021-06-11T17:22:25Z</time>
      </trkpt>
      <trkpt lat="45.67844" lon="0.21541">
        <ele>48</ele>
        <time>2021-06-11T17:22:32Z</time>
      </trkpt>
      <trkpt lat="45.67873" lon="0.21503">
        <ele>48</ele>
        <time>2021-06-11T17:22:39Z</time>
      </trkpt>
      <trkpt lat="45.67895" lon="0.2146">
        <ele>48</ele>
        <time>2021-06-11T17:22:46Z</time>
      </trkpt>
      <trkpt lat="45.67916" lon="0.21387">
        <ele>47</ele>
        <time>2021-06-11T17:22:55Z</time>
      </trkpt>
      <trkpt lat="45.67923" lon="0.21357">
        <ele>47</ele>
        <time>2021-06-11T17:22:59Z</time>
      </trkpt>
      <trkpt lat="45.67937" lon="0.21297">
        <ele>46</ele>
        <time>2021-06-11T17:23:07Z</time>
      </trkpt>
      <trkpt lat="45.67949" lon="0.21228">
        <ele>44</ele>
        <time>2021-06-11T17:23:16Z</time>
      </trkpt>
      <trkpt lat="45.67963" lon="0.21181">
        <ele>42</ele>
        <time>2021-06-11T17:23:22Z</time>
      </trkpt>
      <trkpt lat="45.67979" lon="0.21115">
        <ele>41</ele>
        <time>2021-06-11T17:23:31Z</time>
      </trkpt>
      <trkpt lat="45.67981" lon="0.21114">
        <ele>41</ele>
        <time>2021-06-11T17:23:32Z</time>
      </trkpt>
      <trkpt lat="45.67972" lon="0.2111">
        <ele>42</ele>
        <time>2021-06-11T17:23:33Z</time>
      </trkpt>
      <trkpt lat="45.67961" lon="0.211">
        <ele>42</ele>
        <time>2021-06-11T17:23:36Z</time>
      </trkpt>
      <trkpt lat="45.67935" lon="0.21003">
        <ele>44</ele>
        <time>2021-06-11T17:23:48Z</time>
      </trkpt>
      <trkpt lat="45.67878" lon="0.21005">
        <ele>45</ele>
        <time>2021-06-11T17:23:59Z</time>
      </trkpt>
      <trkpt lat="45.67855" lon="0.21008">
        <ele>46</ele>
        <time>2021-06-11T17:24:03Z</time>
      </trkpt>
      <trkpt lat="45.67856" lon="0.2099">
        <ele>46</ele>
        <time>2021-06-11T17:24:05Z</time>
      </trkpt>
      <trkpt lat="45.67861" lon="0.20962">
        <ele>46</ele>
        <time>2021-06-11T17:24:09Z</time>
      </trkpt>
      <trkpt lat="45.67856" lon="0.20912">
        <ele>46</ele>
        <time>2021-06-11T17:24:15Z</time>
      </trkpt>
      <trkpt lat="45.67835" lon="0.20802">
        <ele>45</ele>
        <time>2021-06-11T17:24:29Z</time>
      </trkpt>
      <trkpt lat="45.67815" lon="0.20745">
        <ele>44</ele>
        <time>2021-06-11T17:24:37Z</time>
      </trkpt>
      <trkpt lat="45.67792" lon="0.20687">
        <ele>44</ele>
        <time>2021-06-11T17:24:45Z</time>
      </trkpt>
      <trkpt lat="45.67782" lon="0.20661">
        <ele>44</ele>
        <time>2021-06-11T17:24:49Z</time>
      </trkpt>
      <trkpt lat="45.67614" lon="0.20353">
        <ele>43</ele>
        <time>2021-06-11T17:25:37Z</time>
      </trkpt>
      <trkpt lat="45.6744" lon="0.19884">
        <ele>48</ele>
        <time>2021-06-11T17:26:44Z</time>
      </trkpt>
      <trkpt lat="45.67398" lon="0.19661">
        <ele>46</ele>
        <time>2021-06-11T17:27:12Z</time>
      </trkpt>
      <trkpt lat="45.67402" lon="0.19419">
        <ele>45</ele>
        <time>2021-06-11T17:27:42Z</time>
      </trkpt>
      <trkpt lat="45.67397" lon="0.19393">
        <ele>45</ele>
        <time>2021-06-11T17:27:46Z</time>
      </trkpt>
      <trkpt lat="45.67384" lon="0.19369">
        <ele>46</ele>
        <time>2021-06-11T17:27:49Z</time>
      </trkpt>
      <trkpt lat="45.67368" lon="0.19205">
        <ele>47</ele>
        <time>2021-06-11T17:28:10Z</time>
      </trkpt>
      <trkpt lat="45.67353" lon="0.19203">
        <ele>48</ele>
        <time>2021-06-11T17:28:13Z</time>
      </trkpt>
      <trkpt lat="45.67321" lon="0.19195">
        <ele>50</ele>
        <time>2021-06-11T17:28:18Z</time>
      </trkpt>
      <trkpt lat="45.67298" lon="0.1918">
        <ele>52</ele>
        <time>2021-06-11T17:28:23Z</time>
      </trkpt>
      <trkpt lat="45.67282" lon="0.19158">
        <ele>52</ele>
        <time>2021-06-11T17:28:27Z</time>
      </trkpt>
      <trkpt lat="45.67266" lon="0.19112">
        <ele>53</ele>
        <time>2021-06-11T17:28:33Z</time>
      </trkpt>
      <trkpt lat="45.67249" lon="0.19055">
        <ele>53</ele>
        <time>2021-06-11T17:28:41Z</time>
      </trkpt>
      <trkpt lat="45.67238" lon="0.19003">
        <ele>53</ele>
        <time>2021-06-11T17:28:48Z</time>
      </trkpt>
      <trkpt lat="45.67236" lon="0.18953">
        <ele>52</ele>
        <time>2021-06-11T17:28:54Z</time>
      </trkpt>
      <trkpt lat="45.67227" lon="0.18924">
        <ele>52</ele>
        <time>2021-06-11T17:28:58Z</time>
      </trkpt>
      <trkpt lat="45.6721" lon="0.18909">
        <ele>52</ele>
        <time>2021-06-11T17:29:02Z</time>
      </trkpt>
      <trkpt lat="45.67218" lon="0.1888">
        <ele>52</ele>
        <time>2021-06-11T17:29:05Z</time>
      </trkpt>
      <trkpt lat="45.67234" lon="0.18816">
        <ele>52</ele>
        <time>2021-06-11T17:29:14Z</time>
      </trkpt>
      <trkpt lat="45.67243" lon="0.18809">
        <ele>51</ele>
        <time>2021-06-11T17:29:16Z</time>
      </trkpt>
      <trkpt lat="45.67248" lon="0.18805">
        <ele>51</ele>
        <time>2021-06-11T17:29:17Z</time>
      </trkpt>
      <trkpt lat="45.6725" lon="0.18803">
        <ele>51</ele>
        <time>2021-06-11T17:29:17Z</time>
      </trkpt>
      <trkpt lat="45.67256" lon="0.188">
        <ele>51</ele>
        <time>2021-06-11T17:29:18Z</time>
      </trkpt>
      <trkpt lat="45.67263" lon="0.18796">
        <ele>51</ele>
        <time>2021-06-11T17:29:20Z</time>
      </trkpt>
      <trkpt lat="45.6727" lon="0.18802">
        <ele>50</ele>
        <time>2021-06-11T17:29:21Z</time>
      </trkpt>
      <trkpt lat="45.67279" lon="0.18804">
        <ele>50</ele>
        <time>2021-06-11T17:29:23Z</time>
      </trkpt>
      <trkpt lat="45.67287" lon="0.18803">
        <ele>50</ele>
        <time>2021-06-11T17:29:24Z</time>
      </trkpt>
      <trkpt lat="45.67295" lon="0.18798">
        <ele>49</ele>
        <time>2021-06-11T17:29:26Z</time>
      </trkpt>
      <trkpt lat="45.67301" lon="0.18791">
        <ele>49</ele>
        <time>2021-06-11T17:29:27Z</time>
      </trkpt>
      <trkpt lat="45.67306" lon="0.18782">
        <ele>49</ele>
        <time>2021-06-11T17:29:28Z</time>
      </trkpt>
      <trkpt lat="45.67309" lon="0.18772">
        <ele>49</ele>
        <time>2021-06-11T17:29:30Z</time>
      </trkpt>
      <trkpt lat="45.6731" lon="0.18761">
        <ele>49</ele>
        <time>2021-06-11T17:29:31Z</time>
      </trkpt>
      <trkpt lat="45.67309" lon="0.18749">
        <ele>50</ele>
        <time>2021-06-11T17:29:33Z</time>
      </trkpt>
      <trkpt lat="45.67305" lon="0.18738">
        <ele>50</ele>
        <time>2021-06-11T17:29:34Z</time>
      </trkpt>
      <trkpt lat="45.67301" lon="0.1873">
        <ele>50</ele>
        <time>2021-06-11T17:29:35Z</time>
      </trkpt>
      <trkpt lat="45.67288" lon="0.18719">
        <ele>50</ele>
        <time>2021-06-11T17:29:38Z</time>
      </trkpt>
      <trkpt lat="45.67281" lon="0.18717">
        <ele>50</ele>
        <time>2021-06-11T17:29:39Z</time>
      </trkpt>
      <trkpt lat="45.67287" lon="0.18704">
        <ele>50</ele>
        <time>2021-06-11T17:29:41Z</time>
      </trkpt>
      <trkpt lat="45.67262" lon="0.18687">
        <ele>51</ele>
        <time>2021-06-11T17:29:46Z</time>
      </trkpt>
      <trkpt lat="45.67232" lon="0.18645">
        <ele>51</ele>
        <time>2021-06-11T17:29:54Z</time>
      </trkpt>
      <trkpt lat="45.67218" lon="0.18604">
        <ele>50</ele>
        <time>2021-06-11T17:29:59Z</time>
      </trkpt>
      <trkpt lat="45.67208" lon="0.18595">
        <ele>50</ele>
        <time>2021-06-11T17:30:02Z</time>
      </trkpt>
      <trkpt lat="45.6719" lon="0.18574">
        <ele>49</ele>
        <time>2021-06-11T17:30:06Z</time>
      </trkpt>
      <trkpt lat="45.6716" lon="0.18497">
        <ele>48</ele>
        <time>2021-06-11T17:30:17Z</time>
      </trkpt>
      <trkpt lat="45.67134" lon="0.18448">
        <ele>47</ele>
        <time>2021-06-11T17:30:24Z</time>
      </trkpt>
      <trkpt lat="45.67111" lon="0.18424">
        <ele>48</ele>
        <time>2021-06-11T17:30:29Z</time>
      </trkpt>
      <trkpt lat="45.67029" lon="0.18366">
        <ele>50</ele>
        <time>2021-06-11T17:30:46Z</time>
      </trkpt>
      <trkpt lat="45.6703" lon="0.1836">
        <ele>50</ele>
        <time>2021-06-11T17:30:46Z</time>
      </trkpt>
      <trkpt lat="45.67027" lon="0.18349">
        <ele>50</ele>
        <time>2021-06-11T17:30:48Z</time>
      </trkpt>
      <trkpt lat="45.67021" lon="0.18342">
        <ele>51</ele>
        <time>2021-06-11T17:30:49Z</time>
      </trkpt>
      <trkpt lat="45.67017" lon="0.1834">
        <ele>51</ele>
        <time>2021-06-11T17:30:50Z</time>
      </trkpt>
      <trkpt lat="45.67042" lon="0.18169">
        <ele>51</ele>
        <time>2021-06-11T17:31:12Z</time>
      </trkpt>
      <trkpt lat="45.67079" lon="0.17871">
        <ele>47</ele>
        <time>2021-06-11T17:31:49Z</time>
      </trkpt>
      <trkpt lat="45.67088" lon="0.17826">
        <ele>46</ele>
        <time>2021-06-11T17:31:55Z</time>
      </trkpt>
      <trkpt lat="45.67132" lon="0.17657">
        <ele>49</ele>
        <time>2021-06-11T17:32:18Z</time>
      </trkpt>
      <trkpt lat="45.67141" lon="0.1763">
        <ele>48</ele>
        <time>2021-06-11T17:32:21Z</time>
      </trkpt>
      <trkpt lat="45.67187" lon="0.17565">
        <ele>45</ele>
        <time>2021-06-11T17:32:33Z</time>
      </trkpt>
      <trkpt lat="45.67202" lon="0.17541">
        <ele>45</ele>
        <time>2021-06-11T17:32:37Z</time>
      </trkpt>
      <trkpt lat="45.67246" lon="0.17475">
        <ele>44</ele>
        <time>2021-06-11T17:32:48Z</time>
      </trkpt>
      <trkpt lat="45.67261" lon="0.17455">
        <ele>45</ele>
        <time>2021-06-11T17:32:52Z</time>
      </trkpt>
      <trkpt lat="45.67299" lon="0.17397">
        <ele>46</ele>
        <time>2021-06-11T17:33:02Z</time>
      </trkpt>
      <trkpt lat="45.67363" lon="0.17409">
        <ele>45</ele>
        <time>2021-06-11T17:33:13Z</time>
      </trkpt>
      <trkpt lat="45.67371" lon="0.17377">
        <ele>46</ele>
        <time>2021-06-11T17:33:17Z</time>
      </trkpt>
      <trkpt lat="45.67393" lon="0.17318">
        <ele>46</ele>
        <time>2021-06-11T17:33:26Z</time>
      </trkpt>
      <trkpt lat="45.67412" lon="0.17231">
        <ele>46</ele>
        <time>2021-06-11T17:33:37Z</time>
      </trkpt>
      <trkpt lat="45.6742" lon="0.17135">
        <ele>42</ele>
        <time>2021-06-11T17:33:49Z</time>
      </trkpt>
      <trkpt lat="45.67421" lon="0.17106">
        <ele>41</ele>
        <time>2021-06-11T17:33:53Z</time>
      </trkpt>
      <trkpt lat="45.67423" lon="0.17098">
        <ele>40</ele>
        <time>2021-06-11T17:33:54Z</time>
      </trkpt>
      <trkpt lat="45.67403" lon="0.17071">
        <ele>41</ele>
        <time>2021-06-11T17:33:59Z</time>
      </trkpt>
      <trkpt lat="45.67369" lon="0.17046">
        <ele>42</ele>
        <time>2021-06-11T17:34:05Z</time>
      </trkpt>
      <trkpt lat="45.67344" lon="0.17031">
        <ele>43</ele>
        <time>2021-06-11T17:34:10Z</time>
      </trkpt>
      <trkpt lat="45.67337" lon="0.17029">
        <ele>44</ele>
        <time>2021-06-11T17:34:11Z</time>
      </trkpt>
      <trkpt lat="45.67333" lon="0.17019">
        <ele>44</ele>
        <time>2021-06-11T17:34:13Z</time>
      </trkpt>
      <trkpt lat="45.67276" lon="0.1696">
        <ele>41</ele>
        <time>2021-06-11T17:34:25Z</time>
      </trkpt>
      <trkpt lat="45.67234" lon="0.16903">
        <ele>38</ele>
        <time>2021-06-11T17:34:36Z</time>
      </trkpt>
      <trkpt lat="45.67228" lon="0.16892">
        <ele>37</ele>
        <time>2021-06-11T17:34:37Z</time>
      </trkpt>
      <trkpt lat="45.6723" lon="0.16888">
        <ele>37</ele>
        <time>2021-06-11T17:34:38Z</time>
      </trkpt>
      <trkpt lat="45.67231" lon="0.16883">
        <ele>37</ele>
        <time>2021-06-11T17:34:39Z</time>
      </trkpt>
      <trkpt lat="45.67226" lon="0.16865">
        <ele>36</ele>
        <time>2021-06-11T17:34:41Z</time>
      </trkpt>
      <trkpt lat="45.67223" lon="0.16856">
        <ele>36</ele>
        <time>2021-06-11T17:34:42Z</time>
      </trkpt>
      <trkpt lat="45.67226" lon="0.16855">
        <ele>36</ele>
        <time>2021-06-11T17:34:43Z</time>
      </trkpt>
      <trkpt lat="45.67239" lon="0.16848">
        <ele>35</ele>
        <time>2021-06-11T17:34:45Z</time>
      </trkpt>
      <trkpt lat="45.67282" lon="0.16846">
        <ele>35</ele>
        <time>2021-06-11T17:34:53Z</time>
      </trkpt>
      <trkpt lat="45.67283" lon="0.16821">
        <ele>35</ele>
        <time>2021-06-11T17:34:56Z</time>
      </trkpt>
      <trkpt lat="45.67284" lon="0.16818">
        <ele>35</ele>
        <time>2021-06-11T17:34:57Z</time>
      </trkpt>
      <trkpt lat="45.67326" lon="0.16798">
        <ele>37</ele>
        <time>2021-06-11T17:35:04Z</time>
      </trkpt>
      <trkpt lat="45.67384" lon="0.16759">
        <ele>37</ele>
        <time>2021-06-11T17:35:16Z</time>
      </trkpt>
      <trkpt lat="45.67397" lon="0.16739">
        <ele>37</ele>
        <time>2021-06-11T17:35:19Z</time>
      </trkpt>
      <trkpt lat="45.67434" lon="0.16688">
        <ele>37</ele>
        <time>2021-06-11T17:35:28Z</time>
      </trkpt>
      <trkpt lat="45.67491" lon="0.16626">
        <ele>38</ele>
        <time>2021-06-11T17:35:41Z</time>
      </trkpt>
      <trkpt lat="45.67513" lon="0.16597">
        <ele>40</ele>
        <time>2021-06-11T17:35:46Z</time>
      </trkpt>
      <trkpt lat="45.67496" lon="0.16555">
        <ele>39</ele>
        <time>2021-06-11T17:35:52Z</time>
      </trkpt>
      <trkpt lat="45.67457" lon="0.16546">
        <ele>37</ele>
        <time>2021-06-11T17:36:00Z</time>
      </trkpt>
      <trkpt lat="45.67453" lon="0.16532">
        <ele>37</ele>
        <time>2021-06-11T17:36:01Z</time>
      </trkpt>
      <trkpt lat="45.67468" lon="0.16398">
        <ele>36</ele>
        <time>2021-06-11T17:36:18Z</time>
      </trkpt>
      <trkpt lat="45.67475" lon="0.16355">
        <ele>36</ele>
        <time>2021-06-11T17:36:24Z</time>
      </trkpt>
      <trkpt lat="45.67462" lon="0.16322">
        <ele>36</ele>
        <time>2021-06-11T17:36:28Z</time>
      </trkpt>
      <trkpt lat="45.67441" lon="0.1625">
        <ele>37</ele>
        <time>2021-06-11T17:36:38Z</time>
      </trkpt>
      <trkpt lat="45.67464" lon="0.16262">
        <ele>37</ele>
        <time>2021-06-11T17:36:43Z</time>
      </trkpt>
      <trkpt lat="45.67489" lon="0.16265">
        <ele>38</ele>
        <time>2021-06-11T17:36:47Z</time>
      </trkpt>
      <trkpt lat="45.67495" lon="0.16265">
        <ele>38</ele>
        <time>2021-06-11T17:36:48Z</time>
      </trkpt>
      <trkpt lat="45.67563" lon="0.16149">
        <ele>39</ele>
        <time>2021-06-11T17:37:07Z</time>
      </trkpt>
      <trkpt lat="45.67578" lon="0.16129">
        <ele>39</ele>
        <time>2021-06-11T17:37:11Z</time>
      </trkpt>
      <trkpt lat="45.67581" lon="0.16124">
        <ele>39</ele>
        <time>2021-06-11T17:37:11Z</time>
      </trkpt>
      <trkpt lat="45.67584" lon="0.16132">
        <ele>40</ele>
        <time>2021-06-11T17:37:12Z</time>
      </trkpt>
      <trkpt lat="45.67587" lon="0.16129">
        <ele>40</ele>
        <time>2021-06-11T17:37:13Z</time>
      </trkpt>
      <trkpt lat="45.67585" lon="0.16121">
        <ele>39</ele>
        <time>2021-06-11T17:37:14Z</time>
      </trkpt>
      <trkpt lat="45.6762" lon="0.16069">
        <ele>39</ele>
        <time>2021-06-11T17:37:23Z</time>
      </trkpt>
      <trkpt lat="45.67622" lon="0.16064">
        <ele>39</ele>
        <time>2021-06-11T17:37:24Z</time>
      </trkpt>
      <trkpt lat="45.67622" lon="0.1606">
        <ele>39</ele>
        <time>2021-06-11T17:37:24Z</time>
      </trkpt>
      <trkpt lat="45.67594" lon="0.16008">
        <ele>38</ele>
        <time>2021-06-11T17:37:33Z</time>
      </trkpt>
      <trkpt lat="45.67592" lon="0.16004">
        <ele>38</ele>
        <time>2021-06-11T17:37:33Z</time>
      </trkpt>
      <trkpt lat="45.67621" lon="0.15976">
        <ele>38</ele>
        <time>2021-06-11T17:37:39Z</time>
      </trkpt>
      <trkpt lat="45.67626" lon="0.15967">
        <ele>39</ele>
        <time>2021-06-11T17:37:41Z</time>
      </trkpt>
      <trkpt lat="45.67647" lon="0.15949">
        <ele>39</ele>
        <time>2021-06-11T17:37:45Z</time>
      </trkpt>
      <trkpt lat="45.67631" lon="0.15912">
        <ele>38</ele>
        <time>2021-06-11T17:37:51Z</time>
      </trkpt>
      <trkpt lat="45.67632" lon="0.15905">
        <ele>38</ele>
        <time>2021-06-11T17:37:51Z</time>
      </trkpt>
      <trkpt lat="45.67656" lon="0.15878">
        <ele>38</ele>
        <time>2021-06-11T17:37:57Z</time>
      </trkpt>
      <trkpt lat="45.67638" lon="0.15784">
        <ele>37</ele>
        <time>2021-06-11T17:38:09Z</time>
      </trkpt>
      <trkpt lat="45.67643" lon="0.15782">
        <ele>37</ele>
        <time>2021-06-11T17:38:10Z</time>
      </trkpt>
      <trkpt lat="45.67634" lon="0.15686">
        <ele>36</ele>
        <time>2021-06-11T17:38:22Z</time>
      </trkpt>
      <trkpt lat="45.67626" lon="0.15572">
        <ele>34</ele>
        <time>2021-06-11T17:38:36Z</time>
      </trkpt>
      <trkpt lat="45.67668" lon="0.15555">
        <ele>35</ele>
        <time>2021-06-11T17:38:44Z</time>
      </trkpt>
      <trkpt lat="45.67693" lon="0.15554">
        <ele>35</ele>
        <time>2021-06-11T17:38:48Z</time>
      </trkpt>
      <trkpt lat="45.67757" lon="0.15572">
        <ele>35</ele>
        <time>2021-06-11T17:39:00Z</time>
      </trkpt>
      <trkpt lat="45.67809" lon="0.15581">
        <ele>35</ele>
        <time>2021-06-11T17:39:09Z</time>
      </trkpt>
      <trkpt lat="45.67816" lon="0.15558">
        <ele>35</ele>
        <time>2021-06-11T17:39:12Z</time>
      </trkpt>
      <trkpt lat="45.67837" lon="0.15549">
        <ele>35</ele>
        <time>2021-06-11T17:39:16Z</time>
      </trkpt>
      <trkpt lat="45.67857" lon="0.15543">
        <ele>36</ele>
        <time>2021-06-11T17:39:20Z</time>
      </trkpt>
      <trkpt lat="45.67856" lon="0.15538">
        <ele>36</ele>
        <time>2021-06-11T17:39:21Z</time>
      </trkpt>
      <trkpt lat="45.67856" lon="0.15524">
        <ele>36</ele>
        <time>2021-06-11T17:39:22Z</time>
      </trkpt>
      <trkpt lat="45.67855" lon="0.15518">
        <ele>36</ele>
        <time>2021-06-11T17:39:23Z</time>
      </trkpt>
      <trkpt lat="45.67852" lon="0.15451">
        <ele>36</ele>
        <time>2021-06-11T17:39:31Z</time>
      </trkpt>
      <trkpt lat="45.67847" lon="0.15343">
        <ele>34</ele>
        <time>2021-06-11T17:39:45Z</time>
      </trkpt>
      <trkpt lat="45.67841" lon="0.15245">
        <ele>36</ele>
        <time>2021-06-11T17:39:57Z</time>
      </trkpt>
      <trkpt lat="45.67835" lon="0.15247">
        <ele>36</ele>
        <time>2021-06-11T17:39:58Z</time>
      </trkpt>
      <trkpt lat="45.67833" lon="0.15342">
        <ele>34</ele>
        <time>2021-06-11T17:40:10Z</time>
      </trkpt>
      <trkpt lat="45.67829" lon="0.15351">
        <ele>34</ele>
        <time>2021-06-11T17:40:11Z</time>
      </trkpt>
      <trkpt lat="45.67818" lon="0.1535">
        <ele>34</ele>
        <time>2021-06-11T17:40:13Z</time>
      </trkpt>
      <trkpt lat="45.67799" lon="0.15352">
        <ele>33</ele>
        <time>2021-06-11T17:40:17Z</time>
      </trkpt>
      <trkpt lat="45.6777" lon="0.15356">
        <ele>33</ele>
        <time>2021-06-11T17:40:22Z</time>
      </trkpt>
      <trkpt lat="45.67718" lon="0.15368">
        <ele>33</ele>
        <time>2021-06-11T17:40:31Z</time>
      </trkpt>
      <trkpt lat="45.67637" lon="0.15381">
        <ele>33</ele>
        <time>2021-06-11T17:40:46Z</time>
      </trkpt>
      <trkpt lat="45.67623" lon="0.15387">
        <ele>33</ele>
        <time>2021-06-11T17:40:48Z</time>
      </trkpt>
      <trkpt lat="45.67615" lon="0.15387">
        <ele>33</ele>
        <time>2021-06-11T17:40:50Z</time>
      </trkpt>
      <trkpt lat="45.67576" lon="0.15386">
        <ele>33</ele>
        <time>2021-06-11T17:40:57Z</time>
      </trkpt>
      <trkpt lat="45.67554" lon="0.15392">
        <ele>33</ele>
        <time>2021-06-11T17:41:01Z</time>
      </trkpt>
      <trkpt lat="45.6753" lon="0.15387">
        <ele>33</ele>
        <time>2021-06-11T17:41:05Z</time>
      </trkpt>
      <trkpt lat="45.67499" lon="0.15395">
        <ele>34</ele>
        <time>2021-06-11T17:41:11Z</time>
      </trkpt>
      <trkpt lat="45.67486" lon="0.15382">
        <ele>34</ele>
        <time>2021-06-11T17:41:14Z</time>
      </trkpt>
      <trkpt lat="45.67473" lon="0.15385">
        <ele>34</ele>
        <time>2021-06-11T17:41:16Z</time>
      </trkpt>
      <trkpt lat="45.67465" lon="0.1538">
        <ele>34</ele>
        <time>2021-06-11T17:41:17Z</time>
      </trkpt>
      <trkpt lat="45.67453" lon="0.15383">
        <ele>34</ele>
        <time>2021-06-11T17:41:20Z</time>
      </trkpt>
      <trkpt lat="45.67437" lon="0.15383">
        <ele>34</ele>
        <time>2021-06-11T17:41:22Z</time>
      </trkpt>
      <trkpt lat="45.67331" lon="0.15376">
        <ele>32</ele>
        <time>2021-06-11T17:41:41Z</time>
      </trkpt>
      <trkpt lat="45.67301" lon="0.15359">
        <ele>32</ele>
        <time>2021-06-11T17:41:47Z</time>
      </trkpt>
      <trkpt lat="45.67286" lon="0.15358">
        <ele>32</ele>
        <time>2021-06-11T17:41:50Z</time>
      </trkpt>
      <trkpt lat="45.67263" lon="0.15383">
        <ele>33</ele>
        <time>2021-06-11T17:41:55Z</time>
      </trkpt>
      <trkpt lat="45.67229" lon="0.15413">
        <ele>34</ele>
        <time>2021-06-11T17:42:02Z</time>
      </trkpt>
      <trkpt lat="45.67197" lon="0.15439">
        <ele>35</ele>
        <time>2021-06-11T17:42:09Z</time>
      </trkpt>
      <trkpt lat="45.67117" lon="0.15504">
        <ele>33</ele>
        <time>2021-06-11T17:42:25Z</time>
      </trkpt>
      <trkpt lat="45.67047" lon="0.15537">
        <ele>33</ele>
        <time>2021-06-11T17:42:38Z</time>
      </trkpt>
      <trkpt lat="45.66917" lon="0.15637">
        <ele>34</ele>
        <time>2021-06-11T17:43:04Z</time>
      </trkpt>
      <trkpt lat="45.66871" lon="0.1566">
        <ele>33</ele>
        <time>2021-06-11T17:43:13Z</time>
      </trkpt>
      <trkpt lat="45.6685" lon="0.15665">
        <ele>33</ele>
        <time>2021-06-11T17:43:17Z</time>
      </trkpt>
      <trkpt lat="45.66846" lon="0.15668">
        <ele>33</ele>
        <time>2021-06-11T17:43:18Z</time>
      </trkpt>
      <trkpt lat="45.66832" lon="0.15672">
        <ele>33</ele>
        <time>2021-06-11T17:43:20Z</time>
      </trkpt>
      <trkpt lat="45.66821" lon="0.15674">
        <ele>33</ele>
        <time>2021-06-11T17:43:22Z</time>
      </trkpt>
      <trkpt lat="45.66812" lon="0.1567">
        <ele>33</ele>
        <time>2021-06-11T17:43:24Z</time>
      </trkpt>
      <trkpt lat="45.66771" lon="0.15662">
        <ele>34</ele>
        <time>2021-06-11T17:43:31Z</time>
      </trkpt>
      <trkpt lat="45.66756" lon="0.15662">
        <ele>34</ele>
        <time>2021-06-11T17:43:34Z</time>
      </trkpt>
      <trkpt lat="45.66722" lon="0.15665">
        <ele>35</ele>
        <time>2021-06-11T17:43:40Z</time>
      </trkpt>
      <trkpt lat="45.66694" lon="0.15672">
        <ele>35</ele>
        <time>2021-06-11T17:43:45Z</time>
      </trkpt>
      <trkpt lat="45.66633" lon="0.15716">
        <ele>35</ele>
        <time>2021-06-11T17:43:57Z</time>
      </trkpt>
      <trkpt lat="45.66614" lon="0.15738">
        <ele>34</ele>
        <time>2021-06-11T17:44:01Z</time>
      </trkpt>
      <trkpt lat="45.66603" lon="0.15771">
        <ele>34</ele>
        <time>2021-06-11T17:44:06Z</time>
      </trkpt>
      <trkpt lat="45.66599" lon="0.15793">
        <ele>33</ele>
        <time>2021-06-11T17:44:09Z</time>
      </trkpt>
      <trkpt lat="45.66583" lon="0.15833">
        <ele>33</ele>
        <time>2021-06-11T17:44:14Z</time>
      </trkpt>
      <trkpt lat="45.66554" lon="0.15863">
        <ele>34</ele>
        <time>2021-06-11T17:44:21Z</time>
      </trkpt>
      <trkpt lat="45.66521" lon="0.15888">
        <ele>35</ele>
        <time>2021-06-11T17:44:27Z</time>
      </trkpt>
      <trkpt lat="45.66475" lon="0.15908">
        <ele>36</ele>
        <time>2021-06-11T17:44:36Z</time>
      </trkpt>
      <trkpt lat="45.66447" lon="0.15919">
        <ele>37</ele>
        <time>2021-06-11T17:44:41Z</time>
      </trkpt>
      <trkpt lat="45.66416" lon="0.15922">
        <ele>37</ele>
        <time>2021-06-11T17:44:47Z</time>
      </trkpt>
      <trkpt lat="45.6638" lon="0.15905">
        <ele>37</ele>
        <time>2021-06-11T17:44:53Z</time>
      </trkpt>
      <trkpt lat="45.66332" lon="0.15893">
        <ele>37</ele>
        <time>2021-06-11T17:45:02Z</time>
      </trkpt>
      <trkpt lat="45.6631" lon="0.15871">
        <ele>37</ele>
        <time>2021-06-11T17:45:07Z</time>
      </trkpt>
      <trkpt lat="45.66292" lon="0.15859">
        <ele>36</ele>
        <time>2021-06-11T17:45:10Z</time>
      </trkpt>
      <trkpt lat="45.66277" lon="0.15853">
        <ele>35</ele>
        <time>2021-06-11T17:45:13Z</time>
      </trkpt>
      <trkpt lat="45.66261" lon="0.15861">
        <ele>34</ele>
        <time>2021-06-11T17:45:16Z</time>
      </trkpt>
      <trkpt lat="45.66236" lon="0.15884">
        <ele>34</ele>
        <time>2021-06-11T17:45:22Z</time>
      </trkpt>
      <trkpt lat="45.66203" lon="0.15895">
        <ele>35</ele>
        <time>2021-06-11T17:45:28Z</time>
      </trkpt>
      <trkpt lat="45.66148" lon="0.15923">
        <ele>36</ele>
        <time>2021-06-11T17:45:38Z</time>
      </trkpt>
      <trkpt lat="45.66105" lon="0.15937">
        <ele>35</ele>
        <time>2021-06-11T17:45:46Z</time>
      </trkpt>
      <trkpt lat="45.66007" lon="0.15948">
        <ele>34</ele>
        <time>2021-06-11T17:46:03Z</time>
      </trkpt>
      <trkpt lat="45.65922" lon="0.15936">
        <ele>32</ele>
        <time>2021-06-11T17:46:18Z</time>
      </trkpt>
      <trkpt lat="45.65796" lon="0.15887">
        <ele>31</ele>
        <time>2021-06-11T17:46:42Z</time>
      </trkpt>
      <trkpt lat="45.65779" lon="0.15887">
        <ele>31</ele>
        <time>2021-06-11T17:46:45Z</time>
      </trkpt>
      <trkpt lat="45.6575" lon="0.15878">
        <ele>31</ele>
        <time>2021-06-11T17:46:50Z</time>
      </trkpt>
      <trkpt lat="45.65756" lon="0.15862">
        <ele>31</ele>
        <time>2021-06-11T17:46:52Z</time>
      </trkpt>
      <trkpt lat="45.65774" lon="0.15821">
        <ele>31</ele>
        <time>2021-06-11T17:46:58Z</time>
      </trkpt>
      <trkpt lat="45.65775" lon="0.15805">
        <ele>31</ele>
        <time>2021-06-11T17:47:00Z</time>
      </trkpt>
      <trkpt lat="45.65776" lon="0.1575">
        <ele>32</ele>
        <time>2021-06-11T17:47:07Z</time>
      </trkpt>
      <trkpt lat="45.65776" lon="0.15719">
        <ele>30</ele>
        <time>2021-06-11T17:47:11Z</time>
      </trkpt>
      <trkpt lat="45.6577" lon="0.15716">
        <ele>30</ele>
        <time>2021-06-11T17:47:12Z</time>
      </trkpt>
      <trkpt lat="45.65754" lon="0.15709">
        <ele>30</ele>
        <time>2021-06-11T17:47:15Z</time>
      </trkpt>
      <trkpt lat="45.65747" lon="0.15714">
        <ele>31</ele>
        <time>2021-06-11T17:47:16Z</time>
      </trkpt>
      <trkpt lat="45.65726" lon="0.15713">
        <ele>31</ele>
        <time>2021-06-11T17:47:20Z</time>
      </trkpt>
      <trkpt lat="45.65714" lon="0.15707">
        <ele>32</ele>
        <time>2021-06-11T17:47:22Z</time>
      </trkpt>
      <trkpt lat="45.65707" lon="0.15699">
        <ele>32</ele>
        <time>2021-06-11T17:47:24Z</time>
      </trkpt>
      <trkpt lat="45.65694" lon="0.15673">
        <ele>32</ele>
        <time>2021-06-11T17:47:28Z</time>
      </trkpt>
      <trkpt lat="45.6569" lon="0.15666">
        <ele>32</ele>
        <time>2021-06-11T17:47:29Z</time>
      </trkpt>
      <trkpt lat="45.65607" lon="0.15578">
        <ele>32</ele>
        <time>2021-06-11T17:47:48Z</time>
      </trkpt>
      <trkpt lat="45.65562" lon="0.15536">
        <ele>34</ele>
        <time>2021-06-11T17:47:57Z</time>
      </trkpt>
      <trkpt lat="45.65559" lon="0.15529">
        <ele>34</ele>
        <time>2021-06-11T17:47:58Z</time>
      </trkpt>
      <trkpt lat="45.65557" lon="0.15523">
        <ele>34</ele>
        <time>2021-06-11T17:47:59Z</time>
      </trkpt>
      <trkpt lat="45.65558" lon="0.15518">
        <ele>34</ele>
        <time>2021-06-11T17:48:00Z</time>
      </trkpt>
      <trkpt lat="45.65633" lon="0.15462">
        <ele>32</ele>
        <time>2021-06-11T17:48:15Z</time>
      </trkpt>
      <trkpt lat="45.65639" lon="0.15454">
        <ele>32</ele>
        <time>2021-06-11T17:48:16Z</time>
      </trkpt>
      <trkpt lat="45.6564" lon="0.15446">
        <ele>32</ele>
        <time>2021-06-11T17:48:17Z</time>
      </trkpt>
      <trkpt lat="45.65626" lon="0.15397">
        <ele>31</ele>
        <time>2021-06-11T17:48:24Z</time>
      </trkpt>
      <trkpt lat="45.65578" lon="0.1527">
        <ele>30</ele>
        <time>2021-06-11T17:48:42Z</time>
      </trkpt>
      <trkpt lat="45.65623" lon="0.15246">
        <ele>32</ele>
        <time>2021-06-11T17:48:50Z</time>
      </trkpt>
      <trkpt lat="45.65605" lon="0.1517">
        <ele>32</ele>
        <time>2021-06-11T17:49:00Z</time>
      </trkpt>
      <trkpt lat="45.65601" lon="0.15143">
        <ele>32</ele>
        <time>2021-06-11T17:49:04Z</time>
      </trkpt>
      <trkpt lat="45.65593" lon="0.15044">
        <ele>32</ele>
        <time>2021-06-11T17:49:16Z</time>
      </trkpt>
      <trkpt lat="45.6558" lon="0.14924">
        <ele>34</ele>
        <time>2021-06-11T17:49:31Z</time>
      </trkpt>
      <trkpt lat="45.65557" lon="0.14927">
        <ele>34</ele>
        <time>2021-06-11T17:49:35Z</time>
      </trkpt>
      <trkpt lat="45.65493" lon="0.14918">
        <ele>34</ele>
        <time>2021-06-11T17:49:47Z</time>
      </trkpt>
      <trkpt lat="45.655" lon="0.14869">
        <ele>32</ele>
        <time>2021-06-11T17:49:53Z</time>
      </trkpt>
      <trkpt lat="45.65496" lon="0.14868">
        <ele>32</ele>
        <time>2021-06-11T17:49:54Z</time>
      </trkpt>
      <trkpt lat="45.65493" lon="0.14867">
        <ele>32</ele>
        <time>2021-06-11T17:49:54Z</time>
      </trkpt>
      <trkpt lat="45.65498" lon="0.14841">
        <ele>31</ele>
        <time>2021-06-11T17:49:58Z</time>
      </trkpt>
      <trkpt lat="45.65501" lon="0.14823">
        <ele>31</ele>
        <time>2021-06-11T17:50:00Z</time>
      </trkpt>
      <trkpt lat="45.65502" lon="0.14821">
        <ele>31</ele>
        <time>2021-06-11T17:50:00Z</time>
      </trkpt>
      <trkpt lat="45.65508" lon="0.14816">
        <ele>32</ele>
        <time>2021-06-11T17:50:01Z</time>
      </trkpt>
      <trkpt lat="45.65513" lon="0.14798">
        <ele>32</ele>
        <time>2021-06-11T17:50:04Z</time>
      </trkpt>
      <trkpt lat="45.65519" lon="0.14795">
        <ele>32</ele>
        <time>2021-06-11T17:50:05Z</time>
      </trkpt>
      <trkpt lat="45.6553" lon="0.14795">
        <ele>33</ele>
        <time>2021-06-11T17:50:07Z</time>
      </trkpt>
      <trkpt lat="45.6553" lon="0.14784">
        <ele>33</ele>
        <time>2021-06-11T17:50:08Z</time>
      </trkpt>
      <trkpt lat="45.6556" lon="0.1465">
        <ele>34</ele>
        <time>2021-06-11T17:50:26Z</time>
      </trkpt>
      <trkpt lat="45.65573" lon="0.14581">
        <ele>35</ele>
        <time>2021-06-11T17:50:35Z</time>
      </trkpt>
      <trkpt lat="45.65634" lon="0.14424">
        <ele>32</ele>
        <time>2021-06-11T17:50:57Z</time>
      </trkpt>
      <trkpt lat="45.65654" lon="0.14379">
        <ele>32</ele>
        <time>2021-06-11T17:51:04Z</time>
      </trkpt>
      <trkpt lat="45.6574" lon="0.14147">
        <ele>32</ele>
        <time>2021-06-11T17:51:36Z</time>
      </trkpt>
      <trkpt lat="45.65764" lon="0.14073">
        <ele>32</ele>
        <time>2021-06-11T17:51:46Z</time>
      </trkpt>
      <trkpt lat="45.65778" lon="0.14023">
        <ele>33</ele>
        <time>2021-06-11T17:51:53Z</time>
      </trkpt>
      <trkpt lat="45.65793" lon="0.13979">
        <ele>32</ele>
        <time>2021-06-11T17:51:59Z</time>
      </trkpt>
      <trkpt lat="45.65849" lon="0.138">
        <ele>30</ele>
        <time>2021-06-11T17:52:24Z</time>
      </trkpt>
      <trkpt lat="45.65909" lon="0.13624">
        <ele>32</ele>
        <time>2021-06-11T17:52:48Z</time>
      </trkpt>
      <trkpt lat="45.65919" lon="0.1359">
        <ele>31</ele>
        <time>2021-06-11T17:52:53Z</time>
      </trkpt>
      <trkpt lat="45.65931" lon="0.13537">
        <ele>31</ele>
        <time>2021-06-11T17:52:59Z</time>
      </trkpt>
      <trkpt lat="45.65977" lon="0.13374">
        <ele>34</ele>
        <time>2021-06-11T17:53:21Z</time>
      </trkpt>
      <trkpt lat="45.65987" lon="0.13332">
        <ele>34</ele>
        <time>2021-06-11T17:53:27Z</time>
      </trkpt>
      <trkpt lat="45.66001" lon="0.13238">
        <ele>30</ele>
        <time>2021-06-11T17:53:39Z</time>
      </trkpt>
      <trkpt lat="45.66011" lon="0.13188">
        <ele>30</ele>
        <time>2021-06-11T17:53:45Z</time>
      </trkpt>
      <trkpt lat="45.66053" lon="0.13049">
        <ele>34</ele>
        <time>2021-06-11T17:54:04Z</time>
      </trkpt>
      <trkpt lat="45.66084" lon="0.12972">
        <ele>35</ele>
        <time>2021-06-11T17:54:15Z</time>
      </trkpt>
      <trkpt lat="45.66096" lon="0.12951">
        <ele>34</ele>
        <time>2021-06-11T17:54:18Z</time>
      </trkpt>
      <trkpt lat="45.66121" lon="0.12877">
        <ele>33</ele>
        <time>2021-06-11T17:54:29Z</time>
      </trkpt>
      <trkpt lat="45.66143" lon="0.12837">
        <ele>33</ele>
        <time>2021-06-11T17:54:35Z</time>
      </trkpt>
      <trkpt lat="45.66144" lon="0.12817">
        <ele>33</ele>
        <time>2021-06-11T17:54:38Z</time>
      </trkpt>
      <trkpt lat="45.66149" lon="0.12788">
        <ele>34</ele>
        <time>2021-06-11T17:54:41Z</time>
      </trkpt>
      <trkpt lat="45.66158" lon="0.12754">
        <ele>34</ele>
        <time>2021-06-11T17:54:46Z</time>
      </trkpt>
      <trkpt lat="45.66188" lon="0.12662">
        <ele>32</ele>
        <time>2021-06-11T17:54:58Z</time>
      </trkpt>
      <trkpt lat="45.662" lon="0.12619">
        <ele>30</ele>
        <time>2021-06-11T17:55:04Z</time>
      </trkpt>
      <trkpt lat="45.66205" lon="0.12584">
        <ele>30</ele>
        <time>2021-06-11T17:55:09Z</time>
      </trkpt>
      <trkpt lat="45.6621" lon="0.12562">
        <ele>30</ele>
        <time>2021-06-11T17:55:11Z</time>
      </trkpt>
      <trkpt lat="45.66231" lon="0.1252">
        <ele>30</ele>
        <time>2021-06-11T17:55:18Z</time>
      </trkpt>
      <trkpt lat="45.66796" lon="0.11433">
        <ele>30</ele>
        <time>2021-06-11T17:58:06Z</time>
      </trkpt>
      <trkpt lat="45.67157" lon="0.10879">
        <ele>28</ele>
        <time>2021-06-11T17:59:41Z</time>
      </trkpt>
      <trkpt lat="45.6716" lon="0.10822">
        <ele>28</ele>
        <time>2021-06-11T17:59:48Z</time>
      </trkpt>
      <trkpt lat="45.6716" lon="0.10807">
        <ele>28</ele>
        <time>2021-06-11T17:59:50Z</time>
      </trkpt>
      <trkpt lat="45.67163" lon="0.1079">
        <ele>28</ele>
        <time>2021-06-11T17:59:52Z</time>
      </trkpt>
      <trkpt lat="45.67171" lon="0.10765">
        <ele>29</ele>
        <time>2021-06-11T17:59:55Z</time>
      </trkpt>
      <trkpt lat="45.67178" lon="0.10736">
        <ele>29</ele>
        <time>2021-06-11T17:59:59Z</time>
      </trkpt>
      <trkpt lat="45.67181" lon="0.10679">
        <ele>31</ele>
        <time>2021-06-11T18:00:06Z</time>
      </trkpt>
      <trkpt lat="45.67181" lon="0.10636">
        <ele>31</ele>
        <time>2021-06-11T18:00:11Z</time>
      </trkpt>
      <trkpt lat="45.67187" lon="0.10579">
        <ele>32</ele>
        <time>2021-06-11T18:00:19Z</time>
      </trkpt>
      <trkpt lat="45.67183" lon="0.10436">
        <ele>34</ele>
        <time>2021-06-11T18:00:36Z</time>
      </trkpt>
      <trkpt lat="45.67172" lon="0.10381">
        <ele>34</ele>
        <time>2021-06-11T18:00:43Z</time>
      </trkpt>
      <trkpt lat="45.67143" lon="0.10269">
        <ele>38</ele>
        <time>2021-06-11T18:00:58Z</time>
      </trkpt>
      <trkpt lat="45.67109" lon="0.10224">
        <ele>39</ele>
        <time>2021-06-11T18:01:07Z</time>
      </trkpt>
      <trkpt lat="45.67048" lon="0.10157">
        <ele>38</ele>
        <time>2021-06-11T18:01:20Z</time>
      </trkpt>
      <trkpt lat="45.67004" lon="0.10116">
        <ele>37</ele>
        <time>2021-06-11T18:01:30Z</time>
      </trkpt>
      <trkpt lat="45.66963" lon="0.10083">
        <ele>34</ele>
        <time>2021-06-11T18:01:38Z</time>
      </trkpt>
      <trkpt lat="45.66939" lon="0.10068">
        <ele>34</ele>
        <time>2021-06-11T18:01:43Z</time>
      </trkpt>
      <trkpt lat="45.66839" lon="0.10032">
        <ele>33</ele>
        <time>2021-06-11T18:02:01Z</time>
      </trkpt>
      <trkpt lat="45.66685" lon="0.09985">
        <ele>33</ele>
        <time>2021-06-11T18:02:29Z</time>
      </trkpt>
      <trkpt lat="45.66629" lon="0.09959">
        <ele>34</ele>
        <time>2021-06-11T18:02:39Z</time>
      </trkpt>
      <trkpt lat="45.66484" lon="0.09906">
        <ele>34</ele>
        <time>2021-06-11T18:03:06Z</time>
      </trkpt>
      <trkpt lat="45.66454" lon="0.09907">
        <ele>35</ele>
        <time>2021-06-11T18:03:11Z</time>
      </trkpt>
      <trkpt lat="45.66384" lon="0.09916">
        <ele>35</ele>
        <time>2021-06-11T18:03:24Z</time>
      </trkpt>
      <trkpt lat="45.66341" lon="0.0993">
        <ele>35</ele>
        <time>2021-06-11T18:03:32Z</time>
      </trkpt>
      <trkpt lat="45.66208" lon="0.09964">
        <ele>33</ele>
        <time>2021-06-11T18:03:56Z</time>
      </trkpt>
      <trkpt lat="45.65265" lon="0.10398">
        <ele>29</ele>
        <time>2021-06-11T18:06:52Z</time>
      </trkpt>
      <trkpt lat="45.65258" lon="0.10405">
        <ele>29</ele>
        <time>2021-06-11T18:06:54Z</time>
      </trkpt>
      <trkpt lat="45.65255" lon="0.10408">
        <ele>29</ele>
        <time>2021-06-11T18:06:54Z</time>
      </trkpt>
      <trkpt lat="45.65251" lon="0.10386">
        <ele>28</ele>
        <time>2021-06-11T18:06:57Z</time>
      </trkpt>
      <trkpt lat="45.65242" lon="0.10351">
        <ele>27</ele>
        <time>2021-06-11T18:07:02Z</time>
      </trkpt>
      <trkpt lat="45.6523" lon="0.10318">
        <ele>27</ele>
        <time>2021-06-11T18:07:06Z</time>
      </trkpt>
      <trkpt lat="45.65216" lon="0.10284">
        <ele>27</ele>
        <time>2021-06-11T18:07:11Z</time>
      </trkpt>
      <trkpt lat="45.65161" lon="0.1017">
        <ele>27</ele>
        <time>2021-06-11T18:07:28Z</time>
      </trkpt>
      <trkpt lat="45.65058" lon="0.09948">
        <ele>29</ele>
        <time>2021-06-11T18:08:02Z</time>
      </trkpt>
      <trkpt lat="45.65055" lon="0.09938">
        <ele>29</ele>
        <time>2021-06-11T18:08:03Z</time>
      </trkpt>
      <trkpt lat="45.65061" lon="0.09928">
        <ele>29</ele>
        <time>2021-06-11T18:08:05Z</time>
      </trkpt>
      <trkpt lat="45.65061" lon="0.09917">
        <ele>29</ele>
        <time>2021-06-11T18:08:06Z</time>
      </trkpt>
      <trkpt lat="45.65057" lon="0.09909">
        <ele>29</ele>
        <time>2021-06-11T18:08:07Z</time>
      </trkpt>
      <trkpt lat="45.65054" lon="0.09906">
        <ele>29</ele>
        <time>2021-06-11T18:08:08Z</time>
      </trkpt>
      <trkpt lat="45.65047" lon="0.09905">
        <ele>29</ele>
        <time>2021-06-11T18:08:09Z</time>
      </trkpt>
      <trkpt lat="45.65043" lon="0.09906">
        <ele>29</ele>
        <time>2021-06-11T18:08:10Z</time>
      </trkpt>
      <trkpt lat="45.65032" lon="0.09835">
        <ele>31</ele>
        <time>2021-06-11T18:08:19Z</time>
      </trkpt>
      <trkpt lat="45.65017" lon="0.09573">
        <ele>34</ele>
        <time>2021-06-11T18:08:52Z</time>
      </trkpt>
      <trkpt lat="45.64998" lon="0.09284">
        <ele>38</ele>
        <time>2021-06-11T18:09:28Z</time>
      </trkpt>
      <trkpt lat="45.64986" lon="0.09078">
        <ele>44</ele>
        <time>2021-06-11T18:09:53Z</time>
      </trkpt>
      <trkpt lat="45.64987" lon="0.0905">
        <ele>45</ele>
        <time>2021-06-11T18:09:57Z</time>
      </trkpt>
      <trkpt lat="45.64994" lon="0.09001">
        <ele>46</ele>
        <time>2021-06-11T18:10:03Z</time>
      </trkpt>
      <trkpt lat="45.65051" lon="0.08797">
        <ele>49</ele>
        <time>2021-06-11T18:10:30Z</time>
      </trkpt>
      <trkpt lat="45.65098" lon="0.08624">
        <ele>52</ele>
        <time>2021-06-11T18:10:53Z</time>
      </trkpt>
      <trkpt lat="45.65112" lon="0.0858">
        <ele>52</ele>
        <time>2021-06-11T18:10:59Z</time>
      </trkpt>
      <trkpt lat="45.65123" lon="0.08554">
        <ele>52</ele>
        <time>2021-06-11T18:11:03Z</time>
      </trkpt>
      <trkpt lat="45.6513" lon="0.08554">
        <ele>52</ele>
        <time>2021-06-11T18:11:05Z</time>
      </trkpt>
      <trkpt lat="45.65134" lon="0.08549">
        <ele>52</ele>
        <time>2021-06-11T18:11:05Z</time>
      </trkpt>
      <trkpt lat="45.65135" lon="0.08541">
        <ele>53</ele>
        <time>2021-06-11T18:11:06Z</time>
      </trkpt>
      <trkpt lat="45.65132" lon="0.08534">
        <ele>53</ele>
        <time>2021-06-11T18:11:07Z</time>
      </trkpt>
      <trkpt lat="45.65127" lon="0.08531">
        <ele>53</ele>
        <time>2021-06-11T18:11:08Z</time>
      </trkpt>
      <trkpt lat="45.65119" lon="0.08444">
        <ele>51</ele>
        <time>2021-06-11T18:11:19Z</time>
      </trkpt>
      <trkpt lat="45.6503" lon="0.07957">
        <ele>29</ele>
        <time>2021-06-11T18:12:22Z</time>
      </trkpt>
      <trkpt lat="45.65026" lon="0.07937">
        <ele>29</ele>
        <time>2021-06-11T18:12:25Z</time>
      </trkpt>
      <trkpt lat="45.64927" lon="0.07404">
        <ele>47</ele>
        <time>2021-06-11T18:13:33Z</time>
      </trkpt>
      <trkpt lat="45.64909" lon="0.07341">
        <ele>48</ele>
        <time>2021-06-11T18:13:42Z</time>
      </trkpt>
      <trkpt lat="45.64897" lon="0.07308">
        <ele>49</ele>
        <time>2021-06-11T18:13:46Z</time>
      </trkpt>
      <trkpt lat="45.64813" lon="0.07075">
        <ele>47</ele>
        <time>2021-06-11T18:14:19Z</time>
      </trkpt>
      <trkpt lat="45.64793" lon="0.07019">
        <ele>47</ele>
        <time>2021-06-11T18:14:27Z</time>
      </trkpt>
      <trkpt lat="45.64738" lon="0.0687">
        <ele>49</ele>
        <time>2021-06-11T18:14:48Z</time>
      </trkpt>
      <trkpt lat="45.64693" lon="0.06754">
        <ele>51</ele>
        <time>2021-06-11T18:15:04Z</time>
      </trkpt>
      <trkpt lat="45.64652" lon="0.06656">
        <ele>47</ele>
        <time>2021-06-11T18:15:18Z</time>
      </trkpt>
      <trkpt lat="45.6462" lon="0.06586">
        <ele>47</ele>
        <time>2021-06-11T18:15:29Z</time>
      </trkpt>
      <trkpt lat="45.64577" lon="0.06503">
        <ele>47</ele>
        <time>2021-06-11T18:15:42Z</time>
      </trkpt>
      <trkpt lat="45.64467" lon="0.06326">
        <ele>40</ele>
        <time>2021-06-11T18:16:11Z</time>
      </trkpt>
      <trkpt lat="45.64454" lon="0.06302">
        <ele>39</ele>
        <time>2021-06-11T18:16:15Z</time>
      </trkpt>
      <trkpt lat="45.64431" lon="0.06244">
        <ele>39</ele>
        <time>2021-06-11T18:16:23Z</time>
      </trkpt>
      <trkpt lat="45.64416" lon="0.06192">
        <ele>39</ele>
        <time>2021-06-11T18:16:30Z</time>
      </trkpt>
      <trkpt lat="45.64393" lon="0.06101">
        <ele>40</ele>
        <time>2021-06-11T18:16:42Z</time>
      </trkpt>
      <trkpt lat="45.64363" lon="0.05962">
        <ele>38</ele>
        <time>2021-06-11T18:17:00Z</time>
      </trkpt>
      <trkpt lat="45.64356" lon="0.05914">
        <ele>38</ele>
        <time>2021-06-11T18:17:06Z</time>
      </trkpt>
      <trkpt lat="45.64319" lon="0.0553">
        <ele>43</ele>
        <time>2021-06-11T18:17:55Z</time>
      </trkpt>
      <trkpt lat="45.64314" lon="0.05437">
        <ele>39</ele>
        <time>2021-06-11T18:18:06Z</time>
      </trkpt>
      <trkpt lat="45.64311" lon="0.05397">
        <ele>39</ele>
        <time>2021-06-11T18:18:11Z</time>
      </trkpt>
      <trkpt lat="45.64314" lon="0.05396">
        <ele>39</ele>
        <time>2021-06-11T18:18:12Z</time>
      </trkpt>
      <trkpt lat="45.64318" lon="0.05391">
        <ele>39</ele>
        <time>2021-06-11T18:18:13Z</time>
      </trkpt>
      <trkpt lat="45.64319" lon="0.05387">
        <ele>40</ele>
        <time>2021-06-11T18:18:13Z</time>
      </trkpt>
      <trkpt lat="45.64319" lon="0.05378">
        <ele>40</ele>
        <time>2021-06-11T18:18:14Z</time>
      </trkpt>
      <trkpt lat="45.64315" lon="0.05371">
        <ele>40</ele>
        <time>2021-06-11T18:18:15Z</time>
      </trkpt>
      <trkpt lat="45.64309" lon="0.0537">
        <ele>39</ele>
        <time>2021-06-11T18:18:17Z</time>
      </trkpt>
      <trkpt lat="45.64306" lon="0.05371">
        <ele>39</ele>
        <time>2021-06-11T18:18:17Z</time>
      </trkpt>
      <trkpt lat="45.64246" lon="0.05126">
        <ele>42</ele>
        <time>2021-06-11T18:18:49Z</time>
      </trkpt>
      <trkpt lat="45.64231" lon="0.0508">
        <ele>42</ele>
        <time>2021-06-11T18:18:56Z</time>
      </trkpt>
      <trkpt lat="45.64202" lon="0.05006">
        <ele>44</ele>
        <time>2021-06-11T18:19:06Z</time>
      </trkpt>
      <trkpt lat="45.64153" lon="0.04887">
        <ele>42</ele>
        <time>2021-06-11T18:19:23Z</time>
      </trkpt>
      <trkpt lat="45.64138" lon="0.04843">
        <ele>41</ele>
        <time>2021-06-11T18:19:29Z</time>
      </trkpt>
      <trkpt lat="45.64111" lon="0.0475">
        <ele>43</ele>
        <time>2021-06-11T18:19:42Z</time>
      </trkpt>
      <trkpt lat="45.64071" lon="0.04648">
        <ele>39</ele>
        <time>2021-06-11T18:19:57Z</time>
      </trkpt>
      <trkpt lat="45.64069" lon="0.04636">
        <ele>39</ele>
        <time>2021-06-11T18:19:58Z</time>
      </trkpt>
      <trkpt lat="45.64069" lon="0.04622">
        <ele>39</ele>
        <time>2021-06-11T18:20:00Z</time>
      </trkpt>
      <trkpt lat="45.64072" lon="0.04611">
        <ele>39</ele>
        <time>2021-06-11T18:20:01Z</time>
      </trkpt>
      <trkpt lat="45.64077" lon="0.04602">
        <ele>39</ele>
        <time>2021-06-11T18:20:03Z</time>
      </trkpt>
      <trkpt lat="45.64087" lon="0.04598">
        <ele>40</ele>
        <time>2021-06-11T18:20:05Z</time>
      </trkpt>
      <trkpt lat="45.64109" lon="0.04597">
        <ele>43</ele>
        <time>2021-06-11T18:20:09Z</time>
      </trkpt>
      <trkpt lat="45.64158" lon="0.04584">
        <ele>48</ele>
        <time>2021-06-11T18:20:17Z</time>
      </trkpt>
      <trkpt lat="45.642" lon="0.04562">
        <ele>53</ele>
        <time>2021-06-11T18:20:25Z</time>
      </trkpt>
      <trkpt lat="45.64239" lon="0.04533">
        <ele>55</ele>
        <time>2021-06-11T18:20:33Z</time>
      </trkpt>
      <trkpt lat="45.64277" lon="0.04497">
        <ele>58</ele>
        <time>2021-06-11T18:20:41Z</time>
      </trkpt>
      <trkpt lat="45.64302" lon="0.0447">
        <ele>62</ele>
        <time>2021-06-11T18:20:47Z</time>
      </trkpt>
      <trkpt lat="45.64326" lon="0.0444">
        <ele>63</ele>
        <time>2021-06-11T18:20:53Z</time>
      </trkpt>
      <trkpt lat="45.64363" lon="0.04364">
        <ele>61</ele>
        <time>2021-06-11T18:21:04Z</time>
      </trkpt>
      <trkpt lat="45.64375" lon="0.04326">
        <ele>60</ele>
        <time>2021-06-11T18:21:09Z</time>
      </trkpt>
      <trkpt lat="45.64379" lon="0.04286">
        <ele>61</ele>
        <time>2021-06-11T18:21:14Z</time>
      </trkpt>
      <trkpt lat="45.64379" lon="0.042">
        <ele>63</ele>
        <time>2021-06-11T18:21:25Z</time>
      </trkpt>
      <trkpt lat="45.64384" lon="0.04171">
        <ele>64</ele>
        <time>2021-06-11T18:21:29Z</time>
      </trkpt>
      <trkpt lat="45.64393" lon="0.04145">
        <ele>64</ele>
        <time>2021-06-11T18:21:32Z</time>
      </trkpt>
      <trkpt lat="45.64404" lon="0.04121">
        <ele>64</ele>
        <time>2021-06-11T18:21:36Z</time>
      </trkpt>
      <trkpt lat="45.6443" lon="0.04079">
        <ele>64</ele>
        <time>2021-06-11T18:21:43Z</time>
      </trkpt>
      <trkpt lat="45.64447" lon="0.04043">
        <ele>66</ele>
        <time>2021-06-11T18:21:48Z</time>
      </trkpt>
      <trkpt lat="45.64475" lon="0.03897">
        <ele>72</ele>
        <time>2021-06-11T18:22:07Z</time>
      </trkpt>
      <trkpt lat="45.64479" lon="0.03867">
        <ele>73</ele>
        <time>2021-06-11T18:22:11Z</time>
      </trkpt>
      <trkpt lat="45.6448" lon="0.03842">
        <ele>73</ele>
        <time>2021-06-11T18:22:14Z</time>
      </trkpt>
      <trkpt lat="45.64478" lon="0.03807">
        <ele>75</ele>
        <time>2021-06-11T18:22:18Z</time>
      </trkpt>
      <trkpt lat="45.64455" lon="0.03607">
        <ele>81</ele>
        <time>2021-06-11T18:22:44Z</time>
      </trkpt>
      <trkpt lat="45.64456" lon="0.03579">
        <ele>82</ele>
        <time>2021-06-11T18:22:47Z</time>
      </trkpt>
      <trkpt lat="45.6446" lon="0.03564">
        <ele>83</ele>
        <time>2021-06-11T18:22:49Z</time>
      </trkpt>
      <trkpt lat="45.64466" lon="0.0355">
        <ele>84</ele>
        <time>2021-06-11T18:22:51Z</time>
      </trkpt>
      <trkpt lat="45.64481" lon="0.03532">
        <ele>86</ele>
        <time>2021-06-11T18:22:55Z</time>
      </trkpt>
      <trkpt lat="45.64498" lon="0.03516">
        <ele>87</ele>
        <time>2021-06-11T18:22:58Z</time>
      </trkpt>
      <trkpt lat="45.6456" lon="0.03479">
        <ele>87</ele>
        <time>2021-06-11T18:23:10Z</time>
      </trkpt>
      <trkpt lat="45.64572" lon="0.03469">
        <ele>87</ele>
        <time>2021-06-11T18:23:13Z</time>
      </trkpt>
      <trkpt lat="45.64583" lon="0.03454">
        <ele>86</ele>
        <time>2021-06-11T18:23:15Z</time>
      </trkpt>
      <trkpt lat="45.6459" lon="0.03438">
        <ele>85</ele>
        <time>2021-06-11T18:23:18Z</time>
      </trkpt>
      <trkpt lat="45.64595" lon="0.03419">
        <ele>84</ele>
        <time>2021-06-11T18:23:20Z</time>
      </trkpt>
      <trkpt lat="45.64596" lon="0.03401">
        <ele>83</ele>
        <time>2021-06-11T18:23:22Z</time>
      </trkpt>
      <trkpt lat="45.64595" lon="0.03384">
        <ele>82</ele>
        <time>2021-06-11T18:23:25Z</time>
      </trkpt>
      <trkpt lat="45.64592" lon="0.03362">
        <ele>81</ele>
        <time>2021-06-11T18:23:27Z</time>
      </trkpt>
      <trkpt lat="45.64538" lon="0.03126">
        <ele>74</ele>
        <time>2021-06-11T18:23:58Z</time>
      </trkpt>
      <trkpt lat="45.64531" lon="0.03106">
        <ele>74</ele>
        <time>2021-06-11T18:24:01Z</time>
      </trkpt>
      <trkpt lat="45.64492" lon="0.03039">
        <ele>75</ele>
        <time>2021-06-11T18:24:12Z</time>
      </trkpt>
      <trkpt lat="45.64486" lon="0.0302">
        <ele>75</ele>
        <time>2021-06-11T18:24:14Z</time>
      </trkpt>
      <trkpt lat="45.64482" lon="0.02982">
        <ele>74</ele>
        <time>2021-06-11T18:24:19Z</time>
      </trkpt>
      <trkpt lat="45.64486" lon="0.02888">
        <ele>71</ele>
        <time>2021-06-11T18:24:31Z</time>
      </trkpt>
      <trkpt lat="45.64495" lon="0.02809">
        <ele>68</ele>
        <time>2021-06-11T18:24:41Z</time>
      </trkpt>
      <trkpt lat="45.64496" lon="0.02789">
        <ele>67</ele>
        <time>2021-06-11T18:24:43Z</time>
      </trkpt>
      <trkpt lat="45.64492" lon="0.02771">
        <ele>67</ele>
        <time>2021-06-11T18:24:46Z</time>
      </trkpt>
      <trkpt lat="45.64451" lon="0.02645">
        <ele>59</ele>
        <time>2021-06-11T18:25:03Z</time>
      </trkpt>
      <trkpt lat="45.64434" lon="0.02605">
        <ele>57</ele>
        <time>2021-06-11T18:25:09Z</time>
      </trkpt>
      <trkpt lat="45.64151" lon="0.02148">
        <ele>48</ele>
        <time>2021-06-11T18:26:25Z</time>
      </trkpt>
      <trkpt lat="45.64143" lon="0.02132">
        <ele>48</ele>
        <time>2021-06-11T18:26:27Z</time>
      </trkpt>
      <trkpt lat="45.64138" lon="0.02114">
        <ele>48</ele>
        <time>2021-06-11T18:26:30Z</time>
      </trkpt>
      <trkpt lat="45.64134" lon="0.02054">
        <ele>48</ele>
        <time>2021-06-11T18:26:37Z</time>
      </trkpt>
      <trkpt lat="45.64134" lon="0.0196">
        <ele>48</ele>
        <time>2021-06-11T18:26:49Z</time>
      </trkpt>
      <trkpt lat="45.64135" lon="0.01933">
        <ele>47</ele>
        <time>2021-06-11T18:26:52Z</time>
      </trkpt>
      <trkpt lat="45.6414" lon="0.0191">
        <ele>46</ele>
        <time>2021-06-11T18:26:55Z</time>
      </trkpt>
      <trkpt lat="45.64147" lon="0.01888">
        <ele>45</ele>
        <time>2021-06-11T18:26:58Z</time>
      </trkpt>
      <trkpt lat="45.64218" lon="0.01766">
        <ele>46</ele>
        <time>2021-06-11T18:27:18Z</time>
      </trkpt>
      <trkpt lat="45.64226" lon="0.01747">
        <ele>48</ele>
        <time>2021-06-11T18:27:21Z</time>
      </trkpt>
      <trkpt lat="45.64231" lon="0.0173">
        <ele>49</ele>
        <time>2021-06-11T18:27:23Z</time>
      </trkpt>
      <trkpt lat="45.64231" lon="0.01712">
        <ele>50</ele>
        <time>2021-06-11T18:27:25Z</time>
      </trkpt>
      <trkpt lat="45.64227" lon="0.01694">
        <ele>50</ele>
        <time>2021-06-11T18:27:28Z</time>
      </trkpt>
      <trkpt lat="45.64218" lon="0.01674">
        <ele>50</ele>
        <time>2021-06-11T18:27:31Z</time>
      </trkpt>
      <trkpt lat="45.64209" lon="0.01663">
        <ele>49</ele>
        <time>2021-06-11T18:27:33Z</time>
      </trkpt>
      <trkpt lat="45.64054" lon="0.01516">
        <ele>42</ele>
        <time>2021-06-11T18:28:06Z</time>
      </trkpt>
      <trkpt lat="45.64034" lon="0.01491">
        <ele>41</ele>
        <time>2021-06-11T18:28:10Z</time>
      </trkpt>
      <trkpt lat="45.64008" lon="0.01438">
        <ele>40</ele>
        <time>2021-06-11T18:28:19Z</time>
      </trkpt>
      <trkpt lat="45.63939" lon="0.01283">
        <ele>40</ele>
        <time>2021-06-11T18:28:41Z</time>
      </trkpt>
      <trkpt lat="45.63906" lon="0.01229">
        <ele>39</ele>
        <time>2021-06-11T18:28:50Z</time>
      </trkpt>
      <trkpt lat="45.6382" lon="0.01099">
        <ele>40</ele>
        <time>2021-06-11T18:29:13Z</time>
      </trkpt>
      <trkpt lat="45.63798" lon="0.01061">
        <ele>40</ele>
        <time>2021-06-11T18:29:19Z</time>
      </trkpt>
      <trkpt lat="45.6378" lon="0.01007">
        <ele>41</ele>
        <time>2021-06-11T18:29:26Z</time>
      </trkpt>
      <trkpt lat="45.63747" lon="0.00881">
        <ele>37</ele>
        <time>2021-06-11T18:29:43Z</time>
      </trkpt>
      <trkpt lat="45.63736" lon="0.00857">
        <ele>36</ele>
        <time>2021-06-11T18:29:46Z</time>
      </trkpt>
      <trkpt lat="45.63725" lon="0.00837">
        <ele>36</ele>
        <time>2021-06-11T18:29:50Z</time>
      </trkpt>
      <trkpt lat="45.63709" lon="0.00818">
        <ele>36</ele>
        <time>2021-06-11T18:29:53Z</time>
      </trkpt>
      <trkpt lat="45.63694" lon="0.00796">
        <ele>35</ele>
        <time>2021-06-11T18:29:57Z</time>
      </trkpt>
      <trkpt lat="45.63683" lon="0.0077">
        <ele>34</ele>
        <time>2021-06-11T18:30:01Z</time>
      </trkpt>
      <trkpt lat="45.63673" lon="0.00732">
        <ele>33</ele>
        <time>2021-06-11T18:30:06Z</time>
      </trkpt>
      <trkpt lat="45.63663" lon="0.00681">
        <ele>33</ele>
        <time>2021-06-11T18:30:13Z</time>
      </trkpt>
      <trkpt lat="45.63661" lon="0.00646">
        <ele>33</ele>
        <time>2021-06-11T18:30:17Z</time>
      </trkpt>
      <trkpt lat="45.63662" lon="0.00618">
        <ele>32</ele>
        <time>2021-06-11T18:30:20Z</time>
      </trkpt>
      <trkpt lat="45.63672" lon="0.00539">
        <ele>31</ele>
        <time>2021-06-11T18:30:30Z</time>
      </trkpt>
      <trkpt lat="45.63672" lon="0.00512">
        <ele>30</ele>
        <time>2021-06-11T18:30:34Z</time>
      </trkpt>
      <trkpt lat="45.63641" lon="0.0031">
        <ele>31</ele>
        <time>2021-06-11T18:31:00Z</time>
      </trkpt>
      <trkpt lat="45.63623" lon="0.00247">
        <ele>30</ele>
        <time>2021-06-11T18:31:08Z</time>
      </trkpt>
      <trkpt lat="45.63584" lon="0.00167">
        <ele>30</ele>
        <time>2021-06-11T18:31:20Z</time>
      </trkpt>
      <trkpt lat="45.63531" lon="-0.00014">
        <ele>30</ele>
        <time>2021-06-11T18:31:45Z</time>
      </trkpt>
      <trkpt lat="45.63515" lon="-0.00066">
        <ele>29</ele>
        <time>2021-06-11T18:31:52Z</time>
      </trkpt>
      <trkpt lat="45.63503" lon="-0.00092">
        <ele>28</ele>
        <time>2021-06-11T18:31:55Z</time>
      </trkpt>
      <trkpt lat="45.635" lon="-0.00107">
        <ele>27</ele>
        <time>2021-06-11T18:31:57Z</time>
      </trkpt>
      <trkpt lat="45.63499" lon="-0.00124">
        <ele>27</ele>
        <time>2021-06-11T18:32:00Z</time>
      </trkpt>
      <trkpt lat="45.63501" lon="-0.00139">
        <ele>26</ele>
        <time>2021-06-11T18:32:01Z</time>
      </trkpt>
      <trkpt lat="45.63516" lon="-0.00193">
        <ele>26</ele>
        <time>2021-06-11T18:32:09Z</time>
      </trkpt>
      <trkpt lat="45.63517" lon="-0.00204">
        <ele>26</ele>
        <time>2021-06-11T18:32:10Z</time>
      </trkpt>
      <trkpt lat="45.63515" lon="-0.00223">
        <ele>26</ele>
        <time>2021-06-11T18:32:12Z</time>
      </trkpt>
      <trkpt lat="45.63508" lon="-0.00238">
        <ele>25</ele>
        <time>2021-06-11T18:32:15Z</time>
      </trkpt>
      <trkpt lat="45.63501" lon="-0.00247">
        <ele>25</ele>
        <time>2021-06-11T18:32:16Z</time>
      </trkpt>
      <trkpt lat="45.63497" lon="-0.00252">
        <ele>25</ele>
        <time>2021-06-11T18:32:17Z</time>
      </trkpt>
      <trkpt lat="45.63467" lon="-0.00284">
        <ele>25</ele>
        <time>2021-06-11T18:32:24Z</time>
      </trkpt>
      <trkpt lat="45.63456" lon="-0.00302">
        <ele>25</ele>
        <time>2021-06-11T18:32:27Z</time>
      </trkpt>
      <trkpt lat="45.63452" lon="-0.00314">
        <ele>25</ele>
        <time>2021-06-11T18:32:29Z</time>
      </trkpt>
      <trkpt lat="45.63449" lon="-0.00342">
        <ele>26</ele>
        <time>2021-06-11T18:32:32Z</time>
      </trkpt>
      <trkpt lat="45.63455" lon="-0.00411">
        <ele>27</ele>
        <time>2021-06-11T18:32:41Z</time>
      </trkpt>
      <trkpt lat="45.63458" lon="-0.00427">
        <ele>27</ele>
        <time>2021-06-11T18:32:43Z</time>
      </trkpt>
      <trkpt lat="45.63457" lon="-0.00437">
        <ele>27</ele>
        <time>2021-06-11T18:32:44Z</time>
      </trkpt>
      <trkpt lat="45.6346" lon="-0.0066">
        <ele>29</ele>
        <time>2021-06-11T18:33:12Z</time>
      </trkpt>
      <trkpt lat="45.63453" lon="-0.00942">
        <ele>31</ele>
        <time>2021-06-11T18:33:47Z</time>
      </trkpt>
      <trkpt lat="45.63415" lon="-0.01123">
        <ele>28</ele>
        <time>2021-06-11T18:34:10Z</time>
      </trkpt>
      <trkpt lat="45.6339" lon="-0.01238">
        <ele>29</ele>
        <time>2021-06-11T18:34:25Z</time>
      </trkpt>
      <trkpt lat="45.63339" lon="-0.01426">
        <ele>32</ele>
        <time>2021-06-11T18:34:51Z</time>
      </trkpt>
      <trkpt lat="45.63301" lon="-0.01555">
        <ele>36</ele>
        <time>2021-06-11T18:35:08Z</time>
      </trkpt>
      <trkpt lat="45.63233" lon="-0.01713">
        <ele>32</ele>
        <time>2021-06-11T18:35:31Z</time>
      </trkpt>
      <trkpt lat="45.63138" lon="-0.01893">
        <ele>29</ele>
        <time>2021-06-11T18:35:59Z</time>
      </trkpt>
      <trkpt lat="45.63062" lon="-0.02042">
        <ele>29</ele>
        <time>2021-06-11T18:36:22Z</time>
      </trkpt>
      <trkpt lat="45.63029" lon="-0.02103">
        <ele>33</ele>
        <time>2021-06-11T18:36:32Z</time>
      </trkpt>
      <trkpt lat="45.6301" lon="-0.02131">
        <ele>35</ele>
        <time>2021-06-11T18:36:36Z</time>
      </trkpt>
      <trkpt lat="45.62591" lon="-0.02555">
        <ele>26</ele>
        <time>2021-06-11T18:38:08Z</time>
      </trkpt>
      <trkpt lat="45.62574" lon="-0.02579">
        <ele>25</ele>
        <time>2021-06-11T18:38:12Z</time>
      </trkpt>
      <trkpt lat="45.6256" lon="-0.0261">
        <ele>25</ele>
        <time>2021-06-11T18:38:17Z</time>
      </trkpt>
      <trkpt lat="45.62552" lon="-0.02637">
        <ele>26</ele>
        <time>2021-06-11T18:38:20Z</time>
      </trkpt>
      <trkpt lat="45.62534" lon="-0.02687">
        <ele>25</ele>
        <time>2021-06-11T18:38:27Z</time>
      </trkpt>
      <trkpt lat="45.62523" lon="-0.02705">
        <ele>24</ele>
        <time>2021-06-11T18:38:30Z</time>
      </trkpt>
      <trkpt lat="45.62507" lon="-0.02724">
        <ele>23</ele>
        <time>2021-06-11T18:38:34Z</time>
      </trkpt>
      <trkpt lat="45.62502" lon="-0.02728">
        <ele>22</ele>
        <time>2021-06-11T18:38:35Z</time>
      </trkpt>
      <trkpt lat="45.62476" lon="-0.02734">
        <ele>22</ele>
        <time>2021-06-11T18:38:40Z</time>
      </trkpt>
      <trkpt lat="45.6244" lon="-0.02739">
        <ele>22</ele>
        <time>2021-06-11T18:38:46Z</time>
      </trkpt>
      <trkpt lat="45.62413" lon="-0.0276">
        <ele>23</ele>
        <time>2021-06-11T18:38:52Z</time>
      </trkpt>
      <trkpt lat="45.62402" lon="-0.02774">
        <ele>25</ele>
        <time>2021-06-11T18:38:54Z</time>
      </trkpt>
      <trkpt lat="45.6234" lon="-0.02835">
        <ele>27</ele>
        <time>2021-06-11T18:39:08Z</time>
      </trkpt>
      <trkpt lat="45.62334" lon="-0.02836">
        <ele>26</ele>
        <time>2021-06-11T18:39:09Z</time>
      </trkpt>
      <trkpt lat="45.6233" lon="-0.02834">
        <ele>26</ele>
        <time>2021-06-11T18:39:09Z</time>
      </trkpt>
      <trkpt lat="45.62324" lon="-0.02824">
        <ele>26</ele>
        <time>2021-06-11T18:39:11Z</time>
      </trkpt>
      <trkpt lat="45.62244" lon="-0.02727">
        <ele>23</ele>
        <time>2021-06-11T18:39:30Z</time>
      </trkpt>
      <trkpt lat="45.62239" lon="-0.02715">
        <ele>22</ele>
        <time>2021-06-11T18:39:31Z</time>
      </trkpt>
      <trkpt lat="45.62235" lon="-0.02702">
        <ele>22</ele>
        <time>2021-06-11T18:39:33Z</time>
      </trkpt>
      <trkpt lat="45.62233" lon="-0.02683">
        <ele>22</ele>
        <time>2021-06-11T18:39:36Z</time>
      </trkpt>
      <trkpt lat="45.62234" lon="-0.02664">
        <ele>22</ele>
        <time>2021-06-11T18:39:38Z</time>
      </trkpt>
      <trkpt lat="45.6224" lon="-0.02556">
        <ele>24</ele>
        <time>2021-06-11T18:39:51Z</time>
      </trkpt>
      <trkpt lat="45.62241" lon="-0.02531">
        <ele>24</ele>
        <time>2021-06-11T18:39:55Z</time>
      </trkpt>
      <trkpt lat="45.62283" lon="-0.02383">
        <ele>22</ele>
        <time>2021-06-11T18:40:14Z</time>
      </trkpt>
      <trkpt lat="45.62284" lon="-0.02367">
        <ele>22</ele>
        <time>2021-06-11T18:40:16Z</time>
      </trkpt>
      <trkpt lat="45.62285" lon="-0.02358">
        <ele>22</ele>
        <time>2021-06-11T18:40:18Z</time>
      </trkpt>
      <trkpt lat="45.62278" lon="-0.02334">
        <ele>21</ele>
        <time>2021-06-11T18:40:21Z</time>
      </trkpt>
      <trkpt lat="45.62185" lon="-0.02108">
        <ele>21</ele>
        <time>2021-06-11T18:40:53Z</time>
      </trkpt>
      <trkpt lat="45.62168" lon="-0.02055">
        <ele>20</ele>
        <time>2021-06-11T18:41:01Z</time>
      </trkpt>
      <trkpt lat="45.6215" lon="-0.02014">
        <ele>21</ele>
        <time>2021-06-11T18:41:07Z</time>
      </trkpt>
      <trkpt lat="45.62102" lon="-0.01925">
        <ele>23</ele>
        <time>2021-06-11T18:41:21Z</time>
      </trkpt>
      <trkpt lat="45.62097" lon="-0.01915">
        <ele>23</ele>
        <time>2021-06-11T18:41:22Z</time>
      </trkpt>
      <trkpt lat="45.62018" lon="-0.01761">
        <ele>24</ele>
        <time>2021-06-11T18:41:46Z</time>
      </trkpt>
      <trkpt lat="45.62014" lon="-0.0176">
        <ele>24</ele>
        <time>2021-06-11T18:41:47Z</time>
      </trkpt>
      <trkpt lat="45.6201" lon="-0.01759">
        <ele>25</ele>
        <time>2021-06-11T18:41:47Z</time>
      </trkpt>
      <trkpt lat="45.62001" lon="-0.01761">
        <ele>25</ele>
        <time>2021-06-11T18:41:49Z</time>
      </trkpt>
      <trkpt lat="45.61924" lon="-0.01805">
        <ele>27</ele>
        <time>2021-06-11T18:42:04Z</time>
      </trkpt>
      <trkpt lat="45.61901" lon="-0.01822">
        <ele>27</ele>
        <time>2021-06-11T18:42:08Z</time>
      </trkpt>
      <trkpt lat="45.61878" lon="-0.01846">
        <ele>27</ele>
        <time>2021-06-11T18:42:14Z</time>
      </trkpt>
      <trkpt lat="45.61865" lon="-0.01862">
        <ele>27</ele>
        <time>2021-06-11T18:42:17Z</time>
      </trkpt>
      <trkpt lat="45.61861" lon="-0.01869">
        <ele>26</ele>
        <time>2021-06-11T18:42:18Z</time>
      </trkpt>
      <trkpt lat="45.61855" lon="-0.01884">
        <ele>26</ele>
        <time>2021-06-11T18:42:20Z</time>
      </trkpt>
      <trkpt lat="45.61838" lon="-0.01903">
        <ele>26</ele>
        <time>2021-06-11T18:42:24Z</time>
      </trkpt>
      <trkpt lat="45.61822" lon="-0.01914">
        <ele>26</ele>
        <time>2021-06-11T18:42:27Z</time>
      </trkpt>
      <trkpt lat="45.61802" lon="-0.0192">
        <ele>26</ele>
        <time>2021-06-11T18:42:30Z</time>
      </trkpt>
      <trkpt lat="45.61778" lon="-0.01922">
        <ele>26</ele>
        <time>2021-06-11T18:42:35Z</time>
      </trkpt>
      <trkpt lat="45.61753" lon="-0.01923">
        <ele>26</ele>
        <time>2021-06-11T18:42:39Z</time>
      </trkpt>
      <trkpt lat="45.61739" lon="-0.01924">
        <ele>26</ele>
        <time>2021-06-11T18:42:42Z</time>
      </trkpt>
      <trkpt lat="45.61709" lon="-0.01932">
        <ele>25</ele>
        <time>2021-06-11T18:42:47Z</time>
      </trkpt>
      <trkpt lat="45.61539" lon="-0.01998">
        <ele>25</ele>
        <time>2021-06-11T18:43:18Z</time>
      </trkpt>
      <trkpt lat="45.61505" lon="-0.02012">
        <ele>26</ele>
        <time>2021-06-11T18:43:25Z</time>
      </trkpt>
      <trkpt lat="45.61463" lon="-0.02036">
        <ele>25</ele>
        <time>2021-06-11T18:43:33Z</time>
      </trkpt>
      <trkpt lat="45.61426" lon="-0.02058">
        <ele>24</ele>
        <time>2021-06-11T18:43:40Z</time>
      </trkpt>
      <trkpt lat="45.61301" lon="-0.02136">
        <ele>24</ele>
        <time>2021-06-11T18:44:04Z</time>
      </trkpt>
      <trkpt lat="45.61179" lon="-0.02205">
        <ele>23</ele>
        <time>2021-06-11T18:44:28Z</time>
      </trkpt>
      <trkpt lat="45.61152" lon="-0.02211">
        <ele>23</ele>
        <time>2021-06-11T18:44:32Z</time>
      </trkpt>
      <trkpt lat="45.61121" lon="-0.02212">
        <ele>23</ele>
        <time>2021-06-11T18:44:38Z</time>
      </trkpt>
      <trkpt lat="45.61077" lon="-0.02198">
        <ele>22</ele>
        <time>2021-06-11T18:44:46Z</time>
      </trkpt>
      <trkpt lat="45.6105" lon="-0.02193">
        <ele>22</ele>
        <time>2021-06-11T18:44:51Z</time>
      </trkpt>
      <trkpt lat="45.61026" lon="-0.02195">
        <ele>23</ele>
        <time>2021-06-11T18:44:55Z</time>
      </trkpt>
      <trkpt lat="45.60978" lon="-0.02215">
        <ele>23</ele>
        <time>2021-06-11T18:45:04Z</time>
      </trkpt>
      <trkpt lat="45.60885" lon="-0.02255">
        <ele>23</ele>
        <time>2021-06-11T18:45:21Z</time>
      </trkpt>
      <trkpt lat="45.6087" lon="-0.02261">
        <ele>23</ele>
        <time>2021-06-11T18:45:24Z</time>
      </trkpt>
      <trkpt lat="45.60798" lon="-0.02317">
        <ele>24</ele>
        <time>2021-06-11T18:45:39Z</time>
      </trkpt>
      <trkpt lat="45.60786" lon="-0.02327">
        <ele>25</ele>
        <time>2021-06-11T18:45:41Z</time>
      </trkpt>
      <trkpt lat="45.60717" lon="-0.02382">
        <ele>26</ele>
        <time>2021-06-11T18:45:55Z</time>
      </trkpt>
      <trkpt lat="45.60677" lon="-0.02415">
        <ele>26</ele>
        <time>2021-06-11T18:46:03Z</time>
      </trkpt>
      <trkpt lat="45.60565" lon="-0.02511">
        <ele>25</ele>
        <time>2021-06-11T18:46:27Z</time>
      </trkpt>
      <trkpt lat="45.60527" lon="-0.02541">
        <ele>25</ele>
        <time>2021-06-11T18:46:34Z</time>
      </trkpt>
      <trkpt lat="45.60474" lon="-0.02581">
        <ele>24</ele>
        <time>2021-06-11T18:46:45Z</time>
      </trkpt>
      <trkpt lat="45.60437" lon="-0.02606">
        <ele>25</ele>
        <time>2021-06-11T18:46:52Z</time>
      </trkpt>
      <trkpt lat="45.6039" lon="-0.02637">
        <ele>24</ele>
        <time>2021-06-11T18:47:01Z</time>
      </trkpt>
      <trkpt lat="45.60306" lon="-0.02694">
        <ele>23</ele>
        <time>2021-06-11T18:47:18Z</time>
      </trkpt>
      <trkpt lat="45.60282" lon="-0.02716">
        <ele>23</ele>
        <time>2021-06-11T18:47:23Z</time>
      </trkpt>
      <trkpt lat="45.6021" lon="-0.02781">
        <ele>23</ele>
        <time>2021-06-11T18:47:38Z</time>
      </trkpt>
      <trkpt lat="45.60189" lon="-0.02802">
        <ele>23</ele>
        <time>2021-06-11T18:47:43Z</time>
      </trkpt>
      <trkpt lat="45.60141" lon="-0.0285">
        <ele>23</ele>
        <time>2021-06-11T18:47:53Z</time>
      </trkpt>
      <trkpt lat="45.60125" lon="-0.02867">
        <ele>22</ele>
        <time>2021-06-11T18:47:57Z</time>
      </trkpt>
      <trkpt lat="45.60072" lon="-0.02937">
        <ele>21</ele>
        <time>2021-06-11T18:48:10Z</time>
      </trkpt>
      <trkpt lat="45.6003" lon="-0.03011">
        <ele>20</ele>
        <time>2021-06-11T18:48:21Z</time>
      </trkpt>
      <trkpt lat="45.60005" lon="-0.03072">
        <ele>20</ele>
        <time>2021-06-11T18:48:30Z</time>
      </trkpt>
      <trkpt lat="45.59977" lon="-0.03153">
        <ele>20</ele>
        <time>2021-06-11T18:48:42Z</time>
      </trkpt>
      <trkpt lat="45.59951" lon="-0.03222">
        <ele>19</ele>
        <time>2021-06-11T18:48:51Z</time>
      </trkpt>
      <trkpt lat="45.59916" lon="-0.03289">
        <ele>19</ele>
        <time>2021-06-11T18:49:02Z</time>
      </trkpt>
      <trkpt lat="45.59828" lon="-0.03432">
        <ele>22</ele>
        <time>2021-06-11T18:49:25Z</time>
      </trkpt>
      <trkpt lat="45.59765" lon="-0.03528">
        <ele>23</ele>
        <time>2021-06-11T18:49:42Z</time>
      </trkpt>
      <trkpt lat="45.59746" lon="-0.03572">
        <ele>25</ele>
        <time>2021-06-11T18:49:48Z</time>
      </trkpt>
      <trkpt lat="45.5974" lon="-0.03581">
        <ele>25</ele>
        <time>2021-06-11T18:49:50Z</time>
      </trkpt>
      <trkpt lat="45.59734" lon="-0.03588">
        <ele>26</ele>
        <time>2021-06-11T18:49:51Z</time>
      </trkpt>
      <trkpt lat="45.59721" lon="-0.036">
        <ele>27</ele>
        <time>2021-06-11T18:49:54Z</time>
      </trkpt>
      <trkpt lat="45.59715" lon="-0.03608">
        <ele>28</ele>
        <time>2021-06-11T18:49:55Z</time>
      </trkpt>
      <trkpt lat="45.59684" lon="-0.03656">
        <ele>28</ele>
        <time>2021-06-11T18:50:03Z</time>
      </trkpt>
      <trkpt lat="45.59682" lon="-0.03657">
        <ele>28</ele>
        <time>2021-06-11T18:50:04Z</time>
      </trkpt>
      <trkpt lat="45.59677" lon="-0.03678">
        <ele>27</ele>
        <time>2021-06-11T18:50:07Z</time>
      </trkpt>
      <trkpt lat="45.59645" lon="-0.0378">
        <ele>25</ele>
        <time>2021-06-11T18:50:21Z</time>
      </trkpt>
      <trkpt lat="45.59641" lon="-0.03807">
        <ele>25</ele>
        <time>2021-06-11T18:50:24Z</time>
      </trkpt>
      <trkpt lat="45.59643" lon="-0.0384">
        <ele>25</ele>
        <time>2021-06-11T18:50:28Z</time>
      </trkpt>
      <trkpt lat="45.59654" lon="-0.03903">
        <ele>25</ele>
        <time>2021-06-11T18:50:36Z</time>
      </trkpt>
      <trkpt lat="45.59694" lon="-0.04107">
        <ele>29</ele>
        <time>2021-06-11T18:51:03Z</time>
      </trkpt>
      <trkpt lat="45.59699" lon="-0.04158">
        <ele>29</ele>
        <time>2021-06-11T18:51:09Z</time>
      </trkpt>
      <trkpt lat="45.5971" lon="-0.04483">
        <ele>26</ele>
        <time>2021-06-11T18:51:49Z</time>
      </trkpt>
      <trkpt lat="45.59756" lon="-0.04465">
        <ele>21</ele>
        <time>2021-06-11T18:51:58Z</time>
      </trkpt>
      <trkpt lat="45.59761" lon="-0.04472">
        <ele>21</ele>
        <time>2021-06-11T18:51:59Z</time>
      </trkpt>
      <trkpt lat="45.59773" lon="-0.0457">
        <ele>21</ele>
        <time>2021-06-11T18:52:12Z</time>
      </trkpt>
      <trkpt lat="45.59776" lon="-0.04594">
        <ele>21</ele>
        <time>2021-06-11T18:52:15Z</time>
      </trkpt>
      <trkpt lat="45.59787" lon="-0.04625">
        <ele>21</ele>
        <time>2021-06-11T18:52:19Z</time>
      </trkpt>
      <trkpt lat="45.598" lon="-0.04647">
        <ele>21</ele>
        <time>2021-06-11T18:52:23Z</time>
      </trkpt>
      <trkpt lat="45.59813" lon="-0.04659">
        <ele>21</ele>
        <time>2021-06-11T18:52:25Z</time>
      </trkpt>
      <trkpt lat="45.59841" lon="-0.04672">
        <ele>20</ele>
        <time>2021-06-11T18:52:31Z</time>
      </trkpt>
      <trkpt lat="45.5988" lon="-0.04697">
        <ele>20</ele>
        <time>2021-06-11T18:52:38Z</time>
      </trkpt>
      <trkpt lat="45.59913" lon="-0.04708">
        <ele>20</ele>
        <time>2021-06-11T18:52:44Z</time>
      </trkpt>
      <trkpt lat="45.59929" lon="-0.04716">
        <ele>20</ele>
        <time>2021-06-11T18:52:47Z</time>
      </trkpt>
      <trkpt lat="45.59931" lon="-0.04715">
        <ele>20</ele>
        <time>2021-06-11T18:52:48Z</time>
      </trkpt>
      <trkpt lat="45.59953" lon="-0.04734">
        <ele>20</ele>
        <time>2021-06-11T18:52:52Z</time>
      </trkpt>
      <trkpt lat="45.59997" lon="-0.04789">
        <ele>21</ele>
        <time>2021-06-11T18:53:03Z</time>
      </trkpt>
      <trkpt lat="45.60012" lon="-0.04824">
        <ele>20</ele>
        <time>2021-06-11T18:53:08Z</time>
      </trkpt>
      <trkpt lat="45.60037" lon="-0.04896">
        <ele>21</ele>
        <time>2021-06-11T18:53:18Z</time>
      </trkpt>
      <trkpt lat="45.60059" lon="-0.04973">
        <ele>21</ele>
        <time>2021-06-11T18:53:28Z</time>
      </trkpt>
      <trkpt lat="45.60077" lon="-0.05056">
        <ele>20</ele>
        <time>2021-06-11T18:53:39Z</time>
      </trkpt>
      <trkpt lat="45.6008" lon="-0.05082">
        <ele>20</ele>
        <time>2021-06-11T18:53:42Z</time>
      </trkpt>
      <trkpt lat="45.60098" lon="-0.05151">
        <ele>21</ele>
        <time>2021-06-11T18:53:51Z</time>
      </trkpt>
      <trkpt lat="45.60102" lon="-0.05159">
        <ele>21</ele>
        <time>2021-06-11T18:53:52Z</time>
      </trkpt>
      <trkpt lat="45.60168" lon="-0.05057">
        <ele>20</ele>
        <time>2021-06-11T18:54:10Z</time>
      </trkpt>
      <trkpt lat="45.60183" lon="-0.05041">
        <ele>20</ele>
        <time>2021-06-11T18:54:13Z</time>
      </trkpt>
      <trkpt lat="45.60193" lon="-0.05033">
        <ele>20</ele>
        <time>2021-06-11T18:54:15Z</time>
      </trkpt>
      <trkpt lat="45.60209" lon="-0.05026">
        <ele>20</ele>
        <time>2021-06-11T18:54:18Z</time>
      </trkpt>
      <trkpt lat="45.60459" lon="-0.04944">
        <ele>20</ele>
        <time>2021-06-11T18:55:04Z</time>
      </trkpt>
      <trkpt lat="45.60466" lon="-0.04939">
        <ele>20</ele>
        <time>2021-06-11T18:55:05Z</time>
      </trkpt>
      <trkpt lat="45.6047" lon="-0.04936">
        <ele>20</ele>
        <time>2021-06-11T18:55:06Z</time>
      </trkpt>
      <trkpt lat="45.60522" lon="-0.04889">
        <ele>20</ele>
        <time>2021-06-11T18:55:17Z</time>
      </trkpt>
      <trkpt lat="45.60567" lon="-0.04848">
        <ele>21</ele>
        <time>2021-06-11T18:55:26Z</time>
      </trkpt>
      <trkpt lat="45.60577" lon="-0.04839">
        <ele>22</ele>
        <time>2021-06-11T18:55:29Z</time>
      </trkpt>
      <trkpt lat="45.60592" lon="-0.04828">
        <ele>22</ele>
        <time>2021-06-11T18:55:32Z</time>
      </trkpt>
      <trkpt lat="45.6063" lon="-0.04801">
        <ele>23</ele>
        <time>2021-06-11T18:55:39Z</time>
      </trkpt>
      <trkpt lat="45.60655" lon="-0.04784">
        <ele>23</ele>
        <time>2021-06-11T18:55:44Z</time>
      </trkpt>
      <trkpt lat="45.6071" lon="-0.04741">
        <ele>25</ele>
        <time>2021-06-11T18:55:55Z</time>
      </trkpt>
      <trkpt lat="45.60787" lon="-0.04689">
        <ele>25</ele>
        <time>2021-06-11T18:56:10Z</time>
      </trkpt>
      <trkpt lat="45.60847" lon="-0.0466">
        <ele>25</ele>
        <time>2021-06-11T18:56:22Z</time>
      </trkpt>
      <trkpt lat="45.60898" lon="-0.04639">
        <ele>24</ele>
        <time>2021-06-11T18:56:31Z</time>
      </trkpt>
      <trkpt lat="45.60925" lon="-0.04629">
        <ele>24</ele>
        <time>2021-06-11T18:56:36Z</time>
      </trkpt>
      <trkpt lat="45.60939" lon="-0.04633">
        <ele>25</ele>
        <time>2021-06-11T18:56:39Z</time>
      </trkpt>
      <trkpt lat="45.60946" lon="-0.04636">
        <ele>25</ele>
        <time>2021-06-11T18:56:40Z</time>
      </trkpt>
      <trkpt lat="45.60959" lon="-0.04641">
        <ele>26</ele>
        <time>2021-06-11T18:56:42Z</time>
      </trkpt>
      <trkpt lat="45.61193" lon="-0.04773">
        <ele>24</ele>
        <time>2021-06-11T18:57:27Z</time>
      </trkpt>
      <trkpt lat="45.6123" lon="-0.04789">
        <ele>23</ele>
        <time>2021-06-11T18:57:34Z</time>
      </trkpt>
      <trkpt lat="45.61266" lon="-0.04797">
        <ele>23</ele>
        <time>2021-06-11T18:57:40Z</time>
      </trkpt>
      <trkpt lat="45.6143" lon="-0.04822">
        <ele>23</ele>
        <time>2021-06-11T18:58:10Z</time>
      </trkpt>
      <trkpt lat="45.6146" lon="-0.04829">
        <ele>23</ele>
        <time>2021-06-11T18:58:15Z</time>
      </trkpt>
      <trkpt lat="45.61496" lon="-0.04845">
        <ele>22</ele>
        <time>2021-06-11T18:58:22Z</time>
      </trkpt>
      <trkpt lat="45.61514" lon="-0.04856">
        <ele>23</ele>
        <time>2021-06-11T18:58:25Z</time>
      </trkpt>
      <trkpt lat="45.61637" lon="-0.04937">
        <ele>27</ele>
        <time>2021-06-11T18:58:49Z</time>
      </trkpt>
      <trkpt lat="45.61704" lon="-0.04977">
        <ele>25</ele>
        <time>2021-06-11T18:59:02Z</time>
      </trkpt>
      <trkpt lat="45.61744" lon="-0.04993">
        <ele>24</ele>
        <time>2021-06-11T18:59:10Z</time>
      </trkpt>
      <trkpt lat="45.6178" lon="-0.05004">
        <ele>22</ele>
        <time>2021-06-11T18:59:16Z</time>
      </trkpt>
      <trkpt lat="45.61834" lon="-0.05013">
        <ele>21</ele>
        <time>2021-06-11T18:59:26Z</time>
      </trkpt>
      <trkpt lat="45.62128" lon="-0.04997">
        <ele>22</ele>
        <time>2021-06-11T19:00:18Z</time>
      </trkpt>
      <trkpt lat="45.6227" lon="-0.04988">
        <ele>26</ele>
        <time>2021-06-11T19:00:44Z</time>
      </trkpt>
      <trkpt lat="45.62371" lon="-0.04983">
        <ele>24</ele>
        <time>2021-06-11T19:01:02Z</time>
      </trkpt>
      <trkpt lat="45.62407" lon="-0.04983">
        <ele>22</ele>
        <time>2021-06-11T19:01:08Z</time>
      </trkpt>
      <trkpt lat="45.62437" lon="-0.04987">
        <ele>23</ele>
        <time>2021-06-11T19:01:13Z</time>
      </trkpt>
      <trkpt lat="45.62468" lon="-0.04997">
        <ele>25</ele>
        <time>2021-06-11T19:01:19Z</time>
      </trkpt>
      <trkpt lat="45.62628" lon="-0.05068">
        <ele>26</ele>
        <time>2021-06-11T19:01:49Z</time>
      </trkpt>
      <trkpt lat="45.62665" lon="-0.05085">
        <ele>25</ele>
        <time>2021-06-11T19:01:56Z</time>
      </trkpt>
      <trkpt lat="45.62693" lon="-0.05102">
        <ele>25</ele>
        <time>2021-06-11T19:02:01Z</time>
      </trkpt>
      <trkpt lat="45.62708" lon="-0.05115">
        <ele>25</ele>
        <time>2021-06-11T19:02:04Z</time>
      </trkpt>
      <trkpt lat="45.6272" lon="-0.05128">
        <ele>25</ele>
        <time>2021-06-11T19:02:07Z</time>
      </trkpt>
      <trkpt lat="45.62739" lon="-0.05151">
        <ele>24</ele>
        <time>2021-06-11T19:02:11Z</time>
      </trkpt>
      <trkpt lat="45.62891" lon="-0.05386">
        <ele>25</ele>
        <time>2021-06-11T19:02:51Z</time>
      </trkpt>
      <trkpt lat="45.62961" lon="-0.05491">
        <ele>24</ele>
        <time>2021-06-11T19:03:09Z</time>
      </trkpt>
      <trkpt lat="45.62989" lon="-0.05523">
        <ele>25</ele>
        <time>2021-06-11T19:03:16Z</time>
      </trkpt>
      <trkpt lat="45.63017" lon="-0.05549">
        <ele>25</ele>
        <time>2021-06-11T19:03:22Z</time>
      </trkpt>
      <trkpt lat="45.6305" lon="-0.05572">
        <ele>24</ele>
        <time>2021-06-11T19:03:28Z</time>
      </trkpt>
      <trkpt lat="45.63082" lon="-0.05589">
        <ele>24</ele>
        <time>2021-06-11T19:03:34Z</time>
      </trkpt>
      <trkpt lat="45.63125" lon="-0.05605">
        <ele>23</ele>
        <time>2021-06-11T19:03:42Z</time>
      </trkpt>
      <trkpt lat="45.63141" lon="-0.05608">
        <ele>22</ele>
        <time>2021-06-11T19:03:45Z</time>
      </trkpt>
      <trkpt lat="45.63155" lon="-0.05605">
        <ele>22</ele>
        <time>2021-06-11T19:03:47Z</time>
      </trkpt>
      <trkpt lat="45.63169" lon="-0.05601">
        <ele>23</ele>
        <time>2021-06-11T19:03:50Z</time>
      </trkpt>
      <trkpt lat="45.63181" lon="-0.05591">
        <ele>23</ele>
        <time>2021-06-11T19:03:52Z</time>
      </trkpt>
      <trkpt lat="45.63194" lon="-0.05577">
        <ele>24</ele>
        <time>2021-06-11T19:03:55Z</time>
      </trkpt>
      <trkpt lat="45.63234" lon="-0.05519">
        <ele>27</ele>
        <time>2021-06-11T19:04:05Z</time>
      </trkpt>
      <trkpt lat="45.63256" lon="-0.05492">
        <ele>27</ele>
        <time>2021-06-11T19:04:11Z</time>
      </trkpt>
      <trkpt lat="45.63268" lon="-0.05481">
        <ele>28</ele>
        <time>2021-06-11T19:04:13Z</time>
      </trkpt>
      <trkpt lat="45.63278" lon="-0.05477">
        <ele>28</ele>
        <time>2021-06-11T19:04:15Z</time>
      </trkpt>
      <trkpt lat="45.63297" lon="-0.05476">
        <ele>29</ele>
        <time>2021-06-11T19:04:18Z</time>
      </trkpt>
      <trkpt lat="45.6331" lon="-0.05484">
        <ele>29</ele>
        <time>2021-06-11T19:04:21Z</time>
      </trkpt>
      <trkpt lat="45.63428" lon="-0.05596">
        <ele>29</ele>
        <time>2021-06-11T19:04:46Z</time>
      </trkpt>
      <trkpt lat="45.63484" lon="-0.05643">
        <ele>29</ele>
        <time>2021-06-11T19:04:58Z</time>
      </trkpt>
      <trkpt lat="45.63558" lon="-0.05697">
        <ele>28</ele>
        <time>2021-06-11T19:05:12Z</time>
      </trkpt>
      <trkpt lat="45.63759" lon="-0.05827">
        <ele>23</ele>
        <time>2021-06-11T19:05:52Z</time>
      </trkpt>
      <trkpt lat="45.638" lon="-0.05849">
        <ele>24</ele>
        <time>2021-06-11T19:05:59Z</time>
      </trkpt>
      <trkpt lat="45.63865" lon="-0.05874">
        <ele>25</ele>
        <time>2021-06-11T19:06:11Z</time>
      </trkpt>
      <trkpt lat="45.63945" lon="-0.05898">
        <ele>24</ele>
        <time>2021-06-11T19:06:26Z</time>
      </trkpt>
      <trkpt lat="45.63988" lon="-0.05916">
        <ele>24</ele>
        <time>2021-06-11T19:06:34Z</time>
      </trkpt>
      <trkpt lat="45.64012" lon="-0.05937">
        <ele>23</ele>
        <time>2021-06-11T19:06:39Z</time>
      </trkpt>
      <trkpt lat="45.64023" lon="-0.05955">
        <ele>23</ele>
        <time>2021-06-11T19:06:42Z</time>
      </trkpt>
      <trkpt lat="45.64078" lon="-0.06068">
        <ele>21</ele>
        <time>2021-06-11T19:06:59Z</time>
      </trkpt>
      <trkpt lat="45.64075" lon="-0.06071">
        <ele>21</ele>
        <time>2021-06-11T19:07:00Z</time>
      </trkpt>
      <trkpt lat="45.64033" lon="-0.06117">
        <ele>20</ele>
        <time>2021-06-11T19:07:09Z</time>
      </trkpt>
      <trkpt lat="45.64013" lon="-0.06142">
        <ele>20</ele>
        <time>2021-06-11T19:07:14Z</time>
      </trkpt>
      <trkpt lat="45.64005" lon="-0.06159">
        <ele>20</ele>
        <time>2021-06-11T19:07:16Z</time>
      </trkpt>
      <trkpt lat="45.64001" lon="-0.06172">
        <ele>20</ele>
        <time>2021-06-11T19:07:18Z</time>
      </trkpt>
      <trkpt lat="45.64002" lon="-0.06187">
        <ele>20</ele>
        <time>2021-06-11T19:07:20Z</time>
      </trkpt>
      <trkpt lat="45.64006" lon="-0.06204">
        <ele>20</ele>
        <time>2021-06-11T19:07:22Z</time>
      </trkpt>
      <trkpt lat="45.64007" lon="-0.06217">
        <ele>20</ele>
        <time>2021-06-11T19:07:24Z</time>
      </trkpt>
      <trkpt lat="45.63987" lon="-0.06261">
        <ele>20</ele>
        <time>2021-06-11T19:07:30Z</time>
      </trkpt>
      <trkpt lat="45.63965" lon="-0.06301">
        <ele>19</ele>
        <time>2021-06-11T19:07:37Z</time>
      </trkpt>
      <trkpt lat="45.6396" lon="-0.06304">
        <ele>19</ele>
        <time>2021-06-11T19:07:38Z</time>
      </trkpt>
      <trkpt lat="45.63926" lon="-0.06291">
        <ele>20</ele>
        <time>2021-06-11T19:07:44Z</time>
      </trkpt>
      <trkpt lat="45.63898" lon="-0.06286">
        <ele>19</ele>
        <time>2021-06-11T19:07:49Z</time>
      </trkpt>
      <trkpt lat="45.6379" lon="-0.06295">
        <ele>18</ele>
        <time>2021-06-11T19:08:08Z</time>
      </trkpt>
      <trkpt lat="45.63716" lon="-0.06297">
        <ele>17</ele>
        <time>2021-06-11T19:08:21Z</time>
      </trkpt>
      <trkpt lat="45.63663" lon="-0.06291">
        <ele>18</ele>
        <time>2021-06-11T19:08:31Z</time>
      </trkpt>
      <trkpt lat="45.63595" lon="-0.06277">
        <ele>19</ele>
        <time>2021-06-11T19:08:43Z</time>
      </trkpt>
      <trkpt lat="45.63552" lon="-0.06267">
        <ele>19</ele>
        <time>2021-06-11T19:08:51Z</time>
      </trkpt>
      <trkpt lat="45.63526" lon="-0.0626">
        <ele>20</ele>
        <time>2021-06-11T19:08:56Z</time>
      </trkpt>
      <trkpt lat="45.63516" lon="-0.06253">
        <ele>20</ele>
        <time>2021-06-11T19:08:58Z</time>
      </trkpt>
      <trkpt lat="45.63506" lon="-0.06241">
        <ele>20</ele>
        <time>2021-06-11T19:09:00Z</time>
      </trkpt>
      <trkpt lat="45.63501" lon="-0.06228">
        <ele>20</ele>
        <time>2021-06-11T19:09:02Z</time>
      </trkpt>
      <trkpt lat="45.6349" lon="-0.06176">
        <ele>20</ele>
        <time>2021-06-11T19:09:08Z</time>
      </trkpt>
      <trkpt lat="45.63486" lon="-0.06169">
        <ele>20</ele>
        <time>2021-06-11T19:09:10Z</time>
      </trkpt>
      <trkpt lat="45.6348" lon="-0.06166">
        <ele>19</ele>
        <time>2021-06-11T19:09:11Z</time>
      </trkpt>
      <trkpt lat="45.63469" lon="-0.06166">
        <ele>19</ele>
        <time>2021-06-11T19:09:13Z</time>
      </trkpt>
      <trkpt lat="45.63455" lon="-0.06173">
        <ele>18</ele>
        <time>2021-06-11T19:09:15Z</time>
      </trkpt>
      <trkpt lat="45.63423" lon="-0.06197">
        <ele>18</ele>
        <time>2021-06-11T19:09:22Z</time>
      </trkpt>
      <trkpt lat="45.63388" lon="-0.06242">
        <ele>18</ele>
        <time>2021-06-11T19:09:30Z</time>
      </trkpt>
      <trkpt lat="45.63365" lon="-0.0629">
        <ele>18</ele>
        <time>2021-06-11T19:09:37Z</time>
      </trkpt>
      <trkpt lat="45.63306" lon="-0.06398">
        <ele>19</ele>
        <time>2021-06-11T19:09:54Z</time>
      </trkpt>
      <trkpt lat="45.63279" lon="-0.06452">
        <ele>19</ele>
        <time>2021-06-11T19:10:03Z</time>
      </trkpt>
      <trkpt lat="45.63257" lon="-0.06523">
        <ele>18</ele>
        <time>2021-06-11T19:10:12Z</time>
      </trkpt>
      <trkpt lat="45.63222" lon="-0.06652">
        <ele>16</ele>
        <time>2021-06-11T19:10:30Z</time>
      </trkpt>
      <trkpt lat="45.63167" lon="-0.0684">
        <ele>17</ele>
        <time>2021-06-11T19:10:55Z</time>
      </trkpt>
      <trkpt lat="45.63159" lon="-0.06876">
        <ele>17</ele>
        <time>2021-06-11T19:11:00Z</time>
      </trkpt>
      <trkpt lat="45.63149" lon="-0.06923">
        <ele>16</ele>
        <time>2021-06-11T19:11:06Z</time>
      </trkpt>
      <trkpt lat="45.63126" lon="-0.07014">
        <ele>17</ele>
        <time>2021-06-11T19:11:18Z</time>
      </trkpt>
      <trkpt lat="45.63116" lon="-0.07058">
        <ele>18</ele>
        <time>2021-06-11T19:11:24Z</time>
      </trkpt>
      <trkpt lat="45.63109" lon="-0.071">
        <ele>18</ele>
        <time>2021-06-11T19:11:29Z</time>
      </trkpt>
      <trkpt lat="45.63108" lon="-0.07136">
        <ele>18</ele>
        <time>2021-06-11T19:11:33Z</time>
      </trkpt>
      <trkpt lat="45.63091" lon="-0.07254">
        <ele>17</ele>
        <time>2021-06-11T19:11:48Z</time>
      </trkpt>
      <trkpt lat="45.63088" lon="-0.07292">
        <ele>18</ele>
        <time>2021-06-11T19:11:53Z</time>
      </trkpt>
      <trkpt lat="45.63088" lon="-0.07318">
        <ele>19</ele>
        <time>2021-06-11T19:11:56Z</time>
      </trkpt>
      <trkpt lat="45.63096" lon="-0.07368">
        <ele>20</ele>
        <time>2021-06-11T19:12:03Z</time>
      </trkpt>
      <trkpt lat="45.63095" lon="-0.07386">
        <ele>20</ele>
        <time>2021-06-11T19:12:05Z</time>
      </trkpt>
      <trkpt lat="45.63091" lon="-0.07412">
        <ele>21</ele>
        <time>2021-06-11T19:12:08Z</time>
      </trkpt>
      <trkpt lat="45.63079" lon="-0.07482">
        <ele>22</ele>
        <time>2021-06-11T19:12:17Z</time>
      </trkpt>
      <trkpt lat="45.63075" lon="-0.07499">
        <ele>22</ele>
        <time>2021-06-11T19:12:20Z</time>
      </trkpt>
      <trkpt lat="45.63084" lon="-0.07505">
        <ele>22</ele>
        <time>2021-06-11T19:12:21Z</time>
      </trkpt>
      <trkpt lat="45.63132" lon="-0.07503">
        <ele>21</ele>
        <time>2021-06-11T19:12:30Z</time>
      </trkpt>
      <trkpt lat="45.63171" lon="-0.07513">
        <ele>21</ele>
        <time>2021-06-11T19:12:37Z</time>
      </trkpt>
      <trkpt lat="45.63241" lon="-0.07519">
        <ele>21</ele>
        <time>2021-06-11T19:12:49Z</time>
      </trkpt>
      <trkpt lat="45.63329" lon="-0.07502">
        <ele>19</ele>
        <time>2021-06-11T19:13:05Z</time>
      </trkpt>
      <trkpt lat="45.63435" lon="-0.07458">
        <ele>19</ele>
        <time>2021-06-11T19:13:25Z</time>
      </trkpt>
      <trkpt lat="45.63456" lon="-0.07443">
        <ele>19</ele>
        <time>2021-06-11T19:13:29Z</time>
      </trkpt>
      <trkpt lat="45.63481" lon="-0.07377">
        <ele>18</ele>
        <time>2021-06-11T19:13:38Z</time>
      </trkpt>
      <trkpt lat="45.635" lon="-0.07365">
        <ele>17</ele>
        <time>2021-06-11T19:13:42Z</time>
      </trkpt>
      <trkpt lat="45.6354" lon="-0.07376">
        <ele>18</ele>
        <time>2021-06-11T19:13:49Z</time>
      </trkpt>
      <trkpt lat="45.63617" lon="-0.07413">
        <ele>18</ele>
        <time>2021-06-11T19:14:04Z</time>
      </trkpt>
      <trkpt lat="45.6372" lon="-0.07493">
        <ele>20</ele>
        <time>2021-06-11T19:14:25Z</time>
      </trkpt>
      <trkpt lat="45.63761" lon="-0.07539">
        <ele>20</ele>
        <time>2021-06-11T19:14:34Z</time>
      </trkpt>
      <trkpt lat="45.6379" lon="-0.07592">
        <ele>19</ele>
        <time>2021-06-11T19:14:42Z</time>
      </trkpt>
      <trkpt lat="45.63851" lon="-0.07658">
        <ele>19</ele>
        <time>2021-06-11T19:14:56Z</time>
      </trkpt>
      <trkpt lat="45.63898" lon="-0.07714">
        <ele>19</ele>
        <time>2021-06-11T19:15:07Z</time>
      </trkpt>
      <trkpt lat="45.63941" lon="-0.07755">
        <ele>19</ele>
        <time>2021-06-11T19:15:16Z</time>
      </trkpt>
      <trkpt lat="45.63963" lon="-0.07778">
        <ele>18</ele>
        <time>2021-06-11T19:15:21Z</time>
      </trkpt>
      <trkpt lat="45.63988" lon="-0.07816">
        <ele>18</ele>
        <time>2021-06-11T19:15:27Z</time>
      </trkpt>
      <trkpt lat="45.64027" lon="-0.07898">
        <ele>17</ele>
        <time>2021-06-11T19:15:40Z</time>
      </trkpt>
      <trkpt lat="45.64045" lon="-0.07934">
        <ele>17</ele>
        <time>2021-06-11T19:15:45Z</time>
      </trkpt>
      <trkpt lat="45.64053" lon="-0.07959">
        <ele>17</ele>
        <time>2021-06-11T19:15:48Z</time>
      </trkpt>
      <trkpt lat="45.64064" lon="-0.08037">
        <ele>17</ele>
        <time>2021-06-11T19:15:58Z</time>
      </trkpt>
      <trkpt lat="45.64079" lon="-0.08091">
        <ele>18</ele>
        <time>2021-06-11T19:16:06Z</time>
      </trkpt>
      <trkpt lat="45.64096" lon="-0.08137">
        <ele>19</ele>
        <time>2021-06-11T19:16:12Z</time>
      </trkpt>
      <trkpt lat="45.64102" lon="-0.08158">
        <ele>19</ele>
        <time>2021-06-11T19:16:15Z</time>
      </trkpt>
      <trkpt lat="45.64048" lon="-0.08184">
        <ele>19</ele>
        <time>2021-06-11T19:16:25Z</time>
      </trkpt>
      <trkpt lat="45.64009" lon="-0.08206">
        <ele>19</ele>
        <time>2021-06-11T19:16:33Z</time>
      </trkpt>
      <trkpt lat="45.63994" lon="-0.08224">
        <ele>19</ele>
        <time>2021-06-11T19:16:36Z</time>
      </trkpt>
      <trkpt lat="45.63978" lon="-0.08259">
        <ele>20</ele>
        <time>2021-06-11T19:16:41Z</time>
      </trkpt>
      <trkpt lat="45.63967" lon="-0.08294">
        <ele>20</ele>
        <time>2021-06-11T19:16:46Z</time>
      </trkpt>
      <trkpt lat="45.63999" lon="-0.08341">
        <ele>20</ele>
        <time>2021-06-11T19:16:54Z</time>
      </trkpt>
      <trkpt lat="45.64021" lon="-0.08364">
        <ele>20</ele>
        <time>2021-06-11T19:16:59Z</time>
      </trkpt>
      <trkpt lat="45.64032" lon="-0.08381">
        <ele>20</ele>
        <time>2021-06-11T19:17:02Z</time>
      </trkpt>
      <trkpt lat="45.64037" lon="-0.08396">
        <ele>20</ele>
        <time>2021-06-11T19:17:04Z</time>
      </trkpt>
      <trkpt lat="45.64068" lon="-0.08522">
        <ele>19</ele>
        <time>2021-06-11T19:17:21Z</time>
      </trkpt>
      <trkpt lat="45.64078" lon="-0.08583">
        <ele>19</ele>
        <time>2021-06-11T19:17:28Z</time>
      </trkpt>
      <trkpt lat="45.64083" lon="-0.08623">
        <ele>19</ele>
        <time>2021-06-11T19:17:33Z</time>
      </trkpt>
      <trkpt lat="45.64092" lon="-0.08649">
        <ele>20</ele>
        <time>2021-06-11T19:17:37Z</time>
      </trkpt>
      <trkpt lat="45.64108" lon="-0.08676">
        <ele>20</ele>
        <time>2021-06-11T19:17:41Z</time>
      </trkpt>
      <trkpt lat="45.64126" lon="-0.08699">
        <ele>19</ele>
        <time>2021-06-11T19:17:46Z</time>
      </trkpt>
      <trkpt lat="45.64204" lon="-0.08777">
        <ele>19</ele>
        <time>2021-06-11T19:18:03Z</time>
      </trkpt>
      <trkpt lat="45.6422" lon="-0.08809">
        <ele>19</ele>
        <time>2021-06-11T19:18:08Z</time>
      </trkpt>
      <trkpt lat="45.64276" lon="-0.08936">
        <ele>20</ele>
        <time>2021-06-11T19:18:26Z</time>
      </trkpt>
      <trkpt lat="45.64309" lon="-0.09033">
        <ele>21</ele>
        <time>2021-06-11T19:18:40Z</time>
      </trkpt>
      <trkpt lat="45.64338" lon="-0.09131">
        <ele>20</ele>
        <time>2021-06-11T19:18:53Z</time>
      </trkpt>
      <trkpt lat="45.64341" lon="-0.09142">
        <ele>20</ele>
        <time>2021-06-11T19:18:54Z</time>
      </trkpt>
      <trkpt lat="45.64343" lon="-0.09182">
        <ele>20</ele>
        <time>2021-06-11T19:18:59Z</time>
      </trkpt>
      <trkpt lat="45.64374" lon="-0.09282">
        <ele>20</ele>
        <time>2021-06-11T19:19:13Z</time>
      </trkpt>
      <trkpt lat="45.64384" lon="-0.09308">
        <ele>21</ele>
        <time>2021-06-11T19:19:17Z</time>
      </trkpt>
      <trkpt lat="45.64419" lon="-0.09311">
        <ele>20</ele>
        <time>2021-06-11T19:19:23Z</time>
      </trkpt>
      <trkpt lat="45.64421" lon="-0.09339">
        <ele>21</ele>
        <time>2021-06-11T19:19:26Z</time>
      </trkpt>
      <trkpt lat="45.64422" lon="-0.09372">
        <ele>22</ele>
        <time>2021-06-11T19:19:30Z</time>
      </trkpt>
      <trkpt lat="45.64426" lon="-0.09401">
        <ele>22</ele>
        <time>2021-06-11T19:19:34Z</time>
      </trkpt>
      <trkpt lat="45.64427" lon="-0.09406">
        <ele>22</ele>
        <time>2021-06-11T19:19:35Z</time>
      </trkpt>
      <trkpt lat="45.64434" lon="-0.09431">
        <ele>23</ele>
        <time>2021-06-11T19:19:38Z</time>
      </trkpt>
      <trkpt lat="45.64447" lon="-0.09452">
        <ele>23</ele>
        <time>2021-06-11T19:19:42Z</time>
      </trkpt>
      <trkpt lat="45.64511" lon="-0.09532">
        <ele>20</ele>
        <time>2021-06-11T19:19:57Z</time>
      </trkpt>
      <trkpt lat="45.64535" lon="-0.09581">
        <ele>19</ele>
        <time>2021-06-11T19:20:04Z</time>
      </trkpt>
      <trkpt lat="45.64553" lon="-0.09612">
        <ele>19</ele>
        <time>2021-06-11T19:20:09Z</time>
      </trkpt>
      <trkpt lat="45.64597" lon="-0.09699">
        <ele>18</ele>
        <time>2021-06-11T19:20:23Z</time>
      </trkpt>
      <trkpt lat="45.64628" lon="-0.09763">
        <ele>18</ele>
        <time>2021-06-11T19:20:32Z</time>
      </trkpt>
      <trkpt lat="45.64644" lon="-0.09805">
        <ele>18</ele>
        <time>2021-06-11T19:20:38Z</time>
      </trkpt>
      <trkpt lat="45.64648" lon="-0.09815">
        <ele>18</ele>
        <time>2021-06-11T19:20:40Z</time>
      </trkpt>
      <trkpt lat="45.6466" lon="-0.09851">
        <ele>19</ele>
        <time>2021-06-11T19:20:45Z</time>
      </trkpt>
      <trkpt lat="45.64694" lon="-0.09936">
        <ele>19</ele>
        <time>2021-06-11T19:20:57Z</time>
      </trkpt>
      <trkpt lat="45.64708" lon="-0.09967">
        <ele>19</ele>
        <time>2021-06-11T19:21:01Z</time>
      </trkpt>
      <trkpt lat="45.64751" lon="-0.10051">
        <ele>20</ele>
        <time>2021-06-11T19:21:14Z</time>
      </trkpt>
      <trkpt lat="45.64775" lon="-0.10101">
        <ele>19</ele>
        <time>2021-06-11T19:21:22Z</time>
      </trkpt>
      <trkpt lat="45.64786" lon="-0.10123">
        <ele>19</ele>
        <time>2021-06-11T19:21:25Z</time>
      </trkpt>
      <trkpt lat="45.64798" lon="-0.10141">
        <ele>19</ele>
        <time>2021-06-11T19:21:28Z</time>
      </trkpt>
      <trkpt lat="45.64804" lon="-0.10168">
        <ele>20</ele>
        <time>2021-06-11T19:21:32Z</time>
      </trkpt>
      <trkpt lat="45.64807" lon="-0.10195">
        <ele>20</ele>
        <time>2021-06-11T19:21:35Z</time>
      </trkpt>
      <trkpt lat="45.64805" lon="-0.10218">
        <ele>21</ele>
        <time>2021-06-11T19:21:38Z</time>
      </trkpt>
      <trkpt lat="45.64806" lon="-0.10231">
        <ele>21</ele>
        <time>2021-06-11T19:21:40Z</time>
      </trkpt>
      <trkpt lat="45.64811" lon="-0.1024">
        <ele>21</ele>
        <time>2021-06-11T19:21:41Z</time>
      </trkpt>
      <trkpt lat="45.64814" lon="-0.10245">
        <ele>21</ele>
        <time>2021-06-11T19:21:42Z</time>
      </trkpt>
      <trkpt lat="45.64829" lon="-0.10276">
        <ele>21</ele>
        <time>2021-06-11T19:21:47Z</time>
      </trkpt>
      <trkpt lat="45.64866" lon="-0.10377">
        <ele>20</ele>
        <time>2021-06-11T19:22:01Z</time>
      </trkpt>
      <trkpt lat="45.6487" lon="-0.10398">
        <ele>20</ele>
        <time>2021-06-11T19:22:04Z</time>
      </trkpt>
      <trkpt lat="45.64871" lon="-0.10457">
        <ele>19</ele>
        <time>2021-06-11T19:22:11Z</time>
      </trkpt>
      <trkpt lat="45.64873" lon="-0.10503">
        <ele>18</ele>
        <time>2021-06-11T19:22:17Z</time>
      </trkpt>
      <trkpt lat="45.64877" lon="-0.10543">
        <ele>19</ele>
        <time>2021-06-11T19:22:22Z</time>
      </trkpt>
      <trkpt lat="45.64882" lon="-0.10567">
        <ele>20</ele>
        <time>2021-06-11T19:22:25Z</time>
      </trkpt>
      <trkpt lat="45.64888" lon="-0.10582">
        <ele>20</ele>
        <time>2021-06-11T19:22:27Z</time>
      </trkpt>
      <trkpt lat="45.64904" lon="-0.10612">
        <ele>20</ele>
        <time>2021-06-11T19:22:32Z</time>
      </trkpt>
      <trkpt lat="45.64916" lon="-0.10627">
        <ele>20</ele>
        <time>2021-06-11T19:22:34Z</time>
      </trkpt>
      <trkpt lat="45.64921" lon="-0.10638">
        <ele>20</ele>
        <time>2021-06-11T19:22:36Z</time>
      </trkpt>
      <trkpt lat="45.64893" lon="-0.10695">
        <ele>22</ele>
        <time>2021-06-11T19:22:45Z</time>
      </trkpt>
      <trkpt lat="45.64858" lon="-0.10767">
        <ele>21</ele>
        <time>2021-06-11T19:22:56Z</time>
      </trkpt>
      <trkpt lat="45.64847" lon="-0.10794">
        <ele>21</ele>
        <time>2021-06-11T19:23:00Z</time>
      </trkpt>
      <trkpt lat="45.64838" lon="-0.10828">
        <ele>20</ele>
        <time>2021-06-11T19:23:04Z</time>
      </trkpt>
      <trkpt lat="45.64836" lon="-0.10842">
        <ele>20</ele>
        <time>2021-06-11T19:23:06Z</time>
      </trkpt>
      <trkpt lat="45.64836" lon="-0.10857">
        <ele>20</ele>
        <time>2021-06-11T19:23:08Z</time>
      </trkpt>
      <trkpt lat="45.6484" lon="-0.10875">
        <ele>21</ele>
        <time>2021-06-11T19:23:10Z</time>
      </trkpt>
      <trkpt lat="45.64851" lon="-0.10907">
        <ele>21</ele>
        <time>2021-06-11T19:23:15Z</time>
      </trkpt>
      <trkpt lat="45.64852" lon="-0.10913">
        <ele>21</ele>
        <time>2021-06-11T19:23:15Z</time>
      </trkpt>
      <trkpt lat="45.64857" lon="-0.10916">
        <ele>22</ele>
        <time>2021-06-11T19:23:16Z</time>
      </trkpt>
      <trkpt lat="45.64868" lon="-0.10933">
        <ele>22</ele>
        <time>2021-06-11T19:23:19Z</time>
      </trkpt>
      <trkpt lat="45.64929" lon="-0.11103">
        <ele>23</ele>
        <time>2021-06-11T19:23:43Z</time>
      </trkpt>
      <trkpt lat="45.64956" lon="-0.11168">
        <ele>24</ele>
        <time>2021-06-11T19:23:52Z</time>
      </trkpt>
      <trkpt lat="45.64965" lon="-0.11194">
        <ele>23</ele>
        <time>2021-06-11T19:23:56Z</time>
      </trkpt>
      <trkpt lat="45.64989" lon="-0.11293">
        <ele>23</ele>
        <time>2021-06-11T19:24:09Z</time>
      </trkpt>
      <trkpt lat="45.65029" lon="-0.11504">
        <ele>24</ele>
        <time>2021-06-11T19:24:36Z</time>
      </trkpt>
      <trkpt lat="45.65035" lon="-0.11533">
        <ele>24</ele>
        <time>2021-06-11T19:24:40Z</time>
      </trkpt>
      <trkpt lat="45.65051" lon="-0.1158">
        <ele>23</ele>
        <time>2021-06-11T19:24:46Z</time>
      </trkpt>
      <trkpt lat="45.65063" lon="-0.11604">
        <ele>23</ele>
        <time>2021-06-11T19:24:50Z</time>
      </trkpt>
      <trkpt lat="45.6507" lon="-0.11611">
        <ele>22</ele>
        <time>2021-06-11T19:24:52Z</time>
      </trkpt>
      <trkpt lat="45.65082" lon="-0.11614">
        <ele>22</ele>
        <time>2021-06-11T19:24:54Z</time>
      </trkpt>
      <trkpt lat="45.6509" lon="-0.11613">
        <ele>22</ele>
        <time>2021-06-11T19:24:55Z</time>
      </trkpt>
      <trkpt lat="45.6518" lon="-0.11591">
        <ele>22</ele>
        <time>2021-06-11T19:25:11Z</time>
      </trkpt>
      <trkpt lat="45.65239" lon="-0.11592">
        <ele>20</ele>
        <time>2021-06-11T19:25:22Z</time>
      </trkpt>
      <trkpt lat="45.65252" lon="-0.11595">
        <ele>20</ele>
        <time>2021-06-11T19:25:24Z</time>
      </trkpt>
      <trkpt lat="45.65272" lon="-0.11607">
        <ele>21</ele>
        <time>2021-06-11T19:25:28Z</time>
      </trkpt>
      <trkpt lat="45.65297" lon="-0.11638">
        <ele>21</ele>
        <time>2021-06-11T19:25:34Z</time>
      </trkpt>
      <trkpt lat="45.65356" lon="-0.11734">
        <ele>19</ele>
        <time>2021-06-11T19:25:50Z</time>
      </trkpt>
      <trkpt lat="45.65442" lon="-0.11856">
        <ele>18</ele>
        <time>2021-06-11T19:26:11Z</time>
      </trkpt>
      <trkpt lat="45.6553" lon="-0.11994">
        <ele>19</ele>
        <time>2021-06-11T19:26:35Z</time>
      </trkpt>
      <trkpt lat="45.65561" lon="-0.12037">
        <ele>20</ele>
        <time>2021-06-11T19:26:42Z</time>
      </trkpt>
      <trkpt lat="45.65573" lon="-0.1205">
        <ele>20</ele>
        <time>2021-06-11T19:26:45Z</time>
      </trkpt>
      <trkpt lat="45.65609" lon="-0.1208">
        <ele>20</ele>
        <time>2021-06-11T19:26:52Z</time>
      </trkpt>
      <trkpt lat="45.65653" lon="-0.12124">
        <ele>19</ele>
        <time>2021-06-11T19:27:02Z</time>
      </trkpt>
      <trkpt lat="45.65705" lon="-0.12193">
        <ele>19</ele>
        <time>2021-06-11T19:27:15Z</time>
      </trkpt>
      <trkpt lat="45.65768" lon="-0.12249">
        <ele>18</ele>
        <time>2021-06-11T19:27:28Z</time>
      </trkpt>
      <trkpt lat="45.65781" lon="-0.12258">
        <ele>18</ele>
        <time>2021-06-11T19:27:30Z</time>
      </trkpt>
      <trkpt lat="45.65799" lon="-0.12264">
        <ele>17</ele>
        <time>2021-06-11T19:27:34Z</time>
      </trkpt>
      <trkpt lat="45.65811" lon="-0.12276">
        <ele>17</ele>
        <time>2021-06-11T19:27:36Z</time>
      </trkpt>
      <trkpt lat="45.65818" lon="-0.12285">
        <ele>17</ele>
        <time>2021-06-11T19:27:38Z</time>
      </trkpt>
      <trkpt lat="45.65835" lon="-0.12313">
        <ele>17</ele>
        <time>2021-06-11T19:27:43Z</time>
      </trkpt>
      <trkpt lat="45.65847" lon="-0.12344">
        <ele>18</ele>
        <time>2021-06-11T19:27:47Z</time>
      </trkpt>
      <trkpt lat="45.65862" lon="-0.12361">
        <ele>18</ele>
        <time>2021-06-11T19:27:50Z</time>
      </trkpt>
      <trkpt lat="45.65875" lon="-0.1237">
        <ele>18</ele>
        <time>2021-06-11T19:27:53Z</time>
      </trkpt>
      <trkpt lat="45.65891" lon="-0.12376">
        <ele>18</ele>
        <time>2021-06-11T19:27:56Z</time>
      </trkpt>
      <trkpt lat="45.65903" lon="-0.12373">
        <ele>18</ele>
        <time>2021-06-11T19:27:58Z</time>
      </trkpt>
      <trkpt lat="45.65922" lon="-0.12363">
        <ele>18</ele>
        <time>2021-06-11T19:28:02Z</time>
      </trkpt>
      <trkpt lat="45.65939" lon="-0.12361">
        <ele>17</ele>
        <time>2021-06-11T19:28:05Z</time>
      </trkpt>
      <trkpt lat="45.66089" lon="-0.12401">
        <ele>17</ele>
        <time>2021-06-11T19:28:32Z</time>
      </trkpt>
      <trkpt lat="45.66108" lon="-0.12408">
        <ele>18</ele>
        <time>2021-06-11T19:28:35Z</time>
      </trkpt>
      <trkpt lat="45.66126" lon="-0.1242">
        <ele>18</ele>
        <time>2021-06-11T19:28:39Z</time>
      </trkpt>
      <trkpt lat="45.66142" lon="-0.12437">
        <ele>18</ele>
        <time>2021-06-11T19:28:42Z</time>
      </trkpt>
      <trkpt lat="45.6624" lon="-0.12581">
        <ele>18</ele>
        <time>2021-06-11T19:29:07Z</time>
      </trkpt>
      <trkpt lat="45.66319" lon="-0.12515">
        <ele>18</ele>
        <time>2021-06-11T19:29:24Z</time>
      </trkpt>
      <trkpt lat="45.66347" lon="-0.12573">
        <ele>17</ele>
        <time>2021-06-11T19:29:32Z</time>
      </trkpt>
      <trkpt lat="45.6637" lon="-0.12628">
        <ele>16</ele>
        <time>2021-06-11T19:29:40Z</time>
      </trkpt>
      <trkpt lat="45.66385" lon="-0.12666">
        <ele>16</ele>
        <time>2021-06-11T19:29:46Z</time>
      </trkpt>
      <trkpt lat="45.66444" lon="-0.12838">
        <ele>17</ele>
        <time>2021-06-11T19:30:10Z</time>
      </trkpt>
      <trkpt lat="45.66449" lon="-0.12856">
        <ele>17</ele>
        <time>2021-06-11T19:30:12Z</time>
      </trkpt>
      <trkpt lat="45.6645" lon="-0.12873">
        <ele>17</ele>
        <time>2021-06-11T19:30:14Z</time>
      </trkpt>
      <trkpt lat="45.66435" lon="-0.12955">
        <ele>17</ele>
        <time>2021-06-11T19:30:25Z</time>
      </trkpt>
      <trkpt lat="45.66435" lon="-0.12974">
        <ele>17</ele>
        <time>2021-06-11T19:30:27Z</time>
      </trkpt>
      <trkpt lat="45.6644" lon="-0.12996">
        <ele>17</ele>
        <time>2021-06-11T19:30:30Z</time>
      </trkpt>
      <trkpt lat="45.66505" lon="-0.13203">
        <ele>18</ele>
        <time>2021-06-11T19:30:58Z</time>
      </trkpt>
      <trkpt lat="45.66564" lon="-0.13377">
        <ele>19</ele>
        <time>2021-06-11T19:31:22Z</time>
      </trkpt>
      <trkpt lat="45.66579" lon="-0.13437">
        <ele>20</ele>
        <time>2021-06-11T19:31:30Z</time>
      </trkpt>
      <trkpt lat="45.66601" lon="-0.13541">
        <ele>21</ele>
        <time>2021-06-11T19:31:44Z</time>
      </trkpt>
      <trkpt lat="45.66623" lon="-0.13634">
        <ele>21</ele>
        <time>2021-06-11T19:31:56Z</time>
      </trkpt>
      <trkpt lat="45.66638" lon="-0.13693">
        <ele>21</ele>
        <time>2021-06-11T19:32:04Z</time>
      </trkpt>
      <trkpt lat="45.66643" lon="-0.13704">
        <ele>21</ele>
        <time>2021-06-11T19:32:05Z</time>
      </trkpt>
      <trkpt lat="45.66651" lon="-0.13711">
        <ele>21</ele>
        <time>2021-06-11T19:32:07Z</time>
      </trkpt>
      <trkpt lat="45.66659" lon="-0.13709">
        <ele>21</ele>
        <time>2021-06-11T19:32:08Z</time>
      </trkpt>
      <trkpt lat="45.66752" lon="-0.13655">
        <ele>20</ele>
        <time>2021-06-11T19:32:26Z</time>
      </trkpt>
      <trkpt lat="45.66771" lon="-0.13638">
        <ele>19</ele>
        <time>2021-06-11T19:32:30Z</time>
      </trkpt>
      <trkpt lat="45.66807" lon="-0.13613">
        <ele>17</ele>
        <time>2021-06-11T19:32:37Z</time>
      </trkpt>
      <trkpt lat="45.66818" lon="-0.13608">
        <ele>17</ele>
        <time>2021-06-11T19:32:39Z</time>
      </trkpt>
      <trkpt lat="45.66822" lon="-0.13608">
        <ele>17</ele>
        <time>2021-06-11T19:32:40Z</time>
      </trkpt>
      <trkpt lat="45.66826" lon="-0.1361">
        <ele>17</ele>
        <time>2021-06-11T19:32:41Z</time>
      </trkpt>
      <trkpt lat="45.66832" lon="-0.13619">
        <ele>16</ele>
        <time>2021-06-11T19:32:42Z</time>
      </trkpt>
      <trkpt lat="45.66845" lon="-0.13656">
        <ele>17</ele>
        <time>2021-06-11T19:32:48Z</time>
      </trkpt>
      <trkpt lat="45.66864" lon="-0.13714">
        <ele>17</ele>
        <time>2021-06-11T19:32:56Z</time>
      </trkpt>
      <trkpt lat="45.66888" lon="-0.13763">
        <ele>17</ele>
        <time>2021-06-11T19:33:03Z</time>
      </trkpt>
      <trkpt lat="45.66892" lon="-0.13775">
        <ele>17</ele>
        <time>2021-06-11T19:33:05Z</time>
      </trkpt>
      <trkpt lat="45.66897" lon="-0.13804">
        <ele>17</ele>
        <time>2021-06-11T19:33:08Z</time>
      </trkpt>
      <trkpt lat="45.66899" lon="-0.13894">
        <ele>15</ele>
        <time>2021-06-11T19:33:20Z</time>
      </trkpt>
      <trkpt lat="45.66913" lon="-0.14009">
        <ele>14</ele>
        <time>2021-06-11T19:33:34Z</time>
      </trkpt>
      <trkpt lat="45.66937" lon="-0.1417">
        <ele>15</ele>
        <time>2021-06-11T19:33:55Z</time>
      </trkpt>
      <trkpt lat="45.66947" lon="-0.14221">
        <ele>15</ele>
        <time>2021-06-11T19:34:01Z</time>
      </trkpt>
      <trkpt lat="45.67008" lon="-0.14426">
        <ele>17</ele>
        <time>2021-06-11T19:34:29Z</time>
      </trkpt>
      <trkpt lat="45.6707" lon="-0.14693">
        <ele>15</ele>
        <time>2021-06-11T19:35:04Z</time>
      </trkpt>
      <trkpt lat="45.67074" lon="-0.14729">
        <ele>15</ele>
        <time>2021-06-11T19:35:08Z</time>
      </trkpt>
      <trkpt lat="45.67079" lon="-0.1479">
        <ele>15</ele>
        <time>2021-06-11T19:35:16Z</time>
      </trkpt>
      <trkpt lat="45.67081" lon="-0.14829">
        <ele>15</ele>
        <time>2021-06-11T19:35:21Z</time>
      </trkpt>
      <trkpt lat="45.67077" lon="-0.14881">
        <ele>15</ele>
        <time>2021-06-11T19:35:27Z</time>
      </trkpt>
      <trkpt lat="45.67074" lon="-0.1489">
        <ele>15</ele>
        <time>2021-06-11T19:35:29Z</time>
      </trkpt>
      <trkpt lat="45.67027" lon="-0.14896">
        <ele>15</ele>
        <time>2021-06-11T19:35:37Z</time>
      </trkpt>
      <trkpt lat="45.67049" lon="-0.15455">
        <ele>13</ele>
        <time>2021-06-11T19:36:47Z</time>
      </trkpt>
      <trkpt lat="45.67085" lon="-0.15973">
        <ele>14</ele>
        <time>2021-06-11T19:37:51Z</time>
      </trkpt>
      <trkpt lat="45.67089" lon="-0.16007">
        <ele>14</ele>
        <time>2021-06-11T19:37:56Z</time>
      </trkpt>
      <trkpt lat="45.67098" lon="-0.16046">
        <ele>14</ele>
        <time>2021-06-11T19:38:01Z</time>
      </trkpt>
      <trkpt lat="45.67111" lon="-0.16083">
        <ele>14</ele>
        <time>2021-06-11T19:38:06Z</time>
      </trkpt>
      <trkpt lat="45.67117" lon="-0.16107">
        <ele>14</ele>
        <time>2021-06-11T19:38:09Z</time>
      </trkpt>
      <trkpt lat="45.67121" lon="-0.16138">
        <ele>14</ele>
        <time>2021-06-11T19:38:13Z</time>
      </trkpt>
      <trkpt lat="45.67141" lon="-0.16297">
        <ele>14</ele>
        <time>2021-06-11T19:38:33Z</time>
      </trkpt>
      <trkpt lat="45.67162" lon="-0.16491">
        <ele>12</ele>
        <time>2021-06-11T19:38:57Z</time>
      </trkpt>
      <trkpt lat="45.67242" lon="-0.17163">
        <ele>13</ele>
        <time>2021-06-11T19:40:22Z</time>
      </trkpt>
      <trkpt lat="45.67291" lon="-0.176">
        <ele>12</ele>
        <time>2021-06-11T19:41:17Z</time>
      </trkpt>
      <trkpt lat="45.67314" lon="-0.17787">
        <ele>14</ele>
        <time>2021-06-11T19:41:41Z</time>
      </trkpt>
      <trkpt lat="45.67188" lon="-0.1787">
        <ele>14</ele>
        <time>2021-06-11T19:42:06Z</time>
      </trkpt>
      <trkpt lat="45.67022" lon="-0.17983">
        <ele>13</ele>
        <time>2021-06-11T19:42:38Z</time>
      </trkpt>
      <trkpt lat="45.67024" lon="-0.17988">
        <ele>13</ele>
        <time>2021-06-11T19:42:39Z</time>
      </trkpt>
      <trkpt lat="45.67053" lon="-0.1808">
        <ele>12</ele>
        <time>2021-06-11T19:42:52Z</time>
      </trkpt>
      <trkpt lat="45.6706" lon="-0.18104">
        <ele>12</ele>
        <time>2021-06-11T19:42:55Z</time>
      </trkpt>
      <trkpt lat="45.67061" lon="-0.18122">
        <ele>12</ele>
        <time>2021-06-11T19:42:57Z</time>
      </trkpt>
      <trkpt lat="45.67059" lon="-0.18139">
        <ele>12</ele>
        <time>2021-06-11T19:42:59Z</time>
      </trkpt>
      <trkpt lat="45.66991" lon="-0.1834">
        <ele>14</ele>
        <time>2021-06-11T19:43:27Z</time>
      </trkpt>
      <trkpt lat="45.66988" lon="-0.18355">
        <ele>14</ele>
        <time>2021-06-11T19:43:29Z</time>
      </trkpt>
      <trkpt lat="45.66986" lon="-0.18367">
        <ele>14</ele>
        <time>2021-06-11T19:43:30Z</time>
      </trkpt>
      <trkpt lat="45.66985" lon="-0.1839">
        <ele>14</ele>
        <time>2021-06-11T19:43:33Z</time>
      </trkpt>
      <trkpt lat="45.66988" lon="-0.18409">
        <ele>14</ele>
        <time>2021-06-11T19:43:36Z</time>
      </trkpt>
      <trkpt lat="45.66992" lon="-0.18426">
        <ele>14</ele>
        <time>2021-06-11T19:43:38Z</time>
      </trkpt>
      <trkpt lat="45.67032" lon="-0.18512">
        <ele>15</ele>
        <time>2021-06-11T19:43:51Z</time>
      </trkpt>
      <trkpt lat="45.67039" lon="-0.18539">
        <ele>15</ele>
        <time>2021-06-11T19:43:54Z</time>
      </trkpt>
      <trkpt lat="45.67049" lon="-0.18616">
        <ele>14</ele>
        <time>2021-06-11T19:44:04Z</time>
      </trkpt>
      <trkpt lat="45.67061" lon="-0.18734">
        <ele>14</ele>
        <time>2021-06-11T19:44:19Z</time>
      </trkpt>
      <trkpt lat="45.67068" lon="-0.18785">
        <ele>14</ele>
        <time>2021-06-11T19:44:25Z</time>
      </trkpt>
      <trkpt lat="45.67077" lon="-0.18826">
        <ele>14</ele>
        <time>2021-06-11T19:44:31Z</time>
      </trkpt>
      <trkpt lat="45.67101" lon="-0.19011">
        <ele>14</ele>
        <time>2021-06-11T19:44:54Z</time>
      </trkpt>
      <trkpt lat="45.67111" lon="-0.19026">
        <ele>14</ele>
        <time>2021-06-11T19:44:57Z</time>
      </trkpt>
      <trkpt lat="45.67131" lon="-0.19036">
        <ele>14</ele>
        <time>2021-06-11T19:45:00Z</time>
      </trkpt>
      <trkpt lat="45.67141" lon="-0.19043">
        <ele>14</ele>
        <time>2021-06-11T19:45:02Z</time>
      </trkpt>
      <trkpt lat="45.67145" lon="-0.19052">
        <ele>14</ele>
        <time>2021-06-11T19:45:04Z</time>
      </trkpt>
      <trkpt lat="45.67142" lon="-0.19067">
        <ele>14</ele>
        <time>2021-06-11T19:45:06Z</time>
      </trkpt>
      <trkpt lat="45.67134" lon="-0.19088">
        <ele>14</ele>
        <time>2021-06-11T19:45:09Z</time>
      </trkpt>
      <trkpt lat="45.67129" lon="-0.1911">
        <ele>14</ele>
        <time>2021-06-11T19:45:12Z</time>
      </trkpt>
      <trkpt lat="45.67127" lon="-0.19129">
        <ele>15</ele>
        <time>2021-06-11T19:45:14Z</time>
      </trkpt>
      <trkpt lat="45.67124" lon="-0.19197">
        <ele>17</ele>
        <time>2021-06-11T19:45:22Z</time>
      </trkpt>
      <trkpt lat="45.67126" lon="-0.19249">
        <ele>17</ele>
        <time>2021-06-11T19:45:29Z</time>
      </trkpt>
      <trkpt lat="45.6713" lon="-0.19284">
        <ele>18</ele>
        <time>2021-06-11T19:45:33Z</time>
      </trkpt>
      <trkpt lat="45.67151" lon="-0.1943">
        <ele>21</ele>
        <time>2021-06-11T19:45:52Z</time>
      </trkpt>
      <trkpt lat="45.6718" lon="-0.19543">
        <ele>21</ele>
        <time>2021-06-11T19:46:07Z</time>
      </trkpt>
      <trkpt lat="45.67223" lon="-0.19865">
        <ele>16</ele>
        <time>2021-06-11T19:46:48Z</time>
      </trkpt>
      <trkpt lat="45.67228" lon="-0.19915">
        <ele>16</ele>
        <time>2021-06-11T19:46:54Z</time>
      </trkpt>
      <trkpt lat="45.67227" lon="-0.19953">
        <ele>16</ele>
        <time>2021-06-11T19:46:59Z</time>
      </trkpt>
      <trkpt lat="45.6722" lon="-0.20052">
        <ele>16</ele>
        <time>2021-06-11T19:47:11Z</time>
      </trkpt>
      <trkpt lat="45.67211" lon="-0.20107">
        <ele>16</ele>
        <time>2021-06-11T19:47:18Z</time>
      </trkpt>
      <trkpt lat="45.67209" lon="-0.20293">
        <ele>17</ele>
        <time>2021-06-11T19:47:41Z</time>
      </trkpt>
      <trkpt lat="45.67199" lon="-0.20385">
        <ele>17</ele>
        <time>2021-06-11T19:47:53Z</time>
      </trkpt>
      <trkpt lat="45.67194" lon="-0.20446">
        <ele>17</ele>
        <time>2021-06-11T19:48:00Z</time>
      </trkpt>
      <trkpt lat="45.67192" lon="-0.20467">
        <ele>16</ele>
        <time>2021-06-11T19:48:03Z</time>
      </trkpt>
      <trkpt lat="45.67197" lon="-0.20521">
        <ele>16</ele>
        <time>2021-06-11T19:48:10Z</time>
      </trkpt>
      <trkpt lat="45.67207" lon="-0.20593">
        <ele>17</ele>
        <time>2021-06-11T19:48:19Z</time>
      </trkpt>
      <trkpt lat="45.67245" lon="-0.20813">
        <ele>18</ele>
        <time>2021-06-11T19:48:47Z</time>
      </trkpt>
      <trkpt lat="45.67255" lon="-0.20949">
        <ele>16</ele>
        <time>2021-06-11T19:49:04Z</time>
      </trkpt>
      <trkpt lat="45.6725" lon="-0.20972">
        <ele>16</ele>
        <time>2021-06-11T19:49:07Z</time>
      </trkpt>
      <trkpt lat="45.67249" lon="-0.20991">
        <ele>16</ele>
        <time>2021-06-11T19:49:09Z</time>
      </trkpt>
      <trkpt lat="45.6725" lon="-0.21006">
        <ele>16</ele>
        <time>2021-06-11T19:49:11Z</time>
      </trkpt>
      <trkpt lat="45.67256" lon="-0.21024">
        <ele>16</ele>
        <time>2021-06-11T19:49:14Z</time>
      </trkpt>
      <trkpt lat="45.67297" lon="-0.21165">
        <ele>13</ele>
        <time>2021-06-11T19:49:33Z</time>
      </trkpt>
      <trkpt lat="45.67301" lon="-0.21192">
        <ele>13</ele>
        <time>2021-06-11T19:49:36Z</time>
      </trkpt>
      <trkpt lat="45.67306" lon="-0.21238">
        <ele>12</ele>
        <time>2021-06-11T19:49:42Z</time>
      </trkpt>
      <trkpt lat="45.67312" lon="-0.21272">
        <ele>11</ele>
        <time>2021-06-11T19:49:46Z</time>
      </trkpt>
      <trkpt lat="45.67369" lon="-0.21394">
        <ele>10</ele>
        <time>2021-06-11T19:50:05Z</time>
      </trkpt>
      <trkpt lat="45.67378" lon="-0.21414">
        <ele>10</ele>
        <time>2021-06-11T19:50:07Z</time>
      </trkpt>
      <trkpt lat="45.6741" lon="-0.21489">
        <ele>10</ele>
        <time>2021-06-11T19:50:18Z</time>
      </trkpt>
      <trkpt lat="45.67418" lon="-0.21532">
        <ele>11</ele>
        <time>2021-06-11T19:50:24Z</time>
      </trkpt>
      <trkpt lat="45.67416" lon="-0.21569">
        <ele>12</ele>
        <time>2021-06-11T19:50:29Z</time>
      </trkpt>
      <trkpt lat="45.67405" lon="-0.21624">
        <ele>12</ele>
        <time>2021-06-11T19:50:36Z</time>
      </trkpt>
      <trkpt lat="45.67399" lon="-0.21638">
        <ele>13</ele>
        <time>2021-06-11T19:50:38Z</time>
      </trkpt>
      <trkpt lat="45.67392" lon="-0.21651">
        <ele>13</ele>
        <time>2021-06-11T19:50:40Z</time>
      </trkpt>
      <trkpt lat="45.67383" lon="-0.21662">
        <ele>13</ele>
        <time>2021-06-11T19:50:42Z</time>
      </trkpt>
      <trkpt lat="45.6734" lon="-0.21707">
        <ele>16</ele>
        <time>2021-06-11T19:50:51Z</time>
      </trkpt>
      <trkpt lat="45.67276" lon="-0.21788">
        <ele>21</ele>
        <time>2021-06-11T19:51:07Z</time>
      </trkpt>
      <trkpt lat="45.67254" lon="-0.21823">
        <ele>23</ele>
        <time>2021-06-11T19:51:12Z</time>
      </trkpt>
      <trkpt lat="45.6724" lon="-0.21833">
        <ele>24</ele>
        <time>2021-06-11T19:51:15Z</time>
      </trkpt>
      <trkpt lat="45.67212" lon="-0.21822">
        <ele>24</ele>
        <time>2021-06-11T19:51:20Z</time>
      </trkpt>
      <trkpt lat="45.67211" lon="-0.21832">
        <ele>24</ele>
        <time>2021-06-11T19:51:22Z</time>
      </trkpt>
      <trkpt lat="45.67237" lon="-0.21944">
        <ele>24</ele>
        <time>2021-06-11T19:51:36Z</time>
      </trkpt>
      <trkpt lat="45.67237" lon="-0.21963">
        <ele>24</ele>
        <time>2021-06-11T19:51:39Z</time>
      </trkpt>
      <trkpt lat="45.67232" lon="-0.21982">
        <ele>23</ele>
        <time>2021-06-11T19:51:41Z</time>
      </trkpt>
      <trkpt lat="45.67213" lon="-0.2202">
        <ele>23</ele>
        <time>2021-06-11T19:51:47Z</time>
      </trkpt>
      <trkpt lat="45.67205" lon="-0.22051">
        <ele>24</ele>
        <time>2021-06-11T19:51:51Z</time>
      </trkpt>
      <trkpt lat="45.672" lon="-0.22094">
        <ele>24</ele>
        <time>2021-06-11T19:51:57Z</time>
      </trkpt>
      <trkpt lat="45.67198" lon="-0.22097">
        <ele>24</ele>
        <time>2021-06-11T19:51:57Z</time>
      </trkpt>
      <trkpt lat="45.67202" lon="-0.22106">
        <ele>24</ele>
        <time>2021-06-11T19:51:58Z</time>
      </trkpt>
      <trkpt lat="45.67204" lon="-0.22119">
        <ele>23</ele>
        <time>2021-06-11T19:52:00Z</time>
      </trkpt>
      <trkpt lat="45.67208" lon="-0.22171">
        <ele>23</ele>
        <time>2021-06-11T19:52:07Z</time>
      </trkpt>
      <trkpt lat="45.67211" lon="-0.22197">
        <ele>23</ele>
        <time>2021-06-11T19:52:10Z</time>
      </trkpt>
      <trkpt lat="45.67218" lon="-0.22227">
        <ele>23</ele>
        <time>2021-06-11T19:52:14Z</time>
      </trkpt>
      <trkpt lat="45.67244" lon="-0.22269">
        <ele>21</ele>
        <time>2021-06-11T19:52:21Z</time>
      </trkpt>
      <trkpt lat="45.67253" lon="-0.22295">
        <ele>20</ele>
        <time>2021-06-11T19:52:24Z</time>
      </trkpt>
      <trkpt lat="45.6726" lon="-0.22339">
        <ele>19</ele>
        <time>2021-06-11T19:52:30Z</time>
      </trkpt>
      <trkpt lat="45.67263" lon="-0.22412">
        <ele>19</ele>
        <time>2021-06-11T19:52:39Z</time>
      </trkpt>
      <trkpt lat="45.67282" lon="-0.22423">
        <ele>18</ele>
        <time>2021-06-11T19:52:43Z</time>
      </trkpt>
      <trkpt lat="45.67316" lon="-0.22435">
        <ele>15</ele>
        <time>2021-06-11T19:52:49Z</time>
      </trkpt>
      <trkpt lat="45.67328" lon="-0.22438">
        <ele>14</ele>
        <time>2021-06-11T19:52:51Z</time>
      </trkpt>
      <trkpt lat="45.67336" lon="-0.22434">
        <ele>14</ele>
        <time>2021-06-11T19:52:53Z</time>
      </trkpt>
      <trkpt lat="45.67339" lon="-0.22428">
        <ele>14</ele>
        <time>2021-06-11T19:52:53Z</time>
      </trkpt>
      <trkpt lat="45.67344" lon="-0.22376">
        <ele>14</ele>
        <time>2021-06-11T19:53:00Z</time>
      </trkpt>
      <trkpt lat="45.67346" lon="-0.22368">
        <ele>14</ele>
        <time>2021-06-11T19:53:01Z</time>
      </trkpt>
      <trkpt lat="45.67354" lon="-0.22366">
        <ele>13</ele>
        <time>2021-06-11T19:53:02Z</time>
      </trkpt>
      <trkpt lat="45.67406" lon="-0.2238">
        <ele>12</ele>
        <time>2021-06-11T19:53:12Z</time>
      </trkpt>
      <trkpt lat="45.67497" lon="-0.22404">
        <ele>11</ele>
        <time>2021-06-11T19:53:28Z</time>
      </trkpt>
      <trkpt lat="45.67581" lon="-0.22422">
        <ele>13</ele>
        <time>2021-06-11T19:53:43Z</time>
      </trkpt>
      <trkpt lat="45.6761" lon="-0.2243">
        <ele>13</ele>
        <time>2021-06-11T19:53:49Z</time>
      </trkpt>
      <trkpt lat="45.67653" lon="-0.22446">
        <ele>12</ele>
        <time>2021-06-11T19:53:57Z</time>
      </trkpt>
      <trkpt lat="45.67674" lon="-0.22458">
        <ele>12</ele>
        <time>2021-06-11T19:54:01Z</time>
      </trkpt>
      <trkpt lat="45.67686" lon="-0.22469">
        <ele>12</ele>
        <time>2021-06-11T19:54:03Z</time>
      </trkpt>
      <trkpt lat="45.67694" lon="-0.22485">
        <ele>12</ele>
        <time>2021-06-11T19:54:06Z</time>
      </trkpt>
      <trkpt lat="45.67699" lon="-0.22506">
        <ele>13</ele>
        <time>2021-06-11T19:54:08Z</time>
      </trkpt>
      <trkpt lat="45.67704" lon="-0.22534">
        <ele>17</ele>
        <time>2021-06-11T19:54:12Z</time>
      </trkpt>
      <trkpt lat="45.6771" lon="-0.22542">
        <ele>17</ele>
        <time>2021-06-11T19:54:13Z</time>
      </trkpt>
      <trkpt lat="45.67753" lon="-0.22568">
        <ele>17</ele>
        <time>2021-06-11T19:54:22Z</time>
      </trkpt>
      <trkpt lat="45.67761" lon="-0.22574">
        <ele>17</ele>
        <time>2021-06-11T19:54:23Z</time>
      </trkpt>
      <trkpt lat="45.67772" lon="-0.22584">
        <ele>17</ele>
        <time>2021-06-11T19:54:26Z</time>
      </trkpt>
      <trkpt lat="45.67802" lon="-0.22618">
        <ele>18</ele>
        <time>2021-06-11T19:54:32Z</time>
      </trkpt>
      <trkpt lat="45.67818" lon="-0.22627">
        <ele>17</ele>
        <time>2021-06-11T19:54:36Z</time>
      </trkpt>
      <trkpt lat="45.67826" lon="-0.22627">
        <ele>17</ele>
        <time>2021-06-11T19:54:37Z</time>
      </trkpt>
      <trkpt lat="45.67837" lon="-0.22624">
        <ele>16</ele>
        <time>2021-06-11T19:54:39Z</time>
      </trkpt>
      <trkpt lat="45.67885" lon="-0.22602">
        <ele>16</ele>
        <time>2021-06-11T19:54:48Z</time>
      </trkpt>
      <trkpt lat="45.67911" lon="-0.22598">
        <ele>16</ele>
        <time>2021-06-11T19:54:53Z</time>
      </trkpt>
      <trkpt lat="45.6792" lon="-0.22594">
        <ele>16</ele>
        <time>2021-06-11T19:54:54Z</time>
      </trkpt>
      <trkpt lat="45.67934" lon="-0.22623">
        <ele>17</ele>
        <time>2021-06-11T19:54:59Z</time>
      </trkpt>
      <trkpt lat="45.67951" lon="-0.22663">
        <ele>19</ele>
        <time>2021-06-11T19:55:04Z</time>
      </trkpt>
      <trkpt lat="45.67954" lon="-0.22677">
        <ele>20</ele>
        <time>2021-06-11T19:55:06Z</time>
      </trkpt>
      <trkpt lat="45.67934" lon="-0.22762">
        <ele>23</ele>
        <time>2021-06-11T19:55:17Z</time>
      </trkpt>
      <trkpt lat="45.67934" lon="-0.22823">
        <ele>24</ele>
        <time>2021-06-11T19:55:25Z</time>
      </trkpt>
      <trkpt lat="45.67936" lon="-0.22855">
        <ele>24</ele>
        <time>2021-06-11T19:55:29Z</time>
      </trkpt>
      <trkpt lat="45.67935" lon="-0.22881">
        <ele>24</ele>
        <time>2021-06-11T19:55:32Z</time>
      </trkpt>
      <trkpt lat="45.67929" lon="-0.22913">
        <ele>24</ele>
        <time>2021-06-11T19:55:36Z</time>
      </trkpt>
      <trkpt lat="45.67922" lon="-0.22941">
        <ele>25</ele>
        <time>2021-06-11T19:55:40Z</time>
      </trkpt>
      <trkpt lat="45.67913" lon="-0.22968">
        <ele>26</ele>
        <time>2021-06-11T19:55:44Z</time>
      </trkpt>
      <trkpt lat="45.67899" lon="-0.22997">
        <ele>28</ele>
        <time>2021-06-11T19:55:48Z</time>
      </trkpt>
      <trkpt lat="45.67835" lon="-0.2311">
        <ele>33</ele>
        <time>2021-06-11T19:56:06Z</time>
      </trkpt>
      <trkpt lat="45.67799" lon="-0.23156">
        <ele>31</ele>
        <time>2021-06-11T19:56:15Z</time>
      </trkpt>
      <trkpt lat="45.67797" lon="-0.23165">
        <ele>31</ele>
        <time>2021-06-11T19:56:16Z</time>
      </trkpt>
      <trkpt lat="45.67797" lon="-0.23197">
        <ele>30</ele>
        <time>2021-06-11T19:56:20Z</time>
      </trkpt>
      <trkpt lat="45.67801" lon="-0.23249">
        <ele>30</ele>
        <time>2021-06-11T19:56:27Z</time>
      </trkpt>
      <trkpt lat="45.67802" lon="-0.23309">
        <ele>30</ele>
        <time>2021-06-11T19:56:34Z</time>
      </trkpt>
      <trkpt lat="45.67796" lon="-0.23382">
        <ele>28</ele>
        <time>2021-06-11T19:56:43Z</time>
      </trkpt>
      <trkpt lat="45.67768" lon="-0.23604">
        <ele>24</ele>
        <time>2021-06-11T19:57:11Z</time>
      </trkpt>
      <trkpt lat="45.67748" lon="-0.23737">
        <ele>21</ele>
        <time>2021-06-11T19:57:28Z</time>
      </trkpt>
      <trkpt lat="45.67741" lon="-0.23759">
        <ele>21</ele>
        <time>2021-06-11T19:57:31Z</time>
      </trkpt>
      <trkpt lat="45.67712" lon="-0.23834">
        <ele>20</ele>
        <time>2021-06-11T19:57:42Z</time>
      </trkpt>
      <trkpt lat="45.67692" lon="-0.23897">
        <ele>19</ele>
        <time>2021-06-11T19:57:50Z</time>
      </trkpt>
      <trkpt lat="45.67681" lon="-0.23965">
        <ele>19</ele>
        <time>2021-06-11T19:57:59Z</time>
      </trkpt>
      <trkpt lat="45.67681" lon="-0.23998">
        <ele>19</ele>
        <time>2021-06-11T19:58:03Z</time>
      </trkpt>
      <trkpt lat="45.67684" lon="-0.24033">
        <ele>19</ele>
        <time>2021-06-11T19:58:07Z</time>
      </trkpt>
      <trkpt lat="45.67681" lon="-0.2409">
        <ele>19</ele>
        <time>2021-06-11T19:58:15Z</time>
      </trkpt>
      <trkpt lat="45.67683" lon="-0.24118">
        <ele>18</ele>
        <time>2021-06-11T19:58:18Z</time>
      </trkpt>
      <trkpt lat="45.67699" lon="-0.24268">
        <ele>18</ele>
        <time>2021-06-11T19:58:37Z</time>
      </trkpt>
      <trkpt lat="45.67719" lon="-0.24405">
        <ele>20</ele>
        <time>2021-06-11T19:58:54Z</time>
      </trkpt>
      <trkpt lat="45.67737" lon="-0.24518">
        <ele>18</ele>
        <time>2021-06-11T19:59:09Z</time>
      </trkpt>
      <trkpt lat="45.67741" lon="-0.24566">
        <ele>17</ele>
        <time>2021-06-11T19:59:15Z</time>
      </trkpt>
      <trkpt lat="45.67737" lon="-0.24648">
        <ele>18</ele>
        <time>2021-06-11T19:59:25Z</time>
      </trkpt>
      <trkpt lat="45.67737" lon="-0.24704">
        <ele>19</ele>
        <time>2021-06-11T19:59:32Z</time>
      </trkpt>
      <trkpt lat="45.67752" lon="-0.24819">
        <ele>19</ele>
        <time>2021-06-11T19:59:46Z</time>
      </trkpt>
      <trkpt lat="45.67758" lon="-0.2485">
        <ele>19</ele>
        <time>2021-06-11T19:59:50Z</time>
      </trkpt>
      <trkpt lat="45.67806" lon="-0.24978">
        <ele>17</ele>
        <time>2021-06-11T20:00:09Z</time>
      </trkpt>
      <trkpt lat="45.67817" lon="-0.24995">
        <ele>17</ele>
        <time>2021-06-11T20:00:11Z</time>
      </trkpt>
      <trkpt lat="45.67858" lon="-0.2505">
        <ele>17</ele>
        <time>2021-06-11T20:00:21Z</time>
      </trkpt>
      <trkpt lat="45.67872" lon="-0.25074">
        <ele>16</ele>
        <time>2021-06-11T20:00:25Z</time>
      </trkpt>
      <trkpt lat="45.67901" lon="-0.2513">
        <ele>16</ele>
        <time>2021-06-11T20:00:34Z</time>
      </trkpt>
      <trkpt lat="45.67926" lon="-0.25175">
        <ele>16</ele>
        <time>2021-06-11T20:00:41Z</time>
      </trkpt>
      <trkpt lat="45.6798" lon="-0.25294">
        <ele>16</ele>
        <time>2021-06-11T20:00:59Z</time>
      </trkpt>
      <trkpt lat="45.68018" lon="-0.25354">
        <ele>17</ele>
        <time>2021-06-11T20:01:09Z</time>
      </trkpt>
      <trkpt lat="45.68071" lon="-0.25427">
        <ele>19</ele>
        <time>2021-06-11T20:01:22Z</time>
      </trkpt>
      <trkpt lat="45.68093" lon="-0.25464">
        <ele>20</ele>
        <time>2021-06-11T20:01:28Z</time>
      </trkpt>
      <trkpt lat="45.68127" lon="-0.25506">
        <ele>22</ele>
        <time>2021-06-11T20:01:36Z</time>
      </trkpt>
      <trkpt lat="45.6815" lon="-0.25527">
        <ele>23</ele>
        <time>2021-06-11T20:01:41Z</time>
      </trkpt>
      <trkpt lat="45.6817" lon="-0.25549">
        <ele>24</ele>
        <time>2021-06-11T20:01:45Z</time>
      </trkpt>
      <trkpt lat="45.68212" lon="-0.25627">
        <ele>26</ele>
        <time>2021-06-11T20:01:58Z</time>
      </trkpt>
      <trkpt lat="45.68234" lon="-0.25672">
        <ele>28</ele>
        <time>2021-06-11T20:02:04Z</time>
      </trkpt>
      <trkpt lat="45.68262" lon="-0.25721">
        <ele>30</ele>
        <time>2021-06-11T20:02:12Z</time>
      </trkpt>
      <trkpt lat="45.683" lon="-0.25772">
        <ele>33</ele>
        <time>2021-06-11T20:02:22Z</time>
      </trkpt>
      <trkpt lat="45.68318" lon="-0.25803">
        <ele>34</ele>
        <time>2021-06-11T20:02:27Z</time>
      </trkpt>
      <trkpt lat="45.6834" lon="-0.25859">
        <ele>35</ele>
        <time>2021-06-11T20:02:35Z</time>
      </trkpt>
      <trkpt lat="45.68385" lon="-0.25993">
        <ele>33</ele>
        <time>2021-06-11T20:02:53Z</time>
      </trkpt>
      <trkpt lat="45.6843" lon="-0.26117">
        <ele>34</ele>
        <time>2021-06-11T20:03:10Z</time>
      </trkpt>
      <trkpt lat="45.68468" lon="-0.26196">
        <ele>35</ele>
        <time>2021-06-11T20:03:22Z</time>
      </trkpt>
      <trkpt lat="45.68578" lon="-0.26444">
        <ele>36</ele>
        <time>2021-06-11T20:03:59Z</time>
      </trkpt>
      <trkpt lat="45.68593" lon="-0.26492">
        <ele>37</ele>
        <time>2021-06-11T20:04:05Z</time>
      </trkpt>
      <trkpt lat="45.68601" lon="-0.26624">
        <ele>35</ele>
        <time>2021-06-11T20:04:22Z</time>
      </trkpt>
      <trkpt lat="45.68606" lon="-0.26683">
        <ele>34</ele>
        <time>2021-06-11T20:04:29Z</time>
      </trkpt>
      <trkpt lat="45.68612" lon="-0.26717">
        <ele>33</ele>
        <time>2021-06-11T20:04:34Z</time>
      </trkpt>
      <trkpt lat="45.68621" lon="-0.26748">
        <ele>33</ele>
        <time>2021-06-11T20:04:38Z</time>
      </trkpt>
      <trkpt lat="45.68656" lon="-0.26805">
        <ele>35</ele>
        <time>2021-06-11T20:04:47Z</time>
      </trkpt>
      <trkpt lat="45.68691" lon="-0.26875">
        <ele>38</ele>
        <time>2021-06-11T20:04:58Z</time>
      </trkpt>
      <trkpt lat="45.68725" lon="-0.26969">
        <ele>39</ele>
        <time>2021-06-11T20:05:11Z</time>
      </trkpt>
      <trkpt lat="45.68741" lon="-0.27036">
        <ele>38</ele>
        <time>2021-06-11T20:05:20Z</time>
      </trkpt>
      <trkpt lat="45.68764" lon="-0.27146">
        <ele>36</ele>
        <time>2021-06-11T20:05:34Z</time>
      </trkpt>
      <trkpt lat="45.68787" lon="-0.27234">
        <ele>34</ele>
        <time>2021-06-11T20:05:46Z</time>
      </trkpt>
      <trkpt lat="45.68799" lon="-0.27256">
        <ele>32</ele>
        <time>2021-06-11T20:05:49Z</time>
      </trkpt>
      <trkpt lat="45.68803" lon="-0.27259">
        <ele>32</ele>
        <time>2021-06-11T20:05:50Z</time>
      </trkpt>
      <trkpt lat="45.68805" lon="-0.2732">
        <ele>31</ele>
        <time>2021-06-11T20:05:58Z</time>
      </trkpt>
      <trkpt lat="45.68802" lon="-0.27359">
        <ele>30</ele>
        <time>2021-06-11T20:06:02Z</time>
      </trkpt>
      <trkpt lat="45.68793" lon="-0.27431">
        <ele>28</ele>
        <time>2021-06-11T20:06:12Z</time>
      </trkpt>
      <trkpt lat="45.68795" lon="-0.27474">
        <ele>28</ele>
        <time>2021-06-11T20:06:17Z</time>
      </trkpt>
      <trkpt lat="45.68797" lon="-0.27496">
        <ele>28</ele>
        <time>2021-06-11T20:06:20Z</time>
      </trkpt>
      <trkpt lat="45.68806" lon="-0.27525">
        <ele>28</ele>
        <time>2021-06-11T20:06:24Z</time>
      </trkpt>
      <trkpt lat="45.68856" lon="-0.27652">
        <ele>28</ele>
        <time>2021-06-11T20:06:42Z</time>
      </trkpt>
      <trkpt lat="45.68856" lon="-0.27662">
        <ele>27</ele>
        <time>2021-06-11T20:06:43Z</time>
      </trkpt>
      <trkpt lat="45.68842" lon="-0.27675">
        <ele>26</ele>
        <time>2021-06-11T20:06:46Z</time>
      </trkpt>
      <trkpt lat="45.68826" lon="-0.27686">
        <ele>25</ele>
        <time>2021-06-11T20:06:49Z</time>
      </trkpt>
      <trkpt lat="45.68818" lon="-0.27694">
        <ele>25</ele>
        <time>2021-06-11T20:06:51Z</time>
      </trkpt>
      <trkpt lat="45.68816" lon="-0.27699">
        <ele>24</ele>
        <time>2021-06-11T20:06:52Z</time>
      </trkpt>
      <trkpt lat="45.68875" lon="-0.2781">
        <ele>24</ele>
        <time>2021-06-11T20:07:09Z</time>
      </trkpt>
      <trkpt lat="45.68882" lon="-0.2783">
        <ele>24</ele>
        <time>2021-06-11T20:07:12Z</time>
      </trkpt>
      <trkpt lat="45.68902" lon="-0.27914">
        <ele>22</ele>
        <time>2021-06-11T20:07:23Z</time>
      </trkpt>
      <trkpt lat="45.68901" lon="-0.27925">
        <ele>22</ele>
        <time>2021-06-11T20:07:24Z</time>
      </trkpt>
      <trkpt lat="45.68895" lon="-0.27936">
        <ele>21</ele>
        <time>2021-06-11T20:07:26Z</time>
      </trkpt>
      <trkpt lat="45.68862" lon="-0.27979">
        <ele>19</ele>
        <time>2021-06-11T20:07:34Z</time>
      </trkpt>
      <trkpt lat="45.68857" lon="-0.27991">
        <ele>18</ele>
        <time>2021-06-11T20:07:36Z</time>
      </trkpt>
      <trkpt lat="45.68856" lon="-0.28008">
        <ele>17</ele>
        <time>2021-06-11T20:07:38Z</time>
      </trkpt>
      <trkpt lat="45.68861" lon="-0.28046">
        <ele>17</ele>
        <time>2021-06-11T20:07:42Z</time>
      </trkpt>
      <trkpt lat="45.68862" lon="-0.2807">
        <ele>17</ele>
        <time>2021-06-11T20:07:45Z</time>
      </trkpt>
      <trkpt lat="45.6886" lon="-0.28082">
        <ele>17</ele>
        <time>2021-06-11T20:07:47Z</time>
      </trkpt>
      <trkpt lat="45.68832" lon="-0.28136">
        <ele>15</ele>
        <time>2021-06-11T20:07:55Z</time>
      </trkpt>
      <trkpt lat="45.68831" lon="-0.28152">
        <ele>15</ele>
        <time>2021-06-11T20:07:57Z</time>
      </trkpt>
      <trkpt lat="45.68839" lon="-0.28168">
        <ele>15</ele>
        <time>2021-06-11T20:08:00Z</time>
      </trkpt>
      <trkpt lat="45.68868" lon="-0.28199">
        <ele>16</ele>
        <time>2021-06-11T20:08:06Z</time>
      </trkpt>
      <trkpt lat="45.68885" lon="-0.28224">
        <ele>17</ele>
        <time>2021-06-11T20:08:11Z</time>
      </trkpt>
      <trkpt lat="45.68902" lon="-0.28254">
        <ele>17</ele>
        <time>2021-06-11T20:08:15Z</time>
      </trkpt>
      <trkpt lat="45.68952" lon="-0.28369">
        <ele>18</ele>
        <time>2021-06-11T20:08:32Z</time>
      </trkpt>
      <trkpt lat="45.68955" lon="-0.28366">
        <ele>18</ele>
        <time>2021-06-11T20:08:33Z</time>
      </trkpt>
      <trkpt lat="45.68959" lon="-0.28365">
        <ele>18</ele>
        <time>2021-06-11T20:08:34Z</time>
      </trkpt>
      <trkpt lat="45.68965" lon="-0.28368">
        <ele>18</ele>
        <time>2021-06-11T20:08:35Z</time>
      </trkpt>
      <trkpt lat="45.68967" lon="-0.28371">
        <ele>18</ele>
        <time>2021-06-11T20:08:35Z</time>
      </trkpt>
      <trkpt lat="45.68969" lon="-0.28376">
        <ele>18</ele>
        <time>2021-06-11T20:08:36Z</time>
      </trkpt>
      <trkpt lat="45.68969" lon="-0.28386">
        <ele>18</ele>
        <time>2021-06-11T20:08:37Z</time>
      </trkpt>
      <trkpt lat="45.68967" lon="-0.2839">
        <ele>18</ele>
        <time>2021-06-11T20:08:38Z</time>
      </trkpt>
      <trkpt lat="45.68965" lon="-0.28393">
        <ele>18</ele>
        <time>2021-06-11T20:08:38Z</time>
      </trkpt>
      <trkpt lat="45.68958" lon="-0.28395">
        <ele>17</ele>
        <time>2021-06-11T20:08:40Z</time>
      </trkpt>
      <trkpt lat="45.68953" lon="-0.28392">
        <ele>17</ele>
        <time>2021-06-11T20:08:41Z</time>
      </trkpt>
      <trkpt lat="45.6895" lon="-0.28389">
        <ele>17</ele>
        <time>2021-06-11T20:08:41Z</time>
      </trkpt>
      <trkpt lat="45.68893" lon="-0.28444">
        <ele>13</ele>
        <time>2021-06-11T20:08:53Z</time>
      </trkpt>
      <trkpt lat="45.68884" lon="-0.28452">
        <ele>12</ele>
        <time>2021-06-11T20:08:55Z</time>
      </trkpt>
      <trkpt lat="45.68855" lon="-0.28479">
        <ele>11</ele>
        <time>2021-06-11T20:09:01Z</time>
      </trkpt>
      <trkpt lat="45.68823" lon="-0.28508">
        <ele>11</ele>
        <time>2021-06-11T20:09:08Z</time>
      </trkpt>
      <trkpt lat="45.68789" lon="-0.28542">
        <ele>11</ele>
        <time>2021-06-11T20:09:16Z</time>
      </trkpt>
      <trkpt lat="45.68782" lon="-0.28548">
        <ele>11</ele>
        <time>2021-06-11T20:09:17Z</time>
      </trkpt>
      <trkpt lat="45.68761" lon="-0.28568">
        <ele>11</ele>
        <time>2021-06-11T20:09:22Z</time>
      </trkpt>
      <trkpt lat="45.68747" lon="-0.28583">
        <ele>11</ele>
        <time>2021-06-11T20:09:25Z</time>
      </trkpt>
      <trkpt lat="45.68741" lon="-0.28567">
        <ele>10</ele>
        <time>2021-06-11T20:09:27Z</time>
      </trkpt>
      <trkpt lat="45.68747" lon="-0.28569">
        <ele>11</ele>
        <time>2021-06-11T20:09:28Z</time>
      </trkpt>
      <trkpt lat="45.68759" lon="-0.28559">
        <ele>11</ele>
        <time>2021-06-11T20:09:30Z</time>
      </trkpt>
      <trkpt lat="45.68783" lon="-0.28526">
        <ele>10</ele>
        <time>2021-06-11T20:09:36Z</time>
      </trkpt>
      <trkpt lat="45.68788" lon="-0.28526">
        <ele>10</ele>
        <time>2021-06-11T20:09:37Z</time>
      </trkpt>
      <trkpt lat="45.68811" lon="-0.28589">
        <ele>12</ele>
        <time>2021-06-11T20:09:46Z</time>
      </trkpt>
      <trkpt lat="45.68814" lon="-0.28606">
        <ele>11</ele>
        <time>2021-06-11T20:09:48Z</time>
      </trkpt>
      <trkpt lat="45.68811" lon="-0.28634">
        <ele>10</ele>
        <time>2021-06-11T20:09:52Z</time>
      </trkpt>
      <trkpt lat="45.68816" lon="-0.28652">
        <ele>10</ele>
        <time>2021-06-11T20:09:54Z</time>
      </trkpt>
      <trkpt lat="45.68821" lon="-0.28673">
        <ele>9</ele>
        <time>2021-06-11T20:09:57Z</time>
      </trkpt>
      <trkpt lat="45.68824" lon="-0.28682">
        <ele>9</ele>
        <time>2021-06-11T20:09:58Z</time>
      </trkpt>
      <trkpt lat="45.68836" lon="-0.2871">
        <ele>9</ele>
        <time>2021-06-11T20:10:02Z</time>
      </trkpt>
      <trkpt lat="45.68856" lon="-0.28766">
        <ele>8</ele>
        <time>2021-06-11T20:10:10Z</time>
      </trkpt>
      <trkpt lat="45.68896" lon="-0.28903">
        <ele>9</ele>
        <time>2021-06-11T20:10:29Z</time>
      </trkpt>
      <trkpt lat="45.6893" lon="-0.28999">
        <ele>9</ele>
        <time>2021-06-11T20:10:42Z</time>
      </trkpt>
      <trkpt lat="45.68967" lon="-0.29088">
        <ele>8</ele>
        <time>2021-06-11T20:10:55Z</time>
      </trkpt>
      <trkpt lat="45.69033" lon="-0.29237">
        <ele>10</ele>
        <time>2021-06-11T20:11:17Z</time>
      </trkpt>
      <trkpt lat="45.6907" lon="-0.29318">
        <ele>11</ele>
        <time>2021-06-11T20:11:29Z</time>
      </trkpt>
      <trkpt lat="45.69124" lon="-0.29413">
        <ele>11</ele>
        <time>2021-06-11T20:11:44Z</time>
      </trkpt>
      <trkpt lat="45.69174" lon="-0.29484">
        <ele>6</ele>
        <time>2021-06-11T20:11:57Z</time>
      </trkpt>
      <trkpt lat="45.69222" lon="-0.2957">
        <ele>11</ele>
        <time>2021-06-11T20:12:10Z</time>
      </trkpt>
      <trkpt lat="45.69256" lon="-0.29629">
        <ele>16</ele>
        <time>2021-06-11T20:12:20Z</time>
      </trkpt>
      <trkpt lat="45.69269" lon="-0.29641">
        <ele>16</ele>
        <time>2021-06-11T20:12:22Z</time>
      </trkpt>
      <trkpt lat="45.69291" lon="-0.29662">
        <ele>15</ele>
        <time>2021-06-11T20:12:27Z</time>
      </trkpt>
      <trkpt lat="45.69321" lon="-0.297">
        <ele>15</ele>
        <time>2021-06-11T20:12:34Z</time>
      </trkpt>
      <trkpt lat="45.69354" lon="-0.29729">
        <ele>14</ele>
        <time>2021-06-11T20:12:41Z</time>
      </trkpt>
      <trkpt lat="45.69433" lon="-0.29807">
        <ele>11</ele>
        <time>2021-06-11T20:12:58Z</time>
      </trkpt>
      <trkpt lat="45.69529" lon="-0.29871">
        <ele>11</ele>
        <time>2021-06-11T20:13:17Z</time>
      </trkpt>
      <trkpt lat="45.6967" lon="-0.29988">
        <ele>9</ele>
        <time>2021-06-11T20:13:46Z</time>
      </trkpt>
      <trkpt lat="45.6975" lon="-0.3005">
        <ele>7</ele>
        <time>2021-06-11T20:14:02Z</time>
      </trkpt>
      <trkpt lat="45.69816" lon="-0.30126">
        <ele>7</ele>
        <time>2021-06-11T20:14:17Z</time>
      </trkpt>
      <trkpt lat="45.69868" lon="-0.30197">
        <ele>9</ele>
        <time>2021-06-11T20:14:30Z</time>
      </trkpt>
      <trkpt lat="45.69895" lon="-0.3025">
        <ele>9</ele>
        <time>2021-06-11T20:14:38Z</time>
      </trkpt>
      <trkpt lat="45.69926" lon="-0.30303">
        <ele>8</ele>
        <time>2021-06-11T20:14:47Z</time>
      </trkpt>
      <trkpt lat="45.69972" lon="-0.30362">
        <ele>9</ele>
        <time>2021-06-11T20:14:58Z</time>
      </trkpt>
      <trkpt lat="45.70032" lon="-0.30414">
        <ele>9</ele>
        <time>2021-06-11T20:15:10Z</time>
      </trkpt>
      <trkpt lat="45.7009" lon="-0.30457">
        <ele>8</ele>
        <time>2021-06-11T20:15:22Z</time>
      </trkpt>
      <trkpt lat="45.70142" lon="-0.30469">
        <ele>9</ele>
        <time>2021-06-11T20:15:31Z</time>
      </trkpt>
      <trkpt lat="45.70209" lon="-0.30496">
        <ele>10</ele>
        <time>2021-06-11T20:15:44Z</time>
      </trkpt>
      <trkpt lat="45.70323" lon="-0.3055">
        <ele>9</ele>
        <time>2021-06-11T20:16:05Z</time>
      </trkpt>
      <trkpt lat="45.70362" lon="-0.30562">
        <ele>9</ele>
        <time>2021-06-11T20:16:12Z</time>
      </trkpt>
      <trkpt lat="45.70416" lon="-0.30627">
        <ele>10</ele>
        <time>2021-06-11T20:16:25Z</time>
      </trkpt>
      <trkpt lat="45.70454" lon="-0.30687">
        <ele>11</ele>
        <time>2021-06-11T20:16:35Z</time>
      </trkpt>
      <trkpt lat="45.70494" lon="-0.30743">
        <ele>12</ele>
        <time>2021-06-11T20:16:45Z</time>
      </trkpt>
      <trkpt lat="45.7051" lon="-0.3077">
        <ele>11</ele>
        <time>2021-06-11T20:16:49Z</time>
      </trkpt>
      <trkpt lat="45.70561" lon="-0.30871">
        <ele>9</ele>
        <time>2021-06-11T20:17:05Z</time>
      </trkpt>
      <trkpt lat="45.70594" lon="-0.3093">
        <ele>9</ele>
        <time>2021-06-11T20:17:14Z</time>
      </trkpt>
      <trkpt lat="45.70623" lon="-0.30977">
        <ele>9</ele>
        <time>2021-06-11T20:17:22Z</time>
      </trkpt>
      <trkpt lat="45.70654" lon="-0.31034">
        <ele>10</ele>
        <time>2021-06-11T20:17:31Z</time>
      </trkpt>
      <trkpt lat="45.70671" lon="-0.31083">
        <ele>9</ele>
        <time>2021-06-11T20:17:38Z</time>
      </trkpt>
      <trkpt lat="45.70701" lon="-0.31143">
        <ele>10</ele>
        <time>2021-06-11T20:17:47Z</time>
      </trkpt>
      <trkpt lat="45.70711" lon="-0.31179">
        <ele>10</ele>
        <time>2021-06-11T20:17:52Z</time>
      </trkpt>
      <trkpt lat="45.70713" lon="-0.31211">
        <ele>10</ele>
        <time>2021-06-11T20:17:56Z</time>
      </trkpt>
      <trkpt lat="45.70724" lon="-0.31249">
        <ele>11</ele>
        <time>2021-06-11T20:18:01Z</time>
      </trkpt>
      <trkpt lat="45.70796" lon="-0.31348">
        <ele>10</ele>
        <time>2021-06-11T20:18:18Z</time>
      </trkpt>
      <trkpt lat="45.70829" lon="-0.31389">
        <ele>10</ele>
        <time>2021-06-11T20:18:26Z</time>
      </trkpt>
      <trkpt lat="45.70825" lon="-0.31407">
        <ele>10</ele>
        <time>2021-06-11T20:18:29Z</time>
      </trkpt>
      <trkpt lat="45.70817" lon="-0.3143">
        <ele>11</ele>
        <time>2021-06-11T20:18:32Z</time>
      </trkpt>
      <trkpt lat="45.70806" lon="-0.31452">
        <ele>12</ele>
        <time>2021-06-11T20:18:35Z</time>
      </trkpt>
      <trkpt lat="45.70799" lon="-0.31453">
        <ele>12</ele>
        <time>2021-06-11T20:18:36Z</time>
      </trkpt>
      <trkpt lat="45.70793" lon="-0.31451">
        <ele>12</ele>
        <time>2021-06-11T20:18:37Z</time>
      </trkpt>
      <trkpt lat="45.70781" lon="-0.31449">
        <ele>13</ele>
        <time>2021-06-11T20:18:40Z</time>
      </trkpt>
      <trkpt lat="45.70772" lon="-0.31453">
        <ele>13</ele>
        <time>2021-06-11T20:18:41Z</time>
      </trkpt>
      <trkpt lat="45.70715" lon="-0.31509">
        <ele>16</ele>
        <time>2021-06-11T20:18:54Z</time>
      </trkpt>
      <trkpt lat="45.7072" lon="-0.31511">
        <ele>15</ele>
        <time>2021-06-11T20:18:55Z</time>
      </trkpt>
      <trkpt lat="45.70723" lon="-0.31516">
        <ele>15</ele>
        <time>2021-06-11T20:18:55Z</time>
      </trkpt>
      <trkpt lat="45.70763" lon="-0.31604">
        <ele>10</ele>
        <time>2021-06-11T20:19:08Z</time>
      </trkpt>
      <trkpt lat="45.70821" lon="-0.31726">
        <ele>11</ele>
        <time>2021-06-11T20:19:27Z</time>
      </trkpt>
      <trkpt lat="45.70713" lon="-0.31868">
        <ele>16</ele>
        <time>2021-06-11T20:19:53Z</time>
      </trkpt>
      <trkpt lat="45.70706" lon="-0.3196">
        <ele>15</ele>
        <time>2021-06-11T20:20:04Z</time>
      </trkpt>
      <trkpt lat="45.70698" lon="-0.3203">
        <ele>14</ele>
        <time>2021-06-11T20:20:13Z</time>
      </trkpt>
      <trkpt lat="45.70691" lon="-0.32072">
        <ele>14</ele>
        <time>2021-06-11T20:20:18Z</time>
      </trkpt>
      <trkpt lat="45.70675" lon="-0.32132">
        <ele>13</ele>
        <time>2021-06-11T20:20:26Z</time>
      </trkpt>
      <trkpt lat="45.70713" lon="-0.32202">
        <ele>11</ele>
        <time>2021-06-11T20:20:37Z</time>
      </trkpt>
      <trkpt lat="45.70724" lon="-0.32232">
        <ele>10</ele>
        <time>2021-06-11T20:20:42Z</time>
      </trkpt>
      <trkpt lat="45.70795" lon="-0.32157">
        <ele>10</ele>
        <time>2021-06-11T20:20:57Z</time>
      </trkpt>
      <trkpt lat="45.70853" lon="-0.32099">
        <ele>10</ele>
        <time>2021-06-11T20:21:10Z</time>
      </trkpt>
      <trkpt lat="45.70965" lon="-0.31977">
        <ele>8</ele>
        <time>2021-06-11T20:21:35Z</time>
      </trkpt>
      <trkpt lat="45.70988" lon="-0.31961">
        <ele>7</ele>
        <time>2021-06-11T20:21:40Z</time>
      </trkpt>
      <trkpt lat="45.70997" lon="-0.31946">
        <ele>6</ele>
        <time>2021-06-11T20:21:42Z</time>
      </trkpt>
      <trkpt lat="45.70994" lon="-0.31995">
        <ele>7</ele>
        <time>2021-06-11T20:21:48Z</time>
      </trkpt>
      <trkpt lat="45.70982" lon="-0.32075">
        <ele>9</ele>
        <time>2021-06-11T20:21:58Z</time>
      </trkpt>
      <trkpt lat="45.70964" lon="-0.32181">
        <ele>7</ele>
        <time>2021-06-11T20:22:12Z</time>
      </trkpt>
      <trkpt lat="45.7095" lon="-0.32241">
        <ele>8</ele>
        <time>2021-06-11T20:22:20Z</time>
      </trkpt>
      <trkpt lat="45.70934" lon="-0.32288">
        <ele>8</ele>
        <time>2021-06-11T20:22:26Z</time>
      </trkpt>
      <trkpt lat="45.70918" lon="-0.32328">
        <ele>8</ele>
        <time>2021-06-11T20:22:32Z</time>
      </trkpt>
      <trkpt lat="45.70895" lon="-0.32366">
        <ele>7</ele>
        <time>2021-06-11T20:22:38Z</time>
      </trkpt>
      <trkpt lat="45.7085" lon="-0.32414">
        <ele>7</ele>
        <time>2021-06-11T20:22:48Z</time>
      </trkpt>
      <trkpt lat="45.70814" lon="-0.32444">
        <ele>7</ele>
        <time>2021-06-11T20:22:56Z</time>
      </trkpt>
      <trkpt lat="45.7078" lon="-0.32457">
        <ele>7</ele>
        <time>2021-06-11T20:23:02Z</time>
      </trkpt>
      <trkpt lat="45.70717" lon="-0.32432">
        <ele>9</ele>
        <time>2021-06-11T20:23:13Z</time>
      </trkpt>
      <trkpt lat="45.70654" lon="-0.32446">
        <ele>11</ele>
        <time>2021-06-11T20:23:25Z</time>
      </trkpt>
      <trkpt lat="45.70591" lon="-0.32451">
        <ele>10</ele>
        <time>2021-06-11T20:23:36Z</time>
      </trkpt>
      <trkpt lat="45.70522" lon="-0.32449">
        <ele>11</ele>
        <time>2021-06-11T20:23:48Z</time>
      </trkpt>
      <trkpt lat="45.70508" lon="-0.32459">
        <ele>11</ele>
        <time>2021-06-11T20:23:51Z</time>
      </trkpt>
      <trkpt lat="45.70473" lon="-0.32478">
        <ele>11</ele>
        <time>2021-06-11T20:23:58Z</time>
      </trkpt>
      <trkpt lat="45.70399" lon="-0.32528">
        <ele>11</ele>
        <time>2021-06-11T20:24:12Z</time>
      </trkpt>
      <trkpt lat="45.70391" lon="-0.3253">
        <ele>11</ele>
        <time>2021-06-11T20:24:14Z</time>
      </trkpt>
      <trkpt lat="45.70263" lon="-0.32624">
        <ele>14</ele>
        <time>2021-06-11T20:24:39Z</time>
      </trkpt>
      <trkpt lat="45.7023" lon="-0.32636">
        <ele>16</ele>
        <time>2021-06-11T20:24:45Z</time>
      </trkpt>
      <trkpt lat="45.70071" lon="-0.32753">
        <ele>18</ele>
        <time>2021-06-11T20:25:17Z</time>
      </trkpt>
      <trkpt lat="45.69902" lon="-0.32869">
        <ele>17</ele>
        <time>2021-06-11T20:25:51Z</time>
      </trkpt>
      <trkpt lat="45.69867" lon="-0.32881">
        <ele>18</ele>
        <time>2021-06-11T20:25:57Z</time>
      </trkpt>
      <trkpt lat="45.69859" lon="-0.32887">
        <ele>18</ele>
        <time>2021-06-11T20:25:59Z</time>
      </trkpt>
      <trkpt lat="45.69877" lon="-0.32954">
        <ele>14</ele>
        <time>2021-06-11T20:26:08Z</time>
      </trkpt>
      <trkpt lat="45.69821" lon="-0.33014">
        <ele>16</ele>
        <time>2021-06-11T20:26:20Z</time>
      </trkpt>
      <trkpt lat="45.69833" lon="-0.33037">
        <ele>13</ele>
        <time>2021-06-11T20:26:24Z</time>
      </trkpt>
      <trkpt lat="45.69826" lon="-0.33052">
        <ele>13</ele>
        <time>2021-06-11T20:26:26Z</time>
      </trkpt>
      <trkpt lat="45.69807" lon="-0.33082">
        <ele>11</ele>
        <time>2021-06-11T20:26:31Z</time>
      </trkpt>
      <trkpt lat="45.69744" lon="-0.33178">
        <ele>10</ele>
        <time>2021-06-11T20:26:47Z</time>
      </trkpt>
      <trkpt lat="45.69723" lon="-0.33204">
        <ele>11</ele>
        <time>2021-06-11T20:26:52Z</time>
      </trkpt>
      <trkpt lat="45.69682" lon="-0.33243">
        <ele>11</ele>
        <time>2021-06-11T20:27:01Z</time>
      </trkpt>
      <trkpt lat="45.69656" lon="-0.33264">
        <ele>11</ele>
        <time>2021-06-11T20:27:06Z</time>
      </trkpt>
      <trkpt lat="45.6957" lon="-0.33322">
        <ele>12</ele>
        <time>2021-06-11T20:27:23Z</time>
      </trkpt>
      <trkpt lat="45.69537" lon="-0.33331">
        <ele>10</ele>
        <time>2021-06-11T20:27:29Z</time>
      </trkpt>
      <trkpt lat="45.6952" lon="-0.33341">
        <ele>10</ele>
        <time>2021-06-11T20:27:32Z</time>
      </trkpt>
      <trkpt lat="45.69442" lon="-0.33378">
        <ele>8</ele>
        <time>2021-06-11T20:27:47Z</time>
      </trkpt>
      <trkpt lat="45.69441" lon="-0.33385">
        <ele>8</ele>
        <time>2021-06-11T20:27:48Z</time>
      </trkpt>
      <trkpt lat="45.69436" lon="-0.33386">
        <ele>8</ele>
        <time>2021-06-11T20:27:49Z</time>
      </trkpt>
      <trkpt lat="45.6943" lon="-0.334">
        <ele>8</ele>
        <time>2021-06-11T20:27:51Z</time>
      </trkpt>
      <trkpt lat="45.69425" lon="-0.33406">
        <ele>8</ele>
        <time>2021-06-11T20:27:52Z</time>
      </trkpt>
      <trkpt lat="45.69247" lon="-0.33609">
        <ele>7</ele>
        <time>2021-06-11T20:28:32Z</time>
      </trkpt>
      <trkpt lat="45.69203" lon="-0.33656">
        <ele>7</ele>
        <time>2021-06-11T20:28:42Z</time>
      </trkpt>
      <trkpt lat="45.69221" lon="-0.33698">
        <ele>6</ele>
        <time>2021-06-11T20:28:48Z</time>
      </trkpt>
      <trkpt lat="45.69217" lon="-0.33702">
        <ele>6</ele>
        <time>2021-06-11T20:28:49Z</time>
      </trkpt>
      <trkpt lat="45.69124" lon="-0.33798">
        <ele>6</ele>
        <time>2021-06-11T20:29:10Z</time>
      </trkpt>
      <trkpt lat="45.69102" lon="-0.33825">
        <ele>7</ele>
        <time>2021-06-11T20:29:15Z</time>
      </trkpt>
      <trkpt lat="45.69095" lon="-0.33833">
        <ele>8</ele>
        <time>2021-06-11T20:29:16Z</time>
      </trkpt>
      <trkpt lat="45.69075" lon="-0.33844">
        <ele>8</ele>
        <time>2021-06-11T20:29:20Z</time>
      </trkpt>
      <trkpt lat="45.6906" lon="-0.33863">
        <ele>9</ele>
        <time>2021-06-11T20:29:24Z</time>
      </trkpt>
      <trkpt lat="45.69014" lon="-0.33887">
        <ele>9</ele>
        <time>2021-06-11T20:29:32Z</time>
      </trkpt>
      <trkpt lat="45.69003" lon="-0.33893">
        <ele>10</ele>
        <time>2021-06-11T20:29:35Z</time>
      </trkpt>
      <trkpt lat="45.68965" lon="-0.33901">
        <ele>10</ele>
        <time>2021-06-11T20:29:41Z</time>
      </trkpt>
      <trkpt lat="45.68961" lon="-0.339">
        <ele>10</ele>
        <time>2021-06-11T20:29:42Z</time>
      </trkpt>
      <trkpt lat="45.68955" lon="-0.33889">
        <ele>10</ele>
        <time>2021-06-11T20:29:44Z</time>
      </trkpt>
      <trkpt lat="45.68951" lon="-0.33887">
        <ele>10</ele>
        <time>2021-06-11T20:29:45Z</time>
      </trkpt>
      <trkpt lat="45.6889" lon="-0.33928">
        <ele>10</ele>
        <time>2021-06-11T20:29:57Z</time>
      </trkpt>
      <trkpt lat="45.68863" lon="-0.33951">
        <ele>10</ele>
        <time>2021-06-11T20:30:02Z</time>
      </trkpt>
      <trkpt lat="45.68835" lon="-0.33986">
        <ele>11</ele>
        <time>2021-06-11T20:30:09Z</time>
      </trkpt>
      <trkpt lat="45.68817" lon="-0.34">
        <ele>11</ele>
        <time>2021-06-11T20:30:12Z</time>
      </trkpt>
      <trkpt lat="45.68813" lon="-0.34004">
        <ele>11</ele>
        <time>2021-06-11T20:30:13Z</time>
      </trkpt>
      <trkpt lat="45.68808" lon="-0.34008">
        <ele>10</ele>
        <time>2021-06-11T20:30:14Z</time>
      </trkpt>
      <trkpt lat="45.68744" lon="-0.34115">
        <ele>7</ele>
        <time>2021-06-11T20:30:32Z</time>
      </trkpt>
      <trkpt lat="45.68699" lon="-0.34169">
        <ele>6</ele>
        <time>2021-06-11T20:30:42Z</time>
      </trkpt>
      <trkpt lat="45.68689" lon="-0.34177">
        <ele>5</ele>
        <time>2021-06-11T20:30:44Z</time>
      </trkpt>
      <trkpt lat="45.68675" lon="-0.34192">
        <ele>5</ele>
        <time>2021-06-11T20:30:47Z</time>
      </trkpt>
      <trkpt lat="45.68644" lon="-0.34234">
        <ele>5</ele>
        <time>2021-06-11T20:30:55Z</time>
      </trkpt>
      <trkpt lat="45.68636" lon="-0.3424">
        <ele>5</ele>
        <time>2021-06-11T20:30:57Z</time>
      </trkpt>
      <trkpt lat="45.68625" lon="-0.34248">
        <ele>6</ele>
        <time>2021-06-11T20:30:59Z</time>
      </trkpt>
      <trkpt lat="45.68591" lon="-0.34286">
        <ele>7</ele>
        <time>2021-06-11T20:31:06Z</time>
      </trkpt>
      <trkpt lat="45.68574" lon="-0.34317">
        <ele>8</ele>
        <time>2021-06-11T20:31:11Z</time>
      </trkpt>
      <trkpt lat="45.6855" lon="-0.34336">
        <ele>8</ele>
        <time>2021-06-11T20:31:16Z</time>
      </trkpt>
      <trkpt lat="45.6851" lon="-0.34365">
        <ele>8</ele>
        <time>2021-06-11T20:31:24Z</time>
      </trkpt>
      <trkpt lat="45.68497" lon="-0.34371">
        <ele>8</ele>
        <time>2021-06-11T20:31:27Z</time>
      </trkpt>
      <trkpt lat="45.68485" lon="-0.34376">
        <ele>8</ele>
        <time>2021-06-11T20:31:29Z</time>
      </trkpt>
      <trkpt lat="45.6848" lon="-0.34358">
        <ele>8</ele>
        <time>2021-06-11T20:31:31Z</time>
      </trkpt>
      <trkpt lat="45.6846" lon="-0.34394">
        <ele>8</ele>
        <time>2021-06-11T20:31:37Z</time>
      </trkpt>
      <trkpt lat="45.68437" lon="-0.34362">
        <ele>8</ele>
        <time>2021-06-11T20:31:43Z</time>
      </trkpt>
      <trkpt lat="45.68423" lon="-0.3436">
        <ele>8</ele>
        <time>2021-06-11T20:31:45Z</time>
      </trkpt>
      <trkpt lat="45.6832" lon="-0.34227">
        <ele>7</ele>
        <time>2021-06-11T20:32:10Z</time>
      </trkpt>
      <trkpt lat="45.68284" lon="-0.34201">
        <ele>9</ele>
        <time>2021-06-11T20:32:17Z</time>
      </trkpt>
      <trkpt lat="45.6828" lon="-0.34195">
        <ele>9</ele>
        <time>2021-06-11T20:32:18Z</time>
      </trkpt>
      <trkpt lat="45.68054" lon="-0.3454">
        <ele>10</ele>
        <time>2021-06-11T20:33:17Z</time>
      </trkpt>
      <trkpt lat="45.68055" lon="-0.3456">
        <ele>9</ele>
        <time>2021-06-11T20:33:19Z</time>
      </trkpt>
      <trkpt lat="45.68009" lon="-0.34652">
        <ele>10</ele>
        <time>2021-06-11T20:33:33Z</time>
      </trkpt>
      <trkpt lat="45.67947" lon="-0.3475">
        <ele>13</ele>
        <time>2021-06-11T20:33:50Z</time>
      </trkpt>
      <trkpt lat="45.67873" lon="-0.34904">
        <ele>12</ele>
        <time>2021-06-11T20:34:13Z</time>
      </trkpt>
      <trkpt lat="45.67797" lon="-0.35083">
        <ele>14</ele>
        <time>2021-06-11T20:34:39Z</time>
      </trkpt>
      <trkpt lat="45.67747" lon="-0.35217">
        <ele>13</ele>
        <time>2021-06-11T20:34:58Z</time>
      </trkpt>
      <trkpt lat="45.67678" lon="-0.35419">
        <ele>11</ele>
        <time>2021-06-11T20:35:26Z</time>
      </trkpt>
      <trkpt lat="45.67661" lon="-0.35456">
        <ele>12</ele>
        <time>2021-06-11T20:35:32Z</time>
      </trkpt>
      <trkpt lat="45.67631" lon="-0.35528">
        <ele>13</ele>
        <time>2021-06-11T20:35:42Z</time>
      </trkpt>
      <trkpt lat="45.67519" lon="-0.35903">
        <ele>15</ele>
        <time>2021-06-11T20:36:33Z</time>
      </trkpt>
      <trkpt lat="45.6748" lon="-0.36095">
        <ele>14</ele>
        <time>2021-06-11T20:36:57Z</time>
      </trkpt>
      <trkpt lat="45.67451" lon="-0.36206">
        <ele>15</ele>
        <time>2021-06-11T20:37:12Z</time>
      </trkpt>
      <trkpt lat="45.67439" lon="-0.36315">
        <ele>15</ele>
        <time>2021-06-11T20:37:26Z</time>
      </trkpt>
      <trkpt lat="45.67437" lon="-0.36357">
        <ele>14</ele>
        <time>2021-06-11T20:37:31Z</time>
      </trkpt>
      <trkpt lat="45.67419" lon="-0.36384">
        <ele>14</ele>
        <time>2021-06-11T20:37:36Z</time>
      </trkpt>
      <trkpt lat="45.67414" lon="-0.36398">
        <ele>14</ele>
        <time>2021-06-11T20:37:38Z</time>
      </trkpt>
      <trkpt lat="45.67415" lon="-0.36478">
        <ele>11</ele>
        <time>2021-06-11T20:37:48Z</time>
      </trkpt>
      <trkpt lat="45.67411" lon="-0.36509">
        <ele>11</ele>
        <time>2021-06-11T20:37:52Z</time>
      </trkpt>
      <trkpt lat="45.67388" lon="-0.36609">
        <ele>14</ele>
        <time>2021-06-11T20:38:05Z</time>
      </trkpt>
      <trkpt lat="45.67378" lon="-0.36898">
        <ele>13</ele>
        <time>2021-06-11T20:38:41Z</time>
      </trkpt>
      <trkpt lat="45.67372" lon="-0.37013">
        <ele>14</ele>
        <time>2021-06-11T20:38:55Z</time>
      </trkpt>
      <trkpt lat="45.67362" lon="-0.37115">
        <ele>14</ele>
        <time>2021-06-11T20:39:08Z</time>
      </trkpt>
      <trkpt lat="45.67361" lon="-0.37187">
        <ele>13</ele>
        <time>2021-06-11T20:39:17Z</time>
      </trkpt>
      <trkpt lat="45.67364" lon="-0.37205">
        <ele>13</ele>
        <time>2021-06-11T20:39:19Z</time>
      </trkpt>
      <trkpt lat="45.6736" lon="-0.373">
        <ele>14</ele>
        <time>2021-06-11T20:39:31Z</time>
      </trkpt>
      <trkpt lat="45.67364" lon="-0.37335">
        <ele>14</ele>
        <time>2021-06-11T20:39:35Z</time>
      </trkpt>
      <trkpt lat="45.67355" lon="-0.37447">
        <ele>15</ele>
        <time>2021-06-11T20:39:49Z</time>
      </trkpt>
      <trkpt lat="45.67363" lon="-0.37743">
        <ele>16</ele>
        <time>2021-06-11T20:40:26Z</time>
      </trkpt>
      <trkpt lat="45.67373" lon="-0.37922">
        <ele>16</ele>
        <time>2021-06-11T20:40:49Z</time>
      </trkpt>
      <trkpt lat="45.674" lon="-0.381">
        <ele>13</ele>
        <time>2021-06-11T20:41:11Z</time>
      </trkpt>
      <trkpt lat="45.67461" lon="-0.38405">
        <ele>14</ele>
        <time>2021-06-11T20:41:51Z</time>
      </trkpt>
      <trkpt lat="45.67502" lon="-0.38562">
        <ele>13</ele>
        <time>2021-06-11T20:42:11Z</time>
      </trkpt>
      <trkpt lat="45.67509" lon="-0.38601">
        <ele>13</ele>
        <time>2021-06-11T20:42:16Z</time>
      </trkpt>
      <trkpt lat="45.67508" lon="-0.38662">
        <ele>14</ele>
        <time>2021-06-11T20:42:24Z</time>
      </trkpt>
      <trkpt lat="45.67533" lon="-0.38763">
        <ele>15</ele>
        <time>2021-06-11T20:42:37Z</time>
      </trkpt>
      <trkpt lat="45.67561" lon="-0.38866">
        <ele>13</ele>
        <time>2021-06-11T20:42:51Z</time>
      </trkpt>
      <trkpt lat="45.67584" lon="-0.38969">
        <ele>11</ele>
        <time>2021-06-11T20:43:05Z</time>
      </trkpt>
      <trkpt lat="45.67627" lon="-0.39134">
        <ele>13</ele>
        <time>2021-06-11T20:43:26Z</time>
      </trkpt>
      <trkpt lat="45.67656" lon="-0.39218">
        <ele>12</ele>
        <time>2021-06-11T20:43:38Z</time>
      </trkpt>
      <trkpt lat="45.67678" lon="-0.39261">
        <ele>11</ele>
        <time>2021-06-11T20:43:45Z</time>
      </trkpt>
      <trkpt lat="45.6772" lon="-0.39388">
        <ele>10</ele>
        <time>2021-06-11T20:44:02Z</time>
      </trkpt>
      <trkpt lat="45.67766" lon="-0.39559">
        <ele>7</ele>
        <time>2021-06-11T20:44:25Z</time>
      </trkpt>
      <trkpt lat="45.67771" lon="-0.3958">
        <ele>6</ele>
        <time>2021-06-11T20:44:28Z</time>
      </trkpt>
      <trkpt lat="45.67773" lon="-0.39593">
        <ele>6</ele>
        <time>2021-06-11T20:44:29Z</time>
      </trkpt>
      <trkpt lat="45.67768" lon="-0.39616">
        <ele>6</ele>
        <time>2021-06-11T20:44:32Z</time>
      </trkpt>
      <trkpt lat="45.67759" lon="-0.39646">
        <ele>6</ele>
        <time>2021-06-11T20:44:36Z</time>
      </trkpt>
      <trkpt lat="45.67752" lon="-0.39664">
        <ele>6</ele>
        <time>2021-06-11T20:44:39Z</time>
      </trkpt>
      <trkpt lat="45.67742" lon="-0.3968">
        <ele>6</ele>
        <time>2021-06-11T20:44:42Z</time>
      </trkpt>
      <trkpt lat="45.67722" lon="-0.39698">
        <ele>7</ele>
        <time>2021-06-11T20:44:46Z</time>
      </trkpt>
      <trkpt lat="45.67704" lon="-0.39707">
        <ele>7</ele>
        <time>2021-06-11T20:44:49Z</time>
      </trkpt>
      <trkpt lat="45.67676" lon="-0.39715">
        <ele>7</ele>
        <time>2021-06-11T20:44:54Z</time>
      </trkpt>
      <trkpt lat="45.67621" lon="-0.39714">
        <ele>8</ele>
        <time>2021-06-11T20:45:04Z</time>
      </trkpt>
      <trkpt lat="45.6762" lon="-0.39739">
        <ele>7</ele>
        <time>2021-06-11T20:45:07Z</time>
      </trkpt>
      <trkpt lat="45.67624" lon="-0.39769">
        <ele>7</ele>
        <time>2021-06-11T20:45:11Z</time>
      </trkpt>
      <trkpt lat="45.6762" lon="-0.39775">
        <ele>7</ele>
        <time>2021-06-11T20:45:12Z</time>
      </trkpt>
      <trkpt lat="45.67626" lon="-0.39789">
        <ele>6</ele>
        <time>2021-06-11T20:45:14Z</time>
      </trkpt>
      <trkpt lat="45.67631" lon="-0.39812">
        <ele>7</ele>
        <time>2021-06-11T20:45:17Z</time>
      </trkpt>
      <trkpt lat="45.67629" lon="-0.39829">
        <ele>7</ele>
        <time>2021-06-11T20:45:19Z</time>
      </trkpt>
      <trkpt lat="45.67623" lon="-0.39847">
        <ele>6</ele>
        <time>2021-06-11T20:45:22Z</time>
      </trkpt>
      <trkpt lat="45.6761" lon="-0.3988">
        <ele>5</ele>
        <time>2021-06-11T20:45:26Z</time>
      </trkpt>
      <trkpt lat="45.67578" lon="-0.39933">
        <ele>4</ele>
        <time>2021-06-11T20:45:35Z</time>
      </trkpt>
      <trkpt lat="45.6755" lon="-0.39978">
        <ele>4</ele>
        <time>2021-06-11T20:45:43Z</time>
      </trkpt>
      <trkpt lat="45.67543" lon="-0.3999">
        <ele>4</ele>
        <time>2021-06-11T20:45:45Z</time>
      </trkpt>
      <trkpt lat="45.67475" lon="-0.40111">
        <ele>5</ele>
        <time>2021-06-11T20:46:04Z</time>
      </trkpt>
      <trkpt lat="45.67443" lon="-0.40173">
        <ele>7</ele>
        <time>2021-06-11T20:46:13Z</time>
      </trkpt>
      <trkpt lat="45.67437" lon="-0.40182">
        <ele>7</ele>
        <time>2021-06-11T20:46:15Z</time>
      </trkpt>
      <trkpt lat="45.67421" lon="-0.40211">
        <ele>7</ele>
        <time>2021-06-11T20:46:20Z</time>
      </trkpt>
      <trkpt lat="45.67423" lon="-0.40217">
        <ele>7</ele>
        <time>2021-06-11T20:46:20Z</time>
      </trkpt>
      <trkpt lat="45.6742" lon="-0.40253">
        <ele>7</ele>
        <time>2021-06-11T20:46:25Z</time>
      </trkpt>
      <trkpt lat="45.67408" lon="-0.40319">
        <ele>7</ele>
        <time>2021-06-11T20:46:33Z</time>
      </trkpt>
      <trkpt lat="45.67419" lon="-0.40328">
        <ele>7</ele>
        <time>2021-06-11T20:46:36Z</time>
      </trkpt>
      <trkpt lat="45.67443" lon="-0.40367">
        <ele>8</ele>
        <time>2021-06-11T20:46:42Z</time>
      </trkpt>
      <trkpt lat="45.67465" lon="-0.40394">
        <ele>8</ele>
        <time>2021-06-11T20:46:47Z</time>
      </trkpt>
      <trkpt lat="45.67506" lon="-0.40434">
        <ele>7</ele>
        <time>2021-06-11T20:46:56Z</time>
      </trkpt>
      <trkpt lat="45.67532" lon="-0.40467">
        <ele>6</ele>
        <time>2021-06-11T20:47:02Z</time>
      </trkpt>
      <trkpt lat="45.67567" lon="-0.40518">
        <ele>5</ele>
        <time>2021-06-11T20:47:11Z</time>
      </trkpt>
      <trkpt lat="45.67591" lon="-0.40565">
        <ele>5</ele>
        <time>2021-06-11T20:47:18Z</time>
      </trkpt>
      <trkpt lat="45.67604" lon="-0.4057">
        <ele>5</ele>
        <time>2021-06-11T20:47:21Z</time>
      </trkpt>
      <trkpt lat="45.67728" lon="-0.40664">
        <ele>4</ele>
        <time>2021-06-11T20:47:46Z</time>
      </trkpt>
      <trkpt lat="45.67767" lon="-0.40649">
        <ele>5</ele>
        <time>2021-06-11T20:47:53Z</time>
      </trkpt>
      <trkpt lat="45.67816" lon="-0.40644">
        <ele>6</ele>
        <time>2021-06-11T20:48:02Z</time>
      </trkpt>
      <trkpt lat="45.67854" lon="-0.40671">
        <ele>5</ele>
        <time>2021-06-11T20:48:09Z</time>
      </trkpt>
      <trkpt lat="45.68045" lon="-0.40843">
        <ele>6</ele>
        <time>2021-06-11T20:48:49Z</time>
      </trkpt>
      <trkpt lat="45.68055" lon="-0.40854">
        <ele>6</ele>
        <time>2021-06-11T20:48:52Z</time>
      </trkpt>
      <trkpt lat="45.68132" lon="-0.41001">
        <ele>4</ele>
        <time>2021-06-11T20:49:14Z</time>
      </trkpt>
      <trkpt lat="45.6815" lon="-0.41027">
        <ele>4</ele>
        <time>2021-06-11T20:49:19Z</time>
      </trkpt>
      <trkpt lat="45.68178" lon="-0.41091">
        <ele>4</ele>
        <time>2021-06-11T20:49:28Z</time>
      </trkpt>
      <trkpt lat="45.68184" lon="-0.41108">
        <ele>4</ele>
        <time>2021-06-11T20:49:31Z</time>
      </trkpt>
      <trkpt lat="45.68181" lon="-0.41153">
        <ele>4</ele>
        <time>2021-06-11T20:49:36Z</time>
      </trkpt>
      <trkpt lat="45.68182" lon="-0.41192">
        <ele>4</ele>
        <time>2021-06-11T20:49:41Z</time>
      </trkpt>
      <trkpt lat="45.68199" lon="-0.4128">
        <ele>4</ele>
        <time>2021-06-11T20:49:53Z</time>
      </trkpt>
      <trkpt lat="45.6813" lon="-0.41369">
        <ele>4</ele>
        <time>2021-06-11T20:50:09Z</time>
      </trkpt>
      <trkpt lat="45.68092" lon="-0.41414">
        <ele>5</ele>
        <time>2021-06-11T20:50:18Z</time>
      </trkpt>
      <trkpt lat="45.68065" lon="-0.41431">
        <ele>5</ele>
        <time>2021-06-11T20:50:23Z</time>
      </trkpt>
      <trkpt lat="45.68021" lon="-0.41451">
        <ele>7</ele>
        <time>2021-06-11T20:50:31Z</time>
      </trkpt>
      <trkpt lat="45.67994" lon="-0.41472">
        <ele>8</ele>
        <time>2021-06-11T20:50:37Z</time>
      </trkpt>
      <trkpt lat="45.67947" lon="-0.41513">
        <ele>8</ele>
        <time>2021-06-11T20:50:47Z</time>
      </trkpt>
      <trkpt lat="45.67881" lon="-0.41564">
        <ele>6</ele>
        <time>2021-06-11T20:51:00Z</time>
      </trkpt>
      <trkpt lat="45.67723" lon="-0.41621">
        <ele>5</ele>
        <time>2021-06-11T20:51:29Z</time>
      </trkpt>
      <trkpt lat="45.67746" lon="-0.41677">
        <ele>6</ele>
        <time>2021-06-11T20:51:37Z</time>
      </trkpt>
      <trkpt lat="45.67786" lon="-0.41735">
        <ele>5</ele>
        <time>2021-06-11T20:51:47Z</time>
      </trkpt>
      <trkpt lat="45.67813" lon="-0.41764">
        <ele>5</ele>
        <time>2021-06-11T20:51:53Z</time>
      </trkpt>
      <trkpt lat="45.67833" lon="-0.41809">
        <ele>4</ele>
        <time>2021-06-11T20:52:00Z</time>
      </trkpt>
      <trkpt lat="45.67856" lon="-0.41868">
        <ele>4</ele>
        <time>2021-06-11T20:52:08Z</time>
      </trkpt>
      <trkpt lat="45.67862" lon="-0.41857">
        <ele>4</ele>
        <time>2021-06-11T20:52:10Z</time>
      </trkpt>
      <trkpt lat="45.6792" lon="-0.4183">
        <ele>5</ele>
        <time>2021-06-11T20:52:21Z</time>
      </trkpt>
      <trkpt lat="45.67933" lon="-0.41833">
        <ele>5</ele>
        <time>2021-06-11T20:52:23Z</time>
      </trkpt>
      <trkpt lat="45.67961" lon="-0.41875">
        <ele>4</ele>
        <time>2021-06-11T20:52:30Z</time>
      </trkpt>
      <trkpt lat="45.67987" lon="-0.41908">
        <ele>4</ele>
        <time>2021-06-11T20:52:37Z</time>
      </trkpt>
      <trkpt lat="45.68007" lon="-0.41918">
        <ele>4</ele>
        <time>2021-06-11T20:52:40Z</time>
      </trkpt>
      <trkpt lat="45.68022" lon="-0.41916">
        <ele>4</ele>
        <time>2021-06-11T20:52:43Z</time>
      </trkpt>
      <trkpt lat="45.68069" lon="-0.41888">
        <ele>4</ele>
        <time>2021-06-11T20:52:52Z</time>
      </trkpt>
      <trkpt lat="45.68082" lon="-0.41885">
        <ele>4</ele>
        <time>2021-06-11T20:52:54Z</time>
      </trkpt>
      <trkpt lat="45.68099" lon="-0.41902">
        <ele>4</ele>
        <time>2021-06-11T20:52:58Z</time>
      </trkpt>
      <trkpt lat="45.68112" lon="-0.41921">
        <ele>4</ele>
        <time>2021-06-11T20:53:01Z</time>
      </trkpt>
      <trkpt lat="45.68147" lon="-0.41984">
        <ele>3</ele>
        <time>2021-06-11T20:53:11Z</time>
      </trkpt>
      <trkpt lat="45.68178" lon="-0.42047">
        <ele>3</ele>
        <time>2021-06-11T20:53:21Z</time>
      </trkpt>
      <trkpt lat="45.68265" lon="-0.42242">
        <ele>3</ele>
        <time>2021-06-11T20:53:50Z</time>
      </trkpt>
      <trkpt lat="45.68269" lon="-0.42264">
        <ele>3</ele>
        <time>2021-06-11T20:53:53Z</time>
      </trkpt>
      <trkpt lat="45.68262" lon="-0.42301">
        <ele>3</ele>
        <time>2021-06-11T20:53:57Z</time>
      </trkpt>
      <trkpt lat="45.68153" lon="-0.42728">
        <ele>2</ele>
        <time>2021-06-11T20:54:54Z</time>
      </trkpt>
      <trkpt lat="45.68146" lon="-0.4277">
        <ele>2</ele>
        <time>2021-06-11T20:54:59Z</time>
      </trkpt>
      <trkpt lat="45.68129" lon="-0.42919">
        <ele>1</ele>
        <time>2021-06-11T20:55:18Z</time>
      </trkpt>
      <trkpt lat="45.68106" lon="-0.43099">
        <ele>2</ele>
        <time>2021-06-11T20:55:41Z</time>
      </trkpt>
      <trkpt lat="45.68022" lon="-0.43788">
        <ele>3</ele>
        <time>2021-06-11T20:57:08Z</time>
      </trkpt>
      <trkpt lat="45.68083" lon="-0.43805">
        <ele>2</ele>
        <time>2021-06-11T20:57:19Z</time>
      </trkpt>
      <trkpt lat="45.68093" lon="-0.43813">
        <ele>2</ele>
        <time>2021-06-11T20:57:21Z</time>
      </trkpt>
      <trkpt lat="45.68131" lon="-0.43837">
        <ele>3</ele>
        <time>2021-06-11T20:57:28Z</time>
      </trkpt>
      <trkpt lat="45.68194" lon="-0.43905">
        <ele>4</ele>
        <time>2021-06-11T20:57:42Z</time>
      </trkpt>
      <trkpt lat="45.68199" lon="-0.43922">
        <ele>4</ele>
        <time>2021-06-11T20:57:44Z</time>
      </trkpt>
      <trkpt lat="45.68195" lon="-0.4394">
        <ele>4</ele>
        <time>2021-06-11T20:57:47Z</time>
      </trkpt>
      <trkpt lat="45.68169" lon="-0.43988">
        <ele>4</ele>
        <time>2021-06-11T20:57:54Z</time>
      </trkpt>
      <trkpt lat="45.68162" lon="-0.44021">
        <ele>4</ele>
        <time>2021-06-11T20:57:59Z</time>
      </trkpt>
      <trkpt lat="45.68161" lon="-0.44074">
        <ele>4</ele>
        <time>2021-06-11T20:58:05Z</time>
      </trkpt>
      <trkpt lat="45.68166" lon="-0.44147">
        <ele>3</ele>
        <time>2021-06-11T20:58:14Z</time>
      </trkpt>
      <trkpt lat="45.68197" lon="-0.44291">
        <ele>3</ele>
        <time>2021-06-11T20:58:33Z</time>
      </trkpt>
      <trkpt lat="45.68207" lon="-0.44368">
        <ele>3</ele>
        <time>2021-06-11T20:58:43Z</time>
      </trkpt>
      <trkpt lat="45.68217" lon="-0.44499">
        <ele>3</ele>
        <time>2021-06-11T20:58:59Z</time>
      </trkpt>
      <trkpt lat="45.68221" lon="-0.44607">
        <ele>2</ele>
        <time>2021-06-11T20:59:13Z</time>
      </trkpt>
      <trkpt lat="45.68225" lon="-0.44855">
        <ele>4</ele>
        <time>2021-06-11T20:59:44Z</time>
      </trkpt>
      <trkpt lat="45.68223" lon="-0.44976">
        <ele>5</ele>
        <time>2021-06-11T20:59:59Z</time>
      </trkpt>
      <trkpt lat="45.68225" lon="-0.44997">
        <ele>5</ele>
        <time>2021-06-11T21:00:01Z</time>
      </trkpt>
      <trkpt lat="45.68243" lon="-0.45101">
        <ele>5</ele>
        <time>2021-06-11T21:00:15Z</time>
      </trkpt>
      <trkpt lat="45.68266" lon="-0.45193">
        <ele>5</ele>
        <time>2021-06-11T21:00:27Z</time>
      </trkpt>
      <trkpt lat="45.6828" lon="-0.45274">
        <ele>4</ele>
        <time>2021-06-11T21:00:37Z</time>
      </trkpt>
      <trkpt lat="45.6829" lon="-0.45358">
        <ele>3</ele>
        <time>2021-06-11T21:00:48Z</time>
      </trkpt>
      <trkpt lat="45.6829" lon="-0.45417">
        <ele>2</ele>
        <time>2021-06-11T21:00:55Z</time>
      </trkpt>
      <trkpt lat="45.68281" lon="-0.45469">
        <ele>2</ele>
        <time>2021-06-11T21:01:02Z</time>
      </trkpt>
      <trkpt lat="45.68266" lon="-0.45519">
        <ele>2</ele>
        <time>2021-06-11T21:01:08Z</time>
      </trkpt>
      <trkpt lat="45.6822" lon="-0.45611">
        <ele>3</ele>
        <time>2021-06-11T21:01:22Z</time>
      </trkpt>
      <trkpt lat="45.68155" lon="-0.45718">
        <ele>2</ele>
        <time>2021-06-11T21:01:40Z</time>
      </trkpt>
      <trkpt lat="45.68136" lon="-0.45731">
        <ele>2</ele>
        <time>2021-06-11T21:01:44Z</time>
      </trkpt>
      <trkpt lat="45.68121" lon="-0.45729">
        <ele>2</ele>
        <time>2021-06-11T21:01:46Z</time>
      </trkpt>
      <trkpt lat="45.68061" lon="-0.45697">
        <ele>1</ele>
        <time>2021-06-11T21:01:58Z</time>
      </trkpt>
      <trkpt lat="45.68041" lon="-0.45688">
        <ele>1</ele>
        <time>2021-06-11T21:02:02Z</time>
      </trkpt>
      <trkpt lat="45.68026" lon="-0.45686">
        <ele>1</ele>
        <time>2021-06-11T21:02:04Z</time>
      </trkpt>
      <trkpt lat="45.6783" lon="-0.45827">
        <ele>2</ele>
        <time>2021-06-11T21:02:43Z</time>
      </trkpt>
      <trkpt lat="45.67802" lon="-0.45839">
        <ele>2</ele>
        <time>2021-06-11T21:02:49Z</time>
      </trkpt>
      <trkpt lat="45.67784" lon="-0.45854">
        <ele>3</ele>
        <time>2021-06-11T21:02:52Z</time>
      </trkpt>
      <trkpt lat="45.67674" lon="-0.46005">
        <ele>5</ele>
        <time>2021-06-11T21:03:19Z</time>
      </trkpt>
      <trkpt lat="45.6766" lon="-0.46012">
        <ele>5</ele>
        <time>2021-06-11T21:03:22Z</time>
      </trkpt>
      <trkpt lat="45.67643" lon="-0.46004">
        <ele>6</ele>
        <time>2021-06-11T21:03:25Z</time>
      </trkpt>
      <trkpt lat="45.67584" lon="-0.45979">
        <ele>6</ele>
        <time>2021-06-11T21:03:36Z</time>
      </trkpt>
      <trkpt lat="45.67611" lon="-0.46205">
        <ele>7</ele>
        <time>2021-06-11T21:04:05Z</time>
      </trkpt>
      <trkpt lat="45.67631" lon="-0.46283">
        <ele>6</ele>
        <time>2021-06-11T21:04:15Z</time>
      </trkpt>
      <trkpt lat="45.67648" lon="-0.46337">
        <ele>5</ele>
        <time>2021-06-11T21:04:22Z</time>
      </trkpt>
      <trkpt lat="45.67657" lon="-0.46375">
        <ele>5</ele>
        <time>2021-06-11T21:04:27Z</time>
      </trkpt>
      <trkpt lat="45.67659" lon="-0.46398">
        <ele>6</ele>
        <time>2021-06-11T21:04:30Z</time>
      </trkpt>
      <trkpt lat="45.67656" lon="-0.46457">
        <ele>7</ele>
        <time>2021-06-11T21:04:38Z</time>
      </trkpt>
      <trkpt lat="45.67669" lon="-0.46492">
        <ele>7</ele>
        <time>2021-06-11T21:04:42Z</time>
      </trkpt>
      <trkpt lat="45.6768" lon="-0.46514">
        <ele>6</ele>
        <time>2021-06-11T21:04:46Z</time>
      </trkpt>
      <trkpt lat="45.67682" lon="-0.4652">
        <ele>6</ele>
        <time>2021-06-11T21:04:47Z</time>
      </trkpt>
      <trkpt lat="45.67681" lon="-0.46524">
        <ele>6</ele>
        <time>2021-06-11T21:04:47Z</time>
      </trkpt>
      <trkpt lat="45.67679" lon="-0.46527">
        <ele>6</ele>
        <time>2021-06-11T21:04:48Z</time>
      </trkpt>
      <trkpt lat="45.67646" lon="-0.46543">
        <ele>6</ele>
        <time>2021-06-11T21:04:54Z</time>
      </trkpt>
      <trkpt lat="45.67622" lon="-0.4655">
        <ele>6</ele>
        <time>2021-06-11T21:04:58Z</time>
      </trkpt>
      <trkpt lat="45.67603" lon="-0.46552">
        <ele>6</ele>
        <time>2021-06-11T21:05:02Z</time>
      </trkpt>
      <trkpt lat="45.67596" lon="-0.46551">
        <ele>6</ele>
        <time>2021-06-11T21:05:03Z</time>
      </trkpt>
      <trkpt lat="45.67586" lon="-0.46551">
        <ele>6</ele>
        <time>2021-06-11T21:05:05Z</time>
      </trkpt>
      <trkpt lat="45.67578" lon="-0.46549">
        <ele>6</ele>
        <time>2021-06-11T21:05:06Z</time>
      </trkpt>
      <trkpt lat="45.67581" lon="-0.46646">
        <ele>5</ele>
        <time>2021-06-11T21:05:18Z</time>
      </trkpt>
      <trkpt lat="45.67585" lon="-0.46736">
        <ele>4</ele>
        <time>2021-06-11T21:05:29Z</time>
      </trkpt>
      <trkpt lat="45.67618" lon="-0.46887">
        <ele>6</ele>
        <time>2021-06-11T21:05:49Z</time>
      </trkpt>
      <trkpt lat="45.67651" lon="-0.46975">
        <ele>5</ele>
        <time>2021-06-11T21:06:01Z</time>
      </trkpt>
      <trkpt lat="45.67652" lon="-0.47055">
        <ele>6</ele>
        <time>2021-06-11T21:06:11Z</time>
      </trkpt>
      <trkpt lat="45.67687" lon="-0.47337">
        <ele>12</ele>
        <time>2021-06-11T21:06:47Z</time>
      </trkpt>
      <trkpt lat="45.67723" lon="-0.47499">
        <ele>13</ele>
        <time>2021-06-11T21:07:08Z</time>
      </trkpt>
      <trkpt lat="45.6773" lon="-0.47497">
        <ele>13</ele>
        <time>2021-06-11T21:07:09Z</time>
      </trkpt>
      <trkpt lat="45.6785" lon="-0.47436">
        <ele>12</ele>
        <time>2021-06-11T21:07:32Z</time>
      </trkpt>
      <trkpt lat="45.67939" lon="-0.47377">
        <ele>9</ele>
        <time>2021-06-11T21:07:50Z</time>
      </trkpt>
      <trkpt lat="45.68425" lon="-0.47065">
        <ele>3</ele>
        <time>2021-06-11T21:09:24Z</time>
      </trkpt>
      <trkpt lat="45.68542" lon="-0.47297">
        <ele>1</ele>
        <time>2021-06-11T21:10:00Z</time>
      </trkpt>
      <trkpt lat="45.69056" lon="-0.48331">
        <ele>1</ele>
        <time>2021-06-11T21:12:38Z</time>
      </trkpt>
      <trkpt lat="45.69145" lon="-0.48508">
        <ele>1</ele>
        <time>2021-06-11T21:13:05Z</time>
      </trkpt>
      <trkpt lat="45.68983" lon="-0.4865">
        <ele>2</ele>
        <time>2021-06-11T21:13:39Z</time>
      </trkpt>
      <trkpt lat="45.68953" lon="-0.48673">
        <ele>2</ele>
        <time>2021-06-11T21:13:45Z</time>
      </trkpt>
      <trkpt lat="45.68796" lon="-0.48872">
        <ele>7</ele>
        <time>2021-06-11T21:14:22Z</time>
      </trkpt>
      <trkpt lat="45.68803" lon="-0.48894">
        <ele>7</ele>
        <time>2021-06-11T21:14:25Z</time>
      </trkpt>
      <trkpt lat="45.68806" lon="-0.48928">
        <ele>7</ele>
        <time>2021-06-11T21:14:29Z</time>
      </trkpt>
      <trkpt lat="45.68928" lon="-0.49255">
        <ele>8</ele>
        <time>2021-06-11T21:15:15Z</time>
      </trkpt>
      <trkpt lat="45.68935" lon="-0.49268">
        <ele>8</ele>
        <time>2021-06-11T21:15:17Z</time>
      </trkpt>
      <trkpt lat="45.68943" lon="-0.49267">
        <ele>7</ele>
        <time>2021-06-11T21:15:19Z</time>
      </trkpt>
      <trkpt lat="45.69084" lon="-0.49148">
        <ele>6</ele>
        <time>2021-06-11T21:15:48Z</time>
      </trkpt>
      <trkpt lat="45.69096" lon="-0.49147">
        <ele>6</ele>
        <time>2021-06-11T21:15:50Z</time>
      </trkpt>
      <trkpt lat="45.69109" lon="-0.49151">
        <ele>6</ele>
        <time>2021-06-11T21:15:52Z</time>
      </trkpt>
      <trkpt lat="45.69132" lon="-0.49173">
        <ele>5</ele>
        <time>2021-06-11T21:15:57Z</time>
      </trkpt>
      <trkpt lat="45.69157" lon="-0.49204">
        <ele>5</ele>
        <time>2021-06-11T21:16:03Z</time>
      </trkpt>
      <trkpt lat="45.69238" lon="-0.49354">
        <ele>5</ele>
        <time>2021-06-11T21:16:27Z</time>
      </trkpt>
      <trkpt lat="45.69252" lon="-0.49375">
        <ele>6</ele>
        <time>2021-06-11T21:16:30Z</time>
      </trkpt>
      <trkpt lat="45.69293" lon="-0.49423">
        <ele>5</ele>
        <time>2021-06-11T21:16:40Z</time>
      </trkpt>
      <trkpt lat="45.6931" lon="-0.49453">
        <ele>6</ele>
        <time>2021-06-11T21:16:45Z</time>
      </trkpt>
      <trkpt lat="45.69318" lon="-0.4947">
        <ele>6</ele>
        <time>2021-06-11T21:16:47Z</time>
      </trkpt>
      <trkpt lat="45.69206" lon="-0.49587">
        <ele>5</ele>
        <time>2021-06-11T21:17:12Z</time>
      </trkpt>
      <trkpt lat="45.69106" lon="-0.49687">
        <ele>6</ele>
        <time>2021-06-11T21:17:33Z</time>
      </trkpt>
      <trkpt lat="45.69079" lon="-0.49745">
        <ele>6</ele>
        <time>2021-06-11T21:17:42Z</time>
      </trkpt>
      <trkpt lat="45.69069" lon="-0.49755">
        <ele>7</ele>
        <time>2021-06-11T21:17:44Z</time>
      </trkpt>
      <trkpt lat="45.69064" lon="-0.49754">
        <ele>7</ele>
        <time>2021-06-11T21:17:45Z</time>
      </trkpt>
      <trkpt lat="45.69061" lon="-0.49763">
        <ele>7</ele>
        <time>2021-06-11T21:17:46Z</time>
      </trkpt>
      <trkpt lat="45.69061" lon="-0.49791">
        <ele>7</ele>
        <time>2021-06-11T21:17:50Z</time>
      </trkpt>
      <trkpt lat="45.69081" lon="-0.49899">
        <ele>6</ele>
        <time>2021-06-11T21:18:04Z</time>
      </trkpt>
      <trkpt lat="45.69093" lon="-0.49974">
        <ele>6</ele>
        <time>2021-06-11T21:18:13Z</time>
      </trkpt>
      <trkpt lat="45.69107" lon="-0.50047">
        <ele>6</ele>
        <time>2021-06-11T21:18:23Z</time>
      </trkpt>
      <trkpt lat="45.69127" lon="-0.50112">
        <ele>7</ele>
        <time>2021-06-11T21:18:32Z</time>
      </trkpt>
      <trkpt lat="45.6915" lon="-0.5018">
        <ele>8</ele>
        <time>2021-06-11T21:18:41Z</time>
      </trkpt>
      <trkpt lat="45.69188" lon="-0.50266">
        <ele>7</ele>
        <time>2021-06-11T21:18:54Z</time>
      </trkpt>
      <trkpt lat="45.69298" lon="-0.50477">
        <ele>7</ele>
        <time>2021-06-11T21:19:26Z</time>
      </trkpt>
      <trkpt lat="45.69356" lon="-0.50582">
        <ele>7</ele>
        <time>2021-06-11T21:19:43Z</time>
      </trkpt>
      <trkpt lat="45.69406" lon="-0.50674">
        <ele>6</ele>
        <time>2021-06-11T21:19:58Z</time>
      </trkpt>
      <trkpt lat="45.69412" lon="-0.5068">
        <ele>6</ele>
        <time>2021-06-11T21:19:59Z</time>
      </trkpt>
      <trkpt lat="45.69423" lon="-0.50681">
        <ele>6</ele>
        <time>2021-06-11T21:20:01Z</time>
      </trkpt>
      <trkpt lat="45.69434" lon="-0.50684">
        <ele>6</ele>
        <time>2021-06-11T21:20:03Z</time>
      </trkpt>
      <trkpt lat="45.69448" lon="-0.50696">
        <ele>6</ele>
        <time>2021-06-11T21:20:06Z</time>
      </trkpt>
      <trkpt lat="45.69468" lon="-0.50716">
        <ele>6</ele>
        <time>2021-06-11T21:20:10Z</time>
      </trkpt>
      <trkpt lat="45.69476" lon="-0.50728">
        <ele>6</ele>
        <time>2021-06-11T21:20:12Z</time>
      </trkpt>
      <trkpt lat="45.6949" lon="-0.50752">
        <ele>6</ele>
        <time>2021-06-11T21:20:16Z</time>
      </trkpt>
      <trkpt lat="45.69493" lon="-0.5076">
        <ele>6</ele>
        <time>2021-06-11T21:20:17Z</time>
      </trkpt>
      <trkpt lat="45.69497" lon="-0.50775">
        <ele>6</ele>
        <time>2021-06-11T21:20:19Z</time>
      </trkpt>
      <trkpt lat="45.69493" lon="-0.50791">
        <ele>6</ele>
        <time>2021-06-11T21:20:21Z</time>
      </trkpt>
      <trkpt lat="45.69485" lon="-0.5081">
        <ele>7</ele>
        <time>2021-06-11T21:20:24Z</time>
      </trkpt>
      <trkpt lat="45.69493" lon="-0.50817">
        <ele>6</ele>
        <time>2021-06-11T21:20:26Z</time>
      </trkpt>
      <trkpt lat="45.695" lon="-0.50834">
        <ele>6</ele>
        <time>2021-06-11T21:20:28Z</time>
      </trkpt>
      <trkpt lat="45.69506" lon="-0.50862">
        <ele>7</ele>
        <time>2021-06-11T21:20:32Z</time>
      </trkpt>
      <trkpt lat="45.69514" lon="-0.50873">
        <ele>7</ele>
        <time>2021-06-11T21:20:34Z</time>
      </trkpt>
      <trkpt lat="45.69664" lon="-0.51156">
        <ele>6</ele>
        <time>2021-06-11T21:21:18Z</time>
      </trkpt>
      <trkpt lat="45.69727" lon="-0.51278">
        <ele>8</ele>
        <time>2021-06-11T21:21:37Z</time>
      </trkpt>
      <trkpt lat="45.69746" lon="-0.51324">
        <ele>8</ele>
        <time>2021-06-11T21:21:43Z</time>
      </trkpt>
      <trkpt lat="45.69779" lon="-0.51435">
        <ele>7</ele>
        <time>2021-06-11T21:21:58Z</time>
      </trkpt>
      <trkpt lat="45.69788" lon="-0.51483">
        <ele>7</ele>
        <time>2021-06-11T21:22:04Z</time>
      </trkpt>
      <trkpt lat="45.6979" lon="-0.51488">
        <ele>7</ele>
        <time>2021-06-11T21:22:05Z</time>
      </trkpt>
      <trkpt lat="45.698" lon="-0.51502">
        <ele>7</ele>
        <time>2021-06-11T21:22:08Z</time>
      </trkpt>
      <trkpt lat="45.69804" lon="-0.51516">
        <ele>7</ele>
        <time>2021-06-11T21:22:10Z</time>
      </trkpt>
      <trkpt lat="45.69805" lon="-0.51529">
        <ele>7</ele>
        <time>2021-06-11T21:22:11Z</time>
      </trkpt>
      <trkpt lat="45.69807" lon="-0.51534">
        <ele>7</ele>
        <time>2021-06-11T21:22:12Z</time>
      </trkpt>
      <trkpt lat="45.69854" lon="-0.5153">
        <ele>7</ele>
        <time>2021-06-11T21:22:20Z</time>
      </trkpt>
      <trkpt lat="45.69872" lon="-0.51525">
        <ele>7</ele>
        <time>2021-06-11T21:22:24Z</time>
      </trkpt>
      <trkpt lat="45.69891" lon="-0.51513">
        <ele>7</ele>
        <time>2021-06-11T21:22:27Z</time>
      </trkpt>
      <trkpt lat="45.69941" lon="-0.51454">
        <ele>6</ele>
        <time>2021-06-11T21:22:39Z</time>
      </trkpt>
      <trkpt lat="45.69958" lon="-0.5144">
        <ele>5</ele>
        <time>2021-06-11T21:22:42Z</time>
      </trkpt>
      <trkpt lat="45.69969" lon="-0.5144">
        <ele>5</ele>
        <time>2021-06-11T21:22:44Z</time>
      </trkpt>
      <trkpt lat="45.69977" lon="-0.51442">
        <ele>4</ele>
        <time>2021-06-11T21:22:46Z</time>
      </trkpt>
      <trkpt lat="45.69994" lon="-0.51456">
        <ele>4</ele>
        <time>2021-06-11T21:22:49Z</time>
      </trkpt>
      <trkpt lat="45.70083" lon="-0.51588">
        <ele>3</ele>
        <time>2021-06-11T21:23:12Z</time>
      </trkpt>
      <trkpt lat="45.70091" lon="-0.51596">
        <ele>3</ele>
        <time>2021-06-11T21:23:14Z</time>
      </trkpt>
      <trkpt lat="45.70102" lon="-0.516">
        <ele>3</ele>
        <time>2021-06-11T21:23:16Z</time>
      </trkpt>
      <trkpt lat="45.70136" lon="-0.51606">
        <ele>3</ele>
        <time>2021-06-11T21:23:22Z</time>
      </trkpt>
      <trkpt lat="45.70151" lon="-0.51604">
        <ele>3</ele>
        <time>2021-06-11T21:23:24Z</time>
      </trkpt>
      <trkpt lat="45.70198" lon="-0.51586">
        <ele>4</ele>
        <time>2021-06-11T21:23:33Z</time>
      </trkpt>
      <trkpt lat="45.70206" lon="-0.51584">
        <ele>4</ele>
        <time>2021-06-11T21:23:35Z</time>
      </trkpt>
      <trkpt lat="45.70212" lon="-0.51587">
        <ele>3</ele>
        <time>2021-06-11T21:23:36Z</time>
      </trkpt>
      <trkpt lat="45.70215" lon="-0.51594">
        <ele>3</ele>
        <time>2021-06-11T21:23:37Z</time>
      </trkpt>
      <trkpt lat="45.70529" lon="-0.52681">
        <ele>2</ele>
        <time>2021-06-11T21:26:03Z</time>
      </trkpt>
      <trkpt lat="45.70534" lon="-0.527">
        <ele>2</ele>
        <time>2021-06-11T21:26:05Z</time>
      </trkpt>
      <trkpt lat="45.70535" lon="-0.52713">
        <ele>2</ele>
        <time>2021-06-11T21:26:07Z</time>
      </trkpt>
      <trkpt lat="45.7053" lon="-0.52801">
        <ele>4</ele>
        <time>2021-06-11T21:26:18Z</time>
      </trkpt>
      <trkpt lat="45.70534" lon="-0.52828">
        <ele>6</ele>
        <time>2021-06-11T21:26:21Z</time>
      </trkpt>
      <trkpt lat="45.70539" lon="-0.52837">
        <ele>6</ele>
        <time>2021-06-11T21:26:23Z</time>
      </trkpt>
      <trkpt lat="45.7061" lon="-0.52862">
        <ele>7</ele>
        <time>2021-06-11T21:26:36Z</time>
      </trkpt>
      <trkpt lat="45.70622" lon="-0.52866">
        <ele>6</ele>
        <time>2021-06-11T21:26:38Z</time>
      </trkpt>
      <trkpt lat="45.70615" lon="-0.5292">
        <ele>6</ele>
        <time>2021-06-11T21:26:45Z</time>
      </trkpt>
      <trkpt lat="45.70606" lon="-0.52946">
        <ele>6</ele>
        <time>2021-06-11T21:26:49Z</time>
      </trkpt>
      <trkpt lat="45.70599" lon="-0.52987">
        <ele>4</ele>
        <time>2021-06-11T21:26:54Z</time>
      </trkpt>
      <trkpt lat="45.70584" lon="-0.53046">
        <ele>4</ele>
        <time>2021-06-11T21:27:02Z</time>
      </trkpt>
      <trkpt lat="45.70564" lon="-0.53146">
        <ele>4</ele>
        <time>2021-06-11T21:27:14Z</time>
      </trkpt>
      <trkpt lat="45.70562" lon="-0.53182">
        <ele>4</ele>
        <time>2021-06-11T21:27:19Z</time>
      </trkpt>
      <trkpt lat="45.70562" lon="-0.53221">
        <ele>4</ele>
        <time>2021-06-11T21:27:24Z</time>
      </trkpt>
      <trkpt lat="45.70566" lon="-0.53264">
        <ele>4</ele>
        <time>2021-06-11T21:27:29Z</time>
      </trkpt>
      <trkpt lat="45.70579" lon="-0.53322">
        <ele>4</ele>
        <time>2021-06-11T21:27:37Z</time>
      </trkpt>
      <trkpt lat="45.70618" lon="-0.53453">
        <ele>3</ele>
        <time>2021-06-11T21:27:54Z</time>
      </trkpt>
      <trkpt lat="45.70649" lon="-0.53564">
        <ele>3</ele>
        <time>2021-06-11T21:28:09Z</time>
      </trkpt>
      <trkpt lat="45.70672" lon="-0.53675">
        <ele>3</ele>
        <time>2021-06-11T21:28:24Z</time>
      </trkpt>
      <trkpt lat="45.70724" lon="-0.53957">
        <ele>3</ele>
        <time>2021-06-11T21:29:00Z</time>
      </trkpt>
      <trkpt lat="45.70737" lon="-0.54044">
        <ele>3</ele>
        <time>2021-06-11T21:29:11Z</time>
      </trkpt>
      <trkpt lat="45.70744" lon="-0.54129">
        <ele>3</ele>
        <time>2021-06-11T21:29:22Z</time>
      </trkpt>
      <trkpt lat="45.70746" lon="-0.54213">
        <ele>2</ele>
        <time>2021-06-11T21:29:32Z</time>
      </trkpt>
      <trkpt lat="45.70739" lon="-0.5435">
        <ele>3</ele>
        <time>2021-06-11T21:29:49Z</time>
      </trkpt>
      <trkpt lat="45.70737" lon="-0.54362">
        <ele>3</ele>
        <time>2021-06-11T21:29:51Z</time>
      </trkpt>
      <trkpt lat="45.70734" lon="-0.5437">
        <ele>3</ele>
        <time>2021-06-11T21:29:52Z</time>
      </trkpt>
      <trkpt lat="45.70724" lon="-0.54385">
        <ele>3</ele>
        <time>2021-06-11T21:29:54Z</time>
      </trkpt>
      <trkpt lat="45.70717" lon="-0.5439">
        <ele>2</ele>
        <time>2021-06-11T21:29:56Z</time>
      </trkpt>
      <trkpt lat="45.70699" lon="-0.544">
        <ele>2</ele>
        <time>2021-06-11T21:29:59Z</time>
      </trkpt>
      <trkpt lat="45.70665" lon="-0.54419">
        <ele>1</ele>
        <time>2021-06-11T21:30:06Z</time>
      </trkpt>
      <trkpt lat="45.70648" lon="-0.54425">
        <ele>1</ele>
        <time>2021-06-11T21:30:09Z</time>
      </trkpt>
      <trkpt lat="45.70625" lon="-0.54428">
        <ele>2</ele>
        <time>2021-06-11T21:30:13Z</time>
      </trkpt>
      <trkpt lat="45.70619" lon="-0.54431">
        <ele>2</ele>
        <time>2021-06-11T21:30:14Z</time>
      </trkpt>
      <trkpt lat="45.70615" lon="-0.54435">
        <ele>2</ele>
        <time>2021-06-11T21:30:15Z</time>
      </trkpt>
      <trkpt lat="45.70595" lon="-0.54464">
        <ele>2</ele>
        <time>2021-06-11T21:30:20Z</time>
      </trkpt>
      <trkpt lat="45.70583" lon="-0.54476">
        <ele>2</ele>
        <time>2021-06-11T21:30:23Z</time>
      </trkpt>
      <trkpt lat="45.70575" lon="-0.5448">
        <ele>2</ele>
        <time>2021-06-11T21:30:24Z</time>
      </trkpt>
      <trkpt lat="45.70567" lon="-0.54483">
        <ele>2</ele>
        <time>2021-06-11T21:30:26Z</time>
      </trkpt>
      <trkpt lat="45.70552" lon="-0.54488">
        <ele>3</ele>
        <time>2021-06-11T21:30:28Z</time>
      </trkpt>
      <trkpt lat="45.70498" lon="-0.54512">
        <ele>4</ele>
        <time>2021-06-11T21:30:38Z</time>
      </trkpt>
      <trkpt lat="45.70447" lon="-0.54531">
        <ele>2</ele>
        <time>2021-06-11T21:30:48Z</time>
      </trkpt>
      <trkpt lat="45.70375" lon="-0.54562">
        <ele>3</ele>
        <time>2021-06-11T21:31:01Z</time>
      </trkpt>
      <trkpt lat="45.70368" lon="-0.54574">
        <ele>3</ele>
        <time>2021-06-11T21:31:03Z</time>
      </trkpt>
      <trkpt lat="45.70369" lon="-0.54589">
        <ele>3</ele>
        <time>2021-06-11T21:31:05Z</time>
      </trkpt>
      <trkpt lat="45.70377" lon="-0.54619">
        <ele>3</ele>
        <time>2021-06-11T21:31:09Z</time>
      </trkpt>
      <trkpt lat="45.70395" lon="-0.54717">
        <ele>5</ele>
        <time>2021-06-11T21:31:22Z</time>
      </trkpt>
      <trkpt lat="45.704" lon="-0.54725">
        <ele>5</ele>
        <time>2021-06-11T21:31:23Z</time>
      </trkpt>
      <trkpt lat="45.70413" lon="-0.54727">
        <ele>5</ele>
        <time>2021-06-11T21:31:25Z</time>
      </trkpt>
      <trkpt lat="45.70437" lon="-0.54722">
        <ele>5</ele>
        <time>2021-06-11T21:31:30Z</time>
      </trkpt>
      <trkpt lat="45.70485" lon="-0.54705">
        <ele>5</ele>
        <time>2021-06-11T21:31:38Z</time>
      </trkpt>
      <trkpt lat="45.70522" lon="-0.54698">
        <ele>5</ele>
        <time>2021-06-11T21:31:45Z</time>
      </trkpt>
      <trkpt lat="45.70565" lon="-0.54686">
        <ele>4</ele>
        <time>2021-06-11T21:31:53Z</time>
      </trkpt>
      <trkpt lat="45.7059" lon="-0.54673">
        <ele>4</ele>
        <time>2021-06-11T21:31:57Z</time>
      </trkpt>
      <trkpt lat="45.70598" lon="-0.5467">
        <ele>4</ele>
        <time>2021-06-11T21:31:59Z</time>
      </trkpt>
      <trkpt lat="45.70606" lon="-0.54674">
        <ele>3</ele>
        <time>2021-06-11T21:32:00Z</time>
      </trkpt>
      <trkpt lat="45.70627" lon="-0.54718">
        <ele>3</ele>
        <time>2021-06-11T21:32:07Z</time>
      </trkpt>
      <trkpt lat="45.70637" lon="-0.5473">
        <ele>2</ele>
        <time>2021-06-11T21:32:09Z</time>
      </trkpt>
      <trkpt lat="45.70666" lon="-0.54742">
        <ele>2</ele>
        <time>2021-06-11T21:32:15Z</time>
      </trkpt>
      <trkpt lat="45.70674" lon="-0.54749">
        <ele>2</ele>
        <time>2021-06-11T21:32:16Z</time>
      </trkpt>
      <trkpt lat="45.70694" lon="-0.54783">
        <ele>2</ele>
        <time>2021-06-11T21:32:22Z</time>
      </trkpt>
      <trkpt lat="45.70732" lon="-0.54828">
        <ele>3</ele>
        <time>2021-06-11T21:32:31Z</time>
      </trkpt>
      <trkpt lat="45.70758" lon="-0.54874">
        <ele>3</ele>
        <time>2021-06-11T21:32:38Z</time>
      </trkpt>
      <trkpt lat="45.70773" lon="-0.54909">
        <ele>3</ele>
        <time>2021-06-11T21:32:43Z</time>
      </trkpt>
      <trkpt lat="45.70823" lon="-0.54996">
        <ele>4</ele>
        <time>2021-06-11T21:32:57Z</time>
      </trkpt>
      <trkpt lat="45.70852" lon="-0.55018">
        <ele>3</ele>
        <time>2021-06-11T21:33:03Z</time>
      </trkpt>
      <trkpt lat="45.70882" lon="-0.55056">
        <ele>2</ele>
        <time>2021-06-11T21:33:10Z</time>
      </trkpt>
      <trkpt lat="45.70932" lon="-0.5513">
        <ele>1</ele>
        <time>2021-06-11T21:33:23Z</time>
      </trkpt>
      <trkpt lat="45.70962" lon="-0.55155">
        <ele>2</ele>
        <time>2021-06-11T21:33:29Z</time>
      </trkpt>
      <trkpt lat="45.70997" lon="-0.55188">
        <ele>2</ele>
        <time>2021-06-11T21:33:37Z</time>
      </trkpt>
      <trkpt lat="45.71014" lon="-0.55196">
        <ele>2</ele>
        <time>2021-06-11T21:33:40Z</time>
      </trkpt>
      <trkpt lat="45.71056" lon="-0.55203">
        <ele>1</ele>
        <time>2021-06-11T21:33:47Z</time>
      </trkpt>
      <trkpt lat="45.71074" lon="-0.55212">
        <ele>1</ele>
        <time>2021-06-11T21:33:51Z</time>
      </trkpt>
      <trkpt lat="45.71085" lon="-0.55227">
        <ele>1</ele>
        <time>2021-06-11T21:33:53Z</time>
      </trkpt>
      <trkpt lat="45.71098" lon="-0.55254">
        <ele>1</ele>
        <time>2021-06-11T21:33:57Z</time>
      </trkpt>
      <trkpt lat="45.71107" lon="-0.55264">
        <ele>2</ele>
        <time>2021-06-11T21:33:59Z</time>
      </trkpt>
      <trkpt lat="45.71124" lon="-0.55274">
        <ele>2</ele>
        <time>2021-06-11T21:34:03Z</time>
      </trkpt>
      <trkpt lat="45.71139" lon="-0.55278">
        <ele>2</ele>
        <time>2021-06-11T21:34:05Z</time>
      </trkpt>
      <trkpt lat="45.71221" lon="-0.55281">
        <ele>3</ele>
        <time>2021-06-11T21:34:20Z</time>
      </trkpt>
      <trkpt lat="45.71238" lon="-0.55285">
        <ele>3</ele>
        <time>2021-06-11T21:34:23Z</time>
      </trkpt>
      <trkpt lat="45.7125" lon="-0.55293">
        <ele>3</ele>
        <time>2021-06-11T21:34:25Z</time>
      </trkpt>
      <trkpt lat="45.71296" lon="-0.55354">
        <ele>3</ele>
        <time>2021-06-11T21:34:37Z</time>
      </trkpt>
      <trkpt lat="45.71297" lon="-0.5537">
        <ele>3</ele>
        <time>2021-06-11T21:34:39Z</time>
      </trkpt>
      <trkpt lat="45.71294" lon="-0.55392">
        <ele>2</ele>
        <time>2021-06-11T21:34:41Z</time>
      </trkpt>
      <trkpt lat="45.71281" lon="-0.55453">
        <ele>2</ele>
        <time>2021-06-11T21:34:49Z</time>
      </trkpt>
      <trkpt lat="45.71278" lon="-0.55485">
        <ele>2</ele>
        <time>2021-06-11T21:34:53Z</time>
      </trkpt>
      <trkpt lat="45.7128" lon="-0.55571">
        <ele>1</ele>
        <time>2021-06-11T21:35:04Z</time>
      </trkpt>
      <trkpt lat="45.71291" lon="-0.55663">
        <ele>1</ele>
        <time>2021-06-11T21:35:16Z</time>
      </trkpt>
      <trkpt lat="45.71294" lon="-0.55742">
        <ele>2</ele>
        <time>2021-06-11T21:35:25Z</time>
      </trkpt>
      <trkpt lat="45.71314" lon="-0.55787">
        <ele>4</ele>
        <time>2021-06-11T21:35:32Z</time>
      </trkpt>
      <trkpt lat="45.7133" lon="-0.55844">
        <ele>5</ele>
        <time>2021-06-11T21:35:40Z</time>
      </trkpt>
      <trkpt lat="45.71357" lon="-0.55921">
        <ele>2</ele>
        <time>2021-06-11T21:35:50Z</time>
      </trkpt>
      <trkpt lat="45.71381" lon="-0.55972">
        <ele>2</ele>
        <time>2021-06-11T21:35:58Z</time>
      </trkpt>
      <trkpt lat="45.71401" lon="-0.56004">
        <ele>2</ele>
        <time>2021-06-11T21:36:03Z</time>
      </trkpt>
      <trkpt lat="45.71407" lon="-0.5602">
        <ele>2</ele>
        <time>2021-06-11T21:36:06Z</time>
      </trkpt>
      <trkpt lat="45.7141" lon="-0.5605">
        <ele>1</ele>
        <time>2021-06-11T21:36:09Z</time>
      </trkpt>
      <trkpt lat="45.71412" lon="-0.56055">
        <ele>1</ele>
        <time>2021-06-11T21:36:10Z</time>
      </trkpt>
      <trkpt lat="45.71417" lon="-0.56064">
        <ele>1</ele>
        <time>2021-06-11T21:36:12Z</time>
      </trkpt>
      <trkpt lat="45.7142" lon="-0.56071">
        <ele>1</ele>
        <time>2021-06-11T21:36:13Z</time>
      </trkpt>
      <trkpt lat="45.71357" lon="-0.56141">
        <ele>1</ele>
        <time>2021-06-11T21:36:27Z</time>
      </trkpt>
      <trkpt lat="45.71241" lon="-0.56279">
        <ele>1</ele>
        <time>2021-06-11T21:36:54Z</time>
      </trkpt>
      <trkpt lat="45.71005" lon="-0.56568">
        <ele>4</ele>
        <time>2021-06-11T21:37:49Z</time>
      </trkpt>
      <trkpt lat="45.70935" lon="-0.56625">
        <ele>7</ele>
        <time>2021-06-11T21:38:03Z</time>
      </trkpt>
      <trkpt lat="45.70955" lon="-0.5673">
        <ele>7</ele>
        <time>2021-06-11T21:38:17Z</time>
      </trkpt>
      <trkpt lat="45.71025" lon="-0.56889">
        <ele>6</ele>
        <time>2021-06-11T21:38:40Z</time>
      </trkpt>
      <trkpt lat="45.71071" lon="-0.57002">
        <ele>5</ele>
        <time>2021-06-11T21:38:56Z</time>
      </trkpt>
      <trkpt lat="45.71163" lon="-0.5721">
        <ele>5</ele>
        <time>2021-06-11T21:39:27Z</time>
      </trkpt>
      <trkpt lat="45.71153" lon="-0.57229">
        <ele>6</ele>
        <time>2021-06-11T21:39:30Z</time>
      </trkpt>
      <trkpt lat="45.71197" lon="-0.57331">
        <ele>5</ele>
        <time>2021-06-11T21:39:45Z</time>
      </trkpt>
      <trkpt lat="45.71199" lon="-0.57343">
        <ele>6</ele>
        <time>2021-06-11T21:39:46Z</time>
      </trkpt>
      <trkpt lat="45.71337" lon="-0.57679">
        <ele>4</ele>
        <time>2021-06-11T21:40:35Z</time>
      </trkpt>
      <trkpt lat="45.71372" lon="-0.57789">
        <ele>4</ele>
        <time>2021-06-11T21:40:50Z</time>
      </trkpt>
      <trkpt lat="45.71369" lon="-0.57802">
        <ele>5</ele>
        <time>2021-06-11T21:40:51Z</time>
      </trkpt>
      <trkpt lat="45.7135" lon="-0.57819">
        <ele>6</ele>
        <time>2021-06-11T21:40:55Z</time>
      </trkpt>
      <trkpt lat="45.71299" lon="-0.57833">
        <ele>7</ele>
        <time>2021-06-11T21:41:05Z</time>
      </trkpt>
      <trkpt lat="45.71234" lon="-0.57858">
        <ele>7</ele>
        <time>2021-06-11T21:41:17Z</time>
      </trkpt>
      <trkpt lat="45.71201" lon="-0.57877">
        <ele>7</ele>
        <time>2021-06-11T21:41:23Z</time>
      </trkpt>
      <trkpt lat="45.7121" lon="-0.57894">
        <ele>8</ele>
        <time>2021-06-11T21:41:26Z</time>
      </trkpt>
      <trkpt lat="45.71249" lon="-0.58014">
        <ele>9</ele>
        <time>2021-06-11T21:41:42Z</time>
      </trkpt>
      <trkpt lat="45.71252" lon="-0.58035">
        <ele>9</ele>
        <time>2021-06-11T21:41:45Z</time>
      </trkpt>
      <trkpt lat="45.71253" lon="-0.58114">
        <ele>9</ele>
        <time>2021-06-11T21:41:55Z</time>
      </trkpt>
      <trkpt lat="45.71252" lon="-0.58142">
        <ele>8</ele>
        <time>2021-06-11T21:41:58Z</time>
      </trkpt>
      <trkpt lat="45.71266" lon="-0.58142">
        <ele>8</ele>
        <time>2021-06-11T21:42:01Z</time>
      </trkpt>
      <trkpt lat="45.71281" lon="-0.58136">
        <ele>8</ele>
        <time>2021-06-11T21:42:03Z</time>
      </trkpt>
      <trkpt lat="45.71293" lon="-0.58134">
        <ele>8</ele>
        <time>2021-06-11T21:42:05Z</time>
      </trkpt>
      <trkpt lat="45.71319" lon="-0.58153">
        <ele>7</ele>
        <time>2021-06-11T21:42:11Z</time>
      </trkpt>
      <trkpt lat="45.71352" lon="-0.582">
        <ele>7</ele>
        <time>2021-06-11T21:42:19Z</time>
      </trkpt>
      <trkpt lat="45.7147" lon="-0.58425">
        <ele>6</ele>
        <time>2021-06-11T21:42:54Z</time>
      </trkpt>
      <trkpt lat="45.71508" lon="-0.58528">
        <ele>4</ele>
        <time>2021-06-11T21:43:08Z</time>
      </trkpt>
      <trkpt lat="45.71522" lon="-0.58633">
        <ele>6</ele>
        <time>2021-06-11T21:43:22Z</time>
      </trkpt>
      <trkpt lat="45.71542" lon="-0.58735">
        <ele>5</ele>
        <time>2021-06-11T21:43:35Z</time>
      </trkpt>
      <trkpt lat="45.71576" lon="-0.58848">
        <ele>5</ele>
        <time>2021-06-11T21:43:50Z</time>
      </trkpt>
      <trkpt lat="45.71598" lon="-0.58913">
        <ele>6</ele>
        <time>2021-06-11T21:43:59Z</time>
      </trkpt>
      <trkpt lat="45.71734" lon="-0.58973">
        <ele>6</ele>
        <time>2021-06-11T21:44:24Z</time>
      </trkpt>
      <trkpt lat="45.71756" lon="-0.58973">
        <ele>6</ele>
        <time>2021-06-11T21:44:28Z</time>
      </trkpt>
      <trkpt lat="45.71827" lon="-0.58959">
        <ele>6</ele>
        <time>2021-06-11T21:44:41Z</time>
      </trkpt>
      <trkpt lat="45.71902" lon="-0.58935">
        <ele>5</ele>
        <time>2021-06-11T21:44:55Z</time>
      </trkpt>
      <trkpt lat="45.71998" lon="-0.58897">
        <ele>4</ele>
        <time>2021-06-11T21:45:12Z</time>
      </trkpt>
      <trkpt lat="45.72055" lon="-0.5887">
        <ele>5</ele>
        <time>2021-06-11T21:45:23Z</time>
      </trkpt>
      <trkpt lat="45.72085" lon="-0.58844">
        <ele>5</ele>
        <time>2021-06-11T21:45:29Z</time>
      </trkpt>
      <trkpt lat="45.72099" lon="-0.58829">
        <ele>5</ele>
        <time>2021-06-11T21:45:32Z</time>
      </trkpt>
      <trkpt lat="45.72101" lon="-0.58821">
        <ele>5</ele>
        <time>2021-06-11T21:45:34Z</time>
      </trkpt>
      <trkpt lat="45.72145" lon="-0.58847">
        <ele>4</ele>
        <time>2021-06-11T21:45:42Z</time>
      </trkpt>
      <trkpt lat="45.72168" lon="-0.58864">
        <ele>3</ele>
        <time>2021-06-11T21:45:47Z</time>
      </trkpt>
      <trkpt lat="45.72212" lon="-0.58842">
        <ele>2</ele>
        <time>2021-06-11T21:45:55Z</time>
      </trkpt>
      <trkpt lat="45.72232" lon="-0.58843">
        <ele>2</ele>
        <time>2021-06-11T21:45:58Z</time>
      </trkpt>
      <trkpt lat="45.72289" lon="-0.58864">
        <ele>2</ele>
        <time>2021-06-11T21:46:09Z</time>
      </trkpt>
      <trkpt lat="45.72313" lon="-0.58862">
        <ele>2</ele>
        <time>2021-06-11T21:46:13Z</time>
      </trkpt>
      <trkpt lat="45.72385" lon="-0.58829">
        <ele>3</ele>
        <time>2021-06-11T21:46:27Z</time>
      </trkpt>
      <trkpt lat="45.7243" lon="-0.58776">
        <ele>4</ele>
        <time>2021-06-11T21:46:37Z</time>
      </trkpt>
      <trkpt lat="45.72556" lon="-0.59352">
        <ele>1</ele>
        <time>2021-06-11T21:47:52Z</time>
      </trkpt>
      <trkpt lat="45.72591" lon="-0.59494">
        <ele>3</ele>
        <time>2021-06-11T21:48:11Z</time>
      </trkpt>
      <trkpt lat="45.7262" lon="-0.59681">
        <ele>1</ele>
        <time>2021-06-11T21:48:35Z</time>
      </trkpt>
      <trkpt lat="45.72632" lon="-0.59724">
        <ele>1</ele>
        <time>2021-06-11T21:48:40Z</time>
      </trkpt>
      <trkpt lat="45.72719" lon="-0.59868">
        <ele>1</ele>
        <time>2021-06-11T21:49:04Z</time>
      </trkpt>
      <trkpt lat="45.72782" lon="-0.59959">
        <ele>3</ele>
        <time>2021-06-11T21:49:20Z</time>
      </trkpt>
      <trkpt lat="45.72745" lon="-0.60116">
        <ele>2</ele>
        <time>2021-06-11T21:49:40Z</time>
      </trkpt>
      <trkpt lat="45.72749" lon="-0.60123">
        <ele>2</ele>
        <time>2021-06-11T21:49:42Z</time>
      </trkpt>
      <trkpt lat="45.72751" lon="-0.60123">
        <ele>2</ele>
        <time>2021-06-11T21:49:42Z</time>
      </trkpt>
      <trkpt lat="45.72759" lon="-0.60125">
        <ele>2</ele>
        <time>2021-06-11T21:49:43Z</time>
      </trkpt>
      <trkpt lat="45.7276" lon="-0.60125">
        <ele>2</ele>
        <time>2021-06-11T21:49:44Z</time>
      </trkpt>
      <trkpt lat="45.72766" lon="-0.60144">
        <ele>3</ele>
        <time>2021-06-11T21:49:46Z</time>
      </trkpt>
      <trkpt lat="45.72774" lon="-0.6016">
        <ele>3</ele>
        <time>2021-06-11T21:49:49Z</time>
      </trkpt>
      <trkpt lat="45.72777" lon="-0.60169">
        <ele>3</ele>
        <time>2021-06-11T21:49:50Z</time>
      </trkpt>
      <trkpt lat="45.7276" lon="-0.60189">
        <ele>3</ele>
        <time>2021-06-11T21:49:54Z</time>
      </trkpt>
      <trkpt lat="45.72753" lon="-0.60192">
        <ele>3</ele>
        <time>2021-06-11T21:49:55Z</time>
      </trkpt>
      <trkpt lat="45.7273" lon="-0.60187">
        <ele>3</ele>
        <time>2021-06-11T21:49:59Z</time>
      </trkpt>
      <trkpt lat="45.7272" lon="-0.60189">
        <ele>3</ele>
        <time>2021-06-11T21:50:01Z</time>
      </trkpt>
      <trkpt lat="45.72689" lon="-0.60213">
        <ele>2</ele>
        <time>2021-06-11T21:50:07Z</time>
      </trkpt>
      <trkpt lat="45.72644" lon="-0.60228">
        <ele>2</ele>
        <time>2021-06-11T21:50:15Z</time>
      </trkpt>
      <trkpt lat="45.72634" lon="-0.60229">
        <ele>2</ele>
        <time>2021-06-11T21:50:17Z</time>
      </trkpt>
      <trkpt lat="45.72621" lon="-0.60222">
        <ele>2</ele>
        <time>2021-06-11T21:50:20Z</time>
      </trkpt>
      <trkpt lat="45.72608" lon="-0.60212">
        <ele>2</ele>
        <time>2021-06-11T21:50:22Z</time>
      </trkpt>
      <trkpt lat="45.72593" lon="-0.60194">
        <ele>2</ele>
        <time>2021-06-11T21:50:26Z</time>
      </trkpt>
      <trkpt lat="45.72583" lon="-0.60191">
        <ele>2</ele>
        <time>2021-06-11T21:50:28Z</time>
      </trkpt>
      <trkpt lat="45.72529" lon="-0.60213">
        <ele>2</ele>
        <time>2021-06-11T21:50:38Z</time>
      </trkpt>
      <trkpt lat="45.72527" lon="-0.60226">
        <ele>2</ele>
        <time>2021-06-11T21:50:39Z</time>
      </trkpt>
      <trkpt lat="45.72557" lon="-0.60289">
        <ele>1</ele>
        <time>2021-06-11T21:50:49Z</time>
      </trkpt>
      <trkpt lat="45.72649" lon="-0.60494">
        <ele>2</ele>
        <time>2021-06-11T21:51:19Z</time>
      </trkpt>
      <trkpt lat="45.72655" lon="-0.60516">
        <ele>1</ele>
        <time>2021-06-11T21:51:22Z</time>
      </trkpt>
      <trkpt lat="45.72753" lon="-0.60964">
        <ele>1</ele>
        <time>2021-06-11T21:52:20Z</time>
      </trkpt>
      <trkpt lat="45.7274" lon="-0.61239">
        <ele>1</ele>
        <time>2021-06-11T21:52:54Z</time>
      </trkpt>
      <trkpt lat="45.72736" lon="-0.61251">
        <ele>1</ele>
        <time>2021-06-11T21:52:56Z</time>
      </trkpt>
      <trkpt lat="45.72652" lon="-0.61461">
        <ele>2</ele>
        <time>2021-06-11T21:53:26Z</time>
      </trkpt>
      <trkpt lat="45.7225" lon="-0.62157">
        <ele>2</ele>
        <time>2021-06-11T21:55:18Z</time>
      </trkpt>
      <trkpt lat="45.72249" lon="-0.62181">
        <ele>2</ele>
        <time>2021-06-11T21:55:21Z</time>
      </trkpt>
      <trkpt lat="45.72241" lon="-0.6227">
        <ele>3</ele>
        <time>2021-06-11T21:55:33Z</time>
      </trkpt>
      <trkpt lat="45.72208" lon="-0.62307">
        <ele>3</ele>
        <time>2021-06-11T21:55:40Z</time>
      </trkpt>
      <trkpt lat="45.72193" lon="-0.62317">
        <ele>3</ele>
        <time>2021-06-11T21:55:43Z</time>
      </trkpt>
      <trkpt lat="45.72137" lon="-0.6233">
        <ele>4</ele>
        <time>2021-06-11T21:55:53Z</time>
      </trkpt>
      <trkpt lat="45.72125" lon="-0.62329">
        <ele>4</ele>
        <time>2021-06-11T21:55:55Z</time>
      </trkpt>
      <trkpt lat="45.72109" lon="-0.6232">
        <ele>4</ele>
        <time>2021-06-11T21:55:58Z</time>
      </trkpt>
      <trkpt lat="45.72095" lon="-0.6232">
        <ele>4</ele>
        <time>2021-06-11T21:56:01Z</time>
      </trkpt>
      <trkpt lat="45.72078" lon="-0.62325">
        <ele>4</ele>
        <time>2021-06-11T21:56:04Z</time>
      </trkpt>
      <trkpt lat="45.72063" lon="-0.62333">
        <ele>4</ele>
        <time>2021-06-11T21:56:07Z</time>
      </trkpt>
      <trkpt lat="45.7198" lon="-0.62401">
        <ele>5</ele>
        <time>2021-06-11T21:56:24Z</time>
      </trkpt>
      <trkpt lat="45.71965" lon="-0.62409">
        <ele>5</ele>
        <time>2021-06-11T21:56:27Z</time>
      </trkpt>
      <trkpt lat="45.71945" lon="-0.62415">
        <ele>5</ele>
        <time>2021-06-11T21:56:30Z</time>
      </trkpt>
      <trkpt lat="45.71914" lon="-0.62417">
        <ele>5</ele>
        <time>2021-06-11T21:56:36Z</time>
      </trkpt>
      <trkpt lat="45.71886" lon="-0.62422">
        <ele>6</ele>
        <time>2021-06-11T21:56:41Z</time>
      </trkpt>
      <trkpt lat="45.71868" lon="-0.62429">
        <ele>6</ele>
        <time>2021-06-11T21:56:44Z</time>
      </trkpt>
      <trkpt lat="45.71843" lon="-0.62447">
        <ele>7</ele>
        <time>2021-06-11T21:56:49Z</time>
      </trkpt>
      <trkpt lat="45.71769" lon="-0.62532">
        <ele>11</ele>
        <time>2021-06-11T21:57:06Z</time>
      </trkpt>
      <trkpt lat="45.71784" lon="-0.62571">
        <ele>11</ele>
        <time>2021-06-11T21:57:11Z</time>
      </trkpt>
      <trkpt lat="45.718" lon="-0.62628">
        <ele>11</ele>
        <time>2021-06-11T21:57:19Z</time>
      </trkpt>
      <trkpt lat="45.71803" lon="-0.62639">
        <ele>11</ele>
        <time>2021-06-11T21:57:20Z</time>
      </trkpt>
      <trkpt lat="45.71809" lon="-0.62662">
        <ele>11</ele>
        <time>2021-06-11T21:57:24Z</time>
      </trkpt>
      <trkpt lat="45.71857" lon="-0.62839">
        <ele>10</ele>
        <time>2021-06-11T21:57:47Z</time>
      </trkpt>
      <trkpt lat="45.71868" lon="-0.62878">
        <ele>9</ele>
        <time>2021-06-11T21:57:52Z</time>
      </trkpt>
      <trkpt lat="45.71875" lon="-0.62901">
        <ele>8</ele>
        <time>2021-06-11T21:57:55Z</time>
      </trkpt>
      <trkpt lat="45.71883" lon="-0.62926">
        <ele>7</ele>
        <time>2021-06-11T21:57:59Z</time>
      </trkpt>
      <trkpt lat="45.71887" lon="-0.62937">
        <ele>7</ele>
        <time>2021-06-11T21:58:00Z</time>
      </trkpt>
      <trkpt lat="45.71922" lon="-0.63061">
        <ele>7</ele>
        <time>2021-06-11T21:58:17Z</time>
      </trkpt>
      <trkpt lat="45.71929" lon="-0.63075">
        <ele>8</ele>
        <time>2021-06-11T21:58:19Z</time>
      </trkpt>
      <trkpt lat="45.71935" lon="-0.63081">
        <ele>8</ele>
        <time>2021-06-11T21:58:20Z</time>
      </trkpt>
      <trkpt lat="45.71942" lon="-0.63088">
        <ele>8</ele>
        <time>2021-06-11T21:58:22Z</time>
      </trkpt>
      <trkpt lat="45.71984" lon="-0.63112">
        <ele>9</ele>
        <time>2021-06-11T21:58:30Z</time>
      </trkpt>
      <trkpt lat="45.71993" lon="-0.63123">
        <ele>9</ele>
        <time>2021-06-11T21:58:32Z</time>
      </trkpt>
      <trkpt lat="45.72021" lon="-0.6316">
        <ele>12</ele>
        <time>2021-06-11T21:58:39Z</time>
      </trkpt>
      <trkpt lat="45.7203" lon="-0.63172">
        <ele>12</ele>
        <time>2021-06-11T21:58:41Z</time>
      </trkpt>
      <trkpt lat="45.72087" lon="-0.6325">
        <ele>16</ele>
        <time>2021-06-11T21:58:55Z</time>
      </trkpt>
      <trkpt lat="45.72126" lon="-0.63321">
        <ele>18</ele>
        <time>2021-06-11T21:59:06Z</time>
      </trkpt>
      <trkpt lat="45.72136" lon="-0.63339">
        <ele>18</ele>
        <time>2021-06-11T21:59:09Z</time>
      </trkpt>
      <trkpt lat="45.72155" lon="-0.63357">
        <ele>20</ele>
        <time>2021-06-11T21:59:13Z</time>
      </trkpt>
      <trkpt lat="45.72171" lon="-0.63363">
        <ele>20</ele>
        <time>2021-06-11T21:59:16Z</time>
      </trkpt>
      <trkpt lat="45.72192" lon="-0.63372">
        <ele>21</ele>
        <time>2021-06-11T21:59:20Z</time>
      </trkpt>
      <trkpt lat="45.72211" lon="-0.6338">
        <ele>21</ele>
        <time>2021-06-11T21:59:24Z</time>
      </trkpt>
      <trkpt lat="45.72226" lon="-0.63388">
        <ele>21</ele>
        <time>2021-06-11T21:59:26Z</time>
      </trkpt>
      <trkpt lat="45.72243" lon="-0.63406">
        <ele>22</ele>
        <time>2021-06-11T21:59:30Z</time>
      </trkpt>
      <trkpt lat="45.72285" lon="-0.63464">
        <ele>22</ele>
        <time>2021-06-11T21:59:41Z</time>
      </trkpt>
      <trkpt lat="45.723" lon="-0.63471">
        <ele>22</ele>
        <time>2021-06-11T21:59:43Z</time>
      </trkpt>
      <trkpt lat="45.72315" lon="-0.63474">
        <ele>22</ele>
        <time>2021-06-11T21:59:46Z</time>
      </trkpt>
      <trkpt lat="45.72332" lon="-0.63471">
        <ele>21</ele>
        <time>2021-06-11T21:59:49Z</time>
      </trkpt>
      <trkpt lat="45.72382" lon="-0.63427">
        <ele>18</ele>
        <time>2021-06-11T22:00:00Z</time>
      </trkpt>
      <trkpt lat="45.72389" lon="-0.63422">
        <ele>17</ele>
        <time>2021-06-11T22:00:01Z</time>
      </trkpt>
      <trkpt lat="45.724" lon="-0.63418">
        <ele>16</ele>
        <time>2021-06-11T22:00:03Z</time>
      </trkpt>
      <trkpt lat="45.72409" lon="-0.63419">
        <ele>16</ele>
        <time>2021-06-11T22:00:05Z</time>
      </trkpt>
      <trkpt lat="45.72419" lon="-0.63423">
        <ele>15</ele>
        <time>2021-06-11T22:00:06Z</time>
      </trkpt>
      <trkpt lat="45.72437" lon="-0.63436">
        <ele>14</ele>
        <time>2021-06-11T22:00:10Z</time>
      </trkpt>
      <trkpt lat="45.72454" lon="-0.63454">
        <ele>12</ele>
        <time>2021-06-11T22:00:14Z</time>
      </trkpt>
      <trkpt lat="45.72464" lon="-0.63463">
        <ele>12</ele>
        <time>2021-06-11T22:00:16Z</time>
      </trkpt>
      <trkpt lat="45.72513" lon="-0.63506">
        <ele>8</ele>
        <time>2021-06-11T22:00:26Z</time>
      </trkpt>
      <trkpt lat="45.72527" lon="-0.63517">
        <ele>8</ele>
        <time>2021-06-11T22:00:29Z</time>
      </trkpt>
      <trkpt lat="45.72629" lon="-0.63611">
        <ele>11</ele>
        <time>2021-06-11T22:00:51Z</time>
      </trkpt>
      <trkpt lat="45.72675" lon="-0.63657">
        <ele>13</ele>
        <time>2021-06-11T22:01:01Z</time>
      </trkpt>
      <trkpt lat="45.72759" lon="-0.63734">
        <ele>13</ele>
        <time>2021-06-11T22:01:18Z</time>
      </trkpt>
      <trkpt lat="45.72767" lon="-0.63753">
        <ele>13</ele>
        <time>2021-06-11T22:01:21Z</time>
      </trkpt>
      <trkpt lat="45.72769" lon="-0.63772">
        <ele>13</ele>
        <time>2021-06-11T22:01:23Z</time>
      </trkpt>
      <trkpt lat="45.72768" lon="-0.63812">
        <ele>14</ele>
        <time>2021-06-11T22:01:28Z</time>
      </trkpt>
      <trkpt lat="45.72768" lon="-0.63845">
        <ele>14</ele>
        <time>2021-06-11T22:01:33Z</time>
      </trkpt>
      <trkpt lat="45.72771" lon="-0.6386">
        <ele>13</ele>
        <time>2021-06-11T22:01:34Z</time>
      </trkpt>
      <trkpt lat="45.72775" lon="-0.63871">
        <ele>12</ele>
        <time>2021-06-11T22:01:36Z</time>
      </trkpt>
      <trkpt lat="45.72882" lon="-0.63883">
        <ele>7</ele>
        <time>2021-06-11T22:01:55Z</time>
      </trkpt>
      <trkpt lat="45.72889" lon="-0.63884">
        <ele>7</ele>
        <time>2021-06-11T22:01:56Z</time>
      </trkpt>
      <trkpt lat="45.72926" lon="-0.63889">
        <ele>7</ele>
        <time>2021-06-11T22:02:03Z</time>
      </trkpt>
      <trkpt lat="45.72934" lon="-0.6389">
        <ele>8</ele>
        <time>2021-06-11T22:02:04Z</time>
      </trkpt>
      <trkpt lat="45.72961" lon="-0.63894">
        <ele>8</ele>
        <time>2021-06-11T22:02:09Z</time>
      </trkpt>
      <trkpt lat="45.73134" lon="-0.63942">
        <ele>10</ele>
        <time>2021-06-11T22:02:41Z</time>
      </trkpt>
      <trkpt lat="45.73138" lon="-0.63942">
        <ele>9</ele>
        <time>2021-06-11T22:02:41Z</time>
      </trkpt>
      <trkpt lat="45.73288" lon="-0.63969">
        <ele>16</ele>
        <time>2021-06-11T22:03:08Z</time>
      </trkpt>
      <trkpt lat="45.73401" lon="-0.63976">
        <ele>17</ele>
        <time>2021-06-11T22:03:28Z</time>
      </trkpt>
      <trkpt lat="45.73491" lon="-0.63989">
        <ele>12</ele>
        <time>2021-06-11T22:03:44Z</time>
      </trkpt>
      <trkpt lat="45.73498" lon="-0.63987">
        <ele>11</ele>
        <time>2021-06-11T22:03:46Z</time>
      </trkpt>
      <trkpt lat="45.73692" lon="-0.63923">
        <ele>15</ele>
        <time>2021-06-11T22:04:21Z</time>
      </trkpt>
      <trkpt lat="45.73762" lon="-0.63896">
        <ele>18</ele>
        <time>2021-06-11T22:04:34Z</time>
      </trkpt>
      <trkpt lat="45.73845" lon="-0.6386">
        <ele>17</ele>
        <time>2021-06-11T22:04:49Z</time>
      </trkpt>
      <trkpt lat="45.73922" lon="-0.6382">
        <ele>14</ele>
        <time>2021-06-11T22:05:04Z</time>
      </trkpt>
      <trkpt lat="45.73997" lon="-0.63786">
        <ele>11</ele>
        <time>2021-06-11T22:05:18Z</time>
      </trkpt>
      <trkpt lat="45.74094" lon="-0.63746">
        <ele>8</ele>
        <time>2021-06-11T22:05:36Z</time>
      </trkpt>
      <trkpt lat="45.74114" lon="-0.63738">
        <ele>8</ele>
        <time>2021-06-11T22:05:40Z</time>
      </trkpt>
      <trkpt lat="45.74158" lon="-0.63705">
        <ele>7</ele>
        <time>2021-06-11T22:05:48Z</time>
      </trkpt>
      <trkpt lat="45.74182" lon="-0.63682">
        <ele>7</ele>
        <time>2021-06-11T22:05:54Z</time>
      </trkpt>
      <trkpt lat="45.74193" lon="-0.6367">
        <ele>6</ele>
        <time>2021-06-11T22:05:56Z</time>
      </trkpt>
      <trkpt lat="45.74197" lon="-0.63663">
        <ele>6</ele>
        <time>2021-06-11T22:05:57Z</time>
      </trkpt>
      <trkpt lat="45.74204" lon="-0.63651">
        <ele>7</ele>
        <time>2021-06-11T22:05:59Z</time>
      </trkpt>
      <trkpt lat="45.74215" lon="-0.63632">
        <ele>7</ele>
        <time>2021-06-11T22:06:02Z</time>
      </trkpt>
      <trkpt lat="45.74224" lon="-0.63615">
        <ele>7</ele>
        <time>2021-06-11T22:06:05Z</time>
      </trkpt>
      <trkpt lat="45.74227" lon="-0.63612">
        <ele>7</ele>
        <time>2021-06-11T22:06:06Z</time>
      </trkpt>
      <trkpt lat="45.7423" lon="-0.6361">
        <ele>7</ele>
        <time>2021-06-11T22:06:06Z</time>
      </trkpt>
      <trkpt lat="45.74234" lon="-0.63608">
        <ele>7</ele>
        <time>2021-06-11T22:06:07Z</time>
      </trkpt>
      <trkpt lat="45.74264" lon="-0.63602">
        <ele>9</ele>
        <time>2021-06-11T22:06:12Z</time>
      </trkpt>
      <trkpt lat="45.74269" lon="-0.636">
        <ele>9</ele>
        <time>2021-06-11T22:06:13Z</time>
      </trkpt>
      <trkpt lat="45.74274" lon="-0.63598">
        <ele>10</ele>
        <time>2021-06-11T22:06:14Z</time>
      </trkpt>
      <trkpt lat="45.7428" lon="-0.63593">
        <ele>10</ele>
        <time>2021-06-11T22:06:15Z</time>
      </trkpt>
      <trkpt lat="45.74286" lon="-0.63583">
        <ele>11</ele>
        <time>2021-06-11T22:06:17Z</time>
      </trkpt>
      <trkpt lat="45.74289" lon="-0.63576">
        <ele>11</ele>
        <time>2021-06-11T22:06:18Z</time>
      </trkpt>
      <trkpt lat="45.74291" lon="-0.63569">
        <ele>10</ele>
        <time>2021-06-11T22:06:19Z</time>
      </trkpt>
      <trkpt lat="45.74292" lon="-0.6356">
        <ele>10</ele>
        <time>2021-06-11T22:06:20Z</time>
      </trkpt>
      <trkpt lat="45.7429" lon="-0.63535">
        <ele>9</ele>
        <time>2021-06-11T22:06:23Z</time>
      </trkpt>
      <trkpt lat="45.74287" lon="-0.63511">
        <ele>8</ele>
        <time>2021-06-11T22:06:26Z</time>
      </trkpt>
      <trkpt lat="45.74286" lon="-0.63499">
        <ele>8</ele>
        <time>2021-06-11T22:06:28Z</time>
      </trkpt>
      <trkpt lat="45.74284" lon="-0.63483">
        <ele>7</ele>
        <time>2021-06-11T22:06:30Z</time>
      </trkpt>
      <trkpt lat="45.74283" lon="-0.63472">
        <ele>7</ele>
        <time>2021-06-11T22:06:31Z</time>
      </trkpt>
      <trkpt lat="45.74282" lon="-0.63461">
        <ele>7</ele>
        <time>2021-06-11T22:06:32Z</time>
      </trkpt>
      <trkpt lat="45.74283" lon="-0.63453">
        <ele>7</ele>
        <time>2021-06-11T22:06:33Z</time>
      </trkpt>
      <trkpt lat="45.74284" lon="-0.63447">
        <ele>7</ele>
        <time>2021-06-11T22:06:34Z</time>
      </trkpt>
      <trkpt lat="45.74287" lon="-0.63429">
        <ele>7</ele>
        <time>2021-06-11T22:06:37Z</time>
      </trkpt>
      <trkpt lat="45.74305" lon="-0.63349">
        <ele>8</ele>
        <time>2021-06-11T22:06:47Z</time>
      </trkpt>
      <trkpt lat="45.74307" lon="-0.63343">
        <ele>9</ele>
        <time>2021-06-11T22:06:48Z</time>
      </trkpt>
      <trkpt lat="45.74328" lon="-0.63244">
        <ele>9</ele>
        <time>2021-06-11T22:07:01Z</time>
      </trkpt>
      <trkpt lat="45.74329" lon="-0.6324">
        <ele>9</ele>
        <time>2021-06-11T22:07:01Z</time>
      </trkpt>
      <trkpt lat="45.74341" lon="-0.63182">
        <ele>8</ele>
        <time>2021-06-11T22:07:09Z</time>
      </trkpt>
      <trkpt lat="45.7435" lon="-0.63153">
        <ele>7</ele>
        <time>2021-06-11T22:07:13Z</time>
      </trkpt>
      <trkpt lat="45.7436" lon="-0.63137">
        <ele>7</ele>
        <time>2021-06-11T22:07:15Z</time>
      </trkpt>
      <trkpt lat="45.74374" lon="-0.63119">
        <ele>8</ele>
        <time>2021-06-11T22:07:19Z</time>
      </trkpt>
      <trkpt lat="45.74402" lon="-0.63085">
        <ele>8</ele>
        <time>2021-06-11T22:07:25Z</time>
      </trkpt>
      <trkpt lat="45.74408" lon="-0.63079">
        <ele>8</ele>
        <time>2021-06-11T22:07:26Z</time>
      </trkpt>
      <trkpt lat="45.74425" lon="-0.63064">
        <ele>8</ele>
        <time>2021-06-11T22:07:30Z</time>
      </trkpt>
      <trkpt lat="45.74453" lon="-0.63053">
        <ele>8</ele>
        <time>2021-06-11T22:07:35Z</time>
      </trkpt>
      <trkpt lat="45.74464" lon="-0.6305">
        <ele>8</ele>
        <time>2021-06-11T22:07:37Z</time>
      </trkpt>
      <trkpt lat="45.74472" lon="-0.63048">
        <ele>8</ele>
        <time>2021-06-11T22:07:39Z</time>
      </trkpt>
      <trkpt lat="45.74481" lon="-0.63045">
        <ele>7</ele>
        <time>2021-06-11T22:07:40Z</time>
      </trkpt>
      <trkpt lat="45.74496" lon="-0.63041">
        <ele>7</ele>
        <time>2021-06-11T22:07:43Z</time>
      </trkpt>
      <trkpt lat="45.74503" lon="-0.63039">
        <ele>7</ele>
        <time>2021-06-11T22:07:44Z</time>
      </trkpt>
      <trkpt lat="45.74514" lon="-0.63036">
        <ele>7</ele>
        <time>2021-06-11T22:07:46Z</time>
      </trkpt>
      <trkpt lat="45.74521" lon="-0.63034">
        <ele>7</ele>
        <time>2021-06-11T22:07:48Z</time>
      </trkpt>
      <trkpt lat="45.74549" lon="-0.63036">
        <ele>8</ele>
        <time>2021-06-11T22:07:53Z</time>
      </trkpt>
      <trkpt lat="45.74552" lon="-0.63038">
        <ele>8</ele>
        <time>2021-06-11T22:07:53Z</time>
      </trkpt>
      <trkpt lat="45.74556" lon="-0.63039">
        <ele>8</ele>
        <time>2021-06-11T22:07:54Z</time>
      </trkpt>
      <trkpt lat="45.74591" lon="-0.63053">
        <ele>9</ele>
        <time>2021-06-11T22:08:00Z</time>
      </trkpt>
      <trkpt lat="45.74612" lon="-0.63054">
        <ele>9</ele>
        <time>2021-06-11T22:08:04Z</time>
      </trkpt>
      <trkpt lat="45.74688" lon="-0.63047">
        <ele>9</ele>
        <time>2021-06-11T22:08:18Z</time>
      </trkpt>
      <trkpt lat="45.74737" lon="-0.63049">
        <ele>8</ele>
        <time>2021-06-11T22:08:26Z</time>
      </trkpt>
      <trkpt lat="45.74746" lon="-0.63051">
        <ele>8</ele>
        <time>2021-06-11T22:08:28Z</time>
      </trkpt>
      <trkpt lat="45.7476" lon="-0.63057">
        <ele>8</ele>
        <time>2021-06-11T22:08:31Z</time>
      </trkpt>
      <trkpt lat="45.74765" lon="-0.63059">
        <ele>8</ele>
        <time>2021-06-11T22:08:31Z</time>
      </trkpt>
      <trkpt lat="45.74797" lon="-0.63075">
        <ele>8</ele>
        <time>2021-06-11T22:08:37Z</time>
      </trkpt>
      <trkpt lat="45.74882" lon="-0.63119">
        <ele>7</ele>
        <time>2021-06-11T22:08:54Z</time>
      </trkpt>
      <trkpt lat="45.74922" lon="-0.63136">
        <ele>8</ele>
        <time>2021-06-11T22:09:01Z</time>
      </trkpt>
      <trkpt lat="45.74957" lon="-0.63151">
        <ele>8</ele>
        <time>2021-06-11T22:09:08Z</time>
      </trkpt>
      <trkpt lat="45.74984" lon="-0.63162">
        <ele>9</ele>
        <time>2021-06-11T22:09:12Z</time>
      </trkpt>
      <trkpt lat="45.74991" lon="-0.63165">
        <ele>9</ele>
        <time>2021-06-11T22:09:14Z</time>
      </trkpt>
      <trkpt lat="45.75013" lon="-0.63167">
        <ele>10</ele>
        <time>2021-06-11T22:09:18Z</time>
      </trkpt>
      <trkpt lat="45.75044" lon="-0.63163">
        <ele>11</ele>
        <time>2021-06-11T22:09:23Z</time>
      </trkpt>
      <trkpt lat="45.75121" lon="-0.63141">
        <ele>12</ele>
        <time>2021-06-11T22:09:37Z</time>
      </trkpt>
      <trkpt lat="45.75128" lon="-0.6314">
        <ele>12</ele>
        <time>2021-06-11T22:09:38Z</time>
      </trkpt>
      <trkpt lat="45.75135" lon="-0.63137">
        <ele>12</ele>
        <time>2021-06-11T22:09:40Z</time>
      </trkpt>
      <trkpt lat="45.75262" lon="-0.63089">
        <ele>7</ele>
        <time>2021-06-11T22:10:03Z</time>
      </trkpt>
      <trkpt lat="45.75261" lon="-0.63082">
        <ele>7</ele>
        <time>2021-06-11T22:10:04Z</time>
      </trkpt>
      <trkpt lat="45.75295" lon="-0.63059">
        <ele>7</ele>
        <time>2021-06-11T22:10:11Z</time>
      </trkpt>
      <trkpt lat="45.75319" lon="-0.63032">
        <ele>7</ele>
        <time>2021-06-11T22:10:16Z</time>
      </trkpt>
      <trkpt lat="45.75348" lon="-0.62993">
        <ele>7</ele>
        <time>2021-06-11T22:10:23Z</time>
      </trkpt>
      <trkpt lat="45.75358" lon="-0.62998">
        <ele>8</ele>
        <time>2021-06-11T22:10:25Z</time>
      </trkpt>
      <trkpt lat="45.75369" lon="-0.62981">
        <ele>8</ele>
        <time>2021-06-11T22:10:28Z</time>
      </trkpt>
      <trkpt lat="45.75407" lon="-0.62944">
        <ele>7</ele>
        <time>2021-06-11T22:10:36Z</time>
      </trkpt>
      <trkpt lat="45.75442" lon="-0.62922">
        <ele>8</ele>
        <time>2021-06-11T22:10:43Z</time>
      </trkpt>
      <trkpt lat="45.75693" lon="-0.62805">
        <ele>8</ele>
        <time>2021-06-11T22:11:30Z</time>
      </trkpt>
      <trkpt lat="45.75787" lon="-0.62778">
        <ele>8</ele>
        <time>2021-06-11T22:11:47Z</time>
      </trkpt>
      <trkpt lat="45.75964" lon="-0.62708">
        <ele>5</ele>
        <time>2021-06-11T22:12:20Z</time>
      </trkpt>
      <trkpt lat="45.76005" lon="-0.62702">
        <ele>5</ele>
        <time>2021-06-11T22:12:27Z</time>
      </trkpt>
      <trkpt lat="45.76109" lon="-0.62677">
        <ele>6</ele>
        <time>2021-06-11T22:12:46Z</time>
      </trkpt>
      <trkpt lat="45.76168" lon="-0.62691">
        <ele>6</ele>
        <time>2021-06-11T22:12:56Z</time>
      </trkpt>
      <trkpt lat="45.76198" lon="-0.62672">
        <ele>5</ele>
        <time>2021-06-11T22:13:02Z</time>
      </trkpt>
      <trkpt lat="45.76237" lon="-0.6264">
        <ele>5</ele>
        <time>2021-06-11T22:13:10Z</time>
      </trkpt>
      <trkpt lat="45.76258" lon="-0.62628">
        <ele>5</ele>
        <time>2021-06-11T22:13:14Z</time>
      </trkpt>
      <trkpt lat="45.76298" lon="-0.62622">
        <ele>6</ele>
        <time>2021-06-11T22:13:21Z</time>
      </trkpt>
      <trkpt lat="45.76337" lon="-0.62626">
        <ele>7</ele>
        <time>2021-06-11T22:13:28Z</time>
      </trkpt>
      <trkpt lat="45.7637" lon="-0.62624">
        <ele>7</ele>
        <time>2021-06-11T22:13:34Z</time>
      </trkpt>
      <trkpt lat="45.76418" lon="-0.62618">
        <ele>7</ele>
        <time>2021-06-11T22:13:43Z</time>
      </trkpt>
      <trkpt lat="45.76524" lon="-0.62608">
        <ele>6</ele>
        <time>2021-06-11T22:14:02Z</time>
      </trkpt>
      <trkpt lat="45.76547" lon="-0.62599">
        <ele>6</ele>
        <time>2021-06-11T22:14:06Z</time>
      </trkpt>
      <trkpt lat="45.76744" lon="-0.62576">
        <ele>3</ele>
        <time>2021-06-11T22:14:41Z</time>
      </trkpt>
      <trkpt lat="45.76766" lon="-0.62531">
        <ele>4</ele>
        <time>2021-06-11T22:14:48Z</time>
      </trkpt>
      <trkpt lat="45.76772" lon="-0.62528">
        <ele>4</ele>
        <time>2021-06-11T22:14:49Z</time>
      </trkpt>
      <trkpt lat="45.76848" lon="-0.62534">
        <ele>4</ele>
        <time>2021-06-11T22:15:03Z</time>
      </trkpt>
      <trkpt lat="45.76872" lon="-0.62474">
        <ele>4</ele>
        <time>2021-06-11T22:15:11Z</time>
      </trkpt>
      <trkpt lat="45.7696" lon="-0.62272">
        <ele>2</ele>
        <time>2021-06-11T22:15:41Z</time>
      </trkpt>
      <trkpt lat="45.7698" lon="-0.6222">
        <ele>3</ele>
        <time>2021-06-11T22:15:48Z</time>
      </trkpt>
      <trkpt lat="45.76991" lon="-0.62207">
        <ele>3</ele>
        <time>2021-06-11T22:15:51Z</time>
      </trkpt>
      <trkpt lat="45.77014" lon="-0.62209">
        <ele>3</ele>
        <time>2021-06-11T22:15:55Z</time>
      </trkpt>
      <trkpt lat="45.77049" lon="-0.62188">
        <ele>3</ele>
        <time>2021-06-11T22:16:02Z</time>
      </trkpt>
      <trkpt lat="45.77087" lon="-0.62156">
        <ele>4</ele>
        <time>2021-06-11T22:16:09Z</time>
      </trkpt>
      <trkpt lat="45.77114" lon="-0.62136">
        <ele>5</ele>
        <time>2021-06-11T22:16:15Z</time>
      </trkpt>
      <trkpt lat="45.77156" lon="-0.62164">
        <ele>5</ele>
        <time>2021-06-11T22:16:23Z</time>
      </trkpt>
      <trkpt lat="45.77206" lon="-0.62203">
        <ele>7</ele>
        <time>2021-06-11T22:16:33Z</time>
      </trkpt>
      <trkpt lat="45.77242" lon="-0.62241">
        <ele>6</ele>
        <time>2021-06-11T22:16:41Z</time>
      </trkpt>
      <trkpt lat="45.77308" lon="-0.62304">
        <ele>6</ele>
        <time>2021-06-11T22:16:55Z</time>
      </trkpt>
      <trkpt lat="45.77314" lon="-0.62313">
        <ele>6</ele>
        <time>2021-06-11T22:16:57Z</time>
      </trkpt>
      <trkpt lat="45.77313" lon="-0.62322">
        <ele>5</ele>
        <time>2021-06-11T22:16:58Z</time>
      </trkpt>
      <trkpt lat="45.77302" lon="-0.62358">
        <ele>4</ele>
        <time>2021-06-11T22:17:03Z</time>
      </trkpt>
      <trkpt lat="45.77302" lon="-0.62367">
        <ele>4</ele>
        <time>2021-06-11T22:17:04Z</time>
      </trkpt>
      <trkpt lat="45.77303" lon="-0.62375">
        <ele>4</ele>
        <time>2021-06-11T22:17:05Z</time>
      </trkpt>
      <trkpt lat="45.77336" lon="-0.62407">
        <ele>3</ele>
        <time>2021-06-11T22:17:12Z</time>
      </trkpt>
      <trkpt lat="45.77341" lon="-0.62409">
        <ele>4</ele>
        <time>2021-06-11T22:17:13Z</time>
      </trkpt>
      <trkpt lat="45.77346" lon="-0.62408">
        <ele>4</ele>
        <time>2021-06-11T22:17:14Z</time>
      </trkpt>
      <trkpt lat="45.77351" lon="-0.62403">
        <ele>4</ele>
        <time>2021-06-11T22:17:15Z</time>
      </trkpt>
      <trkpt lat="45.77363" lon="-0.62375">
        <ele>6</ele>
        <time>2021-06-11T22:17:19Z</time>
      </trkpt>
      <trkpt lat="45.77376" lon="-0.62388">
        <ele>6</ele>
        <time>2021-06-11T22:17:22Z</time>
      </trkpt>
      <trkpt lat="45.77475" lon="-0.62506">
        <ele>5</ele>
        <time>2021-06-11T22:17:45Z</time>
      </trkpt>
      <trkpt lat="45.77507" lon="-0.62536">
        <ele>5</ele>
        <time>2021-06-11T22:17:51Z</time>
      </trkpt>
      <trkpt lat="45.77551" lon="-0.62581">
        <ele>5</ele>
        <time>2021-06-11T22:18:01Z</time>
      </trkpt>
      <trkpt lat="45.77571" lon="-0.62604">
        <ele>4</ele>
        <time>2021-06-11T22:18:06Z</time>
      </trkpt>
      <trkpt lat="45.77579" lon="-0.62634">
        <ele>3</ele>
        <time>2021-06-11T22:18:10Z</time>
      </trkpt>
      <trkpt lat="45.77606" lon="-0.62644">
        <ele>3</ele>
        <time>2021-06-11T22:18:15Z</time>
      </trkpt>
      <trkpt lat="45.77625" lon="-0.62665">
        <ele>3</ele>
        <time>2021-06-11T22:18:19Z</time>
      </trkpt>
      <trkpt lat="45.7763" lon="-0.62683">
        <ele>3</ele>
        <time>2021-06-11T22:18:21Z</time>
      </trkpt>
      <trkpt lat="45.77636" lon="-0.62695">
        <ele>3</ele>
        <time>2021-06-11T22:18:23Z</time>
      </trkpt>
      <trkpt lat="45.7765" lon="-0.62703">
        <ele>3</ele>
        <time>2021-06-11T22:18:26Z</time>
      </trkpt>
      <trkpt lat="45.77753" lon="-0.62831">
        <ele>5</ele>
        <time>2021-06-11T22:18:50Z</time>
      </trkpt>
      <trkpt lat="45.77786" lon="-0.62882">
        <ele>6</ele>
        <time>2021-06-11T22:18:59Z</time>
      </trkpt>
      <trkpt lat="45.77836" lon="-0.62971">
        <ele>5</ele>
        <time>2021-06-11T22:19:13Z</time>
      </trkpt>
      <trkpt lat="45.77914" lon="-0.63137">
        <ele>4</ele>
        <time>2021-06-11T22:19:38Z</time>
      </trkpt>
      <trkpt lat="45.77931" lon="-0.63183">
        <ele>3</ele>
        <time>2021-06-11T22:19:44Z</time>
      </trkpt>
      <trkpt lat="45.77935" lon="-0.63199">
        <ele>3</ele>
        <time>2021-06-11T22:19:46Z</time>
      </trkpt>
      <trkpt lat="45.7789" lon="-0.63251">
        <ele>3</ele>
        <time>2021-06-11T22:19:57Z</time>
      </trkpt>
      <trkpt lat="45.77772" lon="-0.63391">
        <ele>1</ele>
        <time>2021-06-11T22:20:24Z</time>
      </trkpt>
      <trkpt lat="45.77693" lon="-0.6348">
        <ele>1</ele>
        <time>2021-06-11T22:20:42Z</time>
      </trkpt>
      <trkpt lat="45.7766" lon="-0.63526">
        <ele>1</ele>
        <time>2021-06-11T22:20:50Z</time>
      </trkpt>
      <trkpt lat="45.77632" lon="-0.63583">
        <ele>2</ele>
        <time>2021-06-11T22:20:59Z</time>
      </trkpt>
      <trkpt lat="45.77597" lon="-0.63664">
        <ele>4</ele>
        <time>2021-06-11T22:21:10Z</time>
      </trkpt>
      <trkpt lat="45.77585" lon="-0.63701">
        <ele>4</ele>
        <time>2021-06-11T22:21:15Z</time>
      </trkpt>
      <trkpt lat="45.77579" lon="-0.63718">
        <ele>5</ele>
        <time>2021-06-11T22:21:18Z</time>
      </trkpt>
      <trkpt lat="45.77563" lon="-0.63736">
        <ele>5</ele>
        <time>2021-06-11T22:21:21Z</time>
      </trkpt>
      <trkpt lat="45.77529" lon="-0.63782">
        <ele>6</ele>
        <time>2021-06-11T22:21:30Z</time>
      </trkpt>
      <trkpt lat="45.77505" lon="-0.63822">
        <ele>7</ele>
        <time>2021-06-11T22:21:36Z</time>
      </trkpt>
      <trkpt lat="45.77483" lon="-0.63863">
        <ele>9</ele>
        <time>2021-06-11T22:21:43Z</time>
      </trkpt>
      <trkpt lat="45.77476" lon="-0.6388">
        <ele>9</ele>
        <time>2021-06-11T22:21:45Z</time>
      </trkpt>
      <trkpt lat="45.77532" lon="-0.63967">
        <ele>9</ele>
        <time>2021-06-11T22:22:00Z</time>
      </trkpt>
      <trkpt lat="45.77535" lon="-0.63987">
        <ele>10</ele>
        <time>2021-06-11T22:22:02Z</time>
      </trkpt>
      <trkpt lat="45.7746" lon="-0.64176">
        <ele>16</ele>
        <time>2021-06-11T22:22:29Z</time>
      </trkpt>
      <trkpt lat="45.77454" lon="-0.64196">
        <ele>16</ele>
        <time>2021-06-11T22:22:32Z</time>
      </trkpt>
      <trkpt lat="45.77461" lon="-0.64203">
        <ele>16</ele>
        <time>2021-06-11T22:22:34Z</time>
      </trkpt>
      <trkpt lat="45.7747" lon="-0.64217">
        <ele>16</ele>
        <time>2021-06-11T22:22:36Z</time>
      </trkpt>
      <trkpt lat="45.77481" lon="-0.64242">
        <ele>16</ele>
        <time>2021-06-11T22:22:40Z</time>
      </trkpt>
      <trkpt lat="45.77496" lon="-0.64269">
        <ele>16</ele>
        <time>2021-06-11T22:22:44Z</time>
      </trkpt>
      <trkpt lat="45.7751" lon="-0.6429">
        <ele>16</ele>
        <time>2021-06-11T22:22:47Z</time>
      </trkpt>
      <trkpt lat="45.77526" lon="-0.64306">
        <ele>16</ele>
        <time>2021-06-11T22:22:51Z</time>
      </trkpt>
      <trkpt lat="45.77547" lon="-0.64317">
        <ele>16</ele>
        <time>2021-06-11T22:22:55Z</time>
      </trkpt>
      <trkpt lat="45.77599" lon="-0.64317">
        <ele>15</ele>
        <time>2021-06-11T22:23:04Z</time>
      </trkpt>
      <trkpt lat="45.77621" lon="-0.64327">
        <ele>15</ele>
        <time>2021-06-11T22:23:08Z</time>
      </trkpt>
      <trkpt lat="45.77643" lon="-0.64344">
        <ele>14</ele>
        <time>2021-06-11T22:23:13Z</time>
      </trkpt>
      <trkpt lat="45.77697" lon="-0.64369">
        <ele>12</ele>
        <time>2021-06-11T22:23:23Z</time>
      </trkpt>
      <trkpt lat="45.77717" lon="-0.64374">
        <ele>11</ele>
        <time>2021-06-11T22:23:26Z</time>
      </trkpt>
      <trkpt lat="45.77735" lon="-0.64373">
        <ele>10</ele>
        <time>2021-06-11T22:23:30Z</time>
      </trkpt>
      <trkpt lat="45.77759" lon="-0.64374">
        <ele>9</ele>
        <time>2021-06-11T22:23:34Z</time>
      </trkpt>
      <trkpt lat="45.77767" lon="-0.64367">
        <ele>10</ele>
        <time>2021-06-11T22:23:36Z</time>
      </trkpt>
      <trkpt lat="45.77775" lon="-0.64344">
        <ele>10</ele>
        <time>2021-06-11T22:23:39Z</time>
      </trkpt>
      <trkpt lat="45.77782" lon="-0.64298">
        <ele>9</ele>
        <time>2021-06-11T22:23:45Z</time>
      </trkpt>
      <trkpt lat="45.77793" lon="-0.64276">
        <ele>8</ele>
        <time>2021-06-11T22:23:48Z</time>
      </trkpt>
      <trkpt lat="45.77807" lon="-0.64262">
        <ele>8</ele>
        <time>2021-06-11T22:23:51Z</time>
      </trkpt>
      <trkpt lat="45.77828" lon="-0.64251">
        <ele>8</ele>
        <time>2021-06-11T22:23:55Z</time>
      </trkpt>
      <trkpt lat="45.77863" lon="-0.64244">
        <ele>8</ele>
        <time>2021-06-11T22:24:01Z</time>
      </trkpt>
      <trkpt lat="45.77876" lon="-0.64246">
        <ele>8</ele>
        <time>2021-06-11T22:24:04Z</time>
      </trkpt>
      <trkpt lat="45.77887" lon="-0.64256">
        <ele>9</ele>
        <time>2021-06-11T22:24:06Z</time>
      </trkpt>
      <trkpt lat="45.77895" lon="-0.64266">
        <ele>9</ele>
        <time>2021-06-11T22:24:08Z</time>
      </trkpt>
      <trkpt lat="45.77913" lon="-0.64301">
        <ele>10</ele>
        <time>2021-06-11T22:24:13Z</time>
      </trkpt>
      <trkpt lat="45.77932" lon="-0.64324">
        <ele>11</ele>
        <time>2021-06-11T22:24:18Z</time>
      </trkpt>
      <trkpt lat="45.77942" lon="-0.64331">
        <ele>12</ele>
        <time>2021-06-11T22:24:20Z</time>
      </trkpt>
      <trkpt lat="45.77963" lon="-0.64337">
        <ele>12</ele>
        <time>2021-06-11T22:24:23Z</time>
      </trkpt>
      <trkpt lat="45.77993" lon="-0.64341">
        <ele>13</ele>
        <time>2021-06-11T22:24:29Z</time>
      </trkpt>
      <trkpt lat="45.78004" lon="-0.64347">
        <ele>13</ele>
        <time>2021-06-11T22:24:31Z</time>
      </trkpt>
      <trkpt lat="45.78013" lon="-0.64355">
        <ele>14</ele>
        <time>2021-06-11T22:24:33Z</time>
      </trkpt>
      <trkpt lat="45.78021" lon="-0.64412">
        <ele>16</ele>
        <time>2021-06-11T22:24:40Z</time>
      </trkpt>
      <trkpt lat="45.78027" lon="-0.64443">
        <ele>17</ele>
        <time>2021-06-11T22:24:44Z</time>
      </trkpt>
      <trkpt lat="45.78031" lon="-0.64487">
        <ele>18</ele>
        <time>2021-06-11T22:24:49Z</time>
      </trkpt>
      <trkpt lat="45.78034" lon="-0.64556">
        <ele>20</ele>
        <time>2021-06-11T22:24:58Z</time>
      </trkpt>
      <trkpt lat="45.78037" lon="-0.64745">
        <ele>22</ele>
        <time>2021-06-11T22:25:22Z</time>
      </trkpt>
      <trkpt lat="45.7804" lon="-0.64778">
        <ele>23</ele>
        <time>2021-06-11T22:25:26Z</time>
      </trkpt>
      <trkpt lat="45.78048" lon="-0.64822">
        <ele>24</ele>
        <time>2021-06-11T22:25:31Z</time>
      </trkpt>
      <trkpt lat="45.78061" lon="-0.64866">
        <ele>25</ele>
        <time>2021-06-11T22:25:37Z</time>
      </trkpt>
      <trkpt lat="45.7807" lon="-0.64916">
        <ele>26</ele>
        <time>2021-06-11T22:25:44Z</time>
      </trkpt>
      <trkpt lat="45.78078" lon="-0.65014">
        <ele>25</ele>
        <time>2021-06-11T22:25:56Z</time>
      </trkpt>
      <trkpt lat="45.78073" lon="-0.65048">
        <ele>24</ele>
        <time>2021-06-11T22:26:00Z</time>
      </trkpt>
      <trkpt lat="45.78062" lon="-0.65092">
        <ele>24</ele>
        <time>2021-06-11T22:26:06Z</time>
      </trkpt>
      <trkpt lat="45.78043" lon="-0.65129">
        <ele>24</ele>
        <time>2021-06-11T22:26:12Z</time>
      </trkpt>
      <trkpt lat="45.78023" lon="-0.65153">
        <ele>24</ele>
        <time>2021-06-11T22:26:16Z</time>
      </trkpt>
      <trkpt lat="45.78007" lon="-0.65174">
        <ele>24</ele>
        <time>2021-06-11T22:26:20Z</time>
      </trkpt>
      <trkpt lat="45.78001" lon="-0.65207">
        <ele>23</ele>
        <time>2021-06-11T22:26:24Z</time>
      </trkpt>
      <trkpt lat="45.78005" lon="-0.65242">
        <ele>23</ele>
        <time>2021-06-11T22:26:29Z</time>
      </trkpt>
      <trkpt lat="45.78014" lon="-0.65294">
        <ele>22</ele>
        <time>2021-06-11T22:26:35Z</time>
      </trkpt>
      <trkpt lat="45.78084" lon="-0.65342">
        <ele>19</ele>
        <time>2021-06-11T22:26:49Z</time>
      </trkpt>
      <trkpt lat="45.78117" lon="-0.65374">
        <ele>20</ele>
        <time>2021-06-11T22:26:56Z</time>
      </trkpt>
      <trkpt lat="45.78154" lon="-0.65416">
        <ele>22</ele>
        <time>2021-06-11T22:27:05Z</time>
      </trkpt>
      <trkpt lat="45.78215" lon="-0.65528">
        <ele>28</ele>
        <time>2021-06-11T22:27:22Z</time>
      </trkpt>
      <trkpt lat="45.78224" lon="-0.65541">
        <ele>28</ele>
        <time>2021-06-11T22:27:25Z</time>
      </trkpt>
      <trkpt lat="45.78245" lon="-0.65561">
        <ele>30</ele>
        <time>2021-06-11T22:27:29Z</time>
      </trkpt>
      <trkpt lat="45.78261" lon="-0.65583">
        <ele>30</ele>
        <time>2021-06-11T22:27:33Z</time>
      </trkpt>
      <trkpt lat="45.78294" lon="-0.65631">
        <ele>33</ele>
        <time>2021-06-11T22:27:41Z</time>
      </trkpt>
      <trkpt lat="45.7831" lon="-0.65648">
        <ele>33</ele>
        <time>2021-06-11T22:27:45Z</time>
      </trkpt>
      <trkpt lat="45.78326" lon="-0.6566">
        <ele>34</ele>
        <time>2021-06-11T22:27:48Z</time>
      </trkpt>
      <trkpt lat="45.7834" lon="-0.65667">
        <ele>34</ele>
        <time>2021-06-11T22:27:51Z</time>
      </trkpt>
      <trkpt lat="45.78425" lon="-0.65684">
        <ele>36</ele>
        <time>2021-06-11T22:28:06Z</time>
      </trkpt>
      <trkpt lat="45.78464" lon="-0.65705">
        <ele>37</ele>
        <time>2021-06-11T22:28:14Z</time>
      </trkpt>
      <trkpt lat="45.78497" lon="-0.65732">
        <ele>38</ele>
        <time>2021-06-11T22:28:20Z</time>
      </trkpt>
      <trkpt lat="45.78537" lon="-0.65758">
        <ele>38</ele>
        <time>2021-06-11T22:28:28Z</time>
      </trkpt>
      <trkpt lat="45.78629" lon="-0.65796">
        <ele>35</ele>
        <time>2021-06-11T22:28:45Z</time>
      </trkpt>
      <trkpt lat="45.78686" lon="-0.65806">
        <ele>34</ele>
        <time>2021-06-11T22:28:55Z</time>
      </trkpt>
      <trkpt lat="45.78755" lon="-0.65815">
        <ele>33</ele>
        <time>2021-06-11T22:29:08Z</time>
      </trkpt>
      <trkpt lat="45.78817" lon="-0.65828">
        <ele>39</ele>
        <time>2021-06-11T22:29:19Z</time>
      </trkpt>
      <trkpt lat="45.78856" lon="-0.65843">
        <ele>42</ele>
        <time>2021-06-11T22:29:26Z</time>
      </trkpt>
      <trkpt lat="45.79013" lon="-0.65859">
        <ele>48</ele>
        <time>2021-06-11T22:29:54Z</time>
      </trkpt>
      <trkpt lat="45.79072" lon="-0.65853">
        <ele>48</ele>
        <time>2021-06-11T22:30:05Z</time>
      </trkpt>
      <trkpt lat="45.79203" lon="-0.65874">
        <ele>44</ele>
        <time>2021-06-11T22:30:28Z</time>
      </trkpt>
      <trkpt lat="45.79213" lon="-0.65874">
        <ele>44</ele>
        <time>2021-06-11T22:30:30Z</time>
      </trkpt>
      <trkpt lat="45.79293" lon="-0.65839">
        <ele>40</ele>
        <time>2021-06-11T22:30:45Z</time>
      </trkpt>
      <trkpt lat="45.79304" lon="-0.65826">
        <ele>39</ele>
        <time>2021-06-11T22:30:47Z</time>
      </trkpt>
      <trkpt lat="45.7934" lon="-0.65745">
        <ele>37</ele>
        <time>2021-06-11T22:30:59Z</time>
      </trkpt>
      <trkpt lat="45.79358" lon="-0.65713">
        <ele>36</ele>
        <time>2021-06-11T22:31:04Z</time>
      </trkpt>
      <trkpt lat="45.79372" lon="-0.65723">
        <ele>36</ele>
        <time>2021-06-11T22:31:07Z</time>
      </trkpt>
      <trkpt lat="45.79385" lon="-0.65728">
        <ele>37</ele>
        <time>2021-06-11T22:31:09Z</time>
      </trkpt>
      <trkpt lat="45.79407" lon="-0.65732">
        <ele>37</ele>
        <time>2021-06-11T22:31:13Z</time>
      </trkpt>
      <trkpt lat="45.79426" lon="-0.65729">
        <ele>38</ele>
        <time>2021-06-11T22:31:17Z</time>
      </trkpt>
      <trkpt lat="45.79444" lon="-0.65722">
        <ele>39</ele>
        <time>2021-06-11T22:31:20Z</time>
      </trkpt>
      <trkpt lat="45.79461" lon="-0.65705">
        <ele>39</ele>
        <time>2021-06-11T22:31:24Z</time>
      </trkpt>
      <trkpt lat="45.79479" lon="-0.6565">
        <ele>39</ele>
        <time>2021-06-11T22:31:31Z</time>
      </trkpt>
      <trkpt lat="45.79486" lon="-0.65597">
        <ele>38</ele>
        <time>2021-06-11T22:31:38Z</time>
      </trkpt>
      <trkpt lat="45.79505" lon="-0.65532">
        <ele>38</ele>
        <time>2021-06-11T22:31:47Z</time>
      </trkpt>
      <trkpt lat="45.79527" lon="-0.65421">
        <ele>35</ele>
        <time>2021-06-11T22:32:01Z</time>
      </trkpt>
      <trkpt lat="45.79533" lon="-0.65373">
        <ele>34</ele>
        <time>2021-06-11T22:32:07Z</time>
      </trkpt>
      <trkpt lat="45.79537" lon="-0.65316">
        <ele>33</ele>
        <time>2021-06-11T22:32:14Z</time>
      </trkpt>
      <trkpt lat="45.79572" lon="-0.65276">
        <ele>31</ele>
        <time>2021-06-11T22:32:22Z</time>
      </trkpt>
      <trkpt lat="45.79585" lon="-0.65269">
        <ele>31</ele>
        <time>2021-06-11T22:32:25Z</time>
      </trkpt>
      <trkpt lat="45.79657" lon="-0.65237">
        <ele>28</ele>
        <time>2021-06-11T22:32:38Z</time>
      </trkpt>
      <trkpt lat="45.79716" lon="-0.65222">
        <ele>25</ele>
        <time>2021-06-11T22:32:49Z</time>
      </trkpt>
      <trkpt lat="45.79738" lon="-0.65212">
        <ele>24</ele>
        <time>2021-06-11T22:32:53Z</time>
      </trkpt>
      <trkpt lat="45.79749" lon="-0.652">
        <ele>24</ele>
        <time>2021-06-11T22:32:55Z</time>
      </trkpt>
      <trkpt lat="45.7976" lon="-0.65176">
        <ele>22</ele>
        <time>2021-06-11T22:32:59Z</time>
      </trkpt>
      <trkpt lat="45.79766" lon="-0.65152">
        <ele>21</ele>
        <time>2021-06-11T22:33:02Z</time>
      </trkpt>
      <trkpt lat="45.79818" lon="-0.64787">
        <ele>12</ele>
        <time>2021-06-11T22:33:48Z</time>
      </trkpt>
      <trkpt lat="45.79789" lon="-0.64992">
        <ele>16</ele>
        <time>2021-06-11T22:34:14Z</time>
      </trkpt>
      <trkpt lat="45.79813" lon="-0.64993">
        <ele>16</ele>
        <time>2021-06-11T22:34:18Z</time>
      </trkpt>
      <trkpt lat="45.7984" lon="-0.64998">
        <ele>16</ele>
        <time>2021-06-11T22:34:23Z</time>
      </trkpt>
      <trkpt lat="45.79962" lon="-0.65035">
        <ele>14</ele>
        <time>2021-06-11T22:34:45Z</time>
      </trkpt>
      <trkpt lat="45.79987" lon="-0.65038">
        <ele>13</ele>
        <time>2021-06-11T22:34:50Z</time>
      </trkpt>
      <trkpt lat="45.80003" lon="-0.65034">
        <ele>12</ele>
        <time>2021-06-11T22:34:53Z</time>
      </trkpt>
      <trkpt lat="45.80016" lon="-0.65027">
        <ele>12</ele>
        <time>2021-06-11T22:34:55Z</time>
      </trkpt>
      <trkpt lat="45.80113" lon="-0.64962">
        <ele>9</ele>
        <time>2021-06-11T22:35:14Z</time>
      </trkpt>
      <trkpt lat="45.80145" lon="-0.64946">
        <ele>9</ele>
        <time>2021-06-11T22:35:20Z</time>
      </trkpt>
      <trkpt lat="45.80128" lon="-0.64834">
        <ele>9</ele>
        <time>2021-06-11T22:35:35Z</time>
      </trkpt>
      <trkpt lat="45.80128" lon="-0.64803">
        <ele>9</ele>
        <time>2021-06-11T22:35:38Z</time>
      </trkpt>
      <trkpt lat="45.80139" lon="-0.6473">
        <ele>9</ele>
        <time>2021-06-11T22:35:48Z</time>
      </trkpt>
      <trkpt lat="45.80139" lon="-0.64705">
        <ele>9</ele>
        <time>2021-06-11T22:35:51Z</time>
      </trkpt>
      <trkpt lat="45.80147" lon="-0.64605">
        <ele>8</ele>
        <time>2021-06-11T22:36:03Z</time>
      </trkpt>
      <trkpt lat="45.80169" lon="-0.64529">
        <ele>7</ele>
        <time>2021-06-11T22:36:13Z</time>
      </trkpt>
      <trkpt lat="45.80169" lon="-0.64517">
        <ele>6</ele>
        <time>2021-06-11T22:36:15Z</time>
      </trkpt>
      <trkpt lat="45.80179" lon="-0.64513">
        <ele>6</ele>
        <time>2021-06-11T22:36:17Z</time>
      </trkpt>
      <trkpt lat="45.80257" lon="-0.64476">
        <ele>3</ele>
        <time>2021-06-11T22:36:31Z</time>
      </trkpt>
      <trkpt lat="45.80283" lon="-0.64468">
        <ele>3</ele>
        <time>2021-06-11T22:36:36Z</time>
      </trkpt>
      <trkpt lat="45.80382" lon="-0.6442">
        <ele>4</ele>
        <time>2021-06-11T22:36:55Z</time>
      </trkpt>
      <trkpt lat="45.80399" lon="-0.64416">
        <ele>5</ele>
        <time>2021-06-11T22:36:58Z</time>
      </trkpt>
      <trkpt lat="45.80477" lon="-0.64416">
        <ele>4</ele>
        <time>2021-06-11T22:37:12Z</time>
      </trkpt>
      <trkpt lat="45.80489" lon="-0.64414">
        <ele>3</ele>
        <time>2021-06-11T22:37:14Z</time>
      </trkpt>
      <trkpt lat="45.80802" lon="-0.64405">
        <ele>3</ele>
        <time>2021-06-11T22:38:10Z</time>
      </trkpt>
      <trkpt lat="45.80811" lon="-0.64406">
        <ele>3</ele>
        <time>2021-06-11T22:38:11Z</time>
      </trkpt>
      <trkpt lat="45.8082" lon="-0.64407">
        <ele>3</ele>
        <time>2021-06-11T22:38:13Z</time>
      </trkpt>
      <trkpt lat="45.80826" lon="-0.64487">
        <ele>5</ele>
        <time>2021-06-11T22:38:23Z</time>
      </trkpt>
      <trkpt lat="45.80837" lon="-0.64499">
        <ele>5</ele>
        <time>2021-06-11T22:38:25Z</time>
      </trkpt>
      <trkpt lat="45.80867" lon="-0.64551">
        <ele>5</ele>
        <time>2021-06-11T22:38:34Z</time>
      </trkpt>
      <trkpt lat="45.8089" lon="-0.64566">
        <ele>4</ele>
        <time>2021-06-11T22:38:38Z</time>
      </trkpt>
      <trkpt lat="45.80921" lon="-0.6457">
        <ele>3</ele>
        <time>2021-06-11T22:38:44Z</time>
      </trkpt>
      <trkpt lat="45.81004" lon="-0.64822">
        <ele>6</ele>
        <time>2021-06-11T22:39:18Z</time>
      </trkpt>
      <trkpt lat="45.81008" lon="-0.64829">
        <ele>6</ele>
        <time>2021-06-11T22:39:19Z</time>
      </trkpt>
      <trkpt lat="45.81017" lon="-0.64818">
        <ele>6</ele>
        <time>2021-06-11T22:39:21Z</time>
      </trkpt>
      <trkpt lat="45.81055" lon="-0.64777">
        <ele>7</ele>
        <time>2021-06-11T22:39:30Z</time>
      </trkpt>
      <trkpt lat="45.81089" lon="-0.64709">
        <ele>8</ele>
        <time>2021-06-11T22:39:40Z</time>
      </trkpt>
      <trkpt lat="45.81118" lon="-0.64668">
        <ele>8</ele>
        <time>2021-06-11T22:39:47Z</time>
      </trkpt>
      <trkpt lat="45.81145" lon="-0.64636">
        <ele>8</ele>
        <time>2021-06-11T22:39:54Z</time>
      </trkpt>
      <trkpt lat="45.8115" lon="-0.64632">
        <ele>8</ele>
        <time>2021-06-11T22:39:55Z</time>
      </trkpt>
      <trkpt lat="45.81152" lon="-0.64607">
        <ele>7</ele>
        <time>2021-06-11T22:39:58Z</time>
      </trkpt>
      <trkpt lat="45.81169" lon="-0.64508">
        <ele>4</ele>
        <time>2021-06-11T22:40:11Z</time>
      </trkpt>
      <trkpt lat="45.81225" lon="-0.64525">
        <ele>4</ele>
        <time>2021-06-11T22:40:21Z</time>
      </trkpt>
      <trkpt lat="45.8125" lon="-0.64535">
        <ele>5</ele>
        <time>2021-06-11T22:40:25Z</time>
      </trkpt>
      <trkpt lat="45.81308" lon="-0.64552">
        <ele>5</ele>
        <time>2021-06-11T22:40:36Z</time>
      </trkpt>
      <trkpt lat="45.81341" lon="-0.6456">
        <ele>4</ele>
        <time>2021-06-11T22:40:42Z</time>
      </trkpt>
      <trkpt lat="45.81401" lon="-0.64579">
        <ele>3</ele>
        <time>2021-06-11T22:40:53Z</time>
      </trkpt>
      <trkpt lat="45.81473" lon="-0.64589">
        <ele>4</ele>
        <time>2021-06-11T22:41:06Z</time>
      </trkpt>
      <trkpt lat="45.81519" lon="-0.646">
        <ele>4</ele>
        <time>2021-06-11T22:41:14Z</time>
      </trkpt>
      <trkpt lat="45.81666" lon="-0.64662">
        <ele>3</ele>
        <time>2021-06-11T22:41:41Z</time>
      </trkpt>
      <trkpt lat="45.81734" lon="-0.64697">
        <ele>4</ele>
        <time>2021-06-11T22:41:54Z</time>
      </trkpt>
      <trkpt lat="45.81795" lon="-0.64721">
        <ele>3</ele>
        <time>2021-06-11T22:42:05Z</time>
      </trkpt>
      <trkpt lat="45.81834" lon="-0.64744">
        <ele>3</ele>
        <time>2021-06-11T22:42:13Z</time>
      </trkpt>
      <trkpt lat="45.81871" lon="-0.64775">
        <ele>3</ele>
        <time>2021-06-11T22:42:20Z</time>
      </trkpt>
      <trkpt lat="45.81896" lon="-0.64802">
        <ele>4</ele>
        <time>2021-06-11T22:42:26Z</time>
      </trkpt>
      <trkpt lat="45.81946" lon="-0.64661">
        <ele>3</ele>
        <time>2021-06-11T22:42:46Z</time>
      </trkpt>
      <trkpt lat="45.82052" lon="-0.64675">
        <ele>4</ele>
        <time>2021-06-11T22:43:05Z</time>
      </trkpt>
      <trkpt lat="45.82062" lon="-0.64679">
        <ele>4</ele>
        <time>2021-06-11T22:43:06Z</time>
      </trkpt>
      <trkpt lat="45.82097" lon="-0.64731">
        <ele>3</ele>
        <time>2021-06-11T22:43:15Z</time>
      </trkpt>
      <trkpt lat="45.82193" lon="-0.64732">
        <ele>2</ele>
        <time>2021-06-11T22:43:32Z</time>
      </trkpt>
      <trkpt lat="45.82223" lon="-0.64612">
        <ele>3</ele>
        <time>2021-06-11T22:43:48Z</time>
      </trkpt>
      <trkpt lat="45.82925" lon="-0.65404">
        <ele>2</ele>
        <time>2021-06-11T22:46:27Z</time>
      </trkpt>
      <trkpt lat="45.8302" lon="-0.65565">
        <ele>2</ele>
        <time>2021-06-11T22:46:53Z</time>
      </trkpt>
      <trkpt lat="45.83157" lon="-0.65798">
        <ele>2</ele>
        <time>2021-06-11T22:47:31Z</time>
      </trkpt>
      <trkpt lat="45.8316" lon="-0.65802">
        <ele>2</ele>
        <time>2021-06-11T22:47:32Z</time>
      </trkpt>
      <trkpt lat="45.83285" lon="-0.66025">
        <ele>1</ele>
        <time>2021-06-11T22:48:07Z</time>
      </trkpt>
      <trkpt lat="45.8333" lon="-0.66099">
        <ele>2</ele>
        <time>2021-06-11T22:48:19Z</time>
      </trkpt>
      <trkpt lat="45.83341" lon="-0.66118">
        <ele>2</ele>
        <time>2021-06-11T22:48:23Z</time>
      </trkpt>
      <trkpt lat="45.83418" lon="-0.66256">
        <ele>1</ele>
        <time>2021-06-11T22:48:44Z</time>
      </trkpt>
      <trkpt lat="45.83661" lon="-0.66676">
        <ele>1</ele>
        <time>2021-06-11T22:49:52Z</time>
      </trkpt>
      <trkpt lat="45.83688" lon="-0.66721">
        <ele>2</ele>
        <time>2021-06-11T22:49:59Z</time>
      </trkpt>
      <trkpt lat="45.83641" lon="-0.66902">
        <ele>3</ele>
        <time>2021-06-11T22:50:23Z</time>
      </trkpt>
      <trkpt lat="45.83552" lon="-0.67254">
        <ele>3</ele>
        <time>2021-06-11T22:51:10Z</time>
      </trkpt>
      <trkpt lat="45.83529" lon="-0.67336">
        <ele>5</ele>
        <time>2021-06-11T22:51:21Z</time>
      </trkpt>
      <trkpt lat="45.83526" lon="-0.67351">
        <ele>5</ele>
        <time>2021-06-11T22:51:23Z</time>
      </trkpt>
      <trkpt lat="45.83521" lon="-0.67399">
        <ele>4</ele>
        <time>2021-06-11T22:51:29Z</time>
      </trkpt>
      <trkpt lat="45.83517" lon="-0.6741">
        <ele>4</ele>
        <time>2021-06-11T22:51:30Z</time>
      </trkpt>
      <trkpt lat="45.83514" lon="-0.67417">
        <ele>4</ele>
        <time>2021-06-11T22:51:31Z</time>
      </trkpt>
      <trkpt lat="45.83507" lon="-0.67424">
        <ele>4</ele>
        <time>2021-06-11T22:51:33Z</time>
      </trkpt>
      <trkpt lat="45.83451" lon="-0.67501">
        <ele>4</ele>
        <time>2021-06-11T22:51:47Z</time>
      </trkpt>
      <trkpt lat="45.83436" lon="-0.67521">
        <ele>4</ele>
        <time>2021-06-11T22:51:50Z</time>
      </trkpt>
      <trkpt lat="45.83428" lon="-0.67532">
        <ele>4</ele>
        <time>2021-06-11T22:51:52Z</time>
      </trkpt>
      <trkpt lat="45.83413" lon="-0.67554">
        <ele>5</ele>
        <time>2021-06-11T22:51:56Z</time>
      </trkpt>
      <trkpt lat="45.83401" lon="-0.67571">
        <ele>6</ele>
        <time>2021-06-11T22:51:59Z</time>
      </trkpt>
      <trkpt lat="45.83376" lon="-0.67604">
        <ele>7</ele>
        <time>2021-06-11T22:52:05Z</time>
      </trkpt>
      <trkpt lat="45.83353" lon="-0.67628">
        <ele>9</ele>
        <time>2021-06-11T22:52:10Z</time>
      </trkpt>
      <trkpt lat="45.83327" lon="-0.67652">
        <ele>10</ele>
        <time>2021-06-11T22:52:16Z</time>
      </trkpt>
      <trkpt lat="45.83343" lon="-0.67699">
        <ele>9</ele>
        <time>2021-06-11T22:52:22Z</time>
      </trkpt>
      <trkpt lat="45.83346" lon="-0.67706">
        <ele>9</ele>
        <time>2021-06-11T22:52:23Z</time>
      </trkpt>
      <trkpt lat="45.83352" lon="-0.6772">
        <ele>8</ele>
        <time>2021-06-11T22:52:25Z</time>
      </trkpt>
      <trkpt lat="45.8336" lon="-0.67737">
        <ele>8</ele>
        <time>2021-06-11T22:52:28Z</time>
      </trkpt>
      <trkpt lat="45.83376" lon="-0.67753">
        <ele>7</ele>
        <time>2021-06-11T22:52:31Z</time>
      </trkpt>
      <trkpt lat="45.83383" lon="-0.67761">
        <ele>7</ele>
        <time>2021-06-11T22:52:33Z</time>
      </trkpt>
      <trkpt lat="45.83389" lon="-0.67766">
        <ele>7</ele>
        <time>2021-06-11T22:52:34Z</time>
      </trkpt>
      <trkpt lat="45.83398" lon="-0.67776">
        <ele>7</ele>
        <time>2021-06-11T22:52:36Z</time>
      </trkpt>
      <trkpt lat="45.83401" lon="-0.67779">
        <ele>7</ele>
        <time>2021-06-11T22:52:37Z</time>
      </trkpt>
      <trkpt lat="45.83401" lon="-0.6778">
        <ele>7</ele>
        <time>2021-06-11T22:52:37Z</time>
      </trkpt>
      <trkpt lat="45.83406" lon="-0.67788">
        <ele>7</ele>
        <time>2021-06-11T22:52:38Z</time>
      </trkpt>
      <trkpt lat="45.83407" lon="-0.67791">
        <ele>8</ele>
        <time>2021-06-11T22:52:39Z</time>
      </trkpt>
      <trkpt lat="45.83418" lon="-0.67807">
        <ele>8</ele>
        <time>2021-06-11T22:52:41Z</time>
      </trkpt>
      <trkpt lat="45.83464" lon="-0.67859">
        <ele>9</ele>
        <time>2021-06-11T22:52:52Z</time>
      </trkpt>
      <trkpt lat="45.83483" lon="-0.67879">
        <ele>9</ele>
        <time>2021-06-11T22:52:56Z</time>
      </trkpt>
      <trkpt lat="45.83486" lon="-0.67883">
        <ele>9</ele>
        <time>2021-06-11T22:52:57Z</time>
      </trkpt>
      <trkpt lat="45.83498" lon="-0.67898">
        <ele>9</ele>
        <time>2021-06-11T22:53:00Z</time>
      </trkpt>
      <trkpt lat="45.83517" lon="-0.67922">
        <ele>9</ele>
        <time>2021-06-11T22:53:04Z</time>
      </trkpt>
      <trkpt lat="45.83545" lon="-0.67959">
        <ele>10</ele>
        <time>2021-06-11T22:53:11Z</time>
      </trkpt>
      <trkpt lat="45.8357" lon="-0.67978">
        <ele>10</ele>
        <time>2021-06-11T22:53:16Z</time>
      </trkpt>
      <trkpt lat="45.83587" lon="-0.67988">
        <ele>10</ele>
        <time>2021-06-11T22:53:19Z</time>
      </trkpt>
      <trkpt lat="45.83595" lon="-0.67992">
        <ele>10</ele>
        <time>2021-06-11T22:53:21Z</time>
      </trkpt>
      <trkpt lat="45.83599" lon="-0.67993">
        <ele>10</ele>
        <time>2021-06-11T22:53:21Z</time>
      </trkpt>
      <trkpt lat="45.83611" lon="-0.68001">
        <ele>10</ele>
        <time>2021-06-11T22:53:24Z</time>
      </trkpt>
      <trkpt lat="45.83652" lon="-0.68047">
        <ele>11</ele>
        <time>2021-06-11T22:53:33Z</time>
      </trkpt>
      <trkpt lat="45.83698" lon="-0.68091">
        <ele>12</ele>
        <time>2021-06-11T22:53:43Z</time>
      </trkpt>
      <trkpt lat="45.8375" lon="-0.68142">
        <ele>11</ele>
        <time>2021-06-11T22:53:54Z</time>
      </trkpt>
      <trkpt lat="45.8376" lon="-0.68151">
        <ele>11</ele>
        <time>2021-06-11T22:53:56Z</time>
      </trkpt>
      <trkpt lat="45.83767" lon="-0.68156">
        <ele>11</ele>
        <time>2021-06-11T22:53:57Z</time>
      </trkpt>
      <trkpt lat="45.8384" lon="-0.68197">
        <ele>12</ele>
        <time>2021-06-11T22:54:11Z</time>
      </trkpt>
      <trkpt lat="45.83861" lon="-0.68212">
        <ele>12</ele>
        <time>2021-06-11T22:54:16Z</time>
      </trkpt>
      <trkpt lat="45.83882" lon="-0.6823">
        <ele>12</ele>
        <time>2021-06-11T22:54:20Z</time>
      </trkpt>
      <trkpt lat="45.83904" lon="-0.68249">
        <ele>12</ele>
        <time>2021-06-11T22:54:25Z</time>
      </trkpt>
      <trkpt lat="45.83917" lon="-0.68261">
        <ele>12</ele>
        <time>2021-06-11T22:54:27Z</time>
      </trkpt>
      <trkpt lat="45.83933" lon="-0.68276">
        <ele>12</ele>
        <time>2021-06-11T22:54:31Z</time>
      </trkpt>
      <trkpt lat="45.83938" lon="-0.68281">
        <ele>12</ele>
        <time>2021-06-11T22:54:32Z</time>
      </trkpt>
      <trkpt lat="45.83939" lon="-0.68285">
        <ele>12</ele>
        <time>2021-06-11T22:54:32Z</time>
      </trkpt>
      <trkpt lat="45.83939" lon="-0.68293">
        <ele>12</ele>
        <time>2021-06-11T22:54:33Z</time>
      </trkpt>
      <trkpt lat="45.83937" lon="-0.68297">
        <ele>13</ele>
        <time>2021-06-11T22:54:34Z</time>
      </trkpt>
      <trkpt lat="45.83922" lon="-0.68339">
        <ele>15</ele>
        <time>2021-06-11T22:54:40Z</time>
      </trkpt>
      <trkpt lat="45.83919" lon="-0.68348">
        <ele>15</ele>
        <time>2021-06-11T22:54:41Z</time>
      </trkpt>
      <trkpt lat="45.83887" lon="-0.68443">
        <ele>17</ele>
        <time>2021-06-11T22:54:54Z</time>
      </trkpt>
      <trkpt lat="45.83881" lon="-0.68475">
        <ele>17</ele>
        <time>2021-06-11T22:54:58Z</time>
      </trkpt>
      <trkpt lat="45.83879" lon="-0.68549">
        <ele>18</ele>
        <time>2021-06-11T22:55:07Z</time>
      </trkpt>
      <trkpt lat="45.839" lon="-0.68569">
        <ele>17</ele>
        <time>2021-06-11T22:55:12Z</time>
      </trkpt>
      <trkpt lat="45.83903" lon="-0.68571">
        <ele>17</ele>
        <time>2021-06-11T22:55:12Z</time>
      </trkpt>
      <trkpt lat="45.8392" lon="-0.68596">
        <ele>17</ele>
        <time>2021-06-11T22:55:17Z</time>
      </trkpt>
      <trkpt lat="45.83949" lon="-0.68649">
        <ele>17</ele>
        <time>2021-06-11T22:55:25Z</time>
      </trkpt>
      <trkpt lat="45.83986" lon="-0.6871">
        <ele>15</ele>
        <time>2021-06-11T22:55:35Z</time>
      </trkpt>
      <trkpt lat="45.84088" lon="-0.68831">
        <ele>9</ele>
        <time>2021-06-11T22:55:59Z</time>
      </trkpt>
      <trkpt lat="45.84163" lon="-0.68923">
        <ele>7</ele>
        <time>2021-06-11T22:56:16Z</time>
      </trkpt>
      <trkpt lat="45.84213" lon="-0.68989">
        <ele>6</ele>
        <time>2021-06-11T22:56:28Z</time>
      </trkpt>
      <trkpt lat="45.84233" lon="-0.69012">
        <ele>6</ele>
        <time>2021-06-11T22:56:33Z</time>
      </trkpt>
      <trkpt lat="45.8424" lon="-0.69021">
        <ele>6</ele>
        <time>2021-06-11T22:56:35Z</time>
      </trkpt>
      <trkpt lat="45.84259" lon="-0.69045">
        <ele>7</ele>
        <time>2021-06-11T22:56:39Z</time>
      </trkpt>
      <trkpt lat="45.84298" lon="-0.69119">
        <ele>10</ele>
        <time>2021-06-11T22:56:51Z</time>
      </trkpt>
      <trkpt lat="45.84299" lon="-0.69122">
        <ele>10</ele>
        <time>2021-06-11T22:56:51Z</time>
      </trkpt>
      <trkpt lat="45.84306" lon="-0.69137">
        <ele>10</ele>
        <time>2021-06-11T22:56:53Z</time>
      </trkpt>
      <trkpt lat="45.84309" lon="-0.69143">
        <ele>10</ele>
        <time>2021-06-11T22:56:54Z</time>
      </trkpt>
      <trkpt lat="45.84315" lon="-0.69155">
        <ele>9</ele>
        <time>2021-06-11T22:56:56Z</time>
      </trkpt>
      <trkpt lat="45.84367" lon="-0.69294">
        <ele>8</ele>
        <time>2021-06-11T22:57:16Z</time>
      </trkpt>
      <trkpt lat="45.84422" lon="-0.6945">
        <ele>11</ele>
        <time>2021-06-11T22:57:37Z</time>
      </trkpt>
      <trkpt lat="45.84456" lon="-0.69545">
        <ele>13</ele>
        <time>2021-06-11T22:57:50Z</time>
      </trkpt>
      <trkpt lat="45.84467" lon="-0.69532">
        <ele>13</ele>
        <time>2021-06-11T22:57:53Z</time>
      </trkpt>
      <trkpt lat="45.84536" lon="-0.69469">
        <ele>10</ele>
        <time>2021-06-11T22:58:07Z</time>
      </trkpt>
      <trkpt lat="45.84546" lon="-0.69459">
        <ele>9</ele>
        <time>2021-06-11T22:58:10Z</time>
      </trkpt>
      <trkpt lat="45.84552" lon="-0.69448">
        <ele>9</ele>
        <time>2021-06-11T22:58:11Z</time>
      </trkpt>
      <trkpt lat="45.84553" lon="-0.69431">
        <ele>8</ele>
        <time>2021-06-11T22:58:14Z</time>
      </trkpt>
      <trkpt lat="45.84547" lon="-0.6941">
        <ele>8</ele>
        <time>2021-06-11T22:58:16Z</time>
      </trkpt>
      <trkpt lat="45.84541" lon="-0.69382">
        <ele>8</ele>
        <time>2021-06-11T22:58:20Z</time>
      </trkpt>
      <trkpt lat="45.8454" lon="-0.69355">
        <ele>7</ele>
        <time>2021-06-11T22:58:23Z</time>
      </trkpt>
      <trkpt lat="45.84541" lon="-0.69342">
        <ele>7</ele>
        <time>2021-06-11T22:58:25Z</time>
      </trkpt>
      <trkpt lat="45.84544" lon="-0.69327">
        <ele>6</ele>
        <time>2021-06-11T22:58:27Z</time>
      </trkpt>
      <trkpt lat="45.84553" lon="-0.69316">
        <ele>5</ele>
        <time>2021-06-11T22:58:29Z</time>
      </trkpt>
      <trkpt lat="45.84573" lon="-0.69306">
        <ele>4</ele>
        <time>2021-06-11T22:58:33Z</time>
      </trkpt>
      <trkpt lat="45.84617" lon="-0.69277">
        <ele>3</ele>
        <time>2021-06-11T22:58:41Z</time>
      </trkpt>
      <trkpt lat="45.84638" lon="-0.69262">
        <ele>3</ele>
        <time>2021-06-11T22:58:46Z</time>
      </trkpt>
      <trkpt lat="45.84645" lon="-0.69281">
        <ele>3</ele>
        <time>2021-06-11T22:58:48Z</time>
      </trkpt>
      <trkpt lat="45.84684" lon="-0.69356">
        <ele>3</ele>
        <time>2021-06-11T22:59:00Z</time>
      </trkpt>
      <trkpt lat="45.84731" lon="-0.69482">
        <ele>3</ele>
        <time>2021-06-11T22:59:18Z</time>
      </trkpt>
      <trkpt lat="45.84736" lon="-0.69487">
        <ele>3</ele>
        <time>2021-06-11T22:59:19Z</time>
      </trkpt>
      <trkpt lat="45.84745" lon="-0.69483">
        <ele>3</ele>
        <time>2021-06-11T22:59:20Z</time>
      </trkpt>
      <trkpt lat="45.84984" lon="-0.69255">
        <ele>2</ele>
        <time>2021-06-11T23:00:11Z</time>
      </trkpt>
      <trkpt lat="45.85075" lon="-0.69475">
        <ele>2</ele>
        <time>2021-06-11T23:00:43Z</time>
      </trkpt>
      <trkpt lat="45.85178" lon="-0.697">
        <ele>2</ele>
        <time>2021-06-11T23:01:16Z</time>
      </trkpt>
      <trkpt lat="45.85038" lon="-0.69844">
        <ele>4</ele>
        <time>2021-06-11T23:01:47Z</time>
      </trkpt>
      <trkpt lat="45.85018" lon="-0.69869">
        <ele>3</ele>
        <time>2021-06-11T23:01:52Z</time>
      </trkpt>
      <trkpt lat="45.8498" lon="-0.69923">
        <ele>1</ele>
        <time>2021-06-11T23:02:01Z</time>
      </trkpt>
      <trkpt lat="45.84925" lon="-0.70013">
        <ele>3</ele>
        <time>2021-06-11T23:02:16Z</time>
      </trkpt>
      <trkpt lat="45.84919" lon="-0.70025">
        <ele>3</ele>
        <time>2021-06-11T23:02:18Z</time>
      </trkpt>
      <trkpt lat="45.84917" lon="-0.70036">
        <ele>3</ele>
        <time>2021-06-11T23:02:19Z</time>
      </trkpt>
      <trkpt lat="45.8492" lon="-0.70057">
        <ele>4</ele>
        <time>2021-06-11T23:02:22Z</time>
      </trkpt>
      <trkpt lat="45.84936" lon="-0.70119">
        <ele>5</ele>
        <time>2021-06-11T23:02:30Z</time>
      </trkpt>
      <trkpt lat="45.84942" lon="-0.70146">
        <ele>6</ele>
        <time>2021-06-11T23:02:34Z</time>
      </trkpt>
      <trkpt lat="45.84946" lon="-0.70168">
        <ele>6</ele>
        <time>2021-06-11T23:02:37Z</time>
      </trkpt>
      <trkpt lat="45.84946" lon="-0.70186">
        <ele>7</ele>
        <time>2021-06-11T23:02:39Z</time>
      </trkpt>
      <trkpt lat="45.84943" lon="-0.70193">
        <ele>7</ele>
        <time>2021-06-11T23:02:40Z</time>
      </trkpt>
      <trkpt lat="45.84913" lon="-0.7025">
        <ele>11</ele>
        <time>2021-06-11T23:02:49Z</time>
      </trkpt>
      <trkpt lat="45.84902" lon="-0.70274">
        <ele>12</ele>
        <time>2021-06-11T23:02:52Z</time>
      </trkpt>
      <trkpt lat="45.849" lon="-0.70284">
        <ele>13</ele>
        <time>2021-06-11T23:02:53Z</time>
      </trkpt>
      <trkpt lat="45.84903" lon="-0.70284">
        <ele>13</ele>
        <time>2021-06-11T23:02:54Z</time>
      </trkpt>
      <trkpt lat="45.84908" lon="-0.70288">
        <ele>13</ele>
        <time>2021-06-11T23:02:55Z</time>
      </trkpt>
      <trkpt lat="45.84953" lon="-0.70376">
        <ele>15</ele>
        <time>2021-06-11T23:03:09Z</time>
      </trkpt>
      <trkpt lat="45.84959" lon="-0.70381">
        <ele>15</ele>
        <time>2021-06-11T23:03:10Z</time>
      </trkpt>
      <trkpt lat="45.84965" lon="-0.70373">
        <ele>14</ele>
        <time>2021-06-11T23:03:11Z</time>
      </trkpt>
      <trkpt lat="45.8499" lon="-0.70405">
        <ele>15</ele>
        <time>2021-06-11T23:03:17Z</time>
      </trkpt>
      <trkpt lat="45.85" lon="-0.70431">
        <ele>15</ele>
        <time>2021-06-11T23:03:21Z</time>
      </trkpt>
      <trkpt lat="45.85007" lon="-0.70458">
        <ele>16</ele>
        <time>2021-06-11T23:03:24Z</time>
      </trkpt>
      <trkpt lat="45.8501" lon="-0.70484">
        <ele>16</ele>
        <time>2021-06-11T23:03:28Z</time>
      </trkpt>
      <trkpt lat="45.85009" lon="-0.70528">
        <ele>17</ele>
        <time>2021-06-11T23:03:33Z</time>
      </trkpt>
      <trkpt lat="45.85012" lon="-0.70567">
        <ele>17</ele>
        <time>2021-06-11T23:03:38Z</time>
      </trkpt>
      <trkpt lat="45.85085" lon="-0.70472">
        <ele>14</ele>
        <time>2021-06-11T23:03:56Z</time>
      </trkpt>
      <trkpt lat="45.85096" lon="-0.70484">
        <ele>14</ele>
        <time>2021-06-11T23:03:58Z</time>
      </trkpt>
      <trkpt lat="45.85132" lon="-0.70537">
        <ele>12</ele>
        <time>2021-06-11T23:04:07Z</time>
      </trkpt>
      <trkpt lat="45.85167" lon="-0.70566">
        <ele>11</ele>
        <time>2021-06-11T23:04:14Z</time>
      </trkpt>
      <trkpt lat="45.85229" lon="-0.70675">
        <ele>9</ele>
        <time>2021-06-11T23:04:32Z</time>
      </trkpt>
      <trkpt lat="45.85255" lon="-0.70654">
        <ele>7</ele>
        <time>2021-06-11T23:04:37Z</time>
      </trkpt>
      <trkpt lat="45.85296" lon="-0.70611">
        <ele>5</ele>
        <time>2021-06-11T23:04:46Z</time>
      </trkpt>
      <trkpt lat="45.8539" lon="-0.70752">
        <ele>4</ele>
        <time>2021-06-11T23:05:10Z</time>
      </trkpt>
      <trkpt lat="45.85411" lon="-0.70779">
        <ele>4</ele>
        <time>2021-06-11T23:05:15Z</time>
      </trkpt>
      <trkpt lat="45.85434" lon="-0.70847">
        <ele>4</ele>
        <time>2021-06-11T23:05:25Z</time>
      </trkpt>
      <trkpt lat="45.85477" lon="-0.70924">
        <ele>6</ele>
        <time>2021-06-11T23:05:37Z</time>
      </trkpt>
      <trkpt lat="45.85617" lon="-0.71168">
        <ele>4</ele>
        <time>2021-06-11T23:06:16Z</time>
      </trkpt>
      <trkpt lat="45.85624" lon="-0.71184">
        <ele>4</ele>
        <time>2021-06-11T23:06:19Z</time>
      </trkpt>
      <trkpt lat="45.85643" lon="-0.71201">
        <ele>3</ele>
        <time>2021-06-11T23:06:22Z</time>
      </trkpt>
      <trkpt lat="45.85751" lon="-0.7124">
        <ele>1</ele>
        <time>2021-06-11T23:06:42Z</time>
      </trkpt>
      <trkpt lat="45.8576" lon="-0.71248">
        <ele>1</ele>
        <time>2021-06-11T23:06:44Z</time>
      </trkpt>
      <trkpt lat="45.85767" lon="-0.71265">
        <ele>1</ele>
        <time>2021-06-11T23:06:47Z</time>
      </trkpt>
      <trkpt lat="45.85791" lon="-0.71361">
        <ele>2</ele>
        <time>2021-06-11T23:06:59Z</time>
      </trkpt>
      <trkpt lat="45.85819" lon="-0.71391">
        <ele>2</ele>
        <time>2021-06-11T23:07:05Z</time>
      </trkpt>
      <trkpt lat="45.85824" lon="-0.71405">
        <ele>2</ele>
        <time>2021-06-11T23:07:07Z</time>
      </trkpt>
      <trkpt lat="45.85827" lon="-0.71423">
        <ele>2</ele>
        <time>2021-06-11T23:07:10Z</time>
      </trkpt>
      <trkpt lat="45.8583" lon="-0.71497">
        <ele>2</ele>
        <time>2021-06-11T23:07:19Z</time>
      </trkpt>
      <trkpt lat="45.85838" lon="-0.71524">
        <ele>3</ele>
        <time>2021-06-11T23:07:23Z</time>
      </trkpt>
      <trkpt lat="45.85907" lon="-0.71472">
        <ele>1</ele>
        <time>2021-06-11T23:07:36Z</time>
      </trkpt>
      <trkpt lat="45.86082" lon="-0.7135">
        <ele>3</ele>
        <time>2021-06-11T23:08:11Z</time>
      </trkpt>
      <trkpt lat="45.86103" lon="-0.71335">
        <ele>3</ele>
        <time>2021-06-11T23:08:15Z</time>
      </trkpt>
      <trkpt lat="45.86115" lon="-0.71326">
        <ele>3</ele>
        <time>2021-06-11T23:08:18Z</time>
      </trkpt>
      <trkpt lat="45.86119" lon="-0.71324">
        <ele>3</ele>
        <time>2021-06-11T23:08:18Z</time>
      </trkpt>
      <trkpt lat="45.86869" lon="-0.70852">
        <ele>4</ele>
        <time>2021-06-11T23:10:44Z</time>
      </trkpt>
      <trkpt lat="45.86896" lon="-0.70862">
        <ele>4</ele>
        <time>2021-06-11T23:10:49Z</time>
      </trkpt>
      <trkpt lat="45.8692" lon="-0.70858">
        <ele>4</ele>
        <time>2021-06-11T23:10:53Z</time>
      </trkpt>
      <trkpt lat="45.86936" lon="-0.70845">
        <ele>4</ele>
        <time>2021-06-11T23:10:57Z</time>
      </trkpt>
      <trkpt lat="45.86996" lon="-0.7078">
        <ele>7</ele>
        <time>2021-06-11T23:11:10Z</time>
      </trkpt>
      <trkpt lat="45.87019" lon="-0.70757">
        <ele>7</ele>
        <time>2021-06-11T23:11:15Z</time>
      </trkpt>
      <trkpt lat="45.87026" lon="-0.70753">
        <ele>7</ele>
        <time>2021-06-11T23:11:16Z</time>
      </trkpt>
      <trkpt lat="45.87033" lon="-0.70753">
        <ele>7</ele>
        <time>2021-06-11T23:11:18Z</time>
      </trkpt>
      <trkpt lat="45.8704" lon="-0.70757">
        <ele>6</ele>
        <time>2021-06-11T23:11:19Z</time>
      </trkpt>
      <trkpt lat="45.87121" lon="-0.70863">
        <ele>5</ele>
        <time>2021-06-11T23:11:38Z</time>
      </trkpt>
      <trkpt lat="45.87148" lon="-0.70911">
        <ele>4</ele>
        <time>2021-06-11T23:11:46Z</time>
      </trkpt>
      <trkpt lat="45.87162" lon="-0.7093">
        <ele>4</ele>
        <time>2021-06-11T23:11:49Z</time>
      </trkpt>
      <trkpt lat="45.87196" lon="-0.70963">
        <ele>4</ele>
        <time>2021-06-11T23:11:57Z</time>
      </trkpt>
      <trkpt lat="45.87195" lon="-0.70974">
        <ele>4</ele>
        <time>2021-06-11T23:11:58Z</time>
      </trkpt>
      <trkpt lat="45.8719" lon="-0.70981">
        <ele>4</ele>
        <time>2021-06-11T23:11:59Z</time>
      </trkpt>
      <trkpt lat="45.87122" lon="-0.71044">
        <ele>3</ele>
        <time>2021-06-11T23:12:14Z</time>
      </trkpt>
      <trkpt lat="45.87115" lon="-0.7105">
        <ele>3</ele>
        <time>2021-06-11T23:12:15Z</time>
      </trkpt>
      <trkpt lat="45.87111" lon="-0.71057">
        <ele>3</ele>
        <time>2021-06-11T23:12:16Z</time>
      </trkpt>
      <trkpt lat="45.87195" lon="-0.71181">
        <ele>4</ele>
        <time>2021-06-11T23:12:38Z</time>
      </trkpt>
      <trkpt lat="45.87198" lon="-0.71193">
        <ele>4</ele>
        <time>2021-06-11T23:12:39Z</time>
      </trkpt>
      <trkpt lat="45.87154" lon="-0.71324">
        <ele>3</ele>
        <time>2021-06-11T23:12:57Z</time>
      </trkpt>
      <trkpt lat="45.87145" lon="-0.7133">
        <ele>3</ele>
        <time>2021-06-11T23:12:59Z</time>
      </trkpt>
      <trkpt lat="45.87135" lon="-0.71334">
        <ele>3</ele>
        <time>2021-06-11T23:13:01Z</time>
      </trkpt>
      <trkpt lat="45.87124" lon="-0.71331">
        <ele>3</ele>
        <time>2021-06-11T23:13:03Z</time>
      </trkpt>
      <trkpt lat="45.87111" lon="-0.7132">
        <ele>3</ele>
        <time>2021-06-11T23:13:06Z</time>
      </trkpt>
      <trkpt lat="45.87094" lon="-0.71311">
        <ele>3</ele>
        <time>2021-06-11T23:13:09Z</time>
      </trkpt>
      <trkpt lat="45.8708" lon="-0.71311">
        <ele>3</ele>
        <time>2021-06-11T23:13:11Z</time>
      </trkpt>
      <trkpt lat="45.87003" lon="-0.71338">
        <ele>3</ele>
        <time>2021-06-11T23:13:25Z</time>
      </trkpt>
      <trkpt lat="45.86989" lon="-0.7135">
        <ele>3</ele>
        <time>2021-06-11T23:13:28Z</time>
      </trkpt>
      <trkpt lat="45.86953" lon="-0.71396">
        <ele>3</ele>
        <time>2021-06-11T23:13:37Z</time>
      </trkpt>
      <trkpt lat="45.86911" lon="-0.71429">
        <ele>3</ele>
        <time>2021-06-11T23:13:45Z</time>
      </trkpt>
      <trkpt lat="45.86895" lon="-0.7145">
        <ele>3</ele>
        <time>2021-06-11T23:13:49Z</time>
      </trkpt>
      <trkpt lat="45.86845" lon="-0.71527">
        <ele>3</ele>
        <time>2021-06-11T23:14:02Z</time>
      </trkpt>
      <trkpt lat="45.86834" lon="-0.71557">
        <ele>3</ele>
        <time>2021-06-11T23:14:07Z</time>
      </trkpt>
      <trkpt lat="45.86831" lon="-0.71584">
        <ele>3</ele>
        <time>2021-06-11T23:14:10Z</time>
      </trkpt>
      <trkpt lat="45.8683" lon="-0.71608">
        <ele>3</ele>
        <time>2021-06-11T23:14:13Z</time>
      </trkpt>
      <trkpt lat="45.86862" lon="-0.71735">
        <ele>3</ele>
        <time>2021-06-11T23:14:30Z</time>
      </trkpt>
      <trkpt lat="45.86865" lon="-0.71759">
        <ele>3</ele>
        <time>2021-06-11T23:14:33Z</time>
      </trkpt>
      <trkpt lat="45.8686" lon="-0.71782">
        <ele>4</ele>
        <time>2021-06-11T23:14:36Z</time>
      </trkpt>
      <trkpt lat="45.86855" lon="-0.71787">
        <ele>4</ele>
        <time>2021-06-11T23:14:37Z</time>
      </trkpt>
      <trkpt lat="45.86848" lon="-0.71794">
        <ele>4</ele>
        <time>2021-06-11T23:14:38Z</time>
      </trkpt>
      <trkpt lat="45.86726" lon="-0.71775">
        <ele>4</ele>
        <time>2021-06-11T23:15:00Z</time>
      </trkpt>
      <trkpt lat="45.86684" lon="-0.71777">
        <ele>4</ele>
        <time>2021-06-11T23:15:08Z</time>
      </trkpt>
      <trkpt lat="45.86654" lon="-0.71798">
        <ele>4</ele>
        <time>2021-06-11T23:15:14Z</time>
      </trkpt>
      <trkpt lat="45.86609" lon="-0.71866">
        <ele>4</ele>
        <time>2021-06-11T23:15:25Z</time>
      </trkpt>
      <trkpt lat="45.86593" lon="-0.71913">
        <ele>4</ele>
        <time>2021-06-11T23:15:32Z</time>
      </trkpt>
      <trkpt lat="45.86551" lon="-0.7199">
        <ele>4</ele>
        <time>2021-06-11T23:15:44Z</time>
      </trkpt>
      <trkpt lat="45.86504" lon="-0.72044">
        <ele>3</ele>
        <time>2021-06-11T23:15:54Z</time>
      </trkpt>
      <trkpt lat="45.86477" lon="-0.72102">
        <ele>3</ele>
        <time>2021-06-11T23:16:03Z</time>
      </trkpt>
      <trkpt lat="45.86455" lon="-0.72129">
        <ele>4</ele>
        <time>2021-06-11T23:16:08Z</time>
      </trkpt>
      <trkpt lat="45.8643" lon="-0.72152">
        <ele>4</ele>
        <time>2021-06-11T23:16:14Z</time>
      </trkpt>
      <trkpt lat="45.86342" lon="-0.7221">
        <ele>2</ele>
        <time>2021-06-11T23:16:31Z</time>
      </trkpt>
      <trkpt lat="45.86404" lon="-0.72571">
        <ele>3</ele>
        <time>2021-06-11T23:17:17Z</time>
      </trkpt>
      <trkpt lat="45.86411" lon="-0.72586">
        <ele>3</ele>
        <time>2021-06-11T23:17:19Z</time>
      </trkpt>
      <trkpt lat="45.86418" lon="-0.726">
        <ele>3</ele>
        <time>2021-06-11T23:17:21Z</time>
      </trkpt>
      <trkpt lat="45.86423" lon="-0.72603">
        <ele>3</ele>
        <time>2021-06-11T23:17:22Z</time>
      </trkpt>
      <trkpt lat="45.86426" lon="-0.72603">
        <ele>3</ele>
        <time>2021-06-11T23:17:23Z</time>
      </trkpt>
      <trkpt lat="45.86426" lon="-0.72623">
        <ele>3</ele>
        <time>2021-06-11T23:17:25Z</time>
      </trkpt>
      <trkpt lat="45.86437" lon="-0.72647">
        <ele>3</ele>
        <time>2021-06-11T23:17:29Z</time>
      </trkpt>
      <trkpt lat="45.8653" lon="-0.72822">
        <ele>2</ele>
        <time>2021-06-11T23:17:56Z</time>
      </trkpt>
      <trkpt lat="45.86635" lon="-0.72992">
        <ele>3</ele>
        <time>2021-06-11T23:18:24Z</time>
      </trkpt>
      <trkpt lat="45.86715" lon="-0.73137">
        <ele>2</ele>
        <time>2021-06-11T23:18:47Z</time>
      </trkpt>
      <trkpt lat="45.86751" lon="-0.73205">
        <ele>2</ele>
        <time>2021-06-11T23:18:58Z</time>
      </trkpt>
      <trkpt lat="45.86769" lon="-0.73245">
        <ele>3</ele>
        <time>2021-06-11T23:19:04Z</time>
      </trkpt>
      <trkpt lat="45.86794" lon="-0.73313">
        <ele>3</ele>
        <time>2021-06-11T23:19:13Z</time>
      </trkpt>
      <trkpt lat="45.86807" lon="-0.73353">
        <ele>3</ele>
        <time>2021-06-11T23:19:19Z</time>
      </trkpt>
      <trkpt lat="45.86818" lon="-0.73382">
        <ele>3</ele>
        <time>2021-06-11T23:19:23Z</time>
      </trkpt>
      <trkpt lat="45.86881" lon="-0.73542">
        <ele>5</ele>
        <time>2021-06-11T23:19:45Z</time>
      </trkpt>
      <trkpt lat="45.86887" lon="-0.73554">
        <ele>6</ele>
        <time>2021-06-11T23:19:47Z</time>
      </trkpt>
      <trkpt lat="45.86899" lon="-0.73568">
        <ele>6</ele>
        <time>2021-06-11T23:19:50Z</time>
      </trkpt>
      <trkpt lat="45.86911" lon="-0.73578">
        <ele>6</ele>
        <time>2021-06-11T23:19:52Z</time>
      </trkpt>
      <trkpt lat="45.86909" lon="-0.73582">
        <ele>6</ele>
        <time>2021-06-11T23:19:53Z</time>
      </trkpt>
      <trkpt lat="45.86902" lon="-0.73593">
        <ele>7</ele>
        <time>2021-06-11T23:19:55Z</time>
      </trkpt>
      <trkpt lat="45.86878" lon="-0.7363">
        <ele>8</ele>
        <time>2021-06-11T23:20:01Z</time>
      </trkpt>
      <trkpt lat="45.8686" lon="-0.7364">
        <ele>9</ele>
        <time>2021-06-11T23:20:05Z</time>
      </trkpt>
      <trkpt lat="45.86827" lon="-0.73649">
        <ele>9</ele>
        <time>2021-06-11T23:20:11Z</time>
      </trkpt>
      <trkpt lat="45.86797" lon="-0.73668">
        <ele>8</ele>
        <time>2021-06-11T23:20:16Z</time>
      </trkpt>
      <trkpt lat="45.8679" lon="-0.73677">
        <ele>8</ele>
        <time>2021-06-11T23:20:18Z</time>
      </trkpt>
      <trkpt lat="45.86782" lon="-0.73688">
        <ele>8</ele>
        <time>2021-06-11T23:20:20Z</time>
      </trkpt>
      <trkpt lat="45.8677" lon="-0.73738">
        <ele>9</ele>
        <time>2021-06-11T23:20:27Z</time>
      </trkpt>
      <trkpt lat="45.86769" lon="-0.73764">
        <ele>10</ele>
        <time>2021-06-11T23:20:30Z</time>
      </trkpt>
      <trkpt lat="45.86772" lon="-0.73807">
        <ele>10</ele>
        <time>2021-06-11T23:20:35Z</time>
      </trkpt>
      <trkpt lat="45.86755" lon="-0.7383">
        <ele>10</ele>
        <time>2021-06-11T23:20:39Z</time>
      </trkpt>
      <trkpt lat="45.86717" lon="-0.73866">
        <ele>9</ele>
        <time>2021-06-11T23:20:47Z</time>
      </trkpt>
      <trkpt lat="45.86748" lon="-0.73956">
        <ele>10</ele>
        <time>2021-06-11T23:21:00Z</time>
      </trkpt>
      <trkpt lat="45.86793" lon="-0.74084">
        <ele>9</ele>
        <time>2021-06-11T23:21:18Z</time>
      </trkpt>
      <trkpt lat="45.86803" lon="-0.74138">
        <ele>9</ele>
        <time>2021-06-11T23:21:25Z</time>
      </trkpt>
      <trkpt lat="45.86804" lon="-0.74194">
        <ele>8</ele>
        <time>2021-06-11T23:21:32Z</time>
      </trkpt>
      <trkpt lat="45.86811" lon="-0.74214">
        <ele>8</ele>
        <time>2021-06-11T23:21:34Z</time>
      </trkpt>
      <trkpt lat="45.86849" lon="-0.74259">
        <ele>8</ele>
        <time>2021-06-11T23:21:43Z</time>
      </trkpt>
      <trkpt lat="45.8686" lon="-0.74253">
        <ele>7</ele>
        <time>2021-06-11T23:21:45Z</time>
      </trkpt>
      <trkpt lat="45.86898" lon="-0.74244">
        <ele>8</ele>
        <time>2021-06-11T23:21:52Z</time>
      </trkpt>
      <trkpt lat="45.86945" lon="-0.7425">
        <ele>8</ele>
        <time>2021-06-11T23:22:00Z</time>
      </trkpt>
      <trkpt lat="45.86981" lon="-0.74265">
        <ele>9</ele>
        <time>2021-06-11T23:22:07Z</time>
      </trkpt>
      <trkpt lat="45.87015" lon="-0.74297">
        <ele>10</ele>
        <time>2021-06-11T23:22:14Z</time>
      </trkpt>
      <trkpt lat="45.87034" lon="-0.74328">
        <ele>11</ele>
        <time>2021-06-11T23:22:19Z</time>
      </trkpt>
      <trkpt lat="45.87057" lon="-0.74345">
        <ele>10</ele>
        <time>2021-06-11T23:22:24Z</time>
      </trkpt>
      <trkpt lat="45.8713" lon="-0.74379">
        <ele>10</ele>
        <time>2021-06-11T23:22:38Z</time>
      </trkpt>
      <trkpt lat="45.87166" lon="-0.74409">
        <ele>10</ele>
        <time>2021-06-11T23:22:45Z</time>
      </trkpt>
      <trkpt lat="45.87238" lon="-0.74491">
        <ele>9</ele>
        <time>2021-06-11T23:23:01Z</time>
      </trkpt>
      <trkpt lat="45.87253" lon="-0.74501">
        <ele>8</ele>
        <time>2021-06-11T23:23:04Z</time>
      </trkpt>
      <trkpt lat="45.87276" lon="-0.74493">
        <ele>7</ele>
        <time>2021-06-11T23:23:09Z</time>
      </trkpt>
      <trkpt lat="45.87317" lon="-0.74461">
        <ele>6</ele>
        <time>2021-06-11T23:23:17Z</time>
      </trkpt>
      <trkpt lat="45.87361" lon="-0.74419">
        <ele>6</ele>
        <time>2021-06-11T23:23:26Z</time>
      </trkpt>
      <trkpt lat="45.87409" lon="-0.74412">
        <ele>3</ele>
        <time>2021-06-11T23:23:35Z</time>
      </trkpt>
      <trkpt lat="45.87459" lon="-0.74425">
        <ele>3</ele>
        <time>2021-06-11T23:23:44Z</time>
      </trkpt>
      <trkpt lat="45.87457" lon="-0.74435">
        <ele>3</ele>
        <time>2021-06-11T23:23:45Z</time>
      </trkpt>
      <trkpt lat="45.87465" lon="-0.74436">
        <ele>3</ele>
        <time>2021-06-11T23:23:47Z</time>
      </trkpt>
      <trkpt lat="45.87791" lon="-0.74406">
        <ele>2</ele>
        <time>2021-06-11T23:24:45Z</time>
      </trkpt>
      <trkpt lat="45.87807" lon="-0.74404">
        <ele>2</ele>
        <time>2021-06-11T23:24:48Z</time>
      </trkpt>
      <trkpt lat="45.8781" lon="-0.74404">
        <ele>2</ele>
        <time>2021-06-11T23:24:48Z</time>
      </trkpt>
      <trkpt lat="45.87812" lon="-0.74491">
        <ele>1</ele>
        <time>2021-06-11T23:24:59Z</time>
      </trkpt>
      <trkpt lat="45.87821" lon="-0.75052">
        <ele>2</ele>
        <time>2021-06-11T23:26:08Z</time>
      </trkpt>
      <trkpt lat="45.8782" lon="-0.75078">
        <ele>2</ele>
        <time>2021-06-11T23:26:12Z</time>
      </trkpt>
      <trkpt lat="45.87819" lon="-0.75096">
        <ele>2</ele>
        <time>2021-06-11T23:26:14Z</time>
      </trkpt>
      <trkpt lat="45.87816" lon="-0.75096">
        <ele>2</ele>
        <time>2021-06-11T23:26:14Z</time>
      </trkpt>
      <trkpt lat="45.87803" lon="-0.75096">
        <ele>2</ele>
        <time>2021-06-11T23:26:17Z</time>
      </trkpt>
      <trkpt lat="45.87746" lon="-0.75098">
        <ele>2</ele>
        <time>2021-06-11T23:26:27Z</time>
      </trkpt>
      <trkpt lat="45.87696" lon="-0.75099">
        <ele>2</ele>
        <time>2021-06-11T23:26:36Z</time>
      </trkpt>
      <trkpt lat="45.8759" lon="-0.75161">
        <ele>3</ele>
        <time>2021-06-11T23:26:56Z</time>
      </trkpt>
      <trkpt lat="45.87529" lon="-0.75203">
        <ele>4</ele>
        <time>2021-06-11T23:27:08Z</time>
      </trkpt>
      <trkpt lat="45.87516" lon="-0.75409">
        <ele>4</ele>
        <time>2021-06-11T23:27:34Z</time>
      </trkpt>
      <trkpt lat="45.87515" lon="-0.75495">
        <ele>4</ele>
        <time>2021-06-11T23:27:45Z</time>
      </trkpt>
      <trkpt lat="45.87509" lon="-0.75547">
        <ele>3</ele>
        <time>2021-06-11T23:27:51Z</time>
      </trkpt>
      <trkpt lat="45.87495" lon="-0.75592">
        <ele>3</ele>
        <time>2021-06-11T23:27:57Z</time>
      </trkpt>
      <trkpt lat="45.87484" lon="-0.75613">
        <ele>3</ele>
        <time>2021-06-11T23:28:00Z</time>
      </trkpt>
      <trkpt lat="45.87467" lon="-0.75627">
        <ele>4</ele>
        <time>2021-06-11T23:28:04Z</time>
      </trkpt>
      <trkpt lat="45.87466" lon="-0.75638">
        <ele>4</ele>
        <time>2021-06-11T23:28:05Z</time>
      </trkpt>
      <trkpt lat="45.8746" lon="-0.75652">
        <ele>4</ele>
        <time>2021-06-11T23:28:07Z</time>
      </trkpt>
      <trkpt lat="45.87446" lon="-0.75664">
        <ele>5</ele>
        <time>2021-06-11T23:28:10Z</time>
      </trkpt>
      <trkpt lat="45.87438" lon="-0.75667">
        <ele>5</ele>
        <time>2021-06-11T23:28:12Z</time>
      </trkpt>
      <trkpt lat="45.87432" lon="-0.75671">
        <ele>5</ele>
        <time>2021-06-11T23:28:13Z</time>
      </trkpt>
      <trkpt lat="45.87439" lon="-0.75701">
        <ele>5</ele>
        <time>2021-06-11T23:28:17Z</time>
      </trkpt>
      <trkpt lat="45.8744" lon="-0.75724">
        <ele>5</ele>
        <time>2021-06-11T23:28:20Z</time>
      </trkpt>
      <trkpt lat="45.87441" lon="-0.75765">
        <ele>5</ele>
        <time>2021-06-11T23:28:25Z</time>
      </trkpt>
      <trkpt lat="45.87435" lon="-0.75875">
        <ele>5</ele>
        <time>2021-06-11T23:28:38Z</time>
      </trkpt>
      <trkpt lat="45.8743" lon="-0.75941">
        <ele>5</ele>
        <time>2021-06-11T23:28:47Z</time>
      </trkpt>
      <trkpt lat="45.87425" lon="-0.75978">
        <ele>4</ele>
        <time>2021-06-11T23:28:51Z</time>
      </trkpt>
      <trkpt lat="45.87418" lon="-0.76015">
        <ele>4</ele>
        <time>2021-06-11T23:28:56Z</time>
      </trkpt>
      <trkpt lat="45.87407" lon="-0.76048">
        <ele>5</ele>
        <time>2021-06-11T23:29:01Z</time>
      </trkpt>
      <trkpt lat="45.87397" lon="-0.76076">
        <ele>5</ele>
        <time>2021-06-11T23:29:04Z</time>
      </trkpt>
      <trkpt lat="45.87384" lon="-0.76103">
        <ele>5</ele>
        <time>2021-06-11T23:29:09Z</time>
      </trkpt>
      <trkpt lat="45.87366" lon="-0.7613">
        <ele>6</ele>
        <time>2021-06-11T23:29:13Z</time>
      </trkpt>
      <trkpt lat="45.87329" lon="-0.76169">
        <ele>6</ele>
        <time>2021-06-11T23:29:21Z</time>
      </trkpt>
      <trkpt lat="45.8731" lon="-0.76197">
        <ele>8</ele>
        <time>2021-06-11T23:29:26Z</time>
      </trkpt>
      <trkpt lat="45.87307" lon="-0.76207">
        <ele>9</ele>
        <time>2021-06-11T23:29:28Z</time>
      </trkpt>
      <trkpt lat="45.8726" lon="-0.76227">
        <ele>12</ele>
        <time>2021-06-11T23:29:36Z</time>
      </trkpt>
      <trkpt lat="45.8724" lon="-0.76234">
        <ele>14</ele>
        <time>2021-06-11T23:29:40Z</time>
      </trkpt>
      <trkpt lat="45.8722" lon="-0.76236">
        <ele>15</ele>
        <time>2021-06-11T23:29:43Z</time>
      </trkpt>
      <trkpt lat="45.87231" lon="-0.76236">
        <ele>14</ele>
        <time>2021-06-11T23:29:45Z</time>
      </trkpt>
      <trkpt lat="45.87239" lon="-0.76316">
        <ele>14</ele>
        <time>2021-06-11T23:29:55Z</time>
      </trkpt>
      <trkpt lat="45.87243" lon="-0.76386">
        <ele>17</ele>
        <time>2021-06-11T23:30:04Z</time>
      </trkpt>
      <trkpt lat="45.8726" lon="-0.76395">
        <ele>16</ele>
        <time>2021-06-11T23:30:07Z</time>
      </trkpt>
      <trkpt lat="45.87283" lon="-0.76399">
        <ele>15</ele>
        <time>2021-06-11T23:30:11Z</time>
      </trkpt>
      <trkpt lat="45.87371" lon="-0.7638">
        <ele>8</ele>
        <time>2021-06-11T23:30:27Z</time>
      </trkpt>
      <trkpt lat="45.87391" lon="-0.76375">
        <ele>7</ele>
        <time>2021-06-11T23:30:31Z</time>
      </trkpt>
      <trkpt lat="45.87434" lon="-0.76366">
        <ele>4</ele>
        <time>2021-06-11T23:30:39Z</time>
      </trkpt>
      <trkpt lat="45.8744" lon="-0.76365">
        <ele>4</ele>
        <time>2021-06-11T23:30:40Z</time>
      </trkpt>
      <trkpt lat="45.87447" lon="-0.76368">
        <ele>4</ele>
        <time>2021-06-11T23:30:41Z</time>
      </trkpt>
      <trkpt lat="45.87456" lon="-0.76377">
        <ele>4</ele>
        <time>2021-06-11T23:30:43Z</time>
      </trkpt>
      <trkpt lat="45.8746" lon="-0.76385">
        <ele>3</ele>
        <time>2021-06-11T23:30:44Z</time>
      </trkpt>
      <trkpt lat="45.87462" lon="-0.7639">
        <ele>3</ele>
        <time>2021-06-11T23:30:45Z</time>
      </trkpt>
      <trkpt lat="45.87465" lon="-0.7641">
        <ele>3</ele>
        <time>2021-06-11T23:30:47Z</time>
      </trkpt>
      <trkpt lat="45.87471" lon="-0.76471">
        <ele>3</ele>
        <time>2021-06-11T23:30:55Z</time>
      </trkpt>
      <trkpt lat="45.87494" lon="-0.76721">
        <ele>5</ele>
        <time>2021-06-11T23:31:26Z</time>
      </trkpt>
      <trkpt lat="45.87508" lon="-0.76852">
        <ele>5</ele>
        <time>2021-06-11T23:31:43Z</time>
      </trkpt>
      <trkpt lat="45.87527" lon="-0.76877">
        <ele>4</ele>
        <time>2021-06-11T23:31:47Z</time>
      </trkpt>
      <trkpt lat="45.87587" lon="-0.76868">
        <ele>2</ele>
        <time>2021-06-11T23:31:58Z</time>
      </trkpt>
      <trkpt lat="45.87694" lon="-0.76847">
        <ele>3</ele>
        <time>2021-06-11T23:32:17Z</time>
      </trkpt>
      <trkpt lat="45.87828" lon="-0.76828">
        <ele>1</ele>
        <time>2021-06-11T23:32:41Z</time>
      </trkpt>
      <trkpt lat="45.8784" lon="-0.76826">
        <ele>1</ele>
        <time>2021-06-11T23:32:43Z</time>
      </trkpt>
      <trkpt lat="45.87844" lon="-0.76826">
        <ele>1</ele>
        <time>2021-06-11T23:32:44Z</time>
      </trkpt>
      <trkpt lat="45.87846" lon="-0.76948">
        <ele>2</ele>
        <time>2021-06-11T23:32:59Z</time>
      </trkpt>
      <trkpt lat="45.87849" lon="-0.77183">
        <ele>2</ele>
        <time>2021-06-11T23:33:28Z</time>
      </trkpt>
      <trkpt lat="45.87836" lon="-0.77373">
        <ele>1</ele>
        <time>2021-06-11T23:33:52Z</time>
      </trkpt>
      <trkpt lat="45.8778" lon="-0.77916">
        <ele>1</ele>
        <time>2021-06-11T23:35:00Z</time>
      </trkpt>
      <trkpt lat="45.87761" lon="-0.78109">
        <ele>1</ele>
        <time>2021-06-11T23:35:24Z</time>
      </trkpt>
      <trkpt lat="45.87759" lon="-0.7813">
        <ele>1</ele>
        <time>2021-06-11T23:35:27Z</time>
      </trkpt>
      <trkpt lat="45.87737" lon="-0.78405">
        <ele>2</ele>
        <time>2021-06-11T23:36:01Z</time>
      </trkpt>
      <trkpt lat="45.87735" lon="-0.78467">
        <ele>1</ele>
        <time>2021-06-11T23:36:09Z</time>
      </trkpt>
      <trkpt lat="45.87729" lon="-0.78553">
        <ele>2</ele>
        <time>2021-06-11T23:36:19Z</time>
      </trkpt>
      <trkpt lat="45.87727" lon="-0.78552">
        <ele>2</ele>
        <time>2021-06-11T23:36:20Z</time>
      </trkpt>
      <trkpt lat="45.87714" lon="-0.7855">
        <ele>2</ele>
        <time>2021-06-11T23:36:22Z</time>
      </trkpt>
      <trkpt lat="45.87707" lon="-0.7855">
        <ele>2</ele>
        <time>2021-06-11T23:36:23Z</time>
      </trkpt>
      <trkpt lat="45.87441" lon="-0.78608">
        <ele>1.3</ele>
        <time>2021-06-11T23:37:11Z</time>
      </trkpt>
      <trkpt lat="45.8733" lon="-0.7863">
        <ele>2</ele>
        <time>2021-06-11T23:37:31Z</time>
      </trkpt>
      <trkpt lat="45.8733" lon="-0.78664">
        <ele>1</ele>
        <time>2021-06-11T23:37:35Z</time>
      </trkpt>
      <trkpt lat="45.87333" lon="-0.78699">
        <ele>1</ele>
        <time>2021-06-11T23:37:40Z</time>
      </trkpt>
      <trkpt lat="45.87348" lon="-0.78812">
        <ele>2</ele>
        <time>2021-06-11T23:37:54Z</time>
      </trkpt>
      <trkpt lat="45.8735" lon="-0.78829">
        <ele>3</ele>
        <time>2021-06-11T23:37:56Z</time>
      </trkpt>
      <trkpt lat="45.87359" lon="-0.78891">
        <ele>4</ele>
        <time>2021-06-11T23:38:04Z</time>
      </trkpt>
      <trkpt lat="45.87361" lon="-0.78906">
        <ele>4</ele>
        <time>2021-06-11T23:38:06Z</time>
      </trkpt>
      <trkpt lat="45.87364" lon="-0.78936">
        <ele>5</ele>
        <time>2021-06-11T23:38:10Z</time>
      </trkpt>
      <trkpt lat="45.8737" lon="-0.78998">
        <ele>5</ele>
        <time>2021-06-11T23:38:17Z</time>
      </trkpt>
      <trkpt lat="45.8737" lon="-0.7908">
        <ele>5</ele>
        <time>2021-06-11T23:38:28Z</time>
      </trkpt>
      <trkpt lat="45.87372" lon="-0.79115">
        <ele>5</ele>
        <time>2021-06-11T23:38:32Z</time>
      </trkpt>
      <trkpt lat="45.87379" lon="-0.79147">
        <ele>6</ele>
        <time>2021-06-11T23:38:36Z</time>
      </trkpt>
      <trkpt lat="45.87409" lon="-0.79263">
        <ele>11</ele>
        <time>2021-06-11T23:38:51Z</time>
      </trkpt>
      <trkpt lat="45.87421" lon="-0.79307">
        <ele>12</ele>
        <time>2021-06-11T23:38:57Z</time>
      </trkpt>
      <trkpt lat="45.87444" lon="-0.79324">
        <ele>12</ele>
        <time>2021-06-11T23:39:02Z</time>
      </trkpt>
      <trkpt lat="45.87476" lon="-0.79338">
        <ele>10</ele>
        <time>2021-06-11T23:39:08Z</time>
      </trkpt>
      <trkpt lat="45.87527" lon="-0.79327">
        <ele>7</ele>
        <time>2021-06-11T23:39:17Z</time>
      </trkpt>
      <trkpt lat="45.87549" lon="-0.79318">
        <ele>6</ele>
        <time>2021-06-11T23:39:21Z</time>
      </trkpt>
      <trkpt lat="45.87565" lon="-0.79318">
        <ele>5</ele>
        <time>2021-06-11T23:39:24Z</time>
      </trkpt>
      <trkpt lat="45.87593" lon="-0.79333">
        <ele>5</ele>
        <time>2021-06-11T23:39:29Z</time>
      </trkpt>
      <trkpt lat="45.87609" lon="-0.79351">
        <ele>5</ele>
        <time>2021-06-11T23:39:33Z</time>
      </trkpt>
      <trkpt lat="45.87625" lon="-0.79372">
        <ele>5</ele>
        <time>2021-06-11T23:39:37Z</time>
      </trkpt>
      <trkpt lat="45.87674" lon="-0.79489">
        <ele>5</ele>
        <time>2021-06-11T23:39:54Z</time>
      </trkpt>
      <trkpt lat="45.87694" lon="-0.79546">
        <ele>5</ele>
        <time>2021-06-11T23:40:01Z</time>
      </trkpt>
      <trkpt lat="45.877" lon="-0.7957">
        <ele>5</ele>
        <time>2021-06-11T23:40:05Z</time>
      </trkpt>
      <trkpt lat="45.87708" lon="-0.79663">
        <ele>5</ele>
        <time>2021-06-11T23:40:16Z</time>
      </trkpt>
      <trkpt lat="45.87721" lon="-0.79661">
        <ele>4</ele>
        <time>2021-06-11T23:40:19Z</time>
      </trkpt>
      <trkpt lat="45.87735" lon="-0.79658">
        <ele>3</ele>
        <time>2021-06-11T23:40:21Z</time>
      </trkpt>
      <trkpt lat="45.87768" lon="-0.79934">
        <ele>2</ele>
        <time>2021-06-11T23:40:56Z</time>
      </trkpt>
      <trkpt lat="45.87783" lon="-0.80019">
        <ele>3</ele>
        <time>2021-06-11T23:41:07Z</time>
      </trkpt>
      <trkpt lat="45.87908" lon="-0.80441">
        <ele>1</ele>
        <time>2021-06-11T23:42:03Z</time>
      </trkpt>
      <trkpt lat="45.87917" lon="-0.8047">
        <ele>1</ele>
        <time>2021-06-11T23:42:07Z</time>
      </trkpt>
      <trkpt lat="45.87925" lon="-0.80497">
        <ele>2</ele>
        <time>2021-06-11T23:42:11Z</time>
      </trkpt>
      <trkpt lat="45.87923" lon="-0.80498">
        <ele>2</ele>
        <time>2021-06-11T23:42:11Z</time>
      </trkpt>
      <trkpt lat="45.87912" lon="-0.80505">
        <ele>2</ele>
        <time>2021-06-11T23:42:14Z</time>
      </trkpt>
      <trkpt lat="45.87887" lon="-0.80522">
        <ele>1</ele>
        <time>2021-06-11T23:42:18Z</time>
      </trkpt>
      <trkpt lat="45.8746" lon="-0.80799">
        <ele>3</ele>
        <time>2021-06-11T23:43:42Z</time>
      </trkpt>
      <trkpt lat="45.87457" lon="-0.808">
        <ele>3</ele>
        <time>2021-06-11T23:43:42Z</time>
      </trkpt>
      <trkpt lat="45.87452" lon="-0.80798">
        <ele>3</ele>
        <time>2021-06-11T23:43:43Z</time>
      </trkpt>
      <trkpt lat="45.87433" lon="-0.80756">
        <ele>4</ele>
        <time>2021-06-11T23:43:50Z</time>
      </trkpt>
      <trkpt lat="45.87421" lon="-0.80735">
        <ele>5</ele>
        <time>2021-06-11T23:43:53Z</time>
      </trkpt>
      <trkpt lat="45.87414" lon="-0.80729">
        <ele>6</ele>
        <time>2021-06-11T23:43:54Z</time>
      </trkpt>
      <trkpt lat="45.8741" lon="-0.80727">
        <ele>6</ele>
        <time>2021-06-11T23:43:55Z</time>
      </trkpt>
      <trkpt lat="45.87401" lon="-0.80731">
        <ele>7</ele>
        <time>2021-06-11T23:43:57Z</time>
      </trkpt>
      <trkpt lat="45.87354" lon="-0.80774">
        <ele>7</ele>
        <time>2021-06-11T23:44:07Z</time>
      </trkpt>
      <trkpt lat="45.87343" lon="-0.80781">
        <ele>7</ele>
        <time>2021-06-11T23:44:09Z</time>
      </trkpt>
      <trkpt lat="45.87332" lon="-0.80786">
        <ele>7</ele>
        <time>2021-06-11T23:44:11Z</time>
      </trkpt>
      <trkpt lat="45.87306" lon="-0.80791">
        <ele>9</ele>
        <time>2021-06-11T23:44:16Z</time>
      </trkpt>
      <trkpt lat="45.87257" lon="-0.80787">
        <ele>12</ele>
        <time>2021-06-11T23:44:24Z</time>
      </trkpt>
      <trkpt lat="45.87217" lon="-0.80776">
        <ele>14</ele>
        <time>2021-06-11T23:44:32Z</time>
      </trkpt>
      <trkpt lat="45.87151" lon="-0.80752">
        <ele>18</ele>
        <time>2021-06-11T23:44:44Z</time>
      </trkpt>
      <trkpt lat="45.87145" lon="-0.80752">
        <ele>18</ele>
        <time>2021-06-11T23:44:45Z</time>
      </trkpt>
      <trkpt lat="45.8713" lon="-0.80756">
        <ele>19</ele>
        <time>2021-06-11T23:44:47Z</time>
      </trkpt>
      <trkpt lat="45.8712" lon="-0.80761">
        <ele>20</ele>
        <time>2021-06-11T23:44:49Z</time>
      </trkpt>
      <trkpt lat="45.87035" lon="-0.80849">
        <ele>23</ele>
        <time>2021-06-11T23:45:08Z</time>
      </trkpt>
      <trkpt lat="45.87029" lon="-0.80853">
        <ele>23</ele>
        <time>2021-06-11T23:45:09Z</time>
      </trkpt>
      <trkpt lat="45.87026" lon="-0.80867">
        <ele>23</ele>
        <time>2021-06-11T23:45:11Z</time>
      </trkpt>
      <trkpt lat="45.87018" lon="-0.80894">
        <ele>24</ele>
        <time>2021-06-11T23:45:15Z</time>
      </trkpt>
      <trkpt lat="45.8701" lon="-0.80908">
        <ele>24</ele>
        <time>2021-06-11T23:45:17Z</time>
      </trkpt>
      <trkpt lat="45.87002" lon="-0.80918">
        <ele>24</ele>
        <time>2021-06-11T23:45:19Z</time>
      </trkpt>
      <trkpt lat="45.86924" lon="-0.80977">
        <ele>25</ele>
        <time>2021-06-11T23:45:34Z</time>
      </trkpt>
      <trkpt lat="45.86947" lon="-0.81232">
        <ele>25</ele>
        <time>2021-06-11T23:46:06Z</time>
      </trkpt>
      <trkpt lat="45.8696" lon="-0.81405">
        <ele>25</ele>
        <time>2021-06-11T23:46:28Z</time>
      </trkpt>
      <trkpt lat="45.8696" lon="-0.8146">
        <ele>26</ele>
        <time>2021-06-11T23:46:35Z</time>
      </trkpt>
      <trkpt lat="45.86964" lon="-0.81529">
        <ele>27</ele>
        <time>2021-06-11T23:46:43Z</time>
      </trkpt>
      <trkpt lat="45.86987" lon="-0.81626">
        <ele>26</ele>
        <time>2021-06-11T23:46:56Z</time>
      </trkpt>
      <trkpt lat="45.86993" lon="-0.81642">
        <ele>26</ele>
        <time>2021-06-11T23:46:58Z</time>
      </trkpt>
      <trkpt lat="45.87005" lon="-0.81654">
        <ele>25</ele>
        <time>2021-06-11T23:47:01Z</time>
      </trkpt>
      <trkpt lat="45.87132" lon="-0.81705">
        <ele>18</ele>
        <time>2021-06-11T23:47:24Z</time>
      </trkpt>
      <trkpt lat="45.87207" lon="-0.8174">
        <ele>12</ele>
        <time>2021-06-11T23:47:38Z</time>
      </trkpt>
      <trkpt lat="45.87265" lon="-0.81761">
        <ele>6</ele>
        <time>2021-06-11T23:47:49Z</time>
      </trkpt>
      <trkpt lat="45.87346" lon="-0.8178">
        <ele>4</ele>
        <time>2021-06-11T23:48:03Z</time>
      </trkpt>
      <trkpt lat="45.87426" lon="-0.81787">
        <ele>6</ele>
        <time>2021-06-11T23:48:18Z</time>
      </trkpt>
      <trkpt lat="45.8743" lon="-0.81774">
        <ele>6</ele>
        <time>2021-06-11T23:48:19Z</time>
      </trkpt>
      <trkpt lat="45.87452" lon="-0.81731">
        <ele>5</ele>
        <time>2021-06-11T23:48:26Z</time>
      </trkpt>
      <trkpt lat="45.87466" lon="-0.81716">
        <ele>5</ele>
        <time>2021-06-11T23:48:29Z</time>
      </trkpt>
      <trkpt lat="45.87478" lon="-0.81707">
        <ele>5</ele>
        <time>2021-06-11T23:48:32Z</time>
      </trkpt>
      <trkpt lat="45.87492" lon="-0.81704">
        <ele>5</ele>
        <time>2021-06-11T23:48:34Z</time>
      </trkpt>
      <trkpt lat="45.87542" lon="-0.81713">
        <ele>5</ele>
        <time>2021-06-11T23:48:43Z</time>
      </trkpt>
      <trkpt lat="45.87579" lon="-0.81715">
        <ele>5</ele>
        <time>2021-06-11T23:48:50Z</time>
      </trkpt>
      <trkpt lat="45.87595" lon="-0.81712">
        <ele>5</ele>
        <time>2021-06-11T23:48:53Z</time>
      </trkpt>
      <trkpt lat="45.87627" lon="-0.81679">
        <ele>4</ele>
        <time>2021-06-11T23:49:00Z</time>
      </trkpt>
      <trkpt lat="45.87642" lon="-0.81633">
        <ele>3</ele>
        <time>2021-06-11T23:49:06Z</time>
      </trkpt>
      <trkpt lat="45.87695" lon="-0.81458">
        <ele>2</ele>
        <time>2021-06-11T23:49:30Z</time>
      </trkpt>
      <trkpt lat="45.87719" lon="-0.8136">
        <ele>2</ele>
        <time>2021-06-11T23:49:42Z</time>
      </trkpt>
      <trkpt lat="45.87745" lon="-0.81295">
        <ele>2</ele>
        <time>2021-06-11T23:49:52Z</time>
      </trkpt>
      <trkpt lat="45.87799" lon="-0.81155">
        <ele>2</ele>
        <time>2021-06-11T23:50:11Z</time>
      </trkpt>
      <trkpt lat="45.87812" lon="-0.81137">
        <ele>2</ele>
        <time>2021-06-11T23:50:15Z</time>
      </trkpt>
      <trkpt lat="45.87829" lon="-0.81129">
        <ele>2</ele>
        <time>2021-06-11T23:50:18Z</time>
      </trkpt>
      <trkpt lat="45.87889" lon="-0.81113">
        <ele>2</ele>
        <time>2021-06-11T23:50:29Z</time>
      </trkpt>
      <trkpt lat="45.87906" lon="-0.81114">
        <ele>2</ele>
        <time>2021-06-11T23:50:32Z</time>
      </trkpt>
      <trkpt lat="45.87922" lon="-0.81119">
        <ele>2</ele>
        <time>2021-06-11T23:50:35Z</time>
      </trkpt>
      <trkpt lat="45.87993" lon="-0.81152">
        <ele>2</ele>
        <time>2021-06-11T23:50:48Z</time>
      </trkpt>
      <trkpt lat="45.88042" lon="-0.81185">
        <ele>3</ele>
        <time>2021-06-11T23:50:58Z</time>
      </trkpt>
      <trkpt lat="45.88049" lon="-0.81192">
        <ele>3</ele>
        <time>2021-06-11T23:50:59Z</time>
      </trkpt>
      <trkpt lat="45.8808" lon="-0.81235">
        <ele>5</ele>
        <time>2021-06-11T23:51:07Z</time>
      </trkpt>
      <trkpt lat="45.88139" lon="-0.81288">
        <ele>4</ele>
        <time>2021-06-11T23:51:19Z</time>
      </trkpt>
      <trkpt lat="45.88154" lon="-0.81313">
        <ele>4</ele>
        <time>2021-06-11T23:51:23Z</time>
      </trkpt>
      <trkpt lat="45.88158" lon="-0.81325">
        <ele>4</ele>
        <time>2021-06-11T23:51:25Z</time>
      </trkpt>
      <trkpt lat="45.88165" lon="-0.81345">
        <ele>4</ele>
        <time>2021-06-11T23:51:28Z</time>
      </trkpt>
      <trkpt lat="45.88168" lon="-0.81355">
        <ele>4</ele>
        <time>2021-06-11T23:51:29Z</time>
      </trkpt>
      <trkpt lat="45.8817" lon="-0.81362">
        <ele>4</ele>
        <time>2021-06-11T23:51:30Z</time>
      </trkpt>
      <trkpt lat="45.88225" lon="-0.8144">
        <ele>6</ele>
        <time>2021-06-11T23:51:44Z</time>
      </trkpt>
      <trkpt lat="45.88266" lon="-0.81493">
        <ele>8</ele>
        <time>2021-06-11T23:51:54Z</time>
      </trkpt>
      <trkpt lat="45.88278" lon="-0.81507">
        <ele>8</ele>
        <time>2021-06-11T23:51:56Z</time>
      </trkpt>
      <trkpt lat="45.88294" lon="-0.81464">
        <ele>6</ele>
        <time>2021-06-11T23:52:02Z</time>
      </trkpt>
      <trkpt lat="45.88299" lon="-0.81465">
        <ele>6</ele>
        <time>2021-06-11T23:52:03Z</time>
      </trkpt>
      <trkpt lat="45.8831" lon="-0.81461">
        <ele>6</ele>
        <time>2021-06-11T23:52:05Z</time>
      </trkpt>
      <trkpt lat="45.88323" lon="-0.81449">
        <ele>6</ele>
        <time>2021-06-11T23:52:08Z</time>
      </trkpt>
      <trkpt lat="45.88337" lon="-0.81428">
        <ele>5</ele>
        <time>2021-06-11T23:52:12Z</time>
      </trkpt>
      <trkpt lat="45.88354" lon="-0.81384">
        <ele>4</ele>
        <time>2021-06-11T23:52:18Z</time>
      </trkpt>
      <trkpt lat="45.8836" lon="-0.81373">
        <ele>4</ele>
        <time>2021-06-11T23:52:20Z</time>
      </trkpt>
      <trkpt lat="45.88418" lon="-0.81427">
        <ele>5</ele>
        <time>2021-06-11T23:52:32Z</time>
      </trkpt>
      <trkpt lat="45.88438" lon="-0.81438">
        <ele>5</ele>
        <time>2021-06-11T23:52:36Z</time>
      </trkpt>
      <trkpt lat="45.88475" lon="-0.81496">
        <ele>5</ele>
        <time>2021-06-11T23:52:45Z</time>
      </trkpt>
      <trkpt lat="45.88482" lon="-0.81486">
        <ele>5</ele>
        <time>2021-06-11T23:52:47Z</time>
      </trkpt>
      <trkpt lat="45.88497" lon="-0.81465">
        <ele>4</ele>
        <time>2021-06-11T23:52:51Z</time>
      </trkpt>
      <trkpt lat="45.88506" lon="-0.81453">
        <ele>3</ele>
        <time>2021-06-11T23:52:53Z</time>
      </trkpt>
      <trkpt lat="45.88507" lon="-0.81452">
        <ele>3</ele>
        <time>2021-06-11T23:52:53Z</time>
      </trkpt>
      <trkpt lat="45.88508" lon="-0.81451">
        <ele>3</ele>
        <time>2021-06-11T23:52:53Z</time>
      </trkpt>
      <trkpt lat="45.88512" lon="-0.81454">
        <ele>3</ele>
        <time>2021-06-11T23:52:54Z</time>
      </trkpt>
      <trkpt lat="45.88756" lon="-0.81805">
        <ele>2</ele>
        <time>2021-06-11T23:53:56Z</time>
      </trkpt>
      <trkpt lat="45.88883" lon="-0.81983">
        <ele>1</ele>
        <time>2021-06-11T23:54:27Z</time>
      </trkpt>
      <trkpt lat="45.88922" lon="-0.82032">
        <ele>1</ele>
        <time>2021-06-11T23:54:37Z</time>
      </trkpt>
      <trkpt lat="45.88951" lon="-0.82065">
        <ele>2</ele>
        <time>2021-06-11T23:54:43Z</time>
      </trkpt>
      <trkpt lat="45.88999" lon="-0.82106">
        <ele>2</ele>
        <time>2021-06-11T23:54:53Z</time>
      </trkpt>
      <trkpt lat="45.89191" lon="-0.82271">
        <ele>2</ele>
        <time>2021-06-11T23:55:33Z</time>
      </trkpt>
      <trkpt lat="45.89326" lon="-0.82391">
        <ele>2</ele>
        <time>2021-06-11T23:56:01Z</time>
      </trkpt>
      <trkpt lat="45.89342" lon="-0.82406">
        <ele>1</ele>
        <time>2021-06-11T23:56:04Z</time>
      </trkpt>
      <trkpt lat="45.89589" lon="-0.82618">
        <ele>2</ele>
        <time>2021-06-11T23:56:56Z</time>
      </trkpt>
      <trkpt lat="45.89701" lon="-0.8272">
        <ele>2</ele>
        <time>2021-06-11T23:57:19Z</time>
      </trkpt>
      <trkpt lat="45.89731" lon="-0.82758">
        <ele>2</ele>
        <time>2021-06-11T23:57:26Z</time>
      </trkpt>
      <trkpt lat="45.8976" lon="-0.82828">
        <ele>1</ele>
        <time>2021-06-11T23:57:36Z</time>
      </trkpt>
      <trkpt lat="45.89762" lon="-0.82835">
        <ele>1</ele>
        <time>2021-06-11T23:57:37Z</time>
      </trkpt>
      <trkpt lat="45.89937" lon="-0.83342">
        <ele>4</ele>
        <time>2021-06-11T23:58:47Z</time>
      </trkpt>
      <trkpt lat="45.89986" lon="-0.83489">
        <ele>2</ele>
        <time>2021-06-11T23:59:08Z</time>
      </trkpt>
      <trkpt lat="45.90108" lon="-0.83852">
        <ele>2</ele>
        <time>2021-06-11T23:59:58Z</time>
      </trkpt>
      <trkpt lat="45.90158" lon="-0.84025">
        <ele>2</ele>
        <time>2021-06-12T00:00:21Z</time>
      </trkpt>
      <trkpt lat="45.90181" lon="-0.84149">
        <ele>2</ele>
        <time>2021-06-12T00:00:37Z</time>
      </trkpt>
      <trkpt lat="45.90193" lon="-0.84236">
        <ele>2</ele>
        <time>2021-06-12T00:00:48Z</time>
      </trkpt>
      <trkpt lat="45.90212" lon="-0.84431">
        <ele>2</ele>
        <time>2021-06-12T00:01:12Z</time>
      </trkpt>
      <trkpt lat="45.90259" lon="-0.84929">
        <ele>2</ele>
        <time>2021-06-12T00:02:14Z</time>
      </trkpt>
      <trkpt lat="45.90298" lon="-0.85355">
        <ele>3</ele>
        <time>2021-06-12T00:03:07Z</time>
      </trkpt>
      <trkpt lat="45.903" lon="-0.85371">
        <ele>3</ele>
        <time>2021-06-12T00:03:09Z</time>
      </trkpt>
      <trkpt lat="45.90306" lon="-0.85432">
        <ele>3</ele>
        <time>2021-06-12T00:03:17Z</time>
      </trkpt>
      <trkpt lat="45.90316" lon="-0.85504">
        <ele>2</ele>
        <time>2021-06-12T00:03:26Z</time>
      </trkpt>
      <trkpt lat="45.90442" lon="-0.86148">
        <ele>2</ele>
        <time>2021-06-12T00:04:49Z</time>
      </trkpt>
      <trkpt lat="45.90456" lon="-0.86215">
        <ele>2</ele>
        <time>2021-06-12T00:04:58Z</time>
      </trkpt>
      <trkpt lat="45.90462" lon="-0.86245">
        <ele>2</ele>
        <time>2021-06-12T00:05:02Z</time>
      </trkpt>
      <trkpt lat="45.90478" lon="-0.86293">
        <ele>3</ele>
        <time>2021-06-12T00:05:08Z</time>
      </trkpt>
      <trkpt lat="45.90498" lon="-0.86334">
        <ele>3</ele>
        <time>2021-06-12T00:05:14Z</time>
      </trkpt>
      <trkpt lat="45.90535" lon="-0.86397">
        <ele>3</ele>
        <time>2021-06-12T00:05:25Z</time>
      </trkpt>
      <trkpt lat="45.90565" lon="-0.86439">
        <ele>3</ele>
        <time>2021-06-12T00:05:32Z</time>
      </trkpt>
      <trkpt lat="45.90594" lon="-0.86469">
        <ele>3</ele>
        <time>2021-06-12T00:05:38Z</time>
      </trkpt>
      <trkpt lat="45.9064" lon="-0.86512">
        <ele>3</ele>
        <time>2021-06-12T00:05:48Z</time>
      </trkpt>
      <trkpt lat="45.90632" lon="-0.86532">
        <ele>3</ele>
        <time>2021-06-12T00:05:51Z</time>
      </trkpt>
      <trkpt lat="45.90753" lon="-0.86626">
        <ele>4</ele>
        <time>2021-06-12T00:06:15Z</time>
      </trkpt>
      <trkpt lat="45.90769" lon="-0.86644">
        <ele>4</ele>
        <time>2021-06-12T00:06:19Z</time>
      </trkpt>
      <trkpt lat="45.90868" lon="-0.86783">
        <ele>4</ele>
        <time>2021-06-12T00:06:44Z</time>
      </trkpt>
      <trkpt lat="45.90836" lon="-0.86829">
        <ele>5</ele>
        <time>2021-06-12T00:06:52Z</time>
      </trkpt>
      <trkpt lat="45.90836" lon="-0.86848">
        <ele>5</ele>
        <time>2021-06-12T00:06:54Z</time>
      </trkpt>
      <trkpt lat="45.90866" lon="-0.86805">
        <ele>4</ele>
        <time>2021-06-12T00:07:02Z</time>
      </trkpt>
      <trkpt lat="45.90874" lon="-0.86793">
        <ele>4</ele>
        <time>2021-06-12T00:07:04Z</time>
      </trkpt>
      <trkpt lat="45.90885" lon="-0.86777">
        <ele>4</ele>
        <time>2021-06-12T00:07:06Z</time>
      </trkpt>
      <trkpt lat="45.90907" lon="-0.86744">
        <ele>2</ele>
        <time>2021-06-12T00:07:12Z</time>
      </trkpt>
      <trkpt lat="45.9099" lon="-0.86625">
        <ele>1</ele>
        <time>2021-06-12T00:07:33Z</time>
      </trkpt>
      <trkpt lat="45.91142" lon="-0.86405">
        <ele>2</ele>
        <time>2021-06-12T00:08:11Z</time>
      </trkpt>
      <trkpt lat="45.91146" lon="-0.86398">
        <ele>2</ele>
        <time>2021-06-12T00:08:13Z</time>
      </trkpt>
      <trkpt lat="45.91252" lon="-0.86246">
        <ele>2</ele>
        <time>2021-06-12T00:08:39Z</time>
      </trkpt>
      <trkpt lat="45.91318" lon="-0.86163">
        <ele>2</ele>
        <time>2021-06-12T00:08:55Z</time>
      </trkpt>
      <trkpt lat="45.91378" lon="-0.86105">
        <ele>2</ele>
        <time>2021-06-12T00:09:08Z</time>
      </trkpt>
      <trkpt lat="45.91442" lon="-0.86054">
        <ele>3</ele>
        <time>2021-06-12T00:09:21Z</time>
      </trkpt>
      <trkpt lat="45.91511" lon="-0.86015">
        <ele>3</ele>
        <time>2021-06-12T00:09:34Z</time>
      </trkpt>
      <trkpt lat="45.91581" lon="-0.85986">
        <ele>2</ele>
        <time>2021-06-12T00:09:47Z</time>
      </trkpt>
      <trkpt lat="45.9166" lon="-0.85968">
        <ele>2</ele>
        <time>2021-06-12T00:10:01Z</time>
      </trkpt>
      <trkpt lat="45.91687" lon="-0.85965">
        <ele>2</ele>
        <time>2021-06-12T00:10:06Z</time>
      </trkpt>
      <trkpt lat="45.91735" lon="-0.85964">
        <ele>2</ele>
        <time>2021-06-12T00:10:14Z</time>
      </trkpt>
      <trkpt lat="45.91738" lon="-0.85964">
        <ele>2</ele>
        <time>2021-06-12T00:10:15Z</time>
      </trkpt>
      <trkpt lat="45.91781" lon="-0.85968">
        <ele>3</ele>
        <time>2021-06-12T00:10:23Z</time>
      </trkpt>
      <trkpt lat="45.91812" lon="-0.85973">
        <ele>3</ele>
        <time>2021-06-12T00:10:28Z</time>
      </trkpt>
      <trkpt lat="45.91828" lon="-0.85975">
        <ele>3</ele>
        <time>2021-06-12T00:10:31Z</time>
      </trkpt>
      <trkpt lat="45.91834" lon="-0.85971">
        <ele>3</ele>
        <time>2021-06-12T00:10:32Z</time>
      </trkpt>
      <trkpt lat="45.91837" lon="-0.85967">
        <ele>3</ele>
        <time>2021-06-12T00:10:33Z</time>
      </trkpt>
      <trkpt lat="45.91856" lon="-0.85959">
        <ele>3</ele>
        <time>2021-06-12T00:10:36Z</time>
      </trkpt>
      <trkpt lat="45.91867" lon="-0.85958">
        <ele>3</ele>
        <time>2021-06-12T00:10:38Z</time>
      </trkpt>
      <trkpt lat="45.9189" lon="-0.8596">
        <ele>3</ele>
        <time>2021-06-12T00:10:42Z</time>
      </trkpt>
      <trkpt lat="45.91894" lon="-0.85955">
        <ele>3</ele>
        <time>2021-06-12T00:10:43Z</time>
      </trkpt>
      <trkpt lat="45.91906" lon="-0.85932">
        <ele>3</ele>
        <time>2021-06-12T00:10:47Z</time>
      </trkpt>
      <trkpt lat="45.91933" lon="-0.85891">
        <ele>4</ele>
        <time>2021-06-12T00:10:54Z</time>
      </trkpt>
      <trkpt lat="45.91963" lon="-0.85921">
        <ele>4</ele>
        <time>2021-06-12T00:11:00Z</time>
      </trkpt>
      <trkpt lat="45.91983" lon="-0.85935">
        <ele>4</ele>
        <time>2021-06-12T00:11:04Z</time>
      </trkpt>
      <trkpt lat="45.92015" lon="-0.85942">
        <ele>4</ele>
        <time>2021-06-12T00:11:10Z</time>
      </trkpt>
      <trkpt lat="45.92034" lon="-0.85943">
        <ele>4</ele>
        <time>2021-06-12T00:11:14Z</time>
      </trkpt>
      <trkpt lat="45.92055" lon="-0.8594">
        <ele>4</ele>
        <time>2021-06-12T00:11:17Z</time>
      </trkpt>
      <trkpt lat="45.92077" lon="-0.85941">
        <ele>4</ele>
        <time>2021-06-12T00:11:21Z</time>
      </trkpt>
      <trkpt lat="45.92164" lon="-0.85958">
        <ele>2</ele>
        <time>2021-06-12T00:11:37Z</time>
      </trkpt>
      <trkpt lat="45.92175" lon="-0.85962">
        <ele>2</ele>
        <time>2021-06-12T00:11:39Z</time>
      </trkpt>
      <trkpt lat="45.92214" lon="-0.85993">
        <ele>2</ele>
        <time>2021-06-12T00:11:47Z</time>
      </trkpt>
      <trkpt lat="45.9223" lon="-0.85997">
        <ele>3</ele>
        <time>2021-06-12T00:11:50Z</time>
      </trkpt>
      <trkpt lat="45.92237" lon="-0.85997">
        <ele>3</ele>
        <time>2021-06-12T00:11:51Z</time>
      </trkpt>
      <trkpt lat="45.92254" lon="-0.85989">
        <ele>3</ele>
        <time>2021-06-12T00:11:54Z</time>
      </trkpt>
      <trkpt lat="45.92292" lon="-0.85944">
        <ele>5</ele>
        <time>2021-06-12T00:12:03Z</time>
      </trkpt>
      <trkpt lat="45.9231" lon="-0.85932">
        <ele>6</ele>
        <time>2021-06-12T00:12:06Z</time>
      </trkpt>
      <trkpt lat="45.92322" lon="-0.85928">
        <ele>6</ele>
        <time>2021-06-12T00:12:09Z</time>
      </trkpt>
      <trkpt lat="45.9234" lon="-0.8592">
        <ele>7</ele>
        <time>2021-06-12T00:12:12Z</time>
      </trkpt>
      <trkpt lat="45.92376" lon="-0.85889">
        <ele>8</ele>
        <time>2021-06-12T00:12:19Z</time>
      </trkpt>
      <trkpt lat="45.92439" lon="-0.85813">
        <ele>10</ele>
        <time>2021-06-12T00:12:34Z</time>
      </trkpt>
      <trkpt lat="45.92461" lon="-0.85795">
        <ele>10</ele>
        <time>2021-06-12T00:12:39Z</time>
      </trkpt>
      <trkpt lat="45.92544" lon="-0.85737">
        <ele>9</ele>
        <time>2021-06-12T00:12:55Z</time>
      </trkpt>
      <trkpt lat="45.92551" lon="-0.85752">
        <ele>10</ele>
        <time>2021-06-12T00:12:57Z</time>
      </trkpt>
      <trkpt lat="45.92627" lon="-0.85867">
        <ele>10</ele>
        <time>2021-06-12T00:13:17Z</time>
      </trkpt>
      <trkpt lat="45.92649" lon="-0.85896">
        <ele>10</ele>
        <time>2021-06-12T00:13:22Z</time>
      </trkpt>
      <trkpt lat="45.92653" lon="-0.85899">
        <ele>10</ele>
        <time>2021-06-12T00:13:23Z</time>
      </trkpt>
      <trkpt lat="45.92704" lon="-0.85928">
        <ele>7</ele>
        <time>2021-06-12T00:13:33Z</time>
      </trkpt>
      <trkpt lat="45.92735" lon="-0.8595">
        <ele>5</ele>
        <time>2021-06-12T00:13:39Z</time>
      </trkpt>
      <trkpt lat="45.92743" lon="-0.85959">
        <ele>5</ele>
        <time>2021-06-12T00:13:41Z</time>
      </trkpt>
      <trkpt lat="45.92838" lon="-0.86183">
        <ele>2</ele>
        <time>2021-06-12T00:14:13Z</time>
      </trkpt>
      <trkpt lat="45.92875" lon="-0.8628">
        <ele>5</ele>
        <time>2021-06-12T00:14:27Z</time>
      </trkpt>
      <trkpt lat="45.92894" lon="-0.8634">
        <ele>7</ele>
        <time>2021-06-12T00:14:35Z</time>
      </trkpt>
      <trkpt lat="45.92901" lon="-0.86358">
        <ele>7</ele>
        <time>2021-06-12T00:14:38Z</time>
      </trkpt>
      <trkpt lat="45.92953" lon="-0.86455">
        <ele>9</ele>
        <time>2021-06-12T00:14:53Z</time>
      </trkpt>
      <trkpt lat="45.92988" lon="-0.86504">
        <ele>10</ele>
        <time>2021-06-12T00:15:01Z</time>
      </trkpt>
      <trkpt lat="45.93022" lon="-0.86541">
        <ele>11</ele>
        <time>2021-06-12T00:15:09Z</time>
      </trkpt>
      <trkpt lat="45.93033" lon="-0.86559">
        <ele>11</ele>
        <time>2021-06-12T00:15:12Z</time>
      </trkpt>
      <trkpt lat="45.93053" lon="-0.86604">
        <ele>12</ele>
        <time>2021-06-12T00:15:19Z</time>
      </trkpt>
      <trkpt lat="45.93086" lon="-0.86686">
        <ele>14</ele>
        <time>2021-06-12T00:15:30Z</time>
      </trkpt>
      <trkpt lat="45.93075" lon="-0.86698">
        <ele>13</ele>
        <time>2021-06-12T00:15:33Z</time>
      </trkpt>
      <trkpt lat="45.93056" lon="-0.86732">
        <ele>13</ele>
        <time>2021-06-12T00:15:38Z</time>
      </trkpt>
      <trkpt lat="45.93062" lon="-0.86751">
        <ele>13</ele>
        <time>2021-06-12T00:15:41Z</time>
      </trkpt>
      <trkpt lat="45.93064" lon="-0.86755">
        <ele>13</ele>
        <time>2021-06-12T00:15:41Z</time>
      </trkpt>
      <trkpt lat="45.9307" lon="-0.86794">
        <ele>11</ele>
        <time>2021-06-12T00:15:46Z</time>
      </trkpt>
      <trkpt lat="45.93073" lon="-0.86801">
        <ele>11</ele>
        <time>2021-06-12T00:15:47Z</time>
      </trkpt>
      <trkpt lat="45.93077" lon="-0.86806">
        <ele>11</ele>
        <time>2021-06-12T00:15:48Z</time>
      </trkpt>
      <trkpt lat="45.93072" lon="-0.86811">
        <ele>11</ele>
        <time>2021-06-12T00:15:49Z</time>
      </trkpt>
      <trkpt lat="45.93068" lon="-0.86815">
        <ele>10</ele>
        <time>2021-06-12T00:15:50Z</time>
      </trkpt>
      <trkpt lat="45.93048" lon="-0.86819">
        <ele>10</ele>
        <time>2021-06-12T00:15:54Z</time>
      </trkpt>
      <trkpt lat="45.92985" lon="-0.8683">
        <ele>8</ele>
        <time>2021-06-12T00:16:05Z</time>
      </trkpt>
      <trkpt lat="45.92958" lon="-0.86833">
        <ele>8</ele>
        <time>2021-06-12T00:16:10Z</time>
      </trkpt>
      <trkpt lat="45.92926" lon="-0.86835">
        <ele>7</ele>
        <time>2021-06-12T00:16:16Z</time>
      </trkpt>
      <trkpt lat="45.92908" lon="-0.86841">
        <ele>7</ele>
        <time>2021-06-12T00:16:19Z</time>
      </trkpt>
      <trkpt lat="45.92878" lon="-0.8686">
        <ele>5</ele>
        <time>2021-06-12T00:16:25Z</time>
      </trkpt>
      <trkpt lat="45.9287" lon="-0.86865">
        <ele>5</ele>
        <time>2021-06-12T00:16:26Z</time>
      </trkpt>
      <trkpt lat="45.92878" lon="-0.8686">
        <ele>5</ele>
        <time>2021-06-12T00:16:28Z</time>
      </trkpt>
      <trkpt lat="45.92879" lon="-0.86864">
        <ele>5</ele>
        <time>2021-06-12T00:16:28Z</time>
      </trkpt>
      <trkpt lat="45.92881" lon="-0.86869">
        <ele>5</ele>
        <time>2021-06-12T00:16:29Z</time>
      </trkpt>
      <trkpt lat="45.92937" lon="-0.86917">
        <ele>4</ele>
        <time>2021-06-12T00:16:41Z</time>
      </trkpt>
      <trkpt lat="45.93066" lon="-0.87037">
        <ele>2</ele>
        <time>2021-06-12T00:17:08Z</time>
      </trkpt>
      <trkpt lat="45.93085" lon="-0.87058">
        <ele>2</ele>
        <time>2021-06-12T00:17:12Z</time>
      </trkpt>
      <trkpt lat="45.93106" lon="-0.87076">
        <ele>2</ele>
        <time>2021-06-12T00:17:17Z</time>
      </trkpt>
      <trkpt lat="45.93122" lon="-0.87091">
        <ele>2</ele>
        <time>2021-06-12T00:17:20Z</time>
      </trkpt>
      <trkpt lat="45.93167" lon="-0.87138">
        <ele>2</ele>
        <time>2021-06-12T00:17:30Z</time>
      </trkpt>
      <trkpt lat="45.93505" lon="-0.87458">
        <ele>2</ele>
        <time>2021-06-12T00:18:42Z</time>
      </trkpt>
      <trkpt lat="45.93529" lon="-0.87479">
        <ele>3</ele>
        <time>2021-06-12T00:18:47Z</time>
      </trkpt>
      <trkpt lat="45.93722" lon="-0.87703">
        <ele>4</ele>
        <time>2021-06-12T00:19:31Z</time>
      </trkpt>
      <trkpt lat="45.93844" lon="-0.87852">
        <ele>5</ele>
        <time>2021-06-12T00:20:00Z</time>
      </trkpt>
      <trkpt lat="45.9391" lon="-0.87928">
        <ele>6</ele>
        <time>2021-06-12T00:20:15Z</time>
      </trkpt>
      <trkpt lat="45.93955" lon="-0.87972">
        <ele>6</ele>
        <time>2021-06-12T00:20:24Z</time>
      </trkpt>
      <trkpt lat="45.93988" lon="-0.88078">
        <ele>8</ele>
        <time>2021-06-12T00:20:39Z</time>
      </trkpt>
      <trkpt lat="45.93996" lon="-0.88118">
        <ele>8</ele>
        <time>2021-06-12T00:20:44Z</time>
      </trkpt>
      <trkpt lat="45.93994" lon="-0.8817">
        <ele>9</ele>
        <time>2021-06-12T00:20:50Z</time>
      </trkpt>
      <trkpt lat="45.93992" lon="-0.88184">
        <ele>9</ele>
        <time>2021-06-12T00:20:52Z</time>
      </trkpt>
      <trkpt lat="45.93986" lon="-0.88202">
        <ele>8</ele>
        <time>2021-06-12T00:20:54Z</time>
      </trkpt>
      <trkpt lat="45.93977" lon="-0.88212">
        <ele>8</ele>
        <time>2021-06-12T00:20:56Z</time>
      </trkpt>
      <trkpt lat="45.93917" lon="-0.88241">
        <ele>4</ele>
        <time>2021-06-12T00:21:08Z</time>
      </trkpt>
      <trkpt lat="45.9391" lon="-0.88248">
        <ele>4</ele>
        <time>2021-06-12T00:21:09Z</time>
      </trkpt>
      <trkpt lat="45.93908" lon="-0.88259">
        <ele>4</ele>
        <time>2021-06-12T00:21:11Z</time>
      </trkpt>
      <trkpt lat="45.93937" lon="-0.88335">
        <ele>5</ele>
        <time>2021-06-12T00:21:21Z</time>
      </trkpt>
      <trkpt lat="45.93961" lon="-0.88392">
        <ele>6</ele>
        <time>2021-06-12T00:21:30Z</time>
      </trkpt>
      <trkpt lat="45.93987" lon="-0.88452">
        <ele>6</ele>
        <time>2021-06-12T00:21:38Z</time>
      </trkpt>
      <trkpt lat="45.94015" lon="-0.88511">
        <ele>7</ele>
        <time>2021-06-12T00:21:47Z</time>
      </trkpt>
      <trkpt lat="45.94036" lon="-0.88549">
        <ele>8</ele>
        <time>2021-06-12T00:21:53Z</time>
      </trkpt>
      <trkpt lat="45.94044" lon="-0.88553">
        <ele>8</ele>
        <time>2021-06-12T00:21:55Z</time>
      </trkpt>
      <trkpt lat="45.94071" lon="-0.88598">
        <ele>6</ele>
        <time>2021-06-12T00:22:02Z</time>
      </trkpt>
      <trkpt lat="45.94126" lon="-0.88685">
        <ele>7</ele>
        <time>2021-06-12T00:22:17Z</time>
      </trkpt>
      <trkpt lat="45.94147" lon="-0.88728">
        <ele>7</ele>
        <time>2021-06-12T00:22:23Z</time>
      </trkpt>
      <trkpt lat="45.94187" lon="-0.88832">
        <ele>8</ele>
        <time>2021-06-12T00:22:38Z</time>
      </trkpt>
      <trkpt lat="45.94205" lon="-0.88872">
        <ele>7</ele>
        <time>2021-06-12T00:22:44Z</time>
      </trkpt>
      <trkpt lat="45.94235" lon="-0.88946">
        <ele>5</ele>
        <time>2021-06-12T00:22:54Z</time>
      </trkpt>
      <trkpt lat="45.94228" lon="-0.88966">
        <ele>5</ele>
        <time>2021-06-12T00:22:57Z</time>
      </trkpt>
      <trkpt lat="45.9423" lon="-0.88972">
        <ele>5</ele>
        <time>2021-06-12T00:22:58Z</time>
      </trkpt>
      <trkpt lat="45.94255" lon="-0.89155">
        <ele>4</ele>
        <time>2021-06-12T00:23:21Z</time>
      </trkpt>
      <trkpt lat="45.94267" lon="-0.89293">
        <ele>4</ele>
        <time>2021-06-12T00:23:38Z</time>
      </trkpt>
      <trkpt lat="45.94421" lon="-0.89289">
        <ele>8</ele>
        <time>2021-06-12T00:24:06Z</time>
      </trkpt>
      <trkpt lat="45.94422" lon="-0.89283">
        <ele>8</ele>
        <time>2021-06-12T00:24:06Z</time>
      </trkpt>
      <trkpt lat="45.94426" lon="-0.89279">
        <ele>8</ele>
        <time>2021-06-12T00:24:07Z</time>
      </trkpt>
      <trkpt lat="45.94432" lon="-0.89281">
        <ele>8</ele>
        <time>2021-06-12T00:24:08Z</time>
      </trkpt>
      <trkpt lat="45.94434" lon="-0.89284">
        <ele>8</ele>
        <time>2021-06-12T00:24:09Z</time>
      </trkpt>
      <trkpt lat="45.94434" lon="-0.89292">
        <ele>8</ele>
        <time>2021-06-12T00:24:10Z</time>
      </trkpt>
      <trkpt lat="45.94429" lon="-0.89298">
        <ele>8</ele>
        <time>2021-06-12T00:24:11Z</time>
      </trkpt>
      <trkpt lat="45.94435" lon="-0.89333">
        <ele>9</ele>
        <time>2021-06-12T00:24:15Z</time>
      </trkpt>
      <trkpt lat="45.94524" lon="-0.8964">
        <ele>14</ele>
        <time>2021-06-12T00:24:57Z</time>
      </trkpt>
      <trkpt lat="45.94539" lon="-0.89696">
        <ele>14</ele>
        <time>2021-06-12T00:25:04Z</time>
      </trkpt>
      <trkpt lat="45.94547" lon="-0.89698">
        <ele>15</ele>
        <time>2021-06-12T00:25:05Z</time>
      </trkpt>
      <trkpt lat="45.94569" lon="-0.89769">
        <ele>17</ele>
        <time>2021-06-12T00:25:15Z</time>
      </trkpt>
      <trkpt lat="45.94569" lon="-0.89781">
        <ele>17</ele>
        <time>2021-06-12T00:25:17Z</time>
      </trkpt>
      <trkpt lat="45.94576" lon="-0.89805">
        <ele>18</ele>
        <time>2021-06-12T00:25:20Z</time>
      </trkpt>
      <trkpt lat="45.9458" lon="-0.89812">
        <ele>18</ele>
        <time>2021-06-12T00:25:21Z</time>
      </trkpt>
      <trkpt lat="45.94586" lon="-0.89834">
        <ele>19</ele>
        <time>2021-06-12T00:25:24Z</time>
      </trkpt>
      <trkpt lat="45.94589" lon="-0.89853">
        <ele>19</ele>
        <time>2021-06-12T00:25:26Z</time>
      </trkpt>
      <trkpt lat="45.94595" lon="-0.89867">
        <ele>19</ele>
        <time>2021-06-12T00:25:28Z</time>
      </trkpt>
      <trkpt lat="45.94607" lon="-0.89918">
        <ele>20</ele>
        <time>2021-06-12T00:25:35Z</time>
      </trkpt>
      <trkpt lat="45.94606" lon="-0.89927">
        <ele>20</ele>
        <time>2021-06-12T00:25:36Z</time>
      </trkpt>
      <trkpt lat="45.94613" lon="-0.89961">
        <ele>20</ele>
        <time>2021-06-12T00:25:40Z</time>
      </trkpt>
      <trkpt lat="45.94659" lon="-0.90249">
        <ele>25</ele>
        <time>2021-06-12T00:26:17Z</time>
      </trkpt>
      <trkpt lat="45.94659" lon="-0.9026">
        <ele>25</ele>
        <time>2021-06-12T00:26:18Z</time>
      </trkpt>
      <trkpt lat="45.94663" lon="-0.90288">
        <ele>25</ele>
        <time>2021-06-12T00:26:22Z</time>
      </trkpt>
      <trkpt lat="45.94666" lon="-0.90298">
        <ele>26</ele>
        <time>2021-06-12T00:26:23Z</time>
      </trkpt>
      <trkpt lat="45.9467" lon="-0.90318">
        <ele>26</ele>
        <time>2021-06-12T00:26:26Z</time>
      </trkpt>
      <trkpt lat="45.9467" lon="-0.90334">
        <ele>26</ele>
        <time>2021-06-12T00:26:28Z</time>
      </trkpt>
      <trkpt lat="45.94674" lon="-0.90341">
        <ele>26</ele>
        <time>2021-06-12T00:26:29Z</time>
      </trkpt>
      <trkpt lat="45.94678" lon="-0.90386">
        <ele>26</ele>
        <time>2021-06-12T00:26:35Z</time>
      </trkpt>
      <trkpt lat="45.94683" lon="-0.90405">
        <ele>25</ele>
        <time>2021-06-12T00:26:37Z</time>
      </trkpt>
      <trkpt lat="45.94693" lon="-0.90466">
        <ele>25</ele>
        <time>2021-06-12T00:26:45Z</time>
      </trkpt>
      <trkpt lat="45.9474" lon="-0.90775">
        <ele>25</ele>
        <time>2021-06-12T00:27:24Z</time>
      </trkpt>
      <trkpt lat="45.94776" lon="-0.91">
        <ele>24</ele>
        <time>2021-06-12T00:27:53Z</time>
      </trkpt>
      <trkpt lat="45.94777" lon="-0.91003">
        <ele>24</ele>
        <time>2021-06-12T00:27:53Z</time>
      </trkpt>
      <trkpt lat="45.94782" lon="-0.91008">
        <ele>24</ele>
        <time>2021-06-12T00:27:54Z</time>
      </trkpt>
      <trkpt lat="45.94787" lon="-0.91007">
        <ele>24</ele>
        <time>2021-06-12T00:27:55Z</time>
      </trkpt>
      <trkpt lat="45.94797" lon="-0.90999">
        <ele>24</ele>
        <time>2021-06-12T00:27:57Z</time>
      </trkpt>
      <trkpt lat="45.9482" lon="-0.91001">
        <ele>23</ele>
        <time>2021-06-12T00:28:01Z</time>
      </trkpt>
      <trkpt lat="45.94823" lon="-0.911">
        <ele>24</ele>
        <time>2021-06-12T00:28:13Z</time>
      </trkpt>
      <trkpt lat="45.94816" lon="-0.9119">
        <ele>23</ele>
        <time>2021-06-12T00:28:25Z</time>
      </trkpt>
      <trkpt lat="45.94815" lon="-0.91252">
        <ele>24</ele>
        <time>2021-06-12T00:28:32Z</time>
      </trkpt>
      <trkpt lat="45.94818" lon="-0.91263">
        <ele>24</ele>
        <time>2021-06-12T00:28:34Z</time>
      </trkpt>
      <trkpt lat="45.94825" lon="-0.91302">
        <ele>24</ele>
        <time>2021-06-12T00:28:39Z</time>
      </trkpt>
      <trkpt lat="45.94919" lon="-0.91912">
        <ele>14</ele>
        <time>2021-06-12T00:29:56Z</time>
      </trkpt>
      <trkpt lat="45.94936" lon="-0.92033">
        <ele>9</ele>
        <time>2021-06-12T00:30:11Z</time>
      </trkpt>
      <trkpt lat="45.94972" lon="-0.92261">
        <ele>7</ele>
        <time>2021-06-12T00:30:40Z</time>
      </trkpt>
      <trkpt lat="45.94977" lon="-0.92304">
        <ele>6</ele>
        <time>2021-06-12T00:30:46Z</time>
      </trkpt>
      <trkpt lat="45.94981" lon="-0.92314">
        <ele>6</ele>
        <time>2021-06-12T00:30:47Z</time>
      </trkpt>
      <trkpt lat="45.94996" lon="-0.92409">
        <ele>5</ele>
        <time>2021-06-12T00:30:59Z</time>
      </trkpt>
      <trkpt lat="45.94996" lon="-0.92425">
        <ele>5</ele>
        <time>2021-06-12T00:31:01Z</time>
      </trkpt>
      <trkpt lat="45.95001" lon="-0.9245">
        <ele>5</ele>
        <time>2021-06-12T00:31:04Z</time>
      </trkpt>
      <trkpt lat="45.95003" lon="-0.92458">
        <ele>5</ele>
        <time>2021-06-12T00:31:05Z</time>
      </trkpt>
      <trkpt lat="45.95028" lon="-0.92615">
        <ele>5</ele>
        <time>2021-06-12T00:31:25Z</time>
      </trkpt>
      <trkpt lat="45.95028" lon="-0.92631">
        <ele>5</ele>
        <time>2021-06-12T00:31:27Z</time>
      </trkpt>
      <trkpt lat="45.95032" lon="-0.92643">
        <ele>5</ele>
        <time>2021-06-12T00:31:29Z</time>
      </trkpt>
      <trkpt lat="45.95032" lon="-0.92654">
        <ele>4</ele>
        <time>2021-06-12T00:31:30Z</time>
      </trkpt>
      <trkpt lat="45.95038" lon="-0.92691">
        <ele>4</ele>
        <time>2021-06-12T00:31:35Z</time>
      </trkpt>
      <trkpt lat="45.9504" lon="-0.92693">
        <ele>4</ele>
        <time>2021-06-12T00:31:35Z</time>
      </trkpt>
      <trkpt lat="45.95044" lon="-0.92713">
        <ele>4</ele>
        <time>2021-06-12T00:31:38Z</time>
      </trkpt>
      <trkpt lat="45.95043" lon="-0.9272">
        <ele>4</ele>
        <time>2021-06-12T00:31:39Z</time>
      </trkpt>
      <trkpt lat="45.95046" lon="-0.92742">
        <ele>4</ele>
        <time>2021-06-12T00:31:42Z</time>
      </trkpt>
      <trkpt lat="45.95065" lon="-0.92851">
        <ele>4</ele>
        <time>2021-06-12T00:31:55Z</time>
      </trkpt>
      <trkpt lat="45.95073" lon="-0.92923">
        <ele>5</ele>
        <time>2021-06-12T00:32:04Z</time>
      </trkpt>
      <trkpt lat="45.95074" lon="-0.92985">
        <ele>4</ele>
        <time>2021-06-12T00:32:12Z</time>
      </trkpt>
      <trkpt lat="45.95077" lon="-0.92992">
        <ele>4</ele>
        <time>2021-06-12T00:32:13Z</time>
      </trkpt>
      <trkpt lat="45.95092" lon="-0.93004">
        <ele>4</ele>
        <time>2021-06-12T00:32:16Z</time>
      </trkpt>
      <trkpt lat="45.95098" lon="-0.93015">
        <ele>4</ele>
        <time>2021-06-12T00:32:18Z</time>
      </trkpt>
      <trkpt lat="45.951" lon="-0.93023">
        <ele>4</ele>
        <time>2021-06-12T00:32:19Z</time>
      </trkpt>
      <trkpt lat="45.95102" lon="-0.93042">
        <ele>4</ele>
        <time>2021-06-12T00:32:21Z</time>
      </trkpt>
      <trkpt lat="45.95107" lon="-0.93054">
        <ele>4</ele>
        <time>2021-06-12T00:32:23Z</time>
      </trkpt>
      <trkpt lat="45.95101" lon="-0.93066">
        <ele>5</ele>
        <time>2021-06-12T00:32:25Z</time>
      </trkpt>
      <trkpt lat="45.95096" lon="-0.93062">
        <ele>5</ele>
        <time>2021-06-12T00:32:26Z</time>
      </trkpt>
      <trkpt lat="45.95087" lon="-0.93062">
        <ele>5</ele>
        <time>2021-06-12T00:32:28Z</time>
      </trkpt>
      <trkpt lat="45.95077" lon="-0.93067">
        <ele>5</ele>
        <time>2021-06-12T00:32:29Z</time>
      </trkpt>
      <trkpt lat="45.95072" lon="-0.93073">
        <ele>5</ele>
        <time>2021-06-12T00:32:31Z</time>
      </trkpt>
      <trkpt lat="45.95071" lon="-0.93078">
        <ele>5</ele>
        <time>2021-06-12T00:32:31Z</time>
      </trkpt>
      <trkpt lat="45.95069" lon="-0.93285">
        <ele>7</ele>
        <time>2021-06-12T00:32:57Z</time>
      </trkpt>
      <trkpt lat="45.9507" lon="-0.93305">
        <ele>6</ele>
        <time>2021-06-12T00:32:59Z</time>
      </trkpt>
      <trkpt lat="45.95069" lon="-0.93375">
        <ele>5</ele>
        <time>2021-06-12T00:33:08Z</time>
      </trkpt>
      <trkpt lat="45.95069" lon="-0.93387">
        <ele>5</ele>
        <time>2021-06-12T00:33:09Z</time>
      </trkpt>
      <trkpt lat="45.95066" lon="-0.93399">
        <ele>5</ele>
        <time>2021-06-12T00:33:11Z</time>
      </trkpt>
      <trkpt lat="45.95065" lon="-0.93588">
        <ele>4</ele>
        <time>2021-06-12T00:33:34Z</time>
      </trkpt>
      <trkpt lat="45.95062" lon="-0.93742">
        <ele>3</ele>
        <time>2021-06-12T00:33:53Z</time>
      </trkpt>
      <trkpt lat="45.95055" lon="-0.93758">
        <ele>3</ele>
        <time>2021-06-12T00:33:56Z</time>
      </trkpt>
      <trkpt lat="45.95054" lon="-0.93819">
        <ele>3</ele>
        <time>2021-06-12T00:34:03Z</time>
      </trkpt>
      <trkpt lat="45.95054" lon="-0.93866">
        <ele>3</ele>
        <time>2021-06-12T00:34:09Z</time>
      </trkpt>
      <trkpt lat="45.95054" lon="-0.93876">
        <ele>3</ele>
        <time>2021-06-12T00:34:10Z</time>
      </trkpt>
      <trkpt lat="45.95052" lon="-0.94041">
        <ele>2</ele>
        <time>2021-06-12T00:34:31Z</time>
      </trkpt>
      <trkpt lat="45.95052" lon="-0.94046">
        <ele>2</ele>
        <time>2021-06-12T00:34:31Z</time>
      </trkpt>
      <trkpt lat="45.95052" lon="-0.94055">
        <ele>2</ele>
        <time>2021-06-12T00:34:33Z</time>
      </trkpt>
      <trkpt lat="45.95052" lon="-0.941">
        <ele>2</ele>
        <time>2021-06-12T00:34:38Z</time>
      </trkpt>
      <trkpt lat="45.95052" lon="-0.94112">
        <ele>2</ele>
        <time>2021-06-12T00:34:40Z</time>
      </trkpt>
      <trkpt lat="45.95052" lon="-0.94118">
        <ele>3</ele>
        <time>2021-06-12T00:34:40Z</time>
      </trkpt>
      <trkpt lat="45.95052" lon="-0.94127">
        <ele>3</ele>
        <time>2021-06-12T00:34:41Z</time>
      </trkpt>
      <trkpt lat="45.95044" lon="-0.94126">
        <ele>3</ele>
        <time>2021-06-12T00:34:43Z</time>
      </trkpt>
      <trkpt lat="45.95032" lon="-0.9447">
        <ele>3</ele>
        <time>2021-06-12T00:35:26Z</time>
      </trkpt>
      <trkpt lat="45.95029" lon="-0.94498">
        <ele>3</ele>
        <time>2021-06-12T00:35:29Z</time>
      </trkpt>
      <trkpt lat="45.95023" lon="-0.94529">
        <ele>3</ele>
        <time>2021-06-12T00:35:33Z</time>
      </trkpt>
      <trkpt lat="45.94984" lon="-0.94524">
        <ele>3</ele>
        <time>2021-06-12T00:35:40Z</time>
      </trkpt>
      <trkpt lat="45.9498" lon="-0.94588">
        <ele>3</ele>
        <time>2021-06-12T00:35:48Z</time>
      </trkpt>
      <trkpt lat="45.94973" lon="-0.94639">
        <ele>5</ele>
        <time>2021-06-12T00:35:54Z</time>
      </trkpt>
      <trkpt lat="45.94948" lon="-0.94757">
        <ele>6</ele>
        <time>2021-06-12T00:36:10Z</time>
      </trkpt>
      <trkpt lat="45.9495" lon="-0.94769">
        <ele>6</ele>
        <time>2021-06-12T00:36:11Z</time>
      </trkpt>
      <trkpt lat="45.94954" lon="-0.94774">
        <ele>6</ele>
        <time>2021-06-12T00:36:12Z</time>
      </trkpt>
      <trkpt lat="45.94944" lon="-0.94803">
        <ele>5</ele>
        <time>2021-06-12T00:36:16Z</time>
      </trkpt>
      <trkpt lat="45.94937" lon="-0.94823">
        <ele>5</ele>
        <time>2021-06-12T00:36:19Z</time>
      </trkpt>
      <trkpt lat="45.94915" lon="-0.94888">
        <ele>6</ele>
        <time>2021-06-12T00:36:28Z</time>
      </trkpt>
      <trkpt lat="45.9489" lon="-0.94957">
        <ele>6</ele>
        <time>2021-06-12T00:36:37Z</time>
      </trkpt>
      <trkpt lat="45.94852" lon="-0.95049">
        <ele>4</ele>
        <time>2021-06-12T00:36:51Z</time>
      </trkpt>
      <trkpt lat="45.94811" lon="-0.95132">
        <ele>4</ele>
        <time>2021-06-12T00:37:03Z</time>
      </trkpt>
      <trkpt lat="45.9479" lon="-0.95171">
        <ele>4</ele>
        <time>2021-06-12T00:37:09Z</time>
      </trkpt>
      <trkpt lat="45.94747" lon="-0.95247">
        <ele>5</ele>
        <time>2021-06-12T00:37:21Z</time>
      </trkpt>
      <trkpt lat="45.94706" lon="-0.95322">
        <ele>4</ele>
        <time>2021-06-12T00:37:33Z</time>
      </trkpt>
      <trkpt lat="45.94678" lon="-0.95371">
        <ele>4</ele>
        <time>2021-06-12T00:37:41Z</time>
      </trkpt>
      <trkpt lat="45.94652" lon="-0.95418">
        <ele>4</ele>
        <time>2021-06-12T00:37:49Z</time>
      </trkpt>
      <trkpt lat="45.94648" lon="-0.95425">
        <ele>4</ele>
        <time>2021-06-12T00:37:50Z</time>
      </trkpt>
      <trkpt lat="45.94646" lon="-0.95429">
        <ele>4</ele>
        <time>2021-06-12T00:37:50Z</time>
      </trkpt>
      <trkpt lat="45.94643" lon="-0.95426">
        <ele>4</ele>
        <time>2021-06-12T00:37:51Z</time>
      </trkpt>
      <trkpt lat="45.94628" lon="-0.95456">
        <ele>5</ele>
        <time>2021-06-12T00:37:56Z</time>
      </trkpt>
      <trkpt lat="45.94603" lon="-0.95498">
        <ele>5</ele>
        <time>2021-06-12T00:38:02Z</time>
      </trkpt>
      <trkpt lat="45.94582" lon="-0.9553">
        <ele>5</ele>
        <time>2021-06-12T00:38:08Z</time>
      </trkpt>
      <trkpt lat="45.94545" lon="-0.95596">
        <ele>5</ele>
        <time>2021-06-12T00:38:18Z</time>
      </trkpt>
      <trkpt lat="45.94548" lon="-0.95608">
        <ele>5</ele>
        <time>2021-06-12T00:38:20Z</time>
      </trkpt>
      <trkpt lat="45.9454" lon="-0.95623">
        <ele>5</ele>
        <time>2021-06-12T00:38:22Z</time>
      </trkpt>
      <trkpt lat="45.94518" lon="-0.95676">
        <ele>4</ele>
        <time>2021-06-12T00:38:30Z</time>
      </trkpt>
      <trkpt lat="45.94508" lon="-0.95702">
        <ele>4</ele>
        <time>2021-06-12T00:38:34Z</time>
      </trkpt>
      <trkpt lat="45.94483" lon="-0.95775">
        <ele>4</ele>
        <time>2021-06-12T00:38:44Z</time>
      </trkpt>
      <trkpt lat="45.94466" lon="-0.95823">
        <ele>4</ele>
        <time>2021-06-12T00:38:50Z</time>
      </trkpt>
      <trkpt lat="45.94448" lon="-0.95856">
        <ele>4</ele>
        <time>2021-06-12T00:38:55Z</time>
      </trkpt>
      <trkpt lat="45.94446" lon="-0.9586">
        <ele>4</ele>
        <time>2021-06-12T00:38:56Z</time>
      </trkpt>
      <trkpt lat="45.9443" lon="-0.95888">
        <ele>4</ele>
        <time>2021-06-12T00:39:01Z</time>
      </trkpt>
      <trkpt lat="45.94423" lon="-0.95899">
        <ele>4</ele>
        <time>2021-06-12T00:39:02Z</time>
      </trkpt>
      <trkpt lat="45.94405" lon="-0.9588">
        <ele>5</ele>
        <time>2021-06-12T00:39:06Z</time>
      </trkpt>
      <trkpt lat="45.94398" lon="-0.95869">
        <ele>5</ele>
        <time>2021-06-12T00:39:08Z</time>
      </trkpt>
      <trkpt lat="45.94381" lon="-0.95833">
        <ele>5</ele>
        <time>2021-06-12T00:39:14Z</time>
      </trkpt>
      <trkpt lat="45.9437" lon="-0.95816">
        <ele>5</ele>
        <time>2021-06-12T00:39:16Z</time>
      </trkpt>
      <trkpt lat="45.94346" lon="-0.95793">
        <ele>6</ele>
        <time>2021-06-12T00:39:22Z</time>
      </trkpt>
      <trkpt lat="45.94316" lon="-0.95857">
        <ele>9</ele>
        <time>2021-06-12T00:39:31Z</time>
      </trkpt>
      <trkpt lat="45.94306" lon="-0.95878">
        <ele>10</ele>
        <time>2021-06-12T00:39:34Z</time>
      </trkpt>
      <trkpt lat="45.94255" lon="-0.95989">
        <ele>15</ele>
        <time>2021-06-12T00:39:51Z</time>
      </trkpt>
      <trkpt lat="45.94172" lon="-0.95911">
        <ele>17</ele>
        <time>2021-06-12T00:40:08Z</time>
      </trkpt>
      <trkpt lat="45.94093" lon="-0.95832">
        <ele>16</ele>
        <time>2021-06-12T00:40:25Z</time>
      </trkpt>
      <trkpt lat="45.9409" lon="-0.95836">
        <ele>16</ele>
        <time>2021-06-12T00:40:26Z</time>
      </trkpt>
      <trkpt lat="45.94087" lon="-0.95835">
        <ele>16</ele>
        <time>2021-06-12T00:40:27Z</time>
      </trkpt>
      <trkpt lat="45.94076" lon="-0.9584">
        <ele>16</ele>
        <time>2021-06-12T00:40:29Z</time>
      </trkpt>
      <trkpt lat="45.94046" lon="-0.95811">
        <ele>15</ele>
        <time>2021-06-12T00:40:35Z</time>
      </trkpt>
      <trkpt lat="45.94014" lon="-0.95809">
        <ele>15</ele>
        <time>2021-06-12T00:40:41Z</time>
      </trkpt>
      <trkpt lat="45.9392" lon="-0.95812">
        <ele>15</ele>
        <time>2021-06-12T00:40:58Z</time>
      </trkpt>
      <trkpt lat="45.93925" lon="-0.95858">
        <ele>15</ele>
        <time>2021-06-12T00:41:03Z</time>
      </trkpt>
      <trkpt lat="45.93923" lon="-0.95862">
        <ele>15</ele>
        <time>2021-06-12T00:41:04Z</time>
      </trkpt>
      <trkpt lat="45.93918" lon="-0.95864">
        <ele>15</ele>
        <time>2021-06-12T00:41:05Z</time>
      </trkpt>
      <trkpt lat="45.93687" lon="-0.95917">
        <ele>13</ele>
        <time>2021-06-12T00:41:47Z</time>
      </trkpt>
      <trkpt lat="45.93232" lon="-0.96026">
        <ele>8</ele>
        <time>2021-06-12T00:43:09Z</time>
      </trkpt>
      <trkpt lat="45.93224" lon="-0.96023">
        <ele>8</ele>
        <time>2021-06-12T00:43:10Z</time>
      </trkpt>
      <trkpt lat="45.93212" lon="-0.9603">
        <ele>8</ele>
        <time>2021-06-12T00:43:12Z</time>
      </trkpt>
      <trkpt lat="45.9313" lon="-0.96049">
        <ele>6</ele>
        <time>2021-06-12T00:43:27Z</time>
      </trkpt>
      <trkpt lat="45.93122" lon="-0.96054">
        <ele>6</ele>
        <time>2021-06-12T00:43:29Z</time>
      </trkpt>
      <trkpt lat="45.93101" lon="-0.96057">
        <ele>5</ele>
        <time>2021-06-12T00:43:33Z</time>
      </trkpt>
      <trkpt lat="45.93083" lon="-0.96055">
        <ele>5</ele>
        <time>2021-06-12T00:43:36Z</time>
      </trkpt>
      <trkpt lat="45.93076" lon="-0.96064">
        <ele>5</ele>
        <time>2021-06-12T00:43:37Z</time>
      </trkpt>
      <trkpt lat="45.9307" lon="-0.96066">
        <ele>5</ele>
        <time>2021-06-12T00:43:39Z</time>
      </trkpt>
      <trkpt lat="45.93059" lon="-0.96063">
        <ele>4</ele>
        <time>2021-06-12T00:43:41Z</time>
      </trkpt>
      <trkpt lat="45.93054" lon="-0.96057">
        <ele>4</ele>
        <time>2021-06-12T00:43:42Z</time>
      </trkpt>
      <trkpt lat="45.93047" lon="-0.96034">
        <ele>4</ele>
        <time>2021-06-12T00:43:45Z</time>
      </trkpt>
      <trkpt lat="45.93038" lon="-0.9602">
        <ele>4</ele>
        <time>2021-06-12T00:43:47Z</time>
      </trkpt>
      <trkpt lat="45.93021" lon="-0.95981">
        <ele>4</ele>
        <time>2021-06-12T00:43:53Z</time>
      </trkpt>
      <trkpt lat="45.93021" lon="-0.95976">
        <ele>4</ele>
        <time>2021-06-12T00:43:53Z</time>
      </trkpt>
      <trkpt lat="45.93022" lon="-0.95969">
        <ele>4</ele>
        <time>2021-06-12T00:43:54Z</time>
      </trkpt>
      <trkpt lat="45.93002" lon="-0.95782">
        <ele>4</ele>
        <time>2021-06-12T00:44:18Z</time>
      </trkpt>
      <trkpt lat="45.92997" lon="-0.95764">
        <ele>4</ele>
        <time>2021-06-12T00:44:20Z</time>
      </trkpt>
      <trkpt lat="45.9299" lon="-0.95752">
        <ele>4</ele>
        <time>2021-06-12T00:44:22Z</time>
      </trkpt>
      <trkpt lat="45.92901" lon="-0.95654">
        <ele>3</ele>
        <time>2021-06-12T00:44:42Z</time>
      </trkpt>
      <trkpt lat="45.92862" lon="-0.95613">
        <ele>3</ele>
        <time>2021-06-12T00:44:51Z</time>
      </trkpt>
      <trkpt lat="45.92753" lon="-0.95489">
        <ele>5</ele>
        <time>2021-06-12T00:45:15Z</time>
      </trkpt>
      <trkpt lat="45.92748" lon="-0.95491">
        <ele>5</ele>
        <time>2021-06-12T00:45:16Z</time>
      </trkpt>
      <trkpt lat="45.92747" lon="-0.95487">
        <ele>5</ele>
        <time>2021-06-12T00:45:17Z</time>
      </trkpt>
      <trkpt lat="45.92748" lon="-0.95485">
        <ele>5</ele>
        <time>2021-06-12T00:45:17Z</time>
      </trkpt>
      <trkpt lat="45.92719" lon="-0.95451">
        <ele>4</ele>
        <time>2021-06-12T00:45:24Z</time>
      </trkpt>
      <trkpt lat="45.9271" lon="-0.95423">
        <ele>4</ele>
        <time>2021-06-12T00:45:28Z</time>
      </trkpt>
      <trkpt lat="45.92708" lon="-0.95399">
        <ele>4</ele>
        <time>2021-06-12T00:45:31Z</time>
      </trkpt>
      <trkpt lat="45.92705" lon="-0.95394">
        <ele>4</ele>
        <time>2021-06-12T00:45:31Z</time>
      </trkpt>
      <trkpt lat="45.92705" lon="-0.9539">
        <ele>4</ele>
        <time>2021-06-12T00:45:32Z</time>
      </trkpt>
      <trkpt lat="45.92709" lon="-0.95388">
        <ele>4</ele>
        <time>2021-06-12T00:45:33Z</time>
      </trkpt>
      <trkpt lat="45.92716" lon="-0.95332">
        <ele>3</ele>
        <time>2021-06-12T00:45:40Z</time>
      </trkpt>
      <trkpt lat="45.92718" lon="-0.95326">
        <ele>3</ele>
        <time>2021-06-12T00:45:41Z</time>
      </trkpt>
      <trkpt lat="45.92723" lon="-0.95329">
        <ele>3</ele>
        <time>2021-06-12T00:45:41Z</time>
      </trkpt>
      <trkpt lat="45.92738" lon="-0.95334">
        <ele>3</ele>
        <time>2021-06-12T00:45:44Z</time>
      </trkpt>
      <trkpt lat="45.92744" lon="-0.9532">
        <ele>3</ele>
        <time>2021-06-12T00:45:46Z</time>
      </trkpt>
      <trkpt lat="45.92746" lon="-0.95315">
        <ele>3</ele>
        <time>2021-06-12T00:45:47Z</time>
      </trkpt>
      <trkpt lat="45.92748" lon="-0.95312">
        <ele>3</ele>
        <time>2021-06-12T00:45:47Z</time>
      </trkpt>
      <trkpt lat="45.92744" lon="-0.95295">
        <ele>3</ele>
        <time>2021-06-12T00:45:50Z</time>
      </trkpt>
      <trkpt lat="45.92724" lon="-0.95246">
        <ele>4</ele>
        <time>2021-06-12T00:45:57Z</time>
      </trkpt>
      <trkpt lat="45.92717" lon="-0.9523">
        <ele>5</ele>
        <time>2021-06-12T00:45:59Z</time>
      </trkpt>
      <trkpt lat="45.92716" lon="-0.95204">
        <ele>5</ele>
        <time>2021-06-12T00:46:02Z</time>
      </trkpt>
      <trkpt lat="45.92724" lon="-0.95164">
        <ele>5</ele>
        <time>2021-06-12T00:46:07Z</time>
      </trkpt>
      <trkpt lat="45.92724" lon="-0.95153">
        <ele>5</ele>
        <time>2021-06-12T00:46:09Z</time>
      </trkpt>
      <trkpt lat="45.92725" lon="-0.95123">
        <ele>5</ele>
        <time>2021-06-12T00:46:13Z</time>
      </trkpt>
      <trkpt lat="45.92715" lon="-0.95086">
        <ele>5</ele>
        <time>2021-06-12T00:46:17Z</time>
      </trkpt>
      <trkpt lat="45.92689" lon="-0.95059">
        <ele>5</ele>
        <time>2021-06-12T00:46:23Z</time>
      </trkpt>
      <trkpt lat="45.92682" lon="-0.95047">
        <ele>5</ele>
        <time>2021-06-12T00:46:25Z</time>
      </trkpt>
      <trkpt lat="45.92678" lon="-0.95027">
        <ele>6</ele>
        <time>2021-06-12T00:46:28Z</time>
      </trkpt>
      <trkpt lat="45.92677" lon="-0.95009">
        <ele>6</ele>
        <time>2021-06-12T00:46:30Z</time>
      </trkpt>
      <trkpt lat="45.92679" lon="-0.94993">
        <ele>5</ele>
        <time>2021-06-12T00:46:32Z</time>
      </trkpt>
      <trkpt lat="45.92678" lon="-0.94975">
        <ele>5</ele>
        <time>2021-06-12T00:46:34Z</time>
      </trkpt>
      <trkpt lat="45.92681" lon="-0.9496">
        <ele>4</ele>
        <time>2021-06-12T00:46:36Z</time>
      </trkpt>
      <trkpt lat="45.92685" lon="-0.9495">
        <ele>4</ele>
        <time>2021-06-12T00:46:37Z</time>
      </trkpt>
      <trkpt lat="45.92681" lon="-0.94945">
        <ele>4</ele>
        <time>2021-06-12T00:46:38Z</time>
      </trkpt>
      <trkpt lat="45.92676" lon="-0.9494">
        <ele>4</ele>
        <time>2021-06-12T00:46:40Z</time>
      </trkpt>
      <trkpt lat="45.92658" lon="-0.94933">
        <ele>4</ele>
        <time>2021-06-12T00:46:43Z</time>
      </trkpt>
      <trkpt lat="45.92611" lon="-0.94934">
        <ele>4</ele>
        <time>2021-06-12T00:46:51Z</time>
      </trkpt>
      <trkpt lat="45.9255" lon="-0.9493">
        <ele>4</ele>
        <time>2021-06-12T00:47:02Z</time>
      </trkpt>
      <trkpt lat="45.92527" lon="-0.9493">
        <ele>4</ele>
        <time>2021-06-12T00:47:06Z</time>
      </trkpt>
      <trkpt lat="45.92504" lon="-0.9493">
        <ele>3</ele>
        <time>2021-06-12T00:47:10Z</time>
      </trkpt>
      <trkpt lat="45.9248" lon="-0.94927">
        <ele>3</ele>
        <time>2021-06-12T00:47:15Z</time>
      </trkpt>
      <trkpt lat="45.92472" lon="-0.94928">
        <ele>3</ele>
        <time>2021-06-12T00:47:16Z</time>
      </trkpt>
      <trkpt lat="45.92459" lon="-0.94925">
        <ele>2</ele>
        <time>2021-06-12T00:47:18Z</time>
      </trkpt>
      <trkpt lat="45.92424" lon="-0.94945">
        <ele>2</ele>
        <time>2021-06-12T00:47:25Z</time>
      </trkpt>
      <trkpt lat="45.92316" lon="-0.95013">
        <ele>1</ele>
        <time>2021-06-12T00:47:46Z</time>
      </trkpt>
      <trkpt lat="45.92314" lon="-0.95021">
        <ele>1</ele>
        <time>2021-06-12T00:47:47Z</time>
      </trkpt>
      <trkpt lat="45.92308" lon="-0.95026">
        <ele>1</ele>
        <time>2021-06-12T00:47:48Z</time>
      </trkpt>
      <trkpt lat="45.92306" lon="-0.9503">
        <ele>1</ele>
        <time>2021-06-12T00:47:49Z</time>
      </trkpt>
      <trkpt lat="45.92306" lon="-0.95034">
        <ele>1</ele>
        <time>2021-06-12T00:47:49Z</time>
      </trkpt>
      <trkpt lat="45.9233" lon="-0.95111">
        <ele>2</ele>
        <time>2021-06-12T00:48:00Z</time>
      </trkpt>
      <trkpt lat="45.92329" lon="-0.95119">
        <ele>2</ele>
        <time>2021-06-12T00:48:01Z</time>
      </trkpt>
      <trkpt lat="45.92326" lon="-0.95121">
        <ele>2</ele>
        <time>2021-06-12T00:48:01Z</time>
      </trkpt>
      <trkpt lat="45.92329" lon="-0.95119">
        <ele>2</ele>
        <time>2021-06-12T00:48:02Z</time>
      </trkpt>
      <trkpt lat="45.9233" lon="-0.95111">
        <ele>2</ele>
        <time>2021-06-12T00:48:03Z</time>
      </trkpt>
      <trkpt lat="45.92306" lon="-0.95034">
        <ele>1</ele>
        <time>2021-06-12T00:48:13Z</time>
      </trkpt>
      <trkpt lat="45.92306" lon="-0.9503">
        <ele>1</ele>
        <time>2021-06-12T00:48:14Z</time>
      </trkpt>
      <trkpt lat="45.92308" lon="-0.95026">
        <ele>1</ele>
        <time>2021-06-12T00:48:15Z</time>
      </trkpt>
      <trkpt lat="45.92314" lon="-0.95021">
        <ele>1</ele>
        <time>2021-06-12T00:48:16Z</time>
      </trkpt>
      <trkpt lat="45.92316" lon="-0.95013">
        <ele>1</ele>
        <time>2021-06-12T00:48:17Z</time>
      </trkpt>
      <trkpt lat="45.92424" lon="-0.94945">
        <ele>2</ele>
        <time>2021-06-12T00:48:38Z</time>
      </trkpt>
      <trkpt lat="45.92459" lon="-0.94925">
        <ele>2</ele>
        <time>2021-06-12T00:48:45Z</time>
      </trkpt>
      <trkpt lat="45.92472" lon="-0.94928">
        <ele>3</ele>
        <time>2021-06-12T00:48:47Z</time>
      </trkpt>
      <trkpt lat="45.9248" lon="-0.94927">
        <ele>3</ele>
        <time>2021-06-12T00:48:48Z</time>
      </trkpt>
      <trkpt lat="45.92504" lon="-0.9493">
        <ele>3</ele>
        <time>2021-06-12T00:48:53Z</time>
      </trkpt>
      <trkpt lat="45.92527" lon="-0.9493">
        <ele>4</ele>
        <time>2021-06-12T00:48:57Z</time>
      </trkpt>
      <trkpt lat="45.9255" lon="-0.9493">
        <ele>4</ele>
        <time>2021-06-12T00:49:01Z</time>
      </trkpt>
      <trkpt lat="45.92611" lon="-0.94934">
        <ele>4</ele>
        <time>2021-06-12T00:49:12Z</time>
      </trkpt>
      <trkpt lat="45.92658" lon="-0.94933">
        <ele>4</ele>
        <time>2021-06-12T00:49:20Z</time>
      </trkpt>
      <trkpt lat="45.92676" lon="-0.9494">
        <ele>4</ele>
        <time>2021-06-12T00:49:23Z</time>
      </trkpt>
      <trkpt lat="45.92681" lon="-0.94945">
        <ele>4</ele>
        <time>2021-06-12T00:49:24Z</time>
      </trkpt>
      <trkpt lat="45.92685" lon="-0.9495">
        <ele>4</ele>
        <time>2021-06-12T00:49:25Z</time>
      </trkpt>
      <trkpt lat="45.92681" lon="-0.9496">
        <ele>4</ele>
        <time>2021-06-12T00:49:27Z</time>
      </trkpt>
      <trkpt lat="45.92678" lon="-0.94975">
        <ele>5</ele>
        <time>2021-06-12T00:49:29Z</time>
      </trkpt>
      <trkpt lat="45.92679" lon="-0.94993">
        <ele>5</ele>
        <time>2021-06-12T00:49:31Z</time>
      </trkpt>
      <trkpt lat="45.92677" lon="-0.95009">
        <ele>6</ele>
        <time>2021-06-12T00:49:33Z</time>
      </trkpt>
      <trkpt lat="45.92678" lon="-0.95027">
        <ele>6</ele>
        <time>2021-06-12T00:49:35Z</time>
      </trkpt>
      <trkpt lat="45.92682" lon="-0.95047">
        <ele>5</ele>
        <time>2021-06-12T00:49:38Z</time>
      </trkpt>
      <trkpt lat="45.92689" lon="-0.95059">
        <ele>5</ele>
        <time>2021-06-12T00:49:40Z</time>
      </trkpt>
      <trkpt lat="45.92715" lon="-0.95086">
        <ele>5</ele>
        <time>2021-06-12T00:49:45Z</time>
      </trkpt>
      <trkpt lat="45.92725" lon="-0.95123">
        <ele>5</ele>
        <time>2021-06-12T00:49:50Z</time>
      </trkpt>
      <trkpt lat="45.92724" lon="-0.95153">
        <ele>5</ele>
        <time>2021-06-12T00:49:54Z</time>
      </trkpt>
      <trkpt lat="45.92724" lon="-0.95164">
        <ele>5</ele>
        <time>2021-06-12T00:49:55Z</time>
      </trkpt>
      <trkpt lat="45.92716" lon="-0.95204">
        <ele>5</ele>
        <time>2021-06-12T00:50:01Z</time>
      </trkpt>
      <trkpt lat="45.92717" lon="-0.9523">
        <ele>5</ele>
        <time>2021-06-12T00:50:04Z</time>
      </trkpt>
      <trkpt lat="45.92724" lon="-0.95246">
        <ele>4</ele>
        <time>2021-06-12T00:50:06Z</time>
      </trkpt>
      <trkpt lat="45.92744" lon="-0.95295">
        <ele>3</ele>
        <time>2021-06-12T00:50:13Z</time>
      </trkpt>
      <trkpt lat="45.92748" lon="-0.95312">
        <ele>3</ele>
        <time>2021-06-12T00:50:15Z</time>
      </trkpt>
      <trkpt lat="45.92746" lon="-0.95315">
        <ele>3</ele>
        <time>2021-06-12T00:50:16Z</time>
      </trkpt>
      <trkpt lat="45.92744" lon="-0.9532">
        <ele>3</ele>
        <time>2021-06-12T00:50:17Z</time>
      </trkpt>
      <trkpt lat="45.92738" lon="-0.95334">
        <ele>3</ele>
        <time>2021-06-12T00:50:19Z</time>
      </trkpt>
      <trkpt lat="45.92723" lon="-0.95329">
        <ele>3</ele>
        <time>2021-06-12T00:50:21Z</time>
      </trkpt>
      <trkpt lat="45.92718" lon="-0.95326">
        <ele>3</ele>
        <time>2021-06-12T00:50:22Z</time>
      </trkpt>
      <trkpt lat="45.92716" lon="-0.95332">
        <ele>3</ele>
        <time>2021-06-12T00:50:23Z</time>
      </trkpt>
      <trkpt lat="45.92709" lon="-0.95388">
        <ele>4</ele>
        <time>2021-06-12T00:50:30Z</time>
      </trkpt>
      <trkpt lat="45.92712" lon="-0.95394">
        <ele>4</ele>
        <time>2021-06-12T00:50:31Z</time>
      </trkpt>
      <trkpt lat="45.92709" lon="-0.95399">
        <ele>4</ele>
        <time>2021-06-12T00:50:32Z</time>
      </trkpt>
      <trkpt lat="45.92707" lon="-0.95399">
        <ele>4</ele>
        <time>2021-06-12T00:50:32Z</time>
      </trkpt>
      <trkpt lat="45.92705" lon="-0.95394">
        <ele>4</ele>
        <time>2021-06-12T00:50:33Z</time>
      </trkpt>
      <trkpt lat="45.92638" lon="-0.95387">
        <ele>4</ele>
        <time>2021-06-12T00:50:45Z</time>
      </trkpt>
      <trkpt lat="45.92614" lon="-0.95394">
        <ele>4</ele>
        <time>2021-06-12T00:50:49Z</time>
      </trkpt>
      <trkpt lat="45.92602" lon="-0.95403">
        <ele>4</ele>
        <time>2021-06-12T00:50:52Z</time>
      </trkpt>
      <trkpt lat="45.92592" lon="-0.95416">
        <ele>4</ele>
        <time>2021-06-12T00:50:54Z</time>
      </trkpt>
      <trkpt lat="45.92584" lon="-0.95435">
        <ele>4</ele>
        <time>2021-06-12T00:50:57Z</time>
      </trkpt>
      <trkpt lat="45.92525" lon="-0.95611">
        <ele>4</ele>
        <time>2021-06-12T00:51:21Z</time>
      </trkpt>
      <trkpt lat="45.92522" lon="-0.95644">
        <ele>3</ele>
        <time>2021-06-12T00:51:25Z</time>
      </trkpt>
      <trkpt lat="45.92526" lon="-0.9568">
        <ele>3</ele>
        <time>2021-06-12T00:51:30Z</time>
      </trkpt>
      <trkpt lat="45.92529" lon="-0.95682">
        <ele>3</ele>
        <time>2021-06-12T00:51:30Z</time>
      </trkpt>
      <trkpt lat="45.92531" lon="-0.95688">
        <ele>3</ele>
        <time>2021-06-12T00:51:31Z</time>
      </trkpt>
      <trkpt lat="45.92527" lon="-0.957">
        <ele>3</ele>
        <time>2021-06-12T00:51:33Z</time>
      </trkpt>
      <trkpt lat="45.92528" lon="-0.95702">
        <ele>3</ele>
        <time>2021-06-12T00:51:33Z</time>
      </trkpt>
      <trkpt lat="45.92526" lon="-0.9571">
        <ele>3</ele>
        <time>2021-06-12T00:51:34Z</time>
      </trkpt>
      <trkpt lat="45.92521" lon="-0.95711">
        <ele>3</ele>
        <time>2021-06-12T00:51:35Z</time>
      </trkpt>
      <trkpt lat="45.92518" lon="-0.95707">
        <ele>3</ele>
        <time>2021-06-12T00:51:36Z</time>
      </trkpt>
      <trkpt lat="45.92518" lon="-0.95702">
        <ele>3</ele>
        <time>2021-06-12T00:51:36Z</time>
      </trkpt>
      <trkpt lat="45.92452" lon="-0.95659">
        <ele>3</ele>
        <time>2021-06-12T00:51:49Z</time>
      </trkpt>
      <trkpt lat="45.92449" lon="-0.95665">
        <ele>3</ele>
        <time>2021-06-12T00:51:50Z</time>
      </trkpt>
      <trkpt lat="45.92442" lon="-0.95675">
        <ele>3</ele>
        <time>2021-06-12T00:51:52Z</time>
      </trkpt>
      <trkpt lat="45.92434" lon="-0.95677">
        <ele>3</ele>
        <time>2021-06-12T00:51:53Z</time>
      </trkpt>
      <trkpt lat="45.92427" lon="-0.9568">
        <ele>3</ele>
        <time>2021-06-12T00:51:55Z</time>
      </trkpt>
      <trkpt lat="45.92395" lon="-0.95703">
        <ele>3</ele>
        <time>2021-06-12T00:52:01Z</time>
      </trkpt>
      <trkpt lat="45.92368" lon="-0.95718">
        <ele>3</ele>
        <time>2021-06-12T00:52:06Z</time>
      </trkpt>
      <trkpt lat="45.92369" lon="-0.95726">
        <ele>3</ele>
        <time>2021-06-12T00:52:07Z</time>
      </trkpt>
      <trkpt lat="45.92369" lon="-0.95729">
        <ele>3</ele>
        <time>2021-06-12T00:52:08Z</time>
      </trkpt>
      <trkpt lat="45.92334" lon="-0.9575">
        <ele>2</ele>
        <time>2021-06-12T00:52:14Z</time>
      </trkpt>
      <trkpt lat="45.92292" lon="-0.9577">
        <ele>2</ele>
        <time>2021-06-12T00:52:22Z</time>
      </trkpt>
      <trkpt lat="45.92289" lon="-0.95776">
        <ele>2</ele>
        <time>2021-06-12T00:52:23Z</time>
      </trkpt>
      <trkpt lat="45.92288" lon="-0.95778">
        <ele>2</ele>
        <time>2021-06-12T00:52:23Z</time>
      </trkpt>
      <trkpt lat="45.92288" lon="-0.95794">
        <ele>2</ele>
        <time>2021-06-12T00:52:25Z</time>
      </trkpt>
      <trkpt lat="45.92289" lon="-0.95803">
        <ele>2</ele>
        <time>2021-06-12T00:52:26Z</time>
      </trkpt>
      <trkpt lat="45.92289" lon="-0.95815">
        <ele>2</ele>
        <time>2021-06-12T00:52:28Z</time>
      </trkpt>
      <trkpt lat="45.92289" lon="-0.95825">
        <ele>2</ele>
        <time>2021-06-12T00:52:29Z</time>
      </trkpt>
      <trkpt lat="45.92289" lon="-0.95839">
        <ele>2</ele>
        <time>2021-06-12T00:52:31Z</time>
      </trkpt>
      <trkpt lat="45.9229" lon="-0.95857">
        <ele>2</ele>
        <time>2021-06-12T00:52:33Z</time>
      </trkpt>
      <trkpt lat="45.9229" lon="-0.95866">
        <ele>2</ele>
        <time>2021-06-12T00:52:34Z</time>
      </trkpt>
      <trkpt lat="45.92293" lon="-0.95866">
        <ele>2</ele>
        <time>2021-06-12T00:52:35Z</time>
      </trkpt>
      <trkpt lat="45.92298" lon="-0.95873">
        <ele>2</ele>
        <time>2021-06-12T00:52:36Z</time>
      </trkpt>
      <trkpt lat="45.92299" lon="-0.95877">
        <ele>2</ele>
        <time>2021-06-12T00:52:37Z</time>
      </trkpt>
      <trkpt lat="45.92299" lon="-0.9588">
        <ele>2</ele>
        <time>2021-06-12T00:52:37Z</time>
      </trkpt>
      <trkpt lat="45.92296" lon="-0.95887">
        <ele>2</ele>
        <time>2021-06-12T00:52:38Z</time>
      </trkpt>
      <trkpt lat="45.92293" lon="-0.95888">
        <ele>2</ele>
        <time>2021-06-12T00:52:39Z</time>
      </trkpt>
      <trkpt lat="45.92295" lon="-0.95899">
        <ele>2</ele>
        <time>2021-06-12T00:52:40Z</time>
      </trkpt>
      <trkpt lat="45.92297" lon="-0.9598">
        <ele>2</ele>
        <time>2021-06-12T00:52:50Z</time>
      </trkpt>
      <trkpt lat="45.92297" lon="-0.95987">
        <ele>2</ele>
        <time>2021-06-12T00:52:51Z</time>
      </trkpt>
      <trkpt lat="45.92297" lon="-0.96005">
        <ele>2</ele>
        <time>2021-06-12T00:52:53Z</time>
      </trkpt>
      <trkpt lat="45.92298" lon="-0.96023">
        <ele>2</ele>
        <time>2021-06-12T00:52:55Z</time>
      </trkpt>
      <trkpt lat="45.92298" lon="-0.96029">
        <ele>2</ele>
        <time>2021-06-12T00:52:56Z</time>
      </trkpt>
      <trkpt lat="45.9213" lon="-0.96043">
        <ele>2</ele>
        <time>2021-06-12T00:53:26Z</time>
      </trkpt>
      <trkpt lat="45.91809" lon="-0.96065">
        <ele>3</ele>
        <time>2021-06-12T00:54:23Z</time>
      </trkpt>
      <trkpt lat="45.91808" lon="-0.96074">
        <ele>3</ele>
        <time>2021-06-12T00:54:24Z</time>
      </trkpt>
      <trkpt lat="45.91805" lon="-0.96088">
        <ele>2</ele>
        <time>2021-06-12T00:54:26Z</time>
      </trkpt>
      <trkpt lat="45.91797" lon="-0.96113">
        <ele>2</ele>
        <time>2021-06-12T00:54:30Z</time>
      </trkpt>
      <trkpt lat="45.91784" lon="-0.96156">
        <ele>2</ele>
        <time>2021-06-12T00:54:35Z</time>
      </trkpt>
      <trkpt lat="45.91778" lon="-0.96188">
        <ele>1</ele>
        <time>2021-06-12T00:54:39Z</time>
      </trkpt>
      <trkpt lat="45.91773" lon="-0.96228">
        <ele>2</ele>
        <time>2021-06-12T00:54:44Z</time>
      </trkpt>
      <trkpt lat="45.91761" lon="-0.9637">
        <ele>3</ele>
        <time>2021-06-12T00:55:02Z</time>
      </trkpt>
      <trkpt lat="45.91764" lon="-0.96398">
        <ele>3</ele>
        <time>2021-06-12T00:55:06Z</time>
      </trkpt>
      <trkpt lat="45.91765" lon="-0.96412">
        <ele>3</ele>
        <time>2021-06-12T00:55:07Z</time>
      </trkpt>
      <trkpt lat="45.91769" lon="-0.96417">
        <ele>3</ele>
        <time>2021-06-12T00:55:08Z</time>
      </trkpt>
      <trkpt lat="45.91834" lon="-0.96434">
        <ele>1</ele>
        <time>2021-06-12T00:55:20Z</time>
      </trkpt>
      <trkpt lat="45.9185" lon="-0.96441">
        <ele>1</ele>
        <time>2021-06-12T00:55:23Z</time>
      </trkpt>
      <trkpt lat="45.91883" lon="-0.9646">
        <ele>2</ele>
        <time>2021-06-12T00:55:29Z</time>
      </trkpt>
      <trkpt lat="45.91907" lon="-0.96476">
        <ele>2</ele>
        <time>2021-06-12T00:55:34Z</time>
      </trkpt>
      <trkpt lat="45.91921" lon="-0.96492">
        <ele>2</ele>
        <time>2021-06-12T00:55:37Z</time>
      </trkpt>
      <trkpt lat="45.91929" lon="-0.96504">
        <ele>2</ele>
        <time>2021-06-12T00:55:39Z</time>
      </trkpt>
      <trkpt lat="45.91933" lon="-0.96523">
        <ele>2</ele>
        <time>2021-06-12T00:55:42Z</time>
      </trkpt>
      <trkpt lat="45.91932" lon="-0.96542">
        <ele>1</ele>
        <time>2021-06-12T00:55:44Z</time>
      </trkpt>
      <trkpt lat="45.91925" lon="-0.9659">
        <ele>1</ele>
        <time>2021-06-12T00:55:50Z</time>
      </trkpt>
      <trkpt lat="45.91924" lon="-0.96633">
        <ele>2</ele>
        <time>2021-06-12T00:55:56Z</time>
      </trkpt>
      <trkpt lat="45.91912" lon="-0.96771">
        <ele>4</ele>
        <time>2021-06-12T00:56:13Z</time>
      </trkpt>
      <trkpt lat="45.91914" lon="-0.96793">
        <ele>5</ele>
        <time>2021-06-12T00:56:16Z</time>
      </trkpt>
      <trkpt lat="45.91927" lon="-0.96819">
        <ele>6</ele>
        <time>2021-06-12T00:56:19Z</time>
      </trkpt>
      <trkpt lat="45.91936" lon="-0.96842">
        <ele>6</ele>
        <time>2021-06-12T00:56:23Z</time>
      </trkpt>
      <trkpt lat="45.91943" lon="-0.96869">
        <ele>5</ele>
        <time>2021-06-12T00:56:26Z</time>
      </trkpt>
      <trkpt lat="45.91959" lon="-0.96945">
        <ele>3</ele>
        <time>2021-06-12T00:56:36Z</time>
      </trkpt>
      <trkpt lat="45.91971" lon="-0.97014">
        <ele>2</ele>
        <time>2021-06-12T00:56:45Z</time>
      </trkpt>
      <trkpt lat="45.91993" lon="-0.97068">
        <ele>2</ele>
        <time>2021-06-12T00:56:53Z</time>
      </trkpt>
      <trkpt lat="45.92023" lon="-0.97121">
        <ele>1</ele>
        <time>2021-06-12T00:57:01Z</time>
      </trkpt>
      <trkpt lat="45.92052" lon="-0.97153">
        <ele>2</ele>
        <time>2021-06-12T00:57:08Z</time>
      </trkpt>
      <trkpt lat="45.92063" lon="-0.9716">
        <ele>2</ele>
        <time>2021-06-12T00:57:10Z</time>
      </trkpt>
      <trkpt lat="45.92078" lon="-0.97173">
        <ele>3</ele>
        <time>2021-06-12T00:57:13Z</time>
      </trkpt>
      <trkpt lat="45.92096" lon="-0.9718">
        <ele>3</ele>
        <time>2021-06-12T00:57:16Z</time>
      </trkpt>
      <trkpt lat="45.92129" lon="-0.97187">
        <ele>2</ele>
        <time>2021-06-12T00:57:22Z</time>
      </trkpt>
      <trkpt lat="45.92155" lon="-0.97195">
        <ele>3</ele>
        <time>2021-06-12T00:57:27Z</time>
      </trkpt>
      <trkpt lat="45.92182" lon="-0.9721">
        <ele>3</ele>
        <time>2021-06-12T00:57:32Z</time>
      </trkpt>
      <trkpt lat="45.92194" lon="-0.97221">
        <ele>3</ele>
        <time>2021-06-12T00:57:35Z</time>
      </trkpt>
      <trkpt lat="45.92222" lon="-0.97253">
        <ele>3</ele>
        <time>2021-06-12T00:57:41Z</time>
      </trkpt>
      <trkpt lat="45.92234" lon="-0.97276">
        <ele>2</ele>
        <time>2021-06-12T00:57:45Z</time>
      </trkpt>
      <trkpt lat="45.92252" lon="-0.97301">
        <ele>2</ele>
        <time>2021-06-12T00:57:49Z</time>
      </trkpt>
      <trkpt lat="45.92287" lon="-0.97334">
        <ele>2</ele>
        <time>2021-06-12T00:57:56Z</time>
      </trkpt>
      <trkpt lat="45.92401" lon="-0.97457">
        <ele>2</ele>
        <time>2021-06-12T00:58:22Z</time>
      </trkpt>
      <trkpt lat="45.92409" lon="-0.97471">
        <ele>2</ele>
        <time>2021-06-12T00:58:24Z</time>
      </trkpt>
      <trkpt lat="45.92414" lon="-0.97488">
        <ele>2</ele>
        <time>2021-06-12T00:58:26Z</time>
      </trkpt>
      <trkpt lat="45.92417" lon="-0.97515">
        <ele>1.8</ele>
        <time>2021-06-12T00:58:30Z</time>
      </trkpt>
      <trkpt lat="45.92418" lon="-0.97528">
        <ele>1.7</ele>
        <time>2021-06-12T00:58:31Z</time>
      </trkpt>
      <trkpt lat="45.92419" lon="-0.97537">
        <ele>1.6</ele>
        <time>2021-06-12T00:58:32Z</time>
      </trkpt>
      <trkpt lat="45.92384" lon="-0.97573">
        <ele>1</ele>
        <time>2021-06-12T00:58:40Z</time>
      </trkpt>
      <trkpt lat="45.9215" lon="-0.97822">
        <ele>2</ele>
        <time>2021-06-12T00:59:32Z</time>
      </trkpt>
      <trkpt lat="45.92125" lon="-0.97879">
        <ele>2</ele>
        <time>2021-06-12T00:59:40Z</time>
      </trkpt>
      <trkpt lat="45.92107" lon="-0.97927">
        <ele>2</ele>
        <time>2021-06-12T00:59:47Z</time>
      </trkpt>
      <trkpt lat="45.92099" lon="-0.97962">
        <ele>2</ele>
        <time>2021-06-12T00:59:52Z</time>
      </trkpt>
      <trkpt lat="45.92091" lon="-0.98003">
        <ele>2</ele>
        <time>2021-06-12T00:59:57Z</time>
      </trkpt>
      <trkpt lat="45.92088" lon="-0.98058">
        <ele>2</ele>
        <time>2021-06-12T01:00:04Z</time>
      </trkpt>
      <trkpt lat="45.9209" lon="-0.98132">
        <ele>1</ele>
        <time>2021-06-12T01:00:13Z</time>
      </trkpt>
      <trkpt lat="45.92095" lon="-0.98184">
        <ele>1</ele>
        <time>2021-06-12T01:00:19Z</time>
      </trkpt>
      <trkpt lat="45.92099" lon="-0.98263">
        <ele>2</ele>
        <time>2021-06-12T01:00:29Z</time>
      </trkpt>
      <trkpt lat="45.92109" lon="-0.98374">
        <ele>2</ele>
        <time>2021-06-12T01:00:43Z</time>
      </trkpt>
      <trkpt lat="45.9212" lon="-0.98471">
        <ele>2</ele>
        <time>2021-06-12T01:00:55Z</time>
      </trkpt>
      <trkpt lat="45.92128" lon="-0.98521">
        <ele>2</ele>
        <time>2021-06-12T01:01:01Z</time>
      </trkpt>
      <trkpt lat="45.92145" lon="-0.98585">
        <ele>2</ele>
        <time>2021-06-12T01:01:10Z</time>
      </trkpt>
      <trkpt lat="45.92187" lon="-0.98705">
        <ele>2</ele>
        <time>2021-06-12T01:01:27Z</time>
      </trkpt>
      <trkpt lat="45.92213" lon="-0.98759">
        <ele>2</ele>
        <time>2021-06-12T01:01:35Z</time>
      </trkpt>
      <trkpt lat="45.92268" lon="-0.98854">
        <ele>1</ele>
        <time>2021-06-12T01:01:50Z</time>
      </trkpt>
      <trkpt lat="45.92294" lon="-0.98889">
        <ele>2</ele>
        <time>2021-06-12T01:01:56Z</time>
      </trkpt>
      <trkpt lat="45.92419" lon="-0.99022">
        <ele>1</ele>
        <time>2021-06-12T01:02:24Z</time>
      </trkpt>
      <trkpt lat="45.92561" lon="-0.99188">
        <ele>3</ele>
        <time>2021-06-12T01:02:57Z</time>
      </trkpt>
      <trkpt lat="45.92597" lon="-0.99235">
        <ele>2</ele>
        <time>2021-06-12T01:03:05Z</time>
      </trkpt>
      <trkpt lat="45.92698" lon="-0.99386">
        <ele>2</ele>
        <time>2021-06-12T01:03:31Z</time>
      </trkpt>
      <trkpt lat="45.92754" lon="-0.99475">
        <ele>1</ele>
        <time>2021-06-12T01:03:46Z</time>
      </trkpt>
      <trkpt lat="45.92796" lon="-0.99548">
        <ele>1</ele>
        <time>2021-06-12T01:03:58Z</time>
      </trkpt>
      <trkpt lat="45.92882" lon="-0.99731">
        <ele>3</ele>
        <time>2021-06-12T01:04:25Z</time>
      </trkpt>
      <trkpt lat="45.92931" lon="-0.99865">
        <ele>2</ele>
        <time>2021-06-12T01:04:44Z</time>
      </trkpt>
      <trkpt lat="45.92972" lon="-0.99995">
        <ele>3</ele>
        <time>2021-06-12T01:05:01Z</time>
      </trkpt>
      <trkpt lat="45.92995" lon="-1.00077">
        <ele>1</ele>
        <time>2021-06-12T01:05:12Z</time>
      </trkpt>
      <trkpt lat="45.93016" lon="-1.00147">
        <ele>1</ele>
        <time>2021-06-12T01:05:22Z</time>
      </trkpt>
      <trkpt lat="45.93047" lon="-1.00237">
        <ele>2</ele>
        <time>2021-06-12T01:05:34Z</time>
      </trkpt>
      <trkpt lat="45.93122" lon="-1.00423">
        <ele>2</ele>
        <time>2021-06-12T01:06:01Z</time>
      </trkpt>
      <trkpt lat="45.93134" lon="-1.00442">
        <ele>3</ele>
        <time>2021-06-12T01:06:04Z</time>
      </trkpt>
      <trkpt lat="45.93139" lon="-1.00439">
        <ele>3</ele>
        <time>2021-06-12T01:06:05Z</time>
      </trkpt>
      <trkpt lat="45.93152" lon="-1.00445">
        <ele>3</ele>
        <time>2021-06-12T01:06:07Z</time>
      </trkpt>
      <trkpt lat="45.93171" lon="-1.00446">
        <ele>3</ele>
        <time>2021-06-12T01:06:11Z</time>
      </trkpt>
      <trkpt lat="45.93178" lon="-1.00449">
        <ele>3</ele>
        <time>2021-06-12T01:06:12Z</time>
      </trkpt>
      <trkpt lat="45.9327" lon="-1.00517">
        <ele>2</ele>
        <time>2021-06-12T01:06:31Z</time>
      </trkpt>
      <trkpt lat="45.9334" lon="-1.00584">
        <ele>3</ele>
        <time>2021-06-12T01:06:45Z</time>
      </trkpt>
      <trkpt lat="45.93364" lon="-1.00603">
        <ele>3</ele>
        <time>2021-06-12T01:06:50Z</time>
      </trkpt>
      <trkpt lat="45.93382" lon="-1.00615">
        <ele>3</ele>
        <time>2021-06-12T01:06:54Z</time>
      </trkpt>
      <trkpt lat="45.93449" lon="-1.00638">
        <ele>3</ele>
        <time>2021-06-12T01:07:06Z</time>
      </trkpt>
      <trkpt lat="45.93483" lon="-1.00646">
        <ele>3</ele>
        <time>2021-06-12T01:07:12Z</time>
      </trkpt>
      <trkpt lat="45.93553" lon="-1.00655">
        <ele>2</ele>
        <time>2021-06-12T01:07:25Z</time>
      </trkpt>
      <trkpt lat="45.93613" lon="-1.00655">
        <ele>1</ele>
        <time>2021-06-12T01:07:35Z</time>
      </trkpt>
      <trkpt lat="45.93649" lon="-1.00645">
        <ele>1</ele>
        <time>2021-06-12T01:07:42Z</time>
      </trkpt>
      <trkpt lat="45.93728" lon="-1.00619">
        <ele>1</ele>
        <time>2021-06-12T01:07:56Z</time>
      </trkpt>
      <trkpt lat="45.93825" lon="-1.0057">
        <ele>1</ele>
        <time>2021-06-12T01:08:15Z</time>
      </trkpt>
      <trkpt lat="45.93843" lon="-1.00557">
        <ele>4</ele>
        <time>2021-06-12T01:08:18Z</time>
      </trkpt>
      <trkpt lat="45.93959" lon="-1.00462">
        <ele>1</ele>
        <time>2021-06-12T01:08:42Z</time>
      </trkpt>
      <trkpt lat="45.9397" lon="-1.00446">
        <ele>2</ele>
        <time>2021-06-12T01:08:45Z</time>
      </trkpt>
      <trkpt lat="45.93979" lon="-1.00419">
        <ele>2</ele>
        <time>2021-06-12T01:08:49Z</time>
      </trkpt>
      <trkpt lat="45.94092" lon="-1.00299">
        <ele>2</ele>
        <time>2021-06-12T01:09:14Z</time>
      </trkpt>
      <trkpt lat="45.94357" lon="-0.99992">
        <ele>2</ele>
        <time>2021-06-12T01:10:14Z</time>
      </trkpt>
      <trkpt lat="45.94415" lon="-0.99928">
        <ele>1</ele>
        <time>2021-06-12T01:10:27Z</time>
      </trkpt>
      <trkpt lat="45.9457" lon="-0.99762">
        <ele>2</ele>
        <time>2021-06-12T01:11:01Z</time>
      </trkpt>
      <trkpt lat="45.94581" lon="-0.99753">
        <ele>2</ele>
        <time>2021-06-12T01:11:04Z</time>
      </trkpt>
      <trkpt lat="45.94588" lon="-0.99752">
        <ele>2</ele>
        <time>2021-06-12T01:11:05Z</time>
      </trkpt>
      <trkpt lat="45.94606" lon="-0.9976">
        <ele>2</ele>
        <time>2021-06-12T01:11:08Z</time>
      </trkpt>
      <trkpt lat="45.9463" lon="-0.99793">
        <ele>1</ele>
        <time>2021-06-12T01:11:14Z</time>
      </trkpt>
      <trkpt lat="45.94638" lon="-0.99795">
        <ele>1</ele>
        <time>2021-06-12T01:11:16Z</time>
      </trkpt>
      <trkpt lat="45.94658" lon="-0.99785">
        <ele>2</ele>
        <time>2021-06-12T01:11:19Z</time>
      </trkpt>
      <trkpt lat="45.94696" lon="-0.99759">
        <ele>1</ele>
        <time>2021-06-12T01:11:27Z</time>
      </trkpt>
      <trkpt lat="45.94735" lon="-0.99729">
        <ele>1</ele>
        <time>2021-06-12T01:11:35Z</time>
      </trkpt>
      <trkpt lat="45.94765" lon="-0.99709">
        <ele>3.5</ele>
        <time>2021-06-12T01:11:41Z</time>
      </trkpt>
      <trkpt lat="45.9482" lon="-0.99677">
        <ele>2.9</ele>
        <time>2021-06-12T01:11:51Z</time>
      </trkpt>
      <trkpt lat="45.94884" lon="-0.99641">
        <ele>1</ele>
        <time>2021-06-12T01:12:03Z</time>
      </trkpt>
      <trkpt lat="45.95012" lon="-0.99582">
        <ele>1</ele>
        <time>2021-06-12T01:12:27Z</time>
      </trkpt>
      <trkpt lat="45.94995" lon="-0.9948">
        <ele>2</ele>
        <time>2021-06-12T01:12:40Z</time>
      </trkpt>
      <trkpt lat="45.94969" lon="-0.99404">
        <ele>3</ele>
        <time>2021-06-12T01:12:51Z</time>
      </trkpt>
      <trkpt lat="45.94852" lon="-0.99085">
        <ele>6</ele>
        <time>2021-06-12T01:13:35Z</time>
      </trkpt>
      <trkpt lat="45.94824" lon="-0.98999">
        <ele>4</ele>
        <time>2021-06-12T01:13:47Z</time>
      </trkpt>
      <trkpt lat="45.94814" lon="-0.98982">
        <ele>4</ele>
        <time>2021-06-12T01:13:50Z</time>
      </trkpt>
      <trkpt lat="45.94789" lon="-0.98908">
        <ele>3</ele>
        <time>2021-06-12T01:14:00Z</time>
      </trkpt>
      <trkpt lat="45.94754" lon="-0.98838">
        <ele>2</ele>
        <time>2021-06-12T01:14:11Z</time>
      </trkpt>
      <trkpt lat="45.94751" lon="-0.9883">
        <ele>2</ele>
        <time>2021-06-12T01:14:12Z</time>
      </trkpt>
      <trkpt lat="45.94754" lon="-0.98822">
        <ele>2</ele>
        <time>2021-06-12T01:14:13Z</time>
      </trkpt>
      <trkpt lat="45.94805" lon="-0.98796">
        <ele>3</ele>
        <time>2021-06-12T01:14:23Z</time>
      </trkpt>
      <trkpt lat="45.94983" lon="-0.98691">
        <ele>5</ele>
        <time>2021-06-12T01:14:57Z</time>
      </trkpt>
      <trkpt lat="45.95137" lon="-0.98589">
        <ele>1</ele>
        <time>2021-06-12T01:15:27Z</time>
      </trkpt>
      <trkpt lat="45.95172" lon="-0.98588">
        <ele>1</ele>
        <time>2021-06-12T01:15:33Z</time>
      </trkpt>
      <trkpt lat="45.9532" lon="-0.98593">
        <ele>4</ele>
        <time>2021-06-12T01:16:00Z</time>
      </trkpt>
      <trkpt lat="45.95326" lon="-0.98588">
        <ele>4</ele>
        <time>2021-06-12T01:16:01Z</time>
      </trkpt>
      <trkpt lat="45.95336" lon="-0.98575">
        <ele>4</ele>
        <time>2021-06-12T01:16:03Z</time>
      </trkpt>
      <trkpt lat="45.95355" lon="-0.98536">
        <ele>3</ele>
        <time>2021-06-12T01:16:09Z</time>
      </trkpt>
      <trkpt lat="45.95372" lon="-0.98491">
        <ele>3</ele>
        <time>2021-06-12T01:16:16Z</time>
      </trkpt>
      <trkpt lat="45.95379" lon="-0.98466">
        <ele>3</ele>
        <time>2021-06-12T01:16:19Z</time>
      </trkpt>
      <trkpt lat="45.95384" lon="-0.98435">
        <ele>3</ele>
        <time>2021-06-12T01:16:23Z</time>
      </trkpt>
      <trkpt lat="45.95386" lon="-0.98425">
        <ele>3</ele>
        <time>2021-06-12T01:16:24Z</time>
      </trkpt>
      <trkpt lat="45.95397" lon="-0.98403">
        <ele>3</ele>
        <time>2021-06-12T01:16:27Z</time>
      </trkpt>
      <trkpt lat="45.95442" lon="-0.98334">
        <ele>3</ele>
        <time>2021-06-12T01:16:39Z</time>
      </trkpt>
      <trkpt lat="45.95462" lon="-0.98311">
        <ele>3</ele>
        <time>2021-06-12T01:16:44Z</time>
      </trkpt>
      <trkpt lat="45.95577" lon="-0.98194">
        <ele>2</ele>
        <time>2021-06-12T01:17:09Z</time>
      </trkpt>
      <trkpt lat="45.95696" lon="-0.98062">
        <ele>3</ele>
        <time>2021-06-12T01:17:35Z</time>
      </trkpt>
      <trkpt lat="45.95726" lon="-0.98025">
        <ele>3</ele>
        <time>2021-06-12T01:17:43Z</time>
      </trkpt>
      <trkpt lat="45.95737" lon="-0.98014">
        <ele>4</ele>
        <time>2021-06-12T01:17:45Z</time>
      </trkpt>
      <trkpt lat="45.95748" lon="-0.98009">
        <ele>4</ele>
        <time>2021-06-12T01:17:47Z</time>
      </trkpt>
      <trkpt lat="45.95787" lon="-0.98007">
        <ele>4</ele>
        <time>2021-06-12T01:17:54Z</time>
      </trkpt>
      <trkpt lat="45.95796" lon="-0.98004">
        <ele>4</ele>
        <time>2021-06-12T01:17:56Z</time>
      </trkpt>
      <trkpt lat="45.95805" lon="-0.97997">
        <ele>4</ele>
        <time>2021-06-12T01:17:57Z</time>
      </trkpt>
      <trkpt lat="45.95816" lon="-0.97993">
        <ele>4</ele>
        <time>2021-06-12T01:17:59Z</time>
      </trkpt>
      <trkpt lat="45.95851" lon="-0.97992">
        <ele>4</ele>
        <time>2021-06-12T01:18:06Z</time>
      </trkpt>
      <trkpt lat="45.95861" lon="-0.97996">
        <ele>4</ele>
        <time>2021-06-12T01:18:07Z</time>
      </trkpt>
      <trkpt lat="45.95841" lon="-0.98106">
        <ele>3</ele>
        <time>2021-06-12T01:18:22Z</time>
      </trkpt>
      <trkpt lat="45.95839" lon="-0.98151">
        <ele>4</ele>
        <time>2021-06-12T01:18:27Z</time>
      </trkpt>
      <trkpt lat="45.95842" lon="-0.98174">
        <ele>4</ele>
        <time>2021-06-12T01:18:30Z</time>
      </trkpt>
      <trkpt lat="45.95854" lon="-0.98214">
        <ele>4</ele>
        <time>2021-06-12T01:18:35Z</time>
      </trkpt>
      <trkpt lat="45.95868" lon="-0.98248">
        <ele>5</ele>
        <time>2021-06-12T01:18:40Z</time>
      </trkpt>
      <trkpt lat="45.95892" lon="-0.98294">
        <ele>4</ele>
        <time>2021-06-12T01:18:47Z</time>
      </trkpt>
      <trkpt lat="45.95916" lon="-0.98329">
        <ele>4</ele>
        <time>2021-06-12T01:18:53Z</time>
      </trkpt>
      <trkpt lat="45.95933" lon="-0.98364">
        <ele>4</ele>
        <time>2021-06-12T01:18:59Z</time>
      </trkpt>
      <trkpt lat="45.95948" lon="-0.984">
        <ele>4</ele>
        <time>2021-06-12T01:19:04Z</time>
      </trkpt>
      <trkpt lat="45.96002" lon="-0.98582">
        <ele>5</ele>
        <time>2021-06-12T01:19:28Z</time>
      </trkpt>
      <trkpt lat="45.96006" lon="-0.98588">
        <ele>5</ele>
        <time>2021-06-12T01:19:29Z</time>
      </trkpt>
      <trkpt lat="45.96031" lon="-0.98596">
        <ele>6</ele>
        <time>2021-06-12T01:19:34Z</time>
      </trkpt>
      <trkpt lat="45.96048" lon="-0.98624">
        <ele>6</ele>
        <time>2021-06-12T01:19:39Z</time>
      </trkpt>
      <trkpt lat="45.96057" lon="-0.98632">
        <ele>6</ele>
        <time>2021-06-12T01:19:40Z</time>
      </trkpt>
      <trkpt lat="45.96087" lon="-0.98639">
        <ele>6</ele>
        <time>2021-06-12T01:19:46Z</time>
      </trkpt>
      <trkpt lat="45.96108" lon="-0.98641">
        <ele>7</ele>
        <time>2021-06-12T01:19:50Z</time>
      </trkpt>
      <trkpt lat="45.96154" lon="-0.9864">
        <ele>7</ele>
        <time>2021-06-12T01:19:58Z</time>
      </trkpt>
      <trkpt lat="45.96194" lon="-0.98632">
        <ele>8</ele>
        <time>2021-06-12T01:20:05Z</time>
      </trkpt>
      <trkpt lat="45.96282" lon="-0.98604">
        <ele>10</ele>
        <time>2021-06-12T01:20:21Z</time>
      </trkpt>
      <trkpt lat="45.96402" lon="-0.98574">
        <ele>13</ele>
        <time>2021-06-12T01:20:43Z</time>
      </trkpt>
      <trkpt lat="45.9642" lon="-0.98567">
        <ele>13</ele>
        <time>2021-06-12T01:20:46Z</time>
      </trkpt>
      <trkpt lat="45.96444" lon="-0.98552">
        <ele>14</ele>
        <time>2021-06-12T01:20:51Z</time>
      </trkpt>
      <trkpt lat="45.96458" lon="-0.98535">
        <ele>14</ele>
        <time>2021-06-12T01:20:54Z</time>
      </trkpt>
      <trkpt lat="45.96494" lon="-0.9847">
        <ele>15</ele>
        <time>2021-06-12T01:21:04Z</time>
      </trkpt>
      <trkpt lat="45.9652" lon="-0.98437">
        <ele>15</ele>
        <time>2021-06-12T01:21:10Z</time>
      </trkpt>
      <trkpt lat="45.96538" lon="-0.9842">
        <ele>15</ele>
        <time>2021-06-12T01:21:14Z</time>
      </trkpt>
      <trkpt lat="45.96587" lon="-0.98384">
        <ele>17</ele>
        <time>2021-06-12T01:21:24Z</time>
      </trkpt>
      <trkpt lat="45.96618" lon="-0.98363">
        <ele>16</ele>
        <time>2021-06-12T01:21:30Z</time>
      </trkpt>
      <trkpt lat="45.96632" lon="-0.98355">
        <ele>16</ele>
        <time>2021-06-12T01:21:33Z</time>
      </trkpt>
      <trkpt lat="45.96665" lon="-0.9835">
        <ele>15</ele>
        <time>2021-06-12T01:21:39Z</time>
      </trkpt>
      <trkpt lat="45.96674" lon="-0.98351">
        <ele>14</ele>
        <time>2021-06-12T01:21:40Z</time>
      </trkpt>
      <trkpt lat="45.96678" lon="-0.98342">
        <ele>15</ele>
        <time>2021-06-12T01:21:42Z</time>
      </trkpt>
      <trkpt lat="45.96684" lon="-0.98338">
        <ele>15</ele>
        <time>2021-06-12T01:21:43Z</time>
      </trkpt>
      <trkpt lat="45.96692" lon="-0.98339">
        <ele>15</ele>
        <time>2021-06-12T01:21:44Z</time>
      </trkpt>
      <trkpt lat="45.96697" lon="-0.98347">
        <ele>14</ele>
        <time>2021-06-12T01:21:46Z</time>
      </trkpt>
      <trkpt lat="45.96704" lon="-0.98352">
        <ele>14</ele>
        <time>2021-06-12T01:21:47Z</time>
      </trkpt>
      <trkpt lat="45.96716" lon="-0.98352">
        <ele>14</ele>
        <time>2021-06-12T01:21:49Z</time>
      </trkpt>
      <trkpt lat="45.96754" lon="-0.98348">
        <ele>13</ele>
        <time>2021-06-12T01:21:56Z</time>
      </trkpt>
      <trkpt lat="45.96851" lon="-0.98306">
        <ele>14</ele>
        <time>2021-06-12T01:22:14Z</time>
      </trkpt>
      <trkpt lat="45.96855" lon="-0.98311">
        <ele>14</ele>
        <time>2021-06-12T01:22:15Z</time>
      </trkpt>
      <trkpt lat="45.96899" lon="-0.98383">
        <ele>12</ele>
        <time>2021-06-12T01:22:27Z</time>
      </trkpt>
      <trkpt lat="45.96932" lon="-0.98427">
        <ele>12</ele>
        <time>2021-06-12T01:22:35Z</time>
      </trkpt>
      <trkpt lat="45.96956" lon="-0.98453">
        <ele>11</ele>
        <time>2021-06-12T01:22:40Z</time>
      </trkpt>
      <trkpt lat="45.97048" lon="-0.98546">
        <ele>9</ele>
        <time>2021-06-12T01:23:00Z</time>
      </trkpt>
      <trkpt lat="45.97057" lon="-0.98559">
        <ele>8</ele>
        <time>2021-06-12T01:23:02Z</time>
      </trkpt>
      <trkpt lat="45.9722" lon="-0.98735">
        <ele>6</ele>
        <time>2021-06-12T01:23:39Z</time>
      </trkpt>
      <trkpt lat="45.9723" lon="-0.98749">
        <ele>6</ele>
        <time>2021-06-12T01:23:41Z</time>
      </trkpt>
      <trkpt lat="45.9725" lon="-0.98793">
        <ele>4</ele>
        <time>2021-06-12T01:23:48Z</time>
      </trkpt>
      <trkpt lat="45.97283" lon="-0.98847">
        <ele>3</ele>
        <time>2021-06-12T01:23:56Z</time>
      </trkpt>
      <trkpt lat="45.97296" lon="-0.98869">
        <ele>3</ele>
        <time>2021-06-12T01:24:00Z</time>
      </trkpt>
      <trkpt lat="45.97305" lon="-0.98877">
        <ele>3</ele>
        <time>2021-06-12T01:24:02Z</time>
      </trkpt>
      <trkpt lat="45.97314" lon="-0.98877">
        <ele>3</ele>
        <time>2021-06-12T01:24:03Z</time>
      </trkpt>
      <trkpt lat="45.9732" lon="-0.98879">
        <ele>3</ele>
        <time>2021-06-12T01:24:05Z</time>
      </trkpt>
      <trkpt lat="45.97326" lon="-0.98884">
        <ele>3</ele>
        <time>2021-06-12T01:24:06Z</time>
      </trkpt>
      <trkpt lat="45.97602" lon="-0.99321">
        <ele>2</ele>
        <time>2021-06-12T01:25:19Z</time>
      </trkpt>
      <trkpt lat="45.97702" lon="-0.99472">
        <ele>3</ele>
        <time>2021-06-12T01:25:45Z</time>
      </trkpt>
      <trkpt lat="45.97804" lon="-0.99636">
        <ele>1</ele>
        <time>2021-06-12T01:26:12Z</time>
      </trkpt>
      <trkpt lat="45.97846" lon="-0.99698">
        <ele>1</ele>
        <time>2021-06-12T01:26:23Z</time>
      </trkpt>
      <trkpt lat="45.97854" lon="-0.99713">
        <ele>2</ele>
        <time>2021-06-12T01:26:25Z</time>
      </trkpt>
      <trkpt lat="45.9799" lon="-1.00028">
        <ele>3</ele>
        <time>2021-06-12T01:27:11Z</time>
      </trkpt>
      <trkpt lat="45.97994" lon="-1.00048">
        <ele>2</ele>
        <time>2021-06-12T01:27:13Z</time>
      </trkpt>
      <trkpt lat="45.98004" lon="-1.00153">
        <ele>3</ele>
        <time>2021-06-12T01:27:26Z</time>
      </trkpt>
      <trkpt lat="45.98014" lon="-1.00164">
        <ele>3</ele>
        <time>2021-06-12T01:27:29Z</time>
      </trkpt>
      <trkpt lat="45.98015" lon="-1.00172">
        <ele>3</ele>
        <time>2021-06-12T01:27:30Z</time>
      </trkpt>
      <trkpt lat="45.98019" lon="-1.00262">
        <ele>3</ele>
        <time>2021-06-12T01:27:41Z</time>
      </trkpt>
      <trkpt lat="45.9802" lon="-1.00315">
        <ele>2</ele>
        <time>2021-06-12T01:27:47Z</time>
      </trkpt>
      <trkpt lat="45.98018" lon="-1.00332">
        <ele>1</ele>
        <time>2021-06-12T01:27:50Z</time>
      </trkpt>
      <trkpt lat="45.98015" lon="-1.00379">
        <ele>2</ele>
        <time>2021-06-12T01:27:55Z</time>
      </trkpt>
      <trkpt lat="45.98014" lon="-1.00402">
        <ele>3</ele>
        <time>2021-06-12T01:27:58Z</time>
      </trkpt>
      <trkpt lat="45.98014" lon="-1.00433">
        <ele>3</ele>
        <time>2021-06-12T01:28:02Z</time>
      </trkpt>
      <trkpt lat="45.98026" lon="-1.00657">
        <ele>3</ele>
        <time>2021-06-12T01:28:30Z</time>
      </trkpt>
      <trkpt lat="45.9803" lon="-1.00693">
        <ele>3</ele>
        <time>2021-06-12T01:28:34Z</time>
      </trkpt>
      <trkpt lat="45.98046" lon="-1.01071">
        <ele>2</ele>
        <time>2021-06-12T01:29:21Z</time>
      </trkpt>
      <trkpt lat="45.98052" lon="-1.01154">
        <ele>3</ele>
        <time>2021-06-12T01:29:31Z</time>
      </trkpt>
      <trkpt lat="45.9807" lon="-1.01285">
        <ele>2</ele>
        <time>2021-06-12T01:29:48Z</time>
      </trkpt>
      <trkpt lat="45.98082" lon="-1.01357">
        <ele>2</ele>
        <time>2021-06-12T01:29:57Z</time>
      </trkpt>
      <trkpt lat="45.98092" lon="-1.01407">
        <ele>2</ele>
        <time>2021-06-12T01:30:04Z</time>
      </trkpt>
      <trkpt lat="45.98106" lon="-1.01466">
        <ele>1</ele>
        <time>2021-06-12T01:30:11Z</time>
      </trkpt>
      <trkpt lat="45.98121" lon="-1.01519">
        <ele>1</ele>
        <time>2021-06-12T01:30:18Z</time>
      </trkpt>
      <trkpt lat="45.98145" lon="-1.01587">
        <ele>1</ele>
        <time>2021-06-12T01:30:28Z</time>
      </trkpt>
      <trkpt lat="45.98178" lon="-1.01679">
        <ele>2</ele>
        <time>2021-06-12T01:30:41Z</time>
      </trkpt>
      <trkpt lat="45.98222" lon="-1.01794">
        <ele>3</ele>
        <time>2021-06-12T01:30:57Z</time>
      </trkpt>
      <trkpt lat="45.9849" lon="-1.02532">
        <ele>2</ele>
        <time>2021-06-12T01:32:40Z</time>
      </trkpt>
      <trkpt lat="45.98577" lon="-1.02775">
        <ele>3</ele>
        <time>2021-06-12T01:33:14Z</time>
      </trkpt>
      <trkpt lat="45.98522" lon="-1.02814">
        <ele>4</ele>
        <time>2021-06-12T01:33:24Z</time>
      </trkpt>
      <trkpt lat="45.98403" lon="-1.02909">
        <ele>3</ele>
        <time>2021-06-12T01:33:49Z</time>
      </trkpt>
      <trkpt lat="45.9838" lon="-1.02933">
        <ele>3</ele>
        <time>2021-06-12T01:33:54Z</time>
      </trkpt>
      <trkpt lat="45.9836" lon="-1.02961">
        <ele>3</ele>
        <time>2021-06-12T01:33:59Z</time>
      </trkpt>
      <trkpt lat="45.9829" lon="-1.0307">
        <ele>4</ele>
        <time>2021-06-12T01:34:17Z</time>
      </trkpt>
      <trkpt lat="45.98241" lon="-1.03173">
        <ele>3</ele>
        <time>2021-06-12T01:34:32Z</time>
      </trkpt>
      <trkpt lat="45.982" lon="-1.03269">
        <ele>4</ele>
        <time>2021-06-12T01:34:46Z</time>
      </trkpt>
      <trkpt lat="45.98121" lon="-1.03427">
        <ele>4</ele>
        <time>2021-06-12T01:35:10Z</time>
      </trkpt>
      <trkpt lat="45.9805" lon="-1.03573">
        <ele>3</ele>
        <time>2021-06-12T01:35:32Z</time>
      </trkpt>
      <trkpt lat="45.98036" lon="-1.03631">
        <ele>3</ele>
        <time>2021-06-12T01:35:40Z</time>
      </trkpt>
      <trkpt lat="45.98031" lon="-1.03665">
        <ele>3</ele>
        <time>2021-06-12T01:35:44Z</time>
      </trkpt>
      <trkpt lat="45.9803" lon="-1.03713">
        <ele>3</ele>
        <time>2021-06-12T01:35:50Z</time>
      </trkpt>
      <trkpt lat="45.98019" lon="-1.03764">
        <ele>3</ele>
        <time>2021-06-12T01:35:57Z</time>
      </trkpt>
      <trkpt lat="45.98011" lon="-1.03793">
        <ele>3</ele>
        <time>2021-06-12T01:36:01Z</time>
      </trkpt>
      <trkpt lat="45.97986" lon="-1.03834">
        <ele>3</ele>
        <time>2021-06-12T01:36:08Z</time>
      </trkpt>
      <trkpt lat="45.97942" lon="-1.03894">
        <ele>3</ele>
        <time>2021-06-12T01:36:18Z</time>
      </trkpt>
      <trkpt lat="45.9795" lon="-1.03928">
        <ele>3</ele>
        <time>2021-06-12T01:36:23Z</time>
      </trkpt>
      <trkpt lat="45.97967" lon="-1.03982">
        <ele>4</ele>
        <time>2021-06-12T01:36:30Z</time>
      </trkpt>
      <trkpt lat="45.98001" lon="-1.04071">
        <ele>5</ele>
        <time>2021-06-12T01:36:43Z</time>
      </trkpt>
      <trkpt lat="45.98027" lon="-1.04115">
        <ele>5</ele>
        <time>2021-06-12T01:36:50Z</time>
      </trkpt>
      <trkpt lat="45.98039" lon="-1.04126">
        <ele>5</ele>
        <time>2021-06-12T01:36:52Z</time>
      </trkpt>
      <trkpt lat="45.98062" lon="-1.04139">
        <ele>6</ele>
        <time>2021-06-12T01:36:57Z</time>
      </trkpt>
      <trkpt lat="45.97985" lon="-1.04209">
        <ele>5</ele>
        <time>2021-06-12T01:37:13Z</time>
      </trkpt>
      <trkpt lat="45.97966" lon="-1.0423">
        <ele>5</ele>
        <time>2021-06-12T01:37:17Z</time>
      </trkpt>
      <trkpt lat="45.97948" lon="-1.04264">
        <ele>5</ele>
        <time>2021-06-12T01:37:22Z</time>
      </trkpt>
      <trkpt lat="45.97945" lon="-1.04273">
        <ele>5</ele>
        <time>2021-06-12T01:37:24Z</time>
      </trkpt>
      <trkpt lat="45.97918" lon="-1.04373">
        <ele>6</ele>
        <time>2021-06-12T01:37:37Z</time>
      </trkpt>
      <trkpt lat="45.97861" lon="-1.04504">
        <ele>3</ele>
        <time>2021-06-12T01:37:56Z</time>
      </trkpt>
      <trkpt lat="45.97856" lon="-1.04518">
        <ele>3</ele>
        <time>2021-06-12T01:37:58Z</time>
      </trkpt>
      <trkpt lat="45.97805" lon="-1.04551">
        <ele>4</ele>
        <time>2021-06-12T01:38:08Z</time>
      </trkpt>
      <trkpt lat="45.97782" lon="-1.04545">
        <ele>3</ele>
        <time>2021-06-12T01:38:12Z</time>
      </trkpt>
      <trkpt lat="45.97708" lon="-1.04489">
        <ele>2</ele>
        <time>2021-06-12T01:38:27Z</time>
      </trkpt>
      <trkpt lat="45.97698" lon="-1.04485">
        <ele>2</ele>
        <time>2021-06-12T01:38:29Z</time>
      </trkpt>
      <trkpt lat="45.97684" lon="-1.0449">
        <ele>2</ele>
        <time>2021-06-12T01:38:31Z</time>
      </trkpt>
      <trkpt lat="45.97578" lon="-1.04569">
        <ele>4</ele>
        <time>2021-06-12T01:38:53Z</time>
      </trkpt>
      <trkpt lat="45.97547" lon="-1.04584">
        <ele>4</ele>
        <time>2021-06-12T01:38:58Z</time>
      </trkpt>
      <trkpt lat="45.97438" lon="-1.04627">
        <ele>6</ele>
        <time>2021-06-12T01:39:19Z</time>
      </trkpt>
      <trkpt lat="45.97358" lon="-1.04666">
        <ele>8</ele>
        <time>2021-06-12T01:39:34Z</time>
      </trkpt>
      <trkpt lat="45.97256" lon="-1.04707">
        <ele>9</ele>
        <time>2021-06-12T01:39:52Z</time>
      </trkpt>
      <trkpt lat="45.97189" lon="-1.04743">
        <ele>11</ele>
        <time>2021-06-12T01:40:05Z</time>
      </trkpt>
      <trkpt lat="45.97114" lon="-1.04749">
        <ele>12</ele>
        <time>2021-06-12T01:40:19Z</time>
      </trkpt>
      <trkpt lat="45.97051" lon="-1.04767">
        <ele>11</ele>
        <time>2021-06-12T01:40:30Z</time>
      </trkpt>
      <trkpt lat="45.96973" lon="-1.04808">
        <ele>9</ele>
        <time>2021-06-12T01:40:45Z</time>
      </trkpt>
      <trkpt lat="45.96954" lon="-1.04811">
        <ele>9</ele>
        <time>2021-06-12T01:40:48Z</time>
      </trkpt>
      <trkpt lat="45.96949" lon="-1.0481">
        <ele>9</ele>
        <time>2021-06-12T01:40:49Z</time>
      </trkpt>
      <trkpt lat="45.96935" lon="-1.04796">
        <ele>8</ele>
        <time>2021-06-12T01:40:52Z</time>
      </trkpt>
      <trkpt lat="45.96907" lon="-1.04794">
        <ele>7</ele>
        <time>2021-06-12T01:40:57Z</time>
      </trkpt>
      <trkpt lat="45.96885" lon="-1.048">
        <ele>7</ele>
        <time>2021-06-12T01:41:01Z</time>
      </trkpt>
      <trkpt lat="45.96835" lon="-1.04825">
        <ele>7</ele>
        <time>2021-06-12T01:41:10Z</time>
      </trkpt>
      <trkpt lat="45.96792" lon="-1.04853">
        <ele>6</ele>
        <time>2021-06-12T01:41:19Z</time>
      </trkpt>
      <trkpt lat="45.96678" lon="-1.04948">
        <ele>4</ele>
        <time>2021-06-12T01:41:42Z</time>
      </trkpt>
      <trkpt lat="45.96666" lon="-1.04949">
        <ele>4</ele>
        <time>2021-06-12T01:41:44Z</time>
      </trkpt>
      <trkpt lat="45.96623" lon="-1.04957">
        <ele>3</ele>
        <time>2021-06-12T01:41:52Z</time>
      </trkpt>
      <trkpt lat="45.96609" lon="-1.04963">
        <ele>3</ele>
        <time>2021-06-12T01:41:55Z</time>
      </trkpt>
      <trkpt lat="45.96594" lon="-1.04969">
        <ele>3</ele>
        <time>2021-06-12T01:41:58Z</time>
      </trkpt>
      <trkpt lat="45.96571" lon="-1.04981">
        <ele>3</ele>
        <time>2021-06-12T01:42:02Z</time>
      </trkpt>
      <trkpt lat="45.96547" lon="-1.04994">
        <ele>3</ele>
        <time>2021-06-12T01:42:06Z</time>
      </trkpt>
      <trkpt lat="45.96531" lon="-1.05">
        <ele>2</ele>
        <time>2021-06-12T01:42:09Z</time>
      </trkpt>
      <trkpt lat="45.96492" lon="-1.0501">
        <ele>2</ele>
        <time>2021-06-12T01:42:16Z</time>
      </trkpt>
      <trkpt lat="45.96463" lon="-1.05028">
        <ele>2</ele>
        <time>2021-06-12T01:42:22Z</time>
      </trkpt>
      <trkpt lat="45.96441" lon="-1.05051">
        <ele>2</ele>
        <time>2021-06-12T01:42:27Z</time>
      </trkpt>
      <trkpt lat="45.96425" lon="-1.05094">
        <ele>3</ele>
        <time>2021-06-12T01:42:33Z</time>
      </trkpt>
      <trkpt lat="45.96413" lon="-1.05172">
        <ele>3</ele>
        <time>2021-06-12T01:42:43Z</time>
      </trkpt>
      <trkpt lat="45.96404" lon="-1.05214">
        <ele>2</ele>
        <time>2021-06-12T01:42:48Z</time>
      </trkpt>
      <trkpt lat="45.96393" lon="-1.05262">
        <ele>2</ele>
        <time>2021-06-12T01:42:55Z</time>
      </trkpt>
      <trkpt lat="45.96389" lon="-1.05287">
        <ele>2</ele>
        <time>2021-06-12T01:42:58Z</time>
      </trkpt>
      <trkpt lat="45.96394" lon="-1.05311">
        <ele>2</ele>
        <time>2021-06-12T01:43:01Z</time>
      </trkpt>
      <trkpt lat="45.96403" lon="-1.05341">
        <ele>2</ele>
        <time>2021-06-12T01:43:05Z</time>
      </trkpt>
      <trkpt lat="45.9643" lon="-1.05397">
        <ele>2</ele>
        <time>2021-06-12T01:43:13Z</time>
      </trkpt>
      <trkpt lat="45.96447" lon="-1.05421">
        <ele>2</ele>
        <time>2021-06-12T01:43:17Z</time>
      </trkpt>
      <trkpt lat="45.96466" lon="-1.05438">
        <ele>2</ele>
        <time>2021-06-12T01:43:21Z</time>
      </trkpt>
      <trkpt lat="45.96478" lon="-1.05451">
        <ele>2</ele>
        <time>2021-06-12T01:43:24Z</time>
      </trkpt>
      <trkpt lat="45.96483" lon="-1.05467">
        <ele>2</ele>
        <time>2021-06-12T01:43:26Z</time>
      </trkpt>
      <trkpt lat="45.96486" lon="-1.0556">
        <ele>2</ele>
        <time>2021-06-12T01:43:38Z</time>
      </trkpt>
      <trkpt lat="45.96506" lon="-1.05701">
        <ele>3</ele>
        <time>2021-06-12T01:43:56Z</time>
      </trkpt>
      <trkpt lat="45.96552" lon="-1.06043">
        <ele>3</ele>
        <time>2021-06-12T01:44:39Z</time>
      </trkpt>
      <trkpt lat="45.96554" lon="-1.06067">
        <ele>2</ele>
        <time>2021-06-12T01:44:42Z</time>
      </trkpt>
      <trkpt lat="45.96558" lon="-1.06259">
        <ele>1</ele>
        <time>2021-06-12T01:45:05Z</time>
      </trkpt>
      <trkpt lat="45.96563" lon="-1.06308">
        <ele>1</ele>
        <time>2021-06-12T01:45:12Z</time>
      </trkpt>
      <trkpt lat="45.96572" lon="-1.0634">
        <ele>1</ele>
        <time>2021-06-12T01:45:16Z</time>
      </trkpt>
      <trkpt lat="45.96605" lon="-1.06432">
        <ele>2</ele>
        <time>2021-06-12T01:45:29Z</time>
      </trkpt>
      <trkpt lat="45.96619" lon="-1.06462">
        <ele>2</ele>
        <time>2021-06-12T01:45:33Z</time>
      </trkpt>
      <trkpt lat="45.96641" lon="-1.0649">
        <ele>2</ele>
        <time>2021-06-12T01:45:38Z</time>
      </trkpt>
      <trkpt lat="45.96663" lon="-1.06513">
        <ele>2</ele>
        <time>2021-06-12T01:45:43Z</time>
      </trkpt>
      <trkpt lat="45.96716" lon="-1.06545">
        <ele>2</ele>
        <time>2021-06-12T01:45:53Z</time>
      </trkpt>
      <trkpt lat="45.96735" lon="-1.06556">
        <ele>2</ele>
        <time>2021-06-12T01:45:57Z</time>
      </trkpt>
      <trkpt lat="45.96738" lon="-1.06568">
        <ele>2</ele>
        <time>2021-06-12T01:45:59Z</time>
      </trkpt>
      <trkpt lat="45.96737" lon="-1.06603">
        <ele>2</ele>
        <time>2021-06-12T01:46:03Z</time>
      </trkpt>
      <trkpt lat="45.96739" lon="-1.06656">
        <ele>2</ele>
        <time>2021-06-12T01:46:10Z</time>
      </trkpt>
      <trkpt lat="45.96744" lon="-1.06704">
        <ele>2</ele>
        <time>2021-06-12T01:46:16Z</time>
      </trkpt>
      <trkpt lat="45.96745" lon="-1.0671">
        <ele>2</ele>
        <time>2021-06-12T01:46:16Z</time>
      </trkpt>
      <trkpt lat="45.96747" lon="-1.06729">
        <ele>2</ele>
        <time>2021-06-12T01:46:19Z</time>
      </trkpt>
      <trkpt lat="45.96753" lon="-1.06746">
        <ele>2</ele>
        <time>2021-06-12T01:46:21Z</time>
      </trkpt>
      <trkpt lat="45.96761" lon="-1.06763">
        <ele>2</ele>
        <time>2021-06-12T01:46:24Z</time>
      </trkpt>
      <trkpt lat="45.96786" lon="-1.06803">
        <ele>2</ele>
        <time>2021-06-12T01:46:30Z</time>
      </trkpt>
      <trkpt lat="45.96806" lon="-1.06842">
        <ele>3</ele>
        <time>2021-06-12T01:46:36Z</time>
      </trkpt>
      <trkpt lat="45.96831" lon="-1.06912">
        <ele>3</ele>
        <time>2021-06-12T01:46:46Z</time>
      </trkpt>
      <trkpt lat="45.96858" lon="-1.06978">
        <ele>2</ele>
        <time>2021-06-12T01:46:55Z</time>
      </trkpt>
      <trkpt lat="45.96877" lon="-1.07027">
        <ele>2</ele>
        <time>2021-06-12T01:47:02Z</time>
      </trkpt>
      <trkpt lat="45.96889" lon="-1.07035">
        <ele>2</ele>
        <time>2021-06-12T01:47:05Z</time>
      </trkpt>
      <trkpt lat="45.96905" lon="-1.0704">
        <ele>2</ele>
        <time>2021-06-12T01:47:08Z</time>
      </trkpt>
      <trkpt lat="45.96926" lon="-1.07031">
        <ele>2</ele>
        <time>2021-06-12T01:47:12Z</time>
      </trkpt>
      <trkpt lat="45.96938" lon="-1.07029">
        <ele>2</ele>
        <time>2021-06-12T01:47:14Z</time>
      </trkpt>
      <trkpt lat="45.96944" lon="-1.0703">
        <ele>2</ele>
        <time>2021-06-12T01:47:15Z</time>
      </trkpt>
      <trkpt lat="45.96947" lon="-1.07037">
        <ele>2</ele>
        <time>2021-06-12T01:47:16Z</time>
      </trkpt>
      <trkpt lat="45.96957" lon="-1.07079">
        <ele>2</ele>
        <time>2021-06-12T01:47:21Z</time>
      </trkpt>
      <trkpt lat="45.97014" lon="-1.07225">
        <ele>3</ele>
        <time>2021-06-12T01:47:42Z</time>
      </trkpt>
      <trkpt lat="45.97061" lon="-1.07295">
        <ele>4</ele>
        <time>2021-06-12T01:47:54Z</time>
      </trkpt>
      <trkpt lat="45.97108" lon="-1.07378">
        <ele>4</ele>
        <time>2021-06-12T01:48:07Z</time>
      </trkpt>
      <trkpt lat="45.97147" lon="-1.07448">
        <ele>4</ele>
        <time>2021-06-12T01:48:18Z</time>
      </trkpt>
      <trkpt lat="45.97194" lon="-1.07503">
        <ele>4</ele>
        <time>2021-06-12T01:48:29Z</time>
      </trkpt>
      <trkpt lat="45.97205" lon="-1.07512">
        <ele>3</ele>
        <time>2021-06-12T01:48:31Z</time>
      </trkpt>
      <trkpt lat="45.97242" lon="-1.07527">
        <ele>3</ele>
        <time>2021-06-12T01:48:38Z</time>
      </trkpt>
      <trkpt lat="45.97253" lon="-1.07535">
        <ele>3</ele>
        <time>2021-06-12T01:48:40Z</time>
      </trkpt>
      <trkpt lat="45.97264" lon="-1.07552">
        <ele>2</ele>
        <time>2021-06-12T01:48:43Z</time>
      </trkpt>
      <trkpt lat="45.97275" lon="-1.07586">
        <ele>2</ele>
        <time>2021-06-12T01:48:48Z</time>
      </trkpt>
      <trkpt lat="45.9729" lon="-1.07691">
        <ele>2</ele>
        <time>2021-06-12T01:49:01Z</time>
      </trkpt>
      <trkpt lat="45.97288" lon="-1.07767">
        <ele>2</ele>
        <time>2021-06-12T01:49:11Z</time>
      </trkpt>
      <trkpt lat="45.97289" lon="-1.07838">
        <ele>1</ele>
        <time>2021-06-12T01:49:19Z</time>
      </trkpt>
      <trkpt lat="45.97278" lon="-1.07914">
        <ele>1</ele>
        <time>2021-06-12T01:49:29Z</time>
      </trkpt>
      <trkpt lat="45.97278" lon="-1.07947">
        <ele>1</ele>
        <time>2021-06-12T01:49:33Z</time>
      </trkpt>
      <trkpt lat="45.97284" lon="-1.08036">
        <ele>1</ele>
        <time>2021-06-12T01:49:44Z</time>
      </trkpt>
      <trkpt lat="45.97294" lon="-1.08086">
        <ele>1</ele>
        <time>2021-06-12T01:49:51Z</time>
      </trkpt>
      <trkpt lat="45.97319" lon="-1.0815">
        <ele>2</ele>
        <time>2021-06-12T01:50:00Z</time>
      </trkpt>
      <trkpt lat="45.97328" lon="-1.08197">
        <ele>3</ele>
        <time>2021-06-12T01:50:06Z</time>
      </trkpt>
      <trkpt lat="45.97343" lon="-1.08235">
        <ele>3</ele>
        <time>2021-06-12T01:50:11Z</time>
      </trkpt>
      <trkpt lat="45.97366" lon="-1.0826">
        <ele>3</ele>
        <time>2021-06-12T01:50:16Z</time>
      </trkpt>
      <trkpt lat="45.97372" lon="-1.08265">
        <ele>3</ele>
        <time>2021-06-12T01:50:17Z</time>
      </trkpt>
      <trkpt lat="45.97379" lon="-1.08271">
        <ele>3</ele>
        <time>2021-06-12T01:50:19Z</time>
      </trkpt>
      <trkpt lat="45.97406" lon="-1.08283">
        <ele>3</ele>
        <time>2021-06-12T01:50:24Z</time>
      </trkpt>
      <trkpt lat="45.97457" lon="-1.08288">
        <ele>3</ele>
        <time>2021-06-12T01:50:33Z</time>
      </trkpt>
      <trkpt lat="45.97499" lon="-1.08297">
        <ele>3</ele>
        <time>2021-06-12T01:50:41Z</time>
      </trkpt>
      <trkpt lat="45.97549" lon="-1.08314">
        <ele>3</ele>
        <time>2021-06-12T01:50:50Z</time>
      </trkpt>
      <trkpt lat="45.9756" lon="-1.08314">
        <ele>3</ele>
        <time>2021-06-12T01:50:52Z</time>
      </trkpt>
      <trkpt lat="45.97608" lon="-1.08285">
        <ele>4</ele>
        <time>2021-06-12T01:51:01Z</time>
      </trkpt>
      <trkpt lat="45.97633" lon="-1.08284">
        <ele>4</ele>
        <time>2021-06-12T01:51:05Z</time>
      </trkpt>
      <trkpt lat="45.97698" lon="-1.08287">
        <ele>4</ele>
        <time>2021-06-12T01:51:17Z</time>
      </trkpt>
      <trkpt lat="45.9776" lon="-1.08285">
        <ele>4</ele>
        <time>2021-06-12T01:51:28Z</time>
      </trkpt>
      <trkpt lat="45.97873" lon="-1.08267">
        <ele>3</ele>
        <time>2021-06-12T01:51:48Z</time>
      </trkpt>
      <trkpt lat="45.9793" lon="-1.08256">
        <ele>2</ele>
        <time>2021-06-12T01:51:58Z</time>
      </trkpt>
      <trkpt lat="45.97968" lon="-1.08372">
        <ele>4</ele>
        <time>2021-06-12T01:52:14Z</time>
      </trkpt>
      <trkpt lat="45.97983" lon="-1.08413">
        <ele>5</ele>
        <time>2021-06-12T01:52:20Z</time>
      </trkpt>
      <trkpt lat="45.98052" lon="-1.08521">
        <ele>5</ele>
        <time>2021-06-12T01:52:38Z</time>
      </trkpt>
      <trkpt lat="45.9807" lon="-1.08541">
        <ele>4</ele>
        <time>2021-06-12T01:52:42Z</time>
      </trkpt>
      <trkpt lat="45.98123" lon="-1.08573">
        <ele>5</ele>
        <time>2021-06-12T01:52:52Z</time>
      </trkpt>
      <trkpt lat="45.98132" lon="-1.08582">
        <ele>5</ele>
        <time>2021-06-12T01:52:54Z</time>
      </trkpt>
      <trkpt lat="45.98143" lon="-1.08596">
        <ele>6</ele>
        <time>2021-06-12T01:52:57Z</time>
      </trkpt>
      <trkpt lat="45.98153" lon="-1.0862">
        <ele>6</ele>
        <time>2021-06-12T01:53:00Z</time>
      </trkpt>
      <trkpt lat="45.98158" lon="-1.0864">
        <ele>5</ele>
        <time>2021-06-12T01:53:03Z</time>
      </trkpt>
      <trkpt lat="45.98168" lon="-1.08783">
        <ele>5</ele>
        <time>2021-06-12T01:53:21Z</time>
      </trkpt>
      <trkpt lat="45.98173" lon="-1.0881">
        <ele>5</ele>
        <time>2021-06-12T01:53:24Z</time>
      </trkpt>
      <trkpt lat="45.98184" lon="-1.0884">
        <ele>5</ele>
        <time>2021-06-12T01:53:28Z</time>
      </trkpt>
      <trkpt lat="45.9822" lon="-1.08901">
        <ele>7</ele>
        <time>2021-06-12T01:53:38Z</time>
      </trkpt>
      <trkpt lat="45.98223" lon="-1.08904">
        <ele>7</ele>
        <time>2021-06-12T01:53:39Z</time>
      </trkpt>
      <trkpt lat="45.9828" lon="-1.09038">
        <ele>9</ele>
        <time>2021-06-12T01:53:58Z</time>
      </trkpt>
      <trkpt lat="45.98432" lon="-1.09242">
        <ele>9</ele>
        <time>2021-06-12T01:54:35Z</time>
      </trkpt>
      <trkpt lat="45.98436" lon="-1.09244">
        <ele>9</ele>
        <time>2021-06-12T01:54:36Z</time>
      </trkpt>
      <trkpt lat="45.98451" lon="-1.09262">
        <ele>9</ele>
        <time>2021-06-12T01:54:40Z</time>
      </trkpt>
      <trkpt lat="45.98453" lon="-1.09274">
        <ele>9</ele>
        <time>2021-06-12T01:54:41Z</time>
      </trkpt>
      <trkpt lat="45.98453" lon="-1.09286">
        <ele>9</ele>
        <time>2021-06-12T01:54:43Z</time>
      </trkpt>
      <trkpt lat="45.98474" lon="-1.09397">
        <ele>12</ele>
        <time>2021-06-12T01:54:57Z</time>
      </trkpt>
      <trkpt lat="45.98487" lon="-1.09443">
        <ele>14</ele>
        <time>2021-06-12T01:55:03Z</time>
      </trkpt>
      <trkpt lat="45.98504" lon="-1.09478">
        <ele>15</ele>
        <time>2021-06-12T01:55:08Z</time>
      </trkpt>
      <trkpt lat="45.98542" lon="-1.09507">
        <ele>16</ele>
        <time>2021-06-12T01:55:16Z</time>
      </trkpt>
      <trkpt lat="45.98569" lon="-1.09529">
        <ele>16</ele>
        <time>2021-06-12T01:55:21Z</time>
      </trkpt>
      <trkpt lat="45.98599" lon="-1.09549">
        <ele>16</ele>
        <time>2021-06-12T01:55:27Z</time>
      </trkpt>
      <trkpt lat="45.98599" lon="-1.09558">
        <ele>16</ele>
        <time>2021-06-12T01:55:28Z</time>
      </trkpt>
      <trkpt lat="45.98602" lon="-1.09563">
        <ele>16</ele>
        <time>2021-06-12T01:55:29Z</time>
      </trkpt>
      <trkpt lat="45.98645" lon="-1.096">
        <ele>14</ele>
        <time>2021-06-12T01:55:38Z</time>
      </trkpt>
      <trkpt lat="45.98682" lon="-1.09646">
        <ele>13</ele>
        <time>2021-06-12T01:55:47Z</time>
      </trkpt>
      <trkpt lat="45.98696" lon="-1.09694">
        <ele>12</ele>
        <time>2021-06-12T01:55:53Z</time>
      </trkpt>
      <trkpt lat="45.98698" lon="-1.09706">
        <ele>12</ele>
        <time>2021-06-12T01:55:55Z</time>
      </trkpt>
      <trkpt lat="45.98696" lon="-1.09716">
        <ele>12</ele>
        <time>2021-06-12T01:55:56Z</time>
      </trkpt>
      <trkpt lat="45.98702" lon="-1.09721">
        <ele>12</ele>
        <time>2021-06-12T01:55:57Z</time>
      </trkpt>
      <trkpt lat="45.98729" lon="-1.09747">
        <ele>11</ele>
        <time>2021-06-12T01:56:03Z</time>
      </trkpt>
      <trkpt lat="45.98746" lon="-1.09759">
        <ele>9</ele>
        <time>2021-06-12T01:56:07Z</time>
      </trkpt>
      <trkpt lat="45.98759" lon="-1.09764">
        <ele>9</ele>
        <time>2021-06-12T01:56:09Z</time>
      </trkpt>
      <trkpt lat="45.98983" lon="-1.09801">
        <ele>10</ele>
        <time>2021-06-12T01:56:49Z</time>
      </trkpt>
      <trkpt lat="45.99085" lon="-1.0981">
        <ele>12</ele>
        <time>2021-06-12T01:57:07Z</time>
      </trkpt>
      <trkpt lat="45.99089" lon="-1.09873">
        <ele>11</ele>
        <time>2021-06-12T01:57:15Z</time>
      </trkpt>
      <trkpt lat="45.99097" lon="-1.09893">
        <ele>11</ele>
        <time>2021-06-12T01:57:18Z</time>
      </trkpt>
      <trkpt lat="45.99144" lon="-1.09967">
        <ele>11</ele>
        <time>2021-06-12T01:57:30Z</time>
      </trkpt>
      <trkpt lat="45.99187" lon="-1.10032">
        <ele>11</ele>
        <time>2021-06-12T01:57:41Z</time>
      </trkpt>
      <trkpt lat="45.99401" lon="-1.10346">
        <ele>11</ele>
        <time>2021-06-12T01:58:36Z</time>
      </trkpt>
      <trkpt lat="45.99427" lon="-1.10386">
        <ele>8</ele>
        <time>2021-06-12T01:58:43Z</time>
      </trkpt>
      <trkpt lat="45.99446" lon="-1.10428">
        <ele>5</ele>
        <time>2021-06-12T01:58:49Z</time>
      </trkpt>
      <trkpt lat="45.9949" lon="-1.10582">
        <ele>4</ele>
        <time>2021-06-12T01:59:09Z</time>
      </trkpt>
      <trkpt lat="45.995" lon="-1.1061">
        <ele>2</ele>
        <time>2021-06-12T01:59:13Z</time>
      </trkpt>
      <trkpt lat="45.99514" lon="-1.10632">
        <ele>3</ele>
        <time>2021-06-12T01:59:17Z</time>
      </trkpt>
      <trkpt lat="45.99529" lon="-1.10645">
        <ele>2</ele>
        <time>2021-06-12T01:59:20Z</time>
      </trkpt>
      <trkpt lat="45.99543" lon="-1.10652">
        <ele>2</ele>
        <time>2021-06-12T01:59:23Z</time>
      </trkpt>
      <trkpt lat="45.99575" lon="-1.10652">
        <ele>2</ele>
        <time>2021-06-12T01:59:28Z</time>
      </trkpt>
      <trkpt lat="45.99644" lon="-1.1064">
        <ele>2</ele>
        <time>2021-06-12T01:59:41Z</time>
      </trkpt>
      <trkpt lat="45.99653" lon="-1.10633">
        <ele>2</ele>
        <time>2021-06-12T01:59:43Z</time>
      </trkpt>
      <trkpt lat="45.99664" lon="-1.10616">
        <ele>2</ele>
        <time>2021-06-12T01:59:45Z</time>
      </trkpt>
      <trkpt lat="45.99668" lon="-1.10623">
        <ele>2</ele>
        <time>2021-06-12T01:59:47Z</time>
      </trkpt>
      <trkpt lat="45.99674" lon="-1.10631">
        <ele>2</ele>
        <time>2021-06-12T01:59:48Z</time>
      </trkpt>
      <trkpt lat="45.99693" lon="-1.10656">
        <ele>2</ele>
        <time>2021-06-12T01:59:53Z</time>
      </trkpt>
      <trkpt lat="45.99702" lon="-1.10665">
        <ele>2</ele>
        <time>2021-06-12T01:59:54Z</time>
      </trkpt>
      <trkpt lat="45.99739" lon="-1.10707">
        <ele>3</ele>
        <time>2021-06-12T02:00:03Z</time>
      </trkpt>
      <trkpt lat="45.99752" lon="-1.10721">
        <ele>3</ele>
        <time>2021-06-12T02:00:06Z</time>
      </trkpt>
      <trkpt lat="45.99807" lon="-1.10784">
        <ele>2</ele>
        <time>2021-06-12T02:00:18Z</time>
      </trkpt>
      <trkpt lat="45.9984" lon="-1.1082">
        <ele>2</ele>
        <time>2021-06-12T02:00:26Z</time>
      </trkpt>
      <trkpt lat="45.99866" lon="-1.1085">
        <ele>2</ele>
        <time>2021-06-12T02:00:32Z</time>
      </trkpt>
      <trkpt lat="45.99894" lon="-1.10881">
        <ele>2</ele>
        <time>2021-06-12T02:00:38Z</time>
      </trkpt>
      <trkpt lat="45.99915" lon="-1.10912">
        <ele>3</ele>
        <time>2021-06-12T02:00:43Z</time>
      </trkpt>
      <trkpt lat="45.99919" lon="-1.10919">
        <ele>3</ele>
        <time>2021-06-12T02:00:44Z</time>
      </trkpt>
      <trkpt lat="45.99972" lon="-1.11014">
        <ele>3</ele>
        <time>2021-06-12T02:00:59Z</time>
      </trkpt>
      <trkpt lat="45.99985" lon="-1.11047">
        <ele>3</ele>
        <time>2021-06-12T02:01:04Z</time>
      </trkpt>
      <trkpt lat="46" lon="-1.11108">
        <ele>3</ele>
        <time>2021-06-12T02:01:12Z</time>
      </trkpt>
      <trkpt lat="46.00011" lon="-1.11141">
        <ele>2</ele>
        <time>2021-06-12T02:01:17Z</time>
      </trkpt>
      <trkpt lat="46.00029" lon="-1.11173">
        <ele>3</ele>
        <time>2021-06-12T02:01:22Z</time>
      </trkpt>
      <trkpt lat="46.00076" lon="-1.11246">
        <ele>3</ele>
        <time>2021-06-12T02:01:34Z</time>
      </trkpt>
      <trkpt lat="46.00102" lon="-1.11297">
        <ele>2</ele>
        <time>2021-06-12T02:01:42Z</time>
      </trkpt>
      <trkpt lat="46.00124" lon="-1.11333">
        <ele>2</ele>
        <time>2021-06-12T02:01:48Z</time>
      </trkpt>
      <trkpt lat="46.00145" lon="-1.11362">
        <ele>2</ele>
        <time>2021-06-12T02:01:53Z</time>
      </trkpt>
      <trkpt lat="46.00171" lon="-1.11394">
        <ele>3</ele>
        <time>2021-06-12T02:01:59Z</time>
      </trkpt>
      <trkpt lat="46.00186" lon="-1.11425">
        <ele>2</ele>
        <time>2021-06-12T02:02:04Z</time>
      </trkpt>
      <trkpt lat="46.002" lon="-1.1148">
        <ele>1</ele>
        <time>2021-06-12T02:02:11Z</time>
      </trkpt>
      <trkpt lat="46.00205" lon="-1.11508">
        <ele>1</ele>
        <time>2021-06-12T02:02:14Z</time>
      </trkpt>
      <trkpt lat="46.00218" lon="-1.11619">
        <ele>1</ele>
        <time>2021-06-12T02:02:28Z</time>
      </trkpt>
      <trkpt lat="46.00221" lon="-1.11661">
        <ele>1</ele>
        <time>2021-06-12T02:02:34Z</time>
      </trkpt>
      <trkpt lat="46.00222" lon="-1.1172">
        <ele>2</ele>
        <time>2021-06-12T02:02:41Z</time>
      </trkpt>
      <trkpt lat="46.00221" lon="-1.11661">
        <ele>1</ele>
        <time>2021-06-12T02:02:48Z</time>
      </trkpt>
      <trkpt lat="46.00218" lon="-1.11619">
        <ele>1</ele>
        <time>2021-06-12T02:02:53Z</time>
      </trkpt>
      <trkpt lat="46.00205" lon="-1.11508">
        <ele>1</ele>
        <time>2021-06-12T02:03:07Z</time>
      </trkpt>
      <trkpt lat="46.002" lon="-1.1148">
        <ele>1</ele>
        <time>2021-06-12T02:03:11Z</time>
      </trkpt>
      <trkpt lat="46.00186" lon="-1.11425">
        <ele>2</ele>
        <time>2021-06-12T02:03:18Z</time>
      </trkpt>
      <trkpt lat="46.00171" lon="-1.11394">
        <ele>3</ele>
        <time>2021-06-12T02:03:23Z</time>
      </trkpt>
      <trkpt lat="46.00145" lon="-1.11362">
        <ele>2</ele>
        <time>2021-06-12T02:03:29Z</time>
      </trkpt>
      <trkpt lat="46.00124" lon="-1.11333">
        <ele>2</ele>
        <time>2021-06-12T02:03:34Z</time>
      </trkpt>
      <trkpt lat="46.00102" lon="-1.11297">
        <ele>2</ele>
        <time>2021-06-12T02:03:40Z</time>
      </trkpt>
      <trkpt lat="46.00076" lon="-1.11246">
        <ele>3</ele>
        <time>2021-06-12T02:03:48Z</time>
      </trkpt>
      <trkpt lat="46.00029" lon="-1.11173">
        <ele>3</ele>
        <time>2021-06-12T02:04:00Z</time>
      </trkpt>
      <trkpt lat="46.00011" lon="-1.11141">
        <ele>2</ele>
        <time>2021-06-12T02:04:05Z</time>
      </trkpt>
      <trkpt lat="46" lon="-1.11108">
        <ele>3</ele>
        <time>2021-06-12T02:04:10Z</time>
      </trkpt>
      <trkpt lat="45.99985" lon="-1.11047">
        <ele>3</ele>
        <time>2021-06-12T02:04:18Z</time>
      </trkpt>
      <trkpt lat="45.99972" lon="-1.11014">
        <ele>3</ele>
        <time>2021-06-12T02:04:22Z</time>
      </trkpt>
      <trkpt lat="45.99919" lon="-1.10919">
        <ele>3</ele>
        <time>2021-06-12T02:04:37Z</time>
      </trkpt>
      <trkpt lat="45.99894" lon="-1.10881">
        <ele>2</ele>
        <time>2021-06-12T02:04:44Z</time>
      </trkpt>
      <trkpt lat="45.99693" lon="-1.10656">
        <ele>2</ele>
        <time>2021-06-12T02:05:29Z</time>
      </trkpt>
      <trkpt lat="45.99664" lon="-1.10616">
        <ele>2</ele>
        <time>2021-06-12T02:05:36Z</time>
      </trkpt>
      <trkpt lat="45.99635" lon="-1.10562">
        <ele>2</ele>
        <time>2021-06-12T02:05:45Z</time>
      </trkpt>
      <trkpt lat="45.99612" lon="-1.10513">
        <ele>3</ele>
        <time>2021-06-12T02:05:52Z</time>
      </trkpt>
      <trkpt lat="45.99589" lon="-1.10444">
        <ele>4</ele>
        <time>2021-06-12T02:06:02Z</time>
      </trkpt>
      <trkpt lat="45.99566" lon="-1.10357">
        <ele>4</ele>
        <time>2021-06-12T02:06:13Z</time>
      </trkpt>
      <trkpt lat="45.99547" lon="-1.1028">
        <ele>5</ele>
        <time>2021-06-12T02:06:23Z</time>
      </trkpt>
      <trkpt lat="45.99531" lon="-1.10219">
        <ele>5</ele>
        <time>2021-06-12T02:06:31Z</time>
      </trkpt>
      <trkpt lat="45.99544" lon="-1.10211">
        <ele>5</ele>
        <time>2021-06-12T02:06:34Z</time>
      </trkpt>
      <trkpt lat="45.99538" lon="-1.1019">
        <ele>5</ele>
        <time>2021-06-12T02:06:37Z</time>
      </trkpt>
      <trkpt lat="45.99529" lon="-1.10139">
        <ele>5</ele>
        <time>2021-06-12T02:06:43Z</time>
      </trkpt>
      <trkpt lat="45.99595" lon="-1.10114">
        <ele>3</ele>
        <time>2021-06-12T02:06:55Z</time>
      </trkpt>
      <trkpt lat="45.99599" lon="-1.10115">
        <ele>3</ele>
        <time>2021-06-12T02:06:56Z</time>
      </trkpt>
      <trkpt lat="45.99611" lon="-1.10065">
        <ele>3</ele>
        <time>2021-06-12T02:07:03Z</time>
      </trkpt>
      <trkpt lat="45.99613" lon="-1.10046">
        <ele>3</ele>
        <time>2021-06-12T02:07:05Z</time>
      </trkpt>
      <trkpt lat="45.99611" lon="-1.10025">
        <ele>3</ele>
        <time>2021-06-12T02:07:08Z</time>
      </trkpt>
      <trkpt lat="45.99607" lon="-1.10009">
        <ele>3</ele>
        <time>2021-06-12T02:07:10Z</time>
      </trkpt>
      <trkpt lat="45.99565" lon="-1.09875">
        <ele>2</ele>
        <time>2021-06-12T02:07:28Z</time>
      </trkpt>
      <trkpt lat="45.9956" lon="-1.09872">
        <ele>2</ele>
        <time>2021-06-12T02:07:29Z</time>
      </trkpt>
      <trkpt lat="45.99368" lon="-1.09868">
        <ele>5</ele>
        <time>2021-06-12T02:08:03Z</time>
      </trkpt>
      <trkpt lat="45.99367" lon="-1.09863">
        <ele>5</ele>
        <time>2021-06-12T02:08:04Z</time>
      </trkpt>
      <trkpt lat="45.99363" lon="-1.09858">
        <ele>5</ele>
        <time>2021-06-12T02:08:04Z</time>
      </trkpt>
      <trkpt lat="45.99349" lon="-1.09852">
        <ele>5</ele>
        <time>2021-06-12T02:08:07Z</time>
      </trkpt>
      <trkpt lat="45.9933" lon="-1.09834">
        <ele>5</ele>
        <time>2021-06-12T02:08:11Z</time>
      </trkpt>
      <trkpt lat="45.99332" lon="-1.09818">
        <ele>5</ele>
        <time>2021-06-12T02:08:13Z</time>
      </trkpt>
      <trkpt lat="45.99332" lon="-1.09811">
        <ele>4</ele>
        <time>2021-06-12T02:08:14Z</time>
      </trkpt>
      <trkpt lat="45.99325" lon="-1.09798">
        <ele>4</ele>
        <time>2021-06-12T02:08:16Z</time>
      </trkpt>
      <trkpt lat="45.99321" lon="-1.09785">
        <ele>4</ele>
        <time>2021-06-12T02:08:18Z</time>
      </trkpt>
      <trkpt lat="45.99322" lon="-1.09771">
        <ele>3</ele>
        <time>2021-06-12T02:08:20Z</time>
      </trkpt>
      <trkpt lat="45.99295" lon="-1.09742">
        <ele>4</ele>
        <time>2021-06-12T02:08:26Z</time>
      </trkpt>
      <trkpt lat="45.99274" lon="-1.09727">
        <ele>4</ele>
        <time>2021-06-12T02:08:30Z</time>
      </trkpt>
      <trkpt lat="45.99253" lon="-1.0972">
        <ele>5</ele>
        <time>2021-06-12T02:08:34Z</time>
      </trkpt>
      <trkpt lat="45.99227" lon="-1.09719">
        <ele>6</ele>
        <time>2021-06-12T02:08:38Z</time>
      </trkpt>
      <trkpt lat="45.99221" lon="-1.09716">
        <ele>6</ele>
        <time>2021-06-12T02:08:39Z</time>
      </trkpt>
      <trkpt lat="45.99214" lon="-1.09704">
        <ele>5</ele>
        <time>2021-06-12T02:08:41Z</time>
      </trkpt>
      <trkpt lat="45.99211" lon="-1.09696">
        <ele>5</ele>
        <time>2021-06-12T02:08:42Z</time>
      </trkpt>
      <trkpt lat="45.99193" lon="-1.09626">
        <ele>4</ele>
        <time>2021-06-12T02:08:52Z</time>
      </trkpt>
      <trkpt lat="45.9919" lon="-1.09631">
        <ele>4</ele>
        <time>2021-06-12T02:08:52Z</time>
      </trkpt>
      <trkpt lat="45.99151" lon="-1.09649">
        <ele>5</ele>
        <time>2021-06-12T02:09:00Z</time>
      </trkpt>
      <trkpt lat="45.99148" lon="-1.09653">
        <ele>5</ele>
        <time>2021-06-12T02:09:00Z</time>
      </trkpt>
      <trkpt lat="45.99097" lon="-1.0954">
        <ele>5</ele>
        <time>2021-06-12T02:09:17Z</time>
      </trkpt>
      <trkpt lat="45.99082" lon="-1.09488">
        <ele>5</ele>
        <time>2021-06-12T02:09:24Z</time>
      </trkpt>
      <trkpt lat="45.99062" lon="-1.09397">
        <ele>5</ele>
        <time>2021-06-12T02:09:36Z</time>
      </trkpt>
      <trkpt lat="45.99061" lon="-1.09388">
        <ele>5</ele>
        <time>2021-06-12T02:09:37Z</time>
      </trkpt>
      <trkpt lat="45.99067" lon="-1.0933">
        <ele>5</ele>
        <time>2021-06-12T02:09:44Z</time>
      </trkpt>
      <trkpt lat="45.99073" lon="-1.09202">
        <ele>6</ele>
        <time>2021-06-12T02:10:00Z</time>
      </trkpt>
      <trkpt lat="45.99117" lon="-1.09212">
        <ele>6</ele>
        <time>2021-06-12T02:10:08Z</time>
      </trkpt>
      <trkpt lat="45.99162" lon="-1.09218">
        <ele>7</ele>
        <time>2021-06-12T02:10:16Z</time>
      </trkpt>
      <trkpt lat="45.99187" lon="-1.09003">
        <ele>5</ele>
        <time>2021-06-12T02:10:43Z</time>
      </trkpt>
      <trkpt lat="45.99193" lon="-1.08953">
        <ele>5</ele>
        <time>2021-06-12T02:10:49Z</time>
      </trkpt>
      <trkpt lat="45.99198" lon="-1.0893">
        <ele>5</ele>
        <time>2021-06-12T02:10:52Z</time>
      </trkpt>
      <trkpt lat="45.99209" lon="-1.08899">
        <ele>5</ele>
        <time>2021-06-12T02:10:57Z</time>
      </trkpt>
      <trkpt lat="45.99226" lon="-1.08872">
        <ele>5</ele>
        <time>2021-06-12T02:11:01Z</time>
      </trkpt>
      <trkpt lat="45.99278" lon="-1.08803">
        <ele>4</ele>
        <time>2021-06-12T02:11:14Z</time>
      </trkpt>
      <trkpt lat="45.99311" lon="-1.08771">
        <ele>4</ele>
        <time>2021-06-12T02:11:21Z</time>
      </trkpt>
      <trkpt lat="45.9934" lon="-1.08864">
        <ele>2</ele>
        <time>2021-06-12T02:11:33Z</time>
      </trkpt>
      <trkpt lat="45.99347" lon="-1.08847">
        <ele>2</ele>
        <time>2021-06-12T02:11:36Z</time>
      </trkpt>
      <trkpt lat="45.99383" lon="-1.08786">
        <ele>3</ele>
        <time>2021-06-12T02:11:46Z</time>
      </trkpt>
      <trkpt lat="45.99431" lon="-1.08746">
        <ele>4</ele>
        <time>2021-06-12T02:11:56Z</time>
      </trkpt>
      <trkpt lat="45.99473" lon="-1.08668">
        <ele>2</ele>
        <time>2021-06-12T02:12:08Z</time>
      </trkpt>
      <trkpt lat="45.99476" lon="-1.08654">
        <ele>2</ele>
        <time>2021-06-12T02:12:10Z</time>
      </trkpt>
      <trkpt lat="45.99489" lon="-1.08548">
        <ele>3</ele>
        <time>2021-06-12T02:12:23Z</time>
      </trkpt>
      <trkpt lat="45.99494" lon="-1.08529">
        <ele>3</ele>
        <time>2021-06-12T02:12:25Z</time>
      </trkpt>
      <trkpt lat="45.99578" lon="-1.08268">
        <ele>3</ele>
        <time>2021-06-12T02:13:01Z</time>
      </trkpt>
      <trkpt lat="45.99638" lon="-1.08208">
        <ele>2</ele>
        <time>2021-06-12T02:13:14Z</time>
      </trkpt>
      <trkpt lat="45.99646" lon="-1.08194">
        <ele>2</ele>
        <time>2021-06-12T02:13:16Z</time>
      </trkpt>
      <trkpt lat="45.99652" lon="-1.0818">
        <ele>1</ele>
        <time>2021-06-12T02:13:18Z</time>
      </trkpt>
      <trkpt lat="45.99655" lon="-1.08129">
        <ele>2</ele>
        <time>2021-06-12T02:13:25Z</time>
      </trkpt>
      <trkpt lat="45.99663" lon="-1.08088">
        <ele>2</ele>
        <time>2021-06-12T02:13:30Z</time>
      </trkpt>
      <trkpt lat="45.99661" lon="-1.0807">
        <ele>2</ele>
        <time>2021-06-12T02:13:32Z</time>
      </trkpt>
      <trkpt lat="45.99656" lon="-1.08048">
        <ele>2</ele>
        <time>2021-06-12T02:13:35Z</time>
      </trkpt>
      <trkpt lat="45.99652" lon="-1.08041">
        <ele>2</ele>
        <time>2021-06-12T02:13:36Z</time>
      </trkpt>
      <trkpt lat="45.99646" lon="-1.08038">
        <ele>2</ele>
        <time>2021-06-12T02:13:37Z</time>
      </trkpt>
      <trkpt lat="45.99627" lon="-1.08016">
        <ele>3</ele>
        <time>2021-06-12T02:13:41Z</time>
      </trkpt>
      <trkpt lat="45.99616" lon="-1.07997">
        <ele>3</ele>
        <time>2021-06-12T02:13:45Z</time>
      </trkpt>
      <trkpt lat="45.99609" lon="-1.07978">
        <ele>4</ele>
        <time>2021-06-12T02:13:47Z</time>
      </trkpt>
      <trkpt lat="45.99607" lon="-1.0796">
        <ele>3</ele>
        <time>2021-06-12T02:13:49Z</time>
      </trkpt>
      <trkpt lat="45.99607" lon="-1.07943">
        <ele>3</ele>
        <time>2021-06-12T02:13:52Z</time>
      </trkpt>
      <trkpt lat="45.99604" lon="-1.07935">
        <ele>3</ele>
        <time>2021-06-12T02:13:53Z</time>
      </trkpt>
      <trkpt lat="45.99595" lon="-1.07922">
        <ele>4</ele>
        <time>2021-06-12T02:13:55Z</time>
      </trkpt>
      <trkpt lat="45.9959" lon="-1.07908">
        <ele>4</ele>
        <time>2021-06-12T02:13:57Z</time>
      </trkpt>
      <trkpt lat="45.99588" lon="-1.07883">
        <ele>3</ele>
        <time>2021-06-12T02:14:00Z</time>
      </trkpt>
      <trkpt lat="45.99582" lon="-1.07841">
        <ele>3</ele>
        <time>2021-06-12T02:14:05Z</time>
      </trkpt>
      <trkpt lat="45.99586" lon="-1.07832">
        <ele>3</ele>
        <time>2021-06-12T02:14:07Z</time>
      </trkpt>
      <trkpt lat="45.99587" lon="-1.07811">
        <ele>3</ele>
        <time>2021-06-12T02:14:09Z</time>
      </trkpt>
      <trkpt lat="45.99587" lon="-1.07776">
        <ele>4</ele>
        <time>2021-06-12T02:14:14Z</time>
      </trkpt>
      <trkpt lat="45.99593" lon="-1.0771">
        <ele>4</ele>
        <time>2021-06-12T02:14:22Z</time>
      </trkpt>
      <trkpt lat="45.99593" lon="-1.07696">
        <ele>4</ele>
        <time>2021-06-12T02:14:23Z</time>
      </trkpt>
      <trkpt lat="45.9959" lon="-1.07684">
        <ele>4</ele>
        <time>2021-06-12T02:14:25Z</time>
      </trkpt>
      <trkpt lat="45.99587" lon="-1.07677">
        <ele>5</ele>
        <time>2021-06-12T02:14:26Z</time>
      </trkpt>
      <trkpt lat="45.99565" lon="-1.07653">
        <ele>6</ele>
        <time>2021-06-12T02:14:31Z</time>
      </trkpt>
      <trkpt lat="45.99562" lon="-1.07641">
        <ele>6</ele>
        <time>2021-06-12T02:14:33Z</time>
      </trkpt>
      <trkpt lat="45.9953" lon="-1.07632">
        <ele>6</ele>
        <time>2021-06-12T02:14:38Z</time>
      </trkpt>
      <trkpt lat="45.99523" lon="-1.07623">
        <ele>7</ele>
        <time>2021-06-12T02:14:40Z</time>
      </trkpt>
      <trkpt lat="45.99509" lon="-1.07624">
        <ele>7</ele>
        <time>2021-06-12T02:14:43Z</time>
      </trkpt>
      <trkpt lat="45.995" lon="-1.07629">
        <ele>7</ele>
        <time>2021-06-12T02:14:44Z</time>
      </trkpt>
      <trkpt lat="45.99472" lon="-1.07663">
        <ele>7</ele>
        <time>2021-06-12T02:14:51Z</time>
      </trkpt>
      <trkpt lat="45.99462" lon="-1.0767">
        <ele>7</ele>
        <time>2021-06-12T02:14:53Z</time>
      </trkpt>
      <trkpt lat="45.99424" lon="-1.07686">
        <ele>8</ele>
        <time>2021-06-12T02:15:00Z</time>
      </trkpt>
      <trkpt lat="45.99416" lon="-1.07542">
        <ele>9</ele>
        <time>2021-06-12T02:15:18Z</time>
      </trkpt>
      <trkpt lat="45.99354" lon="-1.065">
        <ele>4</ele>
        <time>2021-06-12T02:17:27Z</time>
      </trkpt>
      <trkpt lat="45.99368" lon="-1.06486">
        <ele>3</ele>
        <time>2021-06-12T02:17:30Z</time>
      </trkpt>
      <trkpt lat="45.99377" lon="-1.06461">
        <ele>2</ele>
        <time>2021-06-12T02:17:33Z</time>
      </trkpt>
      <trkpt lat="45.99381" lon="-1.06455">
        <ele>2</ele>
        <time>2021-06-12T02:17:34Z</time>
      </trkpt>
      <trkpt lat="45.99391" lon="-1.06449">
        <ele>2</ele>
        <time>2021-06-12T02:17:36Z</time>
      </trkpt>
      <trkpt lat="45.99382" lon="-1.06427">
        <ele>2</ele>
        <time>2021-06-12T02:17:40Z</time>
      </trkpt>
      <trkpt lat="45.99381" lon="-1.06417">
        <ele>1</ele>
        <time>2021-06-12T02:17:41Z</time>
      </trkpt>
      <trkpt lat="45.99385" lon="-1.06363">
        <ele>1</ele>
        <time>2021-06-12T02:17:48Z</time>
      </trkpt>
      <trkpt lat="45.99388" lon="-1.06328">
        <ele>1</ele>
        <time>2021-06-12T02:17:52Z</time>
      </trkpt>
      <trkpt lat="45.99387" lon="-1.063">
        <ele>1</ele>
        <time>2021-06-12T02:17:55Z</time>
      </trkpt>
      <trkpt lat="45.99391" lon="-1.0627">
        <ele>1</ele>
        <time>2021-06-12T02:17:59Z</time>
      </trkpt>
      <trkpt lat="45.9939" lon="-1.06253">
        <ele>1</ele>
        <time>2021-06-12T02:18:01Z</time>
      </trkpt>
      <trkpt lat="45.99385" lon="-1.0623">
        <ele>2</ele>
        <time>2021-06-12T02:18:04Z</time>
      </trkpt>
      <trkpt lat="45.99386" lon="-1.06204">
        <ele>2</ele>
        <time>2021-06-12T02:18:07Z</time>
      </trkpt>
      <trkpt lat="45.99384" lon="-1.06165">
        <ele>2</ele>
        <time>2021-06-12T02:18:12Z</time>
      </trkpt>
      <trkpt lat="45.99385" lon="-1.06113">
        <ele>1</ele>
        <time>2021-06-12T02:18:19Z</time>
      </trkpt>
      <trkpt lat="45.99388" lon="-1.06097">
        <ele>1</ele>
        <time>2021-06-12T02:18:21Z</time>
      </trkpt>
      <trkpt lat="45.99402" lon="-1.06064">
        <ele>1</ele>
        <time>2021-06-12T02:18:26Z</time>
      </trkpt>
      <trkpt lat="45.9941" lon="-1.06034">
        <ele>2</ele>
        <time>2021-06-12T02:18:29Z</time>
      </trkpt>
      <trkpt lat="45.99424" lon="-1.06007">
        <ele>3</ele>
        <time>2021-06-12T02:18:34Z</time>
      </trkpt>
      <trkpt lat="45.99425" lon="-1.06027">
        <ele>2</ele>
        <time>2021-06-12T02:18:36Z</time>
      </trkpt>
      <trkpt lat="45.99424" lon="-1.06032">
        <ele>2</ele>
        <time>2021-06-12T02:18:37Z</time>
      </trkpt>
      <trkpt lat="45.99441" lon="-1.06007">
        <ele>2</ele>
        <time>2021-06-12T02:18:41Z</time>
      </trkpt>
      <trkpt lat="45.99611" lon="-1.05801">
        <ele>1</ele>
        <time>2021-06-12T02:19:21Z</time>
      </trkpt>
      <trkpt lat="45.99694" lon="-1.05713">
        <ele>1</ele>
        <time>2021-06-12T02:19:39Z</time>
      </trkpt>
      <trkpt lat="45.99849" lon="-1.05569">
        <ele>1</ele>
        <time>2021-06-12T02:20:12Z</time>
      </trkpt>
      <trkpt lat="45.99923" lon="-1.0551">
        <ele>2</ele>
        <time>2021-06-12T02:20:27Z</time>
      </trkpt>
      <trkpt lat="46.00032" lon="-1.05441">
        <ele>3.8</ele>
        <time>2021-06-12T02:20:48Z</time>
      </trkpt>
      <trkpt lat="46.0012" lon="-1.05394">
        <ele>1</ele>
        <time>2021-06-12T02:21:05Z</time>
      </trkpt>
      <trkpt lat="46.0018" lon="-1.05358">
        <ele>2</ele>
        <time>2021-06-12T02:21:16Z</time>
      </trkpt>
      <trkpt lat="46.00276" lon="-1.05319">
        <ele>1</ele>
        <time>2021-06-12T02:21:34Z</time>
      </trkpt>
      <trkpt lat="46.00807" lon="-1.05215">
        <ele>2</ele>
        <time>2021-06-12T02:23:09Z</time>
      </trkpt>
      <trkpt lat="46.00814" lon="-1.05228">
        <ele>1</ele>
        <time>2021-06-12T02:23:11Z</time>
      </trkpt>
      <trkpt lat="46.00833" lon="-1.05207">
        <ele>2</ele>
        <time>2021-06-12T02:23:16Z</time>
      </trkpt>
      <trkpt lat="46.00846" lon="-1.05203">
        <ele>2</ele>
        <time>2021-06-12T02:23:18Z</time>
      </trkpt>
      <trkpt lat="46.00859" lon="-1.05196">
        <ele>2</ele>
        <time>2021-06-12T02:23:21Z</time>
      </trkpt>
      <trkpt lat="46.00884" lon="-1.05163">
        <ele>2</ele>
        <time>2021-06-12T02:23:27Z</time>
      </trkpt>
      <trkpt lat="46.00893" lon="-1.05144">
        <ele>2</ele>
        <time>2021-06-12T02:23:29Z</time>
      </trkpt>
      <trkpt lat="46.00902" lon="-1.05128">
        <ele>2</ele>
        <time>2021-06-12T02:23:32Z</time>
      </trkpt>
      <trkpt lat="46.00925" lon="-1.05107">
        <ele>2</ele>
        <time>2021-06-12T02:23:37Z</time>
      </trkpt>
      <trkpt lat="46.00932" lon="-1.05095">
        <ele>2</ele>
        <time>2021-06-12T02:23:39Z</time>
      </trkpt>
      <trkpt lat="46.0094" lon="-1.05057">
        <ele>1</ele>
        <time>2021-06-12T02:23:44Z</time>
      </trkpt>
      <trkpt lat="46.00974" lon="-1.04842">
        <ele>2</ele>
        <time>2021-06-12T02:24:11Z</time>
      </trkpt>
      <trkpt lat="46.01641" lon="-1.04922">
        <ele>8</ele>
        <time>2021-06-12T02:26:10Z</time>
      </trkpt>
      <trkpt lat="46.01717" lon="-1.04869">
        <ele>10</ele>
        <time>2021-06-12T02:26:25Z</time>
      </trkpt>
      <trkpt lat="46.01805" lon="-1.04795">
        <ele>10</ele>
        <time>2021-06-12T02:26:43Z</time>
      </trkpt>
      <trkpt lat="46.01836" lon="-1.04772">
        <ele>9</ele>
        <time>2021-06-12T02:26:49Z</time>
      </trkpt>
      <trkpt lat="46.01868" lon="-1.04759">
        <ele>9</ele>
        <time>2021-06-12T02:26:55Z</time>
      </trkpt>
      <trkpt lat="46.01978" lon="-1.04677">
        <ele>6</ele>
        <time>2021-06-12T02:27:17Z</time>
      </trkpt>
      <trkpt lat="46.0201" lon="-1.04658">
        <ele>6</ele>
        <time>2021-06-12T02:27:23Z</time>
      </trkpt>
      <trkpt lat="46.02021" lon="-1.04654">
        <ele>6</ele>
        <time>2021-06-12T02:27:25Z</time>
      </trkpt>
      <trkpt lat="46.02042" lon="-1.04655">
        <ele>5</ele>
        <time>2021-06-12T02:27:29Z</time>
      </trkpt>
      <trkpt lat="46.02054" lon="-1.04649">
        <ele>5</ele>
        <time>2021-06-12T02:27:31Z</time>
      </trkpt>
      <trkpt lat="46.02063" lon="-1.04639">
        <ele>5</ele>
        <time>2021-06-12T02:27:34Z</time>
      </trkpt>
      <trkpt lat="46.02068" lon="-1.04622">
        <ele>5</ele>
        <time>2021-06-12T02:27:36Z</time>
      </trkpt>
      <trkpt lat="46.02071" lon="-1.04563">
        <ele>4</ele>
        <time>2021-06-12T02:27:43Z</time>
      </trkpt>
      <trkpt lat="46.02072" lon="-1.04559">
        <ele>4</ele>
        <time>2021-06-12T02:27:44Z</time>
      </trkpt>
      <trkpt lat="46.02076" lon="-1.04556">
        <ele>4</ele>
        <time>2021-06-12T02:27:44Z</time>
      </trkpt>
      <trkpt lat="46.02086" lon="-1.04557">
        <ele>4</ele>
        <time>2021-06-12T02:27:46Z</time>
      </trkpt>
      <trkpt lat="46.02099" lon="-1.04564">
        <ele>4</ele>
        <time>2021-06-12T02:27:49Z</time>
      </trkpt>
      <trkpt lat="46.02127" lon="-1.04595">
        <ele>4</ele>
        <time>2021-06-12T02:27:55Z</time>
      </trkpt>
      <trkpt lat="46.02189" lon="-1.04619">
        <ele>2</ele>
        <time>2021-06-12T02:28:06Z</time>
      </trkpt>
      <trkpt lat="46.02296" lon="-1.04652">
        <ele>1</ele>
        <time>2021-06-12T02:28:26Z</time>
      </trkpt>
      <trkpt lat="46.02755" lon="-1.04798">
        <ele>2</ele>
        <time>2021-06-12T02:29:49Z</time>
      </trkpt>
      <trkpt lat="46.02827" lon="-1.04813">
        <ele>2</ele>
        <time>2021-06-12T02:30:02Z</time>
      </trkpt>
      <trkpt lat="46.02934" lon="-1.04821">
        <ele>3</ele>
        <time>2021-06-12T02:30:21Z</time>
      </trkpt>
      <trkpt lat="46.02992" lon="-1.04818">
        <ele>2</ele>
        <time>2021-06-12T02:30:32Z</time>
      </trkpt>
      <trkpt lat="46.0305" lon="-1.04808">
        <ele>1</ele>
        <time>2021-06-12T02:30:42Z</time>
      </trkpt>
      <trkpt lat="46.03136" lon="-1.04784">
        <ele>1</ele>
        <time>2021-06-12T02:30:58Z</time>
      </trkpt>
      <trkpt lat="46.03627" lon="-1.04582">
        <ele>2</ele>
        <time>2021-06-12T02:32:29Z</time>
      </trkpt>
      <trkpt lat="46.03656" lon="-1.04564">
        <ele>2</ele>
        <time>2021-06-12T02:32:34Z</time>
      </trkpt>
      <trkpt lat="46.03694" lon="-1.04537">
        <ele>2</ele>
        <time>2021-06-12T02:32:42Z</time>
      </trkpt>
      <trkpt lat="46.03793" lon="-1.04434">
        <ele>2</ele>
        <time>2021-06-12T02:33:04Z</time>
      </trkpt>
      <trkpt lat="46.03868" lon="-1.04345">
        <ele>2</ele>
        <time>2021-06-12T02:33:21Z</time>
      </trkpt>
      <trkpt lat="46.04038" lon="-1.04179">
        <ele>3</ele>
        <time>2021-06-12T02:33:57Z</time>
      </trkpt>
      <trkpt lat="46.0419" lon="-1.04017">
        <ele>3</ele>
        <time>2021-06-12T02:34:31Z</time>
      </trkpt>
      <trkpt lat="46.04212" lon="-1.03996">
        <ele>2</ele>
        <time>2021-06-12T02:34:36Z</time>
      </trkpt>
      <trkpt lat="46.04257" lon="-1.03961">
        <ele>3</ele>
        <time>2021-06-12T02:34:45Z</time>
      </trkpt>
      <trkpt lat="46.04266" lon="-1.03958">
        <ele>3</ele>
        <time>2021-06-12T02:34:46Z</time>
      </trkpt>
      <trkpt lat="46.04271" lon="-1.03957">
        <ele>3</ele>
        <time>2021-06-12T02:34:47Z</time>
      </trkpt>
      <trkpt lat="46.04271" lon="-1.03985">
        <ele>2</ele>
        <time>2021-06-12T02:34:51Z</time>
      </trkpt>
      <trkpt lat="46.04243" lon="-1.04291">
        <ele>2</ele>
        <time>2021-06-12T02:35:29Z</time>
      </trkpt>
      <trkpt lat="46.04244" lon="-1.04304">
        <ele>2</ele>
        <time>2021-06-12T02:35:31Z</time>
      </trkpt>
      <trkpt lat="46.04249" lon="-1.04312">
        <ele>2</ele>
        <time>2021-06-12T02:35:32Z</time>
      </trkpt>
      <trkpt lat="46.04243" lon="-1.04323">
        <ele>2</ele>
        <time>2021-06-12T02:35:34Z</time>
      </trkpt>
      <trkpt lat="46.0424" lon="-1.04337">
        <ele>2</ele>
        <time>2021-06-12T02:35:35Z</time>
      </trkpt>
      <trkpt lat="46.0422" lon="-1.04559">
        <ele>4</ele>
        <time>2021-06-12T02:36:03Z</time>
      </trkpt>
      <trkpt lat="46.04219" lon="-1.04581">
        <ele>4</ele>
        <time>2021-06-12T02:36:06Z</time>
      </trkpt>
      <trkpt lat="46.04227" lon="-1.04641">
        <ele>3</ele>
        <time>2021-06-12T02:36:13Z</time>
      </trkpt>
      <trkpt lat="46.04232" lon="-1.04659">
        <ele>3</ele>
        <time>2021-06-12T02:36:16Z</time>
      </trkpt>
      <trkpt lat="46.0424" lon="-1.04668">
        <ele>3</ele>
        <time>2021-06-12T02:36:18Z</time>
      </trkpt>
      <trkpt lat="46.04248" lon="-1.04671">
        <ele>3</ele>
        <time>2021-06-12T02:36:19Z</time>
      </trkpt>
      <trkpt lat="46.04256" lon="-1.0467">
        <ele>3</ele>
        <time>2021-06-12T02:36:20Z</time>
      </trkpt>
      <trkpt lat="46.04331" lon="-1.04626">
        <ele>3</ele>
        <time>2021-06-12T02:36:35Z</time>
      </trkpt>
      <trkpt lat="46.04347" lon="-1.04623">
        <ele>3</ele>
        <time>2021-06-12T02:36:38Z</time>
      </trkpt>
      <trkpt lat="46.04365" lon="-1.04632">
        <ele>3</ele>
        <time>2021-06-12T02:36:41Z</time>
      </trkpt>
      <trkpt lat="46.04454" lon="-1.04709">
        <ele>3</ele>
        <time>2021-06-12T02:37:00Z</time>
      </trkpt>
      <trkpt lat="46.04856" lon="-1.05034">
        <ele>4</ele>
        <time>2021-06-12T02:38:22Z</time>
      </trkpt>
      <trkpt lat="46.04878" lon="-1.05059">
        <ele>3</ele>
        <time>2021-06-12T02:38:27Z</time>
      </trkpt>
      <trkpt lat="46.04918" lon="-1.05113">
        <ele>2</ele>
        <time>2021-06-12T02:38:36Z</time>
      </trkpt>
      <trkpt lat="46.04938" lon="-1.05134">
        <ele>2</ele>
        <time>2021-06-12T02:38:41Z</time>
      </trkpt>
      <trkpt lat="46.05017" lon="-1.052">
        <ele>3</ele>
        <time>2021-06-12T02:38:57Z</time>
      </trkpt>
      <trkpt lat="46.05281" lon="-1.05416">
        <ele>2</ele>
        <time>2021-06-12T02:39:51Z</time>
      </trkpt>
      <trkpt lat="46.05545" lon="-1.05626">
        <ele>3</ele>
        <time>2021-06-12T02:40:45Z</time>
      </trkpt>
      <trkpt lat="46.05609" lon="-1.05673">
        <ele>3</ele>
        <time>2021-06-12T02:40:57Z</time>
      </trkpt>
      <trkpt lat="46.05626" lon="-1.057">
        <ele>2</ele>
        <time>2021-06-12T02:41:02Z</time>
      </trkpt>
      <trkpt lat="46.05659" lon="-1.05772">
        <ele>2</ele>
        <time>2021-06-12T02:41:13Z</time>
      </trkpt>
      <trkpt lat="46.05688" lon="-1.05819">
        <ele>2</ele>
        <time>2021-06-12T02:41:20Z</time>
      </trkpt>
      <trkpt lat="46.0569" lon="-1.05826">
        <ele>2</ele>
        <time>2021-06-12T02:41:21Z</time>
      </trkpt>
      <trkpt lat="46.05732" lon="-1.06118">
        <ele>3</ele>
        <time>2021-06-12T02:41:58Z</time>
      </trkpt>
      <trkpt lat="46.05739" lon="-1.06134">
        <ele>3</ele>
        <time>2021-06-12T02:42:00Z</time>
      </trkpt>
      <trkpt lat="46.05744" lon="-1.06137">
        <ele>3</ele>
        <time>2021-06-12T02:42:01Z</time>
      </trkpt>
      <trkpt lat="46.0574" lon="-1.06145">
        <ele>3</ele>
        <time>2021-06-12T02:42:03Z</time>
      </trkpt>
      <trkpt lat="46.05739" lon="-1.06157">
        <ele>3</ele>
        <time>2021-06-12T02:42:04Z</time>
      </trkpt>
      <trkpt lat="46.05746" lon="-1.06223">
        <ele>3</ele>
        <time>2021-06-12T02:42:12Z</time>
      </trkpt>
      <trkpt lat="46.05775" lon="-1.06421">
        <ele>3</ele>
        <time>2021-06-12T02:42:37Z</time>
      </trkpt>
      <trkpt lat="46.05785" lon="-1.06532">
        <ele>4</ele>
        <time>2021-06-12T02:42:51Z</time>
      </trkpt>
      <trkpt lat="46.05739" lon="-1.06555">
        <ele>3</ele>
        <time>2021-06-12T02:43:00Z</time>
      </trkpt>
      <trkpt lat="46.05691" lon="-1.06575">
        <ele>2</ele>
        <time>2021-06-12T02:43:09Z</time>
      </trkpt>
      <trkpt lat="46.05271" lon="-1.06764">
        <ele>3</ele>
        <time>2021-06-12T02:44:27Z</time>
      </trkpt>
      <trkpt lat="46.05079" lon="-1.06845">
        <ele>3</ele>
        <time>2021-06-12T02:45:03Z</time>
      </trkpt>
      <trkpt lat="46.05046" lon="-1.06854">
        <ele>2</ele>
        <time>2021-06-12T02:45:09Z</time>
      </trkpt>
      <trkpt lat="46.05082" lon="-1.07024">
        <ele>3</ele>
        <time>2021-06-12T02:45:31Z</time>
      </trkpt>
      <trkpt lat="46.05157" lon="-1.0721">
        <ele>2</ele>
        <time>2021-06-12T02:45:57Z</time>
      </trkpt>
      <trkpt lat="46.05309" lon="-1.07609">
        <ele>2</ele>
        <time>2021-06-12T02:46:53Z</time>
      </trkpt>
      <trkpt lat="46.05329" lon="-1.07676">
        <ele>3</ele>
        <time>2021-06-12T02:47:02Z</time>
      </trkpt>
      <trkpt lat="46.05341" lon="-1.07737">
        <ele>2</ele>
        <time>2021-06-12T02:47:10Z</time>
      </trkpt>
      <trkpt lat="46.05347" lon="-1.07797">
        <ele>3</ele>
        <time>2021-06-12T02:47:18Z</time>
      </trkpt>
      <trkpt lat="46.05351" lon="-1.07843">
        <ele>3</ele>
        <time>2021-06-12T02:47:23Z</time>
      </trkpt>
      <trkpt lat="46.05349" lon="-1.07914">
        <ele>4</ele>
        <time>2021-06-12T02:47:32Z</time>
      </trkpt>
      <trkpt lat="46.05332" lon="-1.08089">
        <ele>3</ele>
        <time>2021-06-12T02:47:54Z</time>
      </trkpt>
      <trkpt lat="46.05306" lon="-1.08267">
        <ele>3</ele>
        <time>2021-06-12T02:48:16Z</time>
      </trkpt>
      <trkpt lat="46.05304" lon="-1.08294">
        <ele>3</ele>
        <time>2021-06-12T02:48:20Z</time>
      </trkpt>
      <trkpt lat="46.05306" lon="-1.08317">
        <ele>3</ele>
        <time>2021-06-12T02:48:23Z</time>
      </trkpt>
      <trkpt lat="46.05306" lon="-1.08319">
        <ele>3</ele>
        <time>2021-06-12T02:48:23Z</time>
      </trkpt>
      <trkpt lat="46.05331" lon="-1.08666">
        <ele>3</ele>
        <time>2021-06-12T02:49:06Z</time>
      </trkpt>
      <trkpt lat="46.05336" lon="-1.08675">
        <ele>3</ele>
        <time>2021-06-12T02:49:07Z</time>
      </trkpt>
      <trkpt lat="46.05341" lon="-1.08756">
        <ele>2</ele>
        <time>2021-06-12T02:49:17Z</time>
      </trkpt>
      <trkpt lat="46.05344" lon="-1.08767">
        <ele>3</ele>
        <time>2021-06-12T02:49:19Z</time>
      </trkpt>
      <trkpt lat="46.05355" lon="-1.08765">
        <ele>3</ele>
        <time>2021-06-12T02:49:21Z</time>
      </trkpt>
      <trkpt lat="46.05722" lon="-1.08703">
        <ele>15</ele>
        <time>2021-06-12T02:50:27Z</time>
      </trkpt>
      <trkpt lat="46.05768" lon="-1.08694">
        <ele>16</ele>
        <time>2021-06-12T02:50:35Z</time>
      </trkpt>
      <trkpt lat="46.05836" lon="-1.08675">
        <ele>18</ele>
        <time>2021-06-12T02:50:47Z</time>
      </trkpt>
      <trkpt lat="46.05837" lon="-1.08668">
        <ele>18</ele>
        <time>2021-06-12T02:50:48Z</time>
      </trkpt>
      <trkpt lat="46.05841" lon="-1.08664">
        <ele>18</ele>
        <time>2021-06-12T02:50:49Z</time>
      </trkpt>
      <trkpt lat="46.05845" lon="-1.08666">
        <ele>18</ele>
        <time>2021-06-12T02:50:50Z</time>
      </trkpt>
      <trkpt lat="46.05846" lon="-1.0867">
        <ele>18</ele>
        <time>2021-06-12T02:50:50Z</time>
      </trkpt>
      <trkpt lat="46.05845" lon="-1.08678">
        <ele>18</ele>
        <time>2021-06-12T02:50:51Z</time>
      </trkpt>
      <trkpt lat="46.05847" lon="-1.08684">
        <ele>18</ele>
        <time>2021-06-12T02:50:52Z</time>
      </trkpt>
      <trkpt lat="46.05858" lon="-1.08738">
        <ele>19</ele>
        <time>2021-06-12T02:50:59Z</time>
      </trkpt>
      <trkpt lat="46.05926" lon="-1.08935">
        <ele>11</ele>
        <time>2021-06-12T02:51:26Z</time>
      </trkpt>
      <trkpt lat="46.05932" lon="-1.08947">
        <ele>11</ele>
        <time>2021-06-12T02:51:28Z</time>
      </trkpt>
      <trkpt lat="46.05942" lon="-1.08958">
        <ele>10</ele>
        <time>2021-06-12T02:51:30Z</time>
      </trkpt>
      <trkpt lat="46.05966" lon="-1.0897">
        <ele>9</ele>
        <time>2021-06-12T02:51:35Z</time>
      </trkpt>
      <trkpt lat="46.05989" lon="-1.08977">
        <ele>10</ele>
        <time>2021-06-12T02:51:39Z</time>
      </trkpt>
      <trkpt lat="46.06012" lon="-1.08989">
        <ele>9</ele>
        <time>2021-06-12T02:51:43Z</time>
      </trkpt>
      <trkpt lat="46.06041" lon="-1.09007">
        <ele>8</ele>
        <time>2021-06-12T02:51:49Z</time>
      </trkpt>
      <trkpt lat="46.06069" lon="-1.09031">
        <ele>6</ele>
        <time>2021-06-12T02:51:55Z</time>
      </trkpt>
      <trkpt lat="46.06091" lon="-1.09058">
        <ele>5</ele>
        <time>2021-06-12T02:52:00Z</time>
      </trkpt>
      <trkpt lat="46.06137" lon="-1.09122">
        <ele>4</ele>
        <time>2021-06-12T02:52:11Z</time>
      </trkpt>
      <trkpt lat="46.06151" lon="-1.09134">
        <ele>4</ele>
        <time>2021-06-12T02:52:14Z</time>
      </trkpt>
      <trkpt lat="46.06268" lon="-1.09155">
        <ele>4</ele>
        <time>2021-06-12T02:52:35Z</time>
      </trkpt>
      <trkpt lat="46.06273" lon="-1.09162">
        <ele>4</ele>
        <time>2021-06-12T02:52:36Z</time>
      </trkpt>
      <trkpt lat="46.06224" lon="-1.09237">
        <ele>3</ele>
        <time>2021-06-12T02:52:49Z</time>
      </trkpt>
      <trkpt lat="46.06227" lon="-1.09234">
        <ele>4</ele>
        <time>2021-06-12T02:52:50Z</time>
      </trkpt>
      <trkpt lat="46.06235" lon="-1.09235">
        <ele>4</ele>
        <time>2021-06-12T02:52:51Z</time>
      </trkpt>
      <trkpt lat="46.06239" lon="-1.09244">
        <ele>4</ele>
        <time>2021-06-12T02:52:52Z</time>
      </trkpt>
      <trkpt lat="46.06238" lon="-1.09252">
        <ele>4</ele>
        <time>2021-06-12T02:52:53Z</time>
      </trkpt>
      <trkpt lat="46.06233" lon="-1.09257">
        <ele>4</ele>
        <time>2021-06-12T02:52:55Z</time>
      </trkpt>
      <trkpt lat="46.06228" lon="-1.09257">
        <ele>3</ele>
        <time>2021-06-12T02:52:55Z</time>
      </trkpt>
      <trkpt lat="46.06215" lon="-1.09289">
        <ele>3</ele>
        <time>2021-06-12T02:53:00Z</time>
      </trkpt>
      <trkpt lat="46.06226" lon="-1.0929">
        <ele>3</ele>
        <time>2021-06-12T02:53:02Z</time>
      </trkpt>
      <trkpt lat="46.06227" lon="-1.09301">
        <ele>3</ele>
        <time>2021-06-12T02:53:03Z</time>
      </trkpt>
      <trkpt lat="46.06362" lon="-1.093">
        <ele>5</ele>
        <time>2021-06-12T02:53:27Z</time>
      </trkpt>
      <trkpt lat="46.06548" lon="-1.0929">
        <ele>5</ele>
        <time>2021-06-12T02:54:00Z</time>
      </trkpt>
      <trkpt lat="46.06579" lon="-1.09291">
        <ele>5</ele>
        <time>2021-06-12T02:54:06Z</time>
      </trkpt>
      <trkpt lat="46.06596" lon="-1.09289">
        <ele>4</ele>
        <time>2021-06-12T02:54:09Z</time>
      </trkpt>
      <trkpt lat="46.06773" lon="-1.09287">
        <ele>5</ele>
        <time>2021-06-12T02:54:40Z</time>
      </trkpt>
      <trkpt lat="46.06776" lon="-1.09288">
        <ele>5</ele>
        <time>2021-06-12T02:54:41Z</time>
      </trkpt>
      <trkpt lat="46.06879" lon="-1.09285">
        <ele>4</ele>
        <time>2021-06-12T02:54:59Z</time>
      </trkpt>
      <trkpt lat="46.06943" lon="-1.09286">
        <ele>3</ele>
        <time>2021-06-12T02:55:11Z</time>
      </trkpt>
      <trkpt lat="46.06976" lon="-1.09291">
        <ele>3</ele>
        <time>2021-06-12T02:55:17Z</time>
      </trkpt>
      <trkpt lat="46.06981" lon="-1.09287">
        <ele>4</ele>
        <time>2021-06-12T02:55:18Z</time>
      </trkpt>
      <trkpt lat="46.06984" lon="-1.09289">
        <ele>4</ele>
        <time>2021-06-12T02:55:18Z</time>
      </trkpt>
      <trkpt lat="46.07273" lon="-1.09316">
        <ele>4</ele>
        <time>2021-06-12T02:56:10Z</time>
      </trkpt>
      <trkpt lat="46.07333" lon="-1.09324">
        <ele>3</ele>
        <time>2021-06-12T02:56:21Z</time>
      </trkpt>
      <trkpt lat="46.07512" lon="-1.09357">
        <ele>5</ele>
        <time>2021-06-12T02:56:53Z</time>
      </trkpt>
      <trkpt lat="46.07744" lon="-1.09404">
        <ele>3</ele>
        <time>2021-06-12T02:57:34Z</time>
      </trkpt>
      <trkpt lat="46.07806" lon="-1.0942">
        <ele>5</ele>
        <time>2021-06-12T02:57:46Z</time>
      </trkpt>
      <trkpt lat="46.08037" lon="-1.09527">
        <ele>4</ele>
        <time>2021-06-12T02:58:29Z</time>
      </trkpt>
      <trkpt lat="46.08279" lon="-1.09654">
        <ele>3</ele>
        <time>2021-06-12T02:59:15Z</time>
      </trkpt>
      <trkpt lat="46.08287" lon="-1.09631">
        <ele>4</ele>
        <time>2021-06-12T02:59:18Z</time>
      </trkpt>
      <trkpt lat="46.08298" lon="-1.09561">
        <ele>6</ele>
        <time>2021-06-12T02:59:27Z</time>
      </trkpt>
      <trkpt lat="46.08301" lon="-1.09545">
        <ele>6</ele>
        <time>2021-06-12T02:59:29Z</time>
      </trkpt>
      <trkpt lat="46.08319" lon="-1.09489">
        <ele>6</ele>
        <time>2021-06-12T02:59:36Z</time>
      </trkpt>
      <trkpt lat="46.08324" lon="-1.09463">
        <ele>6</ele>
        <time>2021-06-12T02:59:40Z</time>
      </trkpt>
      <trkpt lat="46.08364" lon="-1.09337">
        <ele>5</ele>
        <time>2021-06-12T02:59:57Z</time>
      </trkpt>
      <trkpt lat="46.0837" lon="-1.09327">
        <ele>4</ele>
        <time>2021-06-12T02:59:58Z</time>
      </trkpt>
      <trkpt lat="46.08376" lon="-1.09319">
        <ele>4</ele>
        <time>2021-06-12T03:00:00Z</time>
      </trkpt>
      <trkpt lat="46.08374" lon="-1.0931">
        <ele>4</ele>
        <time>2021-06-12T03:00:01Z</time>
      </trkpt>
      <trkpt lat="46.08376" lon="-1.09301">
        <ele>4</ele>
        <time>2021-06-12T03:00:02Z</time>
      </trkpt>
      <trkpt lat="46.08382" lon="-1.09296">
        <ele>4</ele>
        <time>2021-06-12T03:00:03Z</time>
      </trkpt>
      <trkpt lat="46.08386" lon="-1.09295">
        <ele>4</ele>
        <time>2021-06-12T03:00:04Z</time>
      </trkpt>
      <trkpt lat="46.08391" lon="-1.09299">
        <ele>4</ele>
        <time>2021-06-12T03:00:05Z</time>
      </trkpt>
      <trkpt lat="46.08395" lon="-1.09309">
        <ele>4</ele>
        <time>2021-06-12T03:00:06Z</time>
      </trkpt>
      <trkpt lat="46.08402" lon="-1.09309">
        <ele>4</ele>
        <time>2021-06-12T03:00:08Z</time>
      </trkpt>
      <trkpt lat="46.08403" lon="-1.09322">
        <ele>4</ele>
        <time>2021-06-12T03:00:09Z</time>
      </trkpt>
      <trkpt lat="46.08424" lon="-1.09321">
        <ele>4</ele>
        <time>2021-06-12T03:00:13Z</time>
      </trkpt>
      <trkpt lat="46.08441" lon="-1.09328">
        <ele>4</ele>
        <time>2021-06-12T03:00:16Z</time>
      </trkpt>
      <trkpt lat="46.08463" lon="-1.09344">
        <ele>4</ele>
        <time>2021-06-12T03:00:21Z</time>
      </trkpt>
      <trkpt lat="46.08764" lon="-1.09618">
        <ele>3</ele>
        <time>2021-06-12T03:01:24Z</time>
      </trkpt>
      <trkpt lat="46.08788" lon="-1.09643">
        <ele>3</ele>
        <time>2021-06-12T03:01:29Z</time>
      </trkpt>
      <trkpt lat="46.0879" lon="-1.09653">
        <ele>3</ele>
        <time>2021-06-12T03:01:30Z</time>
      </trkpt>
      <trkpt lat="46.08793" lon="-1.09656">
        <ele>4</ele>
        <time>2021-06-12T03:01:31Z</time>
      </trkpt>
      <trkpt lat="46.08794" lon="-1.09658">
        <ele>4</ele>
        <time>2021-06-12T03:01:31Z</time>
      </trkpt>
      <trkpt lat="46.08802" lon="-1.09658">
        <ele>4</ele>
        <time>2021-06-12T03:01:33Z</time>
      </trkpt>
      <trkpt lat="46.08913" lon="-1.098">
        <ele>4</ele>
        <time>2021-06-12T03:01:59Z</time>
      </trkpt>
      <trkpt lat="46.08935" lon="-1.09825">
        <ele>5</ele>
        <time>2021-06-12T03:02:04Z</time>
      </trkpt>
      <trkpt lat="46.08954" lon="-1.09842">
        <ele>5</ele>
        <time>2021-06-12T03:02:08Z</time>
      </trkpt>
      <trkpt lat="46.08973" lon="-1.09855">
        <ele>5</ele>
        <time>2021-06-12T03:02:12Z</time>
      </trkpt>
      <trkpt lat="46.08999" lon="-1.0987">
        <ele>5</ele>
        <time>2021-06-12T03:02:17Z</time>
      </trkpt>
      <trkpt lat="46.09209" lon="-1.09938">
        <ele>3</ele>
        <time>2021-06-12T03:02:55Z</time>
      </trkpt>
      <trkpt lat="46.09337" lon="-1.09964">
        <ele>3</ele>
        <time>2021-06-12T03:03:18Z</time>
      </trkpt>
      <trkpt lat="46.09369" lon="-1.0998">
        <ele>3</ele>
        <time>2021-06-12T03:03:24Z</time>
      </trkpt>
      <trkpt lat="46.09432" lon="-1.10007">
        <ele>3</ele>
        <time>2021-06-12T03:03:36Z</time>
      </trkpt>
      <trkpt lat="46.0946" lon="-1.10015">
        <ele>4</ele>
        <time>2021-06-12T03:03:41Z</time>
      </trkpt>
      <trkpt lat="46.09465" lon="-1.1001">
        <ele>4</ele>
        <time>2021-06-12T03:03:42Z</time>
      </trkpt>
      <trkpt lat="46.09474" lon="-1.10014">
        <ele>4</ele>
        <time>2021-06-12T03:03:44Z</time>
      </trkpt>
      <trkpt lat="46.09479" lon="-1.10018">
        <ele>4</ele>
        <time>2021-06-12T03:03:45Z</time>
      </trkpt>
      <trkpt lat="46.0948" lon="-1.1003">
        <ele>4</ele>
        <time>2021-06-12T03:03:46Z</time>
      </trkpt>
      <trkpt lat="46.0948" lon="-1.10051">
        <ele>4</ele>
        <time>2021-06-12T03:03:49Z</time>
      </trkpt>
      <trkpt lat="46.09478" lon="-1.10059">
        <ele>4</ele>
        <time>2021-06-12T03:03:50Z</time>
      </trkpt>
      <trkpt lat="46.09472" lon="-1.10076">
        <ele>4</ele>
        <time>2021-06-12T03:03:52Z</time>
      </trkpt>
      <trkpt lat="46.09472" lon="-1.10094">
        <ele>4</ele>
        <time>2021-06-12T03:03:55Z</time>
      </trkpt>
      <trkpt lat="46.0948" lon="-1.10118">
        <ele>4</ele>
        <time>2021-06-12T03:03:58Z</time>
      </trkpt>
      <trkpt lat="46.09486" lon="-1.10128">
        <ele>4</ele>
        <time>2021-06-12T03:03:59Z</time>
      </trkpt>
      <trkpt lat="46.09492" lon="-1.10134">
        <ele>5</ele>
        <time>2021-06-12T03:04:01Z</time>
      </trkpt>
      <trkpt lat="46.09498" lon="-1.10136">
        <ele>5</ele>
        <time>2021-06-12T03:04:02Z</time>
      </trkpt>
      <trkpt lat="46.0951" lon="-1.1014">
        <ele>5</ele>
        <time>2021-06-12T03:04:04Z</time>
      </trkpt>
      <trkpt lat="46.09525" lon="-1.10162">
        <ele>6</ele>
        <time>2021-06-12T03:04:08Z</time>
      </trkpt>
      <trkpt lat="46.09562" lon="-1.10224">
        <ele>7</ele>
        <time>2021-06-12T03:04:18Z</time>
      </trkpt>
      <trkpt lat="46.09587" lon="-1.10269">
        <ele>9</ele>
        <time>2021-06-12T03:04:25Z</time>
      </trkpt>
      <trkpt lat="46.09607" lon="-1.10288">
        <ele>10</ele>
        <time>2021-06-12T03:04:29Z</time>
      </trkpt>
      <trkpt lat="46.09647" lon="-1.10315">
        <ele>12</ele>
        <time>2021-06-12T03:04:37Z</time>
      </trkpt>
      <trkpt lat="46.09688" lon="-1.10388">
        <ele>11</ele>
        <time>2021-06-12T03:04:49Z</time>
      </trkpt>
      <trkpt lat="46.09783" lon="-1.10569">
        <ele>10</ele>
        <time>2021-06-12T03:05:17Z</time>
      </trkpt>
      <trkpt lat="46.09892" lon="-1.1077">
        <ele>11</ele>
        <time>2021-06-12T03:05:48Z</time>
      </trkpt>
      <trkpt lat="46.099" lon="-1.10791">
        <ele>12</ele>
        <time>2021-06-12T03:05:51Z</time>
      </trkpt>
      <trkpt lat="46.09908" lon="-1.10825">
        <ele>12</ele>
        <time>2021-06-12T03:05:56Z</time>
      </trkpt>
      <trkpt lat="46.09915" lon="-1.10838">
        <ele>12</ele>
        <time>2021-06-12T03:05:58Z</time>
      </trkpt>
      <trkpt lat="46.0992" lon="-1.10849">
        <ele>11</ele>
        <time>2021-06-12T03:05:59Z</time>
      </trkpt>
      <trkpt lat="46.09924" lon="-1.10854">
        <ele>11</ele>
        <time>2021-06-12T03:06:00Z</time>
      </trkpt>
      <trkpt lat="46.09951" lon="-1.10876">
        <ele>10</ele>
        <time>2021-06-12T03:06:06Z</time>
      </trkpt>
      <trkpt lat="46.10058" lon="-1.11075">
        <ele>7</ele>
        <time>2021-06-12T03:06:37Z</time>
      </trkpt>
      <trkpt lat="46.10084" lon="-1.11116">
        <ele>8</ele>
        <time>2021-06-12T03:06:44Z</time>
      </trkpt>
      <trkpt lat="46.10118" lon="-1.11165">
        <ele>7</ele>
        <time>2021-06-12T03:06:52Z</time>
      </trkpt>
      <trkpt lat="46.10181" lon="-1.11237">
        <ele>6</ele>
        <time>2021-06-12T03:07:07Z</time>
      </trkpt>
      <trkpt lat="46.10201" lon="-1.11253">
        <ele>6</ele>
        <time>2021-06-12T03:07:11Z</time>
      </trkpt>
      <trkpt lat="46.10221" lon="-1.11273">
        <ele>6</ele>
        <time>2021-06-12T03:07:15Z</time>
      </trkpt>
      <trkpt lat="46.10279" lon="-1.11321">
        <ele>6</ele>
        <time>2021-06-12T03:07:27Z</time>
      </trkpt>
      <trkpt lat="46.10307" lon="-1.1134">
        <ele>6</ele>
        <time>2021-06-12T03:07:32Z</time>
      </trkpt>
      <trkpt lat="46.10384" lon="-1.11385">
        <ele>6</ele>
        <time>2021-06-12T03:07:47Z</time>
      </trkpt>
      <trkpt lat="46.10386" lon="-1.11393">
        <ele>6</ele>
        <time>2021-06-12T03:07:48Z</time>
      </trkpt>
      <trkpt lat="46.10386" lon="-1.11402">
        <ele>6</ele>
        <time>2021-06-12T03:07:49Z</time>
      </trkpt>
      <trkpt lat="46.10384" lon="-1.11411">
        <ele>6</ele>
        <time>2021-06-12T03:07:50Z</time>
      </trkpt>
      <trkpt lat="46.10357" lon="-1.11599">
        <ele>6</ele>
        <time>2021-06-12T03:08:14Z</time>
      </trkpt>
      <trkpt lat="46.10349" lon="-1.11642">
        <ele>6</ele>
        <time>2021-06-12T03:08:20Z</time>
      </trkpt>
      <trkpt lat="46.10319" lon="-1.11739">
        <ele>5</ele>
        <time>2021-06-12T03:08:33Z</time>
      </trkpt>
      <trkpt lat="46.10313" lon="-1.11768">
        <ele>4</ele>
        <time>2021-06-12T03:08:36Z</time>
      </trkpt>
      <trkpt lat="46.10308" lon="-1.11801">
        <ele>4</ele>
        <time>2021-06-12T03:08:41Z</time>
      </trkpt>
      <trkpt lat="46.10312" lon="-1.1183">
        <ele>3</ele>
        <time>2021-06-12T03:08:44Z</time>
      </trkpt>
      <trkpt lat="46.10478" lon="-1.11838">
        <ele>4</ele>
        <time>2021-06-12T03:09:14Z</time>
      </trkpt>
      <trkpt lat="46.1048" lon="-1.11863">
        <ele>4</ele>
        <time>2021-06-12T03:09:17Z</time>
      </trkpt>
      <trkpt lat="46.10486" lon="-1.11866">
        <ele>4</ele>
        <time>2021-06-12T03:09:18Z</time>
      </trkpt>
      <trkpt lat="46.10489" lon="-1.11873">
        <ele>4</ele>
        <time>2021-06-12T03:09:19Z</time>
      </trkpt>
      <trkpt lat="46.10489" lon="-1.11878">
        <ele>4</ele>
        <time>2021-06-12T03:09:20Z</time>
      </trkpt>
      <trkpt lat="46.10497" lon="-1.11879">
        <ele>4</ele>
        <time>2021-06-12T03:09:21Z</time>
      </trkpt>
      <trkpt lat="46.10497" lon="-1.11891">
        <ele>4</ele>
        <time>2021-06-12T03:09:23Z</time>
      </trkpt>
      <trkpt lat="46.10504" lon="-1.11891">
        <ele>4</ele>
        <time>2021-06-12T03:09:24Z</time>
      </trkpt>
      <trkpt lat="46.10528" lon="-1.11887">
        <ele>3</ele>
        <time>2021-06-12T03:09:28Z</time>
      </trkpt>
      <trkpt lat="46.10534" lon="-1.11883">
        <ele>3</ele>
        <time>2021-06-12T03:09:29Z</time>
      </trkpt>
      <trkpt lat="46.1054" lon="-1.11875">
        <ele>3</ele>
        <time>2021-06-12T03:09:31Z</time>
      </trkpt>
      <trkpt lat="46.10551" lon="-1.11843">
        <ele>2</ele>
        <time>2021-06-12T03:09:35Z</time>
      </trkpt>
      <trkpt lat="46.10576" lon="-1.11743">
        <ele>2</ele>
        <time>2021-06-12T03:09:48Z</time>
      </trkpt>
      <trkpt lat="46.10592" lon="-1.11692">
        <ele>2</ele>
        <time>2021-06-12T03:09:55Z</time>
      </trkpt>
      <trkpt lat="46.10607" lon="-1.11661">
        <ele>3</ele>
        <time>2021-06-12T03:10:00Z</time>
      </trkpt>
      <trkpt lat="46.10631" lon="-1.11624">
        <ele>3</ele>
        <time>2021-06-12T03:10:06Z</time>
      </trkpt>
      <trkpt lat="46.10652" lon="-1.11583">
        <ele>4</ele>
        <time>2021-06-12T03:10:12Z</time>
      </trkpt>
      <trkpt lat="46.10657" lon="-1.11577">
        <ele>4</ele>
        <time>2021-06-12T03:10:14Z</time>
      </trkpt>
      <trkpt lat="46.10665" lon="-1.11572">
        <ele>4</ele>
        <time>2021-06-12T03:10:15Z</time>
      </trkpt>
      <trkpt lat="46.10675" lon="-1.11571">
        <ele>4</ele>
        <time>2021-06-12T03:10:17Z</time>
      </trkpt>
      <trkpt lat="46.10691" lon="-1.11573">
        <ele>4</ele>
        <time>2021-06-12T03:10:20Z</time>
      </trkpt>
      <trkpt lat="46.10707" lon="-1.11585">
        <ele>4</ele>
        <time>2021-06-12T03:10:23Z</time>
      </trkpt>
      <trkpt lat="46.10724" lon="-1.11602">
        <ele>4</ele>
        <time>2021-06-12T03:10:27Z</time>
      </trkpt>
      <trkpt lat="46.10735" lon="-1.11609">
        <ele>3</ele>
        <time>2021-06-12T03:10:29Z</time>
      </trkpt>
      <trkpt lat="46.10751" lon="-1.11611">
        <ele>3</ele>
        <time>2021-06-12T03:10:32Z</time>
      </trkpt>
      <trkpt lat="46.10764" lon="-1.11606">
        <ele>3</ele>
        <time>2021-06-12T03:10:34Z</time>
      </trkpt>
      <trkpt lat="46.10774" lon="-1.11611">
        <ele>3</ele>
        <time>2021-06-12T03:10:36Z</time>
      </trkpt>
      <trkpt lat="46.10786" lon="-1.11628">
        <ele>2</ele>
        <time>2021-06-12T03:10:39Z</time>
      </trkpt>
      <trkpt lat="46.10803" lon="-1.11647">
        <ele>2</ele>
        <time>2021-06-12T03:10:43Z</time>
      </trkpt>
      <trkpt lat="46.10807" lon="-1.11656">
        <ele>1</ele>
        <time>2021-06-12T03:10:44Z</time>
      </trkpt>
      <trkpt lat="46.10813" lon="-1.11681">
        <ele>1</ele>
        <time>2021-06-12T03:10:47Z</time>
      </trkpt>
      <trkpt lat="46.10821" lon="-1.11707">
        <ele>2</ele>
        <time>2021-06-12T03:10:51Z</time>
      </trkpt>
      <trkpt lat="46.10839" lon="-1.1174">
        <ele>2</ele>
        <time>2021-06-12T03:10:56Z</time>
      </trkpt>
      <trkpt lat="46.10843" lon="-1.11745">
        <ele>2</ele>
        <time>2021-06-12T03:10:57Z</time>
      </trkpt>
      <trkpt lat="46.1085" lon="-1.11749">
        <ele>2</ele>
        <time>2021-06-12T03:10:58Z</time>
      </trkpt>
      <trkpt lat="46.1086" lon="-1.1175">
        <ele>2</ele>
        <time>2021-06-12T03:11:00Z</time>
      </trkpt>
      <trkpt lat="46.10909" lon="-1.1174">
        <ele>2</ele>
        <time>2021-06-12T03:11:09Z</time>
      </trkpt>
      <trkpt lat="46.10922" lon="-1.11739">
        <ele>2</ele>
        <time>2021-06-12T03:11:11Z</time>
      </trkpt>
      <trkpt lat="46.1093" lon="-1.11741">
        <ele>3</ele>
        <time>2021-06-12T03:11:13Z</time>
      </trkpt>
      <trkpt lat="46.10942" lon="-1.11754">
        <ele>3</ele>
        <time>2021-06-12T03:11:15Z</time>
      </trkpt>
      <trkpt lat="46.10956" lon="-1.11799">
        <ele>3</ele>
        <time>2021-06-12T03:11:21Z</time>
      </trkpt>
      <trkpt lat="46.10996" lon="-1.11857">
        <ele>4</ele>
        <time>2021-06-12T03:11:31Z</time>
      </trkpt>
      <trkpt lat="46.11004" lon="-1.11872">
        <ele>4</ele>
        <time>2021-06-12T03:11:34Z</time>
      </trkpt>
      <trkpt lat="46.11017" lon="-1.11906">
        <ele>3</ele>
        <time>2021-06-12T03:11:39Z</time>
      </trkpt>
      <trkpt lat="46.11023" lon="-1.11931">
        <ele>3</ele>
        <time>2021-06-12T03:11:42Z</time>
      </trkpt>
      <trkpt lat="46.11028" lon="-1.11995">
        <ele>4</ele>
        <time>2021-06-12T03:11:50Z</time>
      </trkpt>
      <trkpt lat="46.11032" lon="-1.12013">
        <ele>4</ele>
        <time>2021-06-12T03:11:52Z</time>
      </trkpt>
      <trkpt lat="46.11038" lon="-1.12033">
        <ele>3</ele>
        <time>2021-06-12T03:11:55Z</time>
      </trkpt>
      <trkpt lat="46.11058" lon="-1.12066">
        <ele>2</ele>
        <time>2021-06-12T03:12:00Z</time>
      </trkpt>
      <trkpt lat="46.11088" lon="-1.12095">
        <ele>1</ele>
        <time>2021-06-12T03:12:07Z</time>
      </trkpt>
      <trkpt lat="46.11103" lon="-1.12104">
        <ele>1</ele>
        <time>2021-06-12T03:12:10Z</time>
      </trkpt>
      <trkpt lat="46.11114" lon="-1.12106">
        <ele>2</ele>
        <time>2021-06-12T03:12:12Z</time>
      </trkpt>
      <trkpt lat="46.11137" lon="-1.12103">
        <ele>2</ele>
        <time>2021-06-12T03:12:16Z</time>
      </trkpt>
      <trkpt lat="46.11154" lon="-1.12104">
        <ele>2</ele>
        <time>2021-06-12T03:12:19Z</time>
      </trkpt>
      <trkpt lat="46.11168" lon="-1.12108">
        <ele>2</ele>
        <time>2021-06-12T03:12:21Z</time>
      </trkpt>
      <trkpt lat="46.1118" lon="-1.12116">
        <ele>2</ele>
        <time>2021-06-12T03:12:24Z</time>
      </trkpt>
      <trkpt lat="46.11193" lon="-1.12133">
        <ele>2</ele>
        <time>2021-06-12T03:12:27Z</time>
      </trkpt>
      <trkpt lat="46.11251" lon="-1.12221">
        <ele>1</ele>
        <time>2021-06-12T03:12:42Z</time>
      </trkpt>
      <trkpt lat="46.11264" lon="-1.12246">
        <ele>1</ele>
        <time>2021-06-12T03:12:46Z</time>
      </trkpt>
      <trkpt lat="46.11266" lon="-1.12254">
        <ele>1</ele>
        <time>2021-06-12T03:12:47Z</time>
      </trkpt>
      <trkpt lat="46.11266" lon="-1.1226">
        <ele>1</ele>
        <time>2021-06-12T03:12:47Z</time>
      </trkpt>
      <trkpt lat="46.1126" lon="-1.12268">
        <ele>2</ele>
        <time>2021-06-12T03:12:49Z</time>
      </trkpt>
      <trkpt lat="46.11262" lon="-1.1227">
        <ele>2</ele>
        <time>2021-06-12T03:12:49Z</time>
      </trkpt>
      <trkpt lat="46.11268" lon="-1.12279">
        <ele>2</ele>
        <time>2021-06-12T03:12:51Z</time>
      </trkpt>
      <trkpt lat="46.11274" lon="-1.12282">
        <ele>2</ele>
        <time>2021-06-12T03:12:52Z</time>
      </trkpt>
      <trkpt lat="46.11284" lon="-1.1229">
        <ele>2</ele>
        <time>2021-06-12T03:12:54Z</time>
      </trkpt>
      <trkpt lat="46.11285" lon="-1.12292">
        <ele>2</ele>
        <time>2021-06-12T03:12:54Z</time>
      </trkpt>
      <trkpt lat="46.1131" lon="-1.12336">
        <ele>2</ele>
        <time>2021-06-12T03:13:01Z</time>
      </trkpt>
      <trkpt lat="46.11315" lon="-1.12344">
        <ele>2</ele>
        <time>2021-06-12T03:13:03Z</time>
      </trkpt>
      <trkpt lat="46.11318" lon="-1.12343">
        <ele>2</ele>
        <time>2021-06-12T03:13:03Z</time>
      </trkpt>
      <trkpt lat="46.11323" lon="-1.12343">
        <ele>2</ele>
        <time>2021-06-12T03:13:04Z</time>
      </trkpt>
      <trkpt lat="46.11357" lon="-1.12338">
        <ele>2</ele>
        <time>2021-06-12T03:13:10Z</time>
      </trkpt>
      <trkpt lat="46.11363" lon="-1.12384">
        <ele>1</ele>
        <time>2021-06-12T03:13:16Z</time>
      </trkpt>
      <trkpt lat="46.11412" lon="-1.12367">
        <ele>2</ele>
        <time>2021-06-12T03:13:25Z</time>
      </trkpt>
      <trkpt lat="46.11476" lon="-1.1235">
        <ele>2</ele>
        <time>2021-06-12T03:13:36Z</time>
      </trkpt>
      <trkpt lat="46.11497" lon="-1.12341">
        <ele>2</ele>
        <time>2021-06-12T03:13:40Z</time>
      </trkpt>
      <trkpt lat="46.11511" lon="-1.12349">
        <ele>2</ele>
        <time>2021-06-12T03:13:43Z</time>
      </trkpt>
      <trkpt lat="46.11555" lon="-1.12341">
        <ele>2</ele>
        <time>2021-06-12T03:13:51Z</time>
      </trkpt>
      <trkpt lat="46.11606" lon="-1.12344">
        <ele>2</ele>
        <time>2021-06-12T03:14:00Z</time>
      </trkpt>
      <trkpt lat="46.11621" lon="-1.12324">
        <ele>2</ele>
        <time>2021-06-12T03:14:04Z</time>
      </trkpt>
      <trkpt lat="46.11598" lon="-1.12312">
        <ele>2</ele>
        <time>2021-06-12T03:14:08Z</time>
      </trkpt>
      <trkpt lat="46.11596" lon="-1.12308">
        <ele>2</ele>
        <time>2021-06-12T03:14:09Z</time>
      </trkpt>
      <trkpt lat="46.11599" lon="-1.12218">
        <ele>1</ele>
        <time>2021-06-12T03:14:20Z</time>
      </trkpt>
      <trkpt lat="46.11597" lon="-1.12211">
        <ele>1</ele>
        <time>2021-06-12T03:14:21Z</time>
      </trkpt>
      <trkpt lat="46.1158" lon="-1.12203">
        <ele>1</ele>
        <time>2021-06-12T03:14:24Z</time>
      </trkpt>
      <trkpt lat="46.11569" lon="-1.12194">
        <ele>1</ele>
        <time>2021-06-12T03:14:26Z</time>
      </trkpt>
      <trkpt lat="46.11558" lon="-1.12179">
        <ele>1</ele>
        <time>2021-06-12T03:14:29Z</time>
      </trkpt>
      <trkpt lat="46.11553" lon="-1.12165">
        <ele>1</ele>
        <time>2021-06-12T03:14:31Z</time>
      </trkpt>
      <trkpt lat="46.11551" lon="-1.1215">
        <ele>1</ele>
        <time>2021-06-12T03:14:33Z</time>
      </trkpt>
      <trkpt lat="46.1155" lon="-1.12133">
        <ele>1</ele>
        <time>2021-06-12T03:14:35Z</time>
      </trkpt>
      <trkpt lat="46.11553" lon="-1.12113">
        <ele>2</ele>
        <time>2021-06-12T03:14:37Z</time>
      </trkpt>
      <trkpt lat="46.1157" lon="-1.12038">
        <ele>2</ele>
        <time>2021-06-12T03:14:47Z</time>
      </trkpt>
      <trkpt lat="46.11575" lon="-1.12005">
        <ele>3</ele>
        <time>2021-06-12T03:14:51Z</time>
      </trkpt>
      <trkpt lat="46.1157" lon="-1.12">
        <ele>3</ele>
        <time>2021-06-12T03:14:52Z</time>
      </trkpt>
      <trkpt lat="46.11579" lon="-1.11977">
        <ele>2</ele>
        <time>2021-06-12T03:14:55Z</time>
      </trkpt>
      <trkpt lat="46.11596" lon="-1.11962">
        <ele>2</ele>
        <time>2021-06-12T03:14:59Z</time>
      </trkpt>
      <trkpt lat="46.11692" lon="-1.11918">
        <ele>3</ele>
        <time>2021-06-12T03:15:17Z</time>
      </trkpt>
      <trkpt lat="46.11708" lon="-1.11921">
        <ele>3</ele>
        <time>2021-06-12T03:15:20Z</time>
      </trkpt>
      <trkpt lat="46.11801" lon="-1.11921">
        <ele>3</ele>
        <time>2021-06-12T03:15:36Z</time>
      </trkpt>
      <trkpt lat="46.11828" lon="-1.11925">
        <ele>3</ele>
        <time>2021-06-12T03:15:41Z</time>
      </trkpt>
      <trkpt lat="46.11853" lon="-1.11936">
        <ele>2</ele>
        <time>2021-06-12T03:15:46Z</time>
      </trkpt>
      <trkpt lat="46.11893" lon="-1.1196">
        <ele>1</ele>
        <time>2021-06-12T03:15:53Z</time>
      </trkpt>
      <trkpt lat="46.12031" lon="-1.12076">
        <ele>2</ele>
        <time>2021-06-12T03:16:22Z</time>
      </trkpt>
      <trkpt lat="46.12172" lon="-1.12218">
        <ele>1</ele>
        <time>2021-06-12T03:16:52Z</time>
      </trkpt>
      <trkpt lat="46.12201" lon="-1.1224">
        <ele>1</ele>
        <time>2021-06-12T03:16:58Z</time>
      </trkpt>
      <trkpt lat="46.12235" lon="-1.12257">
        <ele>2</ele>
        <time>2021-06-12T03:17:05Z</time>
      </trkpt>
      <trkpt lat="46.12263" lon="-1.12256">
        <ele>2</ele>
        <time>2021-06-12T03:17:10Z</time>
      </trkpt>
      <trkpt lat="46.12266" lon="-1.12271">
        <ele>2</ele>
        <time>2021-06-12T03:17:12Z</time>
      </trkpt>
      <trkpt lat="46.123" lon="-1.12302">
        <ele>2</ele>
        <time>2021-06-12T03:17:19Z</time>
      </trkpt>
      <trkpt lat="46.12338" lon="-1.12326">
        <ele>2</ele>
        <time>2021-06-12T03:17:26Z</time>
      </trkpt>
      <trkpt lat="46.12423" lon="-1.12398">
        <ele>2</ele>
        <time>2021-06-12T03:17:44Z</time>
      </trkpt>
      <trkpt lat="46.1245" lon="-1.12431">
        <ele>2</ele>
        <time>2021-06-12T03:17:50Z</time>
      </trkpt>
      <trkpt lat="46.12458" lon="-1.12447">
        <ele>3</ele>
        <time>2021-06-12T03:17:52Z</time>
      </trkpt>
      <trkpt lat="46.12537" lon="-1.12546">
        <ele>3</ele>
        <time>2021-06-12T03:18:11Z</time>
      </trkpt>
      <trkpt lat="46.12562" lon="-1.12582">
        <ele>3</ele>
        <time>2021-06-12T03:18:17Z</time>
      </trkpt>
      <trkpt lat="46.1262" lon="-1.1265">
        <ele>2</ele>
        <time>2021-06-12T03:18:31Z</time>
      </trkpt>
      <trkpt lat="46.12717" lon="-1.12758">
        <ele>4</ele>
        <time>2021-06-12T03:18:52Z</time>
      </trkpt>
      <trkpt lat="46.12735" lon="-1.12775">
        <ele>4</ele>
        <time>2021-06-12T03:18:56Z</time>
      </trkpt>
      <trkpt lat="46.12739" lon="-1.12779">
        <ele>4</ele>
        <time>2021-06-12T03:18:57Z</time>
      </trkpt>
      <trkpt lat="46.12745" lon="-1.12781">
        <ele>4</ele>
        <time>2021-06-12T03:18:58Z</time>
      </trkpt>
      <trkpt lat="46.12761" lon="-1.12783">
        <ele>4</ele>
        <time>2021-06-12T03:19:01Z</time>
      </trkpt>
      <trkpt lat="46.12767" lon="-1.12804">
        <ele>4</ele>
        <time>2021-06-12T03:19:04Z</time>
      </trkpt>
      <trkpt lat="46.12773" lon="-1.12805">
        <ele>4</ele>
        <time>2021-06-12T03:19:05Z</time>
      </trkpt>
      <trkpt lat="46.12777" lon="-1.1281">
        <ele>4</ele>
        <time>2021-06-12T03:19:06Z</time>
      </trkpt>
      <trkpt lat="46.12794" lon="-1.12844">
        <ele>3</ele>
        <time>2021-06-12T03:19:11Z</time>
      </trkpt>
      <trkpt lat="46.12801" lon="-1.12844">
        <ele>3</ele>
        <time>2021-06-12T03:19:12Z</time>
      </trkpt>
      <trkpt lat="46.12824" lon="-1.12825">
        <ele>3</ele>
        <time>2021-06-12T03:19:17Z</time>
      </trkpt>
      <trkpt lat="46.12856" lon="-1.12807">
        <ele>3</ele>
        <time>2021-06-12T03:19:23Z</time>
      </trkpt>
      <trkpt lat="46.12874" lon="-1.12757">
        <ele>2</ele>
        <time>2021-06-12T03:19:30Z</time>
      </trkpt>
      <trkpt lat="46.12914" lon="-1.12792">
        <ele>2</ele>
        <time>2021-06-12T03:19:38Z</time>
      </trkpt>
      <trkpt lat="46.12971" lon="-1.12832">
        <ele>1</ele>
        <time>2021-06-12T03:19:50Z</time>
      </trkpt>
      <trkpt lat="46.12975" lon="-1.12842">
        <ele>1</ele>
        <time>2021-06-12T03:19:51Z</time>
      </trkpt>
      <trkpt lat="46.12972" lon="-1.12851">
        <ele>1</ele>
        <time>2021-06-12T03:19:52Z</time>
      </trkpt>
      <trkpt lat="46.1295" lon="-1.12877">
        <ele>2</ele>
        <time>2021-06-12T03:19:57Z</time>
      </trkpt>
      <trkpt lat="46.12943" lon="-1.12899">
        <ele>2</ele>
        <time>2021-06-12T03:20:00Z</time>
      </trkpt>
      <trkpt lat="46.1293" lon="-1.12922">
        <ele>2</ele>
        <time>2021-06-12T03:20:04Z</time>
      </trkpt>
      <trkpt lat="46.12929" lon="-1.12929">
        <ele>2</ele>
        <time>2021-06-12T03:20:05Z</time>
      </trkpt>
      <trkpt lat="46.12932" lon="-1.1295">
        <ele>1</ele>
        <time>2021-06-12T03:20:08Z</time>
      </trkpt>
      <trkpt lat="46.12931" lon="-1.12957">
        <ele>1</ele>
        <time>2021-06-12T03:20:08Z</time>
      </trkpt>
      <trkpt lat="46.12932" lon="-1.12965">
        <ele>1</ele>
        <time>2021-06-12T03:20:09Z</time>
      </trkpt>
      <trkpt lat="46.12945" lon="-1.12995">
        <ele>1</ele>
        <time>2021-06-12T03:20:14Z</time>
      </trkpt>
      <trkpt lat="46.12941" lon="-1.13015">
        <ele>1</ele>
        <time>2021-06-12T03:20:16Z</time>
      </trkpt>
      <trkpt lat="46.12941" lon="-1.13022">
        <ele>1</ele>
        <time>2021-06-12T03:20:17Z</time>
      </trkpt>
      <trkpt lat="46.12944" lon="-1.13028">
        <ele>1</ele>
        <time>2021-06-12T03:20:18Z</time>
      </trkpt>
      <trkpt lat="46.12958" lon="-1.13051">
        <ele>2</ele>
        <time>2021-06-12T03:20:22Z</time>
      </trkpt>
      <trkpt lat="46.12965" lon="-1.13058">
        <ele>2</ele>
        <time>2021-06-12T03:20:23Z</time>
      </trkpt>
      <trkpt lat="46.12974" lon="-1.1306">
        <ele>2</ele>
        <time>2021-06-12T03:20:25Z</time>
      </trkpt>
      <trkpt lat="46.12988" lon="-1.13051">
        <ele>2</ele>
        <time>2021-06-12T03:20:28Z</time>
      </trkpt>
      <trkpt lat="46.12995" lon="-1.1305">
        <ele>2</ele>
        <time>2021-06-12T03:20:29Z</time>
      </trkpt>
      <trkpt lat="46.12996" lon="-1.13053">
        <ele>2</ele>
        <time>2021-06-12T03:20:29Z</time>
      </trkpt>
      <trkpt lat="46.12996" lon="-1.13058">
        <ele>2</ele>
        <time>2021-06-12T03:20:30Z</time>
      </trkpt>
      <trkpt lat="46.12988" lon="-1.13089">
        <ele>2</ele>
        <time>2021-06-12T03:20:34Z</time>
      </trkpt>
      <trkpt lat="46.12989" lon="-1.13095">
        <ele>2</ele>
        <time>2021-06-12T03:20:35Z</time>
      </trkpt>
      <trkpt lat="46.13013" lon="-1.13129">
        <ele>2</ele>
        <time>2021-06-12T03:20:41Z</time>
      </trkpt>
      <trkpt lat="46.13021" lon="-1.13132">
        <ele>2</ele>
        <time>2021-06-12T03:20:42Z</time>
      </trkpt>
      <trkpt lat="46.13031" lon="-1.13147">
        <ele>2</ele>
        <time>2021-06-12T03:20:45Z</time>
      </trkpt>
      <trkpt lat="46.13036" lon="-1.13152">
        <ele>2</ele>
        <time>2021-06-12T03:20:46Z</time>
      </trkpt>
      <trkpt lat="46.13044" lon="-1.13152">
        <ele>2</ele>
        <time>2021-06-12T03:20:47Z</time>
      </trkpt>
      <trkpt lat="46.13056" lon="-1.13149">
        <ele>1</ele>
        <time>2021-06-12T03:20:50Z</time>
      </trkpt>
      <trkpt lat="46.13069" lon="-1.13142">
        <ele>1</ele>
        <time>2021-06-12T03:20:52Z</time>
      </trkpt>
      <trkpt lat="46.13075" lon="-1.13134">
        <ele>1</ele>
        <time>2021-06-12T03:20:54Z</time>
      </trkpt>
      <trkpt lat="46.1308" lon="-1.13124">
        <ele>1</ele>
        <time>2021-06-12T03:20:55Z</time>
      </trkpt>
      <trkpt lat="46.13082" lon="-1.13124">
        <ele>1</ele>
        <time>2021-06-12T03:20:55Z</time>
      </trkpt>
      <trkpt lat="46.13088" lon="-1.1313">
        <ele>1</ele>
        <time>2021-06-12T03:20:57Z</time>
      </trkpt>
      <trkpt lat="46.13092" lon="-1.1313">
        <ele>1</ele>
        <time>2021-06-12T03:20:57Z</time>
      </trkpt>
      <trkpt lat="46.13106" lon="-1.13119">
        <ele>2</ele>
        <time>2021-06-12T03:21:00Z</time>
      </trkpt>
      <trkpt lat="46.1311" lon="-1.13118">
        <ele>2</ele>
        <time>2021-06-12T03:21:01Z</time>
      </trkpt>
      <trkpt lat="46.13113" lon="-1.13119">
        <ele>2</ele>
        <time>2021-06-12T03:21:02Z</time>
      </trkpt>
      <trkpt lat="46.13117" lon="-1.13127">
        <ele>2</ele>
        <time>2021-06-12T03:21:03Z</time>
      </trkpt>
      <trkpt lat="46.13111" lon="-1.13132">
        <ele>1</ele>
        <time>2021-06-12T03:21:04Z</time>
      </trkpt>
      <trkpt lat="46.13134" lon="-1.13285">
        <ele>4</ele>
        <time>2021-06-12T03:21:23Z</time>
      </trkpt>
      <trkpt lat="46.13176" lon="-1.13616">
        <ele>8</ele>
        <time>2021-06-12T03:22:05Z</time>
      </trkpt>
      <trkpt lat="46.1319" lon="-1.137">
        <ele>8</ele>
        <time>2021-06-12T03:22:15Z</time>
      </trkpt>
      <trkpt lat="46.13203" lon="-1.13717">
        <ele>8</ele>
        <time>2021-06-12T03:22:19Z</time>
      </trkpt>
      <trkpt lat="46.13207" lon="-1.13727">
        <ele>8</ele>
        <time>2021-06-12T03:22:20Z</time>
      </trkpt>
      <trkpt lat="46.13206" lon="-1.13741">
        <ele>8</ele>
        <time>2021-06-12T03:22:22Z</time>
      </trkpt>
      <trkpt lat="46.13189" lon="-1.13746">
        <ele>8</ele>
        <time>2021-06-12T03:22:25Z</time>
      </trkpt>
      <trkpt lat="46.1318" lon="-1.13751">
        <ele>8</ele>
        <time>2021-06-12T03:22:26Z</time>
      </trkpt>
      <trkpt lat="46.13183" lon="-1.13767">
        <ele>8</ele>
        <time>2021-06-12T03:22:29Z</time>
      </trkpt>
      <trkpt lat="46.1319" lon="-1.13783">
        <ele>8</ele>
        <time>2021-06-12T03:22:31Z</time>
      </trkpt>
      <trkpt lat="46.13179" lon="-1.13796">
        <ele>7</ele>
        <time>2021-06-12T03:22:33Z</time>
      </trkpt>
      <trkpt lat="46.13177" lon="-1.13803">
        <ele>7</ele>
        <time>2021-06-12T03:22:34Z</time>
      </trkpt>
      <trkpt lat="46.13173" lon="-1.13832">
        <ele>6</ele>
        <time>2021-06-12T03:22:38Z</time>
      </trkpt>
      <trkpt lat="46.13176" lon="-1.1386">
        <ele>6</ele>
        <time>2021-06-12T03:22:41Z</time>
      </trkpt>
      <trkpt lat="46.13176" lon="-1.13877">
        <ele>6</ele>
        <time>2021-06-12T03:22:44Z</time>
      </trkpt>
      <trkpt lat="46.13154" lon="-1.14023">
        <ele>5</ele>
        <time>2021-06-12T03:23:02Z</time>
      </trkpt>
      <trkpt lat="46.13152" lon="-1.14051">
        <ele>5</ele>
        <time>2021-06-12T03:23:05Z</time>
      </trkpt>
      <trkpt lat="46.13153" lon="-1.14163">
        <ele>4</ele>
        <time>2021-06-12T03:23:19Z</time>
      </trkpt>
      <trkpt lat="46.13151" lon="-1.1419">
        <ele>4</ele>
        <time>2021-06-12T03:23:23Z</time>
      </trkpt>
      <trkpt lat="46.13107" lon="-1.14496">
        <ele>4</ele>
        <time>2021-06-12T03:24:01Z</time>
      </trkpt>
      <trkpt lat="46.13086" lon="-1.14617">
        <ele>5</ele>
        <time>2021-06-12T03:24:17Z</time>
      </trkpt>
      <trkpt lat="46.13065" lon="-1.14765">
        <ele>3</ele>
        <time>2021-06-12T03:24:35Z</time>
      </trkpt>
      <trkpt lat="46.13094" lon="-1.14846">
        <ele>2</ele>
        <time>2021-06-12T03:24:46Z</time>
      </trkpt>
      <trkpt lat="46.131" lon="-1.14844">
        <ele>2</ele>
        <time>2021-06-12T03:24:48Z</time>
      </trkpt>
      <trkpt lat="46.13121" lon="-1.1483">
        <ele>1</ele>
        <time>2021-06-12T03:24:52Z</time>
      </trkpt>
      <trkpt lat="46.13153" lon="-1.14829">
        <ele>2</ele>
        <time>2021-06-12T03:24:57Z</time>
      </trkpt>
      <trkpt lat="46.13182" lon="-1.14832">
        <ele>1</ele>
        <time>2021-06-12T03:25:02Z</time>
      </trkpt>
      <trkpt lat="46.13244" lon="-1.14846">
        <ele>1</ele>
        <time>2021-06-12T03:25:14Z</time>
      </trkpt>
      <trkpt lat="46.13267" lon="-1.14858">
        <ele>1</ele>
        <time>2021-06-12T03:25:18Z</time>
      </trkpt>
      <trkpt lat="46.13326" lon="-1.14912">
        <ele>1</ele>
        <time>2021-06-12T03:25:30Z</time>
      </trkpt>
      <trkpt lat="46.13331" lon="-1.14927">
        <ele>1</ele>
        <time>2021-06-12T03:25:32Z</time>
      </trkpt>
      <trkpt lat="46.13404" lon="-1.15053">
        <ele>2</ele>
        <time>2021-06-12T03:25:53Z</time>
      </trkpt>
      <trkpt lat="46.1342" lon="-1.15076">
        <ele>1</ele>
        <time>2021-06-12T03:25:57Z</time>
      </trkpt>
      <trkpt lat="46.13452" lon="-1.15113">
        <ele>2</ele>
        <time>2021-06-12T03:26:04Z</time>
      </trkpt>
      <trkpt lat="46.13508" lon="-1.15148">
        <ele>2</ele>
        <time>2021-06-12T03:26:15Z</time>
      </trkpt>
      <trkpt lat="46.13656" lon="-1.15276">
        <ele>2</ele>
        <time>2021-06-12T03:26:46Z</time>
      </trkpt>
      <trkpt lat="46.1367" lon="-1.15292">
        <ele>2</ele>
        <time>2021-06-12T03:26:49Z</time>
      </trkpt>
      <trkpt lat="46.13685" lon="-1.15305">
        <ele>3</ele>
        <time>2021-06-12T03:26:52Z</time>
      </trkpt>
      <trkpt lat="46.13715" lon="-1.15343">
        <ele>4</ele>
        <time>2021-06-12T03:26:59Z</time>
      </trkpt>
      <trkpt lat="46.13727" lon="-1.15365">
        <ele>4</ele>
        <time>2021-06-12T03:27:02Z</time>
      </trkpt>
      <trkpt lat="46.13738" lon="-1.15389">
        <ele>4</ele>
        <time>2021-06-12T03:27:06Z</time>
      </trkpt>
      <trkpt lat="46.13747" lon="-1.15417">
        <ele>3</ele>
        <time>2021-06-12T03:27:10Z</time>
      </trkpt>
      <trkpt lat="46.13763" lon="-1.15487">
        <ele>4</ele>
        <time>2021-06-12T03:27:19Z</time>
      </trkpt>
      <trkpt lat="46.13769" lon="-1.15525">
        <ele>4</ele>
        <time>2021-06-12T03:27:24Z</time>
      </trkpt>
      <trkpt lat="46.13772" lon="-1.15548">
        <ele>4</ele>
        <time>2021-06-12T03:27:27Z</time>
      </trkpt>
      <trkpt lat="46.13773" lon="-1.15566">
        <ele>4</ele>
        <time>2021-06-12T03:27:29Z</time>
      </trkpt>
      <trkpt lat="46.13778" lon="-1.15594">
        <ele>4</ele>
        <time>2021-06-12T03:27:32Z</time>
      </trkpt>
      <trkpt lat="46.1378" lon="-1.15622">
        <ele>4</ele>
        <time>2021-06-12T03:27:36Z</time>
      </trkpt>
      <trkpt lat="46.13783" lon="-1.15689">
        <ele>5</ele>
        <time>2021-06-12T03:27:44Z</time>
      </trkpt>
      <trkpt lat="46.13784" lon="-1.15732">
        <ele>6</ele>
        <time>2021-06-12T03:27:49Z</time>
      </trkpt>
      <trkpt lat="46.13787" lon="-1.15765">
        <ele>6</ele>
        <time>2021-06-12T03:27:54Z</time>
      </trkpt>
      <trkpt lat="46.13787" lon="-1.15824">
        <ele>6</ele>
        <time>2021-06-12T03:28:01Z</time>
      </trkpt>
      <trkpt lat="46.13792" lon="-1.15821">
        <ele>7</ele>
        <time>2021-06-12T03:28:02Z</time>
      </trkpt>
      <trkpt lat="46.13797" lon="-1.15824">
        <ele>7</ele>
        <time>2021-06-12T03:28:03Z</time>
      </trkpt>
      <trkpt lat="46.13798" lon="-1.15828">
        <ele>7</ele>
        <time>2021-06-12T03:28:03Z</time>
      </trkpt>
      <trkpt lat="46.13797" lon="-1.15836">
        <ele>7</ele>
        <time>2021-06-12T03:28:04Z</time>
      </trkpt>
      <trkpt lat="46.13794" lon="-1.15839">
        <ele>7</ele>
        <time>2021-06-12T03:28:05Z</time>
      </trkpt>
      <trkpt lat="46.1379" lon="-1.15839">
        <ele>6</ele>
        <time>2021-06-12T03:28:06Z</time>
      </trkpt>
      <trkpt lat="46.13787" lon="-1.15835">
        <ele>6</ele>
        <time>2021-06-12T03:28:06Z</time>
      </trkpt>
      <trkpt lat="46.13788" lon="-1.15847">
        <ele>6</ele>
        <time>2021-06-12T03:28:08Z</time>
      </trkpt>
      <trkpt lat="46.13782" lon="-1.15878">
        <ele>5</ele>
        <time>2021-06-12T03:28:12Z</time>
      </trkpt>
      <trkpt lat="46.13775" lon="-1.15946">
        <ele>4</ele>
        <time>2021-06-12T03:28:20Z</time>
      </trkpt>
      <trkpt lat="46.13765" lon="-1.16012">
        <ele>4</ele>
        <time>2021-06-12T03:28:29Z</time>
      </trkpt>
      <trkpt lat="46.13754" lon="-1.16065">
        <ele>5</ele>
        <time>2021-06-12T03:28:35Z</time>
      </trkpt>
      <trkpt lat="46.1374" lon="-1.16101">
        <ele>5</ele>
        <time>2021-06-12T03:28:41Z</time>
      </trkpt>
      <trkpt lat="46.13742" lon="-1.16102">
        <ele>5</ele>
        <time>2021-06-12T03:28:41Z</time>
      </trkpt>
      <trkpt lat="46.13746" lon="-1.16098">
        <ele>5</ele>
        <time>2021-06-12T03:28:42Z</time>
      </trkpt>
      <trkpt lat="46.13749" lon="-1.16099">
        <ele>6</ele>
        <time>2021-06-12T03:28:42Z</time>
      </trkpt>
      <trkpt lat="46.138" lon="-1.16141">
        <ele>9</ele>
        <time>2021-06-12T03:28:53Z</time>
      </trkpt>
      <trkpt lat="46.13805" lon="-1.16151">
        <ele>9</ele>
        <time>2021-06-12T03:28:54Z</time>
      </trkpt>
      <trkpt lat="46.13808" lon="-1.16167">
        <ele>10</ele>
        <time>2021-06-12T03:28:56Z</time>
      </trkpt>
      <trkpt lat="46.1382" lon="-1.16178">
        <ele>10</ele>
        <time>2021-06-12T03:28:59Z</time>
      </trkpt>
      <trkpt lat="46.13829" lon="-1.16187">
        <ele>10</ele>
        <time>2021-06-12T03:29:01Z</time>
      </trkpt>
      <trkpt lat="46.13837" lon="-1.1619">
        <ele>10</ele>
        <time>2021-06-12T03:29:02Z</time>
      </trkpt>
      <trkpt lat="46.13842" lon="-1.16192">
        <ele>10</ele>
        <time>2021-06-12T03:29:03Z</time>
      </trkpt>
      <trkpt lat="46.13887" lon="-1.16213">
        <ele>10</ele>
        <time>2021-06-12T03:29:12Z</time>
      </trkpt>
      <trkpt lat="46.13894" lon="-1.16216">
        <ele>11</ele>
        <time>2021-06-12T03:29:13Z</time>
      </trkpt>
      <trkpt lat="46.13956" lon="-1.16244">
        <ele>11</ele>
        <time>2021-06-12T03:29:24Z</time>
      </trkpt>
      <trkpt lat="46.14066" lon="-1.16264">
        <ele>8</ele>
        <time>2021-06-12T03:29:44Z</time>
      </trkpt>
      <trkpt lat="46.14067" lon="-1.16264">
        <ele>8</ele>
        <time>2021-06-12T03:29:44Z</time>
      </trkpt>
      <trkpt lat="46.14072" lon="-1.16265">
        <ele>8</ele>
        <time>2021-06-12T03:29:45Z</time>
      </trkpt>
      <trkpt lat="46.14081" lon="-1.16267">
        <ele>8</ele>
        <time>2021-06-12T03:29:47Z</time>
      </trkpt>
      <trkpt lat="46.14084" lon="-1.16268">
        <ele>8</ele>
        <time>2021-06-12T03:29:47Z</time>
      </trkpt>
      <trkpt lat="46.1413" lon="-1.16278">
        <ele>7</ele>
        <time>2021-06-12T03:29:56Z</time>
      </trkpt>
      <trkpt lat="46.14142" lon="-1.16273">
        <ele>6</ele>
        <time>2021-06-12T03:29:58Z</time>
      </trkpt>
      <trkpt lat="46.14167" lon="-1.16275">
        <ele>6</ele>
        <time>2021-06-12T03:30:02Z</time>
      </trkpt>
      <trkpt lat="46.14176" lon="-1.16291">
        <ele>5</ele>
        <time>2021-06-12T03:30:05Z</time>
      </trkpt>
      <trkpt lat="46.1418" lon="-1.1632">
        <ele>5</ele>
        <time>2021-06-12T03:30:09Z</time>
      </trkpt>
      <trkpt lat="46.14184" lon="-1.16329">
        <ele>4</ele>
        <time>2021-06-12T03:30:10Z</time>
      </trkpt>
      <trkpt lat="46.14191" lon="-1.16339">
        <ele>3</ele>
        <time>2021-06-12T03:30:12Z</time>
      </trkpt>
      <trkpt lat="46.14196" lon="-1.16342">
        <ele>3</ele>
        <time>2021-06-12T03:30:13Z</time>
      </trkpt>
      <trkpt lat="46.14202" lon="-1.16343">
        <ele>3</ele>
        <time>2021-06-12T03:30:14Z</time>
      </trkpt>
      <trkpt lat="46.14331" lon="-1.163">
        <ele>2</ele>
        <time>2021-06-12T03:30:37Z</time>
      </trkpt>
      <trkpt lat="46.14371" lon="-1.16239">
        <ele>3</ele>
        <time>2021-06-12T03:30:48Z</time>
      </trkpt>
      <trkpt lat="46.14411" lon="-1.16088">
        <ele>7</ele>
        <time>2021-06-12T03:31:08Z</time>
      </trkpt>
      <trkpt lat="46.14427" lon="-1.16027">
        <ele>7</ele>
        <time>2021-06-12T03:31:16Z</time>
      </trkpt>
      <trkpt lat="46.14433" lon="-1.15998">
        <ele>7</ele>
        <time>2021-06-12T03:31:19Z</time>
      </trkpt>
      <trkpt lat="46.14432" lon="-1.1599">
        <ele>7</ele>
        <time>2021-06-12T03:31:20Z</time>
      </trkpt>
      <trkpt lat="46.14432" lon="-1.15986">
        <ele>7</ele>
        <time>2021-06-12T03:31:21Z</time>
      </trkpt>
      <trkpt lat="46.14431" lon="-1.15979">
        <ele>7</ele>
        <time>2021-06-12T03:31:22Z</time>
      </trkpt>
      <trkpt lat="46.14429" lon="-1.15976">
        <ele>7</ele>
        <time>2021-06-12T03:31:22Z</time>
      </trkpt>
      <trkpt lat="46.14428" lon="-1.15973">
        <ele>7</ele>
        <time>2021-06-12T03:31:23Z</time>
      </trkpt>
      <trkpt lat="46.14427" lon="-1.15969">
        <ele>7</ele>
        <time>2021-06-12T03:31:23Z</time>
      </trkpt>
      <trkpt lat="46.14427" lon="-1.15965">
        <ele>7</ele>
        <time>2021-06-12T03:31:24Z</time>
      </trkpt>
      <trkpt lat="46.14428" lon="-1.15961">
        <ele>7</ele>
        <time>2021-06-12T03:31:24Z</time>
      </trkpt>
      <trkpt lat="46.14429" lon="-1.15958">
        <ele>7</ele>
        <time>2021-06-12T03:31:25Z</time>
      </trkpt>
      <trkpt lat="46.14432" lon="-1.15954">
        <ele>7</ele>
        <time>2021-06-12T03:31:25Z</time>
      </trkpt>
      <trkpt lat="46.14434" lon="-1.15953">
        <ele>7</ele>
        <time>2021-06-12T03:31:26Z</time>
      </trkpt>
      <trkpt lat="46.14436" lon="-1.15952">
        <ele>7</ele>
        <time>2021-06-12T03:31:26Z</time>
      </trkpt>
      <trkpt lat="46.14442" lon="-1.15953">
        <ele>7</ele>
        <time>2021-06-12T03:31:27Z</time>
      </trkpt>
      <trkpt lat="46.14444" lon="-1.15955">
        <ele>7</ele>
        <time>2021-06-12T03:31:28Z</time>
      </trkpt>
      <trkpt lat="46.14446" lon="-1.15958">
        <ele>7</ele>
        <time>2021-06-12T03:31:28Z</time>
      </trkpt>
      <trkpt lat="46.14453" lon="-1.15959">
        <ele>7</ele>
        <time>2021-06-12T03:31:29Z</time>
      </trkpt>
      <trkpt lat="46.14462" lon="-1.15961">
        <ele>7</ele>
        <time>2021-06-12T03:31:31Z</time>
      </trkpt>
      <trkpt lat="46.14646" lon="-1.159">
        <ele>4</ele>
        <time>2021-06-12T03:32:05Z</time>
      </trkpt>
      <trkpt lat="46.14648" lon="-1.15913">
        <ele>4</ele>
        <time>2021-06-12T03:32:06Z</time>
      </trkpt>
      <trkpt lat="46.14709" lon="-1.15885">
        <ele>3</ele>
        <time>2021-06-12T03:32:18Z</time>
      </trkpt>
      <trkpt lat="46.14802" lon="-1.15855">
        <ele>4</ele>
        <time>2021-06-12T03:32:35Z</time>
      </trkpt>
      <trkpt lat="46.14813" lon="-1.15854">
        <ele>5</ele>
        <time>2021-06-12T03:32:36Z</time>
      </trkpt>
      <trkpt lat="46.14841" lon="-1.15858">
        <ele>5</ele>
        <time>2021-06-12T03:32:41Z</time>
      </trkpt>
      <trkpt lat="46.14903" lon="-1.15882">
        <ele>4</ele>
        <time>2021-06-12T03:32:53Z</time>
      </trkpt>
      <trkpt lat="46.14928" lon="-1.15885">
        <ele>4</ele>
        <time>2021-06-12T03:32:57Z</time>
      </trkpt>
      <trkpt lat="46.14981" lon="-1.1587">
        <ele>4</ele>
        <time>2021-06-12T03:33:07Z</time>
      </trkpt>
      <trkpt lat="46.15065" lon="-1.15843">
        <ele>4</ele>
        <time>2021-06-12T03:33:22Z</time>
      </trkpt>
      <trkpt lat="46.15256" lon="-1.15779">
        <ele>3</ele>
        <time>2021-06-12T03:33:57Z</time>
      </trkpt>
      <trkpt lat="46.15267" lon="-1.15773">
        <ele>2</ele>
        <time>2021-06-12T03:33:59Z</time>
      </trkpt>
      <trkpt lat="46.15267" lon="-1.15766">
        <ele>3</ele>
        <time>2021-06-12T03:34:00Z</time>
      </trkpt>
      <trkpt lat="46.1526" lon="-1.15768">
        <ele>3</ele>
        <time>2021-06-12T03:34:01Z</time>
      </trkpt>
      <trkpt lat="46.15263" lon="-1.15761">
        <ele>3</ele>
        <time>2021-06-12T03:34:02Z</time>
      </trkpt>
      <trkpt lat="46.1526" lon="-1.15768">
        <ele>3</ele>
        <time>2021-06-12T03:34:03Z</time>
      </trkpt>
      <trkpt lat="46.15267" lon="-1.15766">
        <ele>3</ele>
        <time>2021-06-12T03:34:05Z</time>
      </trkpt>
      <trkpt lat="46.15267" lon="-1.15773">
        <ele>2</ele>
        <time>2021-06-12T03:34:06Z</time>
      </trkpt>
      <trkpt lat="46.1528" lon="-1.15765">
        <ele>2</ele>
        <time>2021-06-12T03:34:08Z</time>
      </trkpt>
      <trkpt lat="46.1529" lon="-1.15753">
        <ele>2</ele>
        <time>2021-06-12T03:34:10Z</time>
      </trkpt>
      <trkpt lat="46.15298" lon="-1.15741">
        <ele>2</ele>
        <time>2021-06-12T03:34:12Z</time>
      </trkpt>
      <trkpt lat="46.15336" lon="-1.1565">
        <ele>2</ele>
        <time>2021-06-12T03:34:26Z</time>
      </trkpt>
      <trkpt lat="46.15349" lon="-1.15579">
        <ele>2</ele>
        <time>2021-06-12T03:34:35Z</time>
      </trkpt>
      <trkpt lat="46.15392" lon="-1.15289">
        <ele>6</ele>
        <time>2021-06-12T03:35:11Z</time>
      </trkpt>
      <trkpt lat="46.15389" lon="-1.1529">
        <ele>6</ele>
        <time>2021-06-12T03:35:12Z</time>
      </trkpt>
      <trkpt lat="46.15395" lon="-1.15258">
        <ele>5</ele>
        <time>2021-06-12T03:35:16Z</time>
      </trkpt>
      <trkpt lat="46.15389" lon="-1.15249">
        <ele>5</ele>
        <time>2021-06-12T03:35:17Z</time>
      </trkpt>
      <trkpt lat="46.15382" lon="-1.15245">
        <ele>5</ele>
        <time>2021-06-12T03:35:19Z</time>
      </trkpt>
      <trkpt lat="46.15378" lon="-1.15244">
        <ele>5</ele>
        <time>2021-06-12T03:35:19Z</time>
      </trkpt>
      <trkpt lat="46.15363" lon="-1.15243">
        <ele>5</ele>
        <time>2021-06-12T03:35:22Z</time>
      </trkpt>
      <trkpt lat="46.15326" lon="-1.15243">
        <ele>5</ele>
        <time>2021-06-12T03:35:29Z</time>
      </trkpt>
      <trkpt lat="46.15282" lon="-1.15243">
        <ele>5</ele>
        <time>2021-06-12T03:35:36Z</time>
      </trkpt>
      <trkpt lat="46.15282" lon="-1.15225">
        <ele>5</ele>
        <time>2021-06-12T03:35:39Z</time>
      </trkpt>
      <trkpt lat="46.15282" lon="-1.15124">
        <ele>4</ele>
        <time>2021-06-12T03:35:51Z</time>
      </trkpt>
      <trkpt lat="46.15283" lon="-1.15107">
        <ele>5</ele>
        <time>2021-06-12T03:35:53Z</time>
      </trkpt>
      <trkpt lat="46.15281" lon="-1.15105">
        <ele>5</ele>
        <time>2021-06-12T03:35:54Z</time>
      </trkpt>
      <trkpt lat="46.15278" lon="-1.15095">
        <ele>6</ele>
        <time>2021-06-12T03:35:55Z</time>
      </trkpt>
      <trkpt lat="46.15278" lon="-1.15012">
        <ele>6</ele>
        <time>2021-06-12T03:36:05Z</time>
      </trkpt>
      <trkpt lat="46.15302" lon="-1.15007">
        <ele>7</ele>
        <time>2021-06-12T03:36:10Z</time>
      </trkpt>
      <trkpt lat="46.15379" lon="-1.15007">
        <ele>4</ele>
        <time>2021-06-12T03:36:23Z</time>
      </trkpt>
      <trkpt lat="46.15382" lon="-1.15005">
        <ele>4</ele>
        <time>2021-06-12T03:36:24Z</time>
      </trkpt>
      <trkpt lat="46.15383" lon="-1.14997">
        <ele>4</ele>
        <time>2021-06-12T03:36:25Z</time>
      </trkpt>
      <trkpt lat="46.15384" lon="-1.14959">
        <ele>5</ele>
        <time>2021-06-12T03:36:30Z</time>
      </trkpt>
      <trkpt lat="46.15498" lon="-1.1496">
        <ele>3</ele>
        <time>2021-06-12T03:36:50Z</time>
      </trkpt>
      <trkpt lat="46.15508" lon="-1.1495">
        <ele>3</ele>
        <time>2021-06-12T03:36:52Z</time>
      </trkpt>
      <trkpt lat="46.15585" lon="-1.14957">
        <ele>4</ele>
        <time>2021-06-12T03:37:06Z</time>
      </trkpt>
      <trkpt lat="46.156" lon="-1.14963">
        <ele>4</ele>
        <time>2021-06-12T03:37:08Z</time>
      </trkpt>
      <trkpt lat="46.15662" lon="-1.14976">
        <ele>4</ele>
        <time>2021-06-12T03:37:20Z</time>
      </trkpt>
      <trkpt lat="46.15786" lon="-1.15064">
        <ele>5</ele>
        <time>2021-06-12T03:37:44Z</time>
      </trkpt>
      <trkpt lat="46.15789" lon="-1.15061">
        <ele>5</ele>
        <time>2021-06-12T03:37:45Z</time>
      </trkpt>
      <trkpt lat="46.158" lon="-1.15068">
        <ele>5</ele>
        <time>2021-06-12T03:37:47Z</time>
      </trkpt>
      <trkpt lat="46.1581" lon="-1.15081">
        <ele>5</ele>
        <time>2021-06-12T03:37:49Z</time>
      </trkpt>
      <trkpt lat="46.15814" lon="-1.15091">
        <ele>5</ele>
        <time>2021-06-12T03:37:51Z</time>
      </trkpt>
      <trkpt lat="46.15816" lon="-1.15107">
        <ele>5</ele>
        <time>2021-06-12T03:37:53Z</time>
      </trkpt>
      <trkpt lat="46.15811" lon="-1.15279">
        <ele>7</ele>
        <time>2021-06-12T03:38:14Z</time>
      </trkpt>
      <trkpt lat="46.15803" lon="-1.15327">
        <ele>7</ele>
        <time>2021-06-12T03:38:20Z</time>
      </trkpt>
      <trkpt lat="46.15801" lon="-1.15369">
        <ele>8</ele>
        <time>2021-06-12T03:38:25Z</time>
      </trkpt>
      <trkpt lat="46.15782" lon="-1.15448">
        <ele>10</ele>
        <time>2021-06-12T03:38:36Z</time>
      </trkpt>
      <trkpt lat="46.1578" lon="-1.15459">
        <ele>10</ele>
        <time>2021-06-12T03:38:37Z</time>
      </trkpt>
      <trkpt lat="46.1578" lon="-1.15493">
        <ele>10</ele>
        <time>2021-06-12T03:38:41Z</time>
      </trkpt>
      <trkpt lat="46.15746" lon="-1.15514">
        <ele>11</ele>
        <time>2021-06-12T03:38:48Z</time>
      </trkpt>
      <trkpt lat="46.1573" lon="-1.15527">
        <ele>10</ele>
        <time>2021-06-12T03:38:51Z</time>
      </trkpt>
      <trkpt lat="46.15716" lon="-1.15549">
        <ele>10</ele>
        <time>2021-06-12T03:38:55Z</time>
      </trkpt>
      <trkpt lat="46.15742" lon="-1.15685">
        <ele>8</ele>
        <time>2021-06-12T03:39:12Z</time>
      </trkpt>
      <trkpt lat="46.15709" lon="-1.15697">
        <ele>9</ele>
        <time>2021-06-12T03:39:18Z</time>
      </trkpt>
      <trkpt lat="46.15695" lon="-1.15706">
        <ele>9</ele>
        <time>2021-06-12T03:39:21Z</time>
      </trkpt>
      <trkpt lat="46.15674" lon="-1.15731">
        <ele>9</ele>
        <time>2021-06-12T03:39:26Z</time>
      </trkpt>
      <trkpt lat="46.1567" lon="-1.15732">
        <ele>10</ele>
        <time>2021-06-12T03:39:26Z</time>
      </trkpt>
      <trkpt lat="46.15632" lon="-1.15731">
        <ele>8</ele>
        <time>2021-06-12T03:39:33Z</time>
      </trkpt>
      <trkpt lat="46.15621" lon="-1.15856">
        <ele>6</ele>
        <time>2021-06-12T03:39:49Z</time>
      </trkpt>
      <trkpt lat="46.15614" lon="-1.15925">
        <ele>4</ele>
        <time>2021-06-12T03:39:57Z</time>
      </trkpt>
      <trkpt lat="46.15612" lon="-1.15946">
        <ele>4</ele>
        <time>2021-06-12T03:40:00Z</time>
      </trkpt>
      <trkpt lat="46.15611" lon="-1.15958">
        <ele>4</ele>
        <time>2021-06-12T03:40:01Z</time>
      </trkpt>
      <trkpt lat="46.15609" lon="-1.15984">
        <ele>4</ele>
        <time>2021-06-12T03:40:05Z</time>
      </trkpt>
      <trkpt lat="46.15606" lon="-1.16024">
        <ele>3</ele>
        <time>2021-06-12T03:40:10Z</time>
      </trkpt>
      <trkpt lat="46.15604" lon="-1.16055">
        <ele>3</ele>
        <time>2021-06-12T03:40:13Z</time>
      </trkpt>
      <trkpt lat="46.15599" lon="-1.1608">
        <ele>2</ele>
        <time>2021-06-12T03:40:17Z</time>
      </trkpt>
      <trkpt lat="46.15594" lon="-1.1616">
        <ele>3</ele>
        <time>2021-06-12T03:40:27Z</time>
      </trkpt>
      <trkpt lat="46.15562" lon="-1.16917">
        <ele>13</ele>
        <time>2021-06-12T03:42:00Z</time>
      </trkpt>
      <trkpt lat="46.15556" lon="-1.16917">
        <ele>12</ele>
        <time>2021-06-12T03:42:01Z</time>
      </trkpt>
      <trkpt lat="46.15536" lon="-1.16924">
        <ele>11</ele>
        <time>2021-06-12T03:42:05Z</time>
      </trkpt>
      <trkpt lat="46.15535" lon="-1.1693">
        <ele>11</ele>
        <time>2021-06-12T03:42:06Z</time>
      </trkpt>
      <trkpt lat="46.1554" lon="-1.16958">
        <ele>12</ele>
        <time>2021-06-12T03:42:09Z</time>
      </trkpt>
      <trkpt lat="46.15537" lon="-1.17029">
        <ele>13</ele>
        <time>2021-06-12T03:42:18Z</time>
      </trkpt>
      <trkpt lat="46.15532" lon="-1.17067">
        <ele>14</ele>
        <time>2021-06-12T03:42:23Z</time>
      </trkpt>
      <trkpt lat="46.15524" lon="-1.17091">
        <ele>14</ele>
        <time>2021-06-12T03:42:26Z</time>
      </trkpt>
      <trkpt lat="46.15492" lon="-1.17096">
        <ele>12</ele>
        <time>2021-06-12T03:42:32Z</time>
      </trkpt>
      <trkpt lat="46.15453" lon="-1.17093">
        <ele>8</ele>
        <time>2021-06-12T03:42:39Z</time>
      </trkpt>
      <trkpt lat="46.15454" lon="-1.17099">
        <ele>8</ele>
        <time>2021-06-12T03:42:39Z</time>
      </trkpt>
      <trkpt lat="46.15449" lon="-1.17117">
        <ele>8</ele>
        <time>2021-06-12T03:42:42Z</time>
      </trkpt>
      <trkpt lat="46.15442" lon="-1.17131">
        <ele>7</ele>
        <time>2021-06-12T03:42:44Z</time>
      </trkpt>
      <trkpt lat="46.15437" lon="-1.17152">
        <ele>7</ele>
        <time>2021-06-12T03:42:47Z</time>
      </trkpt>
      <trkpt lat="46.15417" lon="-1.17319">
        <ele>9</ele>
        <time>2021-06-12T03:43:08Z</time>
      </trkpt>
      <trkpt lat="46.15388" lon="-1.17527">
        <ele>9</ele>
        <time>2021-06-12T03:43:34Z</time>
      </trkpt>
      <trkpt lat="46.15363" lon="-1.17687">
        <ele>7</ele>
        <time>2021-06-12T03:43:54Z</time>
      </trkpt>
      <trkpt lat="46.15359" lon="-1.17694">
        <ele>7</ele>
        <time>2021-06-12T03:43:55Z</time>
      </trkpt>
      <trkpt lat="46.15354" lon="-1.17726">
        <ele>6</ele>
        <time>2021-06-12T03:43:59Z</time>
      </trkpt>
      <trkpt lat="46.15354" lon="-1.17819">
        <ele>4</ele>
        <time>2021-06-12T03:44:11Z</time>
      </trkpt>
      <trkpt lat="46.15348" lon="-1.17956">
        <ele>2</ele>
        <time>2021-06-12T03:44:27Z</time>
      </trkpt>
      <trkpt lat="46.1535" lon="-1.18003">
        <ele>4</ele>
        <time>2021-06-12T03:44:33Z</time>
      </trkpt>
      <trkpt lat="46.15361" lon="-1.18068">
        <ele>4</ele>
        <time>2021-06-12T03:44:41Z</time>
      </trkpt>
      <trkpt lat="46.15368" lon="-1.18118">
        <ele>5</ele>
        <time>2021-06-12T03:44:48Z</time>
      </trkpt>
      <trkpt lat="46.15375" lon="-1.1818">
        <ele>4</ele>
        <time>2021-06-12T03:44:56Z</time>
      </trkpt>
      <trkpt lat="46.15381" lon="-1.18267">
        <ele>3</ele>
        <time>2021-06-12T03:45:06Z</time>
      </trkpt>
      <trkpt lat="46.15381" lon="-1.18287">
        <ele>3</ele>
        <time>2021-06-12T03:45:09Z</time>
      </trkpt>
      <trkpt lat="46.15372" lon="-1.18359">
        <ele>3</ele>
        <time>2021-06-12T03:45:18Z</time>
      </trkpt>
      <trkpt lat="46.15372" lon="-1.18394">
        <ele>3</ele>
        <time>2021-06-12T03:45:22Z</time>
      </trkpt>
      <trkpt lat="46.15367" lon="-1.1842">
        <ele>2</ele>
        <time>2021-06-12T03:45:25Z</time>
      </trkpt>
      <trkpt lat="46.15365" lon="-1.18467">
        <ele>2</ele>
        <time>2021-06-12T03:45:31Z</time>
      </trkpt>
      <trkpt lat="46.15366" lon="-1.18523">
        <ele>2</ele>
        <time>2021-06-12T03:45:38Z</time>
      </trkpt>
      <trkpt lat="46.15376" lon="-1.18643">
        <ele>2</ele>
        <time>2021-06-12T03:45:53Z</time>
      </trkpt>
      <trkpt lat="46.15376" lon="-1.18673">
        <ele>1</ele>
        <time>2021-06-12T03:45:57Z</time>
      </trkpt>
      <trkpt lat="46.15371" lon="-1.18699">
        <ele>1</ele>
        <time>2021-06-12T03:46:00Z</time>
      </trkpt>
      <trkpt lat="46.15323" lon="-1.18788">
        <ele>1</ele>
        <time>2021-06-12T03:46:14Z</time>
      </trkpt>
      <trkpt lat="46.15317" lon="-1.18797">
        <ele>1</ele>
        <time>2021-06-12T03:46:15Z</time>
      </trkpt>
      <trkpt lat="46.15309" lon="-1.18805">
        <ele>1</ele>
        <time>2021-06-12T03:46:17Z</time>
      </trkpt>
      <trkpt lat="46.15284" lon="-1.18815">
        <ele>2</ele>
        <time>2021-06-12T03:46:22Z</time>
      </trkpt>
      <trkpt lat="46.15262" lon="-1.18815">
        <ele>3</ele>
        <time>2021-06-12T03:46:26Z</time>
      </trkpt>
      <trkpt lat="46.15247" lon="-1.1881">
        <ele>3</ele>
        <time>2021-06-12T03:46:28Z</time>
      </trkpt>
      <trkpt lat="46.15227" lon="-1.18779">
        <ele>1</ele>
        <time>2021-06-12T03:46:34Z</time>
      </trkpt>
      <trkpt lat="46.15222" lon="-1.18776">
        <ele>1</ele>
        <time>2021-06-12T03:46:35Z</time>
      </trkpt>
      <trkpt lat="46.15198" lon="-1.18778">
        <ele>1</ele>
        <time>2021-06-12T03:46:39Z</time>
      </trkpt>
      <trkpt lat="46.15173" lon="-1.18771">
        <ele>1</ele>
        <time>2021-06-12T03:46:43Z</time>
      </trkpt>
      <trkpt lat="46.15164" lon="-1.18771">
        <ele>1</ele>
        <time>2021-06-12T03:46:45Z</time>
      </trkpt>
      <trkpt lat="46.1514" lon="-1.18794">
        <ele>1</ele>
        <time>2021-06-12T03:46:50Z</time>
      </trkpt>
      <trkpt lat="46.15129" lon="-1.18808">
        <ele>2</ele>
        <time>2021-06-12T03:46:53Z</time>
      </trkpt>
      <trkpt lat="46.1507" lon="-1.19">
        <ele>3</ele>
        <time>2021-06-12T03:47:19Z</time>
      </trkpt>
      <trkpt lat="46.15071" lon="-1.1902">
        <ele>3</ele>
        <time>2021-06-12T03:47:21Z</time>
      </trkpt>
      <trkpt lat="46.15084" lon="-1.19056">
        <ele>4</ele>
        <time>2021-06-12T03:47:26Z</time>
      </trkpt>
      <trkpt lat="46.15109" lon="-1.19093">
        <ele>4</ele>
        <time>2021-06-12T03:47:33Z</time>
      </trkpt>
      <trkpt lat="46.15127" lon="-1.19118">
        <ele>5</ele>
        <time>2021-06-12T03:47:37Z</time>
      </trkpt>
      <trkpt lat="46.15112" lon="-1.19132">
        <ele>5</ele>
        <time>2021-06-12T03:47:40Z</time>
      </trkpt>
      <trkpt lat="46.151" lon="-1.19137">
        <ele>5</ele>
        <time>2021-06-12T03:47:42Z</time>
      </trkpt>
      <trkpt lat="46.1508" lon="-1.19152">
        <ele>5</ele>
        <time>2021-06-12T03:47:46Z</time>
      </trkpt>
      <trkpt lat="46.15043" lon="-1.19183">
        <ele>4</ele>
        <time>2021-06-12T03:47:54Z</time>
      </trkpt>
      <trkpt lat="46.15033" lon="-1.19197">
        <ele>4</ele>
        <time>2021-06-12T03:47:56Z</time>
      </trkpt>
      <trkpt lat="46.15008" lon="-1.19278">
        <ele>5</ele>
        <time>2021-06-12T03:48:07Z</time>
      </trkpt>
      <trkpt lat="46.14995" lon="-1.19296">
        <ele>5</ele>
        <time>2021-06-12T03:48:11Z</time>
      </trkpt>
      <trkpt lat="46.14988" lon="-1.19311">
        <ele>5</ele>
        <time>2021-06-12T03:48:13Z</time>
      </trkpt>
      <trkpt lat="46.14985" lon="-1.19323">
        <ele>5</ele>
        <time>2021-06-12T03:48:14Z</time>
      </trkpt>
      <trkpt lat="46.14952" lon="-1.19404">
        <ele>5</ele>
        <time>2021-06-12T03:48:26Z</time>
      </trkpt>
      <trkpt lat="46.14942" lon="-1.1945">
        <ele>6</ele>
        <time>2021-06-12T03:48:32Z</time>
      </trkpt>
      <trkpt lat="46.14936" lon="-1.1946">
        <ele>6</ele>
        <time>2021-06-12T03:48:34Z</time>
      </trkpt>
      <trkpt lat="46.14921" lon="-1.19472">
        <ele>6</ele>
        <time>2021-06-12T03:48:37Z</time>
      </trkpt>
      <trkpt lat="46.14917" lon="-1.19479">
        <ele>6</ele>
        <time>2021-06-12T03:48:38Z</time>
      </trkpt>
      <trkpt lat="46.14913" lon="-1.1949">
        <ele>6</ele>
        <time>2021-06-12T03:48:39Z</time>
      </trkpt>
      <trkpt lat="46.14906" lon="-1.19539">
        <ele>7</ele>
        <time>2021-06-12T03:48:45Z</time>
      </trkpt>
      <trkpt lat="46.14894" lon="-1.19568">
        <ele>7</ele>
        <time>2021-06-12T03:48:50Z</time>
      </trkpt>
      <trkpt lat="46.14886" lon="-1.19593">
        <ele>6</ele>
        <time>2021-06-12T03:48:53Z</time>
      </trkpt>
      <trkpt lat="46.14883" lon="-1.1961">
        <ele>6</ele>
        <time>2021-06-12T03:48:55Z</time>
      </trkpt>
      <trkpt lat="46.14879" lon="-1.19617">
        <ele>6</ele>
        <time>2021-06-12T03:48:56Z</time>
      </trkpt>
      <trkpt lat="46.14873" lon="-1.19631">
        <ele>6</ele>
        <time>2021-06-12T03:48:58Z</time>
      </trkpt>
      <trkpt lat="46.14864" lon="-1.19681">
        <ele>6</ele>
        <time>2021-06-12T03:49:05Z</time>
      </trkpt>
      <trkpt lat="46.14852" lon="-1.19713">
        <ele>6</ele>
        <time>2021-06-12T03:49:09Z</time>
      </trkpt>
      <trkpt lat="46.14834" lon="-1.1975">
        <ele>6</ele>
        <time>2021-06-12T03:49:15Z</time>
      </trkpt>
      <trkpt lat="46.14831" lon="-1.1976">
        <ele>6</ele>
        <time>2021-06-12T03:49:16Z</time>
      </trkpt>
      <trkpt lat="46.14809" lon="-1.198">
        <ele>7</ele>
        <time>2021-06-12T03:49:22Z</time>
      </trkpt>
      <trkpt lat="46.14803" lon="-1.19816">
        <ele>7</ele>
        <time>2021-06-12T03:49:25Z</time>
      </trkpt>
      <trkpt lat="46.14794" lon="-1.19828">
        <ele>7</ele>
        <time>2021-06-12T03:49:27Z</time>
      </trkpt>
      <trkpt lat="46.14785" lon="-1.19844">
        <ele>6</ele>
        <time>2021-06-12T03:49:29Z</time>
      </trkpt>
      <trkpt lat="46.14784" lon="-1.19851">
        <ele>6</ele>
        <time>2021-06-12T03:49:30Z</time>
      </trkpt>
      <trkpt lat="46.14779" lon="-1.1986">
        <ele>6</ele>
        <time>2021-06-12T03:49:32Z</time>
      </trkpt>
      <trkpt lat="46.14771" lon="-1.19871">
        <ele>6</ele>
        <time>2021-06-12T03:49:34Z</time>
      </trkpt>
      <trkpt lat="46.14765" lon="-1.19883">
        <ele>5</ele>
        <time>2021-06-12T03:49:35Z</time>
      </trkpt>
      <trkpt lat="46.14761" lon="-1.19893">
        <ele>5</ele>
        <time>2021-06-12T03:49:37Z</time>
      </trkpt>
      <trkpt lat="46.14751" lon="-1.19942">
        <ele>5</ele>
        <time>2021-06-12T03:49:43Z</time>
      </trkpt>
      <trkpt lat="46.14749" lon="-1.19959">
        <ele>5</ele>
        <time>2021-06-12T03:49:45Z</time>
      </trkpt>
      <trkpt lat="46.1475" lon="-1.19975">
        <ele>6</ele>
        <time>2021-06-12T03:49:47Z</time>
      </trkpt>
      <trkpt lat="46.14752" lon="-1.19991">
        <ele>6</ele>
        <time>2021-06-12T03:49:49Z</time>
      </trkpt>
      <trkpt lat="46.14755" lon="-1.20122">
        <ele>6</ele>
        <time>2021-06-12T03:50:05Z</time>
      </trkpt>
      <trkpt lat="46.1474" lon="-1.2023">
        <ele>8</ele>
        <time>2021-06-12T03:50:19Z</time>
      </trkpt>
      <trkpt lat="46.14737" lon="-1.20237">
        <ele>8</ele>
        <time>2021-06-12T03:50:20Z</time>
      </trkpt>
      <trkpt lat="46.14717" lon="-1.20261">
        <ele>7</ele>
        <time>2021-06-12T03:50:25Z</time>
      </trkpt>
      <trkpt lat="46.14706" lon="-1.2028">
        <ele>6</ele>
        <time>2021-06-12T03:50:28Z</time>
      </trkpt>
      <trkpt lat="46.14683" lon="-1.20341">
        <ele>5</ele>
        <time>2021-06-12T03:50:36Z</time>
      </trkpt>
      <trkpt lat="46.14668" lon="-1.20398">
        <ele>6</ele>
        <time>2021-06-12T03:50:44Z</time>
      </trkpt>
      <trkpt lat="46.14653" lon="-1.20431">
        <ele>6</ele>
        <time>2021-06-12T03:50:49Z</time>
      </trkpt>
      <trkpt lat="46.14648" lon="-1.20464">
        <ele>7</ele>
        <time>2021-06-12T03:50:53Z</time>
      </trkpt>
      <trkpt lat="46.14648" lon="-1.20502">
        <ele>7</ele>
        <time>2021-06-12T03:50:57Z</time>
      </trkpt>
      <trkpt lat="46.14636" lon="-1.2056">
        <ele>7</ele>
        <time>2021-06-12T03:51:05Z</time>
      </trkpt>
      <trkpt lat="46.14629" lon="-1.20601">
        <ele>7</ele>
        <time>2021-06-12T03:51:10Z</time>
      </trkpt>
      <trkpt lat="46.14623" lon="-1.20623">
        <ele>7</ele>
        <time>2021-06-12T03:51:13Z</time>
      </trkpt>
      <trkpt lat="46.14616" lon="-1.20638">
        <ele>6</ele>
        <time>2021-06-12T03:51:15Z</time>
      </trkpt>
      <trkpt lat="46.14612" lon="-1.20656">
        <ele>6</ele>
        <time>2021-06-12T03:51:18Z</time>
      </trkpt>
      <trkpt lat="46.1461" lon="-1.20683">
        <ele>5</ele>
        <time>2021-06-12T03:51:21Z</time>
      </trkpt>
      <trkpt lat="46.14613" lon="-1.20705">
        <ele>5</ele>
        <time>2021-06-12T03:51:24Z</time>
      </trkpt>
      <trkpt lat="46.14623" lon="-1.20747">
        <ele>5</ele>
        <time>2021-06-12T03:51:29Z</time>
      </trkpt>
      <trkpt lat="46.14638" lon="-1.20788">
        <ele>5</ele>
        <time>2021-06-12T03:51:35Z</time>
      </trkpt>
      <trkpt lat="46.14653" lon="-1.2082">
        <ele>5</ele>
        <time>2021-06-12T03:51:40Z</time>
      </trkpt>
      <trkpt lat="46.1467" lon="-1.20849">
        <ele>5</ele>
        <time>2021-06-12T03:51:44Z</time>
      </trkpt>
      <trkpt lat="46.14707" lon="-1.20903">
        <ele>4</ele>
        <time>2021-06-12T03:51:54Z</time>
      </trkpt>
      <trkpt lat="46.14726" lon="-1.20929">
        <ele>4</ele>
        <time>2021-06-12T03:51:58Z</time>
      </trkpt>
      <trkpt lat="46.14759" lon="-1.20975">
        <ele>3</ele>
        <time>2021-06-12T03:52:07Z</time>
      </trkpt>
      <trkpt lat="46.14794" lon="-1.21018">
        <ele>4</ele>
        <time>2021-06-12T03:52:15Z</time>
      </trkpt>
      <trkpt lat="46.14831" lon="-1.2107">
        <ele>5</ele>
        <time>2021-06-12T03:52:24Z</time>
      </trkpt>
      <trkpt lat="46.14834" lon="-1.21075">
        <ele>5</ele>
        <time>2021-06-12T03:52:25Z</time>
      </trkpt>
      <trkpt lat="46.1484" lon="-1.21074">
        <ele>6</ele>
        <time>2021-06-12T03:52:26Z</time>
      </trkpt>
      <trkpt lat="46.14864" lon="-1.21007">
        <ele>7</ele>
        <time>2021-06-12T03:52:35Z</time>
      </trkpt>
      <trkpt lat="46.14867" lon="-1.20988">
        <ele>8</ele>
        <time>2021-06-12T03:52:38Z</time>
      </trkpt>
      <trkpt lat="46.14874" lon="-1.20926">
        <ele>8</ele>
        <time>2021-06-12T03:52:45Z</time>
      </trkpt>
      <trkpt lat="46.14879" lon="-1.20777">
        <ele>10</ele>
        <time>2021-06-12T03:53:04Z</time>
      </trkpt>
      <trkpt lat="46.14867" lon="-1.20706">
        <ele>11</ele>
        <time>2021-06-12T03:53:13Z</time>
      </trkpt>
      <trkpt lat="46.14937" lon="-1.20662">
        <ele>11</ele>
        <time>2021-06-12T03:53:26Z</time>
      </trkpt>
      <trkpt lat="46.14946" lon="-1.2066">
        <ele>11</ele>
        <time>2021-06-12T03:53:28Z</time>
      </trkpt>
      <trkpt lat="46.14954" lon="-1.20663">
        <ele>11</ele>
        <time>2021-06-12T03:53:29Z</time>
      </trkpt>
      <trkpt lat="46.14964" lon="-1.20664">
        <ele>12</ele>
        <time>2021-06-12T03:53:31Z</time>
      </trkpt>
      <trkpt lat="46.14976" lon="-1.2066">
        <ele>12</ele>
        <time>2021-06-12T03:53:33Z</time>
      </trkpt>
      <trkpt lat="46.1498" lon="-1.20656">
        <ele>12</ele>
        <time>2021-06-12T03:53:34Z</time>
      </trkpt>
      <trkpt lat="46.14987" lon="-1.20641">
        <ele>13</ele>
        <time>2021-06-12T03:53:36Z</time>
      </trkpt>
      <trkpt lat="46.14988" lon="-1.20631">
        <ele>13</ele>
        <time>2021-06-12T03:53:38Z</time>
      </trkpt>
      <trkpt lat="46.14991" lon="-1.20624">
        <ele>13</ele>
        <time>2021-06-12T03:53:39Z</time>
      </trkpt>
      <trkpt lat="46.15055" lon="-1.20564">
        <ele>15</ele>
        <time>2021-06-12T03:53:52Z</time>
      </trkpt>
      <trkpt lat="46.15097" lon="-1.20534">
        <ele>16</ele>
        <time>2021-06-12T03:54:01Z</time>
      </trkpt>
      <trkpt lat="46.15326" lon="-1.20394">
        <ele>15</ele>
        <time>2021-06-12T03:54:45Z</time>
      </trkpt>
      <trkpt lat="46.15536" lon="-1.20263">
        <ele>14</ele>
        <time>2021-06-12T03:55:26Z</time>
      </trkpt>
      <trkpt lat="46.1554" lon="-1.20252">
        <ele>14</ele>
        <time>2021-06-12T03:55:27Z</time>
      </trkpt>
      <trkpt lat="46.15668" lon="-1.20171">
        <ele>14</ele>
        <time>2021-06-12T03:55:52Z</time>
      </trkpt>
      <trkpt lat="46.15676" lon="-1.20177">
        <ele>14</ele>
        <time>2021-06-12T03:55:54Z</time>
      </trkpt>
      <trkpt lat="46.15681" lon="-1.20177">
        <ele>14</ele>
        <time>2021-06-12T03:55:54Z</time>
      </trkpt>
      <trkpt lat="46.15696" lon="-1.20173">
        <ele>14</ele>
        <time>2021-06-12T03:55:57Z</time>
      </trkpt>
      <trkpt lat="46.15727" lon="-1.20172">
        <ele>14</ele>
        <time>2021-06-12T03:56:03Z</time>
      </trkpt>
      <trkpt lat="46.15738" lon="-1.20168">
        <ele>14</ele>
        <time>2021-06-12T03:56:05Z</time>
      </trkpt>
      <trkpt lat="46.15795" lon="-1.20118">
        <ele>13</ele>
        <time>2021-06-12T03:56:17Z</time>
      </trkpt>
      <trkpt lat="46.15803" lon="-1.20114">
        <ele>13</ele>
        <time>2021-06-12T03:56:18Z</time>
      </trkpt>
      <trkpt lat="46.15811" lon="-1.20113">
        <ele>12</ele>
        <time>2021-06-12T03:56:19Z</time>
      </trkpt>
      <trkpt lat="46.15826" lon="-1.20123">
        <ele>13</ele>
        <time>2021-06-12T03:56:22Z</time>
      </trkpt>
      <trkpt lat="46.15845" lon="-1.20153">
        <ele>13</ele>
        <time>2021-06-12T03:56:27Z</time>
      </trkpt>
      <trkpt lat="46.15864" lon="-1.20176">
        <ele>12</ele>
        <time>2021-06-12T03:56:32Z</time>
      </trkpt>
      <trkpt lat="46.15878" lon="-1.20185">
        <ele>12</ele>
        <time>2021-06-12T03:56:35Z</time>
      </trkpt>
      <trkpt lat="46.15889" lon="-1.2019">
        <ele>12</ele>
        <time>2021-06-12T03:56:37Z</time>
      </trkpt>
      <trkpt lat="46.1592" lon="-1.20192">
        <ele>11</ele>
        <time>2021-06-12T03:56:42Z</time>
      </trkpt>
      <trkpt lat="46.15934" lon="-1.20092">
        <ele>13</ele>
        <time>2021-06-12T03:56:55Z</time>
      </trkpt>
      <trkpt lat="46.15932" lon="-1.20155">
        <ele>12</ele>
        <time>2021-06-12T03:57:02Z</time>
      </trkpt>
      <trkpt lat="46.15929" lon="-1.202">
        <ele>11</ele>
        <time>2021-06-12T03:57:08Z</time>
      </trkpt>
      <trkpt lat="46.15927" lon="-1.20221">
        <ele>11</ele>
        <time>2021-06-12T03:57:11Z</time>
      </trkpt>
      <trkpt lat="46.15936" lon="-1.20222">
        <ele>10</ele>
        <time>2021-06-12T03:57:12Z</time>
      </trkpt>
      <trkpt lat="46.15936" lon="-1.20222">
        <ele>10</ele>
        <time>2021-06-12T03:57:12Z</time>
      </trkpt>
      <trkpt lat="46.15942" lon="-1.20224">
        <ele>10</ele>
        <time>2021-06-12T03:57:13Z</time>
      </trkpt>
      <trkpt lat="46.15958" lon="-1.20234">
        <ele>10</ele>
        <time>2021-06-12T03:57:16Z</time>
      </trkpt>
      <trkpt lat="46.15998" lon="-1.20241">
        <ele>9</ele>
        <time>2021-06-12T03:57:24Z</time>
      </trkpt>
      <trkpt lat="46.16017" lon="-1.20245">
        <ele>10</ele>
        <time>2021-06-12T03:57:27Z</time>
      </trkpt>
      <trkpt lat="46.16039" lon="-1.20248">
        <ele>10</ele>
        <time>2021-06-12T03:57:31Z</time>
      </trkpt>
      <trkpt lat="46.16053" lon="-1.2025">
        <ele>11</ele>
        <time>2021-06-12T03:57:34Z</time>
      </trkpt>
      <trkpt lat="46.16107" lon="-1.20255">
        <ele>11</ele>
        <time>2021-06-12T03:57:43Z</time>
      </trkpt>
      <trkpt lat="46.16129" lon="-1.20259">
        <ele>11</ele>
        <time>2021-06-12T03:57:47Z</time>
      </trkpt>
      <trkpt lat="46.16136" lon="-1.20257">
        <ele>11</ele>
        <time>2021-06-12T03:57:48Z</time>
      </trkpt>
      <trkpt lat="46.1614" lon="-1.20256">
        <ele>11</ele>
        <time>2021-06-12T03:57:49Z</time>
      </trkpt>
      <trkpt lat="46.16147" lon="-1.20256">
        <ele>11</ele>
        <time>2021-06-12T03:57:50Z</time>
      </trkpt>
      <trkpt lat="46.16151" lon="-1.20257">
        <ele>10</ele>
        <time>2021-06-12T03:57:51Z</time>
      </trkpt>
      <trkpt lat="46.16155" lon="-1.2025">
        <ele>10</ele>
        <time>2021-06-12T03:57:52Z</time>
      </trkpt>
      <trkpt lat="46.16159" lon="-1.20247">
        <ele>10</ele>
        <time>2021-06-12T03:57:53Z</time>
      </trkpt>
      <trkpt lat="46.16173" lon="-1.20227">
        <ele>10</ele>
        <time>2021-06-12T03:57:56Z</time>
      </trkpt>
      <trkpt lat="46.16176" lon="-1.20225">
        <ele>10</ele>
        <time>2021-06-12T03:57:57Z</time>
      </trkpt>
      <trkpt lat="46.1644" lon="-1.1979">
        <ele>14</ele>
        <time>2021-06-12T03:59:08Z</time>
      </trkpt>
      <trkpt lat="46.16452" lon="-1.19763">
        <ele>14</ele>
        <time>2021-06-12T03:59:12Z</time>
      </trkpt>
      <trkpt lat="46.16448" lon="-1.1976">
        <ele>14</ele>
        <time>2021-06-12T03:59:13Z</time>
      </trkpt>
      <trkpt lat="46.1646" lon="-1.19738">
        <ele>13</ele>
        <time>2021-06-12T03:59:17Z</time>
      </trkpt>
      <trkpt lat="46.16465" lon="-1.19689">
        <ele>12</ele>
        <time>2021-06-12T03:59:23Z</time>
      </trkpt>
      <trkpt lat="46.1646" lon="-1.19738">
        <ele>13</ele>
        <time>2021-06-12T03:59:29Z</time>
      </trkpt>
      <trkpt lat="46.16448" lon="-1.1976">
        <ele>14</ele>
        <time>2021-06-12T03:59:32Z</time>
      </trkpt>
      <trkpt lat="46.16452" lon="-1.19763">
        <ele>14</ele>
        <time>2021-06-12T03:59:33Z</time>
      </trkpt>
      <trkpt lat="46.16469" lon="-1.19741">
        <ele>13</ele>
        <time>2021-06-12T03:59:37Z</time>
      </trkpt>
      <trkpt lat="46.16478" lon="-1.19738">
        <ele>13</ele>
        <time>2021-06-12T03:59:39Z</time>
      </trkpt>
      <trkpt lat="46.16537" lon="-1.19642">
        <ele>11</ele>
        <time>2021-06-12T03:59:55Z</time>
      </trkpt>
      <trkpt lat="46.16563" lon="-1.19607">
        <ele>10</ele>
        <time>2021-06-12T04:00:01Z</time>
      </trkpt>
      <trkpt lat="46.16582" lon="-1.19591">
        <ele>10</ele>
        <time>2021-06-12T04:00:05Z</time>
      </trkpt>
      <trkpt lat="46.16586" lon="-1.19583">
        <ele>10</ele>
        <time>2021-06-12T04:00:06Z</time>
      </trkpt>
      <trkpt lat="46.16601" lon="-1.19569">
        <ele>10</ele>
        <time>2021-06-12T04:00:09Z</time>
      </trkpt>
      <trkpt lat="46.166" lon="-1.19562">
        <ele>10</ele>
        <time>2021-06-12T04:00:10Z</time>
      </trkpt>
      <trkpt lat="46.16586" lon="-1.1953">
        <ele>9</ele>
        <time>2021-06-12T04:00:15Z</time>
      </trkpt>
      <trkpt lat="46.16595" lon="-1.19522">
        <ele>9</ele>
        <time>2021-06-12T04:00:17Z</time>
      </trkpt>
      <trkpt lat="46.16593" lon="-1.19495">
        <ele>9</ele>
        <time>2021-06-12T04:00:20Z</time>
      </trkpt>
      <trkpt lat="46.16616" lon="-1.1948">
        <ele>9</ele>
        <time>2021-06-12T04:00:24Z</time>
      </trkpt>
      <trkpt lat="46.16595" lon="-1.19408">
        <ele>9</ele>
        <time>2021-06-12T04:00:34Z</time>
      </trkpt>
      <trkpt lat="46.16601" lon="-1.19355">
        <ele>8</ele>
        <time>2021-06-12T04:00:41Z</time>
      </trkpt>
      <trkpt lat="46.16663" lon="-1.19328">
        <ele>7</ele>
        <time>2021-06-12T04:00:52Z</time>
      </trkpt>
      <trkpt lat="46.16703" lon="-1.19504">
        <ele>11</ele>
        <time>2021-06-12T04:01:15Z</time>
      </trkpt>
      <trkpt lat="46.16726" lon="-1.19506">
        <ele>11</ele>
        <time>2021-06-12T04:01:19Z</time>
      </trkpt>
      <trkpt lat="46.16867" lon="-1.19515">
        <ele>13</ele>
        <time>2021-06-12T04:01:44Z</time>
      </trkpt>
      <trkpt lat="46.16866" lon="-1.19502">
        <ele>13</ele>
        <time>2021-06-12T04:01:46Z</time>
      </trkpt>
      <trkpt lat="46.16856" lon="-1.19484">
        <ele>12</ele>
        <time>2021-06-12T04:01:49Z</time>
      </trkpt>
      <trkpt lat="46.16871" lon="-1.19471">
        <ele>13</ele>
        <time>2021-06-12T04:01:52Z</time>
      </trkpt>
      <trkpt lat="46.16856" lon="-1.19484">
        <ele>12</ele>
        <time>2021-06-12T04:01:55Z</time>
      </trkpt>
      <trkpt lat="46.16866" lon="-1.19502">
        <ele>13</ele>
        <time>2021-06-12T04:01:58Z</time>
      </trkpt>
      <trkpt lat="46.16867" lon="-1.19515">
        <ele>13</ele>
        <time>2021-06-12T04:01:59Z</time>
      </trkpt>
      <trkpt lat="46.16882" lon="-1.19516">
        <ele>13</ele>
        <time>2021-06-12T04:02:02Z</time>
      </trkpt>
      <trkpt lat="46.16975" lon="-1.19524">
        <ele>14</ele>
        <time>2021-06-12T04:02:19Z</time>
      </trkpt>
      <trkpt lat="46.17" lon="-1.19526">
        <ele>15</ele>
        <time>2021-06-12T04:02:23Z</time>
      </trkpt>
      <trkpt lat="46.17024" lon="-1.1953">
        <ele>15</ele>
        <time>2021-06-12T04:02:27Z</time>
      </trkpt>
      <trkpt lat="46.17029" lon="-1.19528">
        <ele>15</ele>
        <time>2021-06-12T04:02:28Z</time>
      </trkpt>
      <trkpt lat="46.17036" lon="-1.19529">
        <ele>15</ele>
        <time>2021-06-12T04:02:30Z</time>
      </trkpt>
      <trkpt lat="46.17044" lon="-1.19528">
        <ele>15</ele>
        <time>2021-06-12T04:02:31Z</time>
      </trkpt>
      <trkpt lat="46.17044" lon="-1.19526">
        <ele>15</ele>
        <time>2021-06-12T04:02:31Z</time>
      </trkpt>
      <trkpt lat="46.17046" lon="-1.19523">
        <ele>15</ele>
        <time>2021-06-12T04:02:32Z</time>
      </trkpt>
      <trkpt lat="46.17049" lon="-1.1952">
        <ele>14</ele>
        <time>2021-06-12T04:02:32Z</time>
      </trkpt>
      <trkpt lat="46.17052" lon="-1.19518">
        <ele>14</ele>
        <time>2021-06-12T04:02:33Z</time>
      </trkpt>
      <trkpt lat="46.17055" lon="-1.19518">
        <ele>14</ele>
        <time>2021-06-12T04:02:33Z</time>
      </trkpt>
      <trkpt lat="46.17062" lon="-1.19525">
        <ele>15</ele>
        <time>2021-06-12T04:02:35Z</time>
      </trkpt>
      <trkpt lat="46.17063" lon="-1.19529">
        <ele>15</ele>
        <time>2021-06-12T04:02:36Z</time>
      </trkpt>
      <trkpt lat="46.17068" lon="-1.19534">
        <ele>15</ele>
        <time>2021-06-12T04:02:37Z</time>
      </trkpt>
      <trkpt lat="46.1708" lon="-1.19544">
        <ele>15</ele>
        <time>2021-06-12T04:02:39Z</time>
      </trkpt>
      <trkpt lat="46.17092" lon="-1.19551">
        <ele>15</ele>
        <time>2021-06-12T04:02:41Z</time>
      </trkpt>
      <trkpt lat="46.17104" lon="-1.19563">
        <ele>15</ele>
        <time>2021-06-12T04:02:44Z</time>
      </trkpt>
      <trkpt lat="46.17113" lon="-1.19566">
        <ele>15</ele>
        <time>2021-06-12T04:02:46Z</time>
      </trkpt>
      <trkpt lat="46.17153" lon="-1.1958">
        <ele>13</ele>
        <time>2021-06-12T04:02:53Z</time>
      </trkpt>
      <trkpt lat="46.17168" lon="-1.19587">
        <ele>13</ele>
        <time>2021-06-12T04:02:56Z</time>
      </trkpt>
      <trkpt lat="46.17227" lon="-1.19608">
        <ele>12</ele>
        <time>2021-06-12T04:03:07Z</time>
      </trkpt>
      <trkpt lat="46.1724" lon="-1.19613">
        <ele>12</ele>
        <time>2021-06-12T04:03:09Z</time>
      </trkpt>
      <trkpt lat="46.17243" lon="-1.19621">
        <ele>12</ele>
        <time>2021-06-12T04:03:10Z</time>
      </trkpt>
      <trkpt lat="46.17272" lon="-1.19635">
        <ele>12</ele>
        <time>2021-06-12T04:03:16Z</time>
      </trkpt>
      <trkpt lat="46.17276" lon="-1.19667">
        <ele>12</ele>
        <time>2021-06-12T04:03:20Z</time>
      </trkpt>
      <trkpt lat="46.17278" lon="-1.19677">
        <ele>12</ele>
        <time>2021-06-12T04:03:21Z</time>
      </trkpt>
      <trkpt lat="46.17323" lon="-1.19746">
        <ele>12</ele>
        <time>2021-06-12T04:03:32Z</time>
      </trkpt>
      <trkpt lat="46.17335" lon="-1.19754">
        <ele>12</ele>
        <time>2021-06-12T04:03:35Z</time>
      </trkpt>
      <trkpt lat="46.17378" lon="-1.19769">
        <ele>11</ele>
        <time>2021-06-12T04:03:43Z</time>
      </trkpt>
      <trkpt lat="46.17395" lon="-1.19772">
        <ele>11</ele>
        <time>2021-06-12T04:03:46Z</time>
      </trkpt>
      <trkpt lat="46.174" lon="-1.19777">
        <ele>11</ele>
        <time>2021-06-12T04:03:47Z</time>
      </trkpt>
      <trkpt lat="46.17413" lon="-1.19815">
        <ele>11</ele>
        <time>2021-06-12T04:03:52Z</time>
      </trkpt>
      <trkpt lat="46.17426" lon="-1.19831">
        <ele>11</ele>
        <time>2021-06-12T04:03:55Z</time>
      </trkpt>
      <trkpt lat="46.17427" lon="-1.19836">
        <ele>11</ele>
        <time>2021-06-12T04:03:56Z</time>
      </trkpt>
      <trkpt lat="46.17419" lon="-1.19858">
        <ele>11</ele>
        <time>2021-06-12T04:03:59Z</time>
      </trkpt>
      <trkpt lat="46.17382" lon="-1.19948">
        <ele>10</ele>
        <time>2021-06-12T04:04:12Z</time>
      </trkpt>
      <trkpt lat="46.17382" lon="-1.19953">
        <ele>10</ele>
        <time>2021-06-12T04:04:12Z</time>
      </trkpt>
      <trkpt lat="46.17388" lon="-1.19987">
        <ele>10</ele>
        <time>2021-06-12T04:04:17Z</time>
      </trkpt>
      <trkpt lat="46.17391" lon="-1.20015">
        <ele>9</ele>
        <time>2021-06-12T04:04:20Z</time>
      </trkpt>
      <trkpt lat="46.17385" lon="-1.20043">
        <ele>9</ele>
        <time>2021-06-12T04:04:24Z</time>
      </trkpt>
      <trkpt lat="46.17383" lon="-1.20061">
        <ele>9</ele>
        <time>2021-06-12T04:04:26Z</time>
      </trkpt>
      <trkpt lat="46.17384" lon="-1.2007">
        <ele>9</ele>
        <time>2021-06-12T04:04:27Z</time>
      </trkpt>
      <trkpt lat="46.17413" lon="-1.20162">
        <ele>8</ele>
        <time>2021-06-12T04:04:40Z</time>
      </trkpt>
      <trkpt lat="46.17424" lon="-1.20215">
        <ele>7</ele>
        <time>2021-06-12T04:04:46Z</time>
      </trkpt>
      <trkpt lat="46.17431" lon="-1.20268">
        <ele>7</ele>
        <time>2021-06-12T04:04:53Z</time>
      </trkpt>
      <trkpt lat="46.17475" lon="-1.20433">
        <ele>10</ele>
        <time>2021-06-12T04:05:15Z</time>
      </trkpt>
      <trkpt lat="46.17518" lon="-1.20587">
        <ele>11</ele>
        <time>2021-06-12T04:05:35Z</time>
      </trkpt>
      <trkpt lat="46.1752" lon="-1.20618">
        <ele>11</ele>
        <time>2021-06-12T04:05:39Z</time>
      </trkpt>
      <trkpt lat="46.17529" lon="-1.20655">
        <ele>12</ele>
        <time>2021-06-12T04:05:44Z</time>
      </trkpt>
      <trkpt lat="46.17553" lon="-1.20713">
        <ele>12</ele>
        <time>2021-06-12T04:05:52Z</time>
      </trkpt>
      <trkpt lat="46.17563" lon="-1.20779">
        <ele>12</ele>
        <time>2021-06-12T04:06:01Z</time>
      </trkpt>
      <trkpt lat="46.1757" lon="-1.20816">
        <ele>11</ele>
        <time>2021-06-12T04:06:05Z</time>
      </trkpt>
      <trkpt lat="46.176" lon="-1.20889">
        <ele>12</ele>
        <time>2021-06-12T04:06:16Z</time>
      </trkpt>
      <trkpt lat="46.17628" lon="-1.20945">
        <ele>14</ele>
        <time>2021-06-12T04:06:24Z</time>
      </trkpt>
      <trkpt lat="46.17687" lon="-1.21035">
        <ele>15</ele>
        <time>2021-06-12T04:06:40Z</time>
      </trkpt>
      <trkpt lat="46.17719" lon="-1.21094">
        <ele>15</ele>
        <time>2021-06-12T04:06:49Z</time>
      </trkpt>
      <trkpt lat="46.17744" lon="-1.2113">
        <ele>14</ele>
        <time>2021-06-12T04:06:55Z</time>
      </trkpt>
      <trkpt lat="46.17766" lon="-1.21173">
        <ele>14</ele>
        <time>2021-06-12T04:07:02Z</time>
      </trkpt>
      <trkpt lat="46.17766" lon="-1.21178">
        <ele>14</ele>
        <time>2021-06-12T04:07:02Z</time>
      </trkpt>
      <trkpt lat="46.17764" lon="-1.21181">
        <ele>14</ele>
        <time>2021-06-12T04:07:03Z</time>
      </trkpt>
      <trkpt lat="46.17743" lon="-1.21175">
        <ele>14</ele>
        <time>2021-06-12T04:07:07Z</time>
      </trkpt>
      <trkpt lat="46.1774" lon="-1.21177">
        <ele>14</ele>
        <time>2021-06-12T04:07:07Z</time>
      </trkpt>
      <trkpt lat="46.17739" lon="-1.21188">
        <ele>14</ele>
        <time>2021-06-12T04:07:09Z</time>
      </trkpt>
      <trkpt lat="46.17736" lon="-1.2119">
        <ele>15</ele>
        <time>2021-06-12T04:07:09Z</time>
      </trkpt>
      <trkpt lat="46.17678" lon="-1.21175">
        <ele>16</ele>
        <time>2021-06-12T04:07:20Z</time>
      </trkpt>
      <trkpt lat="46.17665" lon="-1.21176">
        <ele>16</ele>
        <time>2021-06-12T04:07:22Z</time>
      </trkpt>
      <trkpt lat="46.17661" lon="-1.21178">
        <ele>16</ele>
        <time>2021-06-12T04:07:23Z</time>
      </trkpt>
      <trkpt lat="46.1765" lon="-1.2119">
        <ele>15</ele>
        <time>2021-06-12T04:07:25Z</time>
      </trkpt>
      <trkpt lat="46.17636" lon="-1.21228">
        <ele>13</ele>
        <time>2021-06-12T04:07:30Z</time>
      </trkpt>
      <trkpt lat="46.17632" lon="-1.21245">
        <ele>13</ele>
        <time>2021-06-12T04:07:33Z</time>
      </trkpt>
      <trkpt lat="46.17608" lon="-1.21487">
        <ele>11</ele>
        <time>2021-06-12T04:08:03Z</time>
      </trkpt>
      <trkpt lat="46.17606" lon="-1.2155">
        <ele>10</ele>
        <time>2021-06-12T04:08:11Z</time>
      </trkpt>
      <trkpt lat="46.17609" lon="-1.21571">
        <ele>10</ele>
        <time>2021-06-12T04:08:13Z</time>
      </trkpt>
      <trkpt lat="46.17642" lon="-1.21678">
        <ele>11</ele>
        <time>2021-06-12T04:08:28Z</time>
      </trkpt>
      <trkpt lat="46.1766" lon="-1.21743">
        <ele>10</ele>
        <time>2021-06-12T04:08:36Z</time>
      </trkpt>
      <trkpt lat="46.17662" lon="-1.21746">
        <ele>10</ele>
        <time>2021-06-12T04:08:37Z</time>
      </trkpt>
      <trkpt lat="46.17668" lon="-1.21753">
        <ele>10</ele>
        <time>2021-06-12T04:08:38Z</time>
      </trkpt>
      <trkpt lat="46.17679" lon="-1.21782">
        <ele>10</ele>
        <time>2021-06-12T04:08:42Z</time>
      </trkpt>
      <trkpt lat="46.17707" lon="-1.21885">
        <ele>6</ele>
        <time>2021-06-12T04:08:56Z</time>
      </trkpt>
      <trkpt lat="46.17738" lon="-1.21885">
        <ele>6</ele>
        <time>2021-06-12T04:09:01Z</time>
      </trkpt>
      <trkpt lat="46.17749" lon="-1.21881">
        <ele>6</ele>
        <time>2021-06-12T04:09:03Z</time>
      </trkpt>
      <trkpt lat="46.1777" lon="-1.2187">
        <ele>6</ele>
        <time>2021-06-12T04:09:07Z</time>
      </trkpt>
      <trkpt lat="46.1779" lon="-1.21853">
        <ele>7</ele>
        <time>2021-06-12T04:09:11Z</time>
      </trkpt>
      <trkpt lat="46.17828" lon="-1.21841">
        <ele>7</ele>
        <time>2021-06-12T04:09:18Z</time>
      </trkpt>
      <trkpt lat="46.17897" lon="-1.21825">
        <ele>7</ele>
        <time>2021-06-12T04:09:31Z</time>
      </trkpt>
      <trkpt lat="46.17913" lon="-1.21818">
        <ele>8</ele>
        <time>2021-06-12T04:09:34Z</time>
      </trkpt>
      <trkpt lat="46.17972" lon="-1.21785">
        <ele>9</ele>
        <time>2021-06-12T04:09:45Z</time>
      </trkpt>
      <trkpt lat="46.17988" lon="-1.21774">
        <ele>10</ele>
        <time>2021-06-12T04:09:48Z</time>
      </trkpt>
      <trkpt lat="46.18007" lon="-1.21755">
        <ele>12</ele>
        <time>2021-06-12T04:09:52Z</time>
      </trkpt>
      <trkpt lat="46.18029" lon="-1.21716">
        <ele>11</ele>
        <time>2021-06-12T04:09:59Z</time>
      </trkpt>
      <trkpt lat="46.18046" lon="-1.21695">
        <ele>12</ele>
        <time>2021-06-12T04:10:03Z</time>
      </trkpt>
      <trkpt lat="46.18054" lon="-1.21688">
        <ele>12</ele>
        <time>2021-06-12T04:10:04Z</time>
      </trkpt>
      <trkpt lat="46.18064" lon="-1.21681">
        <ele>12</ele>
        <time>2021-06-12T04:10:06Z</time>
      </trkpt>
      <trkpt lat="46.18078" lon="-1.21672">
        <ele>13</ele>
        <time>2021-06-12T04:10:09Z</time>
      </trkpt>
      <trkpt lat="46.18131" lon="-1.21627">
        <ele>10</ele>
        <time>2021-06-12T04:10:20Z</time>
      </trkpt>
      <trkpt lat="46.18138" lon="-1.21625">
        <ele>9</ele>
        <time>2021-06-12T04:10:21Z</time>
      </trkpt>
      <trkpt lat="46.18153" lon="-1.21624">
        <ele>8</ele>
        <time>2021-06-12T04:10:24Z</time>
      </trkpt>
      <trkpt lat="46.18191" lon="-1.21597">
        <ele>8</ele>
        <time>2021-06-12T04:10:31Z</time>
      </trkpt>
      <trkpt lat="46.18198" lon="-1.2159">
        <ele>8</ele>
        <time>2021-06-12T04:10:33Z</time>
      </trkpt>
      <trkpt lat="46.18208" lon="-1.21575">
        <ele>8</ele>
        <time>2021-06-12T04:10:35Z</time>
      </trkpt>
      <trkpt lat="46.18226" lon="-1.21521">
        <ele>9</ele>
        <time>2021-06-12T04:10:43Z</time>
      </trkpt>
      <trkpt lat="46.1823" lon="-1.21514">
        <ele>9</ele>
        <time>2021-06-12T04:10:44Z</time>
      </trkpt>
      <trkpt lat="46.18234" lon="-1.21509">
        <ele>9</ele>
        <time>2021-06-12T04:10:45Z</time>
      </trkpt>
      <trkpt lat="46.18267" lon="-1.21485">
        <ele>7</ele>
        <time>2021-06-12T04:10:51Z</time>
      </trkpt>
      <trkpt lat="46.18271" lon="-1.2148">
        <ele>7</ele>
        <time>2021-06-12T04:10:52Z</time>
      </trkpt>
      <trkpt lat="46.1828" lon="-1.21461">
        <ele>7</ele>
        <time>2021-06-12T04:10:55Z</time>
      </trkpt>
      <trkpt lat="46.18294" lon="-1.21397">
        <ele>8</ele>
        <time>2021-06-12T04:11:03Z</time>
      </trkpt>
      <trkpt lat="46.18301" lon="-1.21383">
        <ele>7</ele>
        <time>2021-06-12T04:11:06Z</time>
      </trkpt>
      <trkpt lat="46.18322" lon="-1.21353">
        <ele>6</ele>
        <time>2021-06-12T04:11:11Z</time>
      </trkpt>
      <trkpt lat="46.18326" lon="-1.21344">
        <ele>5</ele>
        <time>2021-06-12T04:11:12Z</time>
      </trkpt>
      <trkpt lat="46.18328" lon="-1.21334">
        <ele>6</ele>
        <time>2021-06-12T04:11:13Z</time>
      </trkpt>
      <trkpt lat="46.18351" lon="-1.21117">
        <ele>7</ele>
        <time>2021-06-12T04:11:40Z</time>
      </trkpt>
      <trkpt lat="46.18363" lon="-1.21035">
        <ele>6</ele>
        <time>2021-06-12T04:11:51Z</time>
      </trkpt>
      <trkpt lat="46.18372" lon="-1.21011">
        <ele>6</ele>
        <time>2021-06-12T04:11:54Z</time>
      </trkpt>
      <trkpt lat="46.18385" lon="-1.20976">
        <ele>5</ele>
        <time>2021-06-12T04:11:59Z</time>
      </trkpt>
      <trkpt lat="46.18394" lon="-1.20958">
        <ele>4</ele>
        <time>2021-06-12T04:12:02Z</time>
      </trkpt>
      <trkpt lat="46.18396" lon="-1.20946">
        <ele>5</ele>
        <time>2021-06-12T04:12:03Z</time>
      </trkpt>
      <trkpt lat="46.18395" lon="-1.20937">
        <ele>5</ele>
        <time>2021-06-12T04:12:04Z</time>
      </trkpt>
      <trkpt lat="46.18391" lon="-1.2093">
        <ele>5</ele>
        <time>2021-06-12T04:12:06Z</time>
      </trkpt>
      <trkpt lat="46.18389" lon="-1.20909">
        <ele>6</ele>
        <time>2021-06-12T04:12:08Z</time>
      </trkpt>
      <trkpt lat="46.18382" lon="-1.20899">
        <ele>6</ele>
        <time>2021-06-12T04:12:10Z</time>
      </trkpt>
      <trkpt lat="46.18378" lon="-1.20897">
        <ele>7</ele>
        <time>2021-06-12T04:12:11Z</time>
      </trkpt>
      <trkpt lat="46.18364" lon="-1.20908">
        <ele>9</ele>
        <time>2021-06-12T04:12:13Z</time>
      </trkpt>
      <trkpt lat="46.18358" lon="-1.20895">
        <ele>9</ele>
        <time>2021-06-12T04:12:15Z</time>
      </trkpt>
      <trkpt lat="46.18357" lon="-1.20885">
        <ele>9</ele>
        <time>2021-06-12T04:12:17Z</time>
      </trkpt>
      <trkpt lat="46.18359" lon="-1.20874">
        <ele>8</ele>
        <time>2021-06-12T04:12:18Z</time>
      </trkpt>
      <trkpt lat="46.18366" lon="-1.20858">
        <ele>7</ele>
        <time>2021-06-12T04:12:20Z</time>
      </trkpt>
      <trkpt lat="46.18381" lon="-1.20775">
        <ele>6</ele>
        <time>2021-06-12T04:12:31Z</time>
      </trkpt>
      <trkpt lat="46.1839" lon="-1.20733">
        <ele>6</ele>
        <time>2021-06-12T04:12:36Z</time>
      </trkpt>
      <trkpt lat="46.18397" lon="-1.20713">
        <ele>6</ele>
        <time>2021-06-12T04:12:39Z</time>
      </trkpt>
      <trkpt lat="46.18406" lon="-1.20692">
        <ele>5</ele>
        <time>2021-06-12T04:12:42Z</time>
      </trkpt>
      <trkpt lat="46.18453" lon="-1.20613">
        <ele>4</ele>
        <time>2021-06-12T04:12:55Z</time>
      </trkpt>
      <trkpt lat="46.18473" lon="-1.20593">
        <ele>4</ele>
        <time>2021-06-12T04:12:59Z</time>
      </trkpt>
      <trkpt lat="46.18502" lon="-1.20554">
        <ele>3</ele>
        <time>2021-06-12T04:13:06Z</time>
      </trkpt>
      <trkpt lat="46.18533" lon="-1.20504">
        <ele>4</ele>
        <time>2021-06-12T04:13:15Z</time>
      </trkpt>
      <trkpt lat="46.18541" lon="-1.20497">
        <ele>4</ele>
        <time>2021-06-12T04:13:16Z</time>
      </trkpt>
      <trkpt lat="46.18555" lon="-1.20485">
        <ele>3</ele>
        <time>2021-06-12T04:13:19Z</time>
      </trkpt>
      <trkpt lat="46.18569" lon="-1.20477">
        <ele>2</ele>
        <time>2021-06-12T04:13:22Z</time>
      </trkpt>
      <trkpt lat="46.18648" lon="-1.20407">
        <ele>2</ele>
        <time>2021-06-12T04:13:38Z</time>
      </trkpt>
      <trkpt lat="46.18693" lon="-1.20362">
        <ele>2</ele>
        <time>2021-06-12T04:13:48Z</time>
      </trkpt>
      <trkpt lat="46.18748" lon="-1.20332">
        <ele>1</ele>
        <time>2021-06-12T04:13:59Z</time>
      </trkpt>
      <trkpt lat="46.18758" lon="-1.20327">
        <ele>1</ele>
        <time>2021-06-12T04:14:00Z</time>
      </trkpt>
      <trkpt lat="46.18886" lon="-1.20232">
        <ele>3.3</ele>
        <time>2021-06-12T04:14:26Z</time>
      </trkpt>
      <trkpt lat="46.18758" lon="-1.20327">
        <ele>1</ele>
        <time>2021-06-12T04:14:52Z</time>
      </trkpt>
      <trkpt lat="46.18748" lon="-1.20332">
        <ele>1</ele>
        <time>2021-06-12T04:14:54Z</time>
      </trkpt>
      <trkpt lat="46.18753" lon="-1.20296">
        <ele>1</ele>
        <time>2021-06-12T04:14:58Z</time>
      </trkpt>
      <trkpt lat="46.18756" lon="-1.20299">
        <ele>1</ele>
        <time>2021-06-12T04:14:59Z</time>
      </trkpt>
      <trkpt lat="46.18769" lon="-1.20299">
        <ele>1</ele>
        <time>2021-06-12T04:15:01Z</time>
      </trkpt>
      <trkpt lat="46.1881" lon="-1.2027">
        <ele>1</ele>
        <time>2021-06-12T04:15:09Z</time>
      </trkpt>
      <trkpt lat="46.18822" lon="-1.20266">
        <ele>1</ele>
        <time>2021-06-12T04:15:11Z</time>
      </trkpt>
      <trkpt lat="46.19045" lon="-1.20097">
        <ele>4.1</ele>
        <time>2021-06-12T04:15:56Z</time>
      </trkpt>
      <trkpt lat="46.19078" lon="-1.20076">
        <ele>4.5</ele>
        <time>2021-06-12T04:16:03Z</time>
      </trkpt>
      <trkpt lat="46.19205" lon="-1.19998">
        <ele>4.4</ele>
        <time>2021-06-12T04:16:27Z</time>
      </trkpt>
      <trkpt lat="46.19216" lon="-1.19977">
        <ele>4.1</ele>
        <time>2021-06-12T04:16:30Z</time>
      </trkpt>
      <trkpt lat="46.19222" lon="-1.19985">
        <ele>4.5</ele>
        <time>2021-06-12T04:16:32Z</time>
      </trkpt>
      <trkpt lat="46.19245" lon="-1.19969">
        <ele>3.9</ele>
        <time>2021-06-12T04:16:36Z</time>
      </trkpt>
      <trkpt lat="46.19281" lon="-1.19953">
        <ele>2</ele>
        <time>2021-06-12T04:16:43Z</time>
      </trkpt>
      <trkpt lat="46.19314" lon="-1.19944">
        <ele>1</ele>
        <time>2021-06-12T04:16:49Z</time>
      </trkpt>
      <trkpt lat="46.19375" lon="-1.19919">
        <ele>1</ele>
        <time>2021-06-12T04:17:00Z</time>
      </trkpt>
      <trkpt lat="46.19465" lon="-1.1989">
        <ele>3</ele>
        <time>2021-06-12T04:17:17Z</time>
      </trkpt>
      <trkpt lat="46.1947" lon="-1.19897">
        <ele>3</ele>
        <time>2021-06-12T04:17:18Z</time>
      </trkpt>
      <trkpt lat="46.19478" lon="-1.19899">
        <ele>2</ele>
        <time>2021-06-12T04:17:19Z</time>
      </trkpt>
      <trkpt lat="46.19538" lon="-1.19895">
        <ele>3</ele>
        <time>2021-06-12T04:17:30Z</time>
      </trkpt>
      <trkpt lat="46.19548" lon="-1.19897">
        <ele>4</ele>
        <time>2021-06-12T04:17:32Z</time>
      </trkpt>
      <trkpt lat="46.1956" lon="-1.19903">
        <ele>3</ele>
        <time>2021-06-12T04:17:34Z</time>
      </trkpt>
      <trkpt lat="46.19616" lon="-1.19946">
        <ele>2</ele>
        <time>2021-06-12T04:17:45Z</time>
      </trkpt>
      <trkpt lat="46.19631" lon="-1.19954">
        <ele>2</ele>
        <time>2021-06-12T04:17:48Z</time>
      </trkpt>
      <trkpt lat="46.19642" lon="-1.19956">
        <ele>2</ele>
        <time>2021-06-12T04:17:50Z</time>
      </trkpt>
      <trkpt lat="46.19652" lon="-1.19955">
        <ele>2</ele>
        <time>2021-06-12T04:17:52Z</time>
      </trkpt>
      <trkpt lat="46.19676" lon="-1.1994">
        <ele>3</ele>
        <time>2021-06-12T04:17:57Z</time>
      </trkpt>
      <trkpt lat="46.1973" lon="-1.19903">
        <ele>4</ele>
        <time>2021-06-12T04:18:07Z</time>
      </trkpt>
      <trkpt lat="46.1974" lon="-1.19902">
        <ele>4</ele>
        <time>2021-06-12T04:18:09Z</time>
      </trkpt>
      <trkpt lat="46.19778" lon="-1.19923">
        <ele>2</ele>
        <time>2021-06-12T04:18:16Z</time>
      </trkpt>
      <trkpt lat="46.1978" lon="-1.19931">
        <ele>2</ele>
        <time>2021-06-12T04:18:17Z</time>
      </trkpt>
      <trkpt lat="46.19801" lon="-1.19931">
        <ele>2</ele>
        <time>2021-06-12T04:18:21Z</time>
      </trkpt>
      <trkpt lat="46.19859" lon="-1.19925">
        <ele>2</ele>
        <time>2021-06-12T04:18:31Z</time>
      </trkpt>
      <trkpt lat="46.19874" lon="-1.19925">
        <ele>1</ele>
        <time>2021-06-12T04:18:34Z</time>
      </trkpt>
      <trkpt lat="46.19956" lon="-1.19946">
        <ele>1</ele>
        <time>2021-06-12T04:18:49Z</time>
      </trkpt>
      <trkpt lat="46.19979" lon="-1.19957">
        <ele>1</ele>
        <time>2021-06-12T04:18:53Z</time>
      </trkpt>
      <trkpt lat="46.20013" lon="-1.19981">
        <ele>2</ele>
        <time>2021-06-12T04:19:00Z</time>
      </trkpt>
      <trkpt lat="46.20029" lon="-1.19997">
        <ele>1</ele>
        <time>2021-06-12T04:19:03Z</time>
      </trkpt>
      <trkpt lat="46.20045" lon="-1.20017">
        <ele>1</ele>
        <time>2021-06-12T04:19:07Z</time>
      </trkpt>
      <trkpt lat="46.20066" lon="-1.20051">
        <ele>1</ele>
        <time>2021-06-12T04:19:13Z</time>
      </trkpt>
      <trkpt lat="46.2007" lon="-1.20053">
        <ele>1</ele>
        <time>2021-06-12T04:19:14Z</time>
      </trkpt>
      <trkpt lat="46.20073" lon="-1.20054">
        <ele>1</ele>
        <time>2021-06-12T04:19:14Z</time>
      </trkpt>
      <trkpt lat="46.20086" lon="-1.20035">
        <ele>2</ele>
        <time>2021-06-12T04:19:17Z</time>
      </trkpt>
      <trkpt lat="46.20093" lon="-1.20034">
        <ele>1</ele>
        <time>2021-06-12T04:19:19Z</time>
      </trkpt>
      <trkpt lat="46.20133" lon="-1.20006">
        <ele>1</ele>
        <time>2021-06-12T04:19:27Z</time>
      </trkpt>
      <trkpt lat="46.20139" lon="-1.20004">
        <ele>1</ele>
        <time>2021-06-12T04:19:28Z</time>
      </trkpt>
      <trkpt lat="46.20147" lon="-1.20001">
        <ele>1</ele>
        <time>2021-06-12T04:19:29Z</time>
      </trkpt>
      <trkpt lat="46.20179" lon="-1.20002">
        <ele>1</ele>
        <time>2021-06-12T04:19:35Z</time>
      </trkpt>
      <trkpt lat="46.20201" lon="-1.20003">
        <ele>1</ele>
        <time>2021-06-12T04:19:39Z</time>
      </trkpt>
      <trkpt lat="46.20208" lon="-1.20007">
        <ele>1</ele>
        <time>2021-06-12T04:19:40Z</time>
      </trkpt>
      <trkpt lat="46.20216" lon="-1.20007">
        <ele>1</ele>
        <time>2021-06-12T04:19:42Z</time>
      </trkpt>
      <trkpt lat="46.20232" lon="-1.20055">
        <ele>1</ele>
        <time>2021-06-12T04:19:48Z</time>
      </trkpt>
      <trkpt lat="46.20226" lon="-1.20064">
        <ele>1</ele>
        <time>2021-06-12T04:19:50Z</time>
      </trkpt>
      <trkpt lat="46.20222" lon="-1.20078">
        <ele>1</ele>
        <time>2021-06-12T04:19:52Z</time>
      </trkpt>
      <trkpt lat="46.20213" lon="-1.20111">
        <ele>4</ele>
        <time>2021-06-12T04:19:56Z</time>
      </trkpt>
      <trkpt lat="46.20206" lon="-1.20139">
        <ele>4</ele>
        <time>2021-06-12T04:20:00Z</time>
      </trkpt>
      <trkpt lat="46.20206" lon="-1.20143">
        <ele>3.8</ele>
        <time>2021-06-12T04:20:00Z</time>
      </trkpt>
      <trkpt lat="46.20207" lon="-1.20144">
        <ele>3.8</ele>
        <time>2021-06-12T04:20:00Z</time>
      </trkpt>
      <trkpt lat="46.20193" lon="-1.2017">
        <ele>2</ele>
        <time>2021-06-12T04:20:04Z</time>
      </trkpt>
      <trkpt lat="46.2019" lon="-1.20208">
        <ele>2</ele>
        <time>2021-06-12T04:20:09Z</time>
      </trkpt>
      <trkpt lat="46.20191" lon="-1.20293">
        <ele>1</ele>
        <time>2021-06-12T04:20:19Z</time>
      </trkpt>
      <trkpt lat="46.20186" lon="-1.20311">
        <ele>1</ele>
        <time>2021-06-12T04:20:22Z</time>
      </trkpt>
      <trkpt lat="46.2018" lon="-1.20324">
        <ele>1</ele>
        <time>2021-06-12T04:20:24Z</time>
      </trkpt>
      <trkpt lat="46.20179" lon="-1.20336">
        <ele>1</ele>
        <time>2021-06-12T04:20:25Z</time>
      </trkpt>
      <trkpt lat="46.20164" lon="-1.20364">
        <ele>1</ele>
        <time>2021-06-12T04:20:30Z</time>
      </trkpt>
      <trkpt lat="46.20199" lon="-1.2039">
        <ele>1</ele>
        <time>2021-06-12T04:20:37Z</time>
      </trkpt>
      <trkpt lat="46.20219" lon="-1.20417">
        <ele>1</ele>
        <time>2021-06-12T04:20:42Z</time>
      </trkpt>
      <trkpt lat="46.20231" lon="-1.20437">
        <ele>1</ele>
        <time>2021-06-12T04:20:45Z</time>
      </trkpt>
      <trkpt lat="46.20237" lon="-1.20458">
        <ele>1</ele>
        <time>2021-06-12T04:20:48Z</time>
      </trkpt>
      <trkpt lat="46.2024" lon="-1.20502">
        <ele>2</ele>
        <time>2021-06-12T04:20:53Z</time>
      </trkpt>
      <trkpt lat="46.20238" lon="-1.20519">
        <ele>2</ele>
        <time>2021-06-12T04:20:55Z</time>
      </trkpt>
      <trkpt lat="46.20237" lon="-1.20543">
        <ele>2</ele>
        <time>2021-06-12T04:20:58Z</time>
      </trkpt>
      <trkpt lat="46.20236" lon="-1.20555">
        <ele>2</ele>
        <time>2021-06-12T04:21:00Z</time>
      </trkpt>
      <trkpt lat="46.20245" lon="-1.20568">
        <ele>2</ele>
        <time>2021-06-12T04:21:02Z</time>
      </trkpt>
      <trkpt lat="46.20263" lon="-1.20601">
        <ele>2</ele>
        <time>2021-06-12T04:21:07Z</time>
      </trkpt>
      <trkpt lat="46.2028" lon="-1.20596">
        <ele>2</ele>
        <time>2021-06-12T04:21:10Z</time>
      </trkpt>
      <trkpt lat="46.20298" lon="-1.20601">
        <ele>2</ele>
        <time>2021-06-12T04:21:13Z</time>
      </trkpt>
      <trkpt lat="46.20326" lon="-1.20596">
        <ele>2</ele>
        <time>2021-06-12T04:21:18Z</time>
      </trkpt>
      <trkpt lat="46.20345" lon="-1.20598">
        <ele>3</ele>
        <time>2021-06-12T04:21:22Z</time>
      </trkpt>
      <trkpt lat="46.20356" lon="-1.20606">
        <ele>3</ele>
        <time>2021-06-12T04:21:24Z</time>
      </trkpt>
      <trkpt lat="46.2037" lon="-1.20613">
        <ele>3</ele>
        <time>2021-06-12T04:21:27Z</time>
      </trkpt>
      <trkpt lat="46.20402" lon="-1.20619">
        <ele>3</ele>
        <time>2021-06-12T04:21:32Z</time>
      </trkpt>
      <trkpt lat="46.20415" lon="-1.20614">
        <ele>4</ele>
        <time>2021-06-12T04:21:35Z</time>
      </trkpt>
      <trkpt lat="46.20415" lon="-1.2059">
        <ele>5</ele>
        <time>2021-06-12T04:21:38Z</time>
      </trkpt>
      <trkpt lat="46.20422" lon="-1.20573">
        <ele>6</ele>
        <time>2021-06-12T04:21:40Z</time>
      </trkpt>
      <trkpt lat="46.20508" lon="-1.20424">
        <ele>7</ele>
        <time>2021-06-12T04:22:04Z</time>
      </trkpt>
      <trkpt lat="46.20577" lon="-1.20509">
        <ele>6</ele>
        <time>2021-06-12T04:22:20Z</time>
      </trkpt>
      <trkpt lat="46.2059" lon="-1.20509">
        <ele>5</ele>
        <time>2021-06-12T04:22:22Z</time>
      </trkpt>
      <trkpt lat="46.20707" lon="-1.20412">
        <ele>6</ele>
        <time>2021-06-12T04:22:46Z</time>
      </trkpt>
      <trkpt lat="46.20748" lon="-1.20373">
        <ele>5</ele>
        <time>2021-06-12T04:22:55Z</time>
      </trkpt>
      <trkpt lat="46.20833" lon="-1.20283">
        <ele>6</ele>
        <time>2021-06-12T04:23:14Z</time>
      </trkpt>
      <trkpt lat="46.20863" lon="-1.20255">
        <ele>6</ele>
        <time>2021-06-12T04:23:20Z</time>
      </trkpt>
      <trkpt lat="46.20914" lon="-1.20218">
        <ele>6</ele>
        <time>2021-06-12T04:23:30Z</time>
      </trkpt>
      <trkpt lat="46.20985" lon="-1.20175">
        <ele>5</ele>
        <time>2021-06-12T04:23:44Z</time>
      </trkpt>
      <trkpt lat="46.21031" lon="-1.20133">
        <ele>6</ele>
        <time>2021-06-12T04:23:54Z</time>
      </trkpt>
      <trkpt lat="46.21075" lon="-1.20099">
        <ele>7</ele>
        <time>2021-06-12T04:24:03Z</time>
      </trkpt>
      <trkpt lat="46.21148" lon="-1.20032">
        <ele>7</ele>
        <time>2021-06-12T04:24:18Z</time>
      </trkpt>
      <trkpt lat="46.21189" lon="-1.19978">
        <ele>8</ele>
        <time>2021-06-12T04:24:28Z</time>
      </trkpt>
      <trkpt lat="46.21222" lon="-1.1994">
        <ele>7</ele>
        <time>2021-06-12T04:24:36Z</time>
      </trkpt>
      <trkpt lat="46.2126" lon="-1.19902">
        <ele>6</ele>
        <time>2021-06-12T04:24:44Z</time>
      </trkpt>
      <trkpt lat="46.21269" lon="-1.1989">
        <ele>6</ele>
        <time>2021-06-12T04:24:46Z</time>
      </trkpt>
      <trkpt lat="46.21291" lon="-1.19821">
        <ele>7</ele>
        <time>2021-06-12T04:24:55Z</time>
      </trkpt>
      <trkpt lat="46.21291" lon="-1.19797">
        <ele>7</ele>
        <time>2021-06-12T04:24:58Z</time>
      </trkpt>
      <trkpt lat="46.21276" lon="-1.19765">
        <ele>10</ele>
        <time>2021-06-12T04:25:03Z</time>
      </trkpt>
      <trkpt lat="46.21276" lon="-1.19753">
        <ele>10</ele>
        <time>2021-06-12T04:25:04Z</time>
      </trkpt>
      <trkpt lat="46.21278" lon="-1.19744">
        <ele>10</ele>
        <time>2021-06-12T04:25:06Z</time>
      </trkpt>
      <trkpt lat="46.21321" lon="-1.19682">
        <ele>7</ele>
        <time>2021-06-12T04:25:16Z</time>
      </trkpt>
      <trkpt lat="46.21328" lon="-1.19668">
        <ele>6</ele>
        <time>2021-06-12T04:25:19Z</time>
      </trkpt>
      <trkpt lat="46.21334" lon="-1.19652">
        <ele>6</ele>
        <time>2021-06-12T04:25:21Z</time>
      </trkpt>
      <trkpt lat="46.21338" lon="-1.19603">
        <ele>8</ele>
        <time>2021-06-12T04:25:27Z</time>
      </trkpt>
      <trkpt lat="46.21341" lon="-1.19593">
        <ele>8</ele>
        <time>2021-06-12T04:25:28Z</time>
      </trkpt>
      <trkpt lat="46.21375" lon="-1.19529">
        <ele>6</ele>
        <time>2021-06-12T04:25:38Z</time>
      </trkpt>
      <trkpt lat="46.21406" lon="-1.19481">
        <ele>6</ele>
        <time>2021-06-12T04:25:46Z</time>
      </trkpt>
      <trkpt lat="46.21407" lon="-1.1947">
        <ele>6</ele>
        <time>2021-06-12T04:25:48Z</time>
      </trkpt>
      <trkpt lat="46.21407" lon="-1.19454">
        <ele>7</ele>
        <time>2021-06-12T04:25:50Z</time>
      </trkpt>
      <trkpt lat="46.21375" lon="-1.19386">
        <ele>10</ele>
        <time>2021-06-12T04:26:00Z</time>
      </trkpt>
      <trkpt lat="46.21381" lon="-1.19373">
        <ele>10</ele>
        <time>2021-06-12T04:26:02Z</time>
      </trkpt>
      <trkpt lat="46.21358" lon="-1.19261">
        <ele>12</ele>
        <time>2021-06-12T04:26:16Z</time>
      </trkpt>
      <trkpt lat="46.21381" lon="-1.19373">
        <ele>10</ele>
        <time>2021-06-12T04:26:30Z</time>
      </trkpt>
      <trkpt lat="46.21387" lon="-1.19372">
        <ele>10</ele>
        <time>2021-06-12T04:26:31Z</time>
      </trkpt>
      <trkpt lat="46.21392" lon="-1.19375">
        <ele>10</ele>
        <time>2021-06-12T04:26:32Z</time>
      </trkpt>
      <trkpt lat="46.21416" lon="-1.19423">
        <ele>8</ele>
        <time>2021-06-12T04:26:40Z</time>
      </trkpt>
      <trkpt lat="46.21421" lon="-1.19426">
        <ele>7</ele>
        <time>2021-06-12T04:26:41Z</time>
      </trkpt>
      <trkpt lat="46.21434" lon="-1.19427">
        <ele>6</ele>
        <time>2021-06-12T04:26:43Z</time>
      </trkpt>
      <trkpt lat="46.21447" lon="-1.19418">
        <ele>5</ele>
        <time>2021-06-12T04:26:46Z</time>
      </trkpt>
      <trkpt lat="46.21479" lon="-1.19364">
        <ele>5</ele>
        <time>2021-06-12T04:26:54Z</time>
      </trkpt>
      <trkpt lat="46.21511" lon="-1.19304">
        <ele>6</ele>
        <time>2021-06-12T04:27:04Z</time>
      </trkpt>
      <trkpt lat="46.2154" lon="-1.1923">
        <ele>6</ele>
        <time>2021-06-12T04:27:14Z</time>
      </trkpt>
      <trkpt lat="46.21557" lon="-1.19176">
        <ele>6</ele>
        <time>2021-06-12T04:27:21Z</time>
      </trkpt>
      <trkpt lat="46.21575" lon="-1.1909">
        <ele>6</ele>
        <time>2021-06-12T04:27:32Z</time>
      </trkpt>
      <trkpt lat="46.21595" lon="-1.18969">
        <ele>9</ele>
        <time>2021-06-12T04:27:48Z</time>
      </trkpt>
      <trkpt lat="46.21609" lon="-1.18921">
        <ele>8</ele>
        <time>2021-06-12T04:27:54Z</time>
      </trkpt>
      <trkpt lat="46.21644" lon="-1.18846">
        <ele>8</ele>
        <time>2021-06-12T04:28:05Z</time>
      </trkpt>
      <trkpt lat="46.21659" lon="-1.18827">
        <ele>8</ele>
        <time>2021-06-12T04:28:09Z</time>
      </trkpt>
      <trkpt lat="46.21712" lon="-1.18781">
        <ele>7</ele>
        <time>2021-06-12T04:28:20Z</time>
      </trkpt>
      <trkpt lat="46.21806" lon="-1.18677">
        <ele>6</ele>
        <time>2021-06-12T04:28:41Z</time>
      </trkpt>
      <trkpt lat="46.21886" lon="-1.18605">
        <ele>6</ele>
        <time>2021-06-12T04:28:58Z</time>
      </trkpt>
      <trkpt lat="46.21893" lon="-1.18592">
        <ele>6</ele>
        <time>2021-06-12T04:29:00Z</time>
      </trkpt>
      <trkpt lat="46.21895" lon="-1.18578">
        <ele>7</ele>
        <time>2021-06-12T04:29:02Z</time>
      </trkpt>
      <trkpt lat="46.21894" lon="-1.18572">
        <ele>7</ele>
        <time>2021-06-12T04:29:02Z</time>
      </trkpt>
      <trkpt lat="46.21853" lon="-1.18487">
        <ele>11</ele>
        <time>2021-06-12T04:29:15Z</time>
      </trkpt>
      <trkpt lat="46.21861" lon="-1.18478">
        <ele>11</ele>
        <time>2021-06-12T04:29:17Z</time>
      </trkpt>
      <trkpt lat="46.21871" lon="-1.18478">
        <ele>11</ele>
        <time>2021-06-12T04:29:19Z</time>
      </trkpt>
      <trkpt lat="46.21879" lon="-1.18482">
        <ele>11</ele>
        <time>2021-06-12T04:29:20Z</time>
      </trkpt>
      <trkpt lat="46.2191" lon="-1.18541">
        <ele>8</ele>
        <time>2021-06-12T04:29:29Z</time>
      </trkpt>
      <trkpt lat="46.21915" lon="-1.1855">
        <ele>7</ele>
        <time>2021-06-12T04:29:31Z</time>
      </trkpt>
      <trkpt lat="46.2192" lon="-1.18548">
        <ele>7</ele>
        <time>2021-06-12T04:29:32Z</time>
      </trkpt>
      <trkpt lat="46.21999" lon="-1.18476">
        <ele>5</ele>
        <time>2021-06-12T04:29:48Z</time>
      </trkpt>
      <trkpt lat="46.22031" lon="-1.18452">
        <ele>5</ele>
        <time>2021-06-12T04:29:55Z</time>
      </trkpt>
      <trkpt lat="46.22039" lon="-1.18443">
        <ele>5</ele>
        <time>2021-06-12T04:29:56Z</time>
      </trkpt>
      <trkpt lat="46.22106" lon="-1.18312">
        <ele>6</ele>
        <time>2021-06-12T04:30:16Z</time>
      </trkpt>
      <trkpt lat="46.22113" lon="-1.1829">
        <ele>6</ele>
        <time>2021-06-12T04:30:19Z</time>
      </trkpt>
      <trkpt lat="46.2212" lon="-1.18266">
        <ele>6</ele>
        <time>2021-06-12T04:30:23Z</time>
      </trkpt>
      <trkpt lat="46.22129" lon="-1.18219">
        <ele>5</ele>
        <time>2021-06-12T04:30:29Z</time>
      </trkpt>
      <trkpt lat="46.22135" lon="-1.18174">
        <ele>5</ele>
        <time>2021-06-12T04:30:34Z</time>
      </trkpt>
      <trkpt lat="46.2214" lon="-1.1805">
        <ele>4</ele>
        <time>2021-06-12T04:30:50Z</time>
      </trkpt>
      <trkpt lat="46.22139" lon="-1.17933">
        <ele>6</ele>
        <time>2021-06-12T04:31:04Z</time>
      </trkpt>
      <trkpt lat="46.2215" lon="-1.17861">
        <ele>6</ele>
        <time>2021-06-12T04:31:13Z</time>
      </trkpt>
      <trkpt lat="46.22151" lon="-1.17819">
        <ele>5</ele>
        <time>2021-06-12T04:31:18Z</time>
      </trkpt>
      <trkpt lat="46.2215" lon="-1.17634">
        <ele>4</ele>
        <time>2021-06-12T04:31:41Z</time>
      </trkpt>
      <trkpt lat="46.22156" lon="-1.17549">
        <ele>5</ele>
        <time>2021-06-12T04:31:52Z</time>
      </trkpt>
      <trkpt lat="46.22165" lon="-1.17484">
        <ele>5</ele>
        <time>2021-06-12T04:32:00Z</time>
      </trkpt>
      <trkpt lat="46.2217" lon="-1.17465">
        <ele>6</ele>
        <time>2021-06-12T04:32:02Z</time>
      </trkpt>
      <trkpt lat="46.22184" lon="-1.17434">
        <ele>5</ele>
        <time>2021-06-12T04:32:07Z</time>
      </trkpt>
      <trkpt lat="46.22188" lon="-1.17423">
        <ele>5</ele>
        <time>2021-06-12T04:32:08Z</time>
      </trkpt>
      <trkpt lat="46.22189" lon="-1.17397">
        <ele>6</ele>
        <time>2021-06-12T04:32:11Z</time>
      </trkpt>
      <trkpt lat="46.22192" lon="-1.17388">
        <ele>6</ele>
        <time>2021-06-12T04:32:13Z</time>
      </trkpt>
      <trkpt lat="46.22197" lon="-1.17377">
        <ele>6</ele>
        <time>2021-06-12T04:32:14Z</time>
      </trkpt>
      <trkpt lat="46.22214" lon="-1.17356">
        <ele>5</ele>
        <time>2021-06-12T04:32:18Z</time>
      </trkpt>
      <trkpt lat="46.22275" lon="-1.17264">
        <ele>4</ele>
        <time>2021-06-12T04:32:34Z</time>
      </trkpt>
      <trkpt lat="46.22301" lon="-1.1723">
        <ele>3</ele>
        <time>2021-06-12T04:32:40Z</time>
      </trkpt>
      <trkpt lat="46.2239" lon="-1.17068">
        <ele>2</ele>
        <time>2021-06-12T04:33:06Z</time>
      </trkpt>
      <trkpt lat="46.22418" lon="-1.17036">
        <ele>2</ele>
        <time>2021-06-12T04:33:12Z</time>
      </trkpt>
      <trkpt lat="46.22443" lon="-1.17031">
        <ele>2</ele>
        <time>2021-06-12T04:33:17Z</time>
      </trkpt>
      <trkpt lat="46.22455" lon="-1.17022">
        <ele>2</ele>
        <time>2021-06-12T04:33:19Z</time>
      </trkpt>
      <trkpt lat="46.22484" lon="-1.16991">
        <ele>1</ele>
        <time>2021-06-12T04:33:25Z</time>
      </trkpt>
      <trkpt lat="46.22547" lon="-1.16954">
        <ele>1</ele>
        <time>2021-06-12T04:33:37Z</time>
      </trkpt>
      <trkpt lat="46.22643" lon="-1.16908">
        <ele>1</ele>
        <time>2021-06-12T04:33:55Z</time>
      </trkpt>
      <trkpt lat="46.22657" lon="-1.16891">
        <ele>1</ele>
        <time>2021-06-12T04:33:59Z</time>
      </trkpt>
      <trkpt lat="46.22722" lon="-1.16793">
        <ele>1</ele>
        <time>2021-06-12T04:34:15Z</time>
      </trkpt>
      <trkpt lat="46.22771" lon="-1.16708">
        <ele>3</ele>
        <time>2021-06-12T04:34:29Z</time>
      </trkpt>
      <trkpt lat="46.22774" lon="-1.16697">
        <ele>3</ele>
        <time>2021-06-12T04:34:31Z</time>
      </trkpt>
      <trkpt lat="46.22773" lon="-1.16608">
        <ele>6</ele>
        <time>2021-06-12T04:34:41Z</time>
      </trkpt>
      <trkpt lat="46.22784" lon="-1.16612">
        <ele>5</ele>
        <time>2021-06-12T04:34:43Z</time>
      </trkpt>
      <trkpt lat="46.22792" lon="-1.16611">
        <ele>4</ele>
        <time>2021-06-12T04:34:45Z</time>
      </trkpt>
      <trkpt lat="46.2281" lon="-1.16596">
        <ele>4</ele>
        <time>2021-06-12T04:34:49Z</time>
      </trkpt>
      <trkpt lat="46.22823" lon="-1.16581">
        <ele>4</ele>
        <time>2021-06-12T04:34:52Z</time>
      </trkpt>
      <trkpt lat="46.22835" lon="-1.16564">
        <ele>4</ele>
        <time>2021-06-12T04:34:55Z</time>
      </trkpt>
      <trkpt lat="46.22842" lon="-1.16547">
        <ele>5</ele>
        <time>2021-06-12T04:34:57Z</time>
      </trkpt>
      <trkpt lat="46.22851" lon="-1.16512">
        <ele>6</ele>
        <time>2021-06-12T04:35:02Z</time>
      </trkpt>
      <trkpt lat="46.22879" lon="-1.16446">
        <ele>6</ele>
        <time>2021-06-12T04:35:11Z</time>
      </trkpt>
      <trkpt lat="46.22979" lon="-1.1629">
        <ele>5</ele>
        <time>2021-06-12T04:35:37Z</time>
      </trkpt>
      <trkpt lat="46.22994" lon="-1.16262">
        <ele>5</ele>
        <time>2021-06-12T04:35:42Z</time>
      </trkpt>
      <trkpt lat="46.23019" lon="-1.162">
        <ele>5</ele>
        <time>2021-06-12T04:35:50Z</time>
      </trkpt>
      <trkpt lat="46.23032" lon="-1.16177">
        <ele>5</ele>
        <time>2021-06-12T04:35:54Z</time>
      </trkpt>
      <trkpt lat="46.2312" lon="-1.16076">
        <ele>4</ele>
        <time>2021-06-12T04:36:14Z</time>
      </trkpt>
      <trkpt lat="46.23139" lon="-1.16061">
        <ele>5</ele>
        <time>2021-06-12T04:36:18Z</time>
      </trkpt>
      <trkpt lat="46.23146" lon="-1.16062">
        <ele>5</ele>
        <time>2021-06-12T04:36:19Z</time>
      </trkpt>
      <trkpt lat="46.23161" lon="-1.16073">
        <ele>4</ele>
        <time>2021-06-12T04:36:22Z</time>
      </trkpt>
      <trkpt lat="46.23169" lon="-1.16074">
        <ele>4</ele>
        <time>2021-06-12T04:36:24Z</time>
      </trkpt>
      <trkpt lat="46.23184" lon="-1.16069">
        <ele>4</ele>
        <time>2021-06-12T04:36:26Z</time>
      </trkpt>
      <trkpt lat="46.23253" lon="-1.16032">
        <ele>5</ele>
        <time>2021-06-12T04:36:39Z</time>
      </trkpt>
      <trkpt lat="46.23289" lon="-1.16003">
        <ele>5</ele>
        <time>2021-06-12T04:36:47Z</time>
      </trkpt>
      <trkpt lat="46.23299" lon="-1.15992">
        <ele>5</ele>
        <time>2021-06-12T04:36:49Z</time>
      </trkpt>
      <trkpt lat="46.23349" lon="-1.15968">
        <ele>4</ele>
        <time>2021-06-12T04:36:58Z</time>
      </trkpt>
      <trkpt lat="46.23352" lon="-1.15963">
        <ele>5</ele>
        <time>2021-06-12T04:36:59Z</time>
      </trkpt>
      <trkpt lat="46.23372" lon="-1.15958">
        <ele>4</ele>
        <time>2021-06-12T04:37:03Z</time>
      </trkpt>
      <trkpt lat="46.23388" lon="-1.1595">
        <ele>4</ele>
        <time>2021-06-12T04:37:06Z</time>
      </trkpt>
      <trkpt lat="46.23407" lon="-1.15947">
        <ele>4</ele>
        <time>2021-06-12T04:37:09Z</time>
      </trkpt>
      <trkpt lat="46.23426" lon="-1.15942">
        <ele>3</ele>
        <time>2021-06-12T04:37:13Z</time>
      </trkpt>
      <trkpt lat="46.23439" lon="-1.15936">
        <ele>3</ele>
        <time>2021-06-12T04:37:15Z</time>
      </trkpt>
      <trkpt lat="46.23465" lon="-1.15916">
        <ele>3</ele>
        <time>2021-06-12T04:37:20Z</time>
      </trkpt>
      <trkpt lat="46.23525" lon="-1.15853">
        <ele>1</ele>
        <time>2021-06-12T04:37:34Z</time>
      </trkpt>
      <trkpt lat="46.23529" lon="-1.15843">
        <ele>2</ele>
        <time>2021-06-12T04:37:35Z</time>
      </trkpt>
      <trkpt lat="46.23551" lon="-1.15788">
        <ele>2</ele>
        <time>2021-06-12T04:37:43Z</time>
      </trkpt>
      <trkpt lat="46.23565" lon="-1.15725">
        <ele>2</ele>
        <time>2021-06-12T04:37:51Z</time>
      </trkpt>
      <trkpt lat="46.23589" lon="-1.15643">
        <ele>2</ele>
        <time>2021-06-12T04:38:02Z</time>
      </trkpt>
      <trkpt lat="46.23591" lon="-1.15629">
        <ele>2</ele>
        <time>2021-06-12T04:38:04Z</time>
      </trkpt>
      <trkpt lat="46.23592" lon="-1.1558">
        <ele>3</ele>
        <time>2021-06-12T04:38:10Z</time>
      </trkpt>
      <trkpt lat="46.2359" lon="-1.15528">
        <ele>4</ele>
        <time>2021-06-12T04:38:16Z</time>
      </trkpt>
      <trkpt lat="46.23602" lon="-1.15531">
        <ele>3</ele>
        <time>2021-06-12T04:38:18Z</time>
      </trkpt>
      <trkpt lat="46.23612" lon="-1.1553">
        <ele>3</ele>
        <time>2021-06-12T04:38:20Z</time>
      </trkpt>
      <trkpt lat="46.2362" lon="-1.15519">
        <ele>3</ele>
        <time>2021-06-12T04:38:22Z</time>
      </trkpt>
      <trkpt lat="46.23621" lon="-1.15503">
        <ele>3</ele>
        <time>2021-06-12T04:38:24Z</time>
      </trkpt>
      <trkpt lat="46.2364" lon="-1.1541">
        <ele>1</ele>
        <time>2021-06-12T04:38:36Z</time>
      </trkpt>
      <trkpt lat="46.23655" lon="-1.15346">
        <ele>1</ele>
        <time>2021-06-12T04:38:44Z</time>
      </trkpt>
      <trkpt lat="46.23668" lon="-1.15304">
        <ele>2</ele>
        <time>2021-06-12T04:38:50Z</time>
      </trkpt>
      <trkpt lat="46.23672" lon="-1.15276">
        <ele>3</ele>
        <time>2021-06-12T04:38:53Z</time>
      </trkpt>
      <trkpt lat="46.23686" lon="-1.15231">
        <ele>3</ele>
        <time>2021-06-12T04:39:00Z</time>
      </trkpt>
      <trkpt lat="46.23695" lon="-1.15187">
        <ele>3</ele>
        <time>2021-06-12T04:39:05Z</time>
      </trkpt>
      <trkpt lat="46.23723" lon="-1.15033">
        <ele>3</ele>
        <time>2021-06-12T04:39:25Z</time>
      </trkpt>
      <trkpt lat="46.23729" lon="-1.15013">
        <ele>3</ele>
        <time>2021-06-12T04:39:27Z</time>
      </trkpt>
      <trkpt lat="46.2374" lon="-1.14985">
        <ele>3</ele>
        <time>2021-06-12T04:39:31Z</time>
      </trkpt>
      <trkpt lat="46.2379" lon="-1.14906">
        <ele>2</ele>
        <time>2021-06-12T04:39:45Z</time>
      </trkpt>
      <trkpt lat="46.23836" lon="-1.14842">
        <ele>2</ele>
        <time>2021-06-12T04:39:56Z</time>
      </trkpt>
      <trkpt lat="46.23887" lon="-1.14799">
        <ele>3</ele>
        <time>2021-06-12T04:40:06Z</time>
      </trkpt>
      <trkpt lat="46.23938" lon="-1.14737">
        <ele>4</ele>
        <time>2021-06-12T04:40:18Z</time>
      </trkpt>
      <trkpt lat="46.2395" lon="-1.14729">
        <ele>4</ele>
        <time>2021-06-12T04:40:21Z</time>
      </trkpt>
      <trkpt lat="46.2397" lon="-1.14725">
        <ele>3</ele>
        <time>2021-06-12T04:40:24Z</time>
      </trkpt>
      <trkpt lat="46.24034" lon="-1.1467">
        <ele>3</ele>
        <time>2021-06-12T04:40:37Z</time>
      </trkpt>
      <trkpt lat="46.24053" lon="-1.14662">
        <ele>3</ele>
        <time>2021-06-12T04:40:41Z</time>
      </trkpt>
      <trkpt lat="46.24079" lon="-1.14647">
        <ele>4</ele>
        <time>2021-06-12T04:40:46Z</time>
      </trkpt>
      <trkpt lat="46.24102" lon="-1.14628">
        <ele>3</ele>
        <time>2021-06-12T04:40:51Z</time>
      </trkpt>
      <trkpt lat="46.24104" lon="-1.14624">
        <ele>3</ele>
        <time>2021-06-12T04:40:51Z</time>
      </trkpt>
      <trkpt lat="46.24102" lon="-1.14614">
        <ele>3</ele>
        <time>2021-06-12T04:40:53Z</time>
      </trkpt>
      <trkpt lat="46.24086" lon="-1.14581">
        <ele>5</ele>
        <time>2021-06-12T04:40:58Z</time>
      </trkpt>
      <trkpt lat="46.24081" lon="-1.14568">
        <ele>5</ele>
        <time>2021-06-12T04:40:59Z</time>
      </trkpt>
      <trkpt lat="46.24076" lon="-1.14493">
        <ele>5</ele>
        <time>2021-06-12T04:41:09Z</time>
      </trkpt>
      <trkpt lat="46.24075" lon="-1.14406">
        <ele>3</ele>
        <time>2021-06-12T04:41:19Z</time>
      </trkpt>
      <trkpt lat="46.24101" lon="-1.14418">
        <ele>3</ele>
        <time>2021-06-12T04:41:24Z</time>
      </trkpt>
      <trkpt lat="46.24111" lon="-1.14419">
        <ele>3</ele>
        <time>2021-06-12T04:41:26Z</time>
      </trkpt>
      <trkpt lat="46.2413" lon="-1.14416">
        <ele>2</ele>
        <time>2021-06-12T04:41:29Z</time>
      </trkpt>
      <trkpt lat="46.24145" lon="-1.14409">
        <ele>2</ele>
        <time>2021-06-12T04:41:32Z</time>
      </trkpt>
      <trkpt lat="46.24177" lon="-1.14382">
        <ele>2</ele>
        <time>2021-06-12T04:41:39Z</time>
      </trkpt>
      <trkpt lat="46.24224" lon="-1.14318">
        <ele>3</ele>
        <time>2021-06-12T04:41:50Z</time>
      </trkpt>
      <trkpt lat="46.24255" lon="-1.14299">
        <ele>3</ele>
        <time>2021-06-12T04:41:56Z</time>
      </trkpt>
      <trkpt lat="46.24301" lon="-1.1428">
        <ele>3</ele>
        <time>2021-06-12T04:42:05Z</time>
      </trkpt>
      <trkpt lat="46.24578" lon="-1.14191">
        <ele>1</ele>
        <time>2021-06-12T04:42:55Z</time>
      </trkpt>
      <trkpt lat="46.24916" lon="-1.14106">
        <ele>1</ele>
        <time>2021-06-12T04:43:56Z</time>
      </trkpt>
      <trkpt lat="46.24989" lon="-1.14096">
        <ele>1</ele>
        <time>2021-06-12T04:44:09Z</time>
      </trkpt>
      <trkpt lat="46.25084" lon="-1.14092">
        <ele>2</ele>
        <time>2021-06-12T04:44:26Z</time>
      </trkpt>
      <trkpt lat="46.25139" lon="-1.14094">
        <ele>2</ele>
        <time>2021-06-12T04:44:36Z</time>
      </trkpt>
      <trkpt lat="46.25173" lon="-1.14089">
        <ele>2</ele>
        <time>2021-06-12T04:44:42Z</time>
      </trkpt>
      <trkpt lat="46.25174" lon="-1.14079">
        <ele>2</ele>
        <time>2021-06-12T04:44:43Z</time>
      </trkpt>
      <trkpt lat="46.25183" lon="-1.14053">
        <ele>3</ele>
        <time>2021-06-12T04:44:47Z</time>
      </trkpt>
      <trkpt lat="46.25194" lon="-1.14043">
        <ele>4</ele>
        <time>2021-06-12T04:44:49Z</time>
      </trkpt>
      <trkpt lat="46.25222" lon="-1.1404">
        <ele>5</ele>
        <time>2021-06-12T04:44:54Z</time>
      </trkpt>
      <trkpt lat="46.25257" lon="-1.1403">
        <ele>5</ele>
        <time>2021-06-12T04:45:01Z</time>
      </trkpt>
      <trkpt lat="46.25279" lon="-1.14027">
        <ele>5</ele>
        <time>2021-06-12T04:45:05Z</time>
      </trkpt>
      <trkpt lat="46.253" lon="-1.14028">
        <ele>4</ele>
        <time>2021-06-12T04:45:08Z</time>
      </trkpt>
      <trkpt lat="46.25305" lon="-1.14025">
        <ele>4</ele>
        <time>2021-06-12T04:45:09Z</time>
      </trkpt>
      <trkpt lat="46.25308" lon="-1.14018">
        <ele>4</ele>
        <time>2021-06-12T04:45:10Z</time>
      </trkpt>
      <trkpt lat="46.25311" lon="-1.13992">
        <ele>5</ele>
        <time>2021-06-12T04:45:14Z</time>
      </trkpt>
      <trkpt lat="46.25322" lon="-1.13945">
        <ele>6</ele>
        <time>2021-06-12T04:45:20Z</time>
      </trkpt>
      <trkpt lat="46.2535" lon="-1.13868">
        <ele>7</ele>
        <time>2021-06-12T04:45:30Z</time>
      </trkpt>
      <trkpt lat="46.25364" lon="-1.13853">
        <ele>6</ele>
        <time>2021-06-12T04:45:33Z</time>
      </trkpt>
      <trkpt lat="46.25379" lon="-1.13733">
        <ele>6</ele>
        <time>2021-06-12T04:45:48Z</time>
      </trkpt>
      <trkpt lat="46.25375" lon="-1.13687">
        <ele>6</ele>
        <time>2021-06-12T04:45:54Z</time>
      </trkpt>
      <trkpt lat="46.25375" lon="-1.13673">
        <ele>6</ele>
        <time>2021-06-12T04:45:56Z</time>
      </trkpt>
      <trkpt lat="46.25376" lon="-1.13664">
        <ele>5</ele>
        <time>2021-06-12T04:45:57Z</time>
      </trkpt>
      <trkpt lat="46.25382" lon="-1.1365">
        <ele>5</ele>
        <time>2021-06-12T04:45:59Z</time>
      </trkpt>
      <trkpt lat="46.25386" lon="-1.1363">
        <ele>5</ele>
        <time>2021-06-12T04:46:02Z</time>
      </trkpt>
      <trkpt lat="46.25387" lon="-1.13609">
        <ele>5</ele>
        <time>2021-06-12T04:46:04Z</time>
      </trkpt>
      <trkpt lat="46.25384" lon="-1.1357">
        <ele>5</ele>
        <time>2021-06-12T04:46:09Z</time>
      </trkpt>
      <trkpt lat="46.25385" lon="-1.13522">
        <ele>5</ele>
        <time>2021-06-12T04:46:15Z</time>
      </trkpt>
      <trkpt lat="46.25392" lon="-1.13451">
        <ele>4</ele>
        <time>2021-06-12T04:46:24Z</time>
      </trkpt>
      <trkpt lat="46.2539" lon="-1.13434">
        <ele>5</ele>
        <time>2021-06-12T04:46:26Z</time>
      </trkpt>
      <trkpt lat="46.2538" lon="-1.13393">
        <ele>5</ele>
        <time>2021-06-12T04:46:31Z</time>
      </trkpt>
      <trkpt lat="46.25365" lon="-1.13344">
        <ele>6</ele>
        <time>2021-06-12T04:46:38Z</time>
      </trkpt>
      <trkpt lat="46.25349" lon="-1.13315">
        <ele>7</ele>
        <time>2021-06-12T04:46:42Z</time>
      </trkpt>
      <trkpt lat="46.25346" lon="-1.13304">
        <ele>7</ele>
        <time>2021-06-12T04:46:44Z</time>
      </trkpt>
      <trkpt lat="46.25349" lon="-1.13303">
        <ele>7</ele>
        <time>2021-06-12T04:46:44Z</time>
      </trkpt>
      <trkpt lat="46.25363" lon="-1.13321">
        <ele>6</ele>
        <time>2021-06-12T04:46:48Z</time>
      </trkpt>
      <trkpt lat="46.25365" lon="-1.13319">
        <ele>6</ele>
        <time>2021-06-12T04:46:48Z</time>
      </trkpt>
      <trkpt lat="46.25367" lon="-1.13295">
        <ele>6</ele>
        <time>2021-06-12T04:46:51Z</time>
      </trkpt>
      <trkpt lat="46.25374" lon="-1.13289">
        <ele>5</ele>
        <time>2021-06-12T04:46:53Z</time>
      </trkpt>
      <trkpt lat="46.25367" lon="-1.13255">
        <ele>5</ele>
        <time>2021-06-12T04:46:57Z</time>
      </trkpt>
      <trkpt lat="46.25345" lon="-1.13127">
        <ele>5</ele>
        <time>2021-06-12T04:47:13Z</time>
      </trkpt>
      <trkpt lat="46.25341" lon="-1.13087">
        <ele>6</ele>
        <time>2021-06-12T04:47:18Z</time>
      </trkpt>
      <trkpt lat="46.25339" lon="-1.13049">
        <ele>6</ele>
        <time>2021-06-12T04:47:23Z</time>
      </trkpt>
      <trkpt lat="46.25342" lon="-1.12936">
        <ele>7</ele>
        <time>2021-06-12T04:47:37Z</time>
      </trkpt>
      <trkpt lat="46.25349" lon="-1.12855">
        <ele>7</ele>
        <time>2021-06-12T04:47:47Z</time>
      </trkpt>
      <trkpt lat="46.25353" lon="-1.12785">
        <ele>7</ele>
        <time>2021-06-12T04:47:55Z</time>
      </trkpt>
      <trkpt lat="46.25353" lon="-1.12702">
        <ele>7</ele>
        <time>2021-06-12T04:48:06Z</time>
      </trkpt>
      <trkpt lat="46.25351" lon="-1.1264">
        <ele>7</ele>
        <time>2021-06-12T04:48:13Z</time>
      </trkpt>
      <trkpt lat="46.25347" lon="-1.12593">
        <ele>7</ele>
        <time>2021-06-12T04:48:19Z</time>
      </trkpt>
      <trkpt lat="46.2523" lon="-1.1175">
        <ele>4</ele>
        <time>2021-06-12T04:50:05Z</time>
      </trkpt>
      <trkpt lat="46.25217" lon="-1.11711">
        <ele>4</ele>
        <time>2021-06-12T04:50:10Z</time>
      </trkpt>
      <trkpt lat="46.25277" lon="-1.11627">
        <ele>3</ele>
        <time>2021-06-12T04:50:25Z</time>
      </trkpt>
      <trkpt lat="46.25294" lon="-1.11608">
        <ele>3</ele>
        <time>2021-06-12T04:50:29Z</time>
      </trkpt>
      <trkpt lat="46.25346" lon="-1.11541">
        <ele>3</ele>
        <time>2021-06-12T04:50:41Z</time>
      </trkpt>
      <trkpt lat="46.25378" lon="-1.11488">
        <ele>3</ele>
        <time>2021-06-12T04:50:50Z</time>
      </trkpt>
      <trkpt lat="46.25387" lon="-1.11467">
        <ele>3</ele>
        <time>2021-06-12T04:50:53Z</time>
      </trkpt>
      <trkpt lat="46.25387" lon="-1.11417">
        <ele>3</ele>
        <time>2021-06-12T04:50:59Z</time>
      </trkpt>
      <trkpt lat="46.25374" lon="-1.11327">
        <ele>2</ele>
        <time>2021-06-12T04:51:10Z</time>
      </trkpt>
      <trkpt lat="46.26165" lon="-1.10738">
        <ele>2</ele>
        <time>2021-06-12T04:53:49Z</time>
      </trkpt>
      <trkpt lat="46.26177" lon="-1.10729">
        <ele>2</ele>
        <time>2021-06-12T04:53:51Z</time>
      </trkpt>
      <trkpt lat="46.26208" lon="-1.10705">
        <ele>1</ele>
        <time>2021-06-12T04:53:57Z</time>
      </trkpt>
      <trkpt lat="46.26223" lon="-1.10695">
        <ele>1</ele>
        <time>2021-06-12T04:54:00Z</time>
      </trkpt>
      <trkpt lat="46.2645" lon="-1.10526">
        <ele>2</ele>
        <time>2021-06-12T04:54:46Z</time>
      </trkpt>
      <trkpt lat="46.26476" lon="-1.10511">
        <ele>2</ele>
        <time>2021-06-12T04:54:51Z</time>
      </trkpt>
      <trkpt lat="46.26511" lon="-1.10501">
        <ele>2</ele>
        <time>2021-06-12T04:54:57Z</time>
      </trkpt>
      <trkpt lat="46.26531" lon="-1.10499">
        <ele>1</ele>
        <time>2021-06-12T04:55:01Z</time>
      </trkpt>
      <trkpt lat="46.26565" lon="-1.10503">
        <ele>2</ele>
        <time>2021-06-12T04:55:07Z</time>
      </trkpt>
      <trkpt lat="46.26796" lon="-1.10554">
        <ele>1</ele>
        <time>2021-06-12T04:55:48Z</time>
      </trkpt>
      <trkpt lat="46.26815" lon="-1.10559">
        <ele>1</ele>
        <time>2021-06-12T04:55:52Z</time>
      </trkpt>
      <trkpt lat="46.26884" lon="-1.10574">
        <ele>2</ele>
        <time>2021-06-12T04:56:04Z</time>
      </trkpt>
      <trkpt lat="46.26904" lon="-1.10579">
        <ele>2</ele>
        <time>2021-06-12T04:56:08Z</time>
      </trkpt>
      <trkpt lat="46.27804" lon="-1.10778">
        <ele>2</ele>
        <time>2021-06-12T04:58:50Z</time>
      </trkpt>
      <trkpt lat="46.27823" lon="-1.1078">
        <ele>2</ele>
        <time>2021-06-12T04:58:53Z</time>
      </trkpt>
      <trkpt lat="46.27842" lon="-1.10778">
        <ele>1</ele>
        <time>2021-06-12T04:58:57Z</time>
      </trkpt>
      <trkpt lat="46.27863" lon="-1.10772">
        <ele>1</ele>
        <time>2021-06-12T04:59:00Z</time>
      </trkpt>
      <trkpt lat="46.28033" lon="-1.10714">
        <ele>1</ele>
        <time>2021-06-12T04:59:31Z</time>
      </trkpt>
      <trkpt lat="46.28103" lon="-1.10694">
        <ele>1</ele>
        <time>2021-06-12T04:59:44Z</time>
      </trkpt>
      <trkpt lat="46.28114" lon="-1.10692">
        <ele>1</ele>
        <time>2021-06-12T04:59:46Z</time>
      </trkpt>
      <trkpt lat="46.28259" lon="-1.10655">
        <ele>1</ele>
        <time>2021-06-12T05:00:12Z</time>
      </trkpt>
      <trkpt lat="46.2849" lon="-1.10597">
        <ele>1</ele>
        <time>2021-06-12T05:00:54Z</time>
      </trkpt>
      <trkpt lat="46.28703" lon="-1.10543">
        <ele>2</ele>
        <time>2021-06-12T05:01:32Z</time>
      </trkpt>
      <trkpt lat="46.28726" lon="-1.10536">
        <ele>3</ele>
        <time>2021-06-12T05:01:37Z</time>
      </trkpt>
      <trkpt lat="46.28746" lon="-1.10527">
        <ele>4</ele>
        <time>2021-06-12T05:01:40Z</time>
      </trkpt>
      <trkpt lat="46.2875" lon="-1.10525">
        <ele>4</ele>
        <time>2021-06-12T05:01:41Z</time>
      </trkpt>
      <trkpt lat="46.28764" lon="-1.10517">
        <ele>4</ele>
        <time>2021-06-12T05:01:44Z</time>
      </trkpt>
      <trkpt lat="46.2878" lon="-1.10505">
        <ele>4</ele>
        <time>2021-06-12T05:01:47Z</time>
      </trkpt>
      <trkpt lat="46.28832" lon="-1.10461">
        <ele>3</ele>
        <time>2021-06-12T05:01:58Z</time>
      </trkpt>
      <trkpt lat="46.28836" lon="-1.10457">
        <ele>4</ele>
        <time>2021-06-12T05:01:59Z</time>
      </trkpt>
      <trkpt lat="46.28869" lon="-1.10436">
        <ele>4</ele>
        <time>2021-06-12T05:02:05Z</time>
      </trkpt>
      <trkpt lat="46.28883" lon="-1.10432">
        <ele>4</ele>
        <time>2021-06-12T05:02:08Z</time>
      </trkpt>
      <trkpt lat="46.28899" lon="-1.10429">
        <ele>4</ele>
        <time>2021-06-12T05:02:10Z</time>
      </trkpt>
      <trkpt lat="46.28915" lon="-1.1043">
        <ele>4</ele>
        <time>2021-06-12T05:02:13Z</time>
      </trkpt>
      <trkpt lat="46.28943" lon="-1.10439">
        <ele>4</ele>
        <time>2021-06-12T05:02:18Z</time>
      </trkpt>
      <trkpt lat="46.29029" lon="-1.10481">
        <ele>3</ele>
        <time>2021-06-12T05:02:35Z</time>
      </trkpt>
      <trkpt lat="46.29063" lon="-1.10497">
        <ele>3</ele>
        <time>2021-06-12T05:02:41Z</time>
      </trkpt>
      <trkpt lat="46.29076" lon="-1.105">
        <ele>3</ele>
        <time>2021-06-12T05:02:43Z</time>
      </trkpt>
      <trkpt lat="46.29084" lon="-1.10499">
        <ele>3</ele>
        <time>2021-06-12T05:02:45Z</time>
      </trkpt>
      <trkpt lat="46.29085" lon="-1.10496">
        <ele>3</ele>
        <time>2021-06-12T05:02:45Z</time>
      </trkpt>
      <trkpt lat="46.29087" lon="-1.10492">
        <ele>3</ele>
        <time>2021-06-12T05:02:46Z</time>
      </trkpt>
      <trkpt lat="46.29089" lon="-1.10491">
        <ele>3</ele>
        <time>2021-06-12T05:02:46Z</time>
      </trkpt>
      <trkpt lat="46.29091" lon="-1.10491">
        <ele>3</ele>
        <time>2021-06-12T05:02:46Z</time>
      </trkpt>
      <trkpt lat="46.29092" lon="-1.10492">
        <ele>3</ele>
        <time>2021-06-12T05:02:47Z</time>
      </trkpt>
      <trkpt lat="46.29094" lon="-1.10494">
        <ele>3</ele>
        <time>2021-06-12T05:02:47Z</time>
      </trkpt>
      <trkpt lat="46.29098" lon="-1.10492">
        <ele>3</ele>
        <time>2021-06-12T05:02:48Z</time>
      </trkpt>
      <trkpt lat="46.29125" lon="-1.10487">
        <ele>4</ele>
        <time>2021-06-12T05:02:53Z</time>
      </trkpt>
      <trkpt lat="46.29142" lon="-1.10488">
        <ele>4</ele>
        <time>2021-06-12T05:02:56Z</time>
      </trkpt>
      <trkpt lat="46.29156" lon="-1.10491">
        <ele>4</ele>
        <time>2021-06-12T05:02:58Z</time>
      </trkpt>
      <trkpt lat="46.29168" lon="-1.10493">
        <ele>4</ele>
        <time>2021-06-12T05:03:00Z</time>
      </trkpt>
      <trkpt lat="46.29191" lon="-1.10496">
        <ele>4</ele>
        <time>2021-06-12T05:03:04Z</time>
      </trkpt>
      <trkpt lat="46.29199" lon="-1.10497">
        <ele>4</ele>
        <time>2021-06-12T05:03:06Z</time>
      </trkpt>
      <trkpt lat="46.29212" lon="-1.10501">
        <ele>5</ele>
        <time>2021-06-12T05:03:08Z</time>
      </trkpt>
      <trkpt lat="46.29219" lon="-1.10503">
        <ele>5</ele>
        <time>2021-06-12T05:03:10Z</time>
      </trkpt>
      <trkpt lat="46.29254" lon="-1.10515">
        <ele>5</ele>
        <time>2021-06-12T05:03:16Z</time>
      </trkpt>
      <trkpt lat="46.29284" lon="-1.10525">
        <ele>5</ele>
        <time>2021-06-12T05:03:21Z</time>
      </trkpt>
      <trkpt lat="46.29334" lon="-1.1055">
        <ele>4</ele>
        <time>2021-06-12T05:03:31Z</time>
      </trkpt>
      <trkpt lat="46.29384" lon="-1.1058">
        <ele>5</ele>
        <time>2021-06-12T05:03:40Z</time>
      </trkpt>
      <trkpt lat="46.29464" lon="-1.10631">
        <ele>5</ele>
        <time>2021-06-12T05:03:56Z</time>
      </trkpt>
      <trkpt lat="46.2951" lon="-1.10674">
        <ele>5</ele>
        <time>2021-06-12T05:04:06Z</time>
      </trkpt>
      <trkpt lat="46.29514" lon="-1.10661">
        <ele>5</ele>
        <time>2021-06-12T05:04:07Z</time>
      </trkpt>
      <trkpt lat="46.29547" lon="-1.10587">
        <ele>5</ele>
        <time>2021-06-12T05:04:18Z</time>
      </trkpt>
      <trkpt lat="46.29567" lon="-1.10539">
        <ele>4</ele>
        <time>2021-06-12T05:04:25Z</time>
      </trkpt>
      <trkpt lat="46.29589" lon="-1.10483">
        <ele>3</ele>
        <time>2021-06-12T05:04:33Z</time>
      </trkpt>
      <trkpt lat="46.29671" lon="-1.10523">
        <ele>2</ele>
        <time>2021-06-12T05:04:49Z</time>
      </trkpt>
      <trkpt lat="46.30123" lon="-1.10453">
        <ele>3</ele>
        <time>2021-06-12T05:06:09Z</time>
      </trkpt>
      <trkpt lat="46.3016" lon="-1.10445">
        <ele>3</ele>
        <time>2021-06-12T05:06:16Z</time>
      </trkpt>
      <trkpt lat="46.30209" lon="-1.1043">
        <ele>4</ele>
        <time>2021-06-12T05:06:25Z</time>
      </trkpt>
      <trkpt lat="46.30311" lon="-1.10392">
        <ele>5</ele>
        <time>2021-06-12T05:06:44Z</time>
      </trkpt>
      <trkpt lat="46.30292" lon="-1.10324">
        <ele>4</ele>
        <time>2021-06-12T05:06:53Z</time>
      </trkpt>
      <trkpt lat="46.30287" lon="-1.10279">
        <ele>5</ele>
        <time>2021-06-12T05:06:58Z</time>
      </trkpt>
      <trkpt lat="46.30287" lon="-1.10233">
        <ele>4</ele>
        <time>2021-06-12T05:07:04Z</time>
      </trkpt>
      <trkpt lat="46.30319" lon="-1.10071">
        <ele>5</ele>
        <time>2021-06-12T05:07:25Z</time>
      </trkpt>
      <trkpt lat="46.30328" lon="-1.09995">
        <ele>5</ele>
        <time>2021-06-12T05:07:34Z</time>
      </trkpt>
      <trkpt lat="46.30339" lon="-1.09965">
        <ele>5</ele>
        <time>2021-06-12T05:07:38Z</time>
      </trkpt>
      <trkpt lat="46.30351" lon="-1.09953">
        <ele>5</ele>
        <time>2021-06-12T05:07:41Z</time>
      </trkpt>
      <trkpt lat="46.3033" lon="-1.0989">
        <ele>5</ele>
        <time>2021-06-12T05:07:50Z</time>
      </trkpt>
      <trkpt lat="46.30253" lon="-1.09717">
        <ele>6</ele>
        <time>2021-06-12T05:08:15Z</time>
      </trkpt>
      <trkpt lat="46.30209" lon="-1.09639">
        <ele>6</ele>
        <time>2021-06-12T05:08:27Z</time>
      </trkpt>
      <trkpt lat="46.30177" lon="-1.09572">
        <ele>5</ele>
        <time>2021-06-12T05:08:37Z</time>
      </trkpt>
      <trkpt lat="46.30175" lon="-1.09567">
        <ele>5</ele>
        <time>2021-06-12T05:08:38Z</time>
      </trkpt>
      <trkpt lat="46.30466" lon="-1.09487">
        <ele>5</ele>
        <time>2021-06-12T05:09:31Z</time>
      </trkpt>
      <trkpt lat="46.30481" lon="-1.09478">
        <ele>5</ele>
        <time>2021-06-12T05:09:34Z</time>
      </trkpt>
      <trkpt lat="46.3049" lon="-1.09469">
        <ele>5</ele>
        <time>2021-06-12T05:09:35Z</time>
      </trkpt>
      <trkpt lat="46.30499" lon="-1.09452">
        <ele>5</ele>
        <time>2021-06-12T05:09:38Z</time>
      </trkpt>
      <trkpt lat="46.30504" lon="-1.09432">
        <ele>5</ele>
        <time>2021-06-12T05:09:41Z</time>
      </trkpt>
      <trkpt lat="46.30528" lon="-1.09432">
        <ele>5</ele>
        <time>2021-06-12T05:09:45Z</time>
      </trkpt>
      <trkpt lat="46.3054" lon="-1.09429">
        <ele>4</ele>
        <time>2021-06-12T05:09:47Z</time>
      </trkpt>
      <trkpt lat="46.30549" lon="-1.09419">
        <ele>4</ele>
        <time>2021-06-12T05:09:49Z</time>
      </trkpt>
      <trkpt lat="46.30565" lon="-1.09392">
        <ele>4</ele>
        <time>2021-06-12T05:09:54Z</time>
      </trkpt>
      <trkpt lat="46.3057" lon="-1.0938">
        <ele>4</ele>
        <time>2021-06-12T05:09:55Z</time>
      </trkpt>
      <trkpt lat="46.3057" lon="-1.09358">
        <ele>4</ele>
        <time>2021-06-12T05:09:58Z</time>
      </trkpt>
      <trkpt lat="46.30568" lon="-1.09297">
        <ele>4</ele>
        <time>2021-06-12T05:10:05Z</time>
      </trkpt>
      <trkpt lat="46.3057" lon="-1.09274">
        <ele>4</ele>
        <time>2021-06-12T05:10:08Z</time>
      </trkpt>
      <trkpt lat="46.30576" lon="-1.09243">
        <ele>3</ele>
        <time>2021-06-12T05:10:12Z</time>
      </trkpt>
      <trkpt lat="46.30592" lon="-1.09183">
        <ele>4</ele>
        <time>2021-06-12T05:10:20Z</time>
      </trkpt>
      <trkpt lat="46.30602" lon="-1.09123">
        <ele>3</ele>
        <time>2021-06-12T05:10:28Z</time>
      </trkpt>
      <trkpt lat="46.30624" lon="-1.09036">
        <ele>3</ele>
        <time>2021-06-12T05:10:39Z</time>
      </trkpt>
      <trkpt lat="46.30628" lon="-1.09003">
        <ele>3</ele>
        <time>2021-06-12T05:10:43Z</time>
      </trkpt>
      <trkpt lat="46.30619" lon="-1.08947">
        <ele>4</ele>
        <time>2021-06-12T05:10:50Z</time>
      </trkpt>
      <trkpt lat="46.30617" lon="-1.08891">
        <ele>4</ele>
        <time>2021-06-12T05:10:57Z</time>
      </trkpt>
      <trkpt lat="46.30588" lon="-1.08766">
        <ele>4</ele>
        <time>2021-06-12T05:11:13Z</time>
      </trkpt>
      <trkpt lat="46.30601" lon="-1.08762">
        <ele>4</ele>
        <time>2021-06-12T05:11:16Z</time>
      </trkpt>
      <trkpt lat="46.30618" lon="-1.08754">
        <ele>4</ele>
        <time>2021-06-12T05:11:19Z</time>
      </trkpt>
      <trkpt lat="46.30645" lon="-1.08737">
        <ele>3</ele>
        <time>2021-06-12T05:11:24Z</time>
      </trkpt>
      <trkpt lat="46.30654" lon="-1.08731">
        <ele>3</ele>
        <time>2021-06-12T05:11:26Z</time>
      </trkpt>
      <trkpt lat="46.30723" lon="-1.08689">
        <ele>2</ele>
        <time>2021-06-12T05:11:39Z</time>
      </trkpt>
      <trkpt lat="46.3079" lon="-1.08646">
        <ele>1</ele>
        <time>2021-06-12T05:11:52Z</time>
      </trkpt>
      <trkpt lat="46.30808" lon="-1.08635">
        <ele>1</ele>
        <time>2021-06-12T05:11:56Z</time>
      </trkpt>
      <trkpt lat="46.3085" lon="-1.08604">
        <ele>1</ele>
        <time>2021-06-12T05:12:04Z</time>
      </trkpt>
      <trkpt lat="46.30946" lon="-1.08519">
        <ele>1</ele>
        <time>2021-06-12T05:12:24Z</time>
      </trkpt>
      <trkpt lat="46.30959" lon="-1.08507">
        <ele>1</ele>
        <time>2021-06-12T05:12:27Z</time>
      </trkpt>
      <trkpt lat="46.30988" lon="-1.08482">
        <ele>1</ele>
        <time>2021-06-12T05:12:33Z</time>
      </trkpt>
      <trkpt lat="46.30998" lon="-1.08473">
        <ele>1</ele>
        <time>2021-06-12T05:12:35Z</time>
      </trkpt>
      <trkpt lat="46.31052" lon="-1.0843">
        <ele>2</ele>
        <time>2021-06-12T05:12:46Z</time>
      </trkpt>
      <trkpt lat="46.31094" lon="-1.08405">
        <ele>2</ele>
        <time>2021-06-12T05:12:54Z</time>
      </trkpt>
      <trkpt lat="46.31259" lon="-1.08329">
        <ele>3</ele>
        <time>2021-06-12T05:13:25Z</time>
      </trkpt>
      <trkpt lat="46.313" lon="-1.08315">
        <ele>2</ele>
        <time>2021-06-12T05:13:32Z</time>
      </trkpt>
      <trkpt lat="46.31327" lon="-1.08309">
        <ele>2</ele>
        <time>2021-06-12T05:13:37Z</time>
      </trkpt>
      <trkpt lat="46.31342" lon="-1.08307">
        <ele>2</ele>
        <time>2021-06-12T05:13:40Z</time>
      </trkpt>
      <trkpt lat="46.31355" lon="-1.08306">
        <ele>2</ele>
        <time>2021-06-12T05:13:42Z</time>
      </trkpt>
      <trkpt lat="46.31419" lon="-1.08301">
        <ele>1</ele>
        <time>2021-06-12T05:13:54Z</time>
      </trkpt>
      <trkpt lat="46.31526" lon="-1.08294">
        <ele>2</ele>
        <time>2021-06-12T05:14:13Z</time>
      </trkpt>
      <trkpt lat="46.31581" lon="-1.0829">
        <ele>2</ele>
        <time>2021-06-12T05:14:23Z</time>
      </trkpt>
      <trkpt lat="46.31636" lon="-1.08285">
        <ele>1</ele>
        <time>2021-06-12T05:14:32Z</time>
      </trkpt>
      <trkpt lat="46.31757" lon="-1.08277">
        <ele>1</ele>
        <time>2021-06-12T05:14:54Z</time>
      </trkpt>
      <trkpt lat="46.31793" lon="-1.08274">
        <ele>1</ele>
        <time>2021-06-12T05:15:00Z</time>
      </trkpt>
      <trkpt lat="46.31822" lon="-1.08271">
        <ele>1</ele>
        <time>2021-06-12T05:15:05Z</time>
      </trkpt>
      <trkpt lat="46.31821" lon="-1.08281">
        <ele>1</ele>
        <time>2021-06-12T05:15:07Z</time>
      </trkpt>
      <trkpt lat="46.31818" lon="-1.08287">
        <ele>1</ele>
        <time>2021-06-12T05:15:08Z</time>
      </trkpt>
      <trkpt lat="46.31814" lon="-1.08291">
        <ele>1</ele>
        <time>2021-06-12T05:15:09Z</time>
      </trkpt>
      <trkpt lat="46.31797" lon="-1.08296">
        <ele>1</ele>
        <time>2021-06-12T05:15:12Z</time>
      </trkpt>
      <trkpt lat="46.31789" lon="-1.08296">
        <ele>1</ele>
        <time>2021-06-12T05:15:13Z</time>
      </trkpt>
      <trkpt lat="46.31772" lon="-1.08293">
        <ele>1</ele>
        <time>2021-06-12T05:15:16Z</time>
      </trkpt>
      <trkpt lat="46.31767" lon="-1.08296">
        <ele>1</ele>
        <time>2021-06-12T05:15:17Z</time>
      </trkpt>
      <trkpt lat="46.31764" lon="-1.08305">
        <ele>1</ele>
        <time>2021-06-12T05:15:18Z</time>
      </trkpt>
      <trkpt lat="46.31752" lon="-1.08419">
        <ele>2</ele>
        <time>2021-06-12T05:15:32Z</time>
      </trkpt>
      <trkpt lat="46.31752" lon="-1.08437">
        <ele>2</ele>
        <time>2021-06-12T05:15:35Z</time>
      </trkpt>
      <trkpt lat="46.31755" lon="-1.08446">
        <ele>1</ele>
        <time>2021-06-12T05:15:36Z</time>
      </trkpt>
      <trkpt lat="46.31767" lon="-1.08477">
        <ele>1</ele>
        <time>2021-06-12T05:15:40Z</time>
      </trkpt>
      <trkpt lat="46.31818" lon="-1.08597">
        <ele>2</ele>
        <time>2021-06-12T05:15:58Z</time>
      </trkpt>
      <trkpt lat="46.31832" lon="-1.08637">
        <ele>3</ele>
        <time>2021-06-12T05:16:03Z</time>
      </trkpt>
      <trkpt lat="46.31866" lon="-1.08844">
        <ele>1</ele>
        <time>2021-06-12T05:16:29Z</time>
      </trkpt>
      <trkpt lat="46.3187" lon="-1.08856">
        <ele>1</ele>
        <time>2021-06-12T05:16:31Z</time>
      </trkpt>
      <trkpt lat="46.31963" lon="-1.0896">
        <ele>2</ele>
        <time>2021-06-12T05:16:52Z</time>
      </trkpt>
      <trkpt lat="46.31973" lon="-1.08983">
        <ele>2</ele>
        <time>2021-06-12T05:16:55Z</time>
      </trkpt>
      <trkpt lat="46.3204" lon="-1.09061">
        <ele>3</ele>
        <time>2021-06-12T05:17:10Z</time>
      </trkpt>
      <trkpt lat="46.32121" lon="-1.09153">
        <ele>2</ele>
        <time>2021-06-12T05:17:29Z</time>
      </trkpt>
      <trkpt lat="46.32283" lon="-1.09311">
        <ele>1</ele>
        <time>2021-06-12T05:18:03Z</time>
      </trkpt>
      <trkpt lat="46.32384" lon="-1.09446">
        <ele>1</ele>
        <time>2021-06-12T05:18:28Z</time>
      </trkpt>
      <trkpt lat="46.32513" lon="-1.09614">
        <ele>1</ele>
        <time>2021-06-12T05:18:59Z</time>
      </trkpt>
      <trkpt lat="46.3265" lon="-1.09775">
        <ele>1</ele>
        <time>2021-06-12T05:19:30Z</time>
      </trkpt>
      <trkpt lat="46.32722" lon="-1.09864">
        <ele>1</ele>
        <time>2021-06-12T05:19:47Z</time>
      </trkpt>
      <trkpt lat="46.32808" lon="-1.09962">
        <ele>1</ele>
        <time>2021-06-12T05:20:06Z</time>
      </trkpt>
      <trkpt lat="46.32915" lon="-1.10064">
        <ele>1</ele>
        <time>2021-06-12T05:20:29Z</time>
      </trkpt>
      <trkpt lat="46.32924" lon="-1.10073">
        <ele>1</ele>
        <time>2021-06-12T05:20:31Z</time>
      </trkpt>
      <trkpt lat="46.32946" lon="-1.10099">
        <ele>1</ele>
        <time>2021-06-12T05:20:36Z</time>
      </trkpt>
      <trkpt lat="46.32973" lon="-1.10116">
        <ele>1</ele>
        <time>2021-06-12T05:20:42Z</time>
      </trkpt>
      <trkpt lat="46.33164" lon="-1.10215">
        <ele>2.8</ele>
        <time>2021-06-12T05:21:18Z</time>
      </trkpt>
      <trkpt lat="46.33161" lon="-1.10226">
        <ele>3.2</ele>
        <time>2021-06-12T05:21:19Z</time>
      </trkpt>
      <trkpt lat="46.33163" lon="-1.10249">
        <ele>3</ele>
        <time>2021-06-12T05:21:22Z</time>
      </trkpt>
      <trkpt lat="46.33212" lon="-1.10567">
        <ele>1</ele>
        <time>2021-06-12T05:22:02Z</time>
      </trkpt>
      <trkpt lat="46.33214" lon="-1.10606">
        <ele>1</ele>
        <time>2021-06-12T05:22:07Z</time>
      </trkpt>
      <trkpt lat="46.33207" lon="-1.10634">
        <ele>1</ele>
        <time>2021-06-12T05:22:10Z</time>
      </trkpt>
      <trkpt lat="46.33112" lon="-1.1082">
        <ele>1</ele>
        <time>2021-06-12T05:22:39Z</time>
      </trkpt>
      <trkpt lat="46.3297" lon="-1.11079">
        <ele>1</ele>
        <time>2021-06-12T05:23:19Z</time>
      </trkpt>
      <trkpt lat="46.32957" lon="-1.11106">
        <ele>1</ele>
        <time>2021-06-12T05:23:24Z</time>
      </trkpt>
      <trkpt lat="46.32943" lon="-1.11162">
        <ele>1</ele>
        <time>2021-06-12T05:23:31Z</time>
      </trkpt>
      <trkpt lat="46.32928" lon="-1.11405">
        <ele>1</ele>
        <time>2021-06-12T05:24:01Z</time>
      </trkpt>
      <trkpt lat="46.32919" lon="-1.11459">
        <ele>1</ele>
        <time>2021-06-12T05:24:08Z</time>
      </trkpt>
      <trkpt lat="46.32918" lon="-1.11467">
        <ele>1</ele>
        <time>2021-06-12T05:24:09Z</time>
      </trkpt>
      <trkpt lat="46.32922" lon="-1.11476">
        <ele>1</ele>
        <time>2021-06-12T05:24:10Z</time>
      </trkpt>
      <trkpt lat="46.32925" lon="-1.11494">
        <ele>1</ele>
        <time>2021-06-12T05:24:12Z</time>
      </trkpt>
      <trkpt lat="46.32925" lon="-1.11522">
        <ele>1</ele>
        <time>2021-06-12T05:24:16Z</time>
      </trkpt>
      <trkpt lat="46.32906" lon="-1.11696">
        <ele>1.8</ele>
        <time>2021-06-12T05:24:37Z</time>
      </trkpt>
      <trkpt lat="46.32906" lon="-1.11729">
        <ele>2.7</ele>
        <time>2021-06-12T05:24:41Z</time>
      </trkpt>
      <trkpt lat="46.32933" lon="-1.1197">
        <ele>1</ele>
        <time>2021-06-12T05:25:11Z</time>
      </trkpt>
      <trkpt lat="46.3296" lon="-1.12248">
        <ele>2</ele>
        <time>2021-06-12T05:25:46Z</time>
      </trkpt>
      <trkpt lat="46.3297" lon="-1.12308">
        <ele>1</ele>
        <time>2021-06-12T05:25:53Z</time>
      </trkpt>
      <trkpt lat="46.33049" lon="-1.12435">
        <ele>1</ele>
        <time>2021-06-12T05:26:14Z</time>
      </trkpt>
      <trkpt lat="46.33466" lon="-1.13069">
        <ele>1</ele>
        <time>2021-06-12T05:28:02Z</time>
      </trkpt>
      <trkpt lat="46.3364" lon="-1.1334">
        <ele>1</ele>
        <time>2021-06-12T05:28:47Z</time>
      </trkpt>
      <trkpt lat="46.33895" lon="-1.13746">
        <ele>1</ele>
        <time>2021-06-12T05:29:55Z</time>
      </trkpt>
      <trkpt lat="46.34067" lon="-1.1401">
        <ele>1</ele>
        <time>2021-06-12T05:30:39Z</time>
      </trkpt>
      <trkpt lat="46.34589" lon="-1.15057">
        <ele>2.8</ele>
        <time>2021-06-12T05:33:18Z</time>
      </trkpt>
      <trkpt lat="46.34609" lon="-1.15084">
        <ele>1</ele>
        <time>2021-06-12T05:33:23Z</time>
      </trkpt>
      <trkpt lat="46.34625" lon="-1.15087">
        <ele>1</ele>
        <time>2021-06-12T05:33:26Z</time>
      </trkpt>
      <trkpt lat="46.34736" lon="-1.15061">
        <ele>1</ele>
        <time>2021-06-12T05:33:46Z</time>
      </trkpt>
      <trkpt lat="46.34776" lon="-1.15065">
        <ele>1</ele>
        <time>2021-06-12T05:33:53Z</time>
      </trkpt>
      <trkpt lat="46.348" lon="-1.15079">
        <ele>1</ele>
        <time>2021-06-12T05:33:58Z</time>
      </trkpt>
      <trkpt lat="46.34851" lon="-1.15117">
        <ele>1</ele>
        <time>2021-06-12T05:34:08Z</time>
      </trkpt>
      <trkpt lat="46.34935" lon="-1.15186">
        <ele>1</ele>
        <time>2021-06-12T05:34:25Z</time>
      </trkpt>
      <trkpt lat="46.34958" lon="-1.15221">
        <ele>1</ele>
        <time>2021-06-12T05:34:31Z</time>
      </trkpt>
      <trkpt lat="46.35195" lon="-1.15717">
        <ele>1</ele>
        <time>2021-06-12T05:35:45Z</time>
      </trkpt>
      <trkpt lat="46.35402" lon="-1.16145">
        <ele>1</ele>
        <time>2021-06-12T05:36:49Z</time>
      </trkpt>
      <trkpt lat="46.35424" lon="-1.16196">
        <ele>2</ele>
        <time>2021-06-12T05:36:57Z</time>
      </trkpt>
      <trkpt lat="46.35429" lon="-1.16209">
        <ele>1</ele>
        <time>2021-06-12T05:36:58Z</time>
      </trkpt>
      <trkpt lat="46.35432" lon="-1.16216">
        <ele>1</ele>
        <time>2021-06-12T05:36:59Z</time>
      </trkpt>
      <trkpt lat="46.35448" lon="-1.16251">
        <ele>1</ele>
        <time>2021-06-12T05:37:05Z</time>
      </trkpt>
      <trkpt lat="46.35453" lon="-1.1626">
        <ele>1</ele>
        <time>2021-06-12T05:37:06Z</time>
      </trkpt>
      <trkpt lat="46.35455" lon="-1.16269">
        <ele>1</ele>
        <time>2021-06-12T05:37:07Z</time>
      </trkpt>
      <trkpt lat="46.35468" lon="-1.16377">
        <ele>2</ele>
        <time>2021-06-12T05:37:21Z</time>
      </trkpt>
      <trkpt lat="46.3547" lon="-1.16425">
        <ele>3</ele>
        <time>2021-06-12T05:37:27Z</time>
      </trkpt>
      <trkpt lat="46.35474" lon="-1.1645">
        <ele>2</ele>
        <time>2021-06-12T05:37:30Z</time>
      </trkpt>
      <trkpt lat="46.35505" lon="-1.16549">
        <ele>1</ele>
        <time>2021-06-12T05:37:43Z</time>
      </trkpt>
      <trkpt lat="46.35515" lon="-1.1656">
        <ele>1</ele>
        <time>2021-06-12T05:37:45Z</time>
      </trkpt>
      <trkpt lat="46.35556" lon="-1.1657">
        <ele>2</ele>
        <time>2021-06-12T05:37:53Z</time>
      </trkpt>
      <trkpt lat="46.35563" lon="-1.16577">
        <ele>2</ele>
        <time>2021-06-12T05:37:54Z</time>
      </trkpt>
      <trkpt lat="46.35569" lon="-1.16577">
        <ele>2</ele>
        <time>2021-06-12T05:37:55Z</time>
      </trkpt>
      <trkpt lat="46.35574" lon="-1.16581">
        <ele>2</ele>
        <time>2021-06-12T05:37:56Z</time>
      </trkpt>
      <trkpt lat="46.35576" lon="-1.16587">
        <ele>2</ele>
        <time>2021-06-12T05:37:57Z</time>
      </trkpt>
      <trkpt lat="46.35574" lon="-1.16615">
        <ele>1</ele>
        <time>2021-06-12T05:38:01Z</time>
      </trkpt>
      <trkpt lat="46.35576" lon="-1.16619">
        <ele>1</ele>
        <time>2021-06-12T05:38:01Z</time>
      </trkpt>
      <trkpt lat="46.35631" lon="-1.16626">
        <ele>1</ele>
        <time>2021-06-12T05:38:11Z</time>
      </trkpt>
      <trkpt lat="46.35652" lon="-1.16633">
        <ele>1</ele>
        <time>2021-06-12T05:38:15Z</time>
      </trkpt>
      <trkpt lat="46.35681" lon="-1.16636">
        <ele>1</ele>
        <time>2021-06-12T05:38:20Z</time>
      </trkpt>
      <trkpt lat="46.35834" lon="-1.16661">
        <ele>1</ele>
        <time>2021-06-12T05:38:47Z</time>
      </trkpt>
      <trkpt lat="46.3581" lon="-1.16814">
        <ele>2</ele>
        <time>2021-06-12T05:39:07Z</time>
      </trkpt>
      <trkpt lat="46.35814" lon="-1.1683">
        <ele>2</ele>
        <time>2021-06-12T05:39:09Z</time>
      </trkpt>
      <trkpt lat="46.35829" lon="-1.16862">
        <ele>1</ele>
        <time>2021-06-12T05:39:13Z</time>
      </trkpt>
      <trkpt lat="46.35854" lon="-1.16901">
        <ele>1</ele>
        <time>2021-06-12T05:39:20Z</time>
      </trkpt>
      <trkpt lat="46.36098" lon="-1.1723">
        <ele>2</ele>
        <time>2021-06-12T05:40:19Z</time>
      </trkpt>
      <trkpt lat="46.36109" lon="-1.17251">
        <ele>2</ele>
        <time>2021-06-12T05:40:23Z</time>
      </trkpt>
      <trkpt lat="46.36108" lon="-1.17265">
        <ele>2</ele>
        <time>2021-06-12T05:40:24Z</time>
      </trkpt>
      <trkpt lat="46.36108" lon="-1.17277">
        <ele>2</ele>
        <time>2021-06-12T05:40:26Z</time>
      </trkpt>
      <trkpt lat="46.36102" lon="-1.17409">
        <ele>1</ele>
        <time>2021-06-12T05:40:42Z</time>
      </trkpt>
      <trkpt lat="46.36099" lon="-1.17526">
        <ele>1</ele>
        <time>2021-06-12T05:40:56Z</time>
      </trkpt>
      <trkpt lat="46.36094" lon="-1.177">
        <ele>1</ele>
        <time>2021-06-12T05:41:18Z</time>
      </trkpt>
      <trkpt lat="46.36092" lon="-1.17744">
        <ele>1</ele>
        <time>2021-06-12T05:41:23Z</time>
      </trkpt>
      <trkpt lat="46.36093" lon="-1.17913">
        <ele>1</ele>
        <time>2021-06-12T05:41:44Z</time>
      </trkpt>
      <trkpt lat="46.36095" lon="-1.17988">
        <ele>2.4</ele>
        <time>2021-06-12T05:41:53Z</time>
      </trkpt>
      <trkpt lat="46.36103" lon="-1.18095">
        <ele>1</ele>
        <time>2021-06-12T05:42:06Z</time>
      </trkpt>
      <trkpt lat="46.36104" lon="-1.18114">
        <ele>1</ele>
        <time>2021-06-12T05:42:09Z</time>
      </trkpt>
      <trkpt lat="46.36108" lon="-1.18142">
        <ele>1</ele>
        <time>2021-06-12T05:42:12Z</time>
      </trkpt>
      <trkpt lat="46.36116" lon="-1.18222">
        <ele>1</ele>
        <time>2021-06-12T05:42:22Z</time>
      </trkpt>
      <trkpt lat="46.36143" lon="-1.18447">
        <ele>1</ele>
        <time>2021-06-12T05:42:50Z</time>
      </trkpt>
      <trkpt lat="46.36145" lon="-1.18489">
        <ele>1</ele>
        <time>2021-06-12T05:42:55Z</time>
      </trkpt>
      <trkpt lat="46.36145" lon="-1.18506">
        <ele>1</ele>
        <time>2021-06-12T05:42:57Z</time>
      </trkpt>
      <trkpt lat="46.36143" lon="-1.18529">
        <ele>1</ele>
        <time>2021-06-12T05:43:00Z</time>
      </trkpt>
      <trkpt lat="46.36139" lon="-1.18562">
        <ele>1</ele>
        <time>2021-06-12T05:43:04Z</time>
      </trkpt>
      <trkpt lat="46.3612" lon="-1.18685">
        <ele>2</ele>
        <time>2021-06-12T05:43:20Z</time>
      </trkpt>
      <trkpt lat="46.36094" lon="-1.18851">
        <ele>1</ele>
        <time>2021-06-12T05:43:41Z</time>
      </trkpt>
      <trkpt lat="46.36059" lon="-1.19177">
        <ele>1</ele>
        <time>2021-06-12T05:44:21Z</time>
      </trkpt>
      <trkpt lat="46.36039" lon="-1.19361">
        <ele>1</ele>
        <time>2021-06-12T05:44:44Z</time>
      </trkpt>
      <trkpt lat="46.36038" lon="-1.19372">
        <ele>1</ele>
        <time>2021-06-12T05:44:46Z</time>
      </trkpt>
      <trkpt lat="46.36033" lon="-1.19439">
        <ele>1</ele>
        <time>2021-06-12T05:44:54Z</time>
      </trkpt>
      <trkpt lat="46.36015" lon="-1.19599">
        <ele>1</ele>
        <time>2021-06-12T05:45:14Z</time>
      </trkpt>
      <trkpt lat="46.36015" lon="-1.19611">
        <ele>2</ele>
        <time>2021-06-12T05:45:15Z</time>
      </trkpt>
      <trkpt lat="46.36017" lon="-1.19623">
        <ele>2</ele>
        <time>2021-06-12T05:45:17Z</time>
      </trkpt>
      <trkpt lat="46.36014" lon="-1.19627">
        <ele>2</ele>
        <time>2021-06-12T05:45:17Z</time>
      </trkpt>
      <trkpt lat="46.36008" lon="-1.19647">
        <ele>2</ele>
        <time>2021-06-12T05:45:20Z</time>
      </trkpt>
      <trkpt lat="46.3599" lon="-1.19833">
        <ele>1</ele>
        <time>2021-06-12T05:45:43Z</time>
      </trkpt>
      <trkpt lat="46.3598" lon="-1.19914">
        <ele>1</ele>
        <time>2021-06-12T05:45:53Z</time>
      </trkpt>
      <trkpt lat="46.35966" lon="-1.20121">
        <ele>3</ele>
        <time>2021-06-12T05:46:19Z</time>
      </trkpt>
      <trkpt lat="46.35918" lon="-1.2063">
        <ele>2</ele>
        <time>2021-06-12T05:47:22Z</time>
      </trkpt>
      <trkpt lat="46.35918" lon="-1.20679">
        <ele>2</ele>
        <time>2021-06-12T05:47:28Z</time>
      </trkpt>
      <trkpt lat="46.35964" lon="-1.2148">
        <ele>1</ele>
        <time>2021-06-12T05:49:07Z</time>
      </trkpt>
      <trkpt lat="46.3597" lon="-1.21607">
        <ele>2</ele>
        <time>2021-06-12T05:49:22Z</time>
      </trkpt>
      <trkpt lat="46.35972" lon="-1.21662">
        <ele>3</ele>
        <time>2021-06-12T05:49:29Z</time>
      </trkpt>
      <trkpt lat="46.35987" lon="-1.21675">
        <ele>3</ele>
        <time>2021-06-12T05:49:32Z</time>
      </trkpt>
      <trkpt lat="46.35991" lon="-1.21661">
        <ele>3</ele>
        <time>2021-06-12T05:49:34Z</time>
      </trkpt>
      <trkpt lat="46.35992" lon="-1.21644">
        <ele>3</ele>
        <time>2021-06-12T05:49:36Z</time>
      </trkpt>
      <trkpt lat="46.3596" lon="-1.21196">
        <ele>1</ele>
        <time>2021-06-12T05:50:31Z</time>
      </trkpt>
      <trkpt lat="46.35992" lon="-1.21644">
        <ele>3</ele>
        <time>2021-06-12T05:51:27Z</time>
      </trkpt>
      <trkpt lat="46.35991" lon="-1.21661">
        <ele>3</ele>
        <time>2021-06-12T05:51:29Z</time>
      </trkpt>
      <trkpt lat="46.35987" lon="-1.21675">
        <ele>3</ele>
        <time>2021-06-12T05:51:31Z</time>
      </trkpt>
      <trkpt lat="46.35972" lon="-1.21662">
        <ele>3</ele>
        <time>2021-06-12T05:51:34Z</time>
      </trkpt>
      <trkpt lat="46.35971" lon="-1.21671">
        <ele>3</ele>
        <time>2021-06-12T05:51:35Z</time>
      </trkpt>
      <trkpt lat="46.35969" lon="-1.21679">
        <ele>3</ele>
        <time>2021-06-12T05:51:36Z</time>
      </trkpt>
      <trkpt lat="46.35967" lon="-1.21687">
        <ele>2</ele>
        <time>2021-06-12T05:51:37Z</time>
      </trkpt>
      <trkpt lat="46.35964" lon="-1.21694">
        <ele>2</ele>
        <time>2021-06-12T05:51:38Z</time>
      </trkpt>
      <trkpt lat="46.35959" lon="-1.21696">
        <ele>2</ele>
        <time>2021-06-12T05:51:39Z</time>
      </trkpt>
      <trkpt lat="46.35857" lon="-1.21658">
        <ele>2</ele>
        <time>2021-06-12T05:51:58Z</time>
      </trkpt>
      <trkpt lat="46.35801" lon="-1.21631">
        <ele>2</ele>
        <time>2021-06-12T05:52:08Z</time>
      </trkpt>
      <trkpt lat="46.35784" lon="-1.21676">
        <ele>2</ele>
        <time>2021-06-12T05:52:14Z</time>
      </trkpt>
      <trkpt lat="46.35817" lon="-1.217">
        <ele>3</ele>
        <time>2021-06-12T05:52:21Z</time>
      </trkpt>
      <trkpt lat="46.35835" lon="-1.21718">
        <ele>3</ele>
        <time>2021-06-12T05:52:25Z</time>
      </trkpt>
      <trkpt lat="46.35921" lon="-1.21861">
        <ele>1</ele>
        <time>2021-06-12T05:52:48Z</time>
      </trkpt>
      <trkpt lat="46.35923" lon="-1.21873">
        <ele>1</ele>
        <time>2021-06-12T05:52:50Z</time>
      </trkpt>
      <trkpt lat="46.35906" lon="-1.21893">
        <ele>1.26</ele>
        <time>2021-06-12T05:52:54Z</time>
      </trkpt>
      <trkpt lat="46.35889" lon="-1.21924">
        <ele>1</ele>
        <time>2021-06-12T05:52:58Z</time>
      </trkpt>
      <trkpt lat="46.35865" lon="-1.22004">
        <ele>1</ele>
        <time>2021-06-12T05:53:09Z</time>
      </trkpt>
      <trkpt lat="46.35771" lon="-1.22249">
        <ele>1</ele>
        <time>2021-06-12T05:53:44Z</time>
      </trkpt>
      <trkpt lat="46.35738" lon="-1.22371">
        <ele>1</ele>
        <time>2021-06-12T05:54:00Z</time>
      </trkpt>
      <trkpt lat="46.35651" lon="-1.22669">
        <ele>2</ele>
        <time>2021-06-12T05:54:39Z</time>
      </trkpt>
      <trkpt lat="46.35638" lon="-1.2271">
        <ele>2</ele>
        <time>2021-06-12T05:54:45Z</time>
      </trkpt>
      <trkpt lat="46.35635" lon="-1.22717">
        <ele>2</ele>
        <time>2021-06-12T05:54:46Z</time>
      </trkpt>
      <trkpt lat="46.35633" lon="-1.22727">
        <ele>2</ele>
        <time>2021-06-12T05:54:47Z</time>
      </trkpt>
      <trkpt lat="46.35631" lon="-1.2274">
        <ele>2</ele>
        <time>2021-06-12T05:54:49Z</time>
      </trkpt>
      <trkpt lat="46.35629" lon="-1.22751">
        <ele>2</ele>
        <time>2021-06-12T05:54:50Z</time>
      </trkpt>
      <trkpt lat="46.35559" lon="-1.2299">
        <ele>1</ele>
        <time>2021-06-12T05:55:22Z</time>
      </trkpt>
      <trkpt lat="46.35487" lon="-1.23273">
        <ele>2</ele>
        <time>2021-06-12T05:55:59Z</time>
      </trkpt>
      <trkpt lat="46.35483" lon="-1.23287">
        <ele>2</ele>
        <time>2021-06-12T05:56:01Z</time>
      </trkpt>
      <trkpt lat="46.35475" lon="-1.23313">
        <ele>1</ele>
        <time>2021-06-12T05:56:05Z</time>
      </trkpt>
      <trkpt lat="46.3543" lon="-1.23457">
        <ele>1</ele>
        <time>2021-06-12T05:56:24Z</time>
      </trkpt>
      <trkpt lat="46.35426" lon="-1.23464">
        <ele>1</ele>
        <time>2021-06-12T05:56:25Z</time>
      </trkpt>
      <trkpt lat="46.35407" lon="-1.23493">
        <ele>1</ele>
        <time>2021-06-12T05:56:30Z</time>
      </trkpt>
      <trkpt lat="46.35401" lon="-1.23511">
        <ele>1</ele>
        <time>2021-06-12T05:56:32Z</time>
      </trkpt>
      <trkpt lat="46.35381" lon="-1.23581">
        <ele>1</ele>
        <time>2021-06-12T05:56:42Z</time>
      </trkpt>
      <trkpt lat="46.35274" lon="-1.23942">
        <ele>2</ele>
        <time>2021-06-12T05:57:30Z</time>
      </trkpt>
      <trkpt lat="46.35267" lon="-1.23984">
        <ele>2</ele>
        <time>2021-06-12T05:57:35Z</time>
      </trkpt>
      <trkpt lat="46.35267" lon="-1.23989">
        <ele>2</ele>
        <time>2021-06-12T05:57:36Z</time>
      </trkpt>
      <trkpt lat="46.35263" lon="-1.24091">
        <ele>2</ele>
        <time>2021-06-12T05:57:48Z</time>
      </trkpt>
      <trkpt lat="46.3525" lon="-1.24152">
        <ele>3</ele>
        <time>2021-06-12T05:57:56Z</time>
      </trkpt>
      <trkpt lat="46.35221" lon="-1.24243">
        <ele>3</ele>
        <time>2021-06-12T05:58:09Z</time>
      </trkpt>
      <trkpt lat="46.35163" lon="-1.24465">
        <ele>4</ele>
        <time>2021-06-12T05:58:38Z</time>
      </trkpt>
      <trkpt lat="46.3515" lon="-1.2451">
        <ele>3</ele>
        <time>2021-06-12T05:58:44Z</time>
      </trkpt>
      <trkpt lat="46.35142" lon="-1.24538">
        <ele>3</ele>
        <time>2021-06-12T05:58:47Z</time>
      </trkpt>
      <trkpt lat="46.34968" lon="-1.24542">
        <ele>2</ele>
        <time>2021-06-12T05:59:18Z</time>
      </trkpt>
      <trkpt lat="46.34963" lon="-1.24554">
        <ele>2</ele>
        <time>2021-06-12T05:59:20Z</time>
      </trkpt>
      <trkpt lat="46.34945" lon="-1.24638">
        <ele>2</ele>
        <time>2021-06-12T05:59:31Z</time>
      </trkpt>
      <trkpt lat="46.34923" lon="-1.24628">
        <ele>2</ele>
        <time>2021-06-12T05:59:35Z</time>
      </trkpt>
      <trkpt lat="46.34866" lon="-1.24636">
        <ele>1</ele>
        <time>2021-06-12T05:59:45Z</time>
      </trkpt>
      <trkpt lat="46.34847" lon="-1.2472">
        <ele>1</ele>
        <time>2021-06-12T05:59:56Z</time>
      </trkpt>
      <trkpt lat="46.34847" lon="-1.2477">
        <ele>2</ele>
        <time>2021-06-12T06:00:02Z</time>
      </trkpt>
      <trkpt lat="46.34848" lon="-1.2479">
        <ele>2</ele>
        <time>2021-06-12T06:00:05Z</time>
      </trkpt>
      <trkpt lat="46.3451" lon="-1.24804">
        <ele>2</ele>
        <time>2021-06-12T06:01:05Z</time>
      </trkpt>
      <trkpt lat="46.34457" lon="-1.24799">
        <ele>2</ele>
        <time>2021-06-12T06:01:14Z</time>
      </trkpt>
      <trkpt lat="46.34424" lon="-1.24792">
        <ele>2</ele>
        <time>2021-06-12T06:01:20Z</time>
      </trkpt>
      <trkpt lat="46.33244" lon="-1.24372">
        <ele>1</ele>
        <time>2021-06-12T06:04:56Z</time>
      </trkpt>
      <trkpt lat="46.33059" lon="-1.24304">
        <ele>1</ele>
        <time>2021-06-12T06:05:30Z</time>
      </trkpt>
      <trkpt lat="46.3279" lon="-1.24951">
        <ele>1</ele>
        <time>2021-06-12T06:07:03Z</time>
      </trkpt>
      <trkpt lat="46.32522" lon="-1.25601">
        <ele>1</ele>
        <time>2021-06-12T06:08:36Z</time>
      </trkpt>
      <trkpt lat="46.32325" lon="-1.26069">
        <ele>1</ele>
        <time>2021-06-12T06:09:44Z</time>
      </trkpt>
      <trkpt lat="46.32329" lon="-1.26071">
        <ele>1</ele>
        <time>2021-06-12T06:09:44Z</time>
      </trkpt>
      <trkpt lat="46.32325" lon="-1.26069">
        <ele>1</ele>
        <time>2021-06-12T06:09:45Z</time>
      </trkpt>
      <trkpt lat="46.32522" lon="-1.25601">
        <ele>1</ele>
        <time>2021-06-12T06:10:52Z</time>
      </trkpt>
      <trkpt lat="46.3279" lon="-1.24951">
        <ele>1</ele>
        <time>2021-06-12T06:12:25Z</time>
      </trkpt>
      <trkpt lat="46.33059" lon="-1.24304">
        <ele>1</ele>
        <time>2021-06-12T06:13:58Z</time>
      </trkpt>
      <trkpt lat="46.33001" lon="-1.24285">
        <ele>2</ele>
        <time>2021-06-12T06:14:09Z</time>
      </trkpt>
      <trkpt lat="46.32966" lon="-1.2427">
        <ele>2</ele>
        <time>2021-06-12T06:14:15Z</time>
      </trkpt>
      <trkpt lat="46.32949" lon="-1.2426">
        <ele>2</ele>
        <time>2021-06-12T06:14:19Z</time>
      </trkpt>
      <trkpt lat="46.32939" lon="-1.24251">
        <ele>2</ele>
        <time>2021-06-12T06:14:21Z</time>
      </trkpt>
      <trkpt lat="46.32933" lon="-1.24246">
        <ele>2</ele>
        <time>2021-06-12T06:14:22Z</time>
      </trkpt>
      <trkpt lat="46.32928" lon="-1.24241">
        <ele>2</ele>
        <time>2021-06-12T06:14:23Z</time>
      </trkpt>
      <trkpt lat="46.32916" lon="-1.24228">
        <ele>2</ele>
        <time>2021-06-12T06:14:26Z</time>
      </trkpt>
      <trkpt lat="46.32376" lon="-1.23453">
        <ele>2</ele>
        <time>2021-06-12T06:16:41Z</time>
      </trkpt>
      <trkpt lat="46.32363" lon="-1.23432">
        <ele>2</ele>
        <time>2021-06-12T06:16:44Z</time>
      </trkpt>
      <trkpt lat="46.3236" lon="-1.23426">
        <ele>2</ele>
        <time>2021-06-12T06:16:45Z</time>
      </trkpt>
      <trkpt lat="46.32354" lon="-1.23416">
        <ele>2</ele>
        <time>2021-06-12T06:16:47Z</time>
      </trkpt>
      <trkpt lat="46.32298" lon="-1.23451">
        <ele>1</ele>
        <time>2021-06-12T06:16:58Z</time>
      </trkpt>
      <trkpt lat="46.32271" lon="-1.23463">
        <ele>1</ele>
        <time>2021-06-12T06:17:03Z</time>
      </trkpt>
      <trkpt lat="46.32221" lon="-1.23479">
        <ele>1</ele>
        <time>2021-06-12T06:17:12Z</time>
      </trkpt>
      <trkpt lat="46.32199" lon="-1.23488">
        <ele>1</ele>
        <time>2021-06-12T06:17:16Z</time>
      </trkpt>
      <trkpt lat="46.32063" lon="-1.23565">
        <ele>2</ele>
        <time>2021-06-12T06:17:42Z</time>
      </trkpt>
      <trkpt lat="46.32031" lon="-1.23581">
        <ele>1</ele>
        <time>2021-06-12T06:17:48Z</time>
      </trkpt>
      <trkpt lat="46.3198" lon="-1.23599">
        <ele>1</ele>
        <time>2021-06-12T06:17:57Z</time>
      </trkpt>
      <trkpt lat="46.30762" lon="-1.23906">
        <ele>1</ele>
        <time>2021-06-12T06:21:37Z</time>
      </trkpt>
      <trkpt lat="46.30746" lon="-1.23906">
        <ele>1.9</ele>
        <time>2021-06-12T06:21:40Z</time>
      </trkpt>
      <trkpt lat="46.30733" lon="-1.239">
        <ele>1.8</ele>
        <time>2021-06-12T06:21:43Z</time>
      </trkpt>
      <trkpt lat="46.30675" lon="-1.23849">
        <ele>1.6</ele>
        <time>2021-06-12T06:21:55Z</time>
      </trkpt>
      <trkpt lat="46.30652" lon="-1.23836">
        <ele>1</ele>
        <time>2021-06-12T06:21:59Z</time>
      </trkpt>
      <trkpt lat="46.30637" lon="-1.23831">
        <ele>1</ele>
        <time>2021-06-12T06:22:02Z</time>
      </trkpt>
      <trkpt lat="46.30619" lon="-1.23828">
        <ele>1</ele>
        <time>2021-06-12T06:22:05Z</time>
      </trkpt>
      <trkpt lat="46.30608" lon="-1.23826">
        <ele>1</ele>
        <time>2021-06-12T06:22:07Z</time>
      </trkpt>
      <trkpt lat="46.30593" lon="-1.23824">
        <ele>1</ele>
        <time>2021-06-12T06:22:10Z</time>
      </trkpt>
      <trkpt lat="46.30581" lon="-1.23779">
        <ele>1</ele>
        <time>2021-06-12T06:22:16Z</time>
      </trkpt>
      <trkpt lat="46.30593" lon="-1.23824">
        <ele>1</ele>
        <time>2021-06-12T06:22:22Z</time>
      </trkpt>
      <trkpt lat="46.30577" lon="-1.23826">
        <ele>1</ele>
        <time>2021-06-12T06:22:24Z</time>
      </trkpt>
      <trkpt lat="46.30571" lon="-1.23832">
        <ele>1</ele>
        <time>2021-06-12T06:22:26Z</time>
      </trkpt>
      <trkpt lat="46.30558" lon="-1.23856">
        <ele>1</ele>
        <time>2021-06-12T06:22:29Z</time>
      </trkpt>
      <trkpt lat="46.30542" lon="-1.23906">
        <ele>1</ele>
        <time>2021-06-12T06:22:36Z</time>
      </trkpt>
      <trkpt lat="46.30531" lon="-1.2393">
        <ele>1</ele>
        <time>2021-06-12T06:22:40Z</time>
      </trkpt>
      <trkpt lat="46.30495" lon="-1.23988">
        <ele>3</ele>
        <time>2021-06-12T06:22:49Z</time>
      </trkpt>
      <trkpt lat="46.30476" lon="-1.24012">
        <ele>4</ele>
        <time>2021-06-12T06:22:54Z</time>
      </trkpt>
      <trkpt lat="46.30465" lon="-1.24023">
        <ele>4</ele>
        <time>2021-06-12T06:22:56Z</time>
      </trkpt>
      <trkpt lat="46.30435" lon="-1.24044">
        <ele>4</ele>
        <time>2021-06-12T06:23:02Z</time>
      </trkpt>
      <trkpt lat="46.30424" lon="-1.24054">
        <ele>4</ele>
        <time>2021-06-12T06:23:04Z</time>
      </trkpt>
      <trkpt lat="46.30384" lon="-1.24112">
        <ele>5</ele>
        <time>2021-06-12T06:23:14Z</time>
      </trkpt>
      <trkpt lat="46.30357" lon="-1.24147">
        <ele>4</ele>
        <time>2021-06-12T06:23:21Z</time>
      </trkpt>
      <trkpt lat="46.30335" lon="-1.24191">
        <ele>3</ele>
        <time>2021-06-12T06:23:28Z</time>
      </trkpt>
      <trkpt lat="46.30317" lon="-1.24233">
        <ele>2</ele>
        <time>2021-06-12T06:23:34Z</time>
      </trkpt>
      <trkpt lat="46.30308" lon="-1.24269">
        <ele>3</ele>
        <time>2021-06-12T06:23:38Z</time>
      </trkpt>
      <trkpt lat="46.30304" lon="-1.24294">
        <ele>3</ele>
        <time>2021-06-12T06:23:42Z</time>
      </trkpt>
      <trkpt lat="46.30298" lon="-1.24347">
        <ele>4</ele>
        <time>2021-06-12T06:23:48Z</time>
      </trkpt>
      <trkpt lat="46.30297" lon="-1.2444">
        <ele>4</ele>
        <time>2021-06-12T06:24:00Z</time>
      </trkpt>
      <trkpt lat="46.30269" lon="-1.24695">
        <ele>4</ele>
        <time>2021-06-12T06:24:31Z</time>
      </trkpt>
      <trkpt lat="46.30267" lon="-1.24728">
        <ele>5</ele>
        <time>2021-06-12T06:24:35Z</time>
      </trkpt>
      <trkpt lat="46.30277" lon="-1.25254">
        <ele>4</ele>
        <time>2021-06-12T06:25:40Z</time>
      </trkpt>
      <trkpt lat="46.30279" lon="-1.25292">
        <ele>4</ele>
        <time>2021-06-12T06:25:45Z</time>
      </trkpt>
      <trkpt lat="46.30285" lon="-1.25329">
        <ele>5</ele>
        <time>2021-06-12T06:25:49Z</time>
      </trkpt>
      <trkpt lat="46.30303" lon="-1.25414">
        <ele>6</ele>
        <time>2021-06-12T06:26:00Z</time>
      </trkpt>
      <trkpt lat="46.30304" lon="-1.25441">
        <ele>4</ele>
        <time>2021-06-12T06:26:04Z</time>
      </trkpt>
      <trkpt lat="46.303" lon="-1.25447">
        <ele>4</ele>
        <time>2021-06-12T06:26:05Z</time>
      </trkpt>
      <trkpt lat="46.30085" lon="-1.25617">
        <ele>1</ele>
        <time>2021-06-12T06:26:48Z</time>
      </trkpt>
      <trkpt lat="46.29967" lon="-1.2571">
        <ele>1</ele>
        <time>2021-06-12T06:27:12Z</time>
      </trkpt>
      <trkpt lat="46.29878" lon="-1.25776">
        <ele>1</ele>
        <time>2021-06-12T06:27:30Z</time>
      </trkpt>
      <trkpt lat="46.29846" lon="-1.25787">
        <ele>1</ele>
        <time>2021-06-12T06:27:36Z</time>
      </trkpt>
      <trkpt lat="46.2979" lon="-1.25799">
        <ele>1</ele>
        <time>2021-06-12T06:27:46Z</time>
      </trkpt>
      <trkpt lat="46.29772" lon="-1.25813">
        <ele>1</ele>
        <time>2021-06-12T06:27:50Z</time>
      </trkpt>
      <trkpt lat="46.29767" lon="-1.25823">
        <ele>1</ele>
        <time>2021-06-12T06:27:51Z</time>
      </trkpt>
      <trkpt lat="46.29762" lon="-1.25846">
        <ele>1</ele>
        <time>2021-06-12T06:27:54Z</time>
      </trkpt>
      <trkpt lat="46.29761" lon="-1.26042">
        <ele>1</ele>
        <time>2021-06-12T06:28:18Z</time>
      </trkpt>
      <trkpt lat="46.29766" lon="-1.26048">
        <ele>1</ele>
        <time>2021-06-12T06:28:19Z</time>
      </trkpt>
      <trkpt lat="46.29777" lon="-1.2608">
        <ele>1</ele>
        <time>2021-06-12T06:28:24Z</time>
      </trkpt>
      <trkpt lat="46.29816" lon="-1.26149">
        <ele>3.6</ele>
        <time>2021-06-12T06:28:35Z</time>
      </trkpt>
      <trkpt lat="46.29825" lon="-1.26171">
        <ele>3.4</ele>
        <time>2021-06-12T06:28:38Z</time>
      </trkpt>
      <trkpt lat="46.29901" lon="-1.26306">
        <ele>3.7</ele>
        <time>2021-06-12T06:28:59Z</time>
      </trkpt>
      <trkpt lat="46.30118" lon="-1.26662">
        <ele>1</ele>
        <time>2021-06-12T06:29:58Z</time>
      </trkpt>
      <trkpt lat="46.3015" lon="-1.26717">
        <ele>3.5</ele>
        <time>2021-06-12T06:30:06Z</time>
      </trkpt>
      <trkpt lat="46.30337" lon="-1.27021">
        <ele>4.3</ele>
        <time>2021-06-12T06:30:56Z</time>
      </trkpt>
      <trkpt lat="46.30393" lon="-1.27109">
        <ele>1</ele>
        <time>2021-06-12T06:31:11Z</time>
      </trkpt>
      <trkpt lat="46.30469" lon="-1.27238">
        <ele>2</ele>
        <time>2021-06-12T06:31:32Z</time>
      </trkpt>
      <trkpt lat="46.30604" lon="-1.27453">
        <ele>1</ele>
        <time>2021-06-12T06:32:08Z</time>
      </trkpt>
      <trkpt lat="46.30627" lon="-1.27498">
        <ele>1</ele>
        <time>2021-06-12T06:32:15Z</time>
      </trkpt>
      <trkpt lat="46.30636" lon="-1.27506">
        <ele>1</ele>
        <time>2021-06-12T06:32:16Z</time>
      </trkpt>
      <trkpt lat="46.30775" lon="-1.27597">
        <ele>2</ele>
        <time>2021-06-12T06:32:44Z</time>
      </trkpt>
      <trkpt lat="46.30797" lon="-1.27621">
        <ele>2</ele>
        <time>2021-06-12T06:32:48Z</time>
      </trkpt>
      <trkpt lat="46.30808" lon="-1.27637">
        <ele>2</ele>
        <time>2021-06-12T06:32:51Z</time>
      </trkpt>
      <trkpt lat="46.30821" lon="-1.27663">
        <ele>2</ele>
        <time>2021-06-12T06:32:55Z</time>
      </trkpt>
      <trkpt lat="46.3086" lon="-1.27758">
        <ele>1</ele>
        <time>2021-06-12T06:33:09Z</time>
      </trkpt>
      <trkpt lat="46.30938" lon="-1.27955">
        <ele>1</ele>
        <time>2021-06-12T06:33:37Z</time>
      </trkpt>
      <trkpt lat="46.30961" lon="-1.27997">
        <ele>2</ele>
        <time>2021-06-12T06:33:43Z</time>
      </trkpt>
      <trkpt lat="46.30974" lon="-1.28016">
        <ele>2</ele>
        <time>2021-06-12T06:33:47Z</time>
      </trkpt>
      <trkpt lat="46.30982" lon="-1.28026">
        <ele>2</ele>
        <time>2021-06-12T06:33:48Z</time>
      </trkpt>
      <trkpt lat="46.31009" lon="-1.28048">
        <ele>2</ele>
        <time>2021-06-12T06:33:54Z</time>
      </trkpt>
      <trkpt lat="46.31046" lon="-1.28057">
        <ele>2</ele>
        <time>2021-06-12T06:34:01Z</time>
      </trkpt>
      <trkpt lat="46.31094" lon="-1.28069">
        <ele>3</ele>
        <time>2021-06-12T06:34:09Z</time>
      </trkpt>
      <trkpt lat="46.31134" lon="-1.28081">
        <ele>4</ele>
        <time>2021-06-12T06:34:17Z</time>
      </trkpt>
      <trkpt lat="46.31154" lon="-1.28088">
        <ele>4</ele>
        <time>2021-06-12T06:34:20Z</time>
      </trkpt>
      <trkpt lat="46.31187" lon="-1.28105">
        <ele>4</ele>
        <time>2021-06-12T06:34:26Z</time>
      </trkpt>
      <trkpt lat="46.31228" lon="-1.28131">
        <ele>3</ele>
        <time>2021-06-12T06:34:34Z</time>
      </trkpt>
      <trkpt lat="46.31251" lon="-1.28149">
        <ele>2</ele>
        <time>2021-06-12T06:34:39Z</time>
      </trkpt>
      <trkpt lat="46.31275" lon="-1.28169">
        <ele>2</ele>
        <time>2021-06-12T06:34:44Z</time>
      </trkpt>
      <trkpt lat="46.31302" lon="-1.28193">
        <ele>2</ele>
        <time>2021-06-12T06:34:50Z</time>
      </trkpt>
      <trkpt lat="46.31321" lon="-1.2821">
        <ele>2</ele>
        <time>2021-06-12T06:34:54Z</time>
      </trkpt>
      <trkpt lat="46.31362" lon="-1.28251">
        <ele>2</ele>
        <time>2021-06-12T06:35:02Z</time>
      </trkpt>
      <trkpt lat="46.31383" lon="-1.28275">
        <ele>3</ele>
        <time>2021-06-12T06:35:07Z</time>
      </trkpt>
      <trkpt lat="46.31414" lon="-1.28317">
        <ele>4</ele>
        <time>2021-06-12T06:35:15Z</time>
      </trkpt>
      <trkpt lat="46.31459" lon="-1.28382">
        <ele>2</ele>
        <time>2021-06-12T06:35:26Z</time>
      </trkpt>
      <trkpt lat="46.31498" lon="-1.28437">
        <ele>1</ele>
        <time>2021-06-12T06:35:36Z</time>
      </trkpt>
      <trkpt lat="46.31501" lon="-1.28442">
        <ele>2</ele>
        <time>2021-06-12T06:35:37Z</time>
      </trkpt>
      <trkpt lat="46.31495" lon="-1.28449">
        <ele>2</ele>
        <time>2021-06-12T06:35:38Z</time>
      </trkpt>
      <trkpt lat="46.31451" lon="-1.28516">
        <ele>3</ele>
        <time>2021-06-12T06:35:49Z</time>
      </trkpt>
      <trkpt lat="46.3145" lon="-1.28524">
        <ele>3</ele>
        <time>2021-06-12T06:35:50Z</time>
      </trkpt>
      <trkpt lat="46.31452" lon="-1.28529">
        <ele>3</ele>
        <time>2021-06-12T06:35:51Z</time>
      </trkpt>
      <trkpt lat="46.31485" lon="-1.28564">
        <ele>3</ele>
        <time>2021-06-12T06:35:58Z</time>
      </trkpt>
      <trkpt lat="46.31514" lon="-1.28603">
        <ele>3</ele>
        <time>2021-06-12T06:36:05Z</time>
      </trkpt>
      <trkpt lat="46.31525" lon="-1.28622">
        <ele>3</ele>
        <time>2021-06-12T06:36:08Z</time>
      </trkpt>
      <trkpt lat="46.3165" lon="-1.28789">
        <ele>3</ele>
        <time>2021-06-12T06:36:39Z</time>
      </trkpt>
      <trkpt lat="46.31747" lon="-1.28911">
        <ele>4</ele>
        <time>2021-06-12T06:37:02Z</time>
      </trkpt>
      <trkpt lat="46.31781" lon="-1.2896">
        <ele>4</ele>
        <time>2021-06-12T06:37:10Z</time>
      </trkpt>
      <trkpt lat="46.31871" lon="-1.2908">
        <ele>4</ele>
        <time>2021-06-12T06:37:32Z</time>
      </trkpt>
      <trkpt lat="46.31906" lon="-1.29135">
        <ele>4</ele>
        <time>2021-06-12T06:37:41Z</time>
      </trkpt>
      <trkpt lat="46.31988" lon="-1.29208">
        <ele>4</ele>
        <time>2021-06-12T06:37:58Z</time>
      </trkpt>
      <trkpt lat="46.31998" lon="-1.29209">
        <ele>4</ele>
        <time>2021-06-12T06:38:00Z</time>
      </trkpt>
      <trkpt lat="46.32004" lon="-1.29207">
        <ele>4</ele>
        <time>2021-06-12T06:38:01Z</time>
      </trkpt>
      <trkpt lat="46.3201" lon="-1.29215">
        <ele>4</ele>
        <time>2021-06-12T06:38:03Z</time>
      </trkpt>
      <trkpt lat="46.32029" lon="-1.29234">
        <ele>4</ele>
        <time>2021-06-12T06:38:07Z</time>
      </trkpt>
      <trkpt lat="46.32071" lon="-1.29264">
        <ele>3</ele>
        <time>2021-06-12T06:38:15Z</time>
      </trkpt>
      <trkpt lat="46.3221" lon="-1.29346">
        <ele>3</ele>
        <time>2021-06-12T06:38:42Z</time>
      </trkpt>
      <trkpt lat="46.32232" lon="-1.29361">
        <ele>3</ele>
        <time>2021-06-12T06:38:46Z</time>
      </trkpt>
      <trkpt lat="46.32249" lon="-1.29375">
        <ele>3</ele>
        <time>2021-06-12T06:38:49Z</time>
      </trkpt>
      <trkpt lat="46.3227" lon="-1.29395">
        <ele>3</ele>
        <time>2021-06-12T06:38:54Z</time>
      </trkpt>
      <trkpt lat="46.32289" lon="-1.29417">
        <ele>3</ele>
        <time>2021-06-12T06:38:58Z</time>
      </trkpt>
      <trkpt lat="46.32444" lon="-1.29604">
        <ele>4</ele>
        <time>2021-06-12T06:39:34Z</time>
      </trkpt>
      <trkpt lat="46.32463" lon="-1.29627">
        <ele>3</ele>
        <time>2021-06-12T06:39:39Z</time>
      </trkpt>
      <trkpt lat="46.32583" lon="-1.29737">
        <ele>3</ele>
        <time>2021-06-12T06:40:04Z</time>
      </trkpt>
      <trkpt lat="46.32663" lon="-1.29814">
        <ele>4</ele>
        <time>2021-06-12T06:40:21Z</time>
      </trkpt>
      <trkpt lat="46.32679" lon="-1.29831">
        <ele>4</ele>
        <time>2021-06-12T06:40:24Z</time>
      </trkpt>
      <trkpt lat="46.32693" lon="-1.29849">
        <ele>4</ele>
        <time>2021-06-12T06:40:28Z</time>
      </trkpt>
      <trkpt lat="46.32704" lon="-1.29862">
        <ele>4</ele>
        <time>2021-06-12T06:40:30Z</time>
      </trkpt>
      <trkpt lat="46.32737" lon="-1.29901">
        <ele>3</ele>
        <time>2021-06-12T06:40:38Z</time>
      </trkpt>
      <trkpt lat="46.32749" lon="-1.29914">
        <ele>3</ele>
        <time>2021-06-12T06:40:41Z</time>
      </trkpt>
      <trkpt lat="46.32796" lon="-1.29986">
        <ele>3</ele>
        <time>2021-06-12T06:40:53Z</time>
      </trkpt>
      <trkpt lat="46.32799" lon="-1.29983">
        <ele>3</ele>
        <time>2021-06-12T06:40:53Z</time>
      </trkpt>
      <trkpt lat="46.32803" lon="-1.29983">
        <ele>3</ele>
        <time>2021-06-12T06:40:54Z</time>
      </trkpt>
      <trkpt lat="46.32806" lon="-1.29987">
        <ele>3</ele>
        <time>2021-06-12T06:40:55Z</time>
      </trkpt>
      <trkpt lat="46.32808" lon="-1.29991">
        <ele>3</ele>
        <time>2021-06-12T06:40:55Z</time>
      </trkpt>
      <trkpt lat="46.32806" lon="-1.30001">
        <ele>3</ele>
        <time>2021-06-12T06:40:57Z</time>
      </trkpt>
      <trkpt lat="46.32893" lon="-1.30128">
        <ele>4</ele>
        <time>2021-06-12T06:41:19Z</time>
      </trkpt>
      <trkpt lat="46.32905" lon="-1.30149">
        <ele>4</ele>
        <time>2021-06-12T06:41:22Z</time>
      </trkpt>
      <trkpt lat="46.32908" lon="-1.30148">
        <ele>4</ele>
        <time>2021-06-12T06:41:23Z</time>
      </trkpt>
      <trkpt lat="46.32911" lon="-1.3015">
        <ele>4</ele>
        <time>2021-06-12T06:41:23Z</time>
      </trkpt>
      <trkpt lat="46.32932" lon="-1.3018">
        <ele>4</ele>
        <time>2021-06-12T06:41:28Z</time>
      </trkpt>
      <trkpt lat="46.32934" lon="-1.30185">
        <ele>4</ele>
        <time>2021-06-12T06:41:29Z</time>
      </trkpt>
      <trkpt lat="46.32934" lon="-1.30191">
        <ele>4</ele>
        <time>2021-06-12T06:41:30Z</time>
      </trkpt>
      <trkpt lat="46.3293" lon="-1.30194">
        <ele>4</ele>
        <time>2021-06-12T06:41:31Z</time>
      </trkpt>
      <trkpt lat="46.32935" lon="-1.30211">
        <ele>4</ele>
        <time>2021-06-12T06:41:33Z</time>
      </trkpt>
      <trkpt lat="46.32982" lon="-1.30309">
        <ele>3</ele>
        <time>2021-06-12T06:41:48Z</time>
      </trkpt>
      <trkpt lat="46.32992" lon="-1.30325">
        <ele>3</ele>
        <time>2021-06-12T06:41:50Z</time>
      </trkpt>
      <trkpt lat="46.33134" lon="-1.30507">
        <ele>3</ele>
        <time>2021-06-12T06:42:24Z</time>
      </trkpt>
      <trkpt lat="46.33171" lon="-1.30571">
        <ele>4</ele>
        <time>2021-06-12T06:42:34Z</time>
      </trkpt>
      <trkpt lat="46.33229" lon="-1.30665">
        <ele>4</ele>
        <time>2021-06-12T06:42:50Z</time>
      </trkpt>
      <trkpt lat="46.33313" lon="-1.3081">
        <ele>2</ele>
        <time>2021-06-12T06:43:13Z</time>
      </trkpt>
      <trkpt lat="46.33341" lon="-1.30886">
        <ele>3</ele>
        <time>2021-06-12T06:43:24Z</time>
      </trkpt>
      <trkpt lat="46.33347" lon="-1.30885">
        <ele>3</ele>
        <time>2021-06-12T06:43:25Z</time>
      </trkpt>
      <trkpt lat="46.33349" lon="-1.30887">
        <ele>3</ele>
        <time>2021-06-12T06:43:25Z</time>
      </trkpt>
      <trkpt lat="46.3335" lon="-1.30892">
        <ele>3</ele>
        <time>2021-06-12T06:43:26Z</time>
      </trkpt>
      <trkpt lat="46.33347" lon="-1.30899">
        <ele>3</ele>
        <time>2021-06-12T06:43:27Z</time>
      </trkpt>
      <trkpt lat="46.33391" lon="-1.30978">
        <ele>2</ele>
        <time>2021-06-12T06:43:39Z</time>
      </trkpt>
      <trkpt lat="46.33448" lon="-1.31095">
        <ele>2</ele>
        <time>2021-06-12T06:43:57Z</time>
      </trkpt>
      <trkpt lat="46.33462" lon="-1.31135">
        <ele>3</ele>
        <time>2021-06-12T06:44:02Z</time>
      </trkpt>
      <trkpt lat="46.33496" lon="-1.31258">
        <ele>5</ele>
        <time>2021-06-12T06:44:19Z</time>
      </trkpt>
      <trkpt lat="46.33507" lon="-1.31284">
        <ele>5</ele>
        <time>2021-06-12T06:44:22Z</time>
      </trkpt>
      <trkpt lat="46.3358" lon="-1.31428">
        <ele>6</ele>
        <time>2021-06-12T06:44:44Z</time>
      </trkpt>
      <trkpt lat="46.33586" lon="-1.31436">
        <ele>5</ele>
        <time>2021-06-12T06:44:46Z</time>
      </trkpt>
      <trkpt lat="46.33594" lon="-1.31439">
        <ele>5</ele>
        <time>2021-06-12T06:44:47Z</time>
      </trkpt>
      <trkpt lat="46.33597" lon="-1.31443">
        <ele>5</ele>
        <time>2021-06-12T06:44:48Z</time>
      </trkpt>
      <trkpt lat="46.33601" lon="-1.31455">
        <ele>5</ele>
        <time>2021-06-12T06:44:50Z</time>
      </trkpt>
      <trkpt lat="46.336" lon="-1.31469">
        <ele>5</ele>
        <time>2021-06-12T06:44:51Z</time>
      </trkpt>
      <trkpt lat="46.33593" lon="-1.3148">
        <ele>4</ele>
        <time>2021-06-12T06:44:53Z</time>
      </trkpt>
      <trkpt lat="46.33577" lon="-1.31484">
        <ele>4</ele>
        <time>2021-06-12T06:44:56Z</time>
      </trkpt>
      <trkpt lat="46.33569" lon="-1.31492">
        <ele>4</ele>
        <time>2021-06-12T06:44:58Z</time>
      </trkpt>
      <trkpt lat="46.33563" lon="-1.31503">
        <ele>3</ele>
        <time>2021-06-12T06:44:59Z</time>
      </trkpt>
      <trkpt lat="46.33562" lon="-1.31505">
        <ele>3</ele>
        <time>2021-06-12T06:45:00Z</time>
      </trkpt>
      <trkpt lat="46.33533" lon="-1.31566">
        <ele>2</ele>
        <time>2021-06-12T06:45:09Z</time>
      </trkpt>
      <trkpt lat="46.33523" lon="-1.31586">
        <ele>1</ele>
        <time>2021-06-12T06:45:12Z</time>
      </trkpt>
      <trkpt lat="46.33447" lon="-1.31749">
        <ele>2</ele>
        <time>2021-06-12T06:45:36Z</time>
      </trkpt>
      <trkpt lat="46.3338" lon="-1.31894">
        <ele>2</ele>
        <time>2021-06-12T06:45:57Z</time>
      </trkpt>
      <trkpt lat="46.33372" lon="-1.31912">
        <ele>2</ele>
        <time>2021-06-12T06:46:00Z</time>
      </trkpt>
      <trkpt lat="46.33357" lon="-1.31941">
        <ele>2</ele>
        <time>2021-06-12T06:46:05Z</time>
      </trkpt>
      <trkpt lat="46.33353" lon="-1.31948">
        <ele>2</ele>
        <time>2021-06-12T06:46:06Z</time>
      </trkpt>
      <trkpt lat="46.33353" lon="-1.31954">
        <ele>2</ele>
        <time>2021-06-12T06:46:06Z</time>
      </trkpt>
      <trkpt lat="46.33349" lon="-1.31963">
        <ele>2</ele>
        <time>2021-06-12T06:46:08Z</time>
      </trkpt>
      <trkpt lat="46.33345" lon="-1.31965">
        <ele>2</ele>
        <time>2021-06-12T06:46:08Z</time>
      </trkpt>
      <trkpt lat="46.33342" lon="-1.31974">
        <ele>2</ele>
        <time>2021-06-12T06:46:10Z</time>
      </trkpt>
      <trkpt lat="46.33335" lon="-1.32004">
        <ele>2</ele>
        <time>2021-06-12T06:46:14Z</time>
      </trkpt>
      <trkpt lat="46.33333" lon="-1.32009">
        <ele>2</ele>
        <time>2021-06-12T06:46:14Z</time>
      </trkpt>
      <trkpt lat="46.33327" lon="-1.3202">
        <ele>2</ele>
        <time>2021-06-12T06:46:16Z</time>
      </trkpt>
      <trkpt lat="46.33326" lon="-1.32026">
        <ele>2</ele>
        <time>2021-06-12T06:46:17Z</time>
      </trkpt>
      <trkpt lat="46.33321" lon="-1.32037">
        <ele>3</ele>
        <time>2021-06-12T06:46:18Z</time>
      </trkpt>
      <trkpt lat="46.33319" lon="-1.32046">
        <ele>3</ele>
        <time>2021-06-12T06:46:20Z</time>
      </trkpt>
      <trkpt lat="46.3331" lon="-1.32071">
        <ele>3</ele>
        <time>2021-06-12T06:46:23Z</time>
      </trkpt>
      <trkpt lat="46.33291" lon="-1.32122">
        <ele>4</ele>
        <time>2021-06-12T06:46:30Z</time>
      </trkpt>
      <trkpt lat="46.33288" lon="-1.32131">
        <ele>4</ele>
        <time>2021-06-12T06:46:31Z</time>
      </trkpt>
      <trkpt lat="46.33286" lon="-1.32138">
        <ele>4</ele>
        <time>2021-06-12T06:46:32Z</time>
      </trkpt>
      <trkpt lat="46.33287" lon="-1.32148">
        <ele>4</ele>
        <time>2021-06-12T06:46:34Z</time>
      </trkpt>
      <trkpt lat="46.33289" lon="-1.32164">
        <ele>4</ele>
        <time>2021-06-12T06:46:36Z</time>
      </trkpt>
      <trkpt lat="46.3329" lon="-1.32173">
        <ele>4</ele>
        <time>2021-06-12T06:46:37Z</time>
      </trkpt>
      <trkpt lat="46.33293" lon="-1.32177">
        <ele>3</ele>
        <time>2021-06-12T06:46:37Z</time>
      </trkpt>
      <trkpt lat="46.33296" lon="-1.32189">
        <ele>3</ele>
        <time>2021-06-12T06:46:39Z</time>
      </trkpt>
      <trkpt lat="46.33295" lon="-1.32195">
        <ele>3</ele>
        <time>2021-06-12T06:46:40Z</time>
      </trkpt>
      <trkpt lat="46.33292" lon="-1.32201">
        <ele>3</ele>
        <time>2021-06-12T06:46:41Z</time>
      </trkpt>
      <trkpt lat="46.33292" lon="-1.3221">
        <ele>3</ele>
        <time>2021-06-12T06:46:42Z</time>
      </trkpt>
      <trkpt lat="46.33292" lon="-1.32225">
        <ele>3</ele>
        <time>2021-06-12T06:46:44Z</time>
      </trkpt>
      <trkpt lat="46.33293" lon="-1.32237">
        <ele>3</ele>
        <time>2021-06-12T06:46:45Z</time>
      </trkpt>
      <trkpt lat="46.33293" lon="-1.32249">
        <ele>3</ele>
        <time>2021-06-12T06:46:47Z</time>
      </trkpt>
      <trkpt lat="46.33307" lon="-1.32281">
        <ele>4</ele>
        <time>2021-06-12T06:46:51Z</time>
      </trkpt>
      <trkpt lat="46.3331" lon="-1.32287">
        <ele>4</ele>
        <time>2021-06-12T06:46:52Z</time>
      </trkpt>
      <trkpt lat="46.33341" lon="-1.32355">
        <ele>4</ele>
        <time>2021-06-12T06:47:02Z</time>
      </trkpt>
      <trkpt lat="46.33359" lon="-1.32395">
        <ele>3</ele>
        <time>2021-06-12T06:47:08Z</time>
      </trkpt>
      <trkpt lat="46.33369" lon="-1.32417">
        <ele>3</ele>
        <time>2021-06-12T06:47:11Z</time>
      </trkpt>
      <trkpt lat="46.33393" lon="-1.32469">
        <ele>3</ele>
        <time>2021-06-12T06:47:19Z</time>
      </trkpt>
      <trkpt lat="46.33395" lon="-1.32476">
        <ele>3</ele>
        <time>2021-06-12T06:47:20Z</time>
      </trkpt>
      <trkpt lat="46.33398" lon="-1.32482">
        <ele>3</ele>
        <time>2021-06-12T06:47:21Z</time>
      </trkpt>
      <trkpt lat="46.33421" lon="-1.32531">
        <ele>3</ele>
        <time>2021-06-12T06:47:28Z</time>
      </trkpt>
      <trkpt lat="46.33424" lon="-1.32538">
        <ele>3</ele>
        <time>2021-06-12T06:47:29Z</time>
      </trkpt>
      <trkpt lat="46.33445" lon="-1.32584">
        <ele>3</ele>
        <time>2021-06-12T06:47:36Z</time>
      </trkpt>
      <trkpt lat="46.33478" lon="-1.32655">
        <ele>2</ele>
        <time>2021-06-12T06:47:46Z</time>
      </trkpt>
      <trkpt lat="46.33489" lon="-1.32681">
        <ele>2</ele>
        <time>2021-06-12T06:47:50Z</time>
      </trkpt>
      <trkpt lat="46.33496" lon="-1.32695">
        <ele>2</ele>
        <time>2021-06-12T06:47:52Z</time>
      </trkpt>
      <trkpt lat="46.33498" lon="-1.327">
        <ele>2</ele>
        <time>2021-06-12T06:47:53Z</time>
      </trkpt>
      <trkpt lat="46.33532" lon="-1.32774">
        <ele>3</ele>
        <time>2021-06-12T06:48:04Z</time>
      </trkpt>
      <trkpt lat="46.33537" lon="-1.32786">
        <ele>3</ele>
        <time>2021-06-12T06:48:06Z</time>
      </trkpt>
      <trkpt lat="46.33596" lon="-1.32916">
        <ele>4</ele>
        <time>2021-06-12T06:48:25Z</time>
      </trkpt>
      <trkpt lat="46.33602" lon="-1.3293">
        <ele>3</ele>
        <time>2021-06-12T06:48:27Z</time>
      </trkpt>
      <trkpt lat="46.33603" lon="-1.32933">
        <ele>3</ele>
        <time>2021-06-12T06:48:27Z</time>
      </trkpt>
      <trkpt lat="46.33617" lon="-1.32965">
        <ele>3</ele>
        <time>2021-06-12T06:48:32Z</time>
      </trkpt>
      <trkpt lat="46.33625" lon="-1.32998">
        <ele>3</ele>
        <time>2021-06-12T06:48:36Z</time>
      </trkpt>
      <trkpt lat="46.33627" lon="-1.33013">
        <ele>3</ele>
        <time>2021-06-12T06:48:38Z</time>
      </trkpt>
      <trkpt lat="46.33628" lon="-1.33028">
        <ele>3</ele>
        <time>2021-06-12T06:48:40Z</time>
      </trkpt>
      <trkpt lat="46.33626" lon="-1.33066">
        <ele>3</ele>
        <time>2021-06-12T06:48:44Z</time>
      </trkpt>
      <trkpt lat="46.33617" lon="-1.33124">
        <ele>3</ele>
        <time>2021-06-12T06:48:52Z</time>
      </trkpt>
      <trkpt lat="46.33615" lon="-1.33138">
        <ele>3</ele>
        <time>2021-06-12T06:48:54Z</time>
      </trkpt>
      <trkpt lat="46.33607" lon="-1.3319">
        <ele>3</ele>
        <time>2021-06-12T06:49:00Z</time>
      </trkpt>
      <trkpt lat="46.33597" lon="-1.33254">
        <ele>3</ele>
        <time>2021-06-12T06:49:08Z</time>
      </trkpt>
      <trkpt lat="46.33596" lon="-1.33263">
        <ele>3</ele>
        <time>2021-06-12T06:49:09Z</time>
      </trkpt>
      <trkpt lat="46.33593" lon="-1.33306">
        <ele>3</ele>
        <time>2021-06-12T06:49:15Z</time>
      </trkpt>
      <trkpt lat="46.33593" lon="-1.33317">
        <ele>3</ele>
        <time>2021-06-12T06:49:16Z</time>
      </trkpt>
      <trkpt lat="46.33596" lon="-1.33318">
        <ele>3</ele>
        <time>2021-06-12T06:49:16Z</time>
      </trkpt>
      <trkpt lat="46.33601" lon="-1.33325">
        <ele>3</ele>
        <time>2021-06-12T06:49:18Z</time>
      </trkpt>
      <trkpt lat="46.336" lon="-1.33336">
        <ele>3</ele>
        <time>2021-06-12T06:49:19Z</time>
      </trkpt>
      <trkpt lat="46.33598" lon="-1.33339">
        <ele>3</ele>
        <time>2021-06-12T06:49:20Z</time>
      </trkpt>
      <trkpt lat="46.33604" lon="-1.33351">
        <ele>3</ele>
        <time>2021-06-12T06:49:21Z</time>
      </trkpt>
      <trkpt lat="46.3362" lon="-1.33377">
        <ele>2</ele>
        <time>2021-06-12T06:49:26Z</time>
      </trkpt>
      <trkpt lat="46.33681" lon="-1.3346">
        <ele>1</ele>
        <time>2021-06-12T06:49:41Z</time>
      </trkpt>
      <trkpt lat="46.33716" lon="-1.33509">
        <ele>2</ele>
        <time>2021-06-12T06:49:49Z</time>
      </trkpt>
      <trkpt lat="46.33779" lon="-1.33595">
        <ele>2</ele>
        <time>2021-06-12T06:50:05Z</time>
      </trkpt>
      <trkpt lat="46.33789" lon="-1.33607">
        <ele>2</ele>
        <time>2021-06-12T06:50:07Z</time>
      </trkpt>
      <trkpt lat="46.33925" lon="-1.33768">
        <ele>1</ele>
        <time>2021-06-12T06:50:38Z</time>
      </trkpt>
      <trkpt lat="46.33934" lon="-1.33779">
        <ele>1</ele>
        <time>2021-06-12T06:50:40Z</time>
      </trkpt>
      <trkpt lat="46.34013" lon="-1.33877">
        <ele>1</ele>
        <time>2021-06-12T06:50:59Z</time>
      </trkpt>
      <trkpt lat="46.34026" lon="-1.33893">
        <ele>1</ele>
        <time>2021-06-12T06:51:02Z</time>
      </trkpt>
      <trkpt lat="46.34062" lon="-1.33935">
        <ele>1</ele>
        <time>2021-06-12T06:51:10Z</time>
      </trkpt>
      <trkpt lat="46.34081" lon="-1.33959">
        <ele>1</ele>
        <time>2021-06-12T06:51:15Z</time>
      </trkpt>
      <trkpt lat="46.3409" lon="-1.33972">
        <ele>3</ele>
        <time>2021-06-12T06:51:17Z</time>
      </trkpt>
      <trkpt lat="46.34099" lon="-1.33985">
        <ele>3.3</ele>
        <time>2021-06-12T06:51:19Z</time>
      </trkpt>
      <trkpt lat="46.34236" lon="-1.34215">
        <ele>1</ele>
        <time>2021-06-12T06:51:56Z</time>
      </trkpt>
      <trkpt lat="46.3431" lon="-1.34333">
        <ele>3</ele>
        <time>2021-06-12T06:52:16Z</time>
      </trkpt>
      <trkpt lat="46.34324" lon="-1.34356">
        <ele>3</ele>
        <time>2021-06-12T06:52:20Z</time>
      </trkpt>
      <trkpt lat="46.34332" lon="-1.34373">
        <ele>3</ele>
        <time>2021-06-12T06:52:22Z</time>
      </trkpt>
      <trkpt lat="46.34348" lon="-1.34419">
        <ele>4</ele>
        <time>2021-06-12T06:52:29Z</time>
      </trkpt>
      <trkpt lat="46.34351" lon="-1.34431">
        <ele>3</ele>
        <time>2021-06-12T06:52:30Z</time>
      </trkpt>
      <trkpt lat="46.34356" lon="-1.34449">
        <ele>3</ele>
        <time>2021-06-12T06:52:33Z</time>
      </trkpt>
      <trkpt lat="46.34363" lon="-1.34481">
        <ele>3</ele>
        <time>2021-06-12T06:52:37Z</time>
      </trkpt>
      <trkpt lat="46.34385" lon="-1.34584">
        <ele>4</ele>
        <time>2021-06-12T06:52:50Z</time>
      </trkpt>
      <trkpt lat="46.34391" lon="-1.34611">
        <ele>5</ele>
        <time>2021-06-12T06:52:53Z</time>
      </trkpt>
      <trkpt lat="46.34408" lon="-1.34686">
        <ele>5</ele>
        <time>2021-06-12T06:53:03Z</time>
      </trkpt>
      <trkpt lat="46.34416" lon="-1.34715">
        <ele>4</ele>
        <time>2021-06-12T06:53:07Z</time>
      </trkpt>
      <trkpt lat="46.34427" lon="-1.34743">
        <ele>4</ele>
        <time>2021-06-12T06:53:11Z</time>
      </trkpt>
      <trkpt lat="46.34431" lon="-1.34753">
        <ele>4</ele>
        <time>2021-06-12T06:53:12Z</time>
      </trkpt>
      <trkpt lat="46.34439" lon="-1.34773">
        <ele>4</ele>
        <time>2021-06-12T06:53:15Z</time>
      </trkpt>
      <trkpt lat="46.34499" lon="-1.3489">
        <ele>5</ele>
        <time>2021-06-12T06:53:33Z</time>
      </trkpt>
      <trkpt lat="46.34532" lon="-1.3495">
        <ele>5</ele>
        <time>2021-06-12T06:53:42Z</time>
      </trkpt>
      <trkpt lat="46.34558" lon="-1.34998">
        <ele>5</ele>
        <time>2021-06-12T06:53:50Z</time>
      </trkpt>
      <trkpt lat="46.34564" lon="-1.3501">
        <ele>5</ele>
        <time>2021-06-12T06:53:52Z</time>
      </trkpt>
      <trkpt lat="46.3458" lon="-1.3504">
        <ele>5</ele>
        <time>2021-06-12T06:53:56Z</time>
      </trkpt>
      <trkpt lat="46.34582" lon="-1.35044">
        <ele>5</ele>
        <time>2021-06-12T06:53:57Z</time>
      </trkpt>
      <trkpt lat="46.34681" lon="-1.35225">
        <ele>5</ele>
        <time>2021-06-12T06:54:25Z</time>
      </trkpt>
      <trkpt lat="46.34701" lon="-1.35274">
        <ele>6</ele>
        <time>2021-06-12T06:54:32Z</time>
      </trkpt>
      <trkpt lat="46.34707" lon="-1.35292">
        <ele>7</ele>
        <time>2021-06-12T06:54:35Z</time>
      </trkpt>
      <trkpt lat="46.34773" lon="-1.35535">
        <ele>6</ele>
        <time>2021-06-12T06:55:07Z</time>
      </trkpt>
      <trkpt lat="46.34789" lon="-1.35591">
        <ele>6</ele>
        <time>2021-06-12T06:55:14Z</time>
      </trkpt>
      <trkpt lat="46.34796" lon="-1.35617">
        <ele>6</ele>
        <time>2021-06-12T06:55:18Z</time>
      </trkpt>
      <trkpt lat="46.34805" lon="-1.35651">
        <ele>5</ele>
        <time>2021-06-12T06:55:22Z</time>
      </trkpt>
      <trkpt lat="46.3481" lon="-1.35667">
        <ele>5</ele>
        <time>2021-06-12T06:55:24Z</time>
      </trkpt>
      <trkpt lat="46.34857" lon="-1.35841">
        <ele>5</ele>
        <time>2021-06-12T06:55:47Z</time>
      </trkpt>
      <trkpt lat="46.34871" lon="-1.35901">
        <ele>5</ele>
        <time>2021-06-12T06:55:55Z</time>
      </trkpt>
      <trkpt lat="46.34873" lon="-1.35916">
        <ele>6</ele>
        <time>2021-06-12T06:55:57Z</time>
      </trkpt>
      <trkpt lat="46.34878" lon="-1.35966">
        <ele>6</ele>
        <time>2021-06-12T06:56:03Z</time>
      </trkpt>
      <trkpt lat="46.34879" lon="-1.35978">
        <ele>6</ele>
        <time>2021-06-12T06:56:05Z</time>
      </trkpt>
      <trkpt lat="46.34885" lon="-1.36065">
        <ele>5</ele>
        <time>2021-06-12T06:56:15Z</time>
      </trkpt>
      <trkpt lat="46.34888" lon="-1.36115">
        <ele>5</ele>
        <time>2021-06-12T06:56:22Z</time>
      </trkpt>
      <trkpt lat="46.34889" lon="-1.36134">
        <ele>5</ele>
        <time>2021-06-12T06:56:24Z</time>
      </trkpt>
      <trkpt lat="46.3489" lon="-1.3616">
        <ele>4</ele>
        <time>2021-06-12T06:56:27Z</time>
      </trkpt>
      <trkpt lat="46.34891" lon="-1.36255">
        <ele>3</ele>
        <time>2021-06-12T06:56:39Z</time>
      </trkpt>
      <trkpt lat="46.34896" lon="-1.36402">
        <ele>4</ele>
        <time>2021-06-12T06:56:57Z</time>
      </trkpt>
      <trkpt lat="46.34897" lon="-1.36478">
        <ele>3</ele>
        <time>2021-06-12T06:57:06Z</time>
      </trkpt>
      <trkpt lat="46.349" lon="-1.36583">
        <ele>3</ele>
        <time>2021-06-12T06:57:19Z</time>
      </trkpt>
      <trkpt lat="46.34904" lon="-1.3662">
        <ele>2</ele>
        <time>2021-06-12T06:57:24Z</time>
      </trkpt>
      <trkpt lat="46.34908" lon="-1.36634">
        <ele>2</ele>
        <time>2021-06-12T06:57:26Z</time>
      </trkpt>
      <trkpt lat="46.34917" lon="-1.36648">
        <ele>3</ele>
        <time>2021-06-12T06:57:28Z</time>
      </trkpt>
      <trkpt lat="46.34929" lon="-1.36669">
        <ele>3</ele>
        <time>2021-06-12T06:57:31Z</time>
      </trkpt>
      <trkpt lat="46.34939" lon="-1.36678">
        <ele>3</ele>
        <time>2021-06-12T06:57:33Z</time>
      </trkpt>
      <trkpt lat="46.34942" lon="-1.36681">
        <ele>3</ele>
        <time>2021-06-12T06:57:34Z</time>
      </trkpt>
      <trkpt lat="46.34946" lon="-1.3668">
        <ele>3</ele>
        <time>2021-06-12T06:57:35Z</time>
      </trkpt>
      <trkpt lat="46.3495" lon="-1.3668">
        <ele>3</ele>
        <time>2021-06-12T06:57:35Z</time>
      </trkpt>
      <trkpt lat="46.34952" lon="-1.36681">
        <ele>3</ele>
        <time>2021-06-12T06:57:36Z</time>
      </trkpt>
      <trkpt lat="46.34955" lon="-1.36684">
        <ele>3</ele>
        <time>2021-06-12T06:57:36Z</time>
      </trkpt>
      <trkpt lat="46.34958" lon="-1.36688">
        <ele>3</ele>
        <time>2021-06-12T06:57:37Z</time>
      </trkpt>
      <trkpt lat="46.34961" lon="-1.36694">
        <ele>3</ele>
        <time>2021-06-12T06:57:38Z</time>
      </trkpt>
      <trkpt lat="46.34968" lon="-1.36691">
        <ele>3</ele>
        <time>2021-06-12T06:57:39Z</time>
      </trkpt>
      <trkpt lat="46.34974" lon="-1.3669">
        <ele>3</ele>
        <time>2021-06-12T06:57:40Z</time>
      </trkpt>
      <trkpt lat="46.34975" lon="-1.36695">
        <ele>3</ele>
        <time>2021-06-12T06:57:41Z</time>
      </trkpt>
      <trkpt lat="46.34977" lon="-1.36703">
        <ele>3</ele>
        <time>2021-06-12T06:57:42Z</time>
      </trkpt>
      <trkpt lat="46.35002" lon="-1.36705">
        <ele>3</ele>
        <time>2021-06-12T06:57:47Z</time>
      </trkpt>
      <trkpt lat="46.35039" lon="-1.36722">
        <ele>3</ele>
        <time>2021-06-12T06:57:54Z</time>
      </trkpt>
      <trkpt lat="46.35177" lon="-1.36796">
        <ele>1</ele>
        <time>2021-06-12T06:58:20Z</time>
      </trkpt>
      <trkpt lat="46.35184" lon="-1.36803">
        <ele>1</ele>
        <time>2021-06-12T06:58:21Z</time>
      </trkpt>
      <trkpt lat="46.35194" lon="-1.36828">
        <ele>1</ele>
        <time>2021-06-12T06:58:25Z</time>
      </trkpt>
      <trkpt lat="46.35208" lon="-1.36845">
        <ele>1</ele>
        <time>2021-06-12T06:58:28Z</time>
      </trkpt>
      <trkpt lat="46.35212" lon="-1.36857">
        <ele>1</ele>
        <time>2021-06-12T06:58:30Z</time>
      </trkpt>
      <trkpt lat="46.35226" lon="-1.36973">
        <ele>1</ele>
        <time>2021-06-12T06:58:44Z</time>
      </trkpt>
      <trkpt lat="46.35406" lon="-1.38072">
        <ele>1</ele>
        <time>2021-06-12T07:01:03Z</time>
      </trkpt>
      <trkpt lat="46.35422" lon="-1.38182">
        <ele>2</ele>
        <time>2021-06-12T07:01:17Z</time>
      </trkpt>
      <trkpt lat="46.35427" lon="-1.38229">
        <ele>2</ele>
        <time>2021-06-12T07:01:22Z</time>
      </trkpt>
      <trkpt lat="46.35429" lon="-1.38257">
        <ele>2</ele>
        <time>2021-06-12T07:01:26Z</time>
      </trkpt>
      <trkpt lat="46.35436" lon="-1.38368">
        <ele>2</ele>
        <time>2021-06-12T07:01:40Z</time>
      </trkpt>
      <trkpt lat="46.35437" lon="-1.38444">
        <ele>1</ele>
        <time>2021-06-12T07:01:49Z</time>
      </trkpt>
      <trkpt lat="46.35436" lon="-1.38565">
        <ele>1</ele>
        <time>2021-06-12T07:02:04Z</time>
      </trkpt>
      <trkpt lat="46.35424" lon="-1.38734">
        <ele>1</ele>
        <time>2021-06-12T07:02:25Z</time>
      </trkpt>
      <trkpt lat="46.35349" lon="-1.39254">
        <ele>2</ele>
        <time>2021-06-12T07:03:30Z</time>
      </trkpt>
      <trkpt lat="46.35348" lon="-1.39274">
        <ele>2</ele>
        <time>2021-06-12T07:03:32Z</time>
      </trkpt>
      <trkpt lat="46.35334" lon="-1.39327">
        <ele>1</ele>
        <time>2021-06-12T07:03:39Z</time>
      </trkpt>
      <trkpt lat="46.35319" lon="-1.39491">
        <ele>1</ele>
        <time>2021-06-12T07:04:00Z</time>
      </trkpt>
      <trkpt lat="46.35312" lon="-1.39662">
        <ele>1</ele>
        <time>2021-06-12T07:04:21Z</time>
      </trkpt>
      <trkpt lat="46.3531" lon="-1.39731">
        <ele>1</ele>
        <time>2021-06-12T07:04:29Z</time>
      </trkpt>
      <trkpt lat="46.35311" lon="-1.39827">
        <ele>2</ele>
        <time>2021-06-12T07:04:41Z</time>
      </trkpt>
      <trkpt lat="46.35318" lon="-1.39908">
        <ele>2</ele>
        <time>2021-06-12T07:04:51Z</time>
      </trkpt>
      <trkpt lat="46.35322" lon="-1.39994">
        <ele>2</ele>
        <time>2021-06-12T07:05:02Z</time>
      </trkpt>
      <trkpt lat="46.35327" lon="-1.40049">
        <ele>1</ele>
        <time>2021-06-12T07:05:08Z</time>
      </trkpt>
      <trkpt lat="46.35336" lon="-1.40294">
        <ele>1</ele>
        <time>2021-06-12T07:05:39Z</time>
      </trkpt>
      <trkpt lat="46.35335" lon="-1.40336">
        <ele>1</ele>
        <time>2021-06-12T07:05:44Z</time>
      </trkpt>
      <trkpt lat="46.35329" lon="-1.40357">
        <ele>1</ele>
        <time>2021-06-12T07:05:46Z</time>
      </trkpt>
      <trkpt lat="46.35328" lon="-1.40364">
        <ele>1</ele>
        <time>2021-06-12T07:05:47Z</time>
      </trkpt>
      <trkpt lat="46.35328" lon="-1.40374">
        <ele>1</ele>
        <time>2021-06-12T07:05:49Z</time>
      </trkpt>
      <trkpt lat="46.35328" lon="-1.40386">
        <ele>1</ele>
        <time>2021-06-12T07:05:50Z</time>
      </trkpt>
      <trkpt lat="46.35331" lon="-1.4041">
        <ele>1</ele>
        <time>2021-06-12T07:05:53Z</time>
      </trkpt>
      <trkpt lat="46.35342" lon="-1.40556">
        <ele>1</ele>
        <time>2021-06-12T07:06:11Z</time>
      </trkpt>
      <trkpt lat="46.3535" lon="-1.40813">
        <ele>2</ele>
        <time>2021-06-12T07:06:43Z</time>
      </trkpt>
      <trkpt lat="46.35356" lon="-1.41131">
        <ele>2</ele>
        <time>2021-06-12T07:07:22Z</time>
      </trkpt>
      <trkpt lat="46.35356" lon="-1.41144">
        <ele>2</ele>
        <time>2021-06-12T07:07:23Z</time>
      </trkpt>
      <trkpt lat="46.35364" lon="-1.41595">
        <ele>1</ele>
        <time>2021-06-12T07:08:19Z</time>
      </trkpt>
      <trkpt lat="46.35364" lon="-1.41608">
        <ele>1</ele>
        <time>2021-06-12T07:08:20Z</time>
      </trkpt>
      <trkpt lat="46.35367" lon="-1.41801">
        <ele>2</ele>
        <time>2021-06-12T07:08:44Z</time>
      </trkpt>
      <trkpt lat="46.35375" lon="-1.42198">
        <ele>2</ele>
        <time>2021-06-12T07:09:33Z</time>
      </trkpt>
      <trkpt lat="46.35379" lon="-1.42256">
        <ele>2</ele>
        <time>2021-06-12T07:09:40Z</time>
      </trkpt>
      <trkpt lat="46.35392" lon="-1.4237">
        <ele>2</ele>
        <time>2021-06-12T07:09:54Z</time>
      </trkpt>
      <trkpt lat="46.35391" lon="-1.42384">
        <ele>2</ele>
        <time>2021-06-12T07:09:56Z</time>
      </trkpt>
      <trkpt lat="46.35389" lon="-1.4239">
        <ele>2</ele>
        <time>2021-06-12T07:09:57Z</time>
      </trkpt>
      <trkpt lat="46.35387" lon="-1.42397">
        <ele>2</ele>
        <time>2021-06-12T07:09:58Z</time>
      </trkpt>
      <trkpt lat="46.35384" lon="-1.42404">
        <ele>2</ele>
        <time>2021-06-12T07:09:59Z</time>
      </trkpt>
      <trkpt lat="46.35376" lon="-1.42414">
        <ele>2</ele>
        <time>2021-06-12T07:10:01Z</time>
      </trkpt>
      <trkpt lat="46.35365" lon="-1.42424">
        <ele>2</ele>
        <time>2021-06-12T07:10:03Z</time>
      </trkpt>
      <trkpt lat="46.35363" lon="-1.42436">
        <ele>2</ele>
        <time>2021-06-12T07:10:04Z</time>
      </trkpt>
      <trkpt lat="46.35363" lon="-1.42447">
        <ele>2</ele>
        <time>2021-06-12T07:10:06Z</time>
      </trkpt>
      <trkpt lat="46.35364" lon="-1.42454">
        <ele>2</ele>
        <time>2021-06-12T07:10:07Z</time>
      </trkpt>
      <trkpt lat="46.35366" lon="-1.42461">
        <ele>2</ele>
        <time>2021-06-12T07:10:08Z</time>
      </trkpt>
      <trkpt lat="46.35384" lon="-1.42476">
        <ele>2</ele>
        <time>2021-06-12T07:10:11Z</time>
      </trkpt>
      <trkpt lat="46.35388" lon="-1.42484">
        <ele>2</ele>
        <time>2021-06-12T07:10:12Z</time>
      </trkpt>
      <trkpt lat="46.35387" lon="-1.42501">
        <ele>2</ele>
        <time>2021-06-12T07:10:15Z</time>
      </trkpt>
      <trkpt lat="46.35383" lon="-1.42519">
        <ele>2</ele>
        <time>2021-06-12T07:10:17Z</time>
      </trkpt>
      <trkpt lat="46.35377" lon="-1.42534">
        <ele>2</ele>
        <time>2021-06-12T07:10:19Z</time>
      </trkpt>
      <trkpt lat="46.35303" lon="-1.42691">
        <ele>1</ele>
        <time>2021-06-12T07:10:42Z</time>
      </trkpt>
      <trkpt lat="46.35261" lon="-1.42776">
        <ele>1</ele>
        <time>2021-06-12T07:10:55Z</time>
      </trkpt>
      <trkpt lat="46.3524" lon="-1.42807">
        <ele>1</ele>
        <time>2021-06-12T07:11:01Z</time>
      </trkpt>
      <trkpt lat="46.35202" lon="-1.42842">
        <ele>1</ele>
        <time>2021-06-12T07:11:09Z</time>
      </trkpt>
      <trkpt lat="46.35198" lon="-1.42855">
        <ele>1</ele>
        <time>2021-06-12T07:11:10Z</time>
      </trkpt>
      <trkpt lat="46.35207" lon="-1.42863">
        <ele>1</ele>
        <time>2021-06-12T07:11:12Z</time>
      </trkpt>
      <trkpt lat="46.35217" lon="-1.42882">
        <ele>1</ele>
        <time>2021-06-12T07:11:15Z</time>
      </trkpt>
      <trkpt lat="46.3522" lon="-1.42896">
        <ele>1</ele>
        <time>2021-06-12T07:11:17Z</time>
      </trkpt>
      <trkpt lat="46.35218" lon="-1.42919">
        <ele>2</ele>
        <time>2021-06-12T07:11:20Z</time>
      </trkpt>
      <trkpt lat="46.35216" lon="-1.42926">
        <ele>2</ele>
        <time>2021-06-12T07:11:21Z</time>
      </trkpt>
      <trkpt lat="46.35206" lon="-1.42942">
        <ele>1</ele>
        <time>2021-06-12T07:11:23Z</time>
      </trkpt>
      <trkpt lat="46.352" lon="-1.42948">
        <ele>1</ele>
        <time>2021-06-12T07:11:25Z</time>
      </trkpt>
      <trkpt lat="46.35193" lon="-1.4295">
        <ele>1</ele>
        <time>2021-06-12T07:11:26Z</time>
      </trkpt>
      <trkpt lat="46.35191" lon="-1.42966">
        <ele>2</ele>
        <time>2021-06-12T07:11:28Z</time>
      </trkpt>
      <trkpt lat="46.35255" lon="-1.43127">
        <ele>1</ele>
        <time>2021-06-12T07:11:51Z</time>
      </trkpt>
      <trkpt lat="46.35255" lon="-1.43148">
        <ele>1</ele>
        <time>2021-06-12T07:11:53Z</time>
      </trkpt>
      <trkpt lat="46.35259" lon="-1.43152">
        <ele>1</ele>
        <time>2021-06-12T07:11:54Z</time>
      </trkpt>
      <trkpt lat="46.35265" lon="-1.43154">
        <ele>1</ele>
        <time>2021-06-12T07:11:55Z</time>
      </trkpt>
      <trkpt lat="46.35271" lon="-1.4316">
        <ele>1</ele>
        <time>2021-06-12T07:11:57Z</time>
      </trkpt>
      <trkpt lat="46.35312" lon="-1.43252">
        <ele>1</ele>
        <time>2021-06-12T07:12:10Z</time>
      </trkpt>
      <trkpt lat="46.35344" lon="-1.43317">
        <ele>2</ele>
        <time>2021-06-12T07:12:20Z</time>
      </trkpt>
      <trkpt lat="46.35375" lon="-1.4339">
        <ele>1</ele>
        <time>2021-06-12T07:12:30Z</time>
      </trkpt>
      <trkpt lat="46.35433" lon="-1.43539">
        <ele>2.8</ele>
        <time>2021-06-12T07:12:51Z</time>
      </trkpt>
      <trkpt lat="46.35657" lon="-1.44185">
        <ele>1</ele>
        <time>2021-06-12T07:14:20Z</time>
      </trkpt>
      <trkpt lat="46.3569" lon="-1.44273">
        <ele>1</ele>
        <time>2021-06-12T07:14:32Z</time>
      </trkpt>
      <trkpt lat="46.35729" lon="-1.44362">
        <ele>2</ele>
        <time>2021-06-12T07:14:45Z</time>
      </trkpt>
      <trkpt lat="46.35774" lon="-1.44449">
        <ele>2</ele>
        <time>2021-06-12T07:14:59Z</time>
      </trkpt>
      <trkpt lat="46.35988" lon="-1.44818">
        <ele>1</ele>
        <time>2021-06-12T07:15:58Z</time>
      </trkpt>
      <trkpt lat="46.36158" lon="-1.45105">
        <ele>1</ele>
        <time>2021-06-12T07:16:44Z</time>
      </trkpt>
      <trkpt lat="46.36162" lon="-1.45113">
        <ele>1</ele>
        <time>2021-06-12T07:16:46Z</time>
      </trkpt>
      <trkpt lat="46.36164" lon="-1.45128">
        <ele>2</ele>
        <time>2021-06-12T07:16:47Z</time>
      </trkpt>
      <trkpt lat="46.36161" lon="-1.45143">
        <ele>2</ele>
        <time>2021-06-12T07:16:49Z</time>
      </trkpt>
      <trkpt lat="46.36154" lon="-1.45154">
        <ele>2</ele>
        <time>2021-06-12T07:16:51Z</time>
      </trkpt>
      <trkpt lat="46.36147" lon="-1.45156">
        <ele>2</ele>
        <time>2021-06-12T07:16:52Z</time>
      </trkpt>
      <trkpt lat="46.3615" lon="-1.45168">
        <ele>2</ele>
        <time>2021-06-12T07:16:54Z</time>
      </trkpt>
      <trkpt lat="46.3618" lon="-1.45167">
        <ele>2</ele>
        <time>2021-06-12T07:16:59Z</time>
      </trkpt>
      <trkpt lat="46.36194" lon="-1.4517">
        <ele>2</ele>
        <time>2021-06-12T07:17:02Z</time>
      </trkpt>
      <trkpt lat="46.36204" lon="-1.4518">
        <ele>2</ele>
        <time>2021-06-12T07:17:04Z</time>
      </trkpt>
      <trkpt lat="46.36355" lon="-1.4542">
        <ele>2</ele>
        <time>2021-06-12T07:17:44Z</time>
      </trkpt>
      <trkpt lat="46.36414" lon="-1.45522">
        <ele>1</ele>
        <time>2021-06-12T07:18:00Z</time>
      </trkpt>
      <trkpt lat="46.36507" lon="-1.4565">
        <ele>2</ele>
        <time>2021-06-12T07:18:23Z</time>
      </trkpt>
      <trkpt lat="46.36588" lon="-1.45729">
        <ele>4</ele>
        <time>2021-06-12T07:18:40Z</time>
      </trkpt>
      <trkpt lat="46.36676" lon="-1.4579">
        <ele>4</ele>
        <time>2021-06-12T07:18:58Z</time>
      </trkpt>
      <trkpt lat="46.3685" lon="-1.45903">
        <ele>6</ele>
        <time>2021-06-12T07:19:32Z</time>
      </trkpt>
      <trkpt lat="46.3687" lon="-1.45921">
        <ele>6</ele>
        <time>2021-06-12T07:19:36Z</time>
      </trkpt>
      <trkpt lat="46.36887" lon="-1.45944">
        <ele>7</ele>
        <time>2021-06-12T07:19:40Z</time>
      </trkpt>
      <trkpt lat="46.36906" lon="-1.45962">
        <ele>7</ele>
        <time>2021-06-12T07:19:44Z</time>
      </trkpt>
      <trkpt lat="46.36941" lon="-1.45982">
        <ele>9</ele>
        <time>2021-06-12T07:19:51Z</time>
      </trkpt>
      <trkpt lat="46.36987" lon="-1.45994">
        <ele>13</ele>
        <time>2021-06-12T07:19:59Z</time>
      </trkpt>
      <trkpt lat="46.37123" lon="-1.46078">
        <ele>11</ele>
        <time>2021-06-12T07:20:25Z</time>
      </trkpt>
      <trkpt lat="46.37239" lon="-1.46193">
        <ele>10</ele>
        <time>2021-06-12T07:20:50Z</time>
      </trkpt>
      <trkpt lat="46.37296" lon="-1.46227">
        <ele>10</ele>
        <time>2021-06-12T07:21:01Z</time>
      </trkpt>
      <trkpt lat="46.37326" lon="-1.46236">
        <ele>9</ele>
        <time>2021-06-12T07:21:07Z</time>
      </trkpt>
      <trkpt lat="46.37337" lon="-1.46242">
        <ele>9</ele>
        <time>2021-06-12T07:21:09Z</time>
      </trkpt>
      <trkpt lat="46.37341" lon="-1.46259">
        <ele>9</ele>
        <time>2021-06-12T07:21:11Z</time>
      </trkpt>
      <trkpt lat="46.37348" lon="-1.46329">
        <ele>8</ele>
        <time>2021-06-12T07:21:20Z</time>
      </trkpt>
      <trkpt lat="46.37358" lon="-1.46386">
        <ele>11</ele>
        <time>2021-06-12T07:21:27Z</time>
      </trkpt>
      <trkpt lat="46.37368" lon="-1.46422">
        <ele>12</ele>
        <time>2021-06-12T07:21:32Z</time>
      </trkpt>
      <trkpt lat="46.37372" lon="-1.46523">
        <ele>13</ele>
        <time>2021-06-12T07:21:44Z</time>
      </trkpt>
      <trkpt lat="46.37376" lon="-1.46539">
        <ele>13</ele>
        <time>2021-06-12T07:21:46Z</time>
      </trkpt>
      <trkpt lat="46.37384" lon="-1.46561">
        <ele>13</ele>
        <time>2021-06-12T07:21:49Z</time>
      </trkpt>
      <trkpt lat="46.37387" lon="-1.46579">
        <ele>13</ele>
        <time>2021-06-12T07:21:52Z</time>
      </trkpt>
      <trkpt lat="46.37381" lon="-1.46674">
        <ele>13</ele>
        <time>2021-06-12T07:22:03Z</time>
      </trkpt>
      <trkpt lat="46.37403" lon="-1.4668">
        <ele>13</ele>
        <time>2021-06-12T07:22:07Z</time>
      </trkpt>
      <trkpt lat="46.37414" lon="-1.46679">
        <ele>13</ele>
        <time>2021-06-12T07:22:09Z</time>
      </trkpt>
      <trkpt lat="46.3745" lon="-1.46659">
        <ele>12</ele>
        <time>2021-06-12T07:22:16Z</time>
      </trkpt>
      <trkpt lat="46.37483" lon="-1.46652">
        <ele>12</ele>
        <time>2021-06-12T07:22:22Z</time>
      </trkpt>
      <trkpt lat="46.37504" lon="-1.46645">
        <ele>11</ele>
        <time>2021-06-12T07:22:26Z</time>
      </trkpt>
      <trkpt lat="46.37515" lon="-1.46635">
        <ele>11</ele>
        <time>2021-06-12T07:22:28Z</time>
      </trkpt>
      <trkpt lat="46.37524" lon="-1.46621">
        <ele>11</ele>
        <time>2021-06-12T07:22:31Z</time>
      </trkpt>
      <trkpt lat="46.37532" lon="-1.46593">
        <ele>10</ele>
        <time>2021-06-12T07:22:34Z</time>
      </trkpt>
      <trkpt lat="46.3754" lon="-1.4658">
        <ele>9</ele>
        <time>2021-06-12T07:22:36Z</time>
      </trkpt>
      <trkpt lat="46.37667" lon="-1.46553">
        <ele>12</ele>
        <time>2021-06-12T07:22:59Z</time>
      </trkpt>
      <trkpt lat="46.37679" lon="-1.46548">
        <ele>12</ele>
        <time>2021-06-12T07:23:01Z</time>
      </trkpt>
      <trkpt lat="46.37697" lon="-1.46529">
        <ele>12</ele>
        <time>2021-06-12T07:23:05Z</time>
      </trkpt>
      <trkpt lat="46.37717" lon="-1.46513">
        <ele>13</ele>
        <time>2021-06-12T07:23:10Z</time>
      </trkpt>
      <trkpt lat="46.37739" lon="-1.46511">
        <ele>15</ele>
        <time>2021-06-12T07:23:13Z</time>
      </trkpt>
      <trkpt lat="46.37747" lon="-1.46514">
        <ele>15</ele>
        <time>2021-06-12T07:23:15Z</time>
      </trkpt>
      <trkpt lat="46.37763" lon="-1.46515">
        <ele>15</ele>
        <time>2021-06-12T07:23:18Z</time>
      </trkpt>
      <trkpt lat="46.37774" lon="-1.46521">
        <ele>14</ele>
        <time>2021-06-12T07:23:20Z</time>
      </trkpt>
      <trkpt lat="46.37802" lon="-1.46543">
        <ele>14</ele>
        <time>2021-06-12T07:23:26Z</time>
      </trkpt>
      <trkpt lat="46.37856" lon="-1.46605">
        <ele>17</ele>
        <time>2021-06-12T07:23:38Z</time>
      </trkpt>
      <trkpt lat="46.37868" lon="-1.46611">
        <ele>17</ele>
        <time>2021-06-12T07:23:40Z</time>
      </trkpt>
      <trkpt lat="46.37877" lon="-1.46613">
        <ele>17</ele>
        <time>2021-06-12T07:23:42Z</time>
      </trkpt>
      <trkpt lat="46.37904" lon="-1.46608">
        <ele>16</ele>
        <time>2021-06-12T07:23:47Z</time>
      </trkpt>
      <trkpt lat="46.3793" lon="-1.46614">
        <ele>15</ele>
        <time>2021-06-12T07:23:51Z</time>
      </trkpt>
      <trkpt lat="46.37968" lon="-1.46626">
        <ele>15</ele>
        <time>2021-06-12T07:23:58Z</time>
      </trkpt>
      <trkpt lat="46.37985" lon="-1.46611">
        <ele>13</ele>
        <time>2021-06-12T07:24:02Z</time>
      </trkpt>
      <trkpt lat="46.38004" lon="-1.46587">
        <ele>9</ele>
        <time>2021-06-12T07:24:06Z</time>
      </trkpt>
      <trkpt lat="46.38012" lon="-1.46586">
        <ele>8</ele>
        <time>2021-06-12T07:24:08Z</time>
      </trkpt>
      <trkpt lat="46.38029" lon="-1.46592">
        <ele>9</ele>
        <time>2021-06-12T07:24:11Z</time>
      </trkpt>
      <trkpt lat="46.38054" lon="-1.46606">
        <ele>11</ele>
        <time>2021-06-12T07:24:15Z</time>
      </trkpt>
      <trkpt lat="46.38066" lon="-1.46608">
        <ele>11</ele>
        <time>2021-06-12T07:24:18Z</time>
      </trkpt>
      <trkpt lat="46.38197" lon="-1.46613">
        <ele>9</ele>
        <time>2021-06-12T07:24:41Z</time>
      </trkpt>
      <trkpt lat="46.38236" lon="-1.46619">
        <ele>10</ele>
        <time>2021-06-12T07:24:48Z</time>
      </trkpt>
      <trkpt lat="46.38244" lon="-1.46622">
        <ele>10</ele>
        <time>2021-06-12T07:24:49Z</time>
      </trkpt>
      <trkpt lat="46.38249" lon="-1.46628">
        <ele>11</ele>
        <time>2021-06-12T07:24:51Z</time>
      </trkpt>
      <trkpt lat="46.38259" lon="-1.46656">
        <ele>12</ele>
        <time>2021-06-12T07:24:54Z</time>
      </trkpt>
      <trkpt lat="46.38267" lon="-1.46662">
        <ele>13</ele>
        <time>2021-06-12T07:24:56Z</time>
      </trkpt>
      <trkpt lat="46.38273" lon="-1.46679">
        <ele>13</ele>
        <time>2021-06-12T07:24:58Z</time>
      </trkpt>
      <trkpt lat="46.38318" lon="-1.46776">
        <ele>10</ele>
        <time>2021-06-12T07:25:13Z</time>
      </trkpt>
      <trkpt lat="46.38426" lon="-1.46733">
        <ele>10</ele>
        <time>2021-06-12T07:25:33Z</time>
      </trkpt>
      <trkpt lat="46.38432" lon="-1.46738">
        <ele>9</ele>
        <time>2021-06-12T07:25:34Z</time>
      </trkpt>
      <trkpt lat="46.3846" lon="-1.46773">
        <ele>8</ele>
        <time>2021-06-12T07:25:40Z</time>
      </trkpt>
      <trkpt lat="46.38464" lon="-1.46783">
        <ele>8</ele>
        <time>2021-06-12T07:25:42Z</time>
      </trkpt>
      <trkpt lat="46.38468" lon="-1.46834">
        <ele>9</ele>
        <time>2021-06-12T07:25:48Z</time>
      </trkpt>
      <trkpt lat="46.38467" lon="-1.4685">
        <ele>9</ele>
        <time>2021-06-12T07:25:50Z</time>
      </trkpt>
      <trkpt lat="46.38462" lon="-1.46866">
        <ele>10</ele>
        <time>2021-06-12T07:25:52Z</time>
      </trkpt>
      <trkpt lat="46.38457" lon="-1.46873">
        <ele>10</ele>
        <time>2021-06-12T07:25:53Z</time>
      </trkpt>
      <trkpt lat="46.38451" lon="-1.47036">
        <ele>10</ele>
        <time>2021-06-12T07:26:14Z</time>
      </trkpt>
      <trkpt lat="46.38468" lon="-1.47043">
        <ele>9</ele>
        <time>2021-06-12T07:26:17Z</time>
      </trkpt>
      <trkpt lat="46.38482" lon="-1.47053">
        <ele>9</ele>
        <time>2021-06-12T07:26:19Z</time>
      </trkpt>
      <trkpt lat="46.38491" lon="-1.47055">
        <ele>8</ele>
        <time>2021-06-12T07:26:21Z</time>
      </trkpt>
      <trkpt lat="46.38492" lon="-1.4706">
        <ele>8</ele>
        <time>2021-06-12T07:26:22Z</time>
      </trkpt>
      <trkpt lat="46.38494" lon="-1.4707">
        <ele>8</ele>
        <time>2021-06-12T07:26:23Z</time>
      </trkpt>
      <trkpt lat="46.38494" lon="-1.47115">
        <ele>8</ele>
        <time>2021-06-12T07:26:29Z</time>
      </trkpt>
      <trkpt lat="46.38495" lon="-1.47128">
        <ele>8</ele>
        <time>2021-06-12T07:26:30Z</time>
      </trkpt>
      <trkpt lat="46.38498" lon="-1.47134">
        <ele>8</ele>
        <time>2021-06-12T07:26:31Z</time>
      </trkpt>
      <trkpt lat="46.38502" lon="-1.47145">
        <ele>8</ele>
        <time>2021-06-12T07:26:33Z</time>
      </trkpt>
      <trkpt lat="46.38503" lon="-1.47149">
        <ele>8</ele>
        <time>2021-06-12T07:26:33Z</time>
      </trkpt>
      <trkpt lat="46.38506" lon="-1.47152">
        <ele>8</ele>
        <time>2021-06-12T07:26:34Z</time>
      </trkpt>
      <trkpt lat="46.38508" lon="-1.47157">
        <ele>8</ele>
        <time>2021-06-12T07:26:34Z</time>
      </trkpt>
      <trkpt lat="46.38509" lon="-1.47162">
        <ele>8</ele>
        <time>2021-06-12T07:26:35Z</time>
      </trkpt>
      <trkpt lat="46.38512" lon="-1.47164">
        <ele>8</ele>
        <time>2021-06-12T07:26:36Z</time>
      </trkpt>
      <trkpt lat="46.38514" lon="-1.47167">
        <ele>8</ele>
        <time>2021-06-12T07:26:36Z</time>
      </trkpt>
      <trkpt lat="46.38515" lon="-1.47169">
        <ele>8</ele>
        <time>2021-06-12T07:26:36Z</time>
      </trkpt>
      <trkpt lat="46.38516" lon="-1.47182">
        <ele>9</ele>
        <time>2021-06-12T07:26:38Z</time>
      </trkpt>
      <trkpt lat="46.38513" lon="-1.47189">
        <ele>9</ele>
        <time>2021-06-12T07:26:39Z</time>
      </trkpt>
      <trkpt lat="46.38513" lon="-1.47196">
        <ele>9</ele>
        <time>2021-06-12T07:26:40Z</time>
      </trkpt>
      <trkpt lat="46.38512" lon="-1.47214">
        <ele>10</ele>
        <time>2021-06-12T07:26:42Z</time>
      </trkpt>
      <trkpt lat="46.38508" lon="-1.47402">
        <ele>19</ele>
        <time>2021-06-12T07:27:05Z</time>
      </trkpt>
      <trkpt lat="46.38505" lon="-1.47464">
        <ele>17</ele>
        <time>2021-06-12T07:27:13Z</time>
      </trkpt>
      <trkpt lat="46.38495" lon="-1.47562">
        <ele>15</ele>
        <time>2021-06-12T07:27:25Z</time>
      </trkpt>
      <trkpt lat="46.38488" lon="-1.47602">
        <ele>14</ele>
        <time>2021-06-12T07:27:30Z</time>
      </trkpt>
      <trkpt lat="46.38458" lon="-1.47732">
        <ele>13</ele>
        <time>2021-06-12T07:27:47Z</time>
      </trkpt>
      <trkpt lat="46.38454" lon="-1.47753">
        <ele>13</ele>
        <time>2021-06-12T07:27:50Z</time>
      </trkpt>
      <trkpt lat="46.38453" lon="-1.47775">
        <ele>13</ele>
        <time>2021-06-12T07:27:52Z</time>
      </trkpt>
      <trkpt lat="46.38449" lon="-1.48135">
        <ele>16</ele>
        <time>2021-06-12T07:28:37Z</time>
      </trkpt>
      <trkpt lat="46.38524" lon="-1.48168">
        <ele>15</ele>
        <time>2021-06-12T07:28:50Z</time>
      </trkpt>
      <trkpt lat="46.38543" lon="-1.48179">
        <ele>15</ele>
        <time>2021-06-12T07:28:54Z</time>
      </trkpt>
      <trkpt lat="46.38685" lon="-1.48304">
        <ele>15</ele>
        <time>2021-06-12T07:29:24Z</time>
      </trkpt>
      <trkpt lat="46.38699" lon="-1.48318">
        <ele>14</ele>
        <time>2021-06-12T07:29:27Z</time>
      </trkpt>
      <trkpt lat="46.38713" lon="-1.48342">
        <ele>14</ele>
        <time>2021-06-12T07:29:31Z</time>
      </trkpt>
      <trkpt lat="46.38725" lon="-1.4837">
        <ele>15</ele>
        <time>2021-06-12T07:29:35Z</time>
      </trkpt>
      <trkpt lat="46.38735" lon="-1.48424">
        <ele>16</ele>
        <time>2021-06-12T07:29:41Z</time>
      </trkpt>
      <trkpt lat="46.38742" lon="-1.48445">
        <ele>16</ele>
        <time>2021-06-12T07:29:44Z</time>
      </trkpt>
      <trkpt lat="46.38752" lon="-1.4846">
        <ele>17</ele>
        <time>2021-06-12T07:29:47Z</time>
      </trkpt>
      <trkpt lat="46.38787" lon="-1.48505">
        <ele>18</ele>
        <time>2021-06-12T07:29:55Z</time>
      </trkpt>
      <trkpt lat="46.38824" lon="-1.48551">
        <ele>19</ele>
        <time>2021-06-12T07:30:04Z</time>
      </trkpt>
      <trkpt lat="46.38831" lon="-1.48478">
        <ele>15</ele>
        <time>2021-06-12T07:30:13Z</time>
      </trkpt>
      <trkpt lat="46.3899" lon="-1.48468">
        <ele>14</ele>
        <time>2021-06-12T07:30:41Z</time>
      </trkpt>
      <trkpt lat="46.38994" lon="-1.48456">
        <ele>14</ele>
        <time>2021-06-12T07:30:43Z</time>
      </trkpt>
      <trkpt lat="46.39043" lon="-1.48414">
        <ele>10</ele>
        <time>2021-06-12T07:30:53Z</time>
      </trkpt>
      <trkpt lat="46.39083" lon="-1.48445">
        <ele>8</ele>
        <time>2021-06-12T07:31:01Z</time>
      </trkpt>
      <trkpt lat="46.39153" lon="-1.48513">
        <ele>10</ele>
        <time>2021-06-12T07:31:16Z</time>
      </trkpt>
      <trkpt lat="46.39164" lon="-1.485">
        <ele>10</ele>
        <time>2021-06-12T07:31:19Z</time>
      </trkpt>
      <trkpt lat="46.39191" lon="-1.48478">
        <ele>9</ele>
        <time>2021-06-12T07:31:24Z</time>
      </trkpt>
      <trkpt lat="46.39202" lon="-1.48473">
        <ele>8</ele>
        <time>2021-06-12T07:31:26Z</time>
      </trkpt>
      <trkpt lat="46.3924" lon="-1.48466">
        <ele>7</ele>
        <time>2021-06-12T07:31:33Z</time>
      </trkpt>
      <trkpt lat="46.39249" lon="-1.48462">
        <ele>7</ele>
        <time>2021-06-12T07:31:35Z</time>
      </trkpt>
      <trkpt lat="46.39251" lon="-1.48507">
        <ele>9</ele>
        <time>2021-06-12T07:31:40Z</time>
      </trkpt>
      <trkpt lat="46.39255" lon="-1.48513">
        <ele>9</ele>
        <time>2021-06-12T07:31:41Z</time>
      </trkpt>
      <trkpt lat="46.39262" lon="-1.48537">
        <ele>10</ele>
        <time>2021-06-12T07:31:44Z</time>
      </trkpt>
      <trkpt lat="46.39248" lon="-1.48547">
        <ele>12</ele>
        <time>2021-06-12T07:31:47Z</time>
      </trkpt>
      <trkpt lat="46.39258" lon="-1.48559">
        <ele>12</ele>
        <time>2021-06-12T07:31:49Z</time>
      </trkpt>
      <trkpt lat="46.39266" lon="-1.48578">
        <ele>13</ele>
        <time>2021-06-12T07:31:52Z</time>
      </trkpt>
      <trkpt lat="46.39278" lon="-1.48635">
        <ele>15</ele>
        <time>2021-06-12T07:32:00Z</time>
      </trkpt>
      <trkpt lat="46.3928" lon="-1.48664">
        <ele>17</ele>
        <time>2021-06-12T07:32:03Z</time>
      </trkpt>
      <trkpt lat="46.39271" lon="-1.48724">
        <ele>17</ele>
        <time>2021-06-12T07:32:11Z</time>
      </trkpt>
      <trkpt lat="46.39274" lon="-1.4874">
        <ele>17</ele>
        <time>2021-06-12T07:32:13Z</time>
      </trkpt>
      <trkpt lat="46.39294" lon="-1.48787">
        <ele>16</ele>
        <time>2021-06-12T07:32:19Z</time>
      </trkpt>
      <trkpt lat="46.39306" lon="-1.48806">
        <ele>15</ele>
        <time>2021-06-12T07:32:23Z</time>
      </trkpt>
      <trkpt lat="46.39317" lon="-1.48815">
        <ele>15</ele>
        <time>2021-06-12T07:32:25Z</time>
      </trkpt>
      <trkpt lat="46.39331" lon="-1.48814">
        <ele>14</ele>
        <time>2021-06-12T07:32:27Z</time>
      </trkpt>
      <trkpt lat="46.39358" lon="-1.48819">
        <ele>14</ele>
        <time>2021-06-12T07:32:32Z</time>
      </trkpt>
      <trkpt lat="46.39368" lon="-1.48825">
        <ele>14</ele>
        <time>2021-06-12T07:32:34Z</time>
      </trkpt>
      <trkpt lat="46.39383" lon="-1.48845">
        <ele>14</ele>
        <time>2021-06-12T07:32:38Z</time>
      </trkpt>
      <trkpt lat="46.39408" lon="-1.48869">
        <ele>14</ele>
        <time>2021-06-12T07:32:43Z</time>
      </trkpt>
      <trkpt lat="46.39417" lon="-1.48869">
        <ele>14</ele>
        <time>2021-06-12T07:32:45Z</time>
      </trkpt>
      <trkpt lat="46.39441" lon="-1.48861">
        <ele>13</ele>
        <time>2021-06-12T07:32:49Z</time>
      </trkpt>
      <trkpt lat="46.39467" lon="-1.4886">
        <ele>13</ele>
        <time>2021-06-12T07:32:54Z</time>
      </trkpt>
      <trkpt lat="46.39502" lon="-1.4887">
        <ele>12</ele>
        <time>2021-06-12T07:33:00Z</time>
      </trkpt>
      <trkpt lat="46.39518" lon="-1.48891">
        <ele>12</ele>
        <time>2021-06-12T07:33:04Z</time>
      </trkpt>
      <trkpt lat="46.39527" lon="-1.48933">
        <ele>13</ele>
        <time>2021-06-12T07:33:09Z</time>
      </trkpt>
      <trkpt lat="46.39553" lon="-1.4896">
        <ele>13</ele>
        <time>2021-06-12T07:33:15Z</time>
      </trkpt>
      <trkpt lat="46.39586" lon="-1.48984">
        <ele>12</ele>
        <time>2021-06-12T07:33:22Z</time>
      </trkpt>
      <trkpt lat="46.39623" lon="-1.48967">
        <ele>11</ele>
        <time>2021-06-12T07:33:28Z</time>
      </trkpt>
      <trkpt lat="46.39644" lon="-1.48946">
        <ele>10</ele>
        <time>2021-06-12T07:33:33Z</time>
      </trkpt>
      <trkpt lat="46.39683" lon="-1.48926">
        <ele>10</ele>
        <time>2021-06-12T07:33:40Z</time>
      </trkpt>
      <trkpt lat="46.39703" lon="-1.48901">
        <ele>11</ele>
        <time>2021-06-12T07:33:45Z</time>
      </trkpt>
      <trkpt lat="46.39717" lon="-1.48867">
        <ele>12</ele>
        <time>2021-06-12T07:33:50Z</time>
      </trkpt>
      <trkpt lat="46.39727" lon="-1.48851">
        <ele>12</ele>
        <time>2021-06-12T07:33:53Z</time>
      </trkpt>
      <trkpt lat="46.39739" lon="-1.48844">
        <ele>13</ele>
        <time>2021-06-12T07:33:55Z</time>
      </trkpt>
      <trkpt lat="46.39783" lon="-1.48843">
        <ele>13</ele>
        <time>2021-06-12T07:34:03Z</time>
      </trkpt>
      <trkpt lat="46.39787" lon="-1.48847">
        <ele>13</ele>
        <time>2021-06-12T07:34:04Z</time>
      </trkpt>
      <trkpt lat="46.39798" lon="-1.48849">
        <ele>13</ele>
        <time>2021-06-12T07:34:06Z</time>
      </trkpt>
      <trkpt lat="46.39817" lon="-1.48847">
        <ele>13</ele>
        <time>2021-06-12T07:34:09Z</time>
      </trkpt>
      <trkpt lat="46.39826" lon="-1.48845">
        <ele>14</ele>
        <time>2021-06-12T07:34:11Z</time>
      </trkpt>
      <trkpt lat="46.39841" lon="-1.48834">
        <ele>14</ele>
        <time>2021-06-12T07:34:14Z</time>
      </trkpt>
      <trkpt lat="46.39869" lon="-1.48791">
        <ele>13</ele>
        <time>2021-06-12T07:34:21Z</time>
      </trkpt>
      <trkpt lat="46.39887" lon="-1.48729">
        <ele>12</ele>
        <time>2021-06-12T07:34:29Z</time>
      </trkpt>
      <trkpt lat="46.39897" lon="-1.48706">
        <ele>11</ele>
        <time>2021-06-12T07:34:32Z</time>
      </trkpt>
      <trkpt lat="46.39906" lon="-1.48699">
        <ele>11</ele>
        <time>2021-06-12T07:34:34Z</time>
      </trkpt>
      <trkpt lat="46.39926" lon="-1.48689">
        <ele>11</ele>
        <time>2021-06-12T07:34:38Z</time>
      </trkpt>
      <trkpt lat="46.39937" lon="-1.48678">
        <ele>12</ele>
        <time>2021-06-12T07:34:40Z</time>
      </trkpt>
      <trkpt lat="46.39972" lon="-1.48624">
        <ele>13</ele>
        <time>2021-06-12T07:34:49Z</time>
      </trkpt>
      <trkpt lat="46.39979" lon="-1.48617">
        <ele>13</ele>
        <time>2021-06-12T07:34:51Z</time>
      </trkpt>
      <trkpt lat="46.39986" lon="-1.48613">
        <ele>14</ele>
        <time>2021-06-12T07:34:52Z</time>
      </trkpt>
      <trkpt lat="46.40032" lon="-1.48608">
        <ele>13</ele>
        <time>2021-06-12T07:35:00Z</time>
      </trkpt>
      <trkpt lat="46.40067" lon="-1.48593">
        <ele>11</ele>
        <time>2021-06-12T07:35:07Z</time>
      </trkpt>
      <trkpt lat="46.40078" lon="-1.4859">
        <ele>10</ele>
        <time>2021-06-12T07:35:09Z</time>
      </trkpt>
      <trkpt lat="46.4009" lon="-1.48593">
        <ele>10</ele>
        <time>2021-06-12T07:35:11Z</time>
      </trkpt>
      <trkpt lat="46.40098" lon="-1.486">
        <ele>9</ele>
        <time>2021-06-12T07:35:13Z</time>
      </trkpt>
      <trkpt lat="46.40111" lon="-1.48622">
        <ele>9</ele>
        <time>2021-06-12T07:35:16Z</time>
      </trkpt>
      <trkpt lat="46.40124" lon="-1.48638">
        <ele>8</ele>
        <time>2021-06-12T07:35:19Z</time>
      </trkpt>
      <trkpt lat="46.40138" lon="-1.48649">
        <ele>8</ele>
        <time>2021-06-12T07:35:22Z</time>
      </trkpt>
      <trkpt lat="46.40148" lon="-1.48653">
        <ele>8</ele>
        <time>2021-06-12T07:35:24Z</time>
      </trkpt>
      <trkpt lat="46.40152" lon="-1.48659">
        <ele>8</ele>
        <time>2021-06-12T07:35:25Z</time>
      </trkpt>
      <trkpt lat="46.40155" lon="-1.48667">
        <ele>8</ele>
        <time>2021-06-12T07:35:26Z</time>
      </trkpt>
      <trkpt lat="46.40164" lon="-1.48706">
        <ele>9</ele>
        <time>2021-06-12T07:35:31Z</time>
      </trkpt>
      <trkpt lat="46.40167" lon="-1.4873">
        <ele>9</ele>
        <time>2021-06-12T07:35:34Z</time>
      </trkpt>
      <trkpt lat="46.40172" lon="-1.4874">
        <ele>9</ele>
        <time>2021-06-12T07:35:36Z</time>
      </trkpt>
      <trkpt lat="46.40176" lon="-1.48744">
        <ele>9</ele>
        <time>2021-06-12T07:35:37Z</time>
      </trkpt>
      <trkpt lat="46.40215" lon="-1.48758">
        <ele>8</ele>
        <time>2021-06-12T07:35:44Z</time>
      </trkpt>
      <trkpt lat="46.40227" lon="-1.48765">
        <ele>8</ele>
        <time>2021-06-12T07:35:46Z</time>
      </trkpt>
      <trkpt lat="46.40235" lon="-1.48774">
        <ele>8</ele>
        <time>2021-06-12T07:35:48Z</time>
      </trkpt>
      <trkpt lat="46.40249" lon="-1.48795">
        <ele>7</ele>
        <time>2021-06-12T07:35:51Z</time>
      </trkpt>
      <trkpt lat="46.40265" lon="-1.48825">
        <ele>7</ele>
        <time>2021-06-12T07:35:56Z</time>
      </trkpt>
      <trkpt lat="46.4027" lon="-1.48838">
        <ele>7</ele>
        <time>2021-06-12T07:35:58Z</time>
      </trkpt>
      <trkpt lat="46.40285" lon="-1.48907">
        <ele>8</ele>
        <time>2021-06-12T07:36:07Z</time>
      </trkpt>
      <trkpt lat="46.40291" lon="-1.48923">
        <ele>8</ele>
        <time>2021-06-12T07:36:09Z</time>
      </trkpt>
      <trkpt lat="46.40297" lon="-1.48934">
        <ele>8</ele>
        <time>2021-06-12T07:36:11Z</time>
      </trkpt>
      <trkpt lat="46.40305" lon="-1.48945">
        <ele>8</ele>
        <time>2021-06-12T07:36:13Z</time>
      </trkpt>
      <trkpt lat="46.40317" lon="-1.48955">
        <ele>8</ele>
        <time>2021-06-12T07:36:15Z</time>
      </trkpt>
      <trkpt lat="46.40325" lon="-1.48966">
        <ele>8</ele>
        <time>2021-06-12T07:36:17Z</time>
      </trkpt>
      <trkpt lat="46.40341" lon="-1.49006">
        <ele>8</ele>
        <time>2021-06-12T07:36:23Z</time>
      </trkpt>
      <trkpt lat="46.40355" lon="-1.49036">
        <ele>9</ele>
        <time>2021-06-12T07:36:27Z</time>
      </trkpt>
      <trkpt lat="46.40362" lon="-1.4905">
        <ele>10</ele>
        <time>2021-06-12T07:36:29Z</time>
      </trkpt>
      <trkpt lat="46.4037" lon="-1.49059">
        <ele>10</ele>
        <time>2021-06-12T07:36:31Z</time>
      </trkpt>
      <trkpt lat="46.40386" lon="-1.49068">
        <ele>11</ele>
        <time>2021-06-12T07:36:34Z</time>
      </trkpt>
      <trkpt lat="46.40393" lon="-1.49067">
        <ele>11</ele>
        <time>2021-06-12T07:36:35Z</time>
      </trkpt>
      <trkpt lat="46.40403" lon="-1.49057">
        <ele>11</ele>
        <time>2021-06-12T07:36:38Z</time>
      </trkpt>
      <trkpt lat="46.40426" lon="-1.49019">
        <ele>11</ele>
        <time>2021-06-12T07:36:44Z</time>
      </trkpt>
      <trkpt lat="46.40435" lon="-1.48996">
        <ele>10</ele>
        <time>2021-06-12T07:36:47Z</time>
      </trkpt>
      <trkpt lat="46.40456" lon="-1.48936">
        <ele>9</ele>
        <time>2021-06-12T07:36:55Z</time>
      </trkpt>
      <trkpt lat="46.40463" lon="-1.4891">
        <ele>9</ele>
        <time>2021-06-12T07:36:59Z</time>
      </trkpt>
      <trkpt lat="46.40529" lon="-1.48989">
        <ele>10</ele>
        <time>2021-06-12T07:37:14Z</time>
      </trkpt>
      <trkpt lat="46.40602" lon="-1.49054">
        <ele>10</ele>
        <time>2021-06-12T07:37:29Z</time>
      </trkpt>
      <trkpt lat="46.40688" lon="-1.49124">
        <ele>9</ele>
        <time>2021-06-12T07:37:47Z</time>
      </trkpt>
      <trkpt lat="46.40717" lon="-1.49057">
        <ele>8</ele>
        <time>2021-06-12T07:37:56Z</time>
      </trkpt>
      <trkpt lat="46.40812" lon="-1.49131">
        <ele>7</ele>
        <time>2021-06-12T07:38:16Z</time>
      </trkpt>
      <trkpt lat="46.40836" lon="-1.49155">
        <ele>8</ele>
        <time>2021-06-12T07:38:21Z</time>
      </trkpt>
      <trkpt lat="46.40846" lon="-1.49175">
        <ele>9</ele>
        <time>2021-06-12T07:38:24Z</time>
      </trkpt>
      <trkpt lat="46.4085" lon="-1.49187">
        <ele>9</ele>
        <time>2021-06-12T07:38:26Z</time>
      </trkpt>
      <trkpt lat="46.4086" lon="-1.49209">
        <ele>10</ele>
        <time>2021-06-12T07:38:29Z</time>
      </trkpt>
      <trkpt lat="46.40868" lon="-1.49227">
        <ele>10</ele>
        <time>2021-06-12T07:38:31Z</time>
      </trkpt>
      <trkpt lat="46.40872" lon="-1.49236">
        <ele>11</ele>
        <time>2021-06-12T07:38:33Z</time>
      </trkpt>
      <trkpt lat="46.40877" lon="-1.49242">
        <ele>11</ele>
        <time>2021-06-12T07:38:34Z</time>
      </trkpt>
      <trkpt lat="46.40882" lon="-1.49255">
        <ele>11</ele>
        <time>2021-06-12T07:38:36Z</time>
      </trkpt>
      <trkpt lat="46.40883" lon="-1.49261">
        <ele>11</ele>
        <time>2021-06-12T07:38:36Z</time>
      </trkpt>
      <trkpt lat="46.40882" lon="-1.49271">
        <ele>11</ele>
        <time>2021-06-12T07:38:38Z</time>
      </trkpt>
      <trkpt lat="46.40882" lon="-1.49282">
        <ele>11</ele>
        <time>2021-06-12T07:38:39Z</time>
      </trkpt>
      <trkpt lat="46.40884" lon="-1.49288">
        <ele>11</ele>
        <time>2021-06-12T07:38:40Z</time>
      </trkpt>
      <trkpt lat="46.40884" lon="-1.49299">
        <ele>11</ele>
        <time>2021-06-12T07:38:41Z</time>
      </trkpt>
      <trkpt lat="46.40881" lon="-1.49309">
        <ele>12</ele>
        <time>2021-06-12T07:38:43Z</time>
      </trkpt>
      <trkpt lat="46.40874" lon="-1.49315">
        <ele>12</ele>
        <time>2021-06-12T07:38:44Z</time>
      </trkpt>
      <trkpt lat="46.40867" lon="-1.49316">
        <ele>12</ele>
        <time>2021-06-12T07:38:45Z</time>
      </trkpt>
      <trkpt lat="46.40861" lon="-1.49312">
        <ele>12</ele>
        <time>2021-06-12T07:38:46Z</time>
      </trkpt>
      <trkpt lat="46.40855" lon="-1.49323">
        <ele>12</ele>
        <time>2021-06-12T07:38:48Z</time>
      </trkpt>
      <trkpt lat="46.40847" lon="-1.49317">
        <ele>12</ele>
        <time>2021-06-12T07:38:50Z</time>
      </trkpt>
      <trkpt lat="46.40834" lon="-1.49317">
        <ele>13</ele>
        <time>2021-06-12T07:38:52Z</time>
      </trkpt>
      <trkpt lat="46.40808" lon="-1.49311">
        <ele>14</ele>
        <time>2021-06-12T07:38:57Z</time>
      </trkpt>
      <trkpt lat="46.40794" lon="-1.49311">
        <ele>15</ele>
        <time>2021-06-12T07:38:59Z</time>
      </trkpt>
      <trkpt lat="46.40777" lon="-1.4932">
        <ele>16</ele>
        <time>2021-06-12T07:39:02Z</time>
      </trkpt>
      <trkpt lat="46.40755" lon="-1.4931">
        <ele>16</ele>
        <time>2021-06-12T07:39:07Z</time>
      </trkpt>
      <trkpt lat="46.40755" lon="-1.49341">
        <ele>17</ele>
        <time>2021-06-12T07:39:10Z</time>
      </trkpt>
      <trkpt lat="46.40753" lon="-1.49349">
        <ele>16</ele>
        <time>2021-06-12T07:39:11Z</time>
      </trkpt>
      <trkpt lat="46.40693" lon="-1.49406">
        <ele>16</ele>
        <time>2021-06-12T07:39:24Z</time>
      </trkpt>
      <trkpt lat="46.40645" lon="-1.4946">
        <ele>17</ele>
        <time>2021-06-12T07:39:35Z</time>
      </trkpt>
      <trkpt lat="46.40556" lon="-1.49589">
        <ele>16</ele>
        <time>2021-06-12T07:39:57Z</time>
      </trkpt>
      <trkpt lat="46.40471" lon="-1.49733">
        <ele>14</ele>
        <time>2021-06-12T07:40:21Z</time>
      </trkpt>
      <trkpt lat="46.40427" lon="-1.49812">
        <ele>13</ele>
        <time>2021-06-12T07:40:33Z</time>
      </trkpt>
      <trkpt lat="46.40391" lon="-1.49891">
        <ele>14</ele>
        <time>2021-06-12T07:40:45Z</time>
      </trkpt>
      <trkpt lat="46.40331" lon="-1.50054">
        <ele>19</ele>
        <time>2021-06-12T07:41:07Z</time>
      </trkpt>
      <trkpt lat="46.40441" lon="-1.50153">
        <ele>20</ele>
        <time>2021-06-12T07:41:30Z</time>
      </trkpt>
      <trkpt lat="46.40517" lon="-1.5023">
        <ele>19</ele>
        <time>2021-06-12T07:41:47Z</time>
      </trkpt>
      <trkpt lat="46.40607" lon="-1.50316">
        <ele>22</ele>
        <time>2021-06-12T07:42:06Z</time>
      </trkpt>
      <trkpt lat="46.40653" lon="-1.50379">
        <ele>19</ele>
        <time>2021-06-12T07:42:17Z</time>
      </trkpt>
      <trkpt lat="46.40676" lon="-1.50401">
        <ele>18</ele>
        <time>2021-06-12T07:42:22Z</time>
      </trkpt>
      <trkpt lat="46.40685" lon="-1.50404">
        <ele>17</ele>
        <time>2021-06-12T07:42:24Z</time>
      </trkpt>
      <trkpt lat="46.40694" lon="-1.50402">
        <ele>17</ele>
        <time>2021-06-12T07:42:25Z</time>
      </trkpt>
      <trkpt lat="46.40983" lon="-1.50241">
        <ele>20</ele>
        <time>2021-06-12T07:43:21Z</time>
      </trkpt>
      <trkpt lat="46.41027" lon="-1.50218">
        <ele>19</ele>
        <time>2021-06-12T07:43:29Z</time>
      </trkpt>
      <trkpt lat="46.41039" lon="-1.5022">
        <ele>19</ele>
        <time>2021-06-12T07:43:31Z</time>
      </trkpt>
      <trkpt lat="46.41043" lon="-1.50224">
        <ele>19</ele>
        <time>2021-06-12T07:43:32Z</time>
      </trkpt>
      <trkpt lat="46.41054" lon="-1.50287">
        <ele>19</ele>
        <time>2021-06-12T07:43:40Z</time>
      </trkpt>
      <trkpt lat="46.41021" lon="-1.50315">
        <ele>20</ele>
        <time>2021-06-12T07:43:47Z</time>
      </trkpt>
      <trkpt lat="46.41011" lon="-1.50326">
        <ele>21</ele>
        <time>2021-06-12T07:43:49Z</time>
      </trkpt>
      <trkpt lat="46.41005" lon="-1.50341">
        <ele>21</ele>
        <time>2021-06-12T07:43:51Z</time>
      </trkpt>
      <trkpt lat="46.41004" lon="-1.50362">
        <ele>21</ele>
        <time>2021-06-12T07:43:54Z</time>
      </trkpt>
      <trkpt lat="46.4101" lon="-1.50386">
        <ele>21</ele>
        <time>2021-06-12T07:43:57Z</time>
      </trkpt>
      <trkpt lat="46.41038" lon="-1.50471">
        <ele>20</ele>
        <time>2021-06-12T07:44:08Z</time>
      </trkpt>
      <trkpt lat="46.41046" lon="-1.50479">
        <ele>20</ele>
        <time>2021-06-12T07:44:10Z</time>
      </trkpt>
      <trkpt lat="46.41062" lon="-1.5049">
        <ele>19</ele>
        <time>2021-06-12T07:44:13Z</time>
      </trkpt>
      <trkpt lat="46.41074" lon="-1.50502">
        <ele>19</ele>
        <time>2021-06-12T07:44:16Z</time>
      </trkpt>
      <trkpt lat="46.41085" lon="-1.50534">
        <ele>19</ele>
        <time>2021-06-12T07:44:20Z</time>
      </trkpt>
      <trkpt lat="46.41097" lon="-1.50745">
        <ele>23</ele>
        <time>2021-06-12T07:44:46Z</time>
      </trkpt>
      <trkpt lat="46.41104" lon="-1.50806">
        <ele>22</ele>
        <time>2021-06-12T07:44:54Z</time>
      </trkpt>
      <trkpt lat="46.41111" lon="-1.5084">
        <ele>21</ele>
        <time>2021-06-12T07:44:58Z</time>
      </trkpt>
      <trkpt lat="46.41097" lon="-1.50877">
        <ele>22</ele>
        <time>2021-06-12T07:45:03Z</time>
      </trkpt>
      <trkpt lat="46.41075" lon="-1.50921">
        <ele>23</ele>
        <time>2021-06-12T07:45:10Z</time>
      </trkpt>
      <trkpt lat="46.41077" lon="-1.50991">
        <ele>25</ele>
        <time>2021-06-12T07:45:19Z</time>
      </trkpt>
      <trkpt lat="46.41086" lon="-1.51022">
        <ele>26</ele>
        <time>2021-06-12T07:45:23Z</time>
      </trkpt>
      <trkpt lat="46.41095" lon="-1.51046">
        <ele>26</ele>
        <time>2021-06-12T07:45:26Z</time>
      </trkpt>
      <trkpt lat="46.41101" lon="-1.51054">
        <ele>26</ele>
        <time>2021-06-12T07:45:27Z</time>
      </trkpt>
      <trkpt lat="46.41132" lon="-1.51071">
        <ele>24</ele>
        <time>2021-06-12T07:45:33Z</time>
      </trkpt>
      <trkpt lat="46.41137" lon="-1.51077">
        <ele>24</ele>
        <time>2021-06-12T07:45:35Z</time>
      </trkpt>
      <trkpt lat="46.41151" lon="-1.51163">
        <ele>26</ele>
        <time>2021-06-12T07:45:45Z</time>
      </trkpt>
      <trkpt lat="46.41199" lon="-1.51243">
        <ele>26</ele>
        <time>2021-06-12T07:45:58Z</time>
      </trkpt>
      <trkpt lat="46.41257" lon="-1.5132">
        <ele>25</ele>
        <time>2021-06-12T07:46:12Z</time>
      </trkpt>
      <trkpt lat="46.413" lon="-1.51361">
        <ele>21</ele>
        <time>2021-06-12T07:46:22Z</time>
      </trkpt>
      <trkpt lat="46.41315" lon="-1.51375">
        <ele>20</ele>
        <time>2021-06-12T07:46:25Z</time>
      </trkpt>
      <trkpt lat="46.41329" lon="-1.51376">
        <ele>18</ele>
        <time>2021-06-12T07:46:27Z</time>
      </trkpt>
      <trkpt lat="46.41344" lon="-1.51512">
        <ele>18</ele>
        <time>2021-06-12T07:46:44Z</time>
      </trkpt>
      <trkpt lat="46.4134" lon="-1.51507">
        <ele>19</ele>
        <time>2021-06-12T07:46:45Z</time>
      </trkpt>
      <trkpt lat="46.4134" lon="-1.51518">
        <ele>19</ele>
        <time>2021-06-12T07:46:46Z</time>
      </trkpt>
      <trkpt lat="46.41367" lon="-1.51762">
        <ele>16</ele>
        <time>2021-06-12T07:47:17Z</time>
      </trkpt>
      <trkpt lat="46.41374" lon="-1.51761">
        <ele>15</ele>
        <time>2021-06-12T07:47:18Z</time>
      </trkpt>
      <trkpt lat="46.41378" lon="-1.51803">
        <ele>15</ele>
        <time>2021-06-12T07:47:23Z</time>
      </trkpt>
      <trkpt lat="46.41376" lon="-1.51837">
        <ele>15</ele>
        <time>2021-06-12T07:47:27Z</time>
      </trkpt>
      <trkpt lat="46.41365" lon="-1.51942">
        <ele>14</ele>
        <time>2021-06-12T07:47:40Z</time>
      </trkpt>
      <trkpt lat="46.41356" lon="-1.52005">
        <ele>15</ele>
        <time>2021-06-12T07:47:48Z</time>
      </trkpt>
      <trkpt lat="46.41328" lon="-1.52296">
        <ele>13</ele>
        <time>2021-06-12T07:48:24Z</time>
      </trkpt>
      <trkpt lat="46.41312" lon="-1.52403">
        <ele>12</ele>
        <time>2021-06-12T07:48:38Z</time>
      </trkpt>
      <trkpt lat="46.41309" lon="-1.52436">
        <ele>13</ele>
        <time>2021-06-12T07:48:42Z</time>
      </trkpt>
      <trkpt lat="46.41305" lon="-1.52587">
        <ele>14</ele>
        <time>2021-06-12T07:49:00Z</time>
      </trkpt>
      <trkpt lat="46.41301" lon="-1.5259">
        <ele>14</ele>
        <time>2021-06-12T07:49:01Z</time>
      </trkpt>
      <trkpt lat="46.41296" lon="-1.5259">
        <ele>14</ele>
        <time>2021-06-12T07:49:02Z</time>
      </trkpt>
      <trkpt lat="46.41296" lon="-1.52596">
        <ele>14</ele>
        <time>2021-06-12T07:49:03Z</time>
      </trkpt>
      <trkpt lat="46.41274" lon="-1.5266">
        <ele>14</ele>
        <time>2021-06-12T07:49:12Z</time>
      </trkpt>
      <trkpt lat="46.41252" lon="-1.52738">
        <ele>16</ele>
        <time>2021-06-12T07:49:22Z</time>
      </trkpt>
      <trkpt lat="46.41243" lon="-1.52735">
        <ele>16</ele>
        <time>2021-06-12T07:49:24Z</time>
      </trkpt>
      <trkpt lat="46.41223" lon="-1.52724">
        <ele>17</ele>
        <time>2021-06-12T07:49:27Z</time>
      </trkpt>
      <trkpt lat="46.41224" lon="-1.52712">
        <ele>17</ele>
        <time>2021-06-12T07:49:29Z</time>
      </trkpt>
    </trkseg>
  </trk>
</gpx>